<?xml version="1.0" encoding="UTF-8" standalone="no" ?>
<gpx xmlns="http://www.topografix.com/GPX/1/1" xmlns:xsi="http://www.w3.org/2001/XMLSchema-instance" xsi:schemaLocation="http://www.topografix.com/GPX/1/1 http://www.topografix.com/GPX/1/1/gpx.xsd" version="1.1" creator="VisuGPX - https://www.visugpx.com">
  <metadata>
    <name>Le-Puy-en-Velay-Figeac</name>
    <desc><![CDATA[Chemin de Compostelle 2018 : Le-Puy-en-Velay-Figeac]]></desc>
  </metadata>
  <trk>
    <name><![CDATA[Le-Puy-en-Velay-Figeac_1]]></name>
    <trkseg>
      <trkpt lat="45.04549" lon="3.88313">
        <ele>655</ele>
        <time>2018-04-27T06:00:02Z</time>
      </trkpt>
      <trkpt lat="45.04546" lon="3.88363">
        <ele>667</ele>
        <time>2018-04-27T06:01:00Z</time>
      </trkpt>
      <trkpt lat="45.04554" lon="3.88394">
        <ele>666</ele>
        <time>2018-04-27T06:01:05Z</time>
      </trkpt>
      <trkpt lat="45.04553" lon="3.88392">
        <ele>667</ele>
        <time>2018-04-27T06:01:06Z</time>
      </trkpt>
      <trkpt lat="45.04558" lon="3.88398">
        <ele>666</ele>
        <time>2018-04-27T06:01:25Z</time>
      </trkpt>
      <trkpt lat="45.04561" lon="3.88383">
        <ele>659</ele>
        <time>2018-04-27T06:02:12Z</time>
      </trkpt>
      <trkpt lat="45.04561" lon="3.88361">
        <ele>657</ele>
        <time>2018-04-27T06:02:27Z</time>
      </trkpt>
      <trkpt lat="45.04561" lon="3.88354">
        <ele>656</ele>
        <time>2018-04-27T06:02:31Z</time>
      </trkpt>
      <trkpt lat="45.04561" lon="3.88348">
        <ele>654</ele>
        <time>2018-04-27T06:02:39Z</time>
      </trkpt>
      <trkpt lat="45.04561" lon="3.88341">
        <ele>653</ele>
        <time>2018-04-27T06:02:44Z</time>
      </trkpt>
      <trkpt lat="45.04559" lon="3.88332">
        <ele>651</ele>
        <time>2018-04-27T06:02:53Z</time>
      </trkpt>
      <trkpt lat="45.04557" lon="3.88306">
        <ele>646</ele>
        <time>2018-04-27T06:03:17Z</time>
      </trkpt>
      <trkpt lat="45.04524" lon="3.88298">
        <ele>643</ele>
        <time>2018-04-27T06:03:35Z</time>
      </trkpt>
      <trkpt lat="45.04535" lon="3.88278">
        <ele>642</ele>
        <time>2018-04-27T06:03:44Z</time>
      </trkpt>
      <trkpt lat="45.04543" lon="3.88273">
        <ele>642</ele>
        <time>2018-04-27T06:03:47Z</time>
      </trkpt>
      <trkpt lat="45.04545" lon="3.88261">
        <ele>640</ele>
        <time>2018-04-27T06:03:53Z</time>
      </trkpt>
      <trkpt lat="45.0455" lon="3.88257">
        <ele>640</ele>
        <time>2018-04-27T06:05:58Z</time>
      </trkpt>
      <trkpt lat="45.04543" lon="3.88243">
        <ele>639</ele>
        <time>2018-04-27T06:07:16Z</time>
      </trkpt>
      <trkpt lat="45.04508" lon="3.88253">
        <ele>639</ele>
        <time>2018-04-27T06:07:48Z</time>
      </trkpt>
      <trkpt lat="45.04499" lon="3.88251">
        <ele>639</ele>
        <time>2018-04-27T06:07:53Z</time>
      </trkpt>
      <trkpt lat="45.04487" lon="3.8825">
        <ele>639</ele>
        <time>2018-04-27T06:07:58Z</time>
      </trkpt>
      <trkpt lat="45.04469" lon="3.88261">
        <ele>638</ele>
        <time>2018-04-27T06:08:08Z</time>
      </trkpt>
      <trkpt lat="45.04459" lon="3.88251">
        <ele>636</ele>
        <time>2018-04-27T06:08:29Z</time>
      </trkpt>
      <trkpt lat="45.04448" lon="3.88261">
        <ele>635</ele>
        <time>2018-04-27T06:08:40Z</time>
      </trkpt>
      <trkpt lat="45.0443" lon="3.88267">
        <ele>635</ele>
        <time>2018-04-27T06:08:49Z</time>
      </trkpt>
      <trkpt lat="45.0442" lon="3.88264">
        <ele>634</ele>
        <time>2018-04-27T06:08:54Z</time>
      </trkpt>
      <trkpt lat="45.0441" lon="3.88266">
        <ele>633</ele>
        <time>2018-04-27T06:09:04Z</time>
      </trkpt>
      <trkpt lat="45.04402" lon="3.88274">
        <ele>633</ele>
        <time>2018-04-27T06:09:11Z</time>
      </trkpt>
      <trkpt lat="45.0439" lon="3.88279">
        <ele>632</ele>
        <time>2018-04-27T06:09:17Z</time>
      </trkpt>
      <trkpt lat="45.04381" lon="3.88277">
        <ele>632</ele>
        <time>2018-04-27T06:09:22Z</time>
      </trkpt>
      <trkpt lat="45.04363" lon="3.88269">
        <ele>631</ele>
        <time>2018-04-27T06:09:37Z</time>
      </trkpt>
      <trkpt lat="45.04356" lon="3.88259">
        <ele>630</ele>
        <time>2018-04-27T06:09:44Z</time>
      </trkpt>
      <trkpt lat="45.04346" lon="3.88254">
        <ele>630</ele>
        <time>2018-04-27T06:09:53Z</time>
      </trkpt>
      <trkpt lat="45.04337" lon="3.88258">
        <ele>630</ele>
        <time>2018-04-27T06:10:03Z</time>
      </trkpt>
      <trkpt lat="45.04332" lon="3.88247">
        <ele>629</ele>
        <time>2018-04-27T06:10:12Z</time>
      </trkpt>
      <trkpt lat="45.04324" lon="3.88249">
        <ele>631</ele>
        <time>2018-04-27T06:10:37Z</time>
      </trkpt>
      <trkpt lat="45.04321" lon="3.88213">
        <ele>632</ele>
        <time>2018-04-27T06:11:49Z</time>
      </trkpt>
      <trkpt lat="45.04314" lon="3.8819">
        <ele>631</ele>
        <time>2018-04-27T06:12:02Z</time>
      </trkpt>
      <trkpt lat="45.04314" lon="3.88163">
        <ele>632</ele>
        <time>2018-04-27T06:12:16Z</time>
      </trkpt>
      <trkpt lat="45.04303" lon="3.88138">
        <ele>632</ele>
        <time>2018-04-27T06:12:35Z</time>
      </trkpt>
      <trkpt lat="45.04305" lon="3.88123">
        <ele>632</ele>
        <time>2018-04-27T06:12:42Z</time>
      </trkpt>
      <trkpt lat="45.04301" lon="3.8811">
        <ele>632</ele>
        <time>2018-04-27T06:12:53Z</time>
      </trkpt>
      <trkpt lat="45.04302" lon="3.88094">
        <ele>632</ele>
        <time>2018-04-27T06:13:00Z</time>
      </trkpt>
      <trkpt lat="45.04294" lon="3.88085">
        <ele>633</ele>
        <time>2018-04-27T06:13:07Z</time>
      </trkpt>
      <trkpt lat="45.04296" lon="3.88071">
        <ele>634</ele>
        <time>2018-04-27T06:13:15Z</time>
      </trkpt>
      <trkpt lat="45.04289" lon="3.8806">
        <ele>635</ele>
        <time>2018-04-27T06:13:31Z</time>
      </trkpt>
      <trkpt lat="45.04286" lon="3.8804">
        <ele>635</ele>
        <time>2018-04-27T06:14:53Z</time>
      </trkpt>
      <trkpt lat="45.04291" lon="3.88021">
        <ele>636</ele>
        <time>2018-04-27T06:15:49Z</time>
      </trkpt>
      <trkpt lat="45.04276" lon="3.87907">
        <ele>643</ele>
        <time>2018-04-27T06:16:59Z</time>
      </trkpt>
      <trkpt lat="45.0427" lon="3.87898">
        <ele>644</ele>
        <time>2018-04-27T06:17:08Z</time>
      </trkpt>
      <trkpt lat="45.04261" lon="3.87897">
        <ele>645</ele>
        <time>2018-04-27T06:17:23Z</time>
      </trkpt>
      <trkpt lat="45.04259" lon="3.87889">
        <ele>645</ele>
        <time>2018-04-27T06:17:30Z</time>
      </trkpt>
      <trkpt lat="45.0426" lon="3.87873">
        <ele>647</ele>
        <time>2018-04-27T06:17:39Z</time>
      </trkpt>
      <trkpt lat="45.04259" lon="3.87866">
        <ele>647</ele>
        <time>2018-04-27T06:17:43Z</time>
      </trkpt>
      <trkpt lat="45.04246" lon="3.87845">
        <ele>649</ele>
        <time>2018-04-27T06:17:57Z</time>
      </trkpt>
      <trkpt lat="45.04245" lon="3.87839">
        <ele>650</ele>
        <time>2018-04-27T06:18:02Z</time>
      </trkpt>
      <trkpt lat="45.04244" lon="3.87832">
        <ele>651</ele>
        <time>2018-04-27T06:18:06Z</time>
      </trkpt>
      <trkpt lat="45.04239" lon="3.87811">
        <ele>653</ele>
        <time>2018-04-27T06:18:21Z</time>
      </trkpt>
      <trkpt lat="45.04207" lon="3.87736">
        <ele>660</ele>
        <time>2018-04-27T06:19:14Z</time>
      </trkpt>
      <trkpt lat="45.042" lon="3.87711">
        <ele>662</ele>
        <time>2018-04-27T06:19:32Z</time>
      </trkpt>
      <trkpt lat="45.04182" lon="3.87678">
        <ele>666</ele>
        <time>2018-04-27T06:20:04Z</time>
      </trkpt>
      <trkpt lat="45.04176" lon="3.8767">
        <ele>667</ele>
        <time>2018-04-27T06:20:15Z</time>
      </trkpt>
      <trkpt lat="45.04171" lon="3.87658">
        <ele>669</ele>
        <time>2018-04-27T06:20:24Z</time>
      </trkpt>
      <trkpt lat="45.04167" lon="3.87653">
        <ele>669</ele>
        <time>2018-04-27T06:20:29Z</time>
      </trkpt>
      <trkpt lat="45.04162" lon="3.87652">
        <ele>670</ele>
        <time>2018-04-27T06:20:34Z</time>
      </trkpt>
      <trkpt lat="45.04156" lon="3.87641">
        <ele>672</ele>
        <time>2018-04-27T06:20:44Z</time>
      </trkpt>
      <trkpt lat="45.04154" lon="3.87635">
        <ele>672</ele>
        <time>2018-04-27T06:20:49Z</time>
      </trkpt>
      <trkpt lat="45.0414" lon="3.87611">
        <ele>675</ele>
        <time>2018-04-27T06:21:15Z</time>
      </trkpt>
      <trkpt lat="45.04138" lon="3.87604">
        <ele>677</ele>
        <time>2018-04-27T06:21:25Z</time>
      </trkpt>
      <trkpt lat="45.04141" lon="3.87594">
        <ele>678</ele>
        <time>2018-04-27T06:21:55Z</time>
      </trkpt>
      <trkpt lat="45.04145" lon="3.87591">
        <ele>678</ele>
        <time>2018-04-27T06:21:59Z</time>
      </trkpt>
      <trkpt lat="45.04152" lon="3.87593">
        <ele>679</ele>
        <time>2018-04-27T06:22:09Z</time>
      </trkpt>
      <trkpt lat="45.04173" lon="3.87583">
        <ele>681</ele>
        <time>2018-04-27T06:22:27Z</time>
      </trkpt>
      <trkpt lat="45.04181" lon="3.87576">
        <ele>682</ele>
        <time>2018-04-27T06:22:35Z</time>
      </trkpt>
      <trkpt lat="45.04185" lon="3.87571">
        <ele>682</ele>
        <time>2018-04-27T06:22:39Z</time>
      </trkpt>
      <trkpt lat="45.04187" lon="3.87564">
        <ele>682</ele>
        <time>2018-04-27T06:22:43Z</time>
      </trkpt>
      <trkpt lat="45.04183" lon="3.87534">
        <ele>685</ele>
        <time>2018-04-27T06:23:05Z</time>
      </trkpt>
      <trkpt lat="45.04175" lon="3.87498">
        <ele>689</ele>
        <time>2018-04-27T06:23:36Z</time>
      </trkpt>
      <trkpt lat="45.04172" lon="3.87462">
        <ele>692</ele>
        <time>2018-04-27T06:24:04Z</time>
      </trkpt>
      <trkpt lat="45.04169" lon="3.87455">
        <ele>693</ele>
        <time>2018-04-27T06:24:12Z</time>
      </trkpt>
      <trkpt lat="45.04159" lon="3.8744">
        <ele>695</ele>
        <time>2018-04-27T06:24:26Z</time>
      </trkpt>
      <trkpt lat="45.04159" lon="3.8743">
        <ele>696</ele>
        <time>2018-04-27T06:24:36Z</time>
      </trkpt>
      <trkpt lat="45.04156" lon="3.87424">
        <ele>697</ele>
        <time>2018-04-27T06:24:40Z</time>
      </trkpt>
      <trkpt lat="45.04133" lon="3.87383">
        <ele>701</ele>
        <time>2018-04-27T06:25:17Z</time>
      </trkpt>
      <trkpt lat="45.04127" lon="3.87381">
        <ele>702</ele>
        <time>2018-04-27T06:25:31Z</time>
      </trkpt>
      <trkpt lat="45.04127" lon="3.87372">
        <ele>702</ele>
        <time>2018-04-27T06:25:43Z</time>
      </trkpt>
      <trkpt lat="45.04124" lon="3.87367">
        <ele>703</ele>
        <time>2018-04-27T06:25:48Z</time>
      </trkpt>
      <trkpt lat="45.04121" lon="3.87356">
        <ele>704</ele>
        <time>2018-04-27T06:25:59Z</time>
      </trkpt>
      <trkpt lat="45.04113" lon="3.87341">
        <ele>707</ele>
        <time>2018-04-27T06:26:32Z</time>
      </trkpt>
      <trkpt lat="45.04109" lon="3.87337">
        <ele>707</ele>
        <time>2018-04-27T06:26:36Z</time>
      </trkpt>
      <trkpt lat="45.04098" lon="3.87316">
        <ele>709</ele>
        <time>2018-04-27T06:26:56Z</time>
      </trkpt>
      <trkpt lat="45.04089" lon="3.87306">
        <ele>711</ele>
        <time>2018-04-27T06:27:21Z</time>
      </trkpt>
      <trkpt lat="45.04084" lon="3.87306">
        <ele>712</ele>
        <time>2018-04-27T06:27:26Z</time>
      </trkpt>
      <trkpt lat="45.0408" lon="3.87309">
        <ele>712</ele>
        <time>2018-04-27T06:27:31Z</time>
      </trkpt>
      <trkpt lat="45.04075" lon="3.87308">
        <ele>713</ele>
        <time>2018-04-27T06:27:36Z</time>
      </trkpt>
      <trkpt lat="45.04052" lon="3.87281">
        <ele>717</ele>
        <time>2018-04-27T06:28:02Z</time>
      </trkpt>
      <trkpt lat="45.04047" lon="3.87285">
        <ele>718</ele>
        <time>2018-04-27T06:28:10Z</time>
      </trkpt>
      <trkpt lat="45.0402" lon="3.87319">
        <ele>726</ele>
        <time>2018-04-27T06:29:00Z</time>
      </trkpt>
      <trkpt lat="45.04015" lon="3.87329">
        <ele>727</ele>
        <time>2018-04-27T06:29:10Z</time>
      </trkpt>
      <trkpt lat="45.04013" lon="3.87337">
        <ele>729</ele>
        <time>2018-04-27T06:29:43Z</time>
      </trkpt>
      <trkpt lat="45.04009" lon="3.87332">
        <ele>731</ele>
        <time>2018-04-27T06:29:53Z</time>
      </trkpt>
      <trkpt lat="45.04006" lon="3.87316">
        <ele>732</ele>
        <time>2018-04-27T06:30:06Z</time>
      </trkpt>
      <trkpt lat="45.03997" lon="3.87291">
        <ele>734</ele>
        <time>2018-04-27T06:30:22Z</time>
      </trkpt>
      <trkpt lat="45.03975" lon="3.87254">
        <ele>737</ele>
        <time>2018-04-27T06:30:56Z</time>
      </trkpt>
      <trkpt lat="45.03966" lon="3.87243">
        <ele>738</ele>
        <time>2018-04-27T06:31:08Z</time>
      </trkpt>
      <trkpt lat="45.03955" lon="3.87242">
        <ele>739</ele>
        <time>2018-04-27T06:31:22Z</time>
      </trkpt>
      <trkpt lat="45.0395" lon="3.87241">
        <ele>740</ele>
        <time>2018-04-27T06:31:27Z</time>
      </trkpt>
      <trkpt lat="45.03945" lon="3.8724">
        <ele>740</ele>
        <time>2018-04-27T06:31:31Z</time>
      </trkpt>
      <trkpt lat="45.03919" lon="3.8723">
        <ele>745</ele>
        <time>2018-04-27T06:32:03Z</time>
      </trkpt>
      <trkpt lat="45.03914" lon="3.87227">
        <ele>745</ele>
        <time>2018-04-27T06:32:09Z</time>
      </trkpt>
      <trkpt lat="45.03907" lon="3.87225">
        <ele>746</ele>
        <time>2018-04-27T06:32:16Z</time>
      </trkpt>
      <trkpt lat="45.03902" lon="3.87227">
        <ele>747</ele>
        <time>2018-04-27T06:32:20Z</time>
      </trkpt>
      <trkpt lat="45.03892" lon="3.87226">
        <ele>748</ele>
        <time>2018-04-27T06:32:28Z</time>
      </trkpt>
      <trkpt lat="45.03887" lon="3.87223">
        <ele>748</ele>
        <time>2018-04-27T06:32:33Z</time>
      </trkpt>
      <trkpt lat="45.03881" lon="3.87223">
        <ele>750</ele>
        <time>2018-04-27T06:32:41Z</time>
      </trkpt>
      <trkpt lat="45.03876" lon="3.87226">
        <ele>750</ele>
        <time>2018-04-27T06:32:46Z</time>
      </trkpt>
      <trkpt lat="45.03872" lon="3.87226">
        <ele>751</ele>
        <time>2018-04-27T06:32:51Z</time>
      </trkpt>
      <trkpt lat="45.03843" lon="3.87218">
        <ele>754</ele>
        <time>2018-04-27T06:33:17Z</time>
      </trkpt>
      <trkpt lat="45.03839" lon="3.87214">
        <ele>754</ele>
        <time>2018-04-27T06:33:21Z</time>
      </trkpt>
      <trkpt lat="45.03835" lon="3.87212">
        <ele>755</ele>
        <time>2018-04-27T06:33:30Z</time>
      </trkpt>
      <trkpt lat="45.03823" lon="3.87199">
        <ele>756</ele>
        <time>2018-04-27T06:33:44Z</time>
      </trkpt>
      <trkpt lat="45.03788" lon="3.87143">
        <ele>760</ele>
        <time>2018-04-27T06:34:33Z</time>
      </trkpt>
      <trkpt lat="45.03785" lon="3.87136">
        <ele>760</ele>
        <time>2018-04-27T06:34:38Z</time>
      </trkpt>
      <trkpt lat="45.03785" lon="3.87127">
        <ele>760</ele>
        <time>2018-04-27T06:34:46Z</time>
      </trkpt>
      <trkpt lat="45.03778" lon="3.87116">
        <ele>761</ele>
        <time>2018-04-27T06:34:55Z</time>
      </trkpt>
      <trkpt lat="45.03774" lon="3.87112">
        <ele>761</ele>
        <time>2018-04-27T06:34:59Z</time>
      </trkpt>
      <trkpt lat="45.03759" lon="3.87083">
        <ele>762</ele>
        <time>2018-04-27T06:35:23Z</time>
      </trkpt>
      <trkpt lat="45.03744" lon="3.87034">
        <ele>763</ele>
        <time>2018-04-27T06:35:59Z</time>
      </trkpt>
      <trkpt lat="45.03741" lon="3.87027">
        <ele>763</ele>
        <time>2018-04-27T06:36:06Z</time>
      </trkpt>
      <trkpt lat="45.03737" lon="3.87023">
        <ele>764</ele>
        <time>2018-04-27T06:36:10Z</time>
      </trkpt>
      <trkpt lat="45.0372" lon="3.86992">
        <ele>765</ele>
        <time>2018-04-27T06:36:37Z</time>
      </trkpt>
      <trkpt lat="45.03693" lon="3.86963">
        <ele>766</ele>
        <time>2018-04-27T06:37:10Z</time>
      </trkpt>
      <trkpt lat="45.03659" lon="3.86932">
        <ele>766</ele>
        <time>2018-04-27T06:37:42Z</time>
      </trkpt>
      <trkpt lat="45.0365" lon="3.86925">
        <ele>765</ele>
        <time>2018-04-27T06:37:51Z</time>
      </trkpt>
      <trkpt lat="45.03642" lon="3.86917">
        <ele>765</ele>
        <time>2018-04-27T06:38:00Z</time>
      </trkpt>
      <trkpt lat="45.03606" lon="3.86893">
        <ele>764</ele>
        <time>2018-04-27T06:38:32Z</time>
      </trkpt>
      <trkpt lat="45.03576" lon="3.86863">
        <ele>762</ele>
        <time>2018-04-27T06:39:01Z</time>
      </trkpt>
      <trkpt lat="45.0354" lon="3.86839">
        <ele>761</ele>
        <time>2018-04-27T06:39:32Z</time>
      </trkpt>
      <trkpt lat="45.03536" lon="3.86834">
        <ele>761</ele>
        <time>2018-04-27T06:39:36Z</time>
      </trkpt>
      <trkpt lat="45.0353" lon="3.86831">
        <ele>761</ele>
        <time>2018-04-27T06:39:40Z</time>
      </trkpt>
      <trkpt lat="45.03471" lon="3.86776">
        <ele>759</ele>
        <time>2018-04-27T06:40:38Z</time>
      </trkpt>
      <trkpt lat="45.03433" lon="3.86752">
        <ele>758</ele>
        <time>2018-04-27T06:41:11Z</time>
      </trkpt>
      <trkpt lat="45.03425" lon="3.86744">
        <ele>758</ele>
        <time>2018-04-27T06:41:19Z</time>
      </trkpt>
      <trkpt lat="45.03385" lon="3.86727">
        <ele>758</ele>
        <time>2018-04-27T06:41:51Z</time>
      </trkpt>
      <trkpt lat="45.0338" lon="3.86724">
        <ele>757</ele>
        <time>2018-04-27T06:41:55Z</time>
      </trkpt>
      <trkpt lat="45.03372" lon="3.86717">
        <ele>758</ele>
        <time>2018-04-27T06:42:03Z</time>
      </trkpt>
      <trkpt lat="45.03353" lon="3.8671">
        <ele>758</ele>
        <time>2018-04-27T06:42:19Z</time>
      </trkpt>
      <trkpt lat="45.03344" lon="3.86703">
        <ele>757</ele>
        <time>2018-04-27T06:42:27Z</time>
      </trkpt>
      <trkpt lat="45.033" lon="3.86682">
        <ele>757</ele>
        <time>2018-04-27T06:43:05Z</time>
      </trkpt>
      <trkpt lat="45.03295" lon="3.86681">
        <ele>757</ele>
        <time>2018-04-27T06:43:09Z</time>
      </trkpt>
      <trkpt lat="45.03281" lon="3.86673">
        <ele>756</ele>
        <time>2018-04-27T06:43:21Z</time>
      </trkpt>
      <trkpt lat="45.03262" lon="3.86666">
        <ele>756</ele>
        <time>2018-04-27T06:43:37Z</time>
      </trkpt>
      <trkpt lat="45.03258" lon="3.86662">
        <ele>756</ele>
        <time>2018-04-27T06:43:41Z</time>
      </trkpt>
      <trkpt lat="45.03248" lon="3.86658">
        <ele>756</ele>
        <time>2018-04-27T06:43:49Z</time>
      </trkpt>
      <trkpt lat="45.03244" lon="3.86653">
        <ele>756</ele>
        <time>2018-04-27T06:43:53Z</time>
      </trkpt>
      <trkpt lat="45.03231" lon="3.86625">
        <ele>757</ele>
        <time>2018-04-27T06:44:14Z</time>
      </trkpt>
      <trkpt lat="45.03228" lon="3.86618">
        <ele>757</ele>
        <time>2018-04-27T06:44:19Z</time>
      </trkpt>
      <trkpt lat="45.03221" lon="3.86607">
        <ele>757</ele>
        <time>2018-04-27T06:44:28Z</time>
      </trkpt>
      <trkpt lat="45.03204" lon="3.86571">
        <ele>758</ele>
        <time>2018-04-27T06:44:52Z</time>
      </trkpt>
      <trkpt lat="45.03177" lon="3.86528">
        <ele>759</ele>
        <time>2018-04-27T06:45:26Z</time>
      </trkpt>
      <trkpt lat="45.03149" lon="3.86492">
        <ele>760</ele>
        <time>2018-04-27T06:45:57Z</time>
      </trkpt>
      <trkpt lat="45.03129" lon="3.86471">
        <ele>763</ele>
        <time>2018-04-27T06:46:30Z</time>
      </trkpt>
      <trkpt lat="45.03123" lon="3.86461">
        <ele>764</ele>
        <time>2018-04-27T06:46:38Z</time>
      </trkpt>
      <trkpt lat="45.03119" lon="3.86457">
        <ele>765</ele>
        <time>2018-04-27T06:46:42Z</time>
      </trkpt>
      <trkpt lat="45.03113" lon="3.86445">
        <ele>765</ele>
        <time>2018-04-27T06:46:50Z</time>
      </trkpt>
      <trkpt lat="45.03111" lon="3.86439">
        <ele>766</ele>
        <time>2018-04-27T06:46:54Z</time>
      </trkpt>
      <trkpt lat="45.03107" lon="3.86434">
        <ele>766</ele>
        <time>2018-04-27T06:46:58Z</time>
      </trkpt>
      <trkpt lat="45.03102" lon="3.8643">
        <ele>766</ele>
        <time>2018-04-27T06:47:03Z</time>
      </trkpt>
      <trkpt lat="45.03091" lon="3.86414">
        <ele>767</ele>
        <time>2018-04-27T06:47:17Z</time>
      </trkpt>
      <trkpt lat="45.03085" lon="3.86402">
        <ele>767</ele>
        <time>2018-04-27T06:47:26Z</time>
      </trkpt>
      <trkpt lat="45.03058" lon="3.86362">
        <ele>768</ele>
        <time>2018-04-27T06:47:58Z</time>
      </trkpt>
      <trkpt lat="45.03043" lon="3.86344">
        <ele>769</ele>
        <time>2018-04-27T06:48:14Z</time>
      </trkpt>
      <trkpt lat="45.03035" lon="3.86337">
        <ele>769</ele>
        <time>2018-04-27T06:48:22Z</time>
      </trkpt>
      <trkpt lat="45.02992" lon="3.86251">
        <ele>772</ele>
        <time>2018-04-27T06:49:23Z</time>
      </trkpt>
      <trkpt lat="45.02979" lon="3.86212">
        <ele>774</ele>
        <time>2018-04-27T06:49:49Z</time>
      </trkpt>
      <trkpt lat="45.0297" lon="3.86197">
        <ele>774</ele>
        <time>2018-04-27T06:50:01Z</time>
      </trkpt>
      <trkpt lat="45.02963" lon="3.86171">
        <ele>775</ele>
        <time>2018-04-27T06:50:18Z</time>
      </trkpt>
      <trkpt lat="45.02955" lon="3.86154">
        <ele>776</ele>
        <time>2018-04-27T06:50:31Z</time>
      </trkpt>
      <trkpt lat="45.02952" lon="3.86141">
        <ele>777</ele>
        <time>2018-04-27T06:50:40Z</time>
      </trkpt>
      <trkpt lat="45.02949" lon="3.86134">
        <ele>777</ele>
        <time>2018-04-27T06:50:45Z</time>
      </trkpt>
      <trkpt lat="45.02947" lon="3.86127">
        <ele>778</ele>
        <time>2018-04-27T06:50:50Z</time>
      </trkpt>
      <trkpt lat="45.02944" lon="3.86122">
        <ele>778</ele>
        <time>2018-04-27T06:50:55Z</time>
      </trkpt>
      <trkpt lat="45.02942" lon="3.86115">
        <ele>778</ele>
        <time>2018-04-27T06:51:00Z</time>
      </trkpt>
      <trkpt lat="45.02934" lon="3.86103">
        <ele>779</ele>
        <time>2018-04-27T06:51:11Z</time>
      </trkpt>
      <trkpt lat="45.02925" lon="3.86078">
        <ele>780</ele>
        <time>2018-04-27T06:51:29Z</time>
      </trkpt>
      <trkpt lat="45.02916" lon="3.8606">
        <ele>781</ele>
        <time>2018-04-27T06:51:43Z</time>
      </trkpt>
      <trkpt lat="45.02896" lon="3.85998">
        <ele>784</ele>
        <time>2018-04-27T06:52:27Z</time>
      </trkpt>
      <trkpt lat="45.02894" lon="3.85992">
        <ele>785</ele>
        <time>2018-04-27T06:52:31Z</time>
      </trkpt>
      <trkpt lat="45.0289" lon="3.85987">
        <ele>785</ele>
        <time>2018-04-27T06:52:35Z</time>
      </trkpt>
      <trkpt lat="45.02878" lon="3.85935">
        <ele>788</ele>
        <time>2018-04-27T06:53:09Z</time>
      </trkpt>
      <trkpt lat="45.02862" lon="3.85897">
        <ele>792</ele>
        <time>2018-04-27T06:53:39Z</time>
      </trkpt>
      <trkpt lat="45.02858" lon="3.85891">
        <ele>793</ele>
        <time>2018-04-27T06:53:56Z</time>
      </trkpt>
      <trkpt lat="45.0286" lon="3.85879">
        <ele>794</ele>
        <time>2018-04-27T06:54:07Z</time>
      </trkpt>
      <trkpt lat="45.02871" lon="3.85857">
        <ele>796</ele>
        <time>2018-04-27T06:54:27Z</time>
      </trkpt>
      <trkpt lat="45.02873" lon="3.8585">
        <ele>796</ele>
        <time>2018-04-27T06:54:32Z</time>
      </trkpt>
      <trkpt lat="45.02873" lon="3.85843">
        <ele>797</ele>
        <time>2018-04-27T06:54:37Z</time>
      </trkpt>
      <trkpt lat="45.02866" lon="3.85827">
        <ele>798</ele>
        <time>2018-04-27T06:54:53Z</time>
      </trkpt>
      <trkpt lat="45.02866" lon="3.85819">
        <ele>798</ele>
        <time>2018-04-27T06:54:57Z</time>
      </trkpt>
      <trkpt lat="45.02864" lon="3.85813">
        <ele>799</ele>
        <time>2018-04-27T06:55:02Z</time>
      </trkpt>
      <trkpt lat="45.02855" lon="3.85794">
        <ele>801</ele>
        <time>2018-04-27T06:55:17Z</time>
      </trkpt>
      <trkpt lat="45.02857" lon="3.85787">
        <ele>802</ele>
        <time>2018-04-27T06:55:49Z</time>
      </trkpt>
      <trkpt lat="45.02851" lon="3.85775">
        <ele>803</ele>
        <time>2018-04-27T06:55:58Z</time>
      </trkpt>
      <trkpt lat="45.02844" lon="3.85773">
        <ele>803</ele>
        <time>2018-04-27T06:56:01Z</time>
      </trkpt>
      <trkpt lat="45.02821" lon="3.8571">
        <ele>809</ele>
        <time>2018-04-27T06:56:45Z</time>
      </trkpt>
      <trkpt lat="45.0282" lon="3.85703">
        <ele>810</ele>
        <time>2018-04-27T06:56:49Z</time>
      </trkpt>
      <trkpt lat="45.02817" lon="3.85697">
        <ele>810</ele>
        <time>2018-04-27T06:56:53Z</time>
      </trkpt>
      <trkpt lat="45.02812" lon="3.85693">
        <ele>810</ele>
        <time>2018-04-27T06:56:57Z</time>
      </trkpt>
      <trkpt lat="45.0279" lon="3.85676">
        <ele>813</ele>
        <time>2018-04-27T06:57:20Z</time>
      </trkpt>
      <trkpt lat="45.02777" lon="3.85657">
        <ele>815</ele>
        <time>2018-04-27T06:57:39Z</time>
      </trkpt>
      <trkpt lat="45.02774" lon="3.8565">
        <ele>816</ele>
        <time>2018-04-27T06:57:44Z</time>
      </trkpt>
      <trkpt lat="45.02767" lon="3.85641">
        <ele>817</ele>
        <time>2018-04-27T06:57:54Z</time>
      </trkpt>
      <trkpt lat="45.02763" lon="3.85633">
        <ele>818</ele>
        <time>2018-04-27T06:58:01Z</time>
      </trkpt>
      <trkpt lat="45.02748" lon="3.8558">
        <ele>821</ele>
        <time>2018-04-27T06:58:41Z</time>
      </trkpt>
      <trkpt lat="45.02743" lon="3.85574">
        <ele>822</ele>
        <time>2018-04-27T06:58:49Z</time>
      </trkpt>
      <trkpt lat="45.02737" lon="3.85546">
        <ele>824</ele>
        <time>2018-04-27T06:59:08Z</time>
      </trkpt>
      <trkpt lat="45.02731" lon="3.85539">
        <ele>825</ele>
        <time>2018-04-27T06:59:15Z</time>
      </trkpt>
      <trkpt lat="45.02729" lon="3.85531">
        <ele>825</ele>
        <time>2018-04-27T06:59:23Z</time>
      </trkpt>
      <trkpt lat="45.02726" lon="3.85525">
        <ele>825</ele>
        <time>2018-04-27T06:59:27Z</time>
      </trkpt>
      <trkpt lat="45.0271" lon="3.855">
        <ele>827</ele>
        <time>2018-04-27T06:59:49Z</time>
      </trkpt>
      <trkpt lat="45.02708" lon="3.85493">
        <ele>828</ele>
        <time>2018-04-27T06:59:55Z</time>
      </trkpt>
      <trkpt lat="45.02702" lon="3.85483">
        <ele>828</ele>
        <time>2018-04-27T07:00:03Z</time>
      </trkpt>
      <trkpt lat="45.02698" lon="3.85475">
        <ele>829</ele>
        <time>2018-04-27T07:00:10Z</time>
      </trkpt>
      <trkpt lat="45.02697" lon="3.85468">
        <ele>829</ele>
        <time>2018-04-27T07:00:15Z</time>
      </trkpt>
      <trkpt lat="45.02694" lon="3.85463">
        <ele>829</ele>
        <time>2018-04-27T07:00:19Z</time>
      </trkpt>
      <trkpt lat="45.02694" lon="3.85455">
        <ele>830</ele>
        <time>2018-04-27T07:00:28Z</time>
      </trkpt>
      <trkpt lat="45.02692" lon="3.85449">
        <ele>830</ele>
        <time>2018-04-27T07:00:32Z</time>
      </trkpt>
      <trkpt lat="45.02685" lon="3.85438">
        <ele>831</ele>
        <time>2018-04-27T07:00:41Z</time>
      </trkpt>
      <trkpt lat="45.02676" lon="3.85412">
        <ele>833</ele>
        <time>2018-04-27T07:01:00Z</time>
      </trkpt>
      <trkpt lat="45.02672" lon="3.85407">
        <ele>834</ele>
        <time>2018-04-27T07:01:05Z</time>
      </trkpt>
      <trkpt lat="45.02644" lon="3.85301">
        <ele>840</ele>
        <time>2018-04-27T07:02:22Z</time>
      </trkpt>
      <trkpt lat="45.02641" lon="3.85296">
        <ele>840</ele>
        <time>2018-04-27T07:02:26Z</time>
      </trkpt>
      <trkpt lat="45.02637" lon="3.85292">
        <ele>840</ele>
        <time>2018-04-27T07:02:30Z</time>
      </trkpt>
      <trkpt lat="45.02632" lon="3.85282">
        <ele>840</ele>
        <time>2018-04-27T07:02:38Z</time>
      </trkpt>
      <trkpt lat="45.02631" lon="3.85275">
        <ele>841</ele>
        <time>2018-04-27T07:02:43Z</time>
      </trkpt>
      <trkpt lat="45.02594" lon="3.85164">
        <ele>847</ele>
        <time>2018-04-27T07:04:05Z</time>
      </trkpt>
      <trkpt lat="45.0259" lon="3.85159">
        <ele>847</ele>
        <time>2018-04-27T07:04:09Z</time>
      </trkpt>
      <trkpt lat="45.02547" lon="3.85048">
        <ele>850</ele>
        <time>2018-04-27T07:05:26Z</time>
      </trkpt>
      <trkpt lat="45.02546" lon="3.85042">
        <ele>851</ele>
        <time>2018-04-27T07:05:30Z</time>
      </trkpt>
      <trkpt lat="45.02498" lon="3.84923">
        <ele>852</ele>
        <time>2018-04-27T07:06:54Z</time>
      </trkpt>
      <trkpt lat="45.02497" lon="3.84917">
        <ele>852</ele>
        <time>2018-04-27T07:06:58Z</time>
      </trkpt>
      <trkpt lat="45.02462" lon="3.84832">
        <ele>852</ele>
        <time>2018-04-27T07:07:55Z</time>
      </trkpt>
      <trkpt lat="45.02452" lon="3.84817">
        <ele>852</ele>
        <time>2018-04-27T07:08:07Z</time>
      </trkpt>
      <trkpt lat="45.0232" lon="3.84501">
        <ele>854</ele>
        <time>2018-04-27T07:11:44Z</time>
      </trkpt>
      <trkpt lat="45.02316" lon="3.84496">
        <ele>854</ele>
        <time>2018-04-27T07:11:54Z</time>
      </trkpt>
      <trkpt lat="45.02299" lon="3.84456">
        <ele>856</ele>
        <time>2018-04-27T07:12:36Z</time>
      </trkpt>
      <trkpt lat="45.02299" lon="3.84448">
        <ele>856</ele>
        <time>2018-04-27T07:12:40Z</time>
      </trkpt>
      <trkpt lat="45.02267" lon="3.84375">
        <ele>859</ele>
        <time>2018-04-27T07:13:29Z</time>
      </trkpt>
      <trkpt lat="45.02266" lon="3.84362">
        <ele>859</ele>
        <time>2018-04-27T07:13:37Z</time>
      </trkpt>
      <trkpt lat="45.02269" lon="3.84348">
        <ele>859</ele>
        <time>2018-04-27T07:13:46Z</time>
      </trkpt>
      <trkpt lat="45.02271" lon="3.84341">
        <ele>859</ele>
        <time>2018-04-27T07:13:51Z</time>
      </trkpt>
      <trkpt lat="45.0227" lon="3.84335">
        <ele>859</ele>
        <time>2018-04-27T07:13:55Z</time>
      </trkpt>
      <trkpt lat="45.02265" lon="3.84308">
        <ele>859</ele>
        <time>2018-04-27T07:14:12Z</time>
      </trkpt>
      <trkpt lat="45.02263" lon="3.84302">
        <ele>859</ele>
        <time>2018-04-27T07:14:16Z</time>
      </trkpt>
      <trkpt lat="45.02262" lon="3.84295">
        <ele>859</ele>
        <time>2018-04-27T07:18:48Z</time>
      </trkpt>
      <trkpt lat="45.022" lon="3.84062">
        <ele>863</ele>
        <time>2018-04-27T07:22:14Z</time>
      </trkpt>
      <trkpt lat="45.02184" lon="3.84024">
        <ele>863</ele>
        <time>2018-04-27T07:22:41Z</time>
      </trkpt>
      <trkpt lat="45.02177" lon="3.83998">
        <ele>863</ele>
        <time>2018-04-27T07:23:06Z</time>
      </trkpt>
      <trkpt lat="45.02174" lon="3.83991">
        <ele>863</ele>
        <time>2018-04-27T07:23:38Z</time>
      </trkpt>
      <trkpt lat="45.02118" lon="3.8368">
        <ele>866</ele>
        <time>2018-04-27T07:26:55Z</time>
      </trkpt>
      <trkpt lat="45.02112" lon="3.83662">
        <ele>866</ele>
        <time>2018-04-27T07:27:07Z</time>
      </trkpt>
      <trkpt lat="45.02108" lon="3.83648">
        <ele>866</ele>
        <time>2018-04-27T07:27:15Z</time>
      </trkpt>
      <trkpt lat="45.02106" lon="3.83642">
        <ele>866</ele>
        <time>2018-04-27T07:27:19Z</time>
      </trkpt>
      <trkpt lat="45.02085" lon="3.83613">
        <ele>866</ele>
        <time>2018-04-27T07:27:43Z</time>
      </trkpt>
      <trkpt lat="45.02073" lon="3.83599">
        <ele>867</ele>
        <time>2018-04-27T07:27:56Z</time>
      </trkpt>
      <trkpt lat="45.02048" lon="3.83563">
        <ele>867</ele>
        <time>2018-04-27T07:28:27Z</time>
      </trkpt>
      <trkpt lat="45.02029" lon="3.83528">
        <ele>868</ele>
        <time>2018-04-27T07:28:54Z</time>
      </trkpt>
      <trkpt lat="45.02014" lon="3.83455">
        <ele>868</ele>
        <time>2018-04-27T07:29:38Z</time>
      </trkpt>
      <trkpt lat="45.01997" lon="3.83403">
        <ele>869</ele>
        <time>2018-04-27T07:30:12Z</time>
      </trkpt>
      <trkpt lat="45.01993" lon="3.83399">
        <ele>869</ele>
        <time>2018-04-27T07:30:17Z</time>
      </trkpt>
      <trkpt lat="45.01986" lon="3.83399">
        <ele>869</ele>
        <time>2018-04-27T07:30:30Z</time>
      </trkpt>
      <trkpt lat="45.01982" lon="3.83403">
        <ele>869</ele>
        <time>2018-04-27T07:30:34Z</time>
      </trkpt>
      <trkpt lat="45.0198" lon="3.83409">
        <ele>869</ele>
        <time>2018-04-27T07:30:43Z</time>
      </trkpt>
      <trkpt lat="45.01972" lon="3.83414">
        <ele>869</ele>
        <time>2018-04-27T07:31:07Z</time>
      </trkpt>
      <trkpt lat="45.01935" lon="3.83443">
        <ele>871</ele>
        <time>2018-04-27T07:31:44Z</time>
      </trkpt>
      <trkpt lat="45.01876" lon="3.83475">
        <ele>873</ele>
        <time>2018-04-27T07:32:41Z</time>
      </trkpt>
      <trkpt lat="45.01842" lon="3.83518">
        <ele>873</ele>
        <time>2018-04-27T07:33:19Z</time>
      </trkpt>
      <trkpt lat="45.01824" lon="3.83531">
        <ele>873</ele>
        <time>2018-04-27T07:33:36Z</time>
      </trkpt>
      <trkpt lat="45.01819" lon="3.83533">
        <ele>873</ele>
        <time>2018-04-27T07:33:40Z</time>
      </trkpt>
      <trkpt lat="45.01792" lon="3.83557">
        <ele>873</ele>
        <time>2018-04-27T07:34:05Z</time>
      </trkpt>
      <trkpt lat="45.01784" lon="3.83566">
        <ele>873</ele>
        <time>2018-04-27T07:34:15Z</time>
      </trkpt>
      <trkpt lat="45.01724" lon="3.83621">
        <ele>874</ele>
        <time>2018-04-27T07:35:18Z</time>
      </trkpt>
      <trkpt lat="45.01714" lon="3.83636">
        <ele>873</ele>
        <time>2018-04-27T07:35:32Z</time>
      </trkpt>
      <trkpt lat="45.01711" lon="3.83643">
        <ele>874</ele>
        <time>2018-04-27T07:35:58Z</time>
      </trkpt>
      <trkpt lat="45.01684" lon="3.83688">
        <ele>873</ele>
        <time>2018-04-27T07:36:30Z</time>
      </trkpt>
      <trkpt lat="45.01682" lon="3.83695">
        <ele>873</ele>
        <time>2018-04-27T07:36:34Z</time>
      </trkpt>
      <trkpt lat="45.01677" lon="3.837">
        <ele>873</ele>
        <time>2018-04-27T07:36:38Z</time>
      </trkpt>
      <trkpt lat="45.01643" lon="3.8373">
        <ele>870</ele>
        <time>2018-04-27T07:37:12Z</time>
      </trkpt>
      <trkpt lat="45.0164" lon="3.83736">
        <ele>870</ele>
        <time>2018-04-27T07:37:17Z</time>
      </trkpt>
      <trkpt lat="45.01636" lon="3.83738">
        <ele>869</ele>
        <time>2018-04-27T07:37:22Z</time>
      </trkpt>
      <trkpt lat="45.01632" lon="3.83737">
        <ele>868</ele>
        <time>2018-04-27T07:37:26Z</time>
      </trkpt>
      <trkpt lat="45.0163" lon="3.83729">
        <ele>868</ele>
        <time>2018-04-27T07:37:31Z</time>
      </trkpt>
      <trkpt lat="45.01619" lon="3.8362">
        <ele>868</ele>
        <time>2018-04-27T07:38:43Z</time>
      </trkpt>
      <trkpt lat="45.01617" lon="3.8361">
        <ele>868</ele>
        <time>2018-04-27T07:38:50Z</time>
      </trkpt>
      <trkpt lat="45.01612" lon="3.83593">
        <ele>866</ele>
        <time>2018-04-27T07:39:03Z</time>
      </trkpt>
      <trkpt lat="45.01609" lon="3.83588">
        <ele>866</ele>
        <time>2018-04-27T07:39:08Z</time>
      </trkpt>
      <trkpt lat="45.01599" lon="3.8358">
        <ele>864</ele>
        <time>2018-04-27T07:39:23Z</time>
      </trkpt>
      <trkpt lat="45.01598" lon="3.83572">
        <ele>865</ele>
        <time>2018-04-27T07:39:34Z</time>
      </trkpt>
      <trkpt lat="45.01591" lon="3.83563">
        <ele>865</ele>
        <time>2018-04-27T07:39:42Z</time>
      </trkpt>
      <trkpt lat="45.01579" lon="3.8355">
        <ele>864</ele>
        <time>2018-04-27T07:39:54Z</time>
      </trkpt>
      <trkpt lat="45.01574" lon="3.8355">
        <ele>863</ele>
        <time>2018-04-27T07:39:59Z</time>
      </trkpt>
      <trkpt lat="45.0155" lon="3.83528">
        <ele>862</ele>
        <time>2018-04-27T07:40:24Z</time>
      </trkpt>
      <trkpt lat="45.01545" lon="3.83526">
        <ele>862</ele>
        <time>2018-04-27T07:40:28Z</time>
      </trkpt>
      <trkpt lat="45.01539" lon="3.83525">
        <ele>861</ele>
        <time>2018-04-27T07:40:32Z</time>
      </trkpt>
      <trkpt lat="45.01536" lon="3.83522">
        <ele>861</ele>
        <time>2018-04-27T07:40:36Z</time>
      </trkpt>
      <trkpt lat="45.01532" lon="3.83515">
        <ele>863</ele>
        <time>2018-04-27T07:40:43Z</time>
      </trkpt>
      <trkpt lat="45.01519" lon="3.83499">
        <ele>867</ele>
        <time>2018-04-27T07:41:02Z</time>
      </trkpt>
      <trkpt lat="45.01515" lon="3.83486">
        <ele>868</ele>
        <time>2018-04-27T07:41:10Z</time>
      </trkpt>
      <trkpt lat="45.01515" lon="3.83477">
        <ele>869</ele>
        <time>2018-04-27T07:41:18Z</time>
      </trkpt>
      <trkpt lat="45.01534" lon="3.83446">
        <ele>873</ele>
        <time>2018-04-27T07:41:48Z</time>
      </trkpt>
      <trkpt lat="45.01534" lon="3.8344">
        <ele>873</ele>
        <time>2018-04-27T07:41:56Z</time>
      </trkpt>
      <trkpt lat="45.01543" lon="3.83415">
        <ele>876</ele>
        <time>2018-04-27T07:42:16Z</time>
      </trkpt>
      <trkpt lat="45.01547" lon="3.83411">
        <ele>876</ele>
        <time>2018-04-27T07:42:21Z</time>
      </trkpt>
      <trkpt lat="45.01551" lon="3.83399">
        <ele>877</ele>
        <time>2018-04-27T07:42:31Z</time>
      </trkpt>
      <trkpt lat="45.01552" lon="3.83391">
        <ele>877</ele>
        <time>2018-04-27T07:42:36Z</time>
      </trkpt>
      <trkpt lat="45.01557" lon="3.83379">
        <ele>877</ele>
        <time>2018-04-27T07:42:46Z</time>
      </trkpt>
      <trkpt lat="45.01558" lon="3.83365">
        <ele>878</ele>
        <time>2018-04-27T07:42:56Z</time>
      </trkpt>
      <trkpt lat="45.01552" lon="3.83351">
        <ele>878</ele>
        <time>2018-04-27T07:43:05Z</time>
      </trkpt>
      <trkpt lat="45.01549" lon="3.83346">
        <ele>878</ele>
        <time>2018-04-27T07:43:08Z</time>
      </trkpt>
      <trkpt lat="45.01533" lon="3.83307">
        <ele>877</ele>
        <time>2018-04-27T07:43:46Z</time>
      </trkpt>
      <trkpt lat="45.01529" lon="3.8329">
        <ele>876</ele>
        <time>2018-04-27T07:44:01Z</time>
      </trkpt>
      <trkpt lat="45.0152" lon="3.83264">
        <ele>876</ele>
        <time>2018-04-27T07:44:21Z</time>
      </trkpt>
      <trkpt lat="45.01513" lon="3.83254">
        <ele>875</ele>
        <time>2018-04-27T07:44:30Z</time>
      </trkpt>
      <trkpt lat="45.0151" lon="3.83247">
        <ele>875</ele>
        <time>2018-04-27T07:45:13Z</time>
      </trkpt>
      <trkpt lat="45.01496" lon="3.83227">
        <ele>875</ele>
        <time>2018-04-27T07:45:30Z</time>
      </trkpt>
      <trkpt lat="45.01493" lon="3.83221">
        <ele>875</ele>
        <time>2018-04-27T07:45:34Z</time>
      </trkpt>
      <trkpt lat="45.0148" lon="3.8321">
        <ele>874</ele>
        <time>2018-04-27T07:45:46Z</time>
      </trkpt>
      <trkpt lat="45.01477" lon="3.83206">
        <ele>874</ele>
        <time>2018-04-27T07:45:50Z</time>
      </trkpt>
      <trkpt lat="45.01467" lon="3.83191">
        <ele>874</ele>
        <time>2018-04-27T07:46:02Z</time>
      </trkpt>
      <trkpt lat="45.01463" lon="3.83187">
        <ele>874</ele>
        <time>2018-04-27T07:46:07Z</time>
      </trkpt>
      <trkpt lat="45.01458" lon="3.83184">
        <ele>874</ele>
        <time>2018-04-27T07:46:12Z</time>
      </trkpt>
      <trkpt lat="45.01448" lon="3.83182">
        <ele>874</ele>
        <time>2018-04-27T07:46:21Z</time>
      </trkpt>
      <trkpt lat="45.01424" lon="3.8317">
        <ele>874</ele>
        <time>2018-04-27T07:46:43Z</time>
      </trkpt>
      <trkpt lat="45.01419" lon="3.83171">
        <ele>874</ele>
        <time>2018-04-27T07:46:48Z</time>
      </trkpt>
      <trkpt lat="45.01395" lon="3.83169">
        <ele>873</ele>
        <time>2018-04-27T07:47:08Z</time>
      </trkpt>
      <trkpt lat="45.01389" lon="3.83167">
        <ele>874</ele>
        <time>2018-04-27T07:47:16Z</time>
      </trkpt>
      <trkpt lat="45.01379" lon="3.83161">
        <ele>876</ele>
        <time>2018-04-27T07:47:29Z</time>
      </trkpt>
      <trkpt lat="45.01372" lon="3.83161">
        <ele>878</ele>
        <time>2018-04-27T07:47:36Z</time>
      </trkpt>
      <trkpt lat="45.01367" lon="3.83159">
        <ele>878</ele>
        <time>2018-04-27T07:47:41Z</time>
      </trkpt>
      <trkpt lat="45.01352" lon="3.83147">
        <ele>879</ele>
        <time>2018-04-27T07:48:00Z</time>
      </trkpt>
      <trkpt lat="45.01349" lon="3.83139">
        <ele>880</ele>
        <time>2018-04-27T07:48:07Z</time>
      </trkpt>
      <trkpt lat="45.0135" lon="3.83131">
        <ele>881</ele>
        <time>2018-04-27T07:48:14Z</time>
      </trkpt>
      <trkpt lat="45.01347" lon="3.83121">
        <ele>882</ele>
        <time>2018-04-27T07:48:24Z</time>
      </trkpt>
      <trkpt lat="45.01342" lon="3.83115">
        <ele>882</ele>
        <time>2018-04-27T07:48:31Z</time>
      </trkpt>
      <trkpt lat="45.01325" lon="3.83065">
        <ele>881</ele>
        <time>2018-04-27T07:49:09Z</time>
      </trkpt>
      <trkpt lat="45.01326" lon="3.83023">
        <ele>881</ele>
        <time>2018-04-27T07:49:42Z</time>
      </trkpt>
      <trkpt lat="45.01327" lon="3.83009">
        <ele>882</ele>
        <time>2018-04-27T07:50:09Z</time>
      </trkpt>
      <trkpt lat="45.01329" lon="3.83003">
        <ele>881</ele>
        <time>2018-04-27T07:50:14Z</time>
      </trkpt>
      <trkpt lat="45.01329" lon="3.82984">
        <ele>881</ele>
        <time>2018-04-27T07:50:28Z</time>
      </trkpt>
      <trkpt lat="45.01327" lon="3.82978">
        <ele>881</ele>
        <time>2018-04-27T07:50:33Z</time>
      </trkpt>
      <trkpt lat="45.01327" lon="3.82955">
        <ele>881</ele>
        <time>2018-04-27T07:50:50Z</time>
      </trkpt>
      <trkpt lat="45.01329" lon="3.82924">
        <ele>881</ele>
        <time>2018-04-27T07:51:13Z</time>
      </trkpt>
      <trkpt lat="45.01333" lon="3.82911">
        <ele>881</ele>
        <time>2018-04-27T07:51:23Z</time>
      </trkpt>
      <trkpt lat="45.01336" lon="3.82905">
        <ele>881</ele>
        <time>2018-04-27T07:51:28Z</time>
      </trkpt>
      <trkpt lat="45.01335" lon="3.82899">
        <ele>882</ele>
        <time>2018-04-27T07:51:32Z</time>
      </trkpt>
      <trkpt lat="45.01328" lon="3.82882">
        <ele>881</ele>
        <time>2018-04-27T07:51:44Z</time>
      </trkpt>
      <trkpt lat="45.01311" lon="3.82827">
        <ele>880</ele>
        <time>2018-04-27T07:52:27Z</time>
      </trkpt>
      <trkpt lat="45.01309" lon="3.82821">
        <ele>880</ele>
        <time>2018-04-27T07:52:31Z</time>
      </trkpt>
      <trkpt lat="45.01309" lon="3.82807">
        <ele>880</ele>
        <time>2018-04-27T07:52:40Z</time>
      </trkpt>
      <trkpt lat="45.01306" lon="3.82801">
        <ele>880</ele>
        <time>2018-04-27T07:52:45Z</time>
      </trkpt>
      <trkpt lat="45.01302" lon="3.82797">
        <ele>880</ele>
        <time>2018-04-27T07:52:49Z</time>
      </trkpt>
      <trkpt lat="45.01296" lon="3.8278">
        <ele>880</ele>
        <time>2018-04-27T07:53:03Z</time>
      </trkpt>
      <trkpt lat="45.01299" lon="3.82771">
        <ele>880</ele>
        <time>2018-04-27T07:53:16Z</time>
      </trkpt>
      <trkpt lat="45.01289" lon="3.82766">
        <ele>879</ele>
        <time>2018-04-27T07:53:26Z</time>
      </trkpt>
      <trkpt lat="45.01278" lon="3.82758">
        <ele>879</ele>
        <time>2018-04-27T07:53:38Z</time>
      </trkpt>
      <trkpt lat="45.01276" lon="3.82751">
        <ele>879</ele>
        <time>2018-04-27T07:53:43Z</time>
      </trkpt>
      <trkpt lat="45.01251" lon="3.82734">
        <ele>880</ele>
        <time>2018-04-27T07:54:10Z</time>
      </trkpt>
      <trkpt lat="45.01239" lon="3.82714">
        <ele>880</ele>
        <time>2018-04-27T07:54:28Z</time>
      </trkpt>
      <trkpt lat="45.01238" lon="3.82707">
        <ele>880</ele>
        <time>2018-04-27T07:54:32Z</time>
      </trkpt>
      <trkpt lat="45.01237" lon="3.827">
        <ele>880</ele>
        <time>2018-04-27T07:54:37Z</time>
      </trkpt>
      <trkpt lat="45.01218" lon="3.82631">
        <ele>881</ele>
        <time>2018-04-27T07:55:29Z</time>
      </trkpt>
      <trkpt lat="45.01214" lon="3.82626">
        <ele>881</ele>
        <time>2018-04-27T07:55:34Z</time>
      </trkpt>
      <trkpt lat="45.01209" lon="3.82623">
        <ele>881</ele>
        <time>2018-04-27T07:55:39Z</time>
      </trkpt>
      <trkpt lat="45.01208" lon="3.82615">
        <ele>882</ele>
        <time>2018-04-27T07:56:23Z</time>
      </trkpt>
      <trkpt lat="45.01206" lon="3.82609">
        <ele>882</ele>
        <time>2018-04-27T07:56:29Z</time>
      </trkpt>
      <trkpt lat="45.01202" lon="3.82603">
        <ele>882</ele>
        <time>2018-04-27T07:56:35Z</time>
      </trkpt>
      <trkpt lat="45.01192" lon="3.82599">
        <ele>882</ele>
        <time>2018-04-27T07:56:43Z</time>
      </trkpt>
      <trkpt lat="45.01182" lon="3.8259">
        <ele>881</ele>
        <time>2018-04-27T07:56:58Z</time>
      </trkpt>
      <trkpt lat="45.01167" lon="3.82585">
        <ele>881</ele>
        <time>2018-04-27T07:57:10Z</time>
      </trkpt>
      <trkpt lat="45.01157" lon="3.82585">
        <ele>881</ele>
        <time>2018-04-27T07:57:18Z</time>
      </trkpt>
      <trkpt lat="45.01152" lon="3.82582">
        <ele>881</ele>
        <time>2018-04-27T07:57:22Z</time>
      </trkpt>
      <trkpt lat="45.01128" lon="3.82574">
        <ele>880</ele>
        <time>2018-04-27T07:57:43Z</time>
      </trkpt>
      <trkpt lat="45.01112" lon="3.82572">
        <ele>881</ele>
        <time>2018-04-27T07:58:44Z</time>
      </trkpt>
      <trkpt lat="45.01105" lon="3.82573">
        <ele>881</ele>
        <time>2018-04-27T07:58:49Z</time>
      </trkpt>
      <trkpt lat="45.01095" lon="3.82572">
        <ele>881</ele>
        <time>2018-04-27T07:58:57Z</time>
      </trkpt>
      <trkpt lat="45.0106" lon="3.82558">
        <ele>880</ele>
        <time>2018-04-27T07:59:26Z</time>
      </trkpt>
      <trkpt lat="45.01046" lon="3.82555">
        <ele>879</ele>
        <time>2018-04-27T07:59:39Z</time>
      </trkpt>
      <trkpt lat="45.01016" lon="3.8256">
        <ele>878</ele>
        <time>2018-04-27T08:00:03Z</time>
      </trkpt>
      <trkpt lat="45.01006" lon="3.82563">
        <ele>878</ele>
        <time>2018-04-27T08:00:12Z</time>
      </trkpt>
      <trkpt lat="45.00995" lon="3.82557">
        <ele>879</ele>
        <time>2018-04-27T08:00:38Z</time>
      </trkpt>
      <trkpt lat="45.00954" lon="3.82542">
        <ele>878</ele>
        <time>2018-04-27T08:01:10Z</time>
      </trkpt>
      <trkpt lat="45.00943" lon="3.8254">
        <ele>878</ele>
        <time>2018-04-27T08:01:18Z</time>
      </trkpt>
      <trkpt lat="45.00938" lon="3.82538">
        <ele>878</ele>
        <time>2018-04-27T08:01:22Z</time>
      </trkpt>
      <trkpt lat="45.00925" lon="3.82527">
        <ele>878</ele>
        <time>2018-04-27T08:01:34Z</time>
      </trkpt>
      <trkpt lat="45.00916" lon="3.82521">
        <ele>879</ele>
        <time>2018-04-27T08:01:42Z</time>
      </trkpt>
      <trkpt lat="45.00907" lon="3.82514">
        <ele>880</ele>
        <time>2018-04-27T08:01:50Z</time>
      </trkpt>
      <trkpt lat="45.00868" lon="3.82494">
        <ele>882</ele>
        <time>2018-04-27T08:02:22Z</time>
      </trkpt>
      <trkpt lat="45.0085" lon="3.8248">
        <ele>883</ele>
        <time>2018-04-27T08:02:39Z</time>
      </trkpt>
      <trkpt lat="45.00842" lon="3.82473">
        <ele>884</ele>
        <time>2018-04-27T08:02:48Z</time>
      </trkpt>
      <trkpt lat="45.00827" lon="3.82468">
        <ele>884</ele>
        <time>2018-04-27T08:03:08Z</time>
      </trkpt>
      <trkpt lat="45.00821" lon="3.82468">
        <ele>884</ele>
        <time>2018-04-27T08:03:12Z</time>
      </trkpt>
      <trkpt lat="45.00817" lon="3.8247">
        <ele>884</ele>
        <time>2018-04-27T08:03:23Z</time>
      </trkpt>
      <trkpt lat="45.00814" lon="3.82464">
        <ele>883</ele>
        <time>2018-04-27T08:05:11Z</time>
      </trkpt>
      <trkpt lat="45.00808" lon="3.82469">
        <ele>883</ele>
        <time>2018-04-27T08:05:29Z</time>
      </trkpt>
      <trkpt lat="45.00804" lon="3.82471">
        <ele>883</ele>
        <time>2018-04-27T08:05:41Z</time>
      </trkpt>
      <trkpt lat="45.00799" lon="3.82469">
        <ele>882</ele>
        <time>2018-04-27T08:06:17Z</time>
      </trkpt>
      <trkpt lat="45.00789" lon="3.82463">
        <ele>882</ele>
        <time>2018-04-27T08:06:34Z</time>
      </trkpt>
      <trkpt lat="45.00763" lon="3.82459">
        <ele>883</ele>
        <time>2018-04-27T08:06:57Z</time>
      </trkpt>
      <trkpt lat="45.00753" lon="3.82457">
        <ele>884</ele>
        <time>2018-04-27T08:07:06Z</time>
      </trkpt>
      <trkpt lat="45.00748" lon="3.82457">
        <ele>884</ele>
        <time>2018-04-27T08:07:10Z</time>
      </trkpt>
      <trkpt lat="45.00744" lon="3.82453">
        <ele>884</ele>
        <time>2018-04-27T08:07:14Z</time>
      </trkpt>
      <trkpt lat="45.0074" lon="3.82446">
        <ele>885</ele>
        <time>2018-04-27T08:07:19Z</time>
      </trkpt>
      <trkpt lat="45.00717" lon="3.82417">
        <ele>888</ele>
        <time>2018-04-27T08:07:49Z</time>
      </trkpt>
      <trkpt lat="45.00681" lon="3.82402">
        <ele>890</ele>
        <time>2018-04-27T08:08:22Z</time>
      </trkpt>
      <trkpt lat="45.0067" lon="3.824">
        <ele>891</ele>
        <time>2018-04-27T08:08:49Z</time>
      </trkpt>
      <trkpt lat="45.00566" lon="3.82343">
        <ele>888</ele>
        <time>2018-04-27T08:10:21Z</time>
      </trkpt>
      <trkpt lat="45.0055" lon="3.82343">
        <ele>886</ele>
        <time>2018-04-27T08:10:34Z</time>
      </trkpt>
      <trkpt lat="45.00536" lon="3.82332">
        <ele>884</ele>
        <time>2018-04-27T08:10:48Z</time>
      </trkpt>
      <trkpt lat="45.00527" lon="3.82299">
        <ele>882</ele>
        <time>2018-04-27T08:11:07Z</time>
      </trkpt>
      <trkpt lat="45.00519" lon="3.8229">
        <ele>880</ele>
        <time>2018-04-27T08:11:17Z</time>
      </trkpt>
      <trkpt lat="45.00504" lon="3.82276">
        <ele>879</ele>
        <time>2018-04-27T08:11:44Z</time>
      </trkpt>
      <trkpt lat="45.00494" lon="3.82271">
        <ele>878</ele>
        <time>2018-04-27T08:11:56Z</time>
      </trkpt>
      <trkpt lat="45.00487" lon="3.82262">
        <ele>878</ele>
        <time>2018-04-27T08:12:03Z</time>
      </trkpt>
      <trkpt lat="45.00455" lon="3.82207">
        <ele>878</ele>
        <time>2018-04-27T08:13:32Z</time>
      </trkpt>
      <trkpt lat="45.00453" lon="3.822">
        <ele>878</ele>
        <time>2018-04-27T08:13:37Z</time>
      </trkpt>
      <trkpt lat="45.00443" lon="3.8219">
        <ele>879</ele>
        <time>2018-04-27T08:13:53Z</time>
      </trkpt>
      <trkpt lat="45.00438" lon="3.82178">
        <ele>879</ele>
        <time>2018-04-27T08:14:01Z</time>
      </trkpt>
      <trkpt lat="45.00436" lon="3.82171">
        <ele>879</ele>
        <time>2018-04-27T08:14:14Z</time>
      </trkpt>
      <trkpt lat="45.00432" lon="3.82166">
        <ele>879</ele>
        <time>2018-04-27T08:14:19Z</time>
      </trkpt>
      <trkpt lat="45.00427" lon="3.82163">
        <ele>879</ele>
        <time>2018-04-27T08:14:27Z</time>
      </trkpt>
      <trkpt lat="45.00421" lon="3.8216">
        <ele>879</ele>
        <time>2018-04-27T08:14:33Z</time>
      </trkpt>
      <trkpt lat="45.00412" lon="3.8216">
        <ele>880</ele>
        <time>2018-04-27T08:14:41Z</time>
      </trkpt>
      <trkpt lat="45.00406" lon="3.82159">
        <ele>880</ele>
        <time>2018-04-27T08:14:50Z</time>
      </trkpt>
      <trkpt lat="45.00401" lon="3.8216">
        <ele>880</ele>
        <time>2018-04-27T08:14:54Z</time>
      </trkpt>
      <trkpt lat="45.00391" lon="3.82153">
        <ele>882</ele>
        <time>2018-04-27T08:15:05Z</time>
      </trkpt>
      <trkpt lat="45.00381" lon="3.82149">
        <ele>883</ele>
        <time>2018-04-27T08:15:13Z</time>
      </trkpt>
      <trkpt lat="45.00373" lon="3.82141">
        <ele>884</ele>
        <time>2018-04-27T08:15:21Z</time>
      </trkpt>
      <trkpt lat="45.00357" lon="3.82115">
        <ele>886</ele>
        <time>2018-04-27T08:15:45Z</time>
      </trkpt>
      <trkpt lat="45.00353" lon="3.82113">
        <ele>886</ele>
        <time>2018-04-27T08:15:49Z</time>
      </trkpt>
      <trkpt lat="45.00345" lon="3.82102">
        <ele>887</ele>
        <time>2018-04-27T08:15:59Z</time>
      </trkpt>
      <trkpt lat="45.00318" lon="3.82079">
        <ele>888</ele>
        <time>2018-04-27T08:16:28Z</time>
      </trkpt>
      <trkpt lat="45.0031" lon="3.82075">
        <ele>889</ele>
        <time>2018-04-27T08:16:35Z</time>
      </trkpt>
      <trkpt lat="45.00293" lon="3.8206">
        <ele>890</ele>
        <time>2018-04-27T08:16:51Z</time>
      </trkpt>
      <trkpt lat="45.00284" lon="3.82056">
        <ele>890</ele>
        <time>2018-04-27T08:16:59Z</time>
      </trkpt>
      <trkpt lat="45.00275" lon="3.82056">
        <ele>891</ele>
        <time>2018-04-27T08:17:06Z</time>
      </trkpt>
      <trkpt lat="45.00248" lon="3.82043">
        <ele>893</ele>
        <time>2018-04-27T08:17:34Z</time>
      </trkpt>
      <trkpt lat="45.00231" lon="3.8203">
        <ele>895</ele>
        <time>2018-04-27T08:17:52Z</time>
      </trkpt>
      <trkpt lat="45.00202" lon="3.82017">
        <ele>897</ele>
        <time>2018-04-27T08:19:02Z</time>
      </trkpt>
      <trkpt lat="45.00197" lon="3.82017">
        <ele>897</ele>
        <time>2018-04-27T08:19:05Z</time>
      </trkpt>
      <trkpt lat="45.00192" lon="3.82012">
        <ele>897</ele>
        <time>2018-04-27T08:19:13Z</time>
      </trkpt>
      <trkpt lat="45.00187" lon="3.82012">
        <ele>897</ele>
        <time>2018-04-27T08:19:17Z</time>
      </trkpt>
      <trkpt lat="45.00182" lon="3.82013">
        <ele>897</ele>
        <time>2018-04-27T08:19:21Z</time>
      </trkpt>
      <trkpt lat="45.00148" lon="3.82015">
        <ele>900</ele>
        <time>2018-04-27T08:19:52Z</time>
      </trkpt>
      <trkpt lat="45.00138" lon="3.82013">
        <ele>900</ele>
        <time>2018-04-27T08:20:00Z</time>
      </trkpt>
      <trkpt lat="45.00128" lon="3.82008">
        <ele>901</ele>
        <time>2018-04-27T08:20:10Z</time>
      </trkpt>
      <trkpt lat="45.00097" lon="3.82">
        <ele>903</ele>
        <time>2018-04-27T08:20:37Z</time>
      </trkpt>
      <trkpt lat="45.00056" lon="3.81983">
        <ele>906</ele>
        <time>2018-04-27T08:21:14Z</time>
      </trkpt>
      <trkpt lat="45.00013" lon="3.82004">
        <ele>908</ele>
        <time>2018-04-27T08:21:55Z</time>
      </trkpt>
      <trkpt lat="45.00008" lon="3.82005">
        <ele>908</ele>
        <time>2018-04-27T08:22:00Z</time>
      </trkpt>
      <trkpt lat="44.99975" lon="3.82023">
        <ele>910</ele>
        <time>2018-04-27T08:22:33Z</time>
      </trkpt>
      <trkpt lat="44.99942" lon="3.82031">
        <ele>911</ele>
        <time>2018-04-27T08:23:01Z</time>
      </trkpt>
      <trkpt lat="44.99932" lon="3.82032">
        <ele>911</ele>
        <time>2018-04-27T08:23:10Z</time>
      </trkpt>
      <trkpt lat="44.99911" lon="3.82035">
        <ele>912</ele>
        <time>2018-04-27T08:23:29Z</time>
      </trkpt>
      <trkpt lat="44.99895" lon="3.82034">
        <ele>912</ele>
        <time>2018-04-27T08:23:42Z</time>
      </trkpt>
      <trkpt lat="44.99886" lon="3.82032">
        <ele>912</ele>
        <time>2018-04-27T08:23:49Z</time>
      </trkpt>
      <trkpt lat="44.99845" lon="3.8203">
        <ele>914</ele>
        <time>2018-04-27T08:24:22Z</time>
      </trkpt>
      <trkpt lat="44.9981" lon="3.82033">
        <ele>914</ele>
        <time>2018-04-27T08:24:55Z</time>
      </trkpt>
      <trkpt lat="44.99805" lon="3.82036">
        <ele>914</ele>
        <time>2018-04-27T08:24:59Z</time>
      </trkpt>
      <trkpt lat="44.99795" lon="3.82039">
        <ele>915</ele>
        <time>2018-04-27T08:26:03Z</time>
      </trkpt>
      <trkpt lat="44.9979" lon="3.82037">
        <ele>915</ele>
        <time>2018-04-27T08:26:08Z</time>
      </trkpt>
      <trkpt lat="44.99786" lon="3.82035">
        <ele>915</ele>
        <time>2018-04-27T08:26:12Z</time>
      </trkpt>
      <trkpt lat="44.99782" lon="3.8203">
        <ele>915</ele>
        <time>2018-04-27T08:27:02Z</time>
      </trkpt>
      <trkpt lat="44.9978" lon="3.82045">
        <ele>914</ele>
        <time>2018-04-27T08:36:28Z</time>
      </trkpt>
      <trkpt lat="44.99777" lon="3.82051">
        <ele>914</ele>
        <time>2018-04-27T08:36:42Z</time>
      </trkpt>
      <trkpt lat="44.99779" lon="3.8205">
        <ele>914</ele>
        <time>2018-04-27T08:37:13Z</time>
      </trkpt>
      <trkpt lat="44.99776" lon="3.82029">
        <ele>914</ele>
        <time>2018-04-27T08:37:26Z</time>
      </trkpt>
      <trkpt lat="44.99777" lon="3.82018">
        <ele>915</ele>
        <time>2018-04-27T08:37:38Z</time>
      </trkpt>
      <trkpt lat="44.99779" lon="3.8201">
        <ele>914</ele>
        <time>2018-04-27T08:37:42Z</time>
      </trkpt>
      <trkpt lat="44.99774" lon="3.8199">
        <ele>914</ele>
        <time>2018-04-27T08:37:56Z</time>
      </trkpt>
      <trkpt lat="44.99777" lon="3.81984">
        <ele>914</ele>
        <time>2018-04-27T08:38:01Z</time>
      </trkpt>
      <trkpt lat="44.99779" lon="3.81985">
        <ele>914</ele>
        <time>2018-04-27T08:38:17Z</time>
      </trkpt>
      <trkpt lat="44.9978" lon="3.81991">
        <ele>914</ele>
        <time>2018-04-27T08:38:22Z</time>
      </trkpt>
      <trkpt lat="44.99777" lon="3.81991">
        <ele>914</ele>
        <time>2018-04-27T08:39:54Z</time>
      </trkpt>
      <trkpt lat="44.99773" lon="3.81985">
        <ele>914</ele>
        <time>2018-04-27T08:40:02Z</time>
      </trkpt>
      <trkpt lat="44.99768" lon="3.81984">
        <ele>915</ele>
        <time>2018-04-27T08:40:06Z</time>
      </trkpt>
      <trkpt lat="44.99772" lon="3.81977">
        <ele>915</ele>
        <time>2018-04-27T08:40:34Z</time>
      </trkpt>
      <trkpt lat="44.99771" lon="3.81982">
        <ele>915</ele>
        <time>2018-04-27T08:41:00Z</time>
      </trkpt>
      <trkpt lat="44.99763" lon="3.81991">
        <ele>915</ele>
        <time>2018-04-27T08:41:08Z</time>
      </trkpt>
      <trkpt lat="44.99757" lon="3.82001">
        <ele>915</ele>
        <time>2018-04-27T08:41:22Z</time>
      </trkpt>
      <trkpt lat="44.99752" lon="3.82005">
        <ele>915</ele>
        <time>2018-04-27T08:41:27Z</time>
      </trkpt>
      <trkpt lat="44.99748" lon="3.82006">
        <ele>915</ele>
        <time>2018-04-27T08:41:31Z</time>
      </trkpt>
      <trkpt lat="44.99743" lon="3.82005">
        <ele>915</ele>
        <time>2018-04-27T08:41:35Z</time>
      </trkpt>
      <trkpt lat="44.9972" lon="3.81984">
        <ele>915</ele>
        <time>2018-04-27T08:41:58Z</time>
      </trkpt>
      <trkpt lat="44.99706" lon="3.81978">
        <ele>916</ele>
        <time>2018-04-27T08:42:11Z</time>
      </trkpt>
      <trkpt lat="44.9966" lon="3.81948">
        <ele>915</ele>
        <time>2018-04-27T08:42:52Z</time>
      </trkpt>
      <trkpt lat="44.99651" lon="3.81938">
        <ele>914</ele>
        <time>2018-04-27T08:43:00Z</time>
      </trkpt>
      <trkpt lat="44.99647" lon="3.81936">
        <ele>914</ele>
        <time>2018-04-27T08:43:04Z</time>
      </trkpt>
      <trkpt lat="44.9964" lon="3.81924">
        <ele>914</ele>
        <time>2018-04-27T08:43:12Z</time>
      </trkpt>
      <trkpt lat="44.99637" lon="3.81918">
        <ele>914</ele>
        <time>2018-04-27T08:43:16Z</time>
      </trkpt>
      <trkpt lat="44.99638" lon="3.81912">
        <ele>913</ele>
        <time>2018-04-27T08:43:20Z</time>
      </trkpt>
      <trkpt lat="44.99639" lon="3.81904">
        <ele>912</ele>
        <time>2018-04-27T08:43:25Z</time>
      </trkpt>
      <trkpt lat="44.99638" lon="3.81878">
        <ele>911</ele>
        <time>2018-04-27T08:43:41Z</time>
      </trkpt>
      <trkpt lat="44.99642" lon="3.81837">
        <ele>907</ele>
        <time>2018-04-27T08:44:06Z</time>
      </trkpt>
      <trkpt lat="44.99648" lon="3.81819">
        <ele>906</ele>
        <time>2018-04-27T08:44:18Z</time>
      </trkpt>
      <trkpt lat="44.99652" lon="3.81814">
        <ele>906</ele>
        <time>2018-04-27T08:44:23Z</time>
      </trkpt>
      <trkpt lat="44.99681" lon="3.81799">
        <ele>904</ele>
        <time>2018-04-27T08:44:48Z</time>
      </trkpt>
      <trkpt lat="44.99685" lon="3.81798">
        <ele>904</ele>
        <time>2018-04-27T08:44:51Z</time>
      </trkpt>
      <trkpt lat="44.99695" lon="3.81792">
        <ele>904</ele>
        <time>2018-04-27T08:45:01Z</time>
      </trkpt>
      <trkpt lat="44.99702" lon="3.81786">
        <ele>903</ele>
        <time>2018-04-27T08:45:09Z</time>
      </trkpt>
      <trkpt lat="44.99711" lon="3.81755">
        <ele>903</ele>
        <time>2018-04-27T08:45:31Z</time>
      </trkpt>
      <trkpt lat="44.99708" lon="3.81744">
        <ele>903</ele>
        <time>2018-04-27T08:45:38Z</time>
      </trkpt>
      <trkpt lat="44.99704" lon="3.8174">
        <ele>903</ele>
        <time>2018-04-27T08:45:41Z</time>
      </trkpt>
      <trkpt lat="44.99703" lon="3.81732">
        <ele>903</ele>
        <time>2018-04-27T08:45:44Z</time>
      </trkpt>
      <trkpt lat="44.99702" lon="3.81697">
        <ele>902</ele>
        <time>2018-04-27T08:46:01Z</time>
      </trkpt>
      <trkpt lat="44.997" lon="3.81691">
        <ele>903</ele>
        <time>2018-04-27T08:46:05Z</time>
      </trkpt>
      <trkpt lat="44.99697" lon="3.81686">
        <ele>903</ele>
        <time>2018-04-27T08:46:09Z</time>
      </trkpt>
      <trkpt lat="44.99688" lon="3.81677">
        <ele>903</ele>
        <time>2018-04-27T08:46:19Z</time>
      </trkpt>
      <trkpt lat="44.99684" lon="3.81674">
        <ele>903</ele>
        <time>2018-04-27T08:46:24Z</time>
      </trkpt>
      <trkpt lat="44.9966" lon="3.81665">
        <ele>903</ele>
        <time>2018-04-27T08:46:47Z</time>
      </trkpt>
      <trkpt lat="44.99655" lon="3.81662">
        <ele>903</ele>
        <time>2018-04-27T08:46:51Z</time>
      </trkpt>
      <trkpt lat="44.99632" lon="3.81635">
        <ele>904</ele>
        <time>2018-04-27T08:47:15Z</time>
      </trkpt>
      <trkpt lat="44.99626" lon="3.81624">
        <ele>904</ele>
        <time>2018-04-27T08:47:23Z</time>
      </trkpt>
      <trkpt lat="44.99592" lon="3.81531">
        <ele>907</ele>
        <time>2018-04-27T08:48:27Z</time>
      </trkpt>
      <trkpt lat="44.99591" lon="3.81524">
        <ele>907</ele>
        <time>2018-04-27T08:48:32Z</time>
      </trkpt>
      <trkpt lat="44.99589" lon="3.81473">
        <ele>909</ele>
        <time>2018-04-27T08:49:04Z</time>
      </trkpt>
      <trkpt lat="44.99586" lon="3.81451">
        <ele>910</ele>
        <time>2018-04-27T08:49:19Z</time>
      </trkpt>
      <trkpt lat="44.99572" lon="3.81415">
        <ele>911</ele>
        <time>2018-04-27T08:49:47Z</time>
      </trkpt>
      <trkpt lat="44.99534" lon="3.8135">
        <ele>914</ele>
        <time>2018-04-27T08:50:39Z</time>
      </trkpt>
      <trkpt lat="44.99529" lon="3.81332">
        <ele>916</ele>
        <time>2018-04-27T08:50:51Z</time>
      </trkpt>
      <trkpt lat="44.99527" lon="3.81325">
        <ele>916</ele>
        <time>2018-04-27T08:50:56Z</time>
      </trkpt>
      <trkpt lat="44.99525" lon="3.81318">
        <ele>917</ele>
        <time>2018-04-27T08:51:01Z</time>
      </trkpt>
      <trkpt lat="44.99523" lon="3.81303">
        <ele>917</ele>
        <time>2018-04-27T08:51:10Z</time>
      </trkpt>
      <trkpt lat="44.9952" lon="3.8129">
        <ele>919</ele>
        <time>2018-04-27T08:51:20Z</time>
      </trkpt>
      <trkpt lat="44.99519" lon="3.81284">
        <ele>919</ele>
        <time>2018-04-27T08:51:34Z</time>
      </trkpt>
      <trkpt lat="44.99514" lon="3.81273">
        <ele>920</ele>
        <time>2018-04-27T08:51:42Z</time>
      </trkpt>
      <trkpt lat="44.99498" lon="3.81257">
        <ele>921</ele>
        <time>2018-04-27T08:51:58Z</time>
      </trkpt>
      <trkpt lat="44.9945" lon="3.81219">
        <ele>924</ele>
        <time>2018-04-27T08:52:46Z</time>
      </trkpt>
      <trkpt lat="44.99428" lon="3.81197">
        <ele>924</ele>
        <time>2018-04-27T08:53:10Z</time>
      </trkpt>
      <trkpt lat="44.99386" lon="3.81099">
        <ele>927</ele>
        <time>2018-04-27T08:54:33Z</time>
      </trkpt>
      <trkpt lat="44.99379" lon="3.81073">
        <ele>927</ele>
        <time>2018-04-27T08:54:51Z</time>
      </trkpt>
      <trkpt lat="44.99378" lon="3.8106">
        <ele>927</ele>
        <time>2018-04-27T08:54:59Z</time>
      </trkpt>
      <trkpt lat="44.99378" lon="3.81052">
        <ele>927</ele>
        <time>2018-04-27T08:55:04Z</time>
      </trkpt>
      <trkpt lat="44.99377" lon="3.81046">
        <ele>927</ele>
        <time>2018-04-27T08:55:08Z</time>
      </trkpt>
      <trkpt lat="44.99374" lon="3.81037">
        <ele>928</ele>
        <time>2018-04-27T08:55:21Z</time>
      </trkpt>
      <trkpt lat="44.99373" lon="3.8103">
        <ele>928</ele>
        <time>2018-04-27T08:55:25Z</time>
      </trkpt>
      <trkpt lat="44.99368" lon="3.8101">
        <ele>928</ele>
        <time>2018-04-27T08:55:37Z</time>
      </trkpt>
      <trkpt lat="44.99354" lon="3.80973">
        <ele>928</ele>
        <time>2018-04-27T08:56:03Z</time>
      </trkpt>
      <trkpt lat="44.99336" lon="3.80932">
        <ele>928</ele>
        <time>2018-04-27T08:56:32Z</time>
      </trkpt>
      <trkpt lat="44.99327" lon="3.80883">
        <ele>927</ele>
        <time>2018-04-27T08:57:10Z</time>
      </trkpt>
      <trkpt lat="44.99322" lon="3.80875">
        <ele>927</ele>
        <time>2018-04-27T08:57:21Z</time>
      </trkpt>
      <trkpt lat="44.99321" lon="3.80867">
        <ele>927</ele>
        <time>2018-04-27T08:57:34Z</time>
      </trkpt>
      <trkpt lat="44.99319" lon="3.80845">
        <ele>927</ele>
        <time>2018-04-27T08:57:46Z</time>
      </trkpt>
      <trkpt lat="44.99311" lon="3.80818">
        <ele>927</ele>
        <time>2018-04-27T08:58:02Z</time>
      </trkpt>
      <trkpt lat="44.99303" lon="3.80772">
        <ele>927</ele>
        <time>2018-04-27T08:58:30Z</time>
      </trkpt>
      <trkpt lat="44.993" lon="3.80765">
        <ele>927</ele>
        <time>2018-04-27T08:58:34Z</time>
      </trkpt>
      <trkpt lat="44.99299" lon="3.80678">
        <ele>926</ele>
        <time>2018-04-27T08:59:24Z</time>
      </trkpt>
      <trkpt lat="44.99296" lon="3.80664">
        <ele>927</ele>
        <time>2018-04-27T08:59:34Z</time>
      </trkpt>
      <trkpt lat="44.99294" lon="3.80657">
        <ele>927</ele>
        <time>2018-04-27T08:59:39Z</time>
      </trkpt>
      <trkpt lat="44.9925" lon="3.80594">
        <ele>928</ele>
        <time>2018-04-27T09:00:33Z</time>
      </trkpt>
      <trkpt lat="44.99243" lon="3.80575">
        <ele>928</ele>
        <time>2018-04-27T09:00:45Z</time>
      </trkpt>
      <trkpt lat="44.9924" lon="3.80571">
        <ele>929</ele>
        <time>2018-04-27T09:00:49Z</time>
      </trkpt>
      <trkpt lat="44.99238" lon="3.80565">
        <ele>929</ele>
        <time>2018-04-27T09:00:53Z</time>
      </trkpt>
      <trkpt lat="44.99234" lon="3.80558">
        <ele>929</ele>
        <time>2018-04-27T09:00:57Z</time>
      </trkpt>
      <trkpt lat="44.99183" lon="3.80491">
        <ele>929</ele>
        <time>2018-04-27T09:01:55Z</time>
      </trkpt>
      <trkpt lat="44.99172" lon="3.80474">
        <ele>930</ele>
        <time>2018-04-27T09:02:08Z</time>
      </trkpt>
      <trkpt lat="44.9916" lon="3.80459">
        <ele>930</ele>
        <time>2018-04-27T09:02:22Z</time>
      </trkpt>
      <trkpt lat="44.99151" lon="3.80453">
        <ele>930</ele>
        <time>2018-04-27T09:02:31Z</time>
      </trkpt>
      <trkpt lat="44.99136" lon="3.80439">
        <ele>931</ele>
        <time>2018-04-27T09:02:45Z</time>
      </trkpt>
      <trkpt lat="44.99115" lon="3.80422">
        <ele>930</ele>
        <time>2018-04-27T09:03:05Z</time>
      </trkpt>
      <trkpt lat="44.99101" lon="3.80403">
        <ele>931</ele>
        <time>2018-04-27T09:03:21Z</time>
      </trkpt>
      <trkpt lat="44.99095" lon="3.8039">
        <ele>931</ele>
        <time>2018-04-27T09:03:30Z</time>
      </trkpt>
      <trkpt lat="44.99088" lon="3.80379">
        <ele>931</ele>
        <time>2018-04-27T09:03:38Z</time>
      </trkpt>
      <trkpt lat="44.99081" lon="3.80359">
        <ele>932</ele>
        <time>2018-04-27T09:03:50Z</time>
      </trkpt>
      <trkpt lat="44.99074" lon="3.80315">
        <ele>933</ele>
        <time>2018-04-27T09:04:21Z</time>
      </trkpt>
      <trkpt lat="44.99043" lon="3.80252">
        <ele>934</ele>
        <time>2018-04-27T09:05:10Z</time>
      </trkpt>
      <trkpt lat="44.99042" lon="3.80245">
        <ele>934</ele>
        <time>2018-04-27T09:05:14Z</time>
      </trkpt>
      <trkpt lat="44.99041" lon="3.80237">
        <ele>935</ele>
        <time>2018-04-27T09:05:19Z</time>
      </trkpt>
      <trkpt lat="44.99042" lon="3.8023">
        <ele>935</ele>
        <time>2018-04-27T09:05:23Z</time>
      </trkpt>
      <trkpt lat="44.99058" lon="3.80196">
        <ele>935</ele>
        <time>2018-04-27T09:05:48Z</time>
      </trkpt>
      <trkpt lat="44.9907" lon="3.80158">
        <ele>936</ele>
        <time>2018-04-27T09:06:12Z</time>
      </trkpt>
      <trkpt lat="44.99072" lon="3.80137">
        <ele>937</ele>
        <time>2018-04-27T09:06:25Z</time>
      </trkpt>
      <trkpt lat="44.99072" lon="3.8013">
        <ele>937</ele>
        <time>2018-04-27T09:06:29Z</time>
      </trkpt>
      <trkpt lat="44.99073" lon="3.80124">
        <ele>938</ele>
        <time>2018-04-27T09:06:33Z</time>
      </trkpt>
      <trkpt lat="44.99071" lon="3.8011">
        <ele>939</ele>
        <time>2018-04-27T09:06:41Z</time>
      </trkpt>
      <trkpt lat="44.99076" lon="3.80081">
        <ele>942</ele>
        <time>2018-04-27T09:06:59Z</time>
      </trkpt>
      <trkpt lat="44.99073" lon="3.80074">
        <ele>942</ele>
        <time>2018-04-27T09:07:06Z</time>
      </trkpt>
      <trkpt lat="44.99047" lon="3.80051">
        <ele>944</ele>
        <time>2018-04-27T09:07:30Z</time>
      </trkpt>
      <trkpt lat="44.99043" lon="3.80047">
        <ele>944</ele>
        <time>2018-04-27T09:07:34Z</time>
      </trkpt>
      <trkpt lat="44.9904" lon="3.80044">
        <ele>944</ele>
        <time>2018-04-27T09:07:38Z</time>
      </trkpt>
      <trkpt lat="44.9903" lon="3.80042">
        <ele>944</ele>
        <time>2018-04-27T09:07:47Z</time>
      </trkpt>
      <trkpt lat="44.99026" lon="3.80039">
        <ele>944</ele>
        <time>2018-04-27T09:07:51Z</time>
      </trkpt>
      <trkpt lat="44.99024" lon="3.80032">
        <ele>944</ele>
        <time>2018-04-27T09:07:55Z</time>
      </trkpt>
      <trkpt lat="44.99024" lon="3.80011">
        <ele>946</ele>
        <time>2018-04-27T09:08:10Z</time>
      </trkpt>
      <trkpt lat="44.99019" lon="3.79982">
        <ele>946</ele>
        <time>2018-04-27T09:08:29Z</time>
      </trkpt>
      <trkpt lat="44.99017" lon="3.7994">
        <ele>946</ele>
        <time>2018-04-27T09:08:55Z</time>
      </trkpt>
      <trkpt lat="44.99006" lon="3.79893">
        <ele>947</ele>
        <time>2018-04-27T09:09:26Z</time>
      </trkpt>
      <trkpt lat="44.98999" lon="3.79826">
        <ele>949</ele>
        <time>2018-04-27T09:10:13Z</time>
      </trkpt>
      <trkpt lat="44.98999" lon="3.79814">
        <ele>950</ele>
        <time>2018-04-27T09:10:41Z</time>
      </trkpt>
      <trkpt lat="44.98996" lon="3.79785">
        <ele>950</ele>
        <time>2018-04-27T09:10:56Z</time>
      </trkpt>
      <trkpt lat="44.98973" lon="3.797">
        <ele>951</ele>
        <time>2018-04-27T09:11:59Z</time>
      </trkpt>
      <trkpt lat="44.98964" lon="3.79683">
        <ele>951</ele>
        <time>2018-04-27T09:12:12Z</time>
      </trkpt>
      <trkpt lat="44.98948" lon="3.79659">
        <ele>951</ele>
        <time>2018-04-27T09:12:32Z</time>
      </trkpt>
      <trkpt lat="44.98848" lon="3.79381">
        <ele>959</ele>
        <time>2018-04-27T09:15:54Z</time>
      </trkpt>
      <trkpt lat="44.98833" lon="3.79308">
        <ele>962</ele>
        <time>2018-04-27T09:16:41Z</time>
      </trkpt>
      <trkpt lat="44.98829" lon="3.79304">
        <ele>962</ele>
        <time>2018-04-27T09:16:45Z</time>
      </trkpt>
      <trkpt lat="44.98825" lon="3.79301">
        <ele>962</ele>
        <time>2018-04-27T09:16:49Z</time>
      </trkpt>
      <trkpt lat="44.98809" lon="3.79299">
        <ele>963</ele>
        <time>2018-04-27T09:17:01Z</time>
      </trkpt>
      <trkpt lat="44.98769" lon="3.79304">
        <ele>963</ele>
        <time>2018-04-27T09:17:34Z</time>
      </trkpt>
      <trkpt lat="44.98754" lon="3.79304">
        <ele>963</ele>
        <time>2018-04-27T09:17:46Z</time>
      </trkpt>
      <trkpt lat="44.98749" lon="3.79299">
        <ele>963</ele>
        <time>2018-04-27T09:17:53Z</time>
      </trkpt>
      <trkpt lat="44.98741" lon="3.79298">
        <ele>963</ele>
        <time>2018-04-27T09:18:12Z</time>
      </trkpt>
      <trkpt lat="44.98727" lon="3.7929">
        <ele>963</ele>
        <time>2018-04-27T09:18:25Z</time>
      </trkpt>
      <trkpt lat="44.98719" lon="3.79284">
        <ele>964</ele>
        <time>2018-04-27T09:18:33Z</time>
      </trkpt>
      <trkpt lat="44.9867" lon="3.79222">
        <ele>967</ele>
        <time>2018-04-27T09:19:34Z</time>
      </trkpt>
      <trkpt lat="44.98647" lon="3.79205">
        <ele>966</ele>
        <time>2018-04-27T09:19:56Z</time>
      </trkpt>
      <trkpt lat="44.98637" lon="3.79199">
        <ele>966</ele>
        <time>2018-04-27T09:20:04Z</time>
      </trkpt>
      <trkpt lat="44.98621" lon="3.79187">
        <ele>964</ele>
        <time>2018-04-27T09:20:20Z</time>
      </trkpt>
      <trkpt lat="44.98615" lon="3.79185">
        <ele>963</ele>
        <time>2018-04-27T09:20:30Z</time>
      </trkpt>
      <trkpt lat="44.9861" lon="3.79183">
        <ele>963</ele>
        <time>2018-04-27T09:20:34Z</time>
      </trkpt>
      <trkpt lat="44.98605" lon="3.79178">
        <ele>963</ele>
        <time>2018-04-27T09:20:50Z</time>
      </trkpt>
      <trkpt lat="44.98602" lon="3.79172">
        <ele>963</ele>
        <time>2018-04-27T09:20:54Z</time>
      </trkpt>
      <trkpt lat="44.98586" lon="3.79154">
        <ele>963</ele>
        <time>2018-04-27T09:21:10Z</time>
      </trkpt>
      <trkpt lat="44.98581" lon="3.79155">
        <ele>963</ele>
        <time>2018-04-27T09:21:14Z</time>
      </trkpt>
      <trkpt lat="44.98576" lon="3.79153">
        <ele>962</ele>
        <time>2018-04-27T09:21:18Z</time>
      </trkpt>
      <trkpt lat="44.98571" lon="3.7915">
        <ele>962</ele>
        <time>2018-04-27T09:21:22Z</time>
      </trkpt>
      <trkpt lat="44.98563" lon="3.79142">
        <ele>963</ele>
        <time>2018-04-27T09:21:30Z</time>
      </trkpt>
      <trkpt lat="44.98549" lon="3.79117">
        <ele>963</ele>
        <time>2018-04-27T09:21:51Z</time>
      </trkpt>
      <trkpt lat="44.98544" lon="3.79104">
        <ele>963</ele>
        <time>2018-04-27T09:22:01Z</time>
      </trkpt>
      <trkpt lat="44.98547" lon="3.79096">
        <ele>963</ele>
        <time>2018-04-27T09:22:15Z</time>
      </trkpt>
      <trkpt lat="44.98561" lon="3.79075">
        <ele>967</ele>
        <time>2018-04-27T09:22:40Z</time>
      </trkpt>
      <trkpt lat="44.98565" lon="3.79048">
        <ele>970</ele>
        <time>2018-04-27T09:23:03Z</time>
      </trkpt>
      <trkpt lat="44.98564" lon="3.79041">
        <ele>971</ele>
        <time>2018-04-27T09:23:08Z</time>
      </trkpt>
      <trkpt lat="44.98557" lon="3.79021">
        <ele>972</ele>
        <time>2018-04-27T09:23:22Z</time>
      </trkpt>
      <trkpt lat="44.98551" lon="3.78996">
        <ele>973</ele>
        <time>2018-04-27T09:23:38Z</time>
      </trkpt>
      <trkpt lat="44.98549" lon="3.78946">
        <ele>974</ele>
        <time>2018-04-27T09:24:16Z</time>
      </trkpt>
      <trkpt lat="44.98535" lon="3.78876">
        <ele>977</ele>
        <time>2018-04-27T09:25:05Z</time>
      </trkpt>
      <trkpt lat="44.98534" lon="3.78868">
        <ele>977</ele>
        <time>2018-04-27T09:25:10Z</time>
      </trkpt>
      <trkpt lat="44.98537" lon="3.78839">
        <ele>978</ele>
        <time>2018-04-27T09:25:51Z</time>
      </trkpt>
      <trkpt lat="44.98557" lon="3.78776">
        <ele>979</ele>
        <time>2018-04-27T09:26:34Z</time>
      </trkpt>
      <trkpt lat="44.98562" lon="3.78735">
        <ele>980</ele>
        <time>2018-04-27T09:27:00Z</time>
      </trkpt>
      <trkpt lat="44.98564" lon="3.78729">
        <ele>981</ele>
        <time>2018-04-27T09:27:05Z</time>
      </trkpt>
      <trkpt lat="44.98564" lon="3.78721">
        <ele>981</ele>
        <time>2018-04-27T09:27:19Z</time>
      </trkpt>
      <trkpt lat="44.98539" lon="3.78635">
        <ele>985</ele>
        <time>2018-04-27T09:28:20Z</time>
      </trkpt>
      <trkpt lat="44.98532" lon="3.78626">
        <ele>986</ele>
        <time>2018-04-27T09:28:29Z</time>
      </trkpt>
      <trkpt lat="44.98518" lon="3.78614">
        <ele>987</ele>
        <time>2018-04-27T09:28:44Z</time>
      </trkpt>
      <trkpt lat="44.98514" lon="3.7861">
        <ele>987</ele>
        <time>2018-04-27T09:28:49Z</time>
      </trkpt>
      <trkpt lat="44.98496" lon="3.78585">
        <ele>987</ele>
        <time>2018-04-27T09:29:11Z</time>
      </trkpt>
      <trkpt lat="44.98494" lon="3.78578">
        <ele>987</ele>
        <time>2018-04-27T09:29:15Z</time>
      </trkpt>
      <trkpt lat="44.98477" lon="3.78538">
        <ele>988</ele>
        <time>2018-04-27T09:30:13Z</time>
      </trkpt>
      <trkpt lat="44.98468" lon="3.78512">
        <ele>989</ele>
        <time>2018-04-27T09:30:30Z</time>
      </trkpt>
      <trkpt lat="44.98457" lon="3.78487">
        <ele>989</ele>
        <time>2018-04-27T09:30:49Z</time>
      </trkpt>
      <trkpt lat="44.98453" lon="3.78483">
        <ele>989</ele>
        <time>2018-04-27T09:30:53Z</time>
      </trkpt>
      <trkpt lat="44.98427" lon="3.78441">
        <ele>989</ele>
        <time>2018-04-27T09:31:27Z</time>
      </trkpt>
      <trkpt lat="44.98418" lon="3.78434">
        <ele>989</ele>
        <time>2018-04-27T09:31:35Z</time>
      </trkpt>
      <trkpt lat="44.9841" lon="3.78424">
        <ele>989</ele>
        <time>2018-04-27T09:31:45Z</time>
      </trkpt>
      <trkpt lat="44.98397" lon="3.78388">
        <ele>990</ele>
        <time>2018-04-27T09:32:17Z</time>
      </trkpt>
      <trkpt lat="44.98362" lon="3.78322">
        <ele>989</ele>
        <time>2018-04-27T09:33:06Z</time>
      </trkpt>
      <trkpt lat="44.9836" lon="3.78316">
        <ele>990</ele>
        <time>2018-04-27T09:33:11Z</time>
      </trkpt>
      <trkpt lat="44.98359" lon="3.78308">
        <ele>991</ele>
        <time>2018-04-27T09:33:43Z</time>
      </trkpt>
      <trkpt lat="44.98353" lon="3.78293">
        <ele>991</ele>
        <time>2018-04-27T09:34:23Z</time>
      </trkpt>
      <trkpt lat="44.98348" lon="3.78268">
        <ele>992</ele>
        <time>2018-04-27T09:34:44Z</time>
      </trkpt>
      <trkpt lat="44.98346" lon="3.78261">
        <ele>992</ele>
        <time>2018-04-27T09:34:49Z</time>
      </trkpt>
      <trkpt lat="44.98326" lon="3.78163">
        <ele>994</ele>
        <time>2018-04-27T09:35:50Z</time>
      </trkpt>
      <trkpt lat="44.98325" lon="3.78157">
        <ele>994</ele>
        <time>2018-04-27T09:35:54Z</time>
      </trkpt>
      <trkpt lat="44.98304" lon="3.78084">
        <ele>996</ele>
        <time>2018-04-27T09:36:44Z</time>
      </trkpt>
      <trkpt lat="44.98291" lon="3.78053">
        <ele>997</ele>
        <time>2018-04-27T09:37:06Z</time>
      </trkpt>
      <trkpt lat="44.98288" lon="3.78047">
        <ele>997</ele>
        <time>2018-04-27T09:37:11Z</time>
      </trkpt>
      <trkpt lat="44.98274" lon="3.78008">
        <ele>997</ele>
        <time>2018-04-27T09:37:45Z</time>
      </trkpt>
      <trkpt lat="44.98268" lon="3.77982">
        <ele>998</ele>
        <time>2018-04-27T09:38:02Z</time>
      </trkpt>
      <trkpt lat="44.98267" lon="3.77968">
        <ele>998</ele>
        <time>2018-04-27T09:38:11Z</time>
      </trkpt>
      <trkpt lat="44.98249" lon="3.77856">
        <ele>1001</ele>
        <time>2018-04-27T09:39:25Z</time>
      </trkpt>
      <trkpt lat="44.98249" lon="3.7782">
        <ele>1001</ele>
        <time>2018-04-27T09:39:50Z</time>
      </trkpt>
      <trkpt lat="44.98223" lon="3.77705">
        <ele>1005</ele>
        <time>2018-04-27T09:41:09Z</time>
      </trkpt>
      <trkpt lat="44.98216" lon="3.77684">
        <ele>1005</ele>
        <time>2018-04-27T09:41:24Z</time>
      </trkpt>
      <trkpt lat="44.98215" lon="3.77677">
        <ele>1006</ele>
        <time>2018-04-27T09:41:28Z</time>
      </trkpt>
      <trkpt lat="44.98216" lon="3.77648">
        <ele>1006</ele>
        <time>2018-04-27T09:41:48Z</time>
      </trkpt>
      <trkpt lat="44.98218" lon="3.77641">
        <ele>1006</ele>
        <time>2018-04-27T09:41:53Z</time>
      </trkpt>
      <trkpt lat="44.98217" lon="3.77633">
        <ele>1007</ele>
        <time>2018-04-27T09:42:00Z</time>
      </trkpt>
      <trkpt lat="44.9822" lon="3.77603">
        <ele>1007</ele>
        <time>2018-04-27T09:42:19Z</time>
      </trkpt>
      <trkpt lat="44.98212" lon="3.77563">
        <ele>1009</ele>
        <time>2018-04-27T09:42:47Z</time>
      </trkpt>
      <trkpt lat="44.98199" lon="3.77516">
        <ele>1010</ele>
        <time>2018-04-27T09:43:18Z</time>
      </trkpt>
      <trkpt lat="44.98182" lon="3.77412">
        <ele>1012</ele>
        <time>2018-04-27T09:44:32Z</time>
      </trkpt>
      <trkpt lat="44.9818" lon="3.77322">
        <ele>1014</ele>
        <time>2018-04-27T09:45:27Z</time>
      </trkpt>
      <trkpt lat="44.98179" lon="3.77315">
        <ele>1014</ele>
        <time>2018-04-27T09:45:32Z</time>
      </trkpt>
      <trkpt lat="44.98177" lon="3.77308">
        <ele>1014</ele>
        <time>2018-04-27T09:45:37Z</time>
      </trkpt>
      <trkpt lat="44.98173" lon="3.77253">
        <ele>1015</ele>
        <time>2018-04-27T09:46:12Z</time>
      </trkpt>
      <trkpt lat="44.98176" lon="3.77127">
        <ele>1016</ele>
        <time>2018-04-27T09:47:32Z</time>
      </trkpt>
      <trkpt lat="44.98194" lon="3.76982">
        <ele>1019</ele>
        <time>2018-04-27T09:49:08Z</time>
      </trkpt>
      <trkpt lat="44.98188" lon="3.76891">
        <ele>1023</ele>
        <time>2018-04-27T09:50:06Z</time>
      </trkpt>
      <trkpt lat="44.98201" lon="3.76825">
        <ele>1025</ele>
        <time>2018-04-27T09:50:52Z</time>
      </trkpt>
      <trkpt lat="44.98202" lon="3.76819">
        <ele>1025</ele>
        <time>2018-04-27T09:51:01Z</time>
      </trkpt>
      <trkpt lat="44.98205" lon="3.768">
        <ele>1025</ele>
        <time>2018-04-27T09:51:38Z</time>
      </trkpt>
      <trkpt lat="44.98206" lon="3.76793">
        <ele>1025</ele>
        <time>2018-04-27T09:51:43Z</time>
      </trkpt>
      <trkpt lat="44.98205" lon="3.76786">
        <ele>1025</ele>
        <time>2018-04-27T09:51:47Z</time>
      </trkpt>
      <trkpt lat="44.98213" lon="3.76664">
        <ele>1030</ele>
        <time>2018-04-27T09:53:05Z</time>
      </trkpt>
      <trkpt lat="44.98209" lon="3.76607">
        <ele>1031</ele>
        <time>2018-04-27T09:53:42Z</time>
      </trkpt>
      <trkpt lat="44.98205" lon="3.76588">
        <ele>1032</ele>
        <time>2018-04-27T09:54:12Z</time>
      </trkpt>
      <trkpt lat="44.98203" lon="3.76582">
        <ele>1033</ele>
        <time>2018-04-27T09:54:16Z</time>
      </trkpt>
      <trkpt lat="44.98201" lon="3.76567">
        <ele>1033</ele>
        <time>2018-04-27T09:54:25Z</time>
      </trkpt>
      <trkpt lat="44.98201" lon="3.76541">
        <ele>1034</ele>
        <time>2018-04-27T09:54:44Z</time>
      </trkpt>
      <trkpt lat="44.98202" lon="3.76533">
        <ele>1035</ele>
        <time>2018-04-27T09:54:56Z</time>
      </trkpt>
      <trkpt lat="44.98276" lon="3.76465">
        <ele>1036</ele>
        <time>2018-04-27T09:56:15Z</time>
      </trkpt>
      <trkpt lat="44.98287" lon="3.76451">
        <ele>1037</ele>
        <time>2018-04-27T09:56:27Z</time>
      </trkpt>
      <trkpt lat="44.98295" lon="3.76434">
        <ele>1037</ele>
        <time>2018-04-27T09:56:39Z</time>
      </trkpt>
      <trkpt lat="44.98304" lon="3.76396">
        <ele>1039</ele>
        <time>2018-04-27T09:57:48Z</time>
      </trkpt>
      <trkpt lat="44.98307" lon="3.76389">
        <ele>1039</ele>
        <time>2018-04-27T09:58:13Z</time>
      </trkpt>
      <trkpt lat="44.98308" lon="3.76383">
        <ele>1040</ele>
        <time>2018-04-27T09:58:17Z</time>
      </trkpt>
      <trkpt lat="44.98311" lon="3.76378">
        <ele>1040</ele>
        <time>2018-04-27T09:58:22Z</time>
      </trkpt>
      <trkpt lat="44.98321" lon="3.76362">
        <ele>1040</ele>
        <time>2018-04-27T09:58:36Z</time>
      </trkpt>
      <trkpt lat="44.98323" lon="3.76355">
        <ele>1040</ele>
        <time>2018-04-27T09:58:44Z</time>
      </trkpt>
      <trkpt lat="44.98306" lon="3.7632">
        <ele>1043</ele>
        <time>2018-04-27T09:59:15Z</time>
      </trkpt>
      <trkpt lat="44.98302" lon="3.76315">
        <ele>1042</ele>
        <time>2018-04-27T09:59:20Z</time>
      </trkpt>
      <trkpt lat="44.98296" lon="3.76312">
        <ele>1042</ele>
        <time>2018-04-27T09:59:25Z</time>
      </trkpt>
      <trkpt lat="44.98267" lon="3.763">
        <ele>1043</ele>
        <time>2018-04-27T09:59:53Z</time>
      </trkpt>
      <trkpt lat="44.98231" lon="3.76291">
        <ele>1043</ele>
        <time>2018-04-27T10:00:28Z</time>
      </trkpt>
      <trkpt lat="44.98201" lon="3.7628">
        <ele>1045</ele>
        <time>2018-04-27T10:00:56Z</time>
      </trkpt>
      <trkpt lat="44.98197" lon="3.76278">
        <ele>1045</ele>
        <time>2018-04-27T10:01:00Z</time>
      </trkpt>
      <trkpt lat="44.98192" lon="3.76274">
        <ele>1045</ele>
        <time>2018-04-27T10:01:04Z</time>
      </trkpt>
      <trkpt lat="44.98188" lon="3.7627">
        <ele>1045</ele>
        <time>2018-04-27T10:01:08Z</time>
      </trkpt>
      <trkpt lat="44.98185" lon="3.76266">
        <ele>1045</ele>
        <time>2018-04-27T10:01:12Z</time>
      </trkpt>
      <trkpt lat="44.98175" lon="3.76239">
        <ele>1045</ele>
        <time>2018-04-27T10:01:32Z</time>
      </trkpt>
      <trkpt lat="44.9817" lon="3.76218">
        <ele>1044</ele>
        <time>2018-04-27T10:01:46Z</time>
      </trkpt>
      <trkpt lat="44.98166" lon="3.76188">
        <ele>1045</ele>
        <time>2018-04-27T10:02:06Z</time>
      </trkpt>
      <trkpt lat="44.98167" lon="3.76181">
        <ele>1046</ele>
        <time>2018-04-27T10:02:10Z</time>
      </trkpt>
      <trkpt lat="44.98167" lon="3.76175">
        <ele>1046</ele>
        <time>2018-04-27T10:02:14Z</time>
      </trkpt>
      <trkpt lat="44.98168" lon="3.76142">
        <ele>1046</ele>
        <time>2018-04-27T10:02:41Z</time>
      </trkpt>
      <trkpt lat="44.98164" lon="3.76122">
        <ele>1048</ele>
        <time>2018-04-27T10:02:55Z</time>
      </trkpt>
      <trkpt lat="44.9816" lon="3.76112">
        <ele>1048</ele>
        <time>2018-04-27T10:03:04Z</time>
      </trkpt>
      <trkpt lat="44.98152" lon="3.76104">
        <ele>1048</ele>
        <time>2018-04-27T10:03:14Z</time>
      </trkpt>
      <trkpt lat="44.98131" lon="3.76093">
        <ele>1049</ele>
        <time>2018-04-27T10:03:40Z</time>
      </trkpt>
      <trkpt lat="44.98125" lon="3.76088">
        <ele>1049</ele>
        <time>2018-04-27T10:03:47Z</time>
      </trkpt>
      <trkpt lat="44.98114" lon="3.76078">
        <ele>1049</ele>
        <time>2018-04-27T10:04:03Z</time>
      </trkpt>
      <trkpt lat="44.98117" lon="3.76069">
        <ele>1051</ele>
        <time>2018-04-27T10:04:59Z</time>
      </trkpt>
      <trkpt lat="44.98119" lon="3.76055">
        <ele>1052</ele>
        <time>2018-04-27T10:05:09Z</time>
      </trkpt>
      <trkpt lat="44.98132" lon="3.76006">
        <ele>1052</ele>
        <time>2018-04-27T10:05:42Z</time>
      </trkpt>
      <trkpt lat="44.98134" lon="3.76">
        <ele>1053</ele>
        <time>2018-04-27T10:05:47Z</time>
      </trkpt>
      <trkpt lat="44.98135" lon="3.75992">
        <ele>1053</ele>
        <time>2018-04-27T10:05:58Z</time>
      </trkpt>
      <trkpt lat="44.9814" lon="3.75973">
        <ele>1053</ele>
        <time>2018-04-27T10:06:13Z</time>
      </trkpt>
      <trkpt lat="44.98146" lon="3.75961">
        <ele>1053</ele>
        <time>2018-04-27T10:06:22Z</time>
      </trkpt>
      <trkpt lat="44.98187" lon="3.75852">
        <ele>1053</ele>
        <time>2018-04-27T10:07:40Z</time>
      </trkpt>
      <trkpt lat="44.9819" lon="3.75847">
        <ele>1053</ele>
        <time>2018-04-27T10:07:44Z</time>
      </trkpt>
      <trkpt lat="44.98317" lon="3.75417">
        <ele>1063</ele>
        <time>2018-04-27T10:13:24Z</time>
      </trkpt>
      <trkpt lat="44.98319" lon="3.75406">
        <ele>1063</ele>
        <time>2018-04-27T10:13:37Z</time>
      </trkpt>
      <trkpt lat="44.98333" lon="3.75363">
        <ele>1067</ele>
        <time>2018-04-27T10:14:10Z</time>
      </trkpt>
      <trkpt lat="44.98352" lon="3.75324">
        <ele>1069</ele>
        <time>2018-04-27T10:14:45Z</time>
      </trkpt>
      <trkpt lat="44.98354" lon="3.75318">
        <ele>1069</ele>
        <time>2018-04-27T10:14:50Z</time>
      </trkpt>
      <trkpt lat="44.98378" lon="3.75286">
        <ele>1068</ele>
        <time>2018-04-27T10:15:19Z</time>
      </trkpt>
      <trkpt lat="44.98382" lon="3.75282">
        <ele>1068</ele>
        <time>2018-04-27T10:15:24Z</time>
      </trkpt>
      <trkpt lat="44.9839" lon="3.75271">
        <ele>1069</ele>
        <time>2018-04-27T10:15:34Z</time>
      </trkpt>
      <trkpt lat="44.984" lon="3.75248">
        <ele>1068</ele>
        <time>2018-04-27T10:15:50Z</time>
      </trkpt>
      <trkpt lat="44.98404" lon="3.75243">
        <ele>1068</ele>
        <time>2018-04-27T10:15:54Z</time>
      </trkpt>
      <trkpt lat="44.98416" lon="3.7522">
        <ele>1069</ele>
        <time>2018-04-27T10:16:13Z</time>
      </trkpt>
      <trkpt lat="44.98437" lon="3.75171">
        <ele>1070</ele>
        <time>2018-04-27T10:16:48Z</time>
      </trkpt>
      <trkpt lat="44.98439" lon="3.75162">
        <ele>1070</ele>
        <time>2018-04-27T10:17:02Z</time>
      </trkpt>
      <trkpt lat="44.98531" lon="3.74955">
        <ele>1077</ele>
        <time>2018-04-27T10:19:50Z</time>
      </trkpt>
      <trkpt lat="44.98536" lon="3.74949">
        <ele>1077</ele>
        <time>2018-04-27T10:20:04Z</time>
      </trkpt>
      <trkpt lat="44.98546" lon="3.7493">
        <ele>1078</ele>
        <time>2018-04-27T10:20:56Z</time>
      </trkpt>
      <trkpt lat="44.98546" lon="3.74923">
        <ele>1078</ele>
        <time>2018-04-27T10:21:01Z</time>
      </trkpt>
      <trkpt lat="44.9856" lon="3.74864">
        <ele>1078</ele>
        <time>2018-04-27T10:21:40Z</time>
      </trkpt>
      <trkpt lat="44.98564" lon="3.74862">
        <ele>1079</ele>
        <time>2018-04-27T10:21:51Z</time>
      </trkpt>
      <trkpt lat="44.98564" lon="3.74865">
        <ele>1077</ele>
        <time>2018-04-27T10:46:08Z</time>
      </trkpt>
      <trkpt lat="44.98568" lon="3.74869">
        <ele>1077</ele>
        <time>2018-04-27T10:48:10Z</time>
      </trkpt>
      <trkpt lat="44.98574" lon="3.74873">
        <ele>1076</ele>
        <time>2018-04-27T10:48:22Z</time>
      </trkpt>
      <trkpt lat="44.98577" lon="3.7488">
        <ele>1075</ele>
        <time>2018-04-27T10:48:34Z</time>
      </trkpt>
      <trkpt lat="44.98575" lon="3.74871">
        <ele>1075</ele>
        <time>2018-04-27T10:49:53Z</time>
      </trkpt>
      <trkpt lat="44.98568" lon="3.74872">
        <ele>1077</ele>
        <time>2018-04-27T10:50:07Z</time>
      </trkpt>
      <trkpt lat="44.98569" lon="3.74865">
        <ele>1077</ele>
        <time>2018-04-27T10:52:01Z</time>
      </trkpt>
      <trkpt lat="44.98575" lon="3.74871">
        <ele>1073</ele>
        <time>2018-04-27T11:01:45Z</time>
      </trkpt>
      <trkpt lat="44.98576" lon="3.74878">
        <ele>1072</ele>
        <time>2018-04-27T11:04:07Z</time>
      </trkpt>
      <trkpt lat="44.98566" lon="3.74867">
        <ele>1075</ele>
        <time>2018-04-27T11:17:18Z</time>
      </trkpt>
      <trkpt lat="44.98561" lon="3.74863">
        <ele>1076</ele>
        <time>2018-04-27T11:17:42Z</time>
      </trkpt>
      <trkpt lat="44.98561" lon="3.74852">
        <ele>1076</ele>
        <time>2018-04-27T11:18:31Z</time>
      </trkpt>
      <trkpt lat="44.98571" lon="3.74814">
        <ele>1077</ele>
        <time>2018-04-27T11:18:56Z</time>
      </trkpt>
      <trkpt lat="44.98572" lon="3.74807">
        <ele>1077</ele>
        <time>2018-04-27T11:19:01Z</time>
      </trkpt>
      <trkpt lat="44.98572" lon="3.74798">
        <ele>1078</ele>
        <time>2018-04-27T11:19:08Z</time>
      </trkpt>
      <trkpt lat="44.98574" lon="3.74792">
        <ele>1078</ele>
        <time>2018-04-27T11:19:13Z</time>
      </trkpt>
      <trkpt lat="44.98584" lon="3.74769">
        <ele>1078</ele>
        <time>2018-04-27T11:19:29Z</time>
      </trkpt>
      <trkpt lat="44.98585" lon="3.74763">
        <ele>1079</ele>
        <time>2018-04-27T11:19:33Z</time>
      </trkpt>
      <trkpt lat="44.98588" lon="3.74756">
        <ele>1079</ele>
        <time>2018-04-27T11:19:38Z</time>
      </trkpt>
      <trkpt lat="44.9859" lon="3.7475">
        <ele>1080</ele>
        <time>2018-04-27T11:19:42Z</time>
      </trkpt>
      <trkpt lat="44.98593" lon="3.74742">
        <ele>1081</ele>
        <time>2018-04-27T11:20:04Z</time>
      </trkpt>
      <trkpt lat="44.98599" lon="3.74732">
        <ele>1081</ele>
        <time>2018-04-27T11:20:45Z</time>
      </trkpt>
      <trkpt lat="44.98609" lon="3.74709">
        <ele>1082</ele>
        <time>2018-04-27T11:21:13Z</time>
      </trkpt>
      <trkpt lat="44.98686" lon="3.7462">
        <ele>1086</ele>
        <time>2018-04-27T11:22:45Z</time>
      </trkpt>
      <trkpt lat="44.98696" lon="3.74613">
        <ele>1087</ele>
        <time>2018-04-27T11:22:53Z</time>
      </trkpt>
      <trkpt lat="44.98722" lon="3.74605">
        <ele>1086</ele>
        <time>2018-04-27T11:23:15Z</time>
      </trkpt>
      <trkpt lat="44.98736" lon="3.74603">
        <ele>1085</ele>
        <time>2018-04-27T11:23:29Z</time>
      </trkpt>
      <trkpt lat="44.98742" lon="3.746">
        <ele>1086</ele>
        <time>2018-04-27T11:23:34Z</time>
      </trkpt>
      <trkpt lat="44.98751" lon="3.74594">
        <ele>1085</ele>
        <time>2018-04-27T11:23:42Z</time>
      </trkpt>
      <trkpt lat="44.98758" lon="3.74594">
        <ele>1085</ele>
        <time>2018-04-27T11:23:59Z</time>
      </trkpt>
      <trkpt lat="44.98779" lon="3.74608">
        <ele>1083</ele>
        <time>2018-04-27T11:24:24Z</time>
      </trkpt>
      <trkpt lat="44.98809" lon="3.7462">
        <ele>1083</ele>
        <time>2018-04-27T11:24:50Z</time>
      </trkpt>
      <trkpt lat="44.98852" lon="3.74657">
        <ele>1084</ele>
        <time>2018-04-27T11:25:32Z</time>
      </trkpt>
      <trkpt lat="44.98856" lon="3.74661">
        <ele>1085</ele>
        <time>2018-04-27T11:25:37Z</time>
      </trkpt>
      <trkpt lat="44.98861" lon="3.74663">
        <ele>1085</ele>
        <time>2018-04-27T11:25:42Z</time>
      </trkpt>
      <trkpt lat="44.98866" lon="3.74662">
        <ele>1086</ele>
        <time>2018-04-27T11:25:47Z</time>
      </trkpt>
      <trkpt lat="44.9887" lon="3.74658">
        <ele>1086</ele>
        <time>2018-04-27T11:25:52Z</time>
      </trkpt>
      <trkpt lat="44.98873" lon="3.7465">
        <ele>1087</ele>
        <time>2018-04-27T11:26:11Z</time>
      </trkpt>
      <trkpt lat="44.98877" lon="3.74628">
        <ele>1088</ele>
        <time>2018-04-27T11:26:24Z</time>
      </trkpt>
      <trkpt lat="44.98881" lon="3.74619">
        <ele>1089</ele>
        <time>2018-04-27T11:26:32Z</time>
      </trkpt>
      <trkpt lat="44.98889" lon="3.7461">
        <ele>1091</ele>
        <time>2018-04-27T11:26:41Z</time>
      </trkpt>
      <trkpt lat="44.98899" lon="3.74596">
        <ele>1091</ele>
        <time>2018-04-27T11:26:55Z</time>
      </trkpt>
      <trkpt lat="44.98901" lon="3.74589">
        <ele>1092</ele>
        <time>2018-04-27T11:27:00Z</time>
      </trkpt>
      <trkpt lat="44.98908" lon="3.74576">
        <ele>1093</ele>
        <time>2018-04-27T11:27:12Z</time>
      </trkpt>
      <trkpt lat="44.98913" lon="3.74575">
        <ele>1093</ele>
        <time>2018-04-27T11:27:16Z</time>
      </trkpt>
      <trkpt lat="44.98918" lon="3.74572">
        <ele>1093</ele>
        <time>2018-04-27T11:27:21Z</time>
      </trkpt>
      <trkpt lat="44.9893" lon="3.74552">
        <ele>1095</ele>
        <time>2018-04-27T11:27:49Z</time>
      </trkpt>
      <trkpt lat="44.98939" lon="3.74543">
        <ele>1095</ele>
        <time>2018-04-27T11:27:57Z</time>
      </trkpt>
      <trkpt lat="44.98959" lon="3.74512">
        <ele>1098</ele>
        <time>2018-04-27T11:28:23Z</time>
      </trkpt>
      <trkpt lat="44.98979" lon="3.74429">
        <ele>1101</ele>
        <time>2018-04-27T11:29:20Z</time>
      </trkpt>
      <trkpt lat="44.98984" lon="3.74417">
        <ele>1102</ele>
        <time>2018-04-27T11:29:29Z</time>
      </trkpt>
      <trkpt lat="44.98995" lon="3.74404">
        <ele>1103</ele>
        <time>2018-04-27T11:29:41Z</time>
      </trkpt>
      <trkpt lat="44.99022" lon="3.74389">
        <ele>1103</ele>
        <time>2018-04-27T11:30:06Z</time>
      </trkpt>
      <trkpt lat="44.99027" lon="3.74384">
        <ele>1104</ele>
        <time>2018-04-27T11:30:11Z</time>
      </trkpt>
      <trkpt lat="44.99032" lon="3.74367">
        <ele>1105</ele>
        <time>2018-04-27T11:30:38Z</time>
      </trkpt>
      <trkpt lat="44.99035" lon="3.74362">
        <ele>1105</ele>
        <time>2018-04-27T11:30:42Z</time>
      </trkpt>
      <trkpt lat="44.99039" lon="3.74357">
        <ele>1105</ele>
        <time>2018-04-27T11:30:46Z</time>
      </trkpt>
      <trkpt lat="44.9905" lon="3.74342">
        <ele>1105</ele>
        <time>2018-04-27T11:30:59Z</time>
      </trkpt>
      <trkpt lat="44.99055" lon="3.74331">
        <ele>1106</ele>
        <time>2018-04-27T11:31:08Z</time>
      </trkpt>
      <trkpt lat="44.99087" lon="3.74275">
        <ele>1108</ele>
        <time>2018-04-27T11:31:55Z</time>
      </trkpt>
      <trkpt lat="44.99084" lon="3.74268">
        <ele>1108</ele>
        <time>2018-04-27T11:32:15Z</time>
      </trkpt>
      <trkpt lat="44.99079" lon="3.74266">
        <ele>1109</ele>
        <time>2018-04-27T11:32:20Z</time>
      </trkpt>
      <trkpt lat="44.99075" lon="3.74262">
        <ele>1109</ele>
        <time>2018-04-27T11:32:25Z</time>
      </trkpt>
      <trkpt lat="44.99069" lon="3.74259">
        <ele>1109</ele>
        <time>2018-04-27T11:32:30Z</time>
      </trkpt>
      <trkpt lat="44.99066" lon="3.74256">
        <ele>1109</ele>
        <time>2018-04-27T11:32:34Z</time>
      </trkpt>
      <trkpt lat="44.9906" lon="3.74255">
        <ele>1110</ele>
        <time>2018-04-27T11:32:39Z</time>
      </trkpt>
      <trkpt lat="44.9903" lon="3.74236">
        <ele>1112</ele>
        <time>2018-04-27T11:33:12Z</time>
      </trkpt>
      <trkpt lat="44.99025" lon="3.74231">
        <ele>1112</ele>
        <time>2018-04-27T11:33:17Z</time>
      </trkpt>
      <trkpt lat="44.99023" lon="3.74224">
        <ele>1113</ele>
        <time>2018-04-27T11:33:22Z</time>
      </trkpt>
      <trkpt lat="44.99017" lon="3.74222">
        <ele>1113</ele>
        <time>2018-04-27T11:33:29Z</time>
      </trkpt>
      <trkpt lat="44.99012" lon="3.74219">
        <ele>1113</ele>
        <time>2018-04-27T11:33:34Z</time>
      </trkpt>
      <trkpt lat="44.99002" lon="3.74208">
        <ele>1114</ele>
        <time>2018-04-27T11:33:48Z</time>
      </trkpt>
      <trkpt lat="44.98995" lon="3.74205">
        <ele>1115</ele>
        <time>2018-04-27T11:34:00Z</time>
      </trkpt>
      <trkpt lat="44.98986" lon="3.74198">
        <ele>1115</ele>
        <time>2018-04-27T11:34:09Z</time>
      </trkpt>
      <trkpt lat="44.98982" lon="3.74192">
        <ele>1115</ele>
        <time>2018-04-27T11:34:26Z</time>
      </trkpt>
      <trkpt lat="44.98981" lon="3.74185">
        <ele>1114</ele>
        <time>2018-04-27T11:34:30Z</time>
      </trkpt>
      <trkpt lat="44.98984" lon="3.74173">
        <ele>1116</ele>
        <time>2018-04-27T11:34:44Z</time>
      </trkpt>
      <trkpt lat="44.98985" lon="3.74167">
        <ele>1117</ele>
        <time>2018-04-27T11:34:49Z</time>
      </trkpt>
      <trkpt lat="44.98986" lon="3.74152">
        <ele>1118</ele>
        <time>2018-04-27T11:34:57Z</time>
      </trkpt>
      <trkpt lat="44.99016" lon="3.74116">
        <ele>1119</ele>
        <time>2018-04-27T11:35:34Z</time>
      </trkpt>
      <trkpt lat="44.99036" lon="3.74097">
        <ele>1118</ele>
        <time>2018-04-27T11:35:55Z</time>
      </trkpt>
      <trkpt lat="44.99062" lon="3.74065">
        <ele>1119</ele>
        <time>2018-04-27T11:36:26Z</time>
      </trkpt>
      <trkpt lat="44.99068" lon="3.74054">
        <ele>1120</ele>
        <time>2018-04-27T11:36:35Z</time>
      </trkpt>
      <trkpt lat="44.99071" lon="3.74043">
        <ele>1120</ele>
        <time>2018-04-27T11:36:57Z</time>
      </trkpt>
      <trkpt lat="44.99113" lon="3.73945">
        <ele>1125</ele>
        <time>2018-04-27T11:38:03Z</time>
      </trkpt>
      <trkpt lat="44.99145" lon="3.73894">
        <ele>1124</ele>
        <time>2018-04-27T11:38:43Z</time>
      </trkpt>
      <trkpt lat="44.99147" lon="3.73884">
        <ele>1124</ele>
        <time>2018-04-27T11:38:52Z</time>
      </trkpt>
      <trkpt lat="44.99177" lon="3.73817">
        <ele>1123</ele>
        <time>2018-04-27T11:39:40Z</time>
      </trkpt>
      <trkpt lat="44.99181" lon="3.73797">
        <ele>1123</ele>
        <time>2018-04-27T11:39:53Z</time>
      </trkpt>
      <trkpt lat="44.99196" lon="3.73762">
        <ele>1122</ele>
        <time>2018-04-27T11:40:18Z</time>
      </trkpt>
      <trkpt lat="44.99198" lon="3.73756">
        <ele>1122</ele>
        <time>2018-04-27T11:40:22Z</time>
      </trkpt>
      <trkpt lat="44.99198" lon="3.73742">
        <ele>1122</ele>
        <time>2018-04-27T11:40:30Z</time>
      </trkpt>
      <trkpt lat="44.99197" lon="3.73728">
        <ele>1122</ele>
        <time>2018-04-27T11:40:38Z</time>
      </trkpt>
      <trkpt lat="44.99208" lon="3.73675">
        <ele>1122</ele>
        <time>2018-04-27T11:41:11Z</time>
      </trkpt>
      <trkpt lat="44.99218" lon="3.73643">
        <ele>1122</ele>
        <time>2018-04-27T11:41:32Z</time>
      </trkpt>
      <trkpt lat="44.99226" lon="3.73625">
        <ele>1122</ele>
        <time>2018-04-27T11:41:45Z</time>
      </trkpt>
      <trkpt lat="44.99229" lon="3.73619">
        <ele>1121</ele>
        <time>2018-04-27T11:41:50Z</time>
      </trkpt>
      <trkpt lat="44.99237" lon="3.736">
        <ele>1122</ele>
        <time>2018-04-27T11:42:04Z</time>
      </trkpt>
      <trkpt lat="44.99241" lon="3.73586">
        <ele>1123</ele>
        <time>2018-04-27T11:42:13Z</time>
      </trkpt>
      <trkpt lat="44.99256" lon="3.7355">
        <ele>1123</ele>
        <time>2018-04-27T11:42:39Z</time>
      </trkpt>
      <trkpt lat="44.99274" lon="3.73522">
        <ele>1122</ele>
        <time>2018-04-27T11:43:03Z</time>
      </trkpt>
      <trkpt lat="44.99309" lon="3.73436">
        <ele>1118</ele>
        <time>2018-04-27T11:44:07Z</time>
      </trkpt>
      <trkpt lat="44.99316" lon="3.73427">
        <ele>1118</ele>
        <time>2018-04-27T11:44:15Z</time>
      </trkpt>
      <trkpt lat="44.9932" lon="3.73424">
        <ele>1118</ele>
        <time>2018-04-27T11:44:19Z</time>
      </trkpt>
      <trkpt lat="44.99333" lon="3.73411">
        <ele>1116</ele>
        <time>2018-04-27T11:44:35Z</time>
      </trkpt>
      <trkpt lat="44.99344" lon="3.73397">
        <ele>1116</ele>
        <time>2018-04-27T11:44:48Z</time>
      </trkpt>
      <trkpt lat="44.99349" lon="3.73385">
        <ele>1116</ele>
        <time>2018-04-27T11:44:56Z</time>
      </trkpt>
      <trkpt lat="44.9936" lon="3.7337">
        <ele>1115</ele>
        <time>2018-04-27T11:45:10Z</time>
      </trkpt>
      <trkpt lat="44.99363" lon="3.73357">
        <ele>1115</ele>
        <time>2018-04-27T11:45:19Z</time>
      </trkpt>
      <trkpt lat="44.99362" lon="3.7335">
        <ele>1115</ele>
        <time>2018-04-27T11:45:24Z</time>
      </trkpt>
      <trkpt lat="44.9934" lon="3.73303">
        <ele>1116</ele>
        <time>2018-04-27T11:45:59Z</time>
      </trkpt>
      <trkpt lat="44.99324" lon="3.73245">
        <ele>1116</ele>
        <time>2018-04-27T11:46:37Z</time>
      </trkpt>
      <trkpt lat="44.99322" lon="3.73233">
        <ele>1117</ele>
        <time>2018-04-27T11:47:02Z</time>
      </trkpt>
      <trkpt lat="44.99323" lon="3.73226">
        <ele>1117</ele>
        <time>2018-04-27T11:47:07Z</time>
      </trkpt>
      <trkpt lat="44.99329" lon="3.73222">
        <ele>1117</ele>
        <time>2018-04-27T11:47:12Z</time>
      </trkpt>
      <trkpt lat="44.99343" lon="3.73219">
        <ele>1118</ele>
        <time>2018-04-27T11:47:25Z</time>
      </trkpt>
      <trkpt lat="44.99347" lon="3.73216">
        <ele>1118</ele>
        <time>2018-04-27T11:47:29Z</time>
      </trkpt>
      <trkpt lat="44.99351" lon="3.73215">
        <ele>1117</ele>
        <time>2018-04-27T11:47:33Z</time>
      </trkpt>
      <trkpt lat="44.99357" lon="3.73213">
        <ele>1117</ele>
        <time>2018-04-27T11:47:38Z</time>
      </trkpt>
      <trkpt lat="44.99372" lon="3.73209">
        <ele>1118</ele>
        <time>2018-04-27T11:47:55Z</time>
      </trkpt>
      <trkpt lat="44.99377" lon="3.73206">
        <ele>1119</ele>
        <time>2018-04-27T11:48:00Z</time>
      </trkpt>
      <trkpt lat="44.99383" lon="3.73205">
        <ele>1120</ele>
        <time>2018-04-27T11:48:05Z</time>
      </trkpt>
      <trkpt lat="44.99388" lon="3.73202">
        <ele>1120</ele>
        <time>2018-04-27T11:48:10Z</time>
      </trkpt>
      <trkpt lat="44.99406" lon="3.73188">
        <ele>1121</ele>
        <time>2018-04-27T11:48:29Z</time>
      </trkpt>
      <trkpt lat="44.99445" lon="3.73121">
        <ele>1127</ele>
        <time>2018-04-27T11:50:34Z</time>
      </trkpt>
      <trkpt lat="44.99448" lon="3.73115">
        <ele>1127</ele>
        <time>2018-04-27T11:50:39Z</time>
      </trkpt>
      <trkpt lat="44.99459" lon="3.73099">
        <ele>1128</ele>
        <time>2018-04-27T11:50:53Z</time>
      </trkpt>
      <trkpt lat="44.99465" lon="3.73094">
        <ele>1129</ele>
        <time>2018-04-27T11:51:01Z</time>
      </trkpt>
      <trkpt lat="44.99473" lon="3.73085">
        <ele>1131</ele>
        <time>2018-04-27T11:51:13Z</time>
      </trkpt>
      <trkpt lat="44.99476" lon="3.73074">
        <ele>1130</ele>
        <time>2018-04-27T11:51:28Z</time>
      </trkpt>
      <trkpt lat="44.99481" lon="3.73063">
        <ele>1130</ele>
        <time>2018-04-27T11:51:35Z</time>
      </trkpt>
      <trkpt lat="44.99489" lon="3.73055">
        <ele>1131</ele>
        <time>2018-04-27T11:51:43Z</time>
      </trkpt>
      <trkpt lat="44.99511" lon="3.73018">
        <ele>1133</ele>
        <time>2018-04-27T11:52:15Z</time>
      </trkpt>
      <trkpt lat="44.99554" lon="3.72927">
        <ele>1140</ele>
        <time>2018-04-27T11:53:57Z</time>
      </trkpt>
      <trkpt lat="44.99561" lon="3.72923">
        <ele>1141</ele>
        <time>2018-04-27T11:54:22Z</time>
      </trkpt>
      <trkpt lat="44.99569" lon="3.72923">
        <ele>1141</ele>
        <time>2018-04-27T11:54:40Z</time>
      </trkpt>
      <trkpt lat="44.99573" lon="3.72919">
        <ele>1142</ele>
        <time>2018-04-27T11:54:46Z</time>
      </trkpt>
      <trkpt lat="44.99596" lon="3.72907">
        <ele>1144</ele>
        <time>2018-04-27T11:55:13Z</time>
      </trkpt>
      <trkpt lat="44.99621" lon="3.72885">
        <ele>1147</ele>
        <time>2018-04-27T11:55:47Z</time>
      </trkpt>
      <trkpt lat="44.99628" lon="3.72874">
        <ele>1149</ele>
        <time>2018-04-27T11:55:57Z</time>
      </trkpt>
      <trkpt lat="44.99634" lon="3.72868">
        <ele>1150</ele>
        <time>2018-04-27T11:56:06Z</time>
      </trkpt>
      <trkpt lat="44.99639" lon="3.72865">
        <ele>1150</ele>
        <time>2018-04-27T11:56:12Z</time>
      </trkpt>
      <trkpt lat="44.99643" lon="3.72855">
        <ele>1152</ele>
        <time>2018-04-27T11:56:36Z</time>
      </trkpt>
      <trkpt lat="44.99649" lon="3.72836">
        <ele>1152</ele>
        <time>2018-04-27T11:56:53Z</time>
      </trkpt>
      <trkpt lat="44.99656" lon="3.72817">
        <ele>1154</ele>
        <time>2018-04-27T11:57:07Z</time>
      </trkpt>
      <trkpt lat="44.99666" lon="3.728">
        <ele>1155</ele>
        <time>2018-04-27T11:57:25Z</time>
      </trkpt>
      <trkpt lat="44.99669" lon="3.72794">
        <ele>1155</ele>
        <time>2018-04-27T11:57:29Z</time>
      </trkpt>
      <trkpt lat="44.99673" lon="3.7279">
        <ele>1156</ele>
        <time>2018-04-27T11:57:34Z</time>
      </trkpt>
      <trkpt lat="44.99684" lon="3.72762">
        <ele>1158</ele>
        <time>2018-04-27T11:58:09Z</time>
      </trkpt>
      <trkpt lat="44.99686" lon="3.72755">
        <ele>1159</ele>
        <time>2018-04-27T11:58:14Z</time>
      </trkpt>
      <trkpt lat="44.99687" lon="3.72731">
        <ele>1160</ele>
        <time>2018-04-27T11:58:31Z</time>
      </trkpt>
      <trkpt lat="44.99679" lon="3.72693">
        <ele>1163</ele>
        <time>2018-04-27T11:59:13Z</time>
      </trkpt>
      <trkpt lat="44.99679" lon="3.72664">
        <ele>1163</ele>
        <time>2018-04-27T11:59:33Z</time>
      </trkpt>
      <trkpt lat="44.99676" lon="3.72653">
        <ele>1165</ele>
        <time>2018-04-27T11:59:41Z</time>
      </trkpt>
      <trkpt lat="44.99667" lon="3.72634">
        <ele>1165</ele>
        <time>2018-04-27T11:59:55Z</time>
      </trkpt>
      <trkpt lat="44.99662" lon="3.72614">
        <ele>1166</ele>
        <time>2018-04-27T12:00:09Z</time>
      </trkpt>
      <trkpt lat="44.99661" lon="3.72605">
        <ele>1166</ele>
        <time>2018-04-27T12:00:16Z</time>
      </trkpt>
      <trkpt lat="44.99663" lon="3.72597">
        <ele>1166</ele>
        <time>2018-04-27T12:00:31Z</time>
      </trkpt>
      <trkpt lat="44.99664" lon="3.72582">
        <ele>1167</ele>
        <time>2018-04-27T12:01:03Z</time>
      </trkpt>
      <trkpt lat="44.99669" lon="3.7257">
        <ele>1169</ele>
        <time>2018-04-27T12:01:14Z</time>
      </trkpt>
      <trkpt lat="44.99674" lon="3.72568">
        <ele>1169</ele>
        <time>2018-04-27T12:01:22Z</time>
      </trkpt>
      <trkpt lat="44.99678" lon="3.72564">
        <ele>1170</ele>
        <time>2018-04-27T12:01:28Z</time>
      </trkpt>
      <trkpt lat="44.99681" lon="3.72559">
        <ele>1170</ele>
        <time>2018-04-27T12:01:33Z</time>
      </trkpt>
      <trkpt lat="44.99694" lon="3.72547">
        <ele>1173</ele>
        <time>2018-04-27T12:01:50Z</time>
      </trkpt>
      <trkpt lat="44.99698" lon="3.72541">
        <ele>1175</ele>
        <time>2018-04-27T12:02:04Z</time>
      </trkpt>
      <trkpt lat="44.99702" lon="3.72539">
        <ele>1175</ele>
        <time>2018-04-27T12:02:10Z</time>
      </trkpt>
      <trkpt lat="44.9971" lon="3.7253">
        <ele>1177</ele>
        <time>2018-04-27T12:02:22Z</time>
      </trkpt>
      <trkpt lat="44.99716" lon="3.72522">
        <ele>1179</ele>
        <time>2018-04-27T12:02:32Z</time>
      </trkpt>
      <trkpt lat="44.99726" lon="3.72499">
        <ele>1182</ele>
        <time>2018-04-27T12:02:58Z</time>
      </trkpt>
      <trkpt lat="44.99731" lon="3.72466">
        <ele>1185</ele>
        <time>2018-04-27T12:04:01Z</time>
      </trkpt>
      <trkpt lat="44.99731" lon="3.72453">
        <ele>1186</ele>
        <time>2018-04-27T12:04:11Z</time>
      </trkpt>
      <trkpt lat="44.99725" lon="3.72416">
        <ele>1188</ele>
        <time>2018-04-27T12:04:40Z</time>
      </trkpt>
      <trkpt lat="44.99722" lon="3.72408">
        <ele>1188</ele>
        <time>2018-04-27T12:04:47Z</time>
      </trkpt>
      <trkpt lat="44.99721" lon="3.72401">
        <ele>1189</ele>
        <time>2018-04-27T12:04:52Z</time>
      </trkpt>
      <trkpt lat="44.99718" lon="3.72372">
        <ele>1192</ele>
        <time>2018-04-27T12:05:12Z</time>
      </trkpt>
      <trkpt lat="44.99715" lon="3.72365">
        <ele>1192</ele>
        <time>2018-04-27T12:05:20Z</time>
      </trkpt>
      <trkpt lat="44.99716" lon="3.72315">
        <ele>1198</ele>
        <time>2018-04-27T12:06:20Z</time>
      </trkpt>
      <trkpt lat="44.99711" lon="3.72281">
        <ele>1201</ele>
        <time>2018-04-27T12:06:47Z</time>
      </trkpt>
      <trkpt lat="44.99709" lon="3.72274">
        <ele>1201</ele>
        <time>2018-04-27T12:06:52Z</time>
      </trkpt>
      <trkpt lat="44.99708" lon="3.72261">
        <ele>1202</ele>
        <time>2018-04-27T12:07:01Z</time>
      </trkpt>
      <trkpt lat="44.99711" lon="3.72256">
        <ele>1202</ele>
        <time>2018-04-27T12:07:06Z</time>
      </trkpt>
      <trkpt lat="44.99724" lon="3.72247">
        <ele>1202</ele>
        <time>2018-04-27T12:07:19Z</time>
      </trkpt>
      <trkpt lat="44.99726" lon="3.7224">
        <ele>1202</ele>
        <time>2018-04-27T12:07:24Z</time>
      </trkpt>
      <trkpt lat="44.99732" lon="3.72228">
        <ele>1202</ele>
        <time>2018-04-27T12:07:33Z</time>
      </trkpt>
      <trkpt lat="44.99736" lon="3.72224">
        <ele>1202</ele>
        <time>2018-04-27T12:07:37Z</time>
      </trkpt>
      <trkpt lat="44.99739" lon="3.72218">
        <ele>1201</ele>
        <time>2018-04-27T12:07:41Z</time>
      </trkpt>
      <trkpt lat="44.99744" lon="3.72217">
        <ele>1201</ele>
        <time>2018-04-27T12:07:45Z</time>
      </trkpt>
      <trkpt lat="44.99762" lon="3.72224">
        <ele>1200</ele>
        <time>2018-04-27T12:08:01Z</time>
      </trkpt>
      <trkpt lat="44.99766" lon="3.72221">
        <ele>1201</ele>
        <time>2018-04-27T12:08:06Z</time>
      </trkpt>
      <trkpt lat="44.99778" lon="3.72126">
        <ele>1201</ele>
        <time>2018-04-27T12:09:08Z</time>
      </trkpt>
      <trkpt lat="44.99788" lon="3.72093">
        <ele>1201</ele>
        <time>2018-04-27T12:09:29Z</time>
      </trkpt>
      <trkpt lat="44.99792" lon="3.72088">
        <ele>1201</ele>
        <time>2018-04-27T12:09:33Z</time>
      </trkpt>
      <trkpt lat="44.99796" lon="3.72076">
        <ele>1201</ele>
        <time>2018-04-27T12:09:42Z</time>
      </trkpt>
      <trkpt lat="44.99799" lon="3.72071">
        <ele>1201</ele>
        <time>2018-04-27T12:09:49Z</time>
      </trkpt>
      <trkpt lat="44.99804" lon="3.72059">
        <ele>1201</ele>
        <time>2018-04-27T12:09:58Z</time>
      </trkpt>
      <trkpt lat="44.99824" lon="3.72028">
        <ele>1201</ele>
        <time>2018-04-27T12:10:24Z</time>
      </trkpt>
      <trkpt lat="44.99839" lon="3.7199">
        <ele>1201</ele>
        <time>2018-04-27T12:10:49Z</time>
      </trkpt>
      <trkpt lat="44.9984" lon="3.71983">
        <ele>1201</ele>
        <time>2018-04-27T12:10:53Z</time>
      </trkpt>
      <trkpt lat="44.9984" lon="3.71976">
        <ele>1201</ele>
        <time>2018-04-27T12:10:58Z</time>
      </trkpt>
      <trkpt lat="44.99837" lon="3.7197">
        <ele>1201</ele>
        <time>2018-04-27T12:11:02Z</time>
      </trkpt>
      <trkpt lat="44.9983" lon="3.7196">
        <ele>1201</ele>
        <time>2018-04-27T12:11:10Z</time>
      </trkpt>
      <trkpt lat="44.99825" lon="3.71956">
        <ele>1201</ele>
        <time>2018-04-27T12:11:15Z</time>
      </trkpt>
      <trkpt lat="44.99819" lon="3.71945">
        <ele>1201</ele>
        <time>2018-04-27T12:11:25Z</time>
      </trkpt>
      <trkpt lat="44.9981" lon="3.71939">
        <ele>1201</ele>
        <time>2018-04-27T12:11:33Z</time>
      </trkpt>
      <trkpt lat="44.99793" lon="3.71922">
        <ele>1201</ele>
        <time>2018-04-27T12:11:53Z</time>
      </trkpt>
      <trkpt lat="44.99752" lon="3.71818">
        <ele>1201</ele>
        <time>2018-04-27T12:13:06Z</time>
      </trkpt>
      <trkpt lat="44.9975" lon="3.71804">
        <ele>1201</ele>
        <time>2018-04-27T12:13:14Z</time>
      </trkpt>
      <trkpt lat="44.99745" lon="3.71777">
        <ele>1201</ele>
        <time>2018-04-27T12:13:31Z</time>
      </trkpt>
      <trkpt lat="44.99744" lon="3.71763">
        <ele>1201</ele>
        <time>2018-04-27T12:13:39Z</time>
      </trkpt>
      <trkpt lat="44.9974" lon="3.71739">
        <ele>1200</ele>
        <time>2018-04-27T12:13:52Z</time>
      </trkpt>
      <trkpt lat="44.9974" lon="3.71731">
        <ele>1200</ele>
        <time>2018-04-27T12:13:56Z</time>
      </trkpt>
      <trkpt lat="44.99739" lon="3.71724">
        <ele>1201</ele>
        <time>2018-04-27T12:14:00Z</time>
      </trkpt>
      <trkpt lat="44.99736" lon="3.71711">
        <ele>1200</ele>
        <time>2018-04-27T12:14:10Z</time>
      </trkpt>
      <trkpt lat="44.99733" lon="3.71705">
        <ele>1200</ele>
        <time>2018-04-27T12:14:14Z</time>
      </trkpt>
      <trkpt lat="44.99731" lon="3.71698">
        <ele>1200</ele>
        <time>2018-04-27T12:14:18Z</time>
      </trkpt>
      <trkpt lat="44.99729" lon="3.71682">
        <ele>1200</ele>
        <time>2018-04-27T12:14:29Z</time>
      </trkpt>
      <trkpt lat="44.99724" lon="3.71675">
        <ele>1200</ele>
        <time>2018-04-27T12:14:40Z</time>
      </trkpt>
      <trkpt lat="44.99717" lon="3.71673">
        <ele>1200</ele>
        <time>2018-04-27T12:14:52Z</time>
      </trkpt>
      <trkpt lat="44.99712" lon="3.7167">
        <ele>1200</ele>
        <time>2018-04-27T12:15:00Z</time>
      </trkpt>
      <trkpt lat="44.9968" lon="3.71665">
        <ele>1200</ele>
        <time>2018-04-27T12:15:28Z</time>
      </trkpt>
      <trkpt lat="44.99671" lon="3.7166">
        <ele>1200</ele>
        <time>2018-04-27T12:15:36Z</time>
      </trkpt>
      <trkpt lat="44.99661" lon="3.71656">
        <ele>1200</ele>
        <time>2018-04-27T12:15:44Z</time>
      </trkpt>
      <trkpt lat="44.99653" lon="3.7165">
        <ele>1199</ele>
        <time>2018-04-27T12:15:52Z</time>
      </trkpt>
      <trkpt lat="44.99643" lon="3.71645">
        <ele>1199</ele>
        <time>2018-04-27T12:16:02Z</time>
      </trkpt>
      <trkpt lat="44.99622" lon="3.71644">
        <ele>1199</ele>
        <time>2018-04-27T12:16:20Z</time>
      </trkpt>
      <trkpt lat="44.99592" lon="3.71634">
        <ele>1198</ele>
        <time>2018-04-27T12:16:48Z</time>
      </trkpt>
      <trkpt lat="44.99587" lon="3.7163">
        <ele>1198</ele>
        <time>2018-04-27T12:16:53Z</time>
      </trkpt>
      <trkpt lat="44.99573" lon="3.71607">
        <ele>1195</ele>
        <time>2018-04-27T12:17:15Z</time>
      </trkpt>
      <trkpt lat="44.99568" lon="3.71588">
        <ele>1194</ele>
        <time>2018-04-27T12:17:28Z</time>
      </trkpt>
      <trkpt lat="44.99544" lon="3.71539">
        <ele>1192</ele>
        <time>2018-04-27T12:18:02Z</time>
      </trkpt>
      <trkpt lat="44.99524" lon="3.71484">
        <ele>1191</ele>
        <time>2018-04-27T12:18:44Z</time>
      </trkpt>
      <trkpt lat="44.9952" lon="3.71476">
        <ele>1191</ele>
        <time>2018-04-27T12:18:52Z</time>
      </trkpt>
      <trkpt lat="44.99515" lon="3.71457">
        <ele>1190</ele>
        <time>2018-04-27T12:19:06Z</time>
      </trkpt>
      <trkpt lat="44.9951" lon="3.71445">
        <ele>1190</ele>
        <time>2018-04-27T12:19:15Z</time>
      </trkpt>
      <trkpt lat="44.99508" lon="3.71427">
        <ele>1188</ele>
        <time>2018-04-27T12:19:27Z</time>
      </trkpt>
      <trkpt lat="44.99507" lon="3.71417">
        <ele>1187</ele>
        <time>2018-04-27T12:19:35Z</time>
      </trkpt>
      <trkpt lat="44.99486" lon="3.71345">
        <ele>1180</ele>
        <time>2018-04-27T12:20:30Z</time>
      </trkpt>
      <trkpt lat="44.99485" lon="3.71315">
        <ele>1178</ele>
        <time>2018-04-27T12:20:48Z</time>
      </trkpt>
      <trkpt lat="44.99464" lon="3.71222">
        <ele>1170</ele>
        <time>2018-04-27T12:22:08Z</time>
      </trkpt>
      <trkpt lat="44.99458" lon="3.71212">
        <ele>1168</ele>
        <time>2018-04-27T12:22:16Z</time>
      </trkpt>
      <trkpt lat="44.99456" lon="3.71206">
        <ele>1168</ele>
        <time>2018-04-27T12:22:20Z</time>
      </trkpt>
      <trkpt lat="44.99452" lon="3.712">
        <ele>1167</ele>
        <time>2018-04-27T12:22:24Z</time>
      </trkpt>
      <trkpt lat="44.9945" lon="3.71194">
        <ele>1167</ele>
        <time>2018-04-27T12:22:28Z</time>
      </trkpt>
      <trkpt lat="44.9943" lon="3.7112">
        <ele>1162</ele>
        <time>2018-04-27T12:23:15Z</time>
      </trkpt>
      <trkpt lat="44.99427" lon="3.71115">
        <ele>1162</ele>
        <time>2018-04-27T12:23:18Z</time>
      </trkpt>
      <trkpt lat="44.99422" lon="3.7111">
        <ele>1162</ele>
        <time>2018-04-27T12:23:23Z</time>
      </trkpt>
      <trkpt lat="44.9942" lon="3.71105">
        <ele>1161</ele>
        <time>2018-04-27T12:23:27Z</time>
      </trkpt>
      <trkpt lat="44.994" lon="3.71073">
        <ele>1159</ele>
        <time>2018-04-27T12:23:52Z</time>
      </trkpt>
      <trkpt lat="44.99393" lon="3.71056">
        <ele>1158</ele>
        <time>2018-04-27T12:24:04Z</time>
      </trkpt>
      <trkpt lat="44.99386" lon="3.71046">
        <ele>1158</ele>
        <time>2018-04-27T12:24:13Z</time>
      </trkpt>
      <trkpt lat="44.9938" lon="3.71038">
        <ele>1158</ele>
        <time>2018-04-27T12:24:31Z</time>
      </trkpt>
      <trkpt lat="44.99333" lon="3.70959">
        <ele>1155</ele>
        <time>2018-04-27T12:25:35Z</time>
      </trkpt>
      <trkpt lat="44.99305" lon="3.70898">
        <ele>1152</ele>
        <time>2018-04-27T12:26:34Z</time>
      </trkpt>
      <trkpt lat="44.99286" lon="3.70865">
        <ele>1152</ele>
        <time>2018-04-27T12:27:01Z</time>
      </trkpt>
      <trkpt lat="44.99268" lon="3.70842">
        <ele>1151</ele>
        <time>2018-04-27T12:27:22Z</time>
      </trkpt>
      <trkpt lat="44.99264" lon="3.70836">
        <ele>1151</ele>
        <time>2018-04-27T12:27:27Z</time>
      </trkpt>
      <trkpt lat="44.99211" lon="3.70765">
        <ele>1144</ele>
        <time>2018-04-27T12:28:31Z</time>
      </trkpt>
      <trkpt lat="44.99128" lon="3.70689">
        <ele>1136</ele>
        <time>2018-04-27T12:29:55Z</time>
      </trkpt>
      <trkpt lat="44.99103" lon="3.70656">
        <ele>1134</ele>
        <time>2018-04-27T12:30:27Z</time>
      </trkpt>
      <trkpt lat="44.99097" lon="3.70639">
        <ele>1133</ele>
        <time>2018-04-27T12:30:40Z</time>
      </trkpt>
      <trkpt lat="44.99098" lon="3.70632">
        <ele>1133</ele>
        <time>2018-04-27T12:31:00Z</time>
      </trkpt>
      <trkpt lat="44.99097" lon="3.70626">
        <ele>1132</ele>
        <time>2018-04-27T12:31:06Z</time>
      </trkpt>
      <trkpt lat="44.99088" lon="3.70605">
        <ele>1129</ele>
        <time>2018-04-27T12:31:47Z</time>
      </trkpt>
      <trkpt lat="44.99056" lon="3.70419">
        <ele>1111</ele>
        <time>2018-04-27T12:33:57Z</time>
      </trkpt>
      <trkpt lat="44.99043" lon="3.70381">
        <ele>1108</ele>
        <time>2018-04-27T12:34:26Z</time>
      </trkpt>
      <trkpt lat="44.99043" lon="3.70373">
        <ele>1107</ele>
        <time>2018-04-27T12:34:31Z</time>
      </trkpt>
      <trkpt lat="44.99039" lon="3.70361">
        <ele>1106</ele>
        <time>2018-04-27T12:34:40Z</time>
      </trkpt>
      <trkpt lat="44.99037" lon="3.70346">
        <ele>1106</ele>
        <time>2018-04-27T12:34:49Z</time>
      </trkpt>
      <trkpt lat="44.99038" lon="3.70332">
        <ele>1104</ele>
        <time>2018-04-27T12:34:58Z</time>
      </trkpt>
      <trkpt lat="44.99049" lon="3.70292">
        <ele>1102</ele>
        <time>2018-04-27T12:35:24Z</time>
      </trkpt>
      <trkpt lat="44.9905" lon="3.70277">
        <ele>1102</ele>
        <time>2018-04-27T12:35:33Z</time>
      </trkpt>
      <trkpt lat="44.9905" lon="3.70257">
        <ele>1100</ele>
        <time>2018-04-27T12:35:45Z</time>
      </trkpt>
      <trkpt lat="44.99049" lon="3.70249">
        <ele>1099</ele>
        <time>2018-04-27T12:35:50Z</time>
      </trkpt>
      <trkpt lat="44.99042" lon="3.7023">
        <ele>1098</ele>
        <time>2018-04-27T12:36:04Z</time>
      </trkpt>
      <trkpt lat="44.99028" lon="3.70209">
        <ele>1094</ele>
        <time>2018-04-27T12:36:21Z</time>
      </trkpt>
      <trkpt lat="44.98925" lon="3.69983">
        <ele>1082</ele>
        <time>2018-04-27T12:39:10Z</time>
      </trkpt>
      <trkpt lat="44.98902" lon="3.69949">
        <ele>1080</ele>
        <time>2018-04-27T12:39:39Z</time>
      </trkpt>
      <trkpt lat="44.98883" lon="3.69913">
        <ele>1076</ele>
        <time>2018-04-27T12:40:55Z</time>
      </trkpt>
      <trkpt lat="44.9888" lon="3.69907">
        <ele>1076</ele>
        <time>2018-04-27T12:41:03Z</time>
      </trkpt>
      <trkpt lat="44.98843" lon="3.69867">
        <ele>1070</ele>
        <time>2018-04-27T12:41:46Z</time>
      </trkpt>
      <trkpt lat="44.9879" lon="3.69819">
        <ele>1064</ele>
        <time>2018-04-27T12:42:51Z</time>
      </trkpt>
      <trkpt lat="44.98783" lon="3.69817">
        <ele>1064</ele>
        <time>2018-04-27T12:42:59Z</time>
      </trkpt>
      <trkpt lat="44.98778" lon="3.69812">
        <ele>1063</ele>
        <time>2018-04-27T12:43:07Z</time>
      </trkpt>
      <trkpt lat="44.98776" lon="3.69805">
        <ele>1062</ele>
        <time>2018-04-27T12:43:11Z</time>
      </trkpt>
      <trkpt lat="44.98777" lon="3.69791">
        <ele>1061</ele>
        <time>2018-04-27T12:43:19Z</time>
      </trkpt>
      <trkpt lat="44.98776" lon="3.69784">
        <ele>1060</ele>
        <time>2018-04-27T12:43:23Z</time>
      </trkpt>
      <trkpt lat="44.98782" lon="3.69647">
        <ele>1052</ele>
        <time>2018-04-27T12:44:50Z</time>
      </trkpt>
      <trkpt lat="44.98784" lon="3.6964">
        <ele>1052</ele>
        <time>2018-04-27T12:44:55Z</time>
      </trkpt>
      <trkpt lat="44.98786" lon="3.69547">
        <ele>1047</ele>
        <time>2018-04-27T12:45:56Z</time>
      </trkpt>
      <trkpt lat="44.98787" lon="3.69539">
        <ele>1048</ele>
        <time>2018-04-27T12:46:01Z</time>
      </trkpt>
      <trkpt lat="44.98785" lon="3.69524">
        <ele>1048</ele>
        <time>2018-04-27T12:46:20Z</time>
      </trkpt>
      <trkpt lat="44.98755" lon="3.69423">
        <ele>1042</ele>
        <time>2018-04-27T12:47:46Z</time>
      </trkpt>
      <trkpt lat="44.98747" lon="3.69354">
        <ele>1038</ele>
        <time>2018-04-27T12:48:29Z</time>
      </trkpt>
      <trkpt lat="44.98745" lon="3.69347">
        <ele>1038</ele>
        <time>2018-04-27T12:48:33Z</time>
      </trkpt>
      <trkpt lat="44.98741" lon="3.69336">
        <ele>1036</ele>
        <time>2018-04-27T12:48:41Z</time>
      </trkpt>
      <trkpt lat="44.98735" lon="3.69325">
        <ele>1036</ele>
        <time>2018-04-27T12:48:49Z</time>
      </trkpt>
      <trkpt lat="44.98731" lon="3.69311">
        <ele>1035</ele>
        <time>2018-04-27T12:48:58Z</time>
      </trkpt>
      <trkpt lat="44.9872" lon="3.69189">
        <ele>1030</ele>
        <time>2018-04-27T12:50:25Z</time>
      </trkpt>
      <trkpt lat="44.98723" lon="3.69164">
        <ele>1028</ele>
        <time>2018-04-27T12:50:41Z</time>
      </trkpt>
      <trkpt lat="44.98728" lon="3.69122">
        <ele>1029</ele>
        <time>2018-04-27T12:51:08Z</time>
      </trkpt>
      <trkpt lat="44.98733" lon="3.689">
        <ele>1021</ele>
        <time>2018-04-27T12:53:28Z</time>
      </trkpt>
      <trkpt lat="44.98733" lon="3.68893">
        <ele>1020</ele>
        <time>2018-04-27T12:53:32Z</time>
      </trkpt>
      <trkpt lat="44.98733" lon="3.68872">
        <ele>1020</ele>
        <time>2018-04-27T12:53:46Z</time>
      </trkpt>
      <trkpt lat="44.98731" lon="3.68862">
        <ele>1018</ele>
        <time>2018-04-27T12:54:42Z</time>
      </trkpt>
      <trkpt lat="44.98731" lon="3.68847">
        <ele>1017</ele>
        <time>2018-04-27T12:54:52Z</time>
      </trkpt>
      <trkpt lat="44.98732" lon="3.6884">
        <ele>1017</ele>
        <time>2018-04-27T12:54:57Z</time>
      </trkpt>
      <trkpt lat="44.98731" lon="3.68825">
        <ele>1016</ele>
        <time>2018-04-27T12:55:07Z</time>
      </trkpt>
      <trkpt lat="44.98724" lon="3.68789">
        <ele>1015</ele>
        <time>2018-04-27T12:55:31Z</time>
      </trkpt>
      <trkpt lat="44.98726" lon="3.68774">
        <ele>1014</ele>
        <time>2018-04-27T12:55:40Z</time>
      </trkpt>
      <trkpt lat="44.9874" lon="3.6873">
        <ele>1010</ele>
        <time>2018-04-27T12:56:15Z</time>
      </trkpt>
      <trkpt lat="44.9875" lon="3.68713">
        <ele>1008</ele>
        <time>2018-04-27T12:56:29Z</time>
      </trkpt>
      <trkpt lat="44.98761" lon="3.68699">
        <ele>1006</ele>
        <time>2018-04-27T12:56:43Z</time>
      </trkpt>
      <trkpt lat="44.98764" lon="3.68694">
        <ele>1006</ele>
        <time>2018-04-27T12:56:48Z</time>
      </trkpt>
      <trkpt lat="44.98773" lon="3.68685">
        <ele>1005</ele>
        <time>2018-04-27T12:56:58Z</time>
      </trkpt>
      <trkpt lat="44.98779" lon="3.68675">
        <ele>1004</ele>
        <time>2018-04-27T12:57:08Z</time>
      </trkpt>
      <trkpt lat="44.98796" lon="3.68639">
        <ele>1001</ele>
        <time>2018-04-27T12:57:38Z</time>
      </trkpt>
      <trkpt lat="44.98809" lon="3.68617">
        <ele>999</ele>
        <time>2018-04-27T12:57:57Z</time>
      </trkpt>
      <trkpt lat="44.9883" lon="3.68599">
        <ele>995</ele>
        <time>2018-04-27T12:58:31Z</time>
      </trkpt>
      <trkpt lat="44.98839" lon="3.68593">
        <ele>994</ele>
        <time>2018-04-27T12:58:45Z</time>
      </trkpt>
      <trkpt lat="44.98844" lon="3.68592">
        <ele>992</ele>
        <time>2018-04-27T12:58:51Z</time>
      </trkpt>
      <trkpt lat="44.98855" lon="3.68585">
        <ele>991</ele>
        <time>2018-04-27T12:59:05Z</time>
      </trkpt>
      <trkpt lat="44.98906" lon="3.68527">
        <ele>978</ele>
        <time>2018-04-27T13:00:43Z</time>
      </trkpt>
      <trkpt lat="44.98911" lon="3.68521">
        <ele>977</ele>
        <time>2018-04-27T13:00:50Z</time>
      </trkpt>
      <trkpt lat="44.9893" lon="3.68516">
        <ele>975</ele>
        <time>2018-04-27T13:01:11Z</time>
      </trkpt>
      <trkpt lat="44.98937" lon="3.68519">
        <ele>974</ele>
        <time>2018-04-27T13:01:20Z</time>
      </trkpt>
      <trkpt lat="44.98945" lon="3.68527">
        <ele>972</ele>
        <time>2018-04-27T13:01:30Z</time>
      </trkpt>
      <trkpt lat="44.98951" lon="3.68526">
        <ele>972</ele>
        <time>2018-04-27T13:01:38Z</time>
      </trkpt>
      <trkpt lat="44.98965" lon="3.68517">
        <ele>970</ele>
        <time>2018-04-27T13:01:53Z</time>
      </trkpt>
      <trkpt lat="44.98969" lon="3.68512">
        <ele>968</ele>
        <time>2018-04-27T13:02:04Z</time>
      </trkpt>
      <trkpt lat="44.98982" lon="3.685">
        <ele>966</ele>
        <time>2018-04-27T13:02:19Z</time>
      </trkpt>
      <trkpt lat="44.9901" lon="3.68482">
        <ele>961</ele>
        <time>2018-04-27T13:02:49Z</time>
      </trkpt>
      <trkpt lat="44.99019" lon="3.68474">
        <ele>960</ele>
        <time>2018-04-27T13:02:59Z</time>
      </trkpt>
      <trkpt lat="44.99024" lon="3.68474">
        <ele>959</ele>
        <time>2018-04-27T13:03:04Z</time>
      </trkpt>
      <trkpt lat="44.99029" lon="3.68478">
        <ele>959</ele>
        <time>2018-04-27T13:03:09Z</time>
      </trkpt>
      <trkpt lat="44.99032" lon="3.68483">
        <ele>958</ele>
        <time>2018-04-27T13:03:13Z</time>
      </trkpt>
      <trkpt lat="44.9904" lon="3.685">
        <ele>957</ele>
        <time>2018-04-27T13:03:26Z</time>
      </trkpt>
      <trkpt lat="44.99047" lon="3.68511">
        <ele>956</ele>
        <time>2018-04-27T13:03:34Z</time>
      </trkpt>
      <trkpt lat="44.99051" lon="3.68514">
        <ele>956</ele>
        <time>2018-04-27T13:03:37Z</time>
      </trkpt>
      <trkpt lat="44.99059" lon="3.68524">
        <ele>956</ele>
        <time>2018-04-27T13:03:47Z</time>
      </trkpt>
      <trkpt lat="44.99069" lon="3.68531">
        <ele>955</ele>
        <time>2018-04-27T13:03:56Z</time>
      </trkpt>
      <trkpt lat="44.9908" lon="3.68539">
        <ele>954</ele>
        <time>2018-04-27T13:04:08Z</time>
      </trkpt>
      <trkpt lat="44.991" lon="3.68555">
        <ele>954</ele>
        <time>2018-04-27T13:04:30Z</time>
      </trkpt>
      <trkpt lat="44.99109" lon="3.68562">
        <ele>951</ele>
        <time>2018-04-27T13:04:42Z</time>
      </trkpt>
      <trkpt lat="44.99142" lon="3.68578">
        <ele>950</ele>
        <time>2018-04-27T13:05:13Z</time>
      </trkpt>
      <trkpt lat="44.99154" lon="3.68582">
        <ele>949</ele>
        <time>2018-04-27T13:05:29Z</time>
      </trkpt>
      <trkpt lat="44.99162" lon="3.68581">
        <ele>948</ele>
        <time>2018-04-27T13:05:41Z</time>
      </trkpt>
      <trkpt lat="44.99167" lon="3.68584">
        <ele>947</ele>
        <time>2018-04-27T13:05:53Z</time>
      </trkpt>
      <trkpt lat="44.99172" lon="3.68586">
        <ele>946</ele>
        <time>2018-04-27T13:06:05Z</time>
      </trkpt>
      <trkpt lat="44.99178" lon="3.68586">
        <ele>945</ele>
        <time>2018-04-27T13:06:17Z</time>
      </trkpt>
      <trkpt lat="44.9918" lon="3.6858">
        <ele>944</ele>
        <time>2018-04-27T13:06:35Z</time>
      </trkpt>
      <trkpt lat="44.99194" lon="3.6856">
        <ele>941</ele>
        <time>2018-04-27T13:07:11Z</time>
      </trkpt>
      <trkpt lat="44.99206" lon="3.68529">
        <ele>937</ele>
        <time>2018-04-27T13:08:05Z</time>
      </trkpt>
      <trkpt lat="44.99207" lon="3.68519">
        <ele>934</ele>
        <time>2018-04-27T13:08:17Z</time>
      </trkpt>
      <trkpt lat="44.99219" lon="3.68479">
        <ele>930</ele>
        <time>2018-04-27T13:09:00Z</time>
      </trkpt>
      <trkpt lat="44.99222" lon="3.68472">
        <ele>929</ele>
        <time>2018-04-27T13:09:12Z</time>
      </trkpt>
      <trkpt lat="44.99225" lon="3.68447">
        <ele>926</ele>
        <time>2018-04-27T13:10:29Z</time>
      </trkpt>
      <trkpt lat="44.99227" lon="3.6844">
        <ele>924</ele>
        <time>2018-04-27T13:10:37Z</time>
      </trkpt>
      <trkpt lat="44.99231" lon="3.68433">
        <ele>923</ele>
        <time>2018-04-27T13:10:49Z</time>
      </trkpt>
      <trkpt lat="44.99222" lon="3.68419">
        <ele>918</ele>
        <time>2018-04-27T13:11:10Z</time>
      </trkpt>
      <trkpt lat="44.99222" lon="3.68408">
        <ele>916</ele>
        <time>2018-04-27T13:11:20Z</time>
      </trkpt>
      <trkpt lat="44.99221" lon="3.68402">
        <ele>915</ele>
        <time>2018-04-27T13:11:27Z</time>
      </trkpt>
      <trkpt lat="44.99226" lon="3.68398">
        <ele>914</ele>
        <time>2018-04-27T13:11:32Z</time>
      </trkpt>
      <trkpt lat="44.99231" lon="3.68401">
        <ele>914</ele>
        <time>2018-04-27T13:11:37Z</time>
      </trkpt>
      <trkpt lat="44.99235" lon="3.68404">
        <ele>913</ele>
        <time>2018-04-27T13:11:50Z</time>
      </trkpt>
      <trkpt lat="44.9924" lon="3.68403">
        <ele>912</ele>
        <time>2018-04-27T13:12:02Z</time>
      </trkpt>
      <trkpt lat="44.99243" lon="3.68399">
        <ele>911</ele>
        <time>2018-04-27T13:12:20Z</time>
      </trkpt>
      <trkpt lat="44.99238" lon="3.68395">
        <ele>908</ele>
        <time>2018-04-27T13:12:38Z</time>
      </trkpt>
      <trkpt lat="44.99232" lon="3.6838">
        <ele>906</ele>
        <time>2018-04-27T13:13:26Z</time>
      </trkpt>
      <trkpt lat="44.99237" lon="3.68373">
        <ele>903</ele>
        <time>2018-04-27T13:13:50Z</time>
      </trkpt>
      <trkpt lat="44.99241" lon="3.68368">
        <ele>902</ele>
        <time>2018-04-27T13:14:02Z</time>
      </trkpt>
      <trkpt lat="44.99245" lon="3.68362">
        <ele>900</ele>
        <time>2018-04-27T13:14:14Z</time>
      </trkpt>
      <trkpt lat="44.9925" lon="3.68355">
        <ele>898</ele>
        <time>2018-04-27T13:14:26Z</time>
      </trkpt>
      <trkpt lat="44.99264" lon="3.68348">
        <ele>894</ele>
        <time>2018-04-27T13:14:50Z</time>
      </trkpt>
      <trkpt lat="44.99274" lon="3.68349">
        <ele>893</ele>
        <time>2018-04-27T13:15:03Z</time>
      </trkpt>
      <trkpt lat="44.99281" lon="3.68357">
        <ele>892</ele>
        <time>2018-04-27T13:15:15Z</time>
      </trkpt>
      <trkpt lat="44.99288" lon="3.68363">
        <ele>890</ele>
        <time>2018-04-27T13:15:27Z</time>
      </trkpt>
      <trkpt lat="44.99292" lon="3.68365">
        <ele>889</ele>
        <time>2018-04-27T13:15:39Z</time>
      </trkpt>
      <trkpt lat="44.99293" lon="3.68358">
        <ele>887</ele>
        <time>2018-04-27T13:16:10Z</time>
      </trkpt>
      <trkpt lat="44.99289" lon="3.68351">
        <ele>887</ele>
        <time>2018-04-27T13:16:17Z</time>
      </trkpt>
      <trkpt lat="44.99285" lon="3.68328">
        <ele>885</ele>
        <time>2018-04-27T13:16:33Z</time>
      </trkpt>
      <trkpt lat="44.99274" lon="3.68299">
        <ele>879</ele>
        <time>2018-04-27T13:17:25Z</time>
      </trkpt>
      <trkpt lat="44.99266" lon="3.6829">
        <ele>877</ele>
        <time>2018-04-27T13:17:36Z</time>
      </trkpt>
      <trkpt lat="44.99266" lon="3.68282">
        <ele>878</ele>
        <time>2018-04-27T13:17:51Z</time>
      </trkpt>
      <trkpt lat="44.99257" lon="3.68273">
        <ele>877</ele>
        <time>2018-04-27T13:18:09Z</time>
      </trkpt>
      <trkpt lat="44.99253" lon="3.6827">
        <ele>877</ele>
        <time>2018-04-27T13:18:13Z</time>
      </trkpt>
      <trkpt lat="44.99246" lon="3.68268">
        <ele>877</ele>
        <time>2018-04-27T13:18:22Z</time>
      </trkpt>
      <trkpt lat="44.9924" lon="3.68269">
        <ele>877</ele>
        <time>2018-04-27T13:18:32Z</time>
      </trkpt>
      <trkpt lat="44.9923" lon="3.68273">
        <ele>877</ele>
        <time>2018-04-27T13:18:49Z</time>
      </trkpt>
      <trkpt lat="44.99208" lon="3.68275">
        <ele>878</ele>
        <time>2018-04-27T13:19:03Z</time>
      </trkpt>
      <trkpt lat="44.99199" lon="3.68269">
        <ele>878</ele>
        <time>2018-04-27T13:19:11Z</time>
      </trkpt>
      <trkpt lat="44.99184" lon="3.68262">
        <ele>878</ele>
        <time>2018-04-27T13:19:22Z</time>
      </trkpt>
      <trkpt lat="44.99177" lon="3.68254">
        <ele>879</ele>
        <time>2018-04-27T13:19:31Z</time>
      </trkpt>
      <trkpt lat="44.99167" lon="3.68252">
        <ele>880</ele>
        <time>2018-04-27T13:19:39Z</time>
      </trkpt>
      <trkpt lat="44.99163" lon="3.68249">
        <ele>880</ele>
        <time>2018-04-27T13:19:43Z</time>
      </trkpt>
      <trkpt lat="44.99156" lon="3.68238">
        <ele>880</ele>
        <time>2018-04-27T13:19:51Z</time>
      </trkpt>
      <trkpt lat="44.99152" lon="3.68236">
        <ele>881</ele>
        <time>2018-04-27T13:19:54Z</time>
      </trkpt>
      <trkpt lat="44.99145" lon="3.68225">
        <ele>881</ele>
        <time>2018-04-27T13:20:03Z</time>
      </trkpt>
      <trkpt lat="44.99131" lon="3.68215">
        <ele>881</ele>
        <time>2018-04-27T13:20:15Z</time>
      </trkpt>
      <trkpt lat="44.99124" lon="3.68212">
        <ele>880</ele>
        <time>2018-04-27T13:20:53Z</time>
      </trkpt>
      <trkpt lat="44.99109" lon="3.68206">
        <ele>880</ele>
        <time>2018-04-27T13:21:06Z</time>
      </trkpt>
      <trkpt lat="44.99103" lon="3.68205">
        <ele>880</ele>
        <time>2018-04-27T13:21:17Z</time>
      </trkpt>
      <trkpt lat="44.99076" lon="3.68186">
        <ele>880</ele>
        <time>2018-04-27T13:21:41Z</time>
      </trkpt>
      <trkpt lat="44.99051" lon="3.6815">
        <ele>882</ele>
        <time>2018-04-27T13:22:13Z</time>
      </trkpt>
      <trkpt lat="44.99041" lon="3.68126">
        <ele>882</ele>
        <time>2018-04-27T13:22:31Z</time>
      </trkpt>
      <trkpt lat="44.99037" lon="3.6811">
        <ele>884</ele>
        <time>2018-04-27T13:23:40Z</time>
      </trkpt>
      <trkpt lat="44.99043" lon="3.6811">
        <ele>884</ele>
        <time>2018-04-27T13:23:52Z</time>
      </trkpt>
      <trkpt lat="44.99031" lon="3.6809">
        <ele>884</ele>
        <time>2018-04-27T13:24:21Z</time>
      </trkpt>
      <trkpt lat="44.9903" lon="3.68083">
        <ele>885</ele>
        <time>2018-04-27T13:24:26Z</time>
      </trkpt>
      <trkpt lat="44.99028" lon="3.68076">
        <ele>885</ele>
        <time>2018-04-27T13:24:30Z</time>
      </trkpt>
      <trkpt lat="44.99024" lon="3.68071">
        <ele>885</ele>
        <time>2018-04-27T13:24:35Z</time>
      </trkpt>
      <trkpt lat="44.99008" lon="3.68055">
        <ele>884</ele>
        <time>2018-04-27T13:24:52Z</time>
      </trkpt>
      <trkpt lat="44.98996" lon="3.68041">
        <ele>884</ele>
        <time>2018-04-27T13:25:05Z</time>
      </trkpt>
      <trkpt lat="44.98983" lon="3.6803">
        <ele>884</ele>
        <time>2018-04-27T13:25:17Z</time>
      </trkpt>
      <trkpt lat="44.9898" lon="3.68025">
        <ele>884</ele>
        <time>2018-04-27T13:25:21Z</time>
      </trkpt>
      <trkpt lat="44.98973" lon="3.6801">
        <ele>883</ele>
        <time>2018-04-27T13:25:52Z</time>
      </trkpt>
      <trkpt lat="44.98969" lon="3.68005">
        <ele>883</ele>
        <time>2018-04-27T13:25:56Z</time>
      </trkpt>
      <trkpt lat="44.98964" lon="3.68002">
        <ele>883</ele>
        <time>2018-04-27T13:26:01Z</time>
      </trkpt>
      <trkpt lat="44.98948" lon="3.67985">
        <ele>882</ele>
        <time>2018-04-27T13:26:20Z</time>
      </trkpt>
      <trkpt lat="44.98938" lon="3.6797">
        <ele>882</ele>
        <time>2018-04-27T13:26:33Z</time>
      </trkpt>
      <trkpt lat="44.9894" lon="3.67962">
        <ele>882</ele>
        <time>2018-04-27T13:26:37Z</time>
      </trkpt>
      <trkpt lat="44.98946" lon="3.67951">
        <ele>882</ele>
        <time>2018-04-27T13:26:44Z</time>
      </trkpt>
      <trkpt lat="44.98951" lon="3.67932">
        <ele>883</ele>
        <time>2018-04-27T13:27:33Z</time>
      </trkpt>
      <trkpt lat="44.98955" lon="3.67928">
        <ele>883</ele>
        <time>2018-04-27T13:27:38Z</time>
      </trkpt>
      <trkpt lat="44.9896" lon="3.67927">
        <ele>882</ele>
        <time>2018-04-27T13:28:16Z</time>
      </trkpt>
      <trkpt lat="44.98953" lon="3.67945">
        <ele>882</ele>
        <time>2018-04-27T13:32:26Z</time>
      </trkpt>
      <trkpt lat="44.98956" lon="3.67948">
        <ele>883</ele>
        <time>2018-04-27T13:32:45Z</time>
      </trkpt>
      <trkpt lat="44.98956" lon="3.67943">
        <ele>887</ele>
        <time>2018-04-27T13:33:42Z</time>
      </trkpt>
      <trkpt lat="44.98954" lon="3.67947">
        <ele>887</ele>
        <time>2018-04-27T13:34:33Z</time>
      </trkpt>
      <trkpt lat="44.98951" lon="3.67927">
        <ele>888</ele>
        <time>2018-04-27T13:41:26Z</time>
      </trkpt>
      <trkpt lat="44.98967" lon="3.67926">
        <ele>887</ele>
        <time>2018-04-27T13:48:51Z</time>
      </trkpt>
      <trkpt lat="44.98944" lon="3.67935">
        <ele>886</ele>
        <time>2018-04-27T13:49:16Z</time>
      </trkpt>
      <trkpt lat="44.98954" lon="3.6793">
        <ele>886</ele>
        <time>2018-04-27T13:49:21Z</time>
      </trkpt>
      <trkpt lat="44.98963" lon="3.67931">
        <ele>886</ele>
        <time>2018-04-27T13:49:31Z</time>
      </trkpt>
      <trkpt lat="44.9896" lon="3.67945">
        <ele>887</ele>
        <time>2018-04-27T13:50:23Z</time>
      </trkpt>
      <trkpt lat="44.98957" lon="3.67937">
        <ele>886</ele>
        <time>2018-04-27T13:54:08Z</time>
      </trkpt>
      <trkpt lat="44.98958" lon="3.67929">
        <ele>889</ele>
        <time>2018-04-27T14:09:40Z</time>
      </trkpt>
      <trkpt lat="44.98957" lon="3.6793">
        <ele>889</ele>
        <time>2018-04-27T14:13:15Z</time>
      </trkpt>
      <trkpt lat="44.98972" lon="3.67934">
        <ele>888</ele>
        <time>2018-04-27T14:14:50Z</time>
      </trkpt>
      <trkpt lat="44.98964" lon="3.67933">
        <ele>888</ele>
        <time>2018-04-27T14:19:19Z</time>
      </trkpt>
      <trkpt lat="44.98968" lon="3.67913">
        <ele>876</ele>
        <time>2018-04-28T06:35:01Z</time>
      </trkpt>
      <trkpt lat="44.98973" lon="3.67903">
        <ele>875</ele>
        <time>2018-04-28T06:35:19Z</time>
      </trkpt>
      <trkpt lat="44.98978" lon="3.67901">
        <ele>875</ele>
        <time>2018-04-28T06:35:24Z</time>
      </trkpt>
      <trkpt lat="44.98986" lon="3.67892">
        <ele>874</ele>
        <time>2018-04-28T06:35:32Z</time>
      </trkpt>
      <trkpt lat="44.99004" lon="3.67857">
        <ele>872</ele>
        <time>2018-04-28T06:35:56Z</time>
      </trkpt>
      <trkpt lat="44.99009" lon="3.67856">
        <ele>872</ele>
        <time>2018-04-28T06:36:16Z</time>
      </trkpt>
      <trkpt lat="44.99009" lon="3.67846">
        <ele>872</ele>
        <time>2018-04-28T06:37:02Z</time>
      </trkpt>
      <trkpt lat="44.99006" lon="3.67832">
        <ele>871</ele>
        <time>2018-04-28T06:37:11Z</time>
      </trkpt>
      <trkpt lat="44.98995" lon="3.67799">
        <ele>872</ele>
        <time>2018-04-28T06:37:31Z</time>
      </trkpt>
      <trkpt lat="44.98992" lon="3.67785">
        <ele>872</ele>
        <time>2018-04-28T06:37:38Z</time>
      </trkpt>
      <trkpt lat="44.98992" lon="3.67778">
        <ele>872</ele>
        <time>2018-04-28T06:37:42Z</time>
      </trkpt>
      <trkpt lat="44.98989" lon="3.67757">
        <ele>872</ele>
        <time>2018-04-28T06:37:59Z</time>
      </trkpt>
      <trkpt lat="44.9898" lon="3.6775">
        <ele>873</ele>
        <time>2018-04-28T06:38:04Z</time>
      </trkpt>
      <trkpt lat="44.98982" lon="3.6773">
        <ele>873</ele>
        <time>2018-04-28T06:38:17Z</time>
      </trkpt>
      <trkpt lat="44.98981" lon="3.67717">
        <ele>874</ele>
        <time>2018-04-28T06:38:25Z</time>
      </trkpt>
      <trkpt lat="44.98976" lon="3.67705">
        <ele>874</ele>
        <time>2018-04-28T06:38:33Z</time>
      </trkpt>
      <trkpt lat="44.98977" lon="3.67691">
        <ele>875</ele>
        <time>2018-04-28T06:38:40Z</time>
      </trkpt>
      <trkpt lat="44.9898" lon="3.67678">
        <ele>875</ele>
        <time>2018-04-28T06:38:46Z</time>
      </trkpt>
      <trkpt lat="44.98975" lon="3.67666">
        <ele>875</ele>
        <time>2018-04-28T06:38:53Z</time>
      </trkpt>
      <trkpt lat="44.98975" lon="3.67613">
        <ele>877</ele>
        <time>2018-04-28T06:39:24Z</time>
      </trkpt>
      <trkpt lat="44.98968" lon="3.67559">
        <ele>877</ele>
        <time>2018-04-28T06:39:54Z</time>
      </trkpt>
      <trkpt lat="44.98962" lon="3.67535">
        <ele>878</ele>
        <time>2018-04-28T06:40:08Z</time>
      </trkpt>
      <trkpt lat="44.9896" lon="3.67522">
        <ele>878</ele>
        <time>2018-04-28T06:40:15Z</time>
      </trkpt>
      <trkpt lat="44.98961" lon="3.67507">
        <ele>879</ele>
        <time>2018-04-28T06:40:24Z</time>
      </trkpt>
      <trkpt lat="44.98957" lon="3.67494">
        <ele>879</ele>
        <time>2018-04-28T06:40:32Z</time>
      </trkpt>
      <trkpt lat="44.9895" lon="3.67478">
        <ele>880</ele>
        <time>2018-04-28T06:40:44Z</time>
      </trkpt>
      <trkpt lat="44.98945" lon="3.67473">
        <ele>880</ele>
        <time>2018-04-28T06:40:49Z</time>
      </trkpt>
      <trkpt lat="44.98941" lon="3.67472">
        <ele>881</ele>
        <time>2018-04-28T06:41:00Z</time>
      </trkpt>
      <trkpt lat="44.98899" lon="3.67405">
        <ele>884</ele>
        <time>2018-04-28T06:42:13Z</time>
      </trkpt>
      <trkpt lat="44.98887" lon="3.67365">
        <ele>886</ele>
        <time>2018-04-28T06:42:40Z</time>
      </trkpt>
      <trkpt lat="44.98882" lon="3.67307">
        <ele>886</ele>
        <time>2018-04-28T06:43:17Z</time>
      </trkpt>
      <trkpt lat="44.98883" lon="3.67276">
        <ele>885</ele>
        <time>2018-04-28T06:43:37Z</time>
      </trkpt>
      <trkpt lat="44.98886" lon="3.67262">
        <ele>884</ele>
        <time>2018-04-28T06:43:46Z</time>
      </trkpt>
      <trkpt lat="44.98888" lon="3.67257">
        <ele>884</ele>
        <time>2018-04-28T06:43:50Z</time>
      </trkpt>
      <trkpt lat="44.98887" lon="3.67226">
        <ele>880</ele>
        <time>2018-04-28T06:44:25Z</time>
      </trkpt>
      <trkpt lat="44.98889" lon="3.67199">
        <ele>875</ele>
        <time>2018-04-28T06:44:55Z</time>
      </trkpt>
      <trkpt lat="44.98892" lon="3.67187">
        <ele>874</ele>
        <time>2018-04-28T06:45:07Z</time>
      </trkpt>
      <trkpt lat="44.98898" lon="3.67172">
        <ele>872</ele>
        <time>2018-04-28T06:45:24Z</time>
      </trkpt>
      <trkpt lat="44.98897" lon="3.67163">
        <ele>870</ele>
        <time>2018-04-28T06:45:50Z</time>
      </trkpt>
      <trkpt lat="44.98905" lon="3.6714">
        <ele>868</ele>
        <time>2018-04-28T06:46:14Z</time>
      </trkpt>
      <trkpt lat="44.98912" lon="3.67128">
        <ele>866</ele>
        <time>2018-04-28T06:46:32Z</time>
      </trkpt>
      <trkpt lat="44.98914" lon="3.67121">
        <ele>865</ele>
        <time>2018-04-28T06:46:38Z</time>
      </trkpt>
      <trkpt lat="44.98933" lon="3.67081">
        <ele>859</ele>
        <time>2018-04-28T06:47:33Z</time>
      </trkpt>
      <trkpt lat="44.98939" lon="3.67059">
        <ele>857</ele>
        <time>2018-04-28T06:47:56Z</time>
      </trkpt>
      <trkpt lat="44.98939" lon="3.67049">
        <ele>856</ele>
        <time>2018-04-28T06:48:08Z</time>
      </trkpt>
      <trkpt lat="44.98933" lon="3.67053">
        <ele>855</ele>
        <time>2018-04-28T06:48:26Z</time>
      </trkpt>
      <trkpt lat="44.98929" lon="3.67058">
        <ele>856</ele>
        <time>2018-04-28T06:48:31Z</time>
      </trkpt>
      <trkpt lat="44.98925" lon="3.67062">
        <ele>856</ele>
        <time>2018-04-28T06:48:36Z</time>
      </trkpt>
      <trkpt lat="44.98909" lon="3.67059">
        <ele>859</ele>
        <time>2018-04-28T06:48:54Z</time>
      </trkpt>
      <trkpt lat="44.98903" lon="3.67061">
        <ele>860</ele>
        <time>2018-04-28T06:49:02Z</time>
      </trkpt>
      <trkpt lat="44.98886" lon="3.6706">
        <ele>864</ele>
        <time>2018-04-28T06:49:28Z</time>
      </trkpt>
      <trkpt lat="44.98882" lon="3.67057">
        <ele>864</ele>
        <time>2018-04-28T06:49:32Z</time>
      </trkpt>
      <trkpt lat="44.98847" lon="3.67019">
        <ele>870</ele>
        <time>2018-04-28T06:50:16Z</time>
      </trkpt>
      <trkpt lat="44.98846" lon="3.67013">
        <ele>870</ele>
        <time>2018-04-28T06:50:20Z</time>
      </trkpt>
      <trkpt lat="44.98848" lon="3.67006">
        <ele>871</ele>
        <time>2018-04-28T06:50:25Z</time>
      </trkpt>
      <trkpt lat="44.98844" lon="3.66996">
        <ele>871</ele>
        <time>2018-04-28T06:50:44Z</time>
      </trkpt>
      <trkpt lat="44.98816" lon="3.66972">
        <ele>875</ele>
        <time>2018-04-28T06:51:17Z</time>
      </trkpt>
      <trkpt lat="44.98808" lon="3.66957">
        <ele>878</ele>
        <time>2018-04-28T06:51:33Z</time>
      </trkpt>
      <trkpt lat="44.9881" lon="3.66942">
        <ele>880</ele>
        <time>2018-04-28T06:51:47Z</time>
      </trkpt>
      <trkpt lat="44.98826" lon="3.66931">
        <ele>883</ele>
        <time>2018-04-28T06:52:05Z</time>
      </trkpt>
      <trkpt lat="44.98835" lon="3.66929">
        <ele>884</ele>
        <time>2018-04-28T06:52:15Z</time>
      </trkpt>
      <trkpt lat="44.98841" lon="3.66911">
        <ele>886</ele>
        <time>2018-04-28T06:52:30Z</time>
      </trkpt>
      <trkpt lat="44.9884" lon="3.66878">
        <ele>888</ele>
        <time>2018-04-28T06:52:53Z</time>
      </trkpt>
      <trkpt lat="44.98844" lon="3.6683">
        <ele>891</ele>
        <time>2018-04-28T06:53:33Z</time>
      </trkpt>
      <trkpt lat="44.98842" lon="3.66824">
        <ele>891</ele>
        <time>2018-04-28T06:53:38Z</time>
      </trkpt>
      <trkpt lat="44.98803" lon="3.66777">
        <ele>898</ele>
        <time>2018-04-28T06:54:45Z</time>
      </trkpt>
      <trkpt lat="44.988" lon="3.66771">
        <ele>899</ele>
        <time>2018-04-28T06:54:51Z</time>
      </trkpt>
      <trkpt lat="44.98796" lon="3.66768">
        <ele>899</ele>
        <time>2018-04-28T06:54:56Z</time>
      </trkpt>
      <trkpt lat="44.98794" lon="3.66761">
        <ele>899</ele>
        <time>2018-04-28T06:55:01Z</time>
      </trkpt>
      <trkpt lat="44.98796" lon="3.66747">
        <ele>900</ele>
        <time>2018-04-28T06:55:09Z</time>
      </trkpt>
      <trkpt lat="44.98791" lon="3.66741">
        <ele>901</ele>
        <time>2018-04-28T06:55:16Z</time>
      </trkpt>
      <trkpt lat="44.98786" lon="3.66724">
        <ele>903</ele>
        <time>2018-04-28T06:55:32Z</time>
      </trkpt>
      <trkpt lat="44.98781" lon="3.66722">
        <ele>903</ele>
        <time>2018-04-28T06:55:38Z</time>
      </trkpt>
      <trkpt lat="44.98779" lon="3.66705">
        <ele>906</ele>
        <time>2018-04-28T06:56:06Z</time>
      </trkpt>
      <trkpt lat="44.9879" lon="3.66644">
        <ele>914</ele>
        <time>2018-04-28T06:57:13Z</time>
      </trkpt>
      <trkpt lat="44.98788" lon="3.66632">
        <ele>914</ele>
        <time>2018-04-28T06:57:22Z</time>
      </trkpt>
      <trkpt lat="44.98774" lon="3.66609">
        <ele>917</ele>
        <time>2018-04-28T06:57:45Z</time>
      </trkpt>
      <trkpt lat="44.98769" lon="3.66598">
        <ele>917</ele>
        <time>2018-04-28T06:57:54Z</time>
      </trkpt>
      <trkpt lat="44.98769" lon="3.66569">
        <ele>918</ele>
        <time>2018-04-28T06:58:12Z</time>
      </trkpt>
      <trkpt lat="44.98768" lon="3.66562">
        <ele>918</ele>
        <time>2018-04-28T06:58:17Z</time>
      </trkpt>
      <trkpt lat="44.98748" lon="3.66513">
        <ele>920</ele>
        <time>2018-04-28T06:58:51Z</time>
      </trkpt>
      <trkpt lat="44.98748" lon="3.66506">
        <ele>920</ele>
        <time>2018-04-28T06:59:10Z</time>
      </trkpt>
      <trkpt lat="44.98746" lon="3.66501">
        <ele>921</ele>
        <time>2018-04-28T06:59:14Z</time>
      </trkpt>
      <trkpt lat="44.98744" lon="3.66494">
        <ele>921</ele>
        <time>2018-04-28T06:59:19Z</time>
      </trkpt>
      <trkpt lat="44.98737" lon="3.6648">
        <ele>921</ele>
        <time>2018-04-28T06:59:31Z</time>
      </trkpt>
      <trkpt lat="44.98733" lon="3.66476">
        <ele>921</ele>
        <time>2018-04-28T06:59:35Z</time>
      </trkpt>
      <trkpt lat="44.98716" lon="3.66465">
        <ele>920</ele>
        <time>2018-04-28T06:59:51Z</time>
      </trkpt>
      <trkpt lat="44.98707" lon="3.66461">
        <ele>920</ele>
        <time>2018-04-28T07:00:00Z</time>
      </trkpt>
      <trkpt lat="44.98695" lon="3.66446">
        <ele>919</ele>
        <time>2018-04-28T07:00:14Z</time>
      </trkpt>
      <trkpt lat="44.98691" lon="3.66443">
        <ele>919</ele>
        <time>2018-04-28T07:00:18Z</time>
      </trkpt>
      <trkpt lat="44.98682" lon="3.66435">
        <ele>919</ele>
        <time>2018-04-28T07:00:31Z</time>
      </trkpt>
      <trkpt lat="44.98677" lon="3.66434">
        <ele>920</ele>
        <time>2018-04-28T07:00:35Z</time>
      </trkpt>
      <trkpt lat="44.98672" lon="3.66435">
        <ele>920</ele>
        <time>2018-04-28T07:00:40Z</time>
      </trkpt>
      <trkpt lat="44.98657" lon="3.6643">
        <ele>921</ele>
        <time>2018-04-28T07:00:52Z</time>
      </trkpt>
      <trkpt lat="44.98644" lon="3.66419">
        <ele>922</ele>
        <time>2018-04-28T07:01:07Z</time>
      </trkpt>
      <trkpt lat="44.98635" lon="3.66417">
        <ele>922</ele>
        <time>2018-04-28T07:01:16Z</time>
      </trkpt>
      <trkpt lat="44.98628" lon="3.66409">
        <ele>923</ele>
        <time>2018-04-28T07:01:24Z</time>
      </trkpt>
      <trkpt lat="44.98608" lon="3.66399">
        <ele>924</ele>
        <time>2018-04-28T07:01:44Z</time>
      </trkpt>
      <trkpt lat="44.98597" lon="3.66397">
        <ele>926</ele>
        <time>2018-04-28T07:01:55Z</time>
      </trkpt>
      <trkpt lat="44.98586" lon="3.66389">
        <ele>928</ele>
        <time>2018-04-28T07:02:10Z</time>
      </trkpt>
      <trkpt lat="44.9858" lon="3.6638">
        <ele>930</ele>
        <time>2018-04-28T07:02:34Z</time>
      </trkpt>
      <trkpt lat="44.98575" lon="3.66368">
        <ele>932</ele>
        <time>2018-04-28T07:02:49Z</time>
      </trkpt>
      <trkpt lat="44.98572" lon="3.66323">
        <ele>937</ele>
        <time>2018-04-28T07:03:34Z</time>
      </trkpt>
      <trkpt lat="44.98565" lon="3.66297">
        <ele>938</ele>
        <time>2018-04-28T07:03:51Z</time>
      </trkpt>
      <trkpt lat="44.98563" lon="3.66269">
        <ele>936</ele>
        <time>2018-04-28T07:04:08Z</time>
      </trkpt>
      <trkpt lat="44.98566" lon="3.66234">
        <ele>936</ele>
        <time>2018-04-28T07:04:28Z</time>
      </trkpt>
      <trkpt lat="44.98569" lon="3.6622">
        <ele>934</ele>
        <time>2018-04-28T07:04:36Z</time>
      </trkpt>
      <trkpt lat="44.98569" lon="3.66213">
        <ele>933</ele>
        <time>2018-04-28T07:04:41Z</time>
      </trkpt>
      <trkpt lat="44.9857" lon="3.66206">
        <ele>933</ele>
        <time>2018-04-28T07:04:46Z</time>
      </trkpt>
      <trkpt lat="44.98579" lon="3.66197">
        <ele>931</ele>
        <time>2018-04-28T07:05:08Z</time>
      </trkpt>
      <trkpt lat="44.98582" lon="3.66187">
        <ele>931</ele>
        <time>2018-04-28T07:05:20Z</time>
      </trkpt>
      <trkpt lat="44.98595" lon="3.66164">
        <ele>930</ele>
        <time>2018-04-28T07:05:38Z</time>
      </trkpt>
      <trkpt lat="44.98613" lon="3.66104">
        <ele>928</ele>
        <time>2018-04-28T07:06:17Z</time>
      </trkpt>
      <trkpt lat="44.98614" lon="3.66069">
        <ele>928</ele>
        <time>2018-04-28T07:06:39Z</time>
      </trkpt>
      <trkpt lat="44.98615" lon="3.66055">
        <ele>929</ele>
        <time>2018-04-28T07:06:48Z</time>
      </trkpt>
      <trkpt lat="44.98609" lon="3.66029">
        <ele>930</ele>
        <time>2018-04-28T07:07:06Z</time>
      </trkpt>
      <trkpt lat="44.98609" lon="3.66013">
        <ele>930</ele>
        <time>2018-04-28T07:07:13Z</time>
      </trkpt>
      <trkpt lat="44.98612" lon="3.66">
        <ele>930</ele>
        <time>2018-04-28T07:07:20Z</time>
      </trkpt>
      <trkpt lat="44.98613" lon="3.65985">
        <ele>931</ele>
        <time>2018-04-28T07:07:27Z</time>
      </trkpt>
      <trkpt lat="44.98625" lon="3.65938">
        <ele>932</ele>
        <time>2018-04-28T07:08:03Z</time>
      </trkpt>
      <trkpt lat="44.98626" lon="3.65924">
        <ele>933</ele>
        <time>2018-04-28T07:08:11Z</time>
      </trkpt>
      <trkpt lat="44.98621" lon="3.65868">
        <ele>936</ele>
        <time>2018-04-28T07:08:52Z</time>
      </trkpt>
      <trkpt lat="44.98612" lon="3.65861">
        <ele>936</ele>
        <time>2018-04-28T07:09:01Z</time>
      </trkpt>
      <trkpt lat="44.98603" lon="3.65859">
        <ele>937</ele>
        <time>2018-04-28T07:09:08Z</time>
      </trkpt>
      <trkpt lat="44.98595" lon="3.65851">
        <ele>937</ele>
        <time>2018-04-28T07:09:16Z</time>
      </trkpt>
      <trkpt lat="44.98589" lon="3.6584">
        <ele>937</ele>
        <time>2018-04-28T07:09:24Z</time>
      </trkpt>
      <trkpt lat="44.98542" lon="3.65818">
        <ele>938</ele>
        <time>2018-04-28T07:10:01Z</time>
      </trkpt>
      <trkpt lat="44.98525" lon="3.65806">
        <ele>938</ele>
        <time>2018-04-28T07:10:17Z</time>
      </trkpt>
      <trkpt lat="44.98516" lon="3.65805">
        <ele>938</ele>
        <time>2018-04-28T07:10:23Z</time>
      </trkpt>
      <trkpt lat="44.98505" lon="3.65784">
        <ele>939</ele>
        <time>2018-04-28T07:10:39Z</time>
      </trkpt>
      <trkpt lat="44.98496" lon="3.65749">
        <ele>942</ele>
        <time>2018-04-28T07:11:09Z</time>
      </trkpt>
      <trkpt lat="44.98495" lon="3.65728">
        <ele>943</ele>
        <time>2018-04-28T07:11:25Z</time>
      </trkpt>
      <trkpt lat="44.98502" lon="3.65687">
        <ele>945</ele>
        <time>2018-04-28T07:11:54Z</time>
      </trkpt>
      <trkpt lat="44.98508" lon="3.65676">
        <ele>945</ele>
        <time>2018-04-28T07:12:04Z</time>
      </trkpt>
      <trkpt lat="44.9851" lon="3.65663">
        <ele>945</ele>
        <time>2018-04-28T07:12:11Z</time>
      </trkpt>
      <trkpt lat="44.98499" lon="3.65569">
        <ele>944</ele>
        <time>2018-04-28T07:13:03Z</time>
      </trkpt>
      <trkpt lat="44.98521" lon="3.65415">
        <ele>942</ele>
        <time>2018-04-28T07:14:30Z</time>
      </trkpt>
      <trkpt lat="44.98526" lon="3.65403">
        <ele>941</ele>
        <time>2018-04-28T07:14:37Z</time>
      </trkpt>
      <trkpt lat="44.98535" lon="3.65386">
        <ele>942</ele>
        <time>2018-04-28T07:14:49Z</time>
      </trkpt>
      <trkpt lat="44.98545" lon="3.65371">
        <ele>942</ele>
        <time>2018-04-28T07:15:01Z</time>
      </trkpt>
      <trkpt lat="44.98548" lon="3.65366">
        <ele>942</ele>
        <time>2018-04-28T07:15:06Z</time>
      </trkpt>
      <trkpt lat="44.98549" lon="3.65358">
        <ele>942</ele>
        <time>2018-04-28T07:15:14Z</time>
      </trkpt>
      <trkpt lat="44.98551" lon="3.65351">
        <ele>941</ele>
        <time>2018-04-28T07:15:19Z</time>
      </trkpt>
      <trkpt lat="44.98553" lon="3.65345">
        <ele>941</ele>
        <time>2018-04-28T07:15:23Z</time>
      </trkpt>
      <trkpt lat="44.98556" lon="3.65339">
        <ele>940</ele>
        <time>2018-04-28T07:15:28Z</time>
      </trkpt>
      <trkpt lat="44.98562" lon="3.65334">
        <ele>939</ele>
        <time>2018-04-28T07:15:35Z</time>
      </trkpt>
      <trkpt lat="44.98569" lon="3.65323">
        <ele>939</ele>
        <time>2018-04-28T07:15:43Z</time>
      </trkpt>
      <trkpt lat="44.9857" lon="3.65316">
        <ele>938</ele>
        <time>2018-04-28T07:15:47Z</time>
      </trkpt>
      <trkpt lat="44.98584" lon="3.65295">
        <ele>937</ele>
        <time>2018-04-28T07:16:05Z</time>
      </trkpt>
      <trkpt lat="44.98591" lon="3.65287">
        <ele>936</ele>
        <time>2018-04-28T07:16:16Z</time>
      </trkpt>
      <trkpt lat="44.98594" lon="3.65281">
        <ele>935</ele>
        <time>2018-04-28T07:16:20Z</time>
      </trkpt>
      <trkpt lat="44.98602" lon="3.65273">
        <ele>934</ele>
        <time>2018-04-28T07:16:29Z</time>
      </trkpt>
      <trkpt lat="44.98605" lon="3.65268">
        <ele>934</ele>
        <time>2018-04-28T07:16:33Z</time>
      </trkpt>
      <trkpt lat="44.98607" lon="3.65262">
        <ele>933</ele>
        <time>2018-04-28T07:16:37Z</time>
      </trkpt>
      <trkpt lat="44.98617" lon="3.65247">
        <ele>932</ele>
        <time>2018-04-28T07:16:50Z</time>
      </trkpt>
      <trkpt lat="44.98625" lon="3.65228">
        <ele>930</ele>
        <time>2018-04-28T07:17:04Z</time>
      </trkpt>
      <trkpt lat="44.98633" lon="3.6522">
        <ele>929</ele>
        <time>2018-04-28T07:17:18Z</time>
      </trkpt>
      <trkpt lat="44.98632" lon="3.65214">
        <ele>929</ele>
        <time>2018-04-28T07:17:23Z</time>
      </trkpt>
      <trkpt lat="44.98615" lon="3.65201">
        <ele>928</ele>
        <time>2018-04-28T07:17:41Z</time>
      </trkpt>
      <trkpt lat="44.98594" lon="3.65129">
        <ele>931</ele>
        <time>2018-04-28T07:18:32Z</time>
      </trkpt>
      <trkpt lat="44.98596" lon="3.65099">
        <ele>933</ele>
        <time>2018-04-28T07:18:49Z</time>
      </trkpt>
      <trkpt lat="44.98594" lon="3.65086">
        <ele>933</ele>
        <time>2018-04-28T07:18:55Z</time>
      </trkpt>
      <trkpt lat="44.98604" lon="3.65016">
        <ele>935</ele>
        <time>2018-04-28T07:19:43Z</time>
      </trkpt>
      <trkpt lat="44.9861" lon="3.64993">
        <ele>936</ele>
        <time>2018-04-28T07:19:59Z</time>
      </trkpt>
      <trkpt lat="44.98614" lon="3.64983">
        <ele>938</ele>
        <time>2018-04-28T07:20:16Z</time>
      </trkpt>
      <trkpt lat="44.98615" lon="3.64977">
        <ele>938</ele>
        <time>2018-04-28T07:20:20Z</time>
      </trkpt>
      <trkpt lat="44.98615" lon="3.64969">
        <ele>938</ele>
        <time>2018-04-28T07:20:25Z</time>
      </trkpt>
      <trkpt lat="44.98621" lon="3.64921">
        <ele>941</ele>
        <time>2018-04-28T07:21:00Z</time>
      </trkpt>
      <trkpt lat="44.98616" lon="3.64856">
        <ele>946</ele>
        <time>2018-04-28T07:21:58Z</time>
      </trkpt>
      <trkpt lat="44.98617" lon="3.64846">
        <ele>947</ele>
        <time>2018-04-28T07:22:07Z</time>
      </trkpt>
      <trkpt lat="44.98619" lon="3.64831">
        <ele>948</ele>
        <time>2018-04-28T07:22:31Z</time>
      </trkpt>
      <trkpt lat="44.98617" lon="3.64796">
        <ele>946</ele>
        <time>2018-04-28T07:22:55Z</time>
      </trkpt>
      <trkpt lat="44.98614" lon="3.64787">
        <ele>945</ele>
        <time>2018-04-28T07:23:02Z</time>
      </trkpt>
      <trkpt lat="44.9861" lon="3.64782">
        <ele>944</ele>
        <time>2018-04-28T07:23:07Z</time>
      </trkpt>
      <trkpt lat="44.98601" lon="3.64762">
        <ele>946</ele>
        <time>2018-04-28T07:23:24Z</time>
      </trkpt>
      <trkpt lat="44.98597" lon="3.64757">
        <ele>947</ele>
        <time>2018-04-28T07:23:29Z</time>
      </trkpt>
      <trkpt lat="44.98585" lon="3.6476">
        <ele>947</ele>
        <time>2018-04-28T07:23:38Z</time>
      </trkpt>
      <trkpt lat="44.98581" lon="3.64759">
        <ele>948</ele>
        <time>2018-04-28T07:23:42Z</time>
      </trkpt>
      <trkpt lat="44.98577" lon="3.64754">
        <ele>948</ele>
        <time>2018-04-28T07:23:47Z</time>
      </trkpt>
      <trkpt lat="44.98576" lon="3.64747">
        <ele>949</ele>
        <time>2018-04-28T07:24:01Z</time>
      </trkpt>
      <trkpt lat="44.98573" lon="3.64741">
        <ele>950</ele>
        <time>2018-04-28T07:24:07Z</time>
      </trkpt>
      <trkpt lat="44.9856" lon="3.64732">
        <ele>952</ele>
        <time>2018-04-28T07:24:24Z</time>
      </trkpt>
      <trkpt lat="44.98555" lon="3.64722">
        <ele>952</ele>
        <time>2018-04-28T07:24:33Z</time>
      </trkpt>
      <trkpt lat="44.9855" lon="3.64718">
        <ele>952</ele>
        <time>2018-04-28T07:24:41Z</time>
      </trkpt>
      <trkpt lat="44.9855" lon="3.64721">
        <ele>952</ele>
        <time>2018-04-28T07:25:41Z</time>
      </trkpt>
      <trkpt lat="44.98555" lon="3.64728">
        <ele>953</ele>
        <time>2018-04-28T07:25:51Z</time>
      </trkpt>
      <trkpt lat="44.98561" lon="3.64733">
        <ele>953</ele>
        <time>2018-04-28T07:26:01Z</time>
      </trkpt>
      <trkpt lat="44.98566" lon="3.64732">
        <ele>953</ele>
        <time>2018-04-28T07:26:07Z</time>
      </trkpt>
      <trkpt lat="44.98568" lon="3.64721">
        <ele>955</ele>
        <time>2018-04-28T07:29:38Z</time>
      </trkpt>
      <trkpt lat="44.98575" lon="3.64732">
        <ele>952</ele>
        <time>2018-04-28T07:29:56Z</time>
      </trkpt>
      <trkpt lat="44.9857" lon="3.64734">
        <ele>950</ele>
        <time>2018-04-28T07:30:15Z</time>
      </trkpt>
      <trkpt lat="44.98571" lon="3.64738">
        <ele>949</ele>
        <time>2018-04-28T07:32:08Z</time>
      </trkpt>
      <trkpt lat="44.98581" lon="3.64745">
        <ele>946</ele>
        <time>2018-04-28T07:32:20Z</time>
      </trkpt>
      <trkpt lat="44.98588" lon="3.64758">
        <ele>944</ele>
        <time>2018-04-28T07:32:34Z</time>
      </trkpt>
      <trkpt lat="44.98597" lon="3.64753">
        <ele>943</ele>
        <time>2018-04-28T07:33:00Z</time>
      </trkpt>
      <trkpt lat="44.98613" lon="3.64782">
        <ele>941</ele>
        <time>2018-04-28T07:33:20Z</time>
      </trkpt>
      <trkpt lat="44.98614" lon="3.64789">
        <ele>940</ele>
        <time>2018-04-28T07:33:25Z</time>
      </trkpt>
      <trkpt lat="44.98603" lon="3.64792">
        <ele>940</ele>
        <time>2018-04-28T07:33:33Z</time>
      </trkpt>
      <trkpt lat="44.98598" lon="3.64793">
        <ele>939</ele>
        <time>2018-04-28T07:33:37Z</time>
      </trkpt>
      <trkpt lat="44.98593" lon="3.64789">
        <ele>939</ele>
        <time>2018-04-28T07:33:41Z</time>
      </trkpt>
      <trkpt lat="44.98589" lon="3.64789">
        <ele>938</ele>
        <time>2018-04-28T07:33:45Z</time>
      </trkpt>
      <trkpt lat="44.98577" lon="3.64784">
        <ele>938</ele>
        <time>2018-04-28T07:33:58Z</time>
      </trkpt>
      <trkpt lat="44.98562" lon="3.64779">
        <ele>938</ele>
        <time>2018-04-28T07:34:23Z</time>
      </trkpt>
      <trkpt lat="44.98542" lon="3.64756">
        <ele>937</ele>
        <time>2018-04-28T07:34:46Z</time>
      </trkpt>
      <trkpt lat="44.98518" lon="3.64741">
        <ele>933</ele>
        <time>2018-04-28T07:35:23Z</time>
      </trkpt>
      <trkpt lat="44.98514" lon="3.64733">
        <ele>932</ele>
        <time>2018-04-28T07:35:42Z</time>
      </trkpt>
      <trkpt lat="44.9851" lon="3.64729">
        <ele>930</ele>
        <time>2018-04-28T07:35:54Z</time>
      </trkpt>
      <trkpt lat="44.98507" lon="3.64735">
        <ele>929</ele>
        <time>2018-04-28T07:35:59Z</time>
      </trkpt>
      <trkpt lat="44.985" lon="3.64742">
        <ele>927</ele>
        <time>2018-04-28T07:36:10Z</time>
      </trkpt>
      <trkpt lat="44.98481" lon="3.64748">
        <ele>923</ele>
        <time>2018-04-28T07:36:36Z</time>
      </trkpt>
      <trkpt lat="44.98476" lon="3.64748">
        <ele>922</ele>
        <time>2018-04-28T07:36:40Z</time>
      </trkpt>
      <trkpt lat="44.98466" lon="3.64753">
        <ele>920</ele>
        <time>2018-04-28T07:36:47Z</time>
      </trkpt>
      <trkpt lat="44.98456" lon="3.64747">
        <ele>919</ele>
        <time>2018-04-28T07:36:59Z</time>
      </trkpt>
      <trkpt lat="44.98467" lon="3.64702">
        <ele>913</ele>
        <time>2018-04-28T07:37:35Z</time>
      </trkpt>
      <trkpt lat="44.9846" lon="3.64709">
        <ele>911</ele>
        <time>2018-04-28T07:37:48Z</time>
      </trkpt>
      <trkpt lat="44.98453" lon="3.64713">
        <ele>910</ele>
        <time>2018-04-28T07:37:55Z</time>
      </trkpt>
      <trkpt lat="44.98439" lon="3.64708">
        <ele>907</ele>
        <time>2018-04-28T07:38:11Z</time>
      </trkpt>
      <trkpt lat="44.98434" lon="3.64707">
        <ele>906</ele>
        <time>2018-04-28T07:38:16Z</time>
      </trkpt>
      <trkpt lat="44.98409" lon="3.64721">
        <ele>904</ele>
        <time>2018-04-28T07:38:39Z</time>
      </trkpt>
      <trkpt lat="44.9839" lon="3.64749">
        <ele>904</ele>
        <time>2018-04-28T07:39:01Z</time>
      </trkpt>
      <trkpt lat="44.9839" lon="3.64758">
        <ele>904</ele>
        <time>2018-04-28T07:39:08Z</time>
      </trkpt>
      <trkpt lat="44.98393" lon="3.64763">
        <ele>903</ele>
        <time>2018-04-28T07:39:12Z</time>
      </trkpt>
      <trkpt lat="44.98396" lon="3.64772">
        <ele>901</ele>
        <time>2018-04-28T07:39:20Z</time>
      </trkpt>
      <trkpt lat="44.98403" lon="3.6478">
        <ele>900</ele>
        <time>2018-04-28T07:39:28Z</time>
      </trkpt>
      <trkpt lat="44.98407" lon="3.64786">
        <ele>899</ele>
        <time>2018-04-28T07:39:33Z</time>
      </trkpt>
      <trkpt lat="44.984" lon="3.64792">
        <ele>899</ele>
        <time>2018-04-28T07:40:28Z</time>
      </trkpt>
      <trkpt lat="44.98395" lon="3.64799">
        <ele>897</ele>
        <time>2018-04-28T07:40:46Z</time>
      </trkpt>
      <trkpt lat="44.98393" lon="3.64793">
        <ele>898</ele>
        <time>2018-04-28T07:41:10Z</time>
      </trkpt>
      <trkpt lat="44.98384" lon="3.64798">
        <ele>894</ele>
        <time>2018-04-28T07:42:28Z</time>
      </trkpt>
      <trkpt lat="44.98381" lon="3.64804">
        <ele>890</ele>
        <time>2018-04-28T07:43:03Z</time>
      </trkpt>
      <trkpt lat="44.98376" lon="3.64806">
        <ele>890</ele>
        <time>2018-04-28T07:43:06Z</time>
      </trkpt>
      <trkpt lat="44.98373" lon="3.64812">
        <ele>888</ele>
        <time>2018-04-28T07:43:11Z</time>
      </trkpt>
      <trkpt lat="44.98367" lon="3.64817">
        <ele>887</ele>
        <time>2018-04-28T07:43:19Z</time>
      </trkpt>
      <trkpt lat="44.98361" lon="3.64812">
        <ele>885</ele>
        <time>2018-04-28T07:43:37Z</time>
      </trkpt>
      <trkpt lat="44.98356" lon="3.64817">
        <ele>884</ele>
        <time>2018-04-28T07:43:49Z</time>
      </trkpt>
      <trkpt lat="44.98346" lon="3.64821">
        <ele>881</ele>
        <time>2018-04-28T07:44:12Z</time>
      </trkpt>
      <trkpt lat="44.98343" lon="3.64827">
        <ele>879</ele>
        <time>2018-04-28T07:44:20Z</time>
      </trkpt>
      <trkpt lat="44.98339" lon="3.64833">
        <ele>877</ele>
        <time>2018-04-28T07:44:38Z</time>
      </trkpt>
      <trkpt lat="44.98333" lon="3.64835">
        <ele>875</ele>
        <time>2018-04-28T07:44:50Z</time>
      </trkpt>
      <trkpt lat="44.98328" lon="3.64834">
        <ele>874</ele>
        <time>2018-04-28T07:45:02Z</time>
      </trkpt>
      <trkpt lat="44.98315" lon="3.64842">
        <ele>869</ele>
        <time>2018-04-28T07:45:24Z</time>
      </trkpt>
      <trkpt lat="44.98307" lon="3.64845">
        <ele>866</ele>
        <time>2018-04-28T07:45:43Z</time>
      </trkpt>
      <trkpt lat="44.98301" lon="3.64845">
        <ele>864</ele>
        <time>2018-04-28T07:45:51Z</time>
      </trkpt>
      <trkpt lat="44.9829" lon="3.64853">
        <ele>860</ele>
        <time>2018-04-28T07:46:15Z</time>
      </trkpt>
      <trkpt lat="44.98286" lon="3.64848">
        <ele>859</ele>
        <time>2018-04-28T07:46:20Z</time>
      </trkpt>
      <trkpt lat="44.98274" lon="3.64847">
        <ele>856</ele>
        <time>2018-04-28T07:46:45Z</time>
      </trkpt>
      <trkpt lat="44.9827" lon="3.64851">
        <ele>855</ele>
        <time>2018-04-28T07:47:05Z</time>
      </trkpt>
      <trkpt lat="44.98261" lon="3.64851">
        <ele>850</ele>
        <time>2018-04-28T07:47:34Z</time>
      </trkpt>
      <trkpt lat="44.9825" lon="3.64857">
        <ele>848</ele>
        <time>2018-04-28T07:47:44Z</time>
      </trkpt>
      <trkpt lat="44.98245" lon="3.64858">
        <ele>847</ele>
        <time>2018-04-28T07:47:48Z</time>
      </trkpt>
      <trkpt lat="44.98223" lon="3.64851">
        <ele>844</ele>
        <time>2018-04-28T07:48:10Z</time>
      </trkpt>
      <trkpt lat="44.98201" lon="3.64851">
        <ele>841</ele>
        <time>2018-04-28T07:48:37Z</time>
      </trkpt>
      <trkpt lat="44.98181" lon="3.64843">
        <ele>838</ele>
        <time>2018-04-28T07:48:59Z</time>
      </trkpt>
      <trkpt lat="44.98177" lon="3.64839">
        <ele>838</ele>
        <time>2018-04-28T07:49:03Z</time>
      </trkpt>
      <trkpt lat="44.98173" lon="3.64833">
        <ele>839</ele>
        <time>2018-04-28T07:49:12Z</time>
      </trkpt>
      <trkpt lat="44.98164" lon="3.64829">
        <ele>840</ele>
        <time>2018-04-28T07:49:35Z</time>
      </trkpt>
      <trkpt lat="44.9816" lon="3.64831">
        <ele>839</ele>
        <time>2018-04-28T07:49:39Z</time>
      </trkpt>
      <trkpt lat="44.98154" lon="3.6483">
        <ele>836</ele>
        <time>2018-04-28T07:49:48Z</time>
      </trkpt>
      <trkpt lat="44.98142" lon="3.64819">
        <ele>833</ele>
        <time>2018-04-28T07:50:02Z</time>
      </trkpt>
      <trkpt lat="44.98134" lon="3.64814">
        <ele>831</ele>
        <time>2018-04-28T07:50:10Z</time>
      </trkpt>
      <trkpt lat="44.98129" lon="3.64809">
        <ele>831</ele>
        <time>2018-04-28T07:50:15Z</time>
      </trkpt>
      <trkpt lat="44.98115" lon="3.64806">
        <ele>827</ele>
        <time>2018-04-28T07:50:41Z</time>
      </trkpt>
      <trkpt lat="44.98114" lon="3.64791">
        <ele>827</ele>
        <time>2018-04-28T07:50:50Z</time>
      </trkpt>
      <trkpt lat="44.98111" lon="3.64786">
        <ele>828</ele>
        <time>2018-04-28T07:50:55Z</time>
      </trkpt>
      <trkpt lat="44.98105" lon="3.64782">
        <ele>828</ele>
        <time>2018-04-28T07:51:02Z</time>
      </trkpt>
      <trkpt lat="44.98098" lon="3.6477">
        <ele>827</ele>
        <time>2018-04-28T07:51:13Z</time>
      </trkpt>
      <trkpt lat="44.98086" lon="3.64771">
        <ele>826</ele>
        <time>2018-04-28T07:51:26Z</time>
      </trkpt>
      <trkpt lat="44.98082" lon="3.6477">
        <ele>826</ele>
        <time>2018-04-28T07:51:54Z</time>
      </trkpt>
      <trkpt lat="44.98077" lon="3.64772">
        <ele>824</ele>
        <time>2018-04-28T07:52:12Z</time>
      </trkpt>
      <trkpt lat="44.98071" lon="3.64771">
        <ele>823</ele>
        <time>2018-04-28T07:52:24Z</time>
      </trkpt>
      <trkpt lat="44.9807" lon="3.64777">
        <ele>822</ele>
        <time>2018-04-28T07:52:36Z</time>
      </trkpt>
      <trkpt lat="44.98064" lon="3.64781">
        <ele>820</ele>
        <time>2018-04-28T07:53:00Z</time>
      </trkpt>
      <trkpt lat="44.98056" lon="3.64787">
        <ele>818</ele>
        <time>2018-04-28T07:53:11Z</time>
      </trkpt>
      <trkpt lat="44.98053" lon="3.64793">
        <ele>818</ele>
        <time>2018-04-28T07:53:20Z</time>
      </trkpt>
      <trkpt lat="44.98052" lon="3.64801">
        <ele>816</ele>
        <time>2018-04-28T07:54:01Z</time>
      </trkpt>
      <trkpt lat="44.98048" lon="3.64807">
        <ele>815</ele>
        <time>2018-04-28T07:54:07Z</time>
      </trkpt>
      <trkpt lat="44.9804" lon="3.64814">
        <ele>813</ele>
        <time>2018-04-28T07:54:17Z</time>
      </trkpt>
      <trkpt lat="44.98028" lon="3.64827">
        <ele>809</ele>
        <time>2018-04-28T07:54:46Z</time>
      </trkpt>
      <trkpt lat="44.98012" lon="3.6485">
        <ele>803</ele>
        <time>2018-04-28T07:55:19Z</time>
      </trkpt>
      <trkpt lat="44.98008" lon="3.64854">
        <ele>802</ele>
        <time>2018-04-28T07:55:25Z</time>
      </trkpt>
      <trkpt lat="44.97998" lon="3.64855">
        <ele>801</ele>
        <time>2018-04-28T07:55:34Z</time>
      </trkpt>
      <trkpt lat="44.9798" lon="3.64866">
        <ele>800</ele>
        <time>2018-04-28T07:55:52Z</time>
      </trkpt>
      <trkpt lat="44.97972" lon="3.64873">
        <ele>798</ele>
        <time>2018-04-28T07:56:01Z</time>
      </trkpt>
      <trkpt lat="44.97964" lon="3.6487">
        <ele>796</ele>
        <time>2018-04-28T07:56:11Z</time>
      </trkpt>
      <trkpt lat="44.9796" lon="3.64871">
        <ele>796</ele>
        <time>2018-04-28T07:56:16Z</time>
      </trkpt>
      <trkpt lat="44.9795" lon="3.6488">
        <ele>793</ele>
        <time>2018-04-28T07:56:36Z</time>
      </trkpt>
      <trkpt lat="44.97941" lon="3.64883">
        <ele>791</ele>
        <time>2018-04-28T07:56:52Z</time>
      </trkpt>
      <trkpt lat="44.97936" lon="3.64885">
        <ele>791</ele>
        <time>2018-04-28T07:56:56Z</time>
      </trkpt>
      <trkpt lat="44.97926" lon="3.64881">
        <ele>792</ele>
        <time>2018-04-28T07:57:15Z</time>
      </trkpt>
      <trkpt lat="44.97922" lon="3.64885">
        <ele>791</ele>
        <time>2018-04-28T07:57:27Z</time>
      </trkpt>
      <trkpt lat="44.97917" lon="3.64885">
        <ele>789</ele>
        <time>2018-04-28T07:57:45Z</time>
      </trkpt>
      <trkpt lat="44.97913" lon="3.64888">
        <ele>789</ele>
        <time>2018-04-28T07:58:20Z</time>
      </trkpt>
      <trkpt lat="44.979" lon="3.64901">
        <ele>784</ele>
        <time>2018-04-28T07:58:52Z</time>
      </trkpt>
      <trkpt lat="44.97892" lon="3.64899">
        <ele>781</ele>
        <time>2018-04-28T07:59:03Z</time>
      </trkpt>
      <trkpt lat="44.97881" lon="3.649">
        <ele>779</ele>
        <time>2018-04-28T07:59:15Z</time>
      </trkpt>
      <trkpt lat="44.97877" lon="3.64902">
        <ele>778</ele>
        <time>2018-04-28T07:59:29Z</time>
      </trkpt>
      <trkpt lat="44.97864" lon="3.64901">
        <ele>775</ele>
        <time>2018-04-28T07:59:45Z</time>
      </trkpt>
      <trkpt lat="44.97858" lon="3.64898">
        <ele>774</ele>
        <time>2018-04-28T07:59:53Z</time>
      </trkpt>
      <trkpt lat="44.97849" lon="3.64893">
        <ele>772</ele>
        <time>2018-04-28T08:00:29Z</time>
      </trkpt>
      <trkpt lat="44.97849" lon="3.64899">
        <ele>768</ele>
        <time>2018-04-28T08:00:53Z</time>
      </trkpt>
      <trkpt lat="44.97853" lon="3.64901">
        <ele>769</ele>
        <time>2018-04-28T08:00:58Z</time>
      </trkpt>
      <trkpt lat="44.97875" lon="3.64929">
        <ele>768</ele>
        <time>2018-04-28T08:01:25Z</time>
      </trkpt>
      <trkpt lat="44.97878" lon="3.64936">
        <ele>767</ele>
        <time>2018-04-28T08:01:30Z</time>
      </trkpt>
      <trkpt lat="44.9788" lon="3.64948">
        <ele>767</ele>
        <time>2018-04-28T08:01:52Z</time>
      </trkpt>
      <trkpt lat="44.97877" lon="3.64968">
        <ele>767</ele>
        <time>2018-04-28T08:02:10Z</time>
      </trkpt>
      <trkpt lat="44.97875" lon="3.64973">
        <ele>767</ele>
        <time>2018-04-28T08:02:14Z</time>
      </trkpt>
      <trkpt lat="44.97868" lon="3.6498">
        <ele>767</ele>
        <time>2018-04-28T08:03:06Z</time>
      </trkpt>
      <trkpt lat="44.97849" lon="3.64986">
        <ele>764</ele>
        <time>2018-04-28T08:03:21Z</time>
      </trkpt>
      <trkpt lat="44.97839" lon="3.64983">
        <ele>764</ele>
        <time>2018-04-28T08:03:30Z</time>
      </trkpt>
      <trkpt lat="44.97818" lon="3.64965">
        <ele>762</ele>
        <time>2018-04-28T08:03:51Z</time>
      </trkpt>
      <trkpt lat="44.97799" lon="3.64958">
        <ele>760</ele>
        <time>2018-04-28T08:04:07Z</time>
      </trkpt>
      <trkpt lat="44.97754" lon="3.64918">
        <ele>759</ele>
        <time>2018-04-28T08:04:55Z</time>
      </trkpt>
      <trkpt lat="44.97749" lon="3.64915">
        <ele>759</ele>
        <time>2018-04-28T08:04:59Z</time>
      </trkpt>
      <trkpt lat="44.97714" lon="3.64916">
        <ele>758</ele>
        <time>2018-04-28T08:05:29Z</time>
      </trkpt>
      <trkpt lat="44.97644" lon="3.6494">
        <ele>757</ele>
        <time>2018-04-28T08:06:58Z</time>
      </trkpt>
      <trkpt lat="44.97637" lon="3.64941">
        <ele>757</ele>
        <time>2018-04-28T08:07:06Z</time>
      </trkpt>
      <trkpt lat="44.97628" lon="3.64945">
        <ele>757</ele>
        <time>2018-04-28T08:07:46Z</time>
      </trkpt>
      <trkpt lat="44.97608" lon="3.64951">
        <ele>756</ele>
        <time>2018-04-28T08:08:02Z</time>
      </trkpt>
      <trkpt lat="44.97584" lon="3.64947">
        <ele>755</ele>
        <time>2018-04-28T08:08:23Z</time>
      </trkpt>
      <trkpt lat="44.97549" lon="3.64926">
        <ele>752</ele>
        <time>2018-04-28T08:08:55Z</time>
      </trkpt>
      <trkpt lat="44.97538" lon="3.64925">
        <ele>751</ele>
        <time>2018-04-28T08:09:32Z</time>
      </trkpt>
      <trkpt lat="44.97496" lon="3.64928">
        <ele>750</ele>
        <time>2018-04-28T08:10:12Z</time>
      </trkpt>
      <trkpt lat="44.97465" lon="3.64926">
        <ele>749</ele>
        <time>2018-04-28T08:10:40Z</time>
      </trkpt>
      <trkpt lat="44.9744" lon="3.64928">
        <ele>749</ele>
        <time>2018-04-28T08:11:02Z</time>
      </trkpt>
      <trkpt lat="44.97435" lon="3.64927">
        <ele>749</ele>
        <time>2018-04-28T08:11:06Z</time>
      </trkpt>
      <trkpt lat="44.9741" lon="3.64918">
        <ele>749</ele>
        <time>2018-04-28T08:11:29Z</time>
      </trkpt>
      <trkpt lat="44.97395" lon="3.6491">
        <ele>749</ele>
        <time>2018-04-28T08:11:43Z</time>
      </trkpt>
      <trkpt lat="44.97385" lon="3.64907">
        <ele>749</ele>
        <time>2018-04-28T08:11:52Z</time>
      </trkpt>
      <trkpt lat="44.9737" lon="3.64907">
        <ele>749</ele>
        <time>2018-04-28T08:12:04Z</time>
      </trkpt>
      <trkpt lat="44.97346" lon="3.64913">
        <ele>748</ele>
        <time>2018-04-28T08:12:24Z</time>
      </trkpt>
      <trkpt lat="44.97281" lon="3.64946">
        <ele>746</ele>
        <time>2018-04-28T08:13:26Z</time>
      </trkpt>
      <trkpt lat="44.97262" lon="3.64953">
        <ele>745</ele>
        <time>2018-04-28T08:13:44Z</time>
      </trkpt>
      <trkpt lat="44.97257" lon="3.64948">
        <ele>744</ele>
        <time>2018-04-28T08:13:49Z</time>
      </trkpt>
      <trkpt lat="44.97255" lon="3.64942">
        <ele>744</ele>
        <time>2018-04-28T08:13:53Z</time>
      </trkpt>
      <trkpt lat="44.97247" lon="3.64933">
        <ele>744</ele>
        <time>2018-04-28T08:14:02Z</time>
      </trkpt>
      <trkpt lat="44.97237" lon="3.6493">
        <ele>743</ele>
        <time>2018-04-28T08:14:11Z</time>
      </trkpt>
      <trkpt lat="44.97218" lon="3.64932">
        <ele>741</ele>
        <time>2018-04-28T08:14:29Z</time>
      </trkpt>
      <trkpt lat="44.9721" lon="3.64938">
        <ele>741</ele>
        <time>2018-04-28T08:14:37Z</time>
      </trkpt>
      <trkpt lat="44.97203" lon="3.64948">
        <ele>740</ele>
        <time>2018-04-28T08:14:45Z</time>
      </trkpt>
      <trkpt lat="44.97198" lon="3.6496">
        <ele>739</ele>
        <time>2018-04-28T08:14:53Z</time>
      </trkpt>
      <trkpt lat="44.97178" lon="3.65164">
        <ele>726</ele>
        <time>2018-04-28T08:17:19Z</time>
      </trkpt>
      <trkpt lat="44.9717" lon="3.65262">
        <ele>720</ele>
        <time>2018-04-28T08:18:20Z</time>
      </trkpt>
      <trkpt lat="44.97137" lon="3.65421">
        <ele>709</ele>
        <time>2018-04-28T08:20:05Z</time>
      </trkpt>
      <trkpt lat="44.97134" lon="3.65427">
        <ele>709</ele>
        <time>2018-04-28T08:20:09Z</time>
      </trkpt>
      <trkpt lat="44.97077" lon="3.65632">
        <ele>695</ele>
        <time>2018-04-28T08:22:34Z</time>
      </trkpt>
      <trkpt lat="44.97075" lon="3.65639">
        <ele>695</ele>
        <time>2018-04-28T08:22:39Z</time>
      </trkpt>
      <trkpt lat="44.97071" lon="3.65642">
        <ele>694</ele>
        <time>2018-04-28T08:22:44Z</time>
      </trkpt>
      <trkpt lat="44.97069" lon="3.65635">
        <ele>694</ele>
        <time>2018-04-28T08:22:48Z</time>
      </trkpt>
      <trkpt lat="44.97074" lon="3.65514">
        <ele>686</ele>
        <time>2018-04-28T08:24:13Z</time>
      </trkpt>
      <trkpt lat="44.97073" lon="3.65367">
        <ele>678</ele>
        <time>2018-04-28T08:25:46Z</time>
      </trkpt>
      <trkpt lat="44.97069" lon="3.65361">
        <ele>677</ele>
        <time>2018-04-28T08:25:51Z</time>
      </trkpt>
      <trkpt lat="44.97058" lon="3.65127">
        <ele>664</ele>
        <time>2018-04-28T08:28:19Z</time>
      </trkpt>
      <trkpt lat="44.97059" lon="3.6512">
        <ele>663</ele>
        <time>2018-04-28T08:28:23Z</time>
      </trkpt>
      <trkpt lat="44.97055" lon="3.65042">
        <ele>659</ele>
        <time>2018-04-28T08:29:13Z</time>
      </trkpt>
      <trkpt lat="44.97057" lon="3.65029">
        <ele>658</ele>
        <time>2018-04-28T08:29:23Z</time>
      </trkpt>
      <trkpt lat="44.97055" lon="3.64984">
        <ele>655</ele>
        <time>2018-04-28T08:29:53Z</time>
      </trkpt>
      <trkpt lat="44.97049" lon="3.64951">
        <ele>652</ele>
        <time>2018-04-28T08:30:17Z</time>
      </trkpt>
      <trkpt lat="44.97041" lon="3.64931">
        <ele>651</ele>
        <time>2018-04-28T08:30:29Z</time>
      </trkpt>
      <trkpt lat="44.97028" lon="3.64878">
        <ele>648</ele>
        <time>2018-04-28T08:31:04Z</time>
      </trkpt>
      <trkpt lat="44.97015" lon="3.64854">
        <ele>645</ele>
        <time>2018-04-28T08:31:24Z</time>
      </trkpt>
      <trkpt lat="44.96995" lon="3.64831">
        <ele>643</ele>
        <time>2018-04-28T08:31:55Z</time>
      </trkpt>
      <trkpt lat="44.96993" lon="3.64825">
        <ele>642</ele>
        <time>2018-04-28T08:32:00Z</time>
      </trkpt>
      <trkpt lat="44.96948" lon="3.64771">
        <ele>636</ele>
        <time>2018-04-28T08:32:52Z</time>
      </trkpt>
      <trkpt lat="44.96937" lon="3.64766">
        <ele>635</ele>
        <time>2018-04-28T08:33:01Z</time>
      </trkpt>
      <trkpt lat="44.96927" lon="3.64764">
        <ele>634</ele>
        <time>2018-04-28T08:33:10Z</time>
      </trkpt>
      <trkpt lat="44.96907" lon="3.64771">
        <ele>632</ele>
        <time>2018-04-28T08:33:38Z</time>
      </trkpt>
      <trkpt lat="44.96902" lon="3.6477">
        <ele>631</ele>
        <time>2018-04-28T08:33:43Z</time>
      </trkpt>
      <trkpt lat="44.96898" lon="3.64775">
        <ele>630</ele>
        <time>2018-04-28T08:33:47Z</time>
      </trkpt>
      <trkpt lat="44.96842" lon="3.64797">
        <ele>623</ele>
        <time>2018-04-28T08:34:40Z</time>
      </trkpt>
      <trkpt lat="44.96832" lon="3.64797">
        <ele>621</ele>
        <time>2018-04-28T08:34:50Z</time>
      </trkpt>
      <trkpt lat="44.96823" lon="3.64794">
        <ele>620</ele>
        <time>2018-04-28T08:34:59Z</time>
      </trkpt>
      <trkpt lat="44.96819" lon="3.64789">
        <ele>620</ele>
        <time>2018-04-28T08:35:04Z</time>
      </trkpt>
      <trkpt lat="44.96817" lon="3.64782">
        <ele>619</ele>
        <time>2018-04-28T08:35:08Z</time>
      </trkpt>
      <trkpt lat="44.9682" lon="3.64759">
        <ele>618</ele>
        <time>2018-04-28T08:35:21Z</time>
      </trkpt>
      <trkpt lat="44.96823" lon="3.64754">
        <ele>617</ele>
        <time>2018-04-28T08:35:26Z</time>
      </trkpt>
      <trkpt lat="44.9683" lon="3.64744">
        <ele>616</ele>
        <time>2018-04-28T08:35:50Z</time>
      </trkpt>
      <trkpt lat="44.96832" lon="3.64738">
        <ele>616</ele>
        <time>2018-04-28T08:36:07Z</time>
      </trkpt>
      <trkpt lat="44.96851" lon="3.64695">
        <ele>614</ele>
        <time>2018-04-28T08:36:38Z</time>
      </trkpt>
      <trkpt lat="44.96853" lon="3.64682">
        <ele>613</ele>
        <time>2018-04-28T08:36:47Z</time>
      </trkpt>
      <trkpt lat="44.96861" lon="3.64674">
        <ele>613</ele>
        <time>2018-04-28T08:36:57Z</time>
      </trkpt>
      <trkpt lat="44.96863" lon="3.64668">
        <ele>612</ele>
        <time>2018-04-28T08:37:02Z</time>
      </trkpt>
      <trkpt lat="44.96881" lon="3.64643">
        <ele>611</ele>
        <time>2018-04-28T08:37:25Z</time>
      </trkpt>
      <trkpt lat="44.96886" lon="3.6464">
        <ele>610</ele>
        <time>2018-04-28T08:37:30Z</time>
      </trkpt>
      <trkpt lat="44.96888" lon="3.64633">
        <ele>610</ele>
        <time>2018-04-28T08:37:35Z</time>
      </trkpt>
      <trkpt lat="44.96889" lon="3.64621">
        <ele>609</ele>
        <time>2018-04-28T08:37:49Z</time>
      </trkpt>
      <trkpt lat="44.96899" lon="3.64599">
        <ele>608</ele>
        <time>2018-04-28T08:38:09Z</time>
      </trkpt>
      <trkpt lat="44.96909" lon="3.64595">
        <ele>608</ele>
        <time>2018-04-28T08:38:17Z</time>
      </trkpt>
      <trkpt lat="44.96922" lon="3.64585">
        <ele>607</ele>
        <time>2018-04-28T08:38:48Z</time>
      </trkpt>
      <trkpt lat="44.96918" lon="3.64572">
        <ele>607</ele>
        <time>2018-04-28T08:38:54Z</time>
      </trkpt>
      <trkpt lat="44.96924" lon="3.64561">
        <ele>607</ele>
        <time>2018-04-28T08:39:02Z</time>
      </trkpt>
      <trkpt lat="44.96925" lon="3.64554">
        <ele>607</ele>
        <time>2018-04-28T08:39:17Z</time>
      </trkpt>
      <trkpt lat="44.96873" lon="3.64503">
        <ele>605</ele>
        <time>2018-04-28T08:40:15Z</time>
      </trkpt>
      <trkpt lat="44.96862" lon="3.64487">
        <ele>605</ele>
        <time>2018-04-28T08:40:27Z</time>
      </trkpt>
      <trkpt lat="44.9686" lon="3.64479">
        <ele>605</ele>
        <time>2018-04-28T08:40:32Z</time>
      </trkpt>
      <trkpt lat="44.96862" lon="3.64465">
        <ele>605</ele>
        <time>2018-04-28T08:40:42Z</time>
      </trkpt>
      <trkpt lat="44.9686" lon="3.64458">
        <ele>605</ele>
        <time>2018-04-28T08:40:50Z</time>
      </trkpt>
      <trkpt lat="44.96863" lon="3.64449">
        <ele>605</ele>
        <time>2018-04-28T08:41:14Z</time>
      </trkpt>
      <trkpt lat="44.96863" lon="3.64442">
        <ele>605</ele>
        <time>2018-04-28T08:41:30Z</time>
      </trkpt>
      <trkpt lat="44.9687" lon="3.64425">
        <ele>605</ele>
        <time>2018-04-28T08:41:46Z</time>
      </trkpt>
      <trkpt lat="44.9687" lon="3.6441">
        <ele>605</ele>
        <time>2018-04-28T08:42:02Z</time>
      </trkpt>
      <trkpt lat="44.96861" lon="3.64403">
        <ele>606</ele>
        <time>2018-04-28T08:42:26Z</time>
      </trkpt>
      <trkpt lat="44.96859" lon="3.64387">
        <ele>607</ele>
        <time>2018-04-28T08:42:44Z</time>
      </trkpt>
      <trkpt lat="44.96856" lon="3.64382">
        <ele>608</ele>
        <time>2018-04-28T08:42:50Z</time>
      </trkpt>
      <trkpt lat="44.96851" lon="3.64382">
        <ele>608</ele>
        <time>2018-04-28T08:43:08Z</time>
      </trkpt>
      <trkpt lat="44.9685" lon="3.64375">
        <ele>608</ele>
        <time>2018-04-28T08:43:44Z</time>
      </trkpt>
      <trkpt lat="44.96849" lon="3.64379">
        <ele>607</ele>
        <time>2018-04-28T08:46:32Z</time>
      </trkpt>
      <trkpt lat="44.96841" lon="3.64367">
        <ele>606</ele>
        <time>2018-04-28T08:49:33Z</time>
      </trkpt>
      <trkpt lat="44.96843" lon="3.64355">
        <ele>607</ele>
        <time>2018-04-28T08:49:57Z</time>
      </trkpt>
      <trkpt lat="44.96839" lon="3.64332">
        <ele>608</ele>
        <time>2018-04-28T08:52:02Z</time>
      </trkpt>
      <trkpt lat="44.9684" lon="3.64326">
        <ele>608</ele>
        <time>2018-04-28T08:52:14Z</time>
      </trkpt>
      <trkpt lat="44.96843" lon="3.64316">
        <ele>608</ele>
        <time>2018-04-28T08:52:56Z</time>
      </trkpt>
      <trkpt lat="44.96847" lon="3.64312">
        <ele>608</ele>
        <time>2018-04-28T08:53:00Z</time>
      </trkpt>
      <trkpt lat="44.96849" lon="3.64306">
        <ele>607</ele>
        <time>2018-04-28T08:53:05Z</time>
      </trkpt>
      <trkpt lat="44.96844" lon="3.64298">
        <ele>608</ele>
        <time>2018-04-28T08:53:12Z</time>
      </trkpt>
      <trkpt lat="44.9685" lon="3.64295">
        <ele>609</ele>
        <time>2018-04-28T08:53:19Z</time>
      </trkpt>
      <trkpt lat="44.96862" lon="3.6428">
        <ele>611</ele>
        <time>2018-04-28T08:53:34Z</time>
      </trkpt>
      <trkpt lat="44.96861" lon="3.64274">
        <ele>611</ele>
        <time>2018-04-28T08:53:39Z</time>
      </trkpt>
      <trkpt lat="44.96858" lon="3.64269">
        <ele>612</ele>
        <time>2018-04-28T08:53:53Z</time>
      </trkpt>
      <trkpt lat="44.96845" lon="3.64257">
        <ele>615</ele>
        <time>2018-04-28T08:54:13Z</time>
      </trkpt>
      <trkpt lat="44.96842" lon="3.64243">
        <ele>618</ele>
        <time>2018-04-28T08:54:31Z</time>
      </trkpt>
      <trkpt lat="44.96847" lon="3.64237">
        <ele>619</ele>
        <time>2018-04-28T08:54:43Z</time>
      </trkpt>
      <trkpt lat="44.96847" lon="3.64229">
        <ele>619</ele>
        <time>2018-04-28T08:54:55Z</time>
      </trkpt>
      <trkpt lat="44.9684" lon="3.64232">
        <ele>619</ele>
        <time>2018-04-28T08:55:31Z</time>
      </trkpt>
      <trkpt lat="44.96838" lon="3.64233">
        <ele>620</ele>
        <time>2018-04-28T08:56:43Z</time>
      </trkpt>
      <trkpt lat="44.96843" lon="3.64233">
        <ele>620</ele>
        <time>2018-04-28T08:59:33Z</time>
      </trkpt>
      <trkpt lat="44.96844" lon="3.64243">
        <ele>615</ele>
        <time>2018-04-28T09:11:54Z</time>
      </trkpt>
      <trkpt lat="44.9685" lon="3.64245">
        <ele>615</ele>
        <time>2018-04-28T09:12:01Z</time>
      </trkpt>
      <trkpt lat="44.96855" lon="3.64248">
        <ele>615</ele>
        <time>2018-04-28T09:12:06Z</time>
      </trkpt>
      <trkpt lat="44.96853" lon="3.64247">
        <ele>614</ele>
        <time>2018-04-28T09:13:26Z</time>
      </trkpt>
      <trkpt lat="44.96847" lon="3.64241">
        <ele>614</ele>
        <time>2018-04-28T09:13:36Z</time>
      </trkpt>
      <trkpt lat="44.96847" lon="3.64235">
        <ele>614</ele>
        <time>2018-04-28T09:14:15Z</time>
      </trkpt>
      <trkpt lat="44.96842" lon="3.64245">
        <ele>612</ele>
        <time>2018-04-28T09:15:33Z</time>
      </trkpt>
      <trkpt lat="44.96847" lon="3.64249">
        <ele>611</ele>
        <time>2018-04-28T09:15:38Z</time>
      </trkpt>
      <trkpt lat="44.96858" lon="3.64264">
        <ele>608</ele>
        <time>2018-04-28T09:16:18Z</time>
      </trkpt>
      <trkpt lat="44.96865" lon="3.64264">
        <ele>606</ele>
        <time>2018-04-28T09:16:30Z</time>
      </trkpt>
      <trkpt lat="44.96869" lon="3.64267">
        <ele>605</ele>
        <time>2018-04-28T09:16:36Z</time>
      </trkpt>
      <trkpt lat="44.96873" lon="3.64275">
        <ele>604</ele>
        <time>2018-04-28T09:16:44Z</time>
      </trkpt>
      <trkpt lat="44.96873" lon="3.64286">
        <ele>602</ele>
        <time>2018-04-28T09:16:56Z</time>
      </trkpt>
      <trkpt lat="44.96878" lon="3.64295">
        <ele>599</ele>
        <time>2018-04-28T09:17:07Z</time>
      </trkpt>
      <trkpt lat="44.96884" lon="3.64297">
        <ele>598</ele>
        <time>2018-04-28T09:17:15Z</time>
      </trkpt>
      <trkpt lat="44.96894" lon="3.64293">
        <ele>597</ele>
        <time>2018-04-28T09:17:25Z</time>
      </trkpt>
      <trkpt lat="44.96899" lon="3.64294">
        <ele>595</ele>
        <time>2018-04-28T09:17:34Z</time>
      </trkpt>
      <trkpt lat="44.96899" lon="3.64287">
        <ele>595</ele>
        <time>2018-04-28T09:17:46Z</time>
      </trkpt>
      <trkpt lat="44.96895" lon="3.64273">
        <ele>595</ele>
        <time>2018-04-28T09:17:57Z</time>
      </trkpt>
      <trkpt lat="44.96894" lon="3.64254">
        <ele>594</ele>
        <time>2018-04-28T09:18:10Z</time>
      </trkpt>
      <trkpt lat="44.96896" lon="3.64241">
        <ele>594</ele>
        <time>2018-04-28T09:18:19Z</time>
      </trkpt>
      <trkpt lat="44.96887" lon="3.642">
        <ele>593</ele>
        <time>2018-04-28T09:18:52Z</time>
      </trkpt>
      <trkpt lat="44.96887" lon="3.64185">
        <ele>592</ele>
        <time>2018-04-28T09:19:02Z</time>
      </trkpt>
      <trkpt lat="44.96888" lon="3.64178">
        <ele>592</ele>
        <time>2018-04-28T09:19:07Z</time>
      </trkpt>
      <trkpt lat="44.96887" lon="3.64171">
        <ele>591</ele>
        <time>2018-04-28T09:19:12Z</time>
      </trkpt>
      <trkpt lat="44.96889" lon="3.64164">
        <ele>591</ele>
        <time>2018-04-28T09:19:17Z</time>
      </trkpt>
      <trkpt lat="44.9689" lon="3.64158">
        <ele>590</ele>
        <time>2018-04-28T09:19:22Z</time>
      </trkpt>
      <trkpt lat="44.96894" lon="3.64154">
        <ele>590</ele>
        <time>2018-04-28T09:19:27Z</time>
      </trkpt>
      <trkpt lat="44.969" lon="3.64151">
        <ele>590</ele>
        <time>2018-04-28T09:19:35Z</time>
      </trkpt>
      <trkpt lat="44.96915" lon="3.64152">
        <ele>590</ele>
        <time>2018-04-28T09:19:50Z</time>
      </trkpt>
      <trkpt lat="44.96925" lon="3.64149">
        <ele>591</ele>
        <time>2018-04-28T09:20:00Z</time>
      </trkpt>
      <trkpt lat="44.96932" lon="3.64146">
        <ele>592</ele>
        <time>2018-04-28T09:20:08Z</time>
      </trkpt>
      <trkpt lat="44.96938" lon="3.64146">
        <ele>593</ele>
        <time>2018-04-28T09:20:15Z</time>
      </trkpt>
      <trkpt lat="44.96944" lon="3.64142">
        <ele>594</ele>
        <time>2018-04-28T09:20:23Z</time>
      </trkpt>
      <trkpt lat="44.96968" lon="3.64133">
        <ele>598</ele>
        <time>2018-04-28T09:20:53Z</time>
      </trkpt>
      <trkpt lat="44.96984" lon="3.64128">
        <ele>601</ele>
        <time>2018-04-28T09:21:11Z</time>
      </trkpt>
      <trkpt lat="44.97004" lon="3.64108">
        <ele>604</ele>
        <time>2018-04-28T09:21:43Z</time>
      </trkpt>
      <trkpt lat="44.97007" lon="3.64103">
        <ele>605</ele>
        <time>2018-04-28T09:21:51Z</time>
      </trkpt>
      <trkpt lat="44.97023" lon="3.64086">
        <ele>608</ele>
        <time>2018-04-28T09:22:34Z</time>
      </trkpt>
      <trkpt lat="44.97026" lon="3.64081">
        <ele>608</ele>
        <time>2018-04-28T09:22:39Z</time>
      </trkpt>
      <trkpt lat="44.97029" lon="3.64075">
        <ele>608</ele>
        <time>2018-04-28T09:22:44Z</time>
      </trkpt>
      <trkpt lat="44.97055" lon="3.6405">
        <ele>612</ele>
        <time>2018-04-28T09:23:17Z</time>
      </trkpt>
      <trkpt lat="44.97073" lon="3.64038">
        <ele>615</ele>
        <time>2018-04-28T09:23:45Z</time>
      </trkpt>
      <trkpt lat="44.97084" lon="3.64034">
        <ele>617</ele>
        <time>2018-04-28T09:24:21Z</time>
      </trkpt>
      <trkpt lat="44.97089" lon="3.64032">
        <ele>617</ele>
        <time>2018-04-28T09:24:27Z</time>
      </trkpt>
      <trkpt lat="44.97108" lon="3.64012">
        <ele>622</ele>
        <time>2018-04-28T09:25:03Z</time>
      </trkpt>
      <trkpt lat="44.97113" lon="3.64004">
        <ele>623</ele>
        <time>2018-04-28T09:25:15Z</time>
      </trkpt>
      <trkpt lat="44.97136" lon="3.63989">
        <ele>629</ele>
        <time>2018-04-28T09:25:58Z</time>
      </trkpt>
      <trkpt lat="44.9714" lon="3.63979">
        <ele>631</ele>
        <time>2018-04-28T09:26:10Z</time>
      </trkpt>
      <trkpt lat="44.97145" lon="3.63973">
        <ele>633</ele>
        <time>2018-04-28T09:26:28Z</time>
      </trkpt>
      <trkpt lat="44.97149" lon="3.63967">
        <ele>635</ele>
        <time>2018-04-28T09:26:40Z</time>
      </trkpt>
      <trkpt lat="44.9715" lon="3.63957">
        <ele>637</ele>
        <time>2018-04-28T09:26:52Z</time>
      </trkpt>
      <trkpt lat="44.97155" lon="3.63956">
        <ele>639</ele>
        <time>2018-04-28T09:27:04Z</time>
      </trkpt>
      <trkpt lat="44.97159" lon="3.6396">
        <ele>641</ele>
        <time>2018-04-28T09:27:16Z</time>
      </trkpt>
      <trkpt lat="44.97168" lon="3.63961">
        <ele>641</ele>
        <time>2018-04-28T09:27:37Z</time>
      </trkpt>
      <trkpt lat="44.97175" lon="3.6397">
        <ele>640</ele>
        <time>2018-04-28T09:27:45Z</time>
      </trkpt>
      <trkpt lat="44.97182" lon="3.63971">
        <ele>640</ele>
        <time>2018-04-28T09:28:06Z</time>
      </trkpt>
      <trkpt lat="44.97186" lon="3.63968">
        <ele>640</ele>
        <time>2018-04-28T09:28:12Z</time>
      </trkpt>
      <trkpt lat="44.97193" lon="3.63966">
        <ele>640</ele>
        <time>2018-04-28T09:28:25Z</time>
      </trkpt>
      <trkpt lat="44.97203" lon="3.63964">
        <ele>643</ele>
        <time>2018-04-28T09:28:45Z</time>
      </trkpt>
      <trkpt lat="44.97208" lon="3.63967">
        <ele>643</ele>
        <time>2018-04-28T09:28:51Z</time>
      </trkpt>
      <trkpt lat="44.97217" lon="3.63964">
        <ele>644</ele>
        <time>2018-04-28T09:29:05Z</time>
      </trkpt>
      <trkpt lat="44.97222" lon="3.63969">
        <ele>644</ele>
        <time>2018-04-28T09:29:10Z</time>
      </trkpt>
      <trkpt lat="44.97226" lon="3.6397">
        <ele>644</ele>
        <time>2018-04-28T09:29:14Z</time>
      </trkpt>
      <trkpt lat="44.9723" lon="3.63975">
        <ele>644</ele>
        <time>2018-04-28T09:29:18Z</time>
      </trkpt>
      <trkpt lat="44.97233" lon="3.63981">
        <ele>644</ele>
        <time>2018-04-28T09:29:23Z</time>
      </trkpt>
      <trkpt lat="44.97239" lon="3.63985">
        <ele>645</ele>
        <time>2018-04-28T09:29:37Z</time>
      </trkpt>
      <trkpt lat="44.97245" lon="3.63988">
        <ele>646</ele>
        <time>2018-04-28T09:29:49Z</time>
      </trkpt>
      <trkpt lat="44.97251" lon="3.63997">
        <ele>649</ele>
        <time>2018-04-28T09:30:01Z</time>
      </trkpt>
      <trkpt lat="44.97259" lon="3.64004">
        <ele>649</ele>
        <time>2018-04-28T09:30:12Z</time>
      </trkpt>
      <trkpt lat="44.97265" lon="3.64004">
        <ele>648</ele>
        <time>2018-04-28T09:30:22Z</time>
      </trkpt>
      <trkpt lat="44.97286" lon="3.64026">
        <ele>646</ele>
        <time>2018-04-28T09:30:55Z</time>
      </trkpt>
      <trkpt lat="44.97295" lon="3.64031">
        <ele>648</ele>
        <time>2018-04-28T09:31:13Z</time>
      </trkpt>
      <trkpt lat="44.973" lon="3.64032">
        <ele>649</ele>
        <time>2018-04-28T09:31:37Z</time>
      </trkpt>
      <trkpt lat="44.97305" lon="3.64035">
        <ele>648</ele>
        <time>2018-04-28T09:31:44Z</time>
      </trkpt>
      <trkpt lat="44.97309" lon="3.6404">
        <ele>647</ele>
        <time>2018-04-28T09:31:49Z</time>
      </trkpt>
      <trkpt lat="44.97315" lon="3.64053">
        <ele>645</ele>
        <time>2018-04-28T09:32:01Z</time>
      </trkpt>
      <trkpt lat="44.97319" lon="3.64057">
        <ele>644</ele>
        <time>2018-04-28T09:32:06Z</time>
      </trkpt>
      <trkpt lat="44.97324" lon="3.64057">
        <ele>643</ele>
        <time>2018-04-28T09:32:14Z</time>
      </trkpt>
      <trkpt lat="44.97323" lon="3.64036">
        <ele>645</ele>
        <time>2018-04-28T09:33:25Z</time>
      </trkpt>
      <trkpt lat="44.97309" lon="3.64003">
        <ele>650</ele>
        <time>2018-04-28T09:34:00Z</time>
      </trkpt>
      <trkpt lat="44.97296" lon="3.63982">
        <ele>654</ele>
        <time>2018-04-28T09:34:35Z</time>
      </trkpt>
      <trkpt lat="44.97285" lon="3.63968">
        <ele>657</ele>
        <time>2018-04-28T09:34:56Z</time>
      </trkpt>
      <trkpt lat="44.97278" lon="3.63957">
        <ele>659</ele>
        <time>2018-04-28T09:35:09Z</time>
      </trkpt>
      <trkpt lat="44.97221" lon="3.63915">
        <ele>666</ele>
        <time>2018-04-28T09:36:45Z</time>
      </trkpt>
      <trkpt lat="44.97219" lon="3.63909">
        <ele>667</ele>
        <time>2018-04-28T09:37:03Z</time>
      </trkpt>
      <trkpt lat="44.97243" lon="3.63904">
        <ele>670</ele>
        <time>2018-04-28T09:37:27Z</time>
      </trkpt>
      <trkpt lat="44.97275" lon="3.63908">
        <ele>673</ele>
        <time>2018-04-28T09:37:56Z</time>
      </trkpt>
      <trkpt lat="44.97293" lon="3.63917">
        <ele>677</ele>
        <time>2018-04-28T09:38:24Z</time>
      </trkpt>
      <trkpt lat="44.97298" lon="3.63921">
        <ele>678</ele>
        <time>2018-04-28T09:38:46Z</time>
      </trkpt>
      <trkpt lat="44.97312" lon="3.63931">
        <ele>679</ele>
        <time>2018-04-28T09:39:02Z</time>
      </trkpt>
      <trkpt lat="44.97317" lon="3.63941">
        <ele>682</ele>
        <time>2018-04-28T09:39:13Z</time>
      </trkpt>
      <trkpt lat="44.97319" lon="3.63956">
        <ele>684</ele>
        <time>2018-04-28T09:39:32Z</time>
      </trkpt>
      <trkpt lat="44.97323" lon="3.6396">
        <ele>684</ele>
        <time>2018-04-28T09:39:44Z</time>
      </trkpt>
      <trkpt lat="44.97334" lon="3.63962">
        <ele>685</ele>
        <time>2018-04-28T09:40:08Z</time>
      </trkpt>
      <trkpt lat="44.9733" lon="3.63939">
        <ele>688</ele>
        <time>2018-04-28T09:40:50Z</time>
      </trkpt>
      <trkpt lat="44.97328" lon="3.63919">
        <ele>693</ele>
        <time>2018-04-28T09:41:20Z</time>
      </trkpt>
      <trkpt lat="44.97328" lon="3.63912">
        <ele>694</ele>
        <time>2018-04-28T09:41:32Z</time>
      </trkpt>
      <trkpt lat="44.97327" lon="3.63904">
        <ele>694</ele>
        <time>2018-04-28T09:41:44Z</time>
      </trkpt>
      <trkpt lat="44.97322" lon="3.63898">
        <ele>696</ele>
        <time>2018-04-28T09:41:54Z</time>
      </trkpt>
      <trkpt lat="44.9732" lon="3.63892">
        <ele>697</ele>
        <time>2018-04-28T09:42:04Z</time>
      </trkpt>
      <trkpt lat="44.97317" lon="3.63887">
        <ele>699</ele>
        <time>2018-04-28T09:42:14Z</time>
      </trkpt>
      <trkpt lat="44.97315" lon="3.63877">
        <ele>700</ele>
        <time>2018-04-28T09:42:35Z</time>
      </trkpt>
      <trkpt lat="44.97293" lon="3.63857">
        <ele>706</ele>
        <time>2018-04-28T09:45:38Z</time>
      </trkpt>
      <trkpt lat="44.9729" lon="3.63851">
        <ele>709</ele>
        <time>2018-04-28T09:45:56Z</time>
      </trkpt>
      <trkpt lat="44.97285" lon="3.63846">
        <ele>711</ele>
        <time>2018-04-28T09:46:14Z</time>
      </trkpt>
      <trkpt lat="44.97278" lon="3.63827">
        <ele>717</ele>
        <time>2018-04-28T09:46:56Z</time>
      </trkpt>
      <trkpt lat="44.97267" lon="3.63817">
        <ele>721</ele>
        <time>2018-04-28T09:47:38Z</time>
      </trkpt>
      <trkpt lat="44.97265" lon="3.63811">
        <ele>722</ele>
        <time>2018-04-28T09:47:50Z</time>
      </trkpt>
      <trkpt lat="44.97258" lon="3.63807">
        <ele>725</ele>
        <time>2018-04-28T09:48:26Z</time>
      </trkpt>
      <trkpt lat="44.97239" lon="3.63788">
        <ele>729</ele>
        <time>2018-04-28T09:49:01Z</time>
      </trkpt>
      <trkpt lat="44.97227" lon="3.6378">
        <ele>732</ele>
        <time>2018-04-28T09:49:21Z</time>
      </trkpt>
      <trkpt lat="44.97219" lon="3.63779">
        <ele>733</ele>
        <time>2018-04-28T09:49:31Z</time>
      </trkpt>
      <trkpt lat="44.97215" lon="3.63782">
        <ele>733</ele>
        <time>2018-04-28T09:49:41Z</time>
      </trkpt>
      <trkpt lat="44.97207" lon="3.63784">
        <ele>734</ele>
        <time>2018-04-28T09:49:52Z</time>
      </trkpt>
      <trkpt lat="44.972" lon="3.63779">
        <ele>735</ele>
        <time>2018-04-28T09:50:04Z</time>
      </trkpt>
      <trkpt lat="44.97199" lon="3.6377">
        <ele>737</ele>
        <time>2018-04-28T09:50:12Z</time>
      </trkpt>
      <trkpt lat="44.97203" lon="3.63766">
        <ele>739</ele>
        <time>2018-04-28T09:50:20Z</time>
      </trkpt>
      <trkpt lat="44.97204" lon="3.6376">
        <ele>739</ele>
        <time>2018-04-28T09:50:26Z</time>
      </trkpt>
      <trkpt lat="44.97206" lon="3.63754">
        <ele>739</ele>
        <time>2018-04-28T09:50:32Z</time>
      </trkpt>
      <trkpt lat="44.97212" lon="3.63751">
        <ele>738</ele>
        <time>2018-04-28T09:50:41Z</time>
      </trkpt>
      <trkpt lat="44.97224" lon="3.63755">
        <ele>739</ele>
        <time>2018-04-28T09:50:54Z</time>
      </trkpt>
      <trkpt lat="44.9723" lon="3.63754">
        <ele>740</ele>
        <time>2018-04-28T09:51:04Z</time>
      </trkpt>
      <trkpt lat="44.9724" lon="3.63755">
        <ele>741</ele>
        <time>2018-04-28T09:51:15Z</time>
      </trkpt>
      <trkpt lat="44.97249" lon="3.63744">
        <ele>742</ele>
        <time>2018-04-28T09:51:27Z</time>
      </trkpt>
      <trkpt lat="44.97252" lon="3.63738">
        <ele>742</ele>
        <time>2018-04-28T09:51:32Z</time>
      </trkpt>
      <trkpt lat="44.97267" lon="3.637">
        <ele>745</ele>
        <time>2018-04-28T09:52:04Z</time>
      </trkpt>
      <trkpt lat="44.97269" lon="3.63694">
        <ele>745</ele>
        <time>2018-04-28T09:52:09Z</time>
      </trkpt>
      <trkpt lat="44.97273" lon="3.63686">
        <ele>746</ele>
        <time>2018-04-28T09:52:16Z</time>
      </trkpt>
      <trkpt lat="44.97284" lon="3.63656">
        <ele>748</ele>
        <time>2018-04-28T09:52:36Z</time>
      </trkpt>
      <trkpt lat="44.97287" lon="3.63642">
        <ele>748</ele>
        <time>2018-04-28T09:52:45Z</time>
      </trkpt>
      <trkpt lat="44.97289" lon="3.63635">
        <ele>748</ele>
        <time>2018-04-28T09:52:50Z</time>
      </trkpt>
      <trkpt lat="44.97293" lon="3.63629">
        <ele>749</ele>
        <time>2018-04-28T09:53:11Z</time>
      </trkpt>
      <trkpt lat="44.97302" lon="3.63599">
        <ele>750</ele>
        <time>2018-04-28T09:53:55Z</time>
      </trkpt>
      <trkpt lat="44.97303" lon="3.63592">
        <ele>751</ele>
        <time>2018-04-28T09:54:01Z</time>
      </trkpt>
      <trkpt lat="44.97308" lon="3.6358">
        <ele>752</ele>
        <time>2018-04-28T09:54:12Z</time>
      </trkpt>
      <trkpt lat="44.97314" lon="3.63551">
        <ele>753</ele>
        <time>2018-04-28T09:54:37Z</time>
      </trkpt>
      <trkpt lat="44.97313" lon="3.63544">
        <ele>754</ele>
        <time>2018-04-28T09:54:49Z</time>
      </trkpt>
      <trkpt lat="44.97313" lon="3.63535">
        <ele>754</ele>
        <time>2018-04-28T09:54:57Z</time>
      </trkpt>
      <trkpt lat="44.97324" lon="3.63493">
        <ele>757</ele>
        <time>2018-04-28T09:55:39Z</time>
      </trkpt>
      <trkpt lat="44.97327" lon="3.63439">
        <ele>763</ele>
        <time>2018-04-28T09:56:42Z</time>
      </trkpt>
      <trkpt lat="44.97336" lon="3.63402">
        <ele>767</ele>
        <time>2018-04-28T09:57:28Z</time>
      </trkpt>
      <trkpt lat="44.97338" lon="3.63397">
        <ele>768</ele>
        <time>2018-04-28T09:57:34Z</time>
      </trkpt>
      <trkpt lat="44.9734" lon="3.63381">
        <ele>770</ele>
        <time>2018-04-28T09:57:46Z</time>
      </trkpt>
      <trkpt lat="44.97337" lon="3.63368">
        <ele>771</ele>
        <time>2018-04-28T09:57:56Z</time>
      </trkpt>
      <trkpt lat="44.97337" lon="3.63352">
        <ele>773</ele>
        <time>2018-04-28T09:58:10Z</time>
      </trkpt>
      <trkpt lat="44.97341" lon="3.63346">
        <ele>774</ele>
        <time>2018-04-28T09:58:18Z</time>
      </trkpt>
      <trkpt lat="44.97347" lon="3.63346">
        <ele>775</ele>
        <time>2018-04-28T09:59:12Z</time>
      </trkpt>
      <trkpt lat="44.9736" lon="3.63354">
        <ele>777</ele>
        <time>2018-04-28T09:59:28Z</time>
      </trkpt>
      <trkpt lat="44.9737" lon="3.63356">
        <ele>778</ele>
        <time>2018-04-28T09:59:37Z</time>
      </trkpt>
      <trkpt lat="44.97391" lon="3.63342">
        <ele>781</ele>
        <time>2018-04-28T10:00:06Z</time>
      </trkpt>
      <trkpt lat="44.97426" lon="3.63309">
        <ele>785</ele>
        <time>2018-04-28T10:00:49Z</time>
      </trkpt>
      <trkpt lat="44.97431" lon="3.63303">
        <ele>785</ele>
        <time>2018-04-28T10:00:56Z</time>
      </trkpt>
      <trkpt lat="44.97441" lon="3.63285">
        <ele>785</ele>
        <time>2018-04-28T10:01:10Z</time>
      </trkpt>
      <trkpt lat="44.97446" lon="3.63265">
        <ele>786</ele>
        <time>2018-04-28T10:01:23Z</time>
      </trkpt>
      <trkpt lat="44.97447" lon="3.63249">
        <ele>788</ele>
        <time>2018-04-28T10:01:35Z</time>
      </trkpt>
      <trkpt lat="44.97451" lon="3.63234">
        <ele>790</ele>
        <time>2018-04-28T10:01:47Z</time>
      </trkpt>
      <trkpt lat="44.97451" lon="3.63228">
        <ele>791</ele>
        <time>2018-04-28T10:01:58Z</time>
      </trkpt>
      <trkpt lat="44.97457" lon="3.63207">
        <ele>792</ele>
        <time>2018-04-28T10:02:29Z</time>
      </trkpt>
      <trkpt lat="44.97459" lon="3.63202">
        <ele>793</ele>
        <time>2018-04-28T10:02:38Z</time>
      </trkpt>
      <trkpt lat="44.97461" lon="3.63179">
        <ele>795</ele>
        <time>2018-04-28T10:02:56Z</time>
      </trkpt>
      <trkpt lat="44.9746" lon="3.63172">
        <ele>796</ele>
        <time>2018-04-28T10:03:09Z</time>
      </trkpt>
      <trkpt lat="44.97468" lon="3.63146">
        <ele>799</ele>
        <time>2018-04-28T10:03:38Z</time>
      </trkpt>
      <trkpt lat="44.97468" lon="3.63134">
        <ele>800</ele>
        <time>2018-04-28T10:03:55Z</time>
      </trkpt>
      <trkpt lat="44.97476" lon="3.63109">
        <ele>802</ele>
        <time>2018-04-28T10:04:19Z</time>
      </trkpt>
      <trkpt lat="44.97476" lon="3.63093">
        <ele>803</ele>
        <time>2018-04-28T10:04:34Z</time>
      </trkpt>
      <trkpt lat="44.97474" lon="3.63087">
        <ele>804</ele>
        <time>2018-04-28T10:05:16Z</time>
      </trkpt>
      <trkpt lat="44.97469" lon="3.63097">
        <ele>805</ele>
        <time>2018-04-28T10:05:28Z</time>
      </trkpt>
      <trkpt lat="44.9747" lon="3.63103">
        <ele>805</ele>
        <time>2018-04-28T10:05:33Z</time>
      </trkpt>
      <trkpt lat="44.97471" lon="3.63111">
        <ele>806</ele>
        <time>2018-04-28T10:05:38Z</time>
      </trkpt>
      <trkpt lat="44.97471" lon="3.63118">
        <ele>806</ele>
        <time>2018-04-28T10:05:43Z</time>
      </trkpt>
      <trkpt lat="44.97464" lon="3.63136">
        <ele>807</ele>
        <time>2018-04-28T10:05:57Z</time>
      </trkpt>
      <trkpt lat="44.97453" lon="3.63151">
        <ele>809</ele>
        <time>2018-04-28T10:06:13Z</time>
      </trkpt>
      <trkpt lat="44.97449" lon="3.63154">
        <ele>810</ele>
        <time>2018-04-28T10:06:21Z</time>
      </trkpt>
      <trkpt lat="44.97445" lon="3.63159">
        <ele>811</ele>
        <time>2018-04-28T10:06:27Z</time>
      </trkpt>
      <trkpt lat="44.97426" lon="3.63171">
        <ele>813</ele>
        <time>2018-04-28T10:06:47Z</time>
      </trkpt>
      <trkpt lat="44.97416" lon="3.6317">
        <ele>814</ele>
        <time>2018-04-28T10:07:00Z</time>
      </trkpt>
      <trkpt lat="44.9741" lon="3.6317">
        <ele>814</ele>
        <time>2018-04-28T10:07:05Z</time>
      </trkpt>
      <trkpt lat="44.97406" lon="3.63163">
        <ele>815</ele>
        <time>2018-04-28T10:07:15Z</time>
      </trkpt>
      <trkpt lat="44.97408" lon="3.63156">
        <ele>815</ele>
        <time>2018-04-28T10:07:21Z</time>
      </trkpt>
      <trkpt lat="44.9742" lon="3.63133">
        <ele>818</ele>
        <time>2018-04-28T10:07:59Z</time>
      </trkpt>
      <trkpt lat="44.97424" lon="3.63113">
        <ele>818</ele>
        <time>2018-04-28T10:08:14Z</time>
      </trkpt>
      <trkpt lat="44.97422" lon="3.63094">
        <ele>820</ele>
        <time>2018-04-28T10:08:50Z</time>
      </trkpt>
      <trkpt lat="44.97419" lon="3.63087">
        <ele>822</ele>
        <time>2018-04-28T10:09:02Z</time>
      </trkpt>
      <trkpt lat="44.97419" lon="3.63078">
        <ele>823</ele>
        <time>2018-04-28T10:09:14Z</time>
      </trkpt>
      <trkpt lat="44.97421" lon="3.63072">
        <ele>825</ele>
        <time>2018-04-28T10:09:32Z</time>
      </trkpt>
      <trkpt lat="44.9742" lon="3.63064">
        <ele>826</ele>
        <time>2018-04-28T10:09:43Z</time>
      </trkpt>
      <trkpt lat="44.97418" lon="3.63058">
        <ele>826</ele>
        <time>2018-04-28T10:09:48Z</time>
      </trkpt>
      <trkpt lat="44.97416" lon="3.63048">
        <ele>826</ele>
        <time>2018-04-28T10:09:55Z</time>
      </trkpt>
      <trkpt lat="44.97421" lon="3.63016">
        <ele>828</ele>
        <time>2018-04-28T10:10:30Z</time>
      </trkpt>
      <trkpt lat="44.97433" lon="3.62959">
        <ele>834</ele>
        <time>2018-04-28T10:16:24Z</time>
      </trkpt>
      <trkpt lat="44.97431" lon="3.62947">
        <ele>835</ele>
        <time>2018-04-28T10:16:42Z</time>
      </trkpt>
      <trkpt lat="44.97426" lon="3.62956">
        <ele>837</ele>
        <time>2018-04-28T10:16:53Z</time>
      </trkpt>
      <trkpt lat="44.97422" lon="3.62971">
        <ele>838</ele>
        <time>2018-04-28T10:17:06Z</time>
      </trkpt>
      <trkpt lat="44.97419" lon="3.62977">
        <ele>838</ele>
        <time>2018-04-28T10:17:12Z</time>
      </trkpt>
      <trkpt lat="44.97415" lon="3.62981">
        <ele>838</ele>
        <time>2018-04-28T10:17:17Z</time>
      </trkpt>
      <trkpt lat="44.974" lon="3.62986">
        <ele>840</ele>
        <time>2018-04-28T10:17:32Z</time>
      </trkpt>
      <trkpt lat="44.97392" lon="3.62983">
        <ele>841</ele>
        <time>2018-04-28T10:17:43Z</time>
      </trkpt>
      <trkpt lat="44.97385" lon="3.62984">
        <ele>842</ele>
        <time>2018-04-28T10:17:50Z</time>
      </trkpt>
      <trkpt lat="44.97365" lon="3.62981">
        <ele>844</ele>
        <time>2018-04-28T10:18:09Z</time>
      </trkpt>
      <trkpt lat="44.97341" lon="3.62979">
        <ele>845</ele>
        <time>2018-04-28T10:18:37Z</time>
      </trkpt>
      <trkpt lat="44.9733" lon="3.62977">
        <ele>847</ele>
        <time>2018-04-28T10:18:49Z</time>
      </trkpt>
      <trkpt lat="44.97323" lon="3.62973">
        <ele>847</ele>
        <time>2018-04-28T10:18:57Z</time>
      </trkpt>
      <trkpt lat="44.9732" lon="3.62967">
        <ele>847</ele>
        <time>2018-04-28T10:19:02Z</time>
      </trkpt>
      <trkpt lat="44.97311" lon="3.62941">
        <ele>849</ele>
        <time>2018-04-28T10:19:23Z</time>
      </trkpt>
      <trkpt lat="44.97315" lon="3.62934">
        <ele>850</ele>
        <time>2018-04-28T10:19:31Z</time>
      </trkpt>
      <trkpt lat="44.9732" lon="3.62941">
        <ele>853</ele>
        <time>2018-04-28T10:19:44Z</time>
      </trkpt>
      <trkpt lat="44.97325" lon="3.62942">
        <ele>854</ele>
        <time>2018-04-28T10:19:50Z</time>
      </trkpt>
      <trkpt lat="44.9733" lon="3.62944">
        <ele>854</ele>
        <time>2018-04-28T10:19:55Z</time>
      </trkpt>
      <trkpt lat="44.97338" lon="3.62945">
        <ele>854</ele>
        <time>2018-04-28T10:20:07Z</time>
      </trkpt>
      <trkpt lat="44.97345" lon="3.62941">
        <ele>855</ele>
        <time>2018-04-28T10:20:33Z</time>
      </trkpt>
      <trkpt lat="44.97348" lon="3.62936">
        <ele>856</ele>
        <time>2018-04-28T10:20:39Z</time>
      </trkpt>
      <trkpt lat="44.97369" lon="3.62917">
        <ele>858</ele>
        <time>2018-04-28T10:21:09Z</time>
      </trkpt>
      <trkpt lat="44.97377" lon="3.62907">
        <ele>859</ele>
        <time>2018-04-28T10:21:18Z</time>
      </trkpt>
      <trkpt lat="44.9738" lon="3.62898">
        <ele>861</ele>
        <time>2018-04-28T10:21:29Z</time>
      </trkpt>
      <trkpt lat="44.97381" lon="3.62891">
        <ele>861</ele>
        <time>2018-04-28T10:21:47Z</time>
      </trkpt>
      <trkpt lat="44.97405" lon="3.62825">
        <ele>868</ele>
        <time>2018-04-28T10:23:05Z</time>
      </trkpt>
      <trkpt lat="44.97404" lon="3.6281">
        <ele>869</ele>
        <time>2018-04-28T10:23:29Z</time>
      </trkpt>
      <trkpt lat="44.97409" lon="3.62798">
        <ele>870</ele>
        <time>2018-04-28T10:23:39Z</time>
      </trkpt>
      <trkpt lat="44.97406" lon="3.62796">
        <ele>875</ele>
        <time>2018-04-28T10:25:10Z</time>
      </trkpt>
      <trkpt lat="44.97397" lon="3.62811">
        <ele>876</ele>
        <time>2018-04-28T10:25:26Z</time>
      </trkpt>
      <trkpt lat="44.97366" lon="3.62842">
        <ele>880</ele>
        <time>2018-04-28T10:26:23Z</time>
      </trkpt>
      <trkpt lat="44.97357" lon="3.62847">
        <ele>881</ele>
        <time>2018-04-28T10:26:33Z</time>
      </trkpt>
      <trkpt lat="44.97341" lon="3.62848">
        <ele>883</ele>
        <time>2018-04-28T10:26:48Z</time>
      </trkpt>
      <trkpt lat="44.97338" lon="3.62843">
        <ele>883</ele>
        <time>2018-04-28T10:26:53Z</time>
      </trkpt>
      <trkpt lat="44.97336" lon="3.62837">
        <ele>883</ele>
        <time>2018-04-28T10:26:58Z</time>
      </trkpt>
      <trkpt lat="44.97348" lon="3.62831">
        <ele>886</ele>
        <time>2018-04-28T10:27:19Z</time>
      </trkpt>
      <trkpt lat="44.97352" lon="3.62824">
        <ele>886</ele>
        <time>2018-04-28T10:27:26Z</time>
      </trkpt>
      <trkpt lat="44.97357" lon="3.6282">
        <ele>886</ele>
        <time>2018-04-28T10:27:34Z</time>
      </trkpt>
      <trkpt lat="44.97369" lon="3.62793">
        <ele>889</ele>
        <time>2018-04-28T10:28:33Z</time>
      </trkpt>
      <trkpt lat="44.97376" lon="3.62767">
        <ele>891</ele>
        <time>2018-04-28T10:29:05Z</time>
      </trkpt>
      <trkpt lat="44.97378" lon="3.62758">
        <ele>891</ele>
        <time>2018-04-28T10:29:10Z</time>
      </trkpt>
      <trkpt lat="44.97383" lon="3.62746">
        <ele>891</ele>
        <time>2018-04-28T10:29:17Z</time>
      </trkpt>
      <trkpt lat="44.97392" lon="3.62712">
        <ele>892</ele>
        <time>2018-04-28T10:30:07Z</time>
      </trkpt>
      <trkpt lat="44.97398" lon="3.62703">
        <ele>893</ele>
        <time>2018-04-28T10:30:17Z</time>
      </trkpt>
      <trkpt lat="44.974" lon="3.62689">
        <ele>894</ele>
        <time>2018-04-28T10:30:25Z</time>
      </trkpt>
      <trkpt lat="44.97396" lon="3.62693">
        <ele>896</ele>
        <time>2018-04-28T10:30:41Z</time>
      </trkpt>
      <trkpt lat="44.97387" lon="3.62721">
        <ele>898</ele>
        <time>2018-04-28T10:31:05Z</time>
      </trkpt>
      <trkpt lat="44.97363" lon="3.62757">
        <ele>900</ele>
        <time>2018-04-28T10:31:40Z</time>
      </trkpt>
      <trkpt lat="44.97358" lon="3.62762">
        <ele>901</ele>
        <time>2018-04-28T10:31:54Z</time>
      </trkpt>
      <trkpt lat="44.97354" lon="3.62767">
        <ele>901</ele>
        <time>2018-04-28T10:31:59Z</time>
      </trkpt>
      <trkpt lat="44.9735" lon="3.6277">
        <ele>902</ele>
        <time>2018-04-28T10:32:03Z</time>
      </trkpt>
      <trkpt lat="44.9734" lon="3.62772">
        <ele>902</ele>
        <time>2018-04-28T10:32:12Z</time>
      </trkpt>
      <trkpt lat="44.97335" lon="3.62776">
        <ele>903</ele>
        <time>2018-04-28T10:32:17Z</time>
      </trkpt>
      <trkpt lat="44.9732" lon="3.62781">
        <ele>904</ele>
        <time>2018-04-28T10:32:35Z</time>
      </trkpt>
      <trkpt lat="44.97314" lon="3.62781">
        <ele>905</ele>
        <time>2018-04-28T10:32:45Z</time>
      </trkpt>
      <trkpt lat="44.97308" lon="3.62777">
        <ele>906</ele>
        <time>2018-04-28T10:33:04Z</time>
      </trkpt>
      <trkpt lat="44.973" lon="3.62768">
        <ele>906</ele>
        <time>2018-04-28T10:33:13Z</time>
      </trkpt>
      <trkpt lat="44.97295" lon="3.62758">
        <ele>906</ele>
        <time>2018-04-28T10:33:22Z</time>
      </trkpt>
      <trkpt lat="44.97281" lon="3.62672">
        <ele>913</ele>
        <time>2018-04-28T10:35:11Z</time>
      </trkpt>
      <trkpt lat="44.9728" lon="3.62659">
        <ele>914</ele>
        <time>2018-04-28T10:35:20Z</time>
      </trkpt>
      <trkpt lat="44.97274" lon="3.62647">
        <ele>914</ele>
        <time>2018-04-28T10:35:39Z</time>
      </trkpt>
      <trkpt lat="44.97259" lon="3.62632">
        <ele>916</ele>
        <time>2018-04-28T10:36:00Z</time>
      </trkpt>
      <trkpt lat="44.97256" lon="3.62626">
        <ele>917</ele>
        <time>2018-04-28T10:36:05Z</time>
      </trkpt>
      <trkpt lat="44.9726" lon="3.62621">
        <ele>917</ele>
        <time>2018-04-28T10:36:10Z</time>
      </trkpt>
      <trkpt lat="44.97271" lon="3.62623">
        <ele>919</ele>
        <time>2018-04-28T10:36:34Z</time>
      </trkpt>
      <trkpt lat="44.97279" lon="3.62627">
        <ele>920</ele>
        <time>2018-04-28T10:37:04Z</time>
      </trkpt>
      <trkpt lat="44.97289" lon="3.62635">
        <ele>922</ele>
        <time>2018-04-28T10:37:15Z</time>
      </trkpt>
      <trkpt lat="44.97293" lon="3.62639">
        <ele>922</ele>
        <time>2018-04-28T10:37:19Z</time>
      </trkpt>
      <trkpt lat="44.97314" lon="3.62652">
        <ele>924</ele>
        <time>2018-04-28T10:37:43Z</time>
      </trkpt>
      <trkpt lat="44.97321" lon="3.62645">
        <ele>924</ele>
        <time>2018-04-28T10:48:29Z</time>
      </trkpt>
      <trkpt lat="44.97319" lon="3.62671">
        <ele>925</ele>
        <time>2018-04-28T10:48:48Z</time>
      </trkpt>
      <trkpt lat="44.97318" lon="3.62656">
        <ele>924</ele>
        <time>2018-04-28T10:49:44Z</time>
      </trkpt>
      <trkpt lat="44.97319" lon="3.62656">
        <ele>925</ele>
        <time>2018-04-28T10:50:07Z</time>
      </trkpt>
      <trkpt lat="44.97318" lon="3.62665">
        <ele>925</ele>
        <time>2018-04-28T10:56:38Z</time>
      </trkpt>
      <trkpt lat="44.97315" lon="3.62661">
        <ele>927</ele>
        <time>2018-04-28T10:58:34Z</time>
      </trkpt>
      <trkpt lat="44.97315" lon="3.62654">
        <ele>927</ele>
        <time>2018-04-28T10:59:52Z</time>
      </trkpt>
      <trkpt lat="44.97318" lon="3.62645">
        <ele>929</ele>
        <time>2018-04-28T11:00:46Z</time>
      </trkpt>
      <trkpt lat="44.97322" lon="3.62639">
        <ele>930</ele>
        <time>2018-04-28T11:00:56Z</time>
      </trkpt>
      <trkpt lat="44.97337" lon="3.62551">
        <ele>937</ele>
        <time>2018-04-28T11:02:06Z</time>
      </trkpt>
      <trkpt lat="44.97345" lon="3.62526">
        <ele>940</ele>
        <time>2018-04-28T11:02:38Z</time>
      </trkpt>
      <trkpt lat="44.97346" lon="3.6252">
        <ele>940</ele>
        <time>2018-04-28T11:02:42Z</time>
      </trkpt>
      <trkpt lat="44.97354" lon="3.62507">
        <ele>941</ele>
        <time>2018-04-28T11:02:55Z</time>
      </trkpt>
      <trkpt lat="44.97359" lon="3.62489">
        <ele>942</ele>
        <time>2018-04-28T11:03:11Z</time>
      </trkpt>
      <trkpt lat="44.97363" lon="3.62484">
        <ele>943</ele>
        <time>2018-04-28T11:03:19Z</time>
      </trkpt>
      <trkpt lat="44.97365" lon="3.62478">
        <ele>943</ele>
        <time>2018-04-28T11:03:24Z</time>
      </trkpt>
      <trkpt lat="44.97373" lon="3.62444">
        <ele>948</ele>
        <time>2018-04-28T11:03:57Z</time>
      </trkpt>
      <trkpt lat="44.97373" lon="3.62438">
        <ele>948</ele>
        <time>2018-04-28T11:04:01Z</time>
      </trkpt>
      <trkpt lat="44.97378" lon="3.62435">
        <ele>949</ele>
        <time>2018-04-28T11:04:08Z</time>
      </trkpt>
      <trkpt lat="44.97384" lon="3.62438">
        <ele>949</ele>
        <time>2018-04-28T11:04:30Z</time>
      </trkpt>
      <trkpt lat="44.97387" lon="3.62425">
        <ele>950</ele>
        <time>2018-04-28T11:04:40Z</time>
      </trkpt>
      <trkpt lat="44.974" lon="3.62388">
        <ele>954</ele>
        <time>2018-04-28T11:05:10Z</time>
      </trkpt>
      <trkpt lat="44.974" lon="3.62382">
        <ele>954</ele>
        <time>2018-04-28T11:05:15Z</time>
      </trkpt>
      <trkpt lat="44.97411" lon="3.62346">
        <ele>956</ele>
        <time>2018-04-28T11:05:46Z</time>
      </trkpt>
      <trkpt lat="44.97409" lon="3.62335">
        <ele>958</ele>
        <time>2018-04-28T11:05:58Z</time>
      </trkpt>
      <trkpt lat="44.97405" lon="3.62334">
        <ele>959</ele>
        <time>2018-04-28T11:06:04Z</time>
      </trkpt>
      <trkpt lat="44.97394" lon="3.62356">
        <ele>962</ele>
        <time>2018-04-28T11:06:24Z</time>
      </trkpt>
      <trkpt lat="44.97391" lon="3.62361">
        <ele>962</ele>
        <time>2018-04-28T11:06:29Z</time>
      </trkpt>
      <trkpt lat="44.9738" lon="3.62369">
        <ele>963</ele>
        <time>2018-04-28T11:06:44Z</time>
      </trkpt>
      <trkpt lat="44.97377" lon="3.62374">
        <ele>964</ele>
        <time>2018-04-28T11:06:49Z</time>
      </trkpt>
      <trkpt lat="44.97373" lon="3.6238">
        <ele>964</ele>
        <time>2018-04-28T11:06:54Z</time>
      </trkpt>
      <trkpt lat="44.97346" lon="3.62408">
        <ele>966</ele>
        <time>2018-04-28T11:07:26Z</time>
      </trkpt>
      <trkpt lat="44.97326" lon="3.62422">
        <ele>968</ele>
        <time>2018-04-28T11:07:47Z</time>
      </trkpt>
      <trkpt lat="44.97321" lon="3.62423">
        <ele>968</ele>
        <time>2018-04-28T11:07:52Z</time>
      </trkpt>
      <trkpt lat="44.97311" lon="3.62421">
        <ele>969</ele>
        <time>2018-04-28T11:08:07Z</time>
      </trkpt>
      <trkpt lat="44.97306" lon="3.62419">
        <ele>970</ele>
        <time>2018-04-28T11:08:12Z</time>
      </trkpt>
      <trkpt lat="44.97303" lon="3.62415">
        <ele>970</ele>
        <time>2018-04-28T11:08:16Z</time>
      </trkpt>
      <trkpt lat="44.973" lon="3.62411">
        <ele>971</ele>
        <time>2018-04-28T11:08:20Z</time>
      </trkpt>
      <trkpt lat="44.97297" lon="3.62403">
        <ele>971</ele>
        <time>2018-04-28T11:08:27Z</time>
      </trkpt>
      <trkpt lat="44.97295" lon="3.62396">
        <ele>972</ele>
        <time>2018-04-28T11:08:32Z</time>
      </trkpt>
      <trkpt lat="44.97293" lon="3.62391">
        <ele>973</ele>
        <time>2018-04-28T11:08:42Z</time>
      </trkpt>
      <trkpt lat="44.97293" lon="3.62383">
        <ele>974</ele>
        <time>2018-04-28T11:09:08Z</time>
      </trkpt>
      <trkpt lat="44.973" lon="3.62343">
        <ele>976</ele>
        <time>2018-04-28T11:09:36Z</time>
      </trkpt>
      <trkpt lat="44.97303" lon="3.62333">
        <ele>978</ele>
        <time>2018-04-28T11:09:49Z</time>
      </trkpt>
      <trkpt lat="44.97311" lon="3.62324">
        <ele>978</ele>
        <time>2018-04-28T11:09:59Z</time>
      </trkpt>
      <trkpt lat="44.9732" lon="3.62314">
        <ele>979</ele>
        <time>2018-04-28T11:10:12Z</time>
      </trkpt>
      <trkpt lat="44.97324" lon="3.62308">
        <ele>980</ele>
        <time>2018-04-28T11:10:18Z</time>
      </trkpt>
      <trkpt lat="44.97333" lon="3.62283">
        <ele>982</ele>
        <time>2018-04-28T11:10:47Z</time>
      </trkpt>
      <trkpt lat="44.97337" lon="3.62249">
        <ele>984</ele>
        <time>2018-04-28T11:11:18Z</time>
      </trkpt>
      <trkpt lat="44.97337" lon="3.62239">
        <ele>985</ele>
        <time>2018-04-28T11:11:30Z</time>
      </trkpt>
      <trkpt lat="44.97343" lon="3.62173">
        <ele>992</ele>
        <time>2018-04-28T11:12:50Z</time>
      </trkpt>
      <trkpt lat="44.97353" lon="3.62127">
        <ele>996</ele>
        <time>2018-04-28T11:13:32Z</time>
      </trkpt>
      <trkpt lat="44.97355" lon="3.62121">
        <ele>997</ele>
        <time>2018-04-28T11:13:38Z</time>
      </trkpt>
      <trkpt lat="44.97359" lon="3.62104">
        <ele>999</ele>
        <time>2018-04-28T11:14:02Z</time>
      </trkpt>
      <trkpt lat="44.97359" lon="3.62095">
        <ele>999</ele>
        <time>2018-04-28T11:14:14Z</time>
      </trkpt>
      <trkpt lat="44.9736" lon="3.62082">
        <ele>1000</ele>
        <time>2018-04-28T11:14:50Z</time>
      </trkpt>
      <trkpt lat="44.97362" lon="3.62076">
        <ele>1001</ele>
        <time>2018-04-28T11:14:54Z</time>
      </trkpt>
      <trkpt lat="44.9738" lon="3.62028">
        <ele>1005</ele>
        <time>2018-04-28T11:15:38Z</time>
      </trkpt>
      <trkpt lat="44.97384" lon="3.61958">
        <ele>1012</ele>
        <time>2018-04-28T11:16:57Z</time>
      </trkpt>
      <trkpt lat="44.97386" lon="3.6195">
        <ele>1014</ele>
        <time>2018-04-28T11:17:09Z</time>
      </trkpt>
      <trkpt lat="44.97387" lon="3.6193">
        <ele>1016</ele>
        <time>2018-04-28T11:22:03Z</time>
      </trkpt>
      <trkpt lat="44.97387" lon="3.61924">
        <ele>1017</ele>
        <time>2018-04-28T11:22:08Z</time>
      </trkpt>
      <trkpt lat="44.97385" lon="3.61917">
        <ele>1017</ele>
        <time>2018-04-28T11:22:13Z</time>
      </trkpt>
      <trkpt lat="44.97369" lon="3.61879">
        <ele>1020</ele>
        <time>2018-04-28T11:22:47Z</time>
      </trkpt>
      <trkpt lat="44.97361" lon="3.61868">
        <ele>1021</ele>
        <time>2018-04-28T11:22:57Z</time>
      </trkpt>
      <trkpt lat="44.97359" lon="3.61862">
        <ele>1021</ele>
        <time>2018-04-28T11:23:02Z</time>
      </trkpt>
      <trkpt lat="44.97346" lon="3.61788">
        <ele>1021</ele>
        <time>2018-04-28T11:24:55Z</time>
      </trkpt>
      <trkpt lat="44.97333" lon="3.61757">
        <ele>1022</ele>
        <time>2018-04-28T11:25:19Z</time>
      </trkpt>
      <trkpt lat="44.97317" lon="3.61729">
        <ele>1023</ele>
        <time>2018-04-28T11:25:42Z</time>
      </trkpt>
      <trkpt lat="44.97305" lon="3.61714">
        <ele>1025</ele>
        <time>2018-04-28T11:25:57Z</time>
      </trkpt>
      <trkpt lat="44.97296" lon="3.61698">
        <ele>1025</ele>
        <time>2018-04-28T11:26:10Z</time>
      </trkpt>
      <trkpt lat="44.97291" lon="3.61693">
        <ele>1026</ele>
        <time>2018-04-28T11:26:33Z</time>
      </trkpt>
      <trkpt lat="44.97283" lon="3.61652">
        <ele>1023</ele>
        <time>2018-04-28T11:26:59Z</time>
      </trkpt>
      <trkpt lat="44.97278" lon="3.61641">
        <ele>1023</ele>
        <time>2018-04-28T11:27:07Z</time>
      </trkpt>
      <trkpt lat="44.97259" lon="3.61618">
        <ele>1021</ele>
        <time>2018-04-28T11:27:30Z</time>
      </trkpt>
      <trkpt lat="44.97255" lon="3.61613">
        <ele>1021</ele>
        <time>2018-04-28T11:27:35Z</time>
      </trkpt>
      <trkpt lat="44.9725" lon="3.6161">
        <ele>1021</ele>
        <time>2018-04-28T11:27:40Z</time>
      </trkpt>
      <trkpt lat="44.97245" lon="3.61609">
        <ele>1021</ele>
        <time>2018-04-28T11:27:45Z</time>
      </trkpt>
      <trkpt lat="44.97234" lon="3.61611">
        <ele>1022</ele>
        <time>2018-04-28T11:27:55Z</time>
      </trkpt>
      <trkpt lat="44.97225" lon="3.61606">
        <ele>1021</ele>
        <time>2018-04-28T11:28:03Z</time>
      </trkpt>
      <trkpt lat="44.97206" lon="3.61595">
        <ele>1021</ele>
        <time>2018-04-28T11:28:21Z</time>
      </trkpt>
      <trkpt lat="44.97195" lon="3.61592">
        <ele>1021</ele>
        <time>2018-04-28T11:28:31Z</time>
      </trkpt>
      <trkpt lat="44.97175" lon="3.6159">
        <ele>1020</ele>
        <time>2018-04-28T11:28:49Z</time>
      </trkpt>
      <trkpt lat="44.97133" lon="3.61573">
        <ele>1018</ele>
        <time>2018-04-28T11:29:26Z</time>
      </trkpt>
      <trkpt lat="44.97118" lon="3.6157">
        <ele>1018</ele>
        <time>2018-04-28T11:29:39Z</time>
      </trkpt>
      <trkpt lat="44.97103" lon="3.61566">
        <ele>1018</ele>
        <time>2018-04-28T11:29:53Z</time>
      </trkpt>
      <trkpt lat="44.97087" lon="3.61564">
        <ele>1019</ele>
        <time>2018-04-28T11:30:08Z</time>
      </trkpt>
      <trkpt lat="44.97077" lon="3.61564">
        <ele>1019</ele>
        <time>2018-04-28T11:30:18Z</time>
      </trkpt>
      <trkpt lat="44.97073" lon="3.61565">
        <ele>1019</ele>
        <time>2018-04-28T11:30:22Z</time>
      </trkpt>
      <trkpt lat="44.97068" lon="3.61568">
        <ele>1019</ele>
        <time>2018-04-28T11:30:27Z</time>
      </trkpt>
      <trkpt lat="44.97046" lon="3.61594">
        <ele>1021</ele>
        <time>2018-04-28T11:31:06Z</time>
      </trkpt>
      <trkpt lat="44.97042" lon="3.61598">
        <ele>1022</ele>
        <time>2018-04-28T11:31:11Z</time>
      </trkpt>
      <trkpt lat="44.97027" lon="3.61604">
        <ele>1024</ele>
        <time>2018-04-28T11:31:38Z</time>
      </trkpt>
      <trkpt lat="44.97023" lon="3.61605">
        <ele>1024</ele>
        <time>2018-04-28T11:31:43Z</time>
      </trkpt>
      <trkpt lat="44.97012" lon="3.61602">
        <ele>1026</ele>
        <time>2018-04-28T11:31:53Z</time>
      </trkpt>
      <trkpt lat="44.96979" lon="3.61603">
        <ele>1029</ele>
        <time>2018-04-28T11:32:27Z</time>
      </trkpt>
      <trkpt lat="44.96938" lon="3.61607">
        <ele>1030</ele>
        <time>2018-04-28T11:33:06Z</time>
      </trkpt>
      <trkpt lat="44.96934" lon="3.6161">
        <ele>1030</ele>
        <time>2018-04-28T11:33:15Z</time>
      </trkpt>
      <trkpt lat="44.96928" lon="3.6161">
        <ele>1029</ele>
        <time>2018-04-28T11:35:27Z</time>
      </trkpt>
      <trkpt lat="44.96918" lon="3.61607">
        <ele>1029</ele>
        <time>2018-04-28T11:35:37Z</time>
      </trkpt>
      <trkpt lat="44.96907" lon="3.61608">
        <ele>1028</ele>
        <time>2018-04-28T11:35:45Z</time>
      </trkpt>
      <trkpt lat="44.96858" lon="3.61606">
        <ele>1029</ele>
        <time>2018-04-28T11:36:27Z</time>
      </trkpt>
      <trkpt lat="44.96819" lon="3.61601">
        <ele>1030</ele>
        <time>2018-04-28T11:37:01Z</time>
      </trkpt>
      <trkpt lat="44.9674" lon="3.61622">
        <ele>1031</ele>
        <time>2018-04-28T11:38:13Z</time>
      </trkpt>
      <trkpt lat="44.9673" lon="3.6162">
        <ele>1031</ele>
        <time>2018-04-28T11:38:22Z</time>
      </trkpt>
      <trkpt lat="44.96697" lon="3.61596">
        <ele>1034</ele>
        <time>2018-04-28T11:39:58Z</time>
      </trkpt>
      <trkpt lat="44.96677" lon="3.61587">
        <ele>1036</ele>
        <time>2018-04-28T11:40:17Z</time>
      </trkpt>
      <trkpt lat="44.96644" lon="3.61576">
        <ele>1039</ele>
        <time>2018-04-28T11:40:48Z</time>
      </trkpt>
      <trkpt lat="44.9664" lon="3.61573">
        <ele>1039</ele>
        <time>2018-04-28T11:41:32Z</time>
      </trkpt>
      <trkpt lat="44.96614" lon="3.61567">
        <ele>1042</ele>
        <time>2018-04-28T11:41:58Z</time>
      </trkpt>
      <trkpt lat="44.9661" lon="3.61565">
        <ele>1042</ele>
        <time>2018-04-28T11:42:03Z</time>
      </trkpt>
      <trkpt lat="44.96596" lon="3.61561">
        <ele>1043</ele>
        <time>2018-04-28T11:42:17Z</time>
      </trkpt>
      <trkpt lat="44.96562" lon="3.61546">
        <ele>1045</ele>
        <time>2018-04-28T11:42:48Z</time>
      </trkpt>
      <trkpt lat="44.96541" lon="3.61528">
        <ele>1046</ele>
        <time>2018-04-28T11:43:09Z</time>
      </trkpt>
      <trkpt lat="44.96489" lon="3.61502">
        <ele>1048</ele>
        <time>2018-04-28T11:43:59Z</time>
      </trkpt>
      <trkpt lat="44.96459" lon="3.61493">
        <ele>1047</ele>
        <time>2018-04-28T11:44:24Z</time>
      </trkpt>
      <trkpt lat="44.96422" lon="3.61471">
        <ele>1048</ele>
        <time>2018-04-28T11:45:01Z</time>
      </trkpt>
      <trkpt lat="44.96399" lon="3.61455">
        <ele>1050</ele>
        <time>2018-04-28T11:45:24Z</time>
      </trkpt>
      <trkpt lat="44.96375" lon="3.61441">
        <ele>1053</ele>
        <time>2018-04-28T11:45:47Z</time>
      </trkpt>
      <trkpt lat="44.9637" lon="3.61439">
        <ele>1054</ele>
        <time>2018-04-28T11:45:52Z</time>
      </trkpt>
      <trkpt lat="44.96349" lon="3.61437">
        <ele>1055</ele>
        <time>2018-04-28T11:46:14Z</time>
      </trkpt>
      <trkpt lat="44.96323" lon="3.61437">
        <ele>1056</ele>
        <time>2018-04-28T11:46:39Z</time>
      </trkpt>
      <trkpt lat="44.96294" lon="3.61434">
        <ele>1057</ele>
        <time>2018-04-28T11:47:03Z</time>
      </trkpt>
      <trkpt lat="44.96274" lon="3.61436">
        <ele>1058</ele>
        <time>2018-04-28T11:47:20Z</time>
      </trkpt>
      <trkpt lat="44.9627" lon="3.61436">
        <ele>1058</ele>
        <time>2018-04-28T11:47:24Z</time>
      </trkpt>
      <trkpt lat="44.96255" lon="3.61434">
        <ele>1057</ele>
        <time>2018-04-28T11:47:37Z</time>
      </trkpt>
      <trkpt lat="44.96241" lon="3.61428">
        <ele>1056</ele>
        <time>2018-04-28T11:47:49Z</time>
      </trkpt>
      <trkpt lat="44.96211" lon="3.61402">
        <ele>1056</ele>
        <time>2018-04-28T11:48:18Z</time>
      </trkpt>
      <trkpt lat="44.96166" lon="3.6137">
        <ele>1056</ele>
        <time>2018-04-28T11:49:48Z</time>
      </trkpt>
      <trkpt lat="44.96133" lon="3.61339">
        <ele>1056</ele>
        <time>2018-04-28T11:50:22Z</time>
      </trkpt>
      <trkpt lat="44.96117" lon="3.61323">
        <ele>1054</ele>
        <time>2018-04-28T11:50:38Z</time>
      </trkpt>
      <trkpt lat="44.96079" lon="3.61302">
        <ele>1051</ele>
        <time>2018-04-28T11:51:19Z</time>
      </trkpt>
      <trkpt lat="44.96071" lon="3.61296">
        <ele>1050</ele>
        <time>2018-04-28T11:51:27Z</time>
      </trkpt>
      <trkpt lat="44.96052" lon="3.61293">
        <ele>1053</ele>
        <time>2018-04-28T11:51:51Z</time>
      </trkpt>
      <trkpt lat="44.96038" lon="3.61287">
        <ele>1053</ele>
        <time>2018-04-28T11:52:06Z</time>
      </trkpt>
      <trkpt lat="44.96033" lon="3.61291">
        <ele>1053</ele>
        <time>2018-04-28T11:52:43Z</time>
      </trkpt>
      <trkpt lat="44.96028" lon="3.61282">
        <ele>1054</ele>
        <time>2018-04-28T11:53:19Z</time>
      </trkpt>
      <trkpt lat="44.96025" lon="3.61269">
        <ele>1054</ele>
        <time>2018-04-28T11:53:28Z</time>
      </trkpt>
      <trkpt lat="44.96022" lon="3.61243">
        <ele>1056</ele>
        <time>2018-04-28T11:54:10Z</time>
      </trkpt>
      <trkpt lat="44.96012" lon="3.61223">
        <ele>1057</ele>
        <time>2018-04-28T11:54:26Z</time>
      </trkpt>
      <trkpt lat="44.95999" lon="3.61188">
        <ele>1061</ele>
        <time>2018-04-28T11:55:00Z</time>
      </trkpt>
      <trkpt lat="44.95991" lon="3.61181">
        <ele>1062</ele>
        <time>2018-04-28T11:55:09Z</time>
      </trkpt>
      <trkpt lat="44.95909" lon="3.61131">
        <ele>1059</ele>
        <time>2018-04-28T11:56:29Z</time>
      </trkpt>
      <trkpt lat="44.95896" lon="3.6112">
        <ele>1059</ele>
        <time>2018-04-28T11:56:41Z</time>
      </trkpt>
      <trkpt lat="44.95884" lon="3.61105">
        <ele>1059</ele>
        <time>2018-04-28T11:56:55Z</time>
      </trkpt>
      <trkpt lat="44.95872" lon="3.61079">
        <ele>1060</ele>
        <time>2018-04-28T11:57:15Z</time>
      </trkpt>
      <trkpt lat="44.95862" lon="3.6105">
        <ele>1061</ele>
        <time>2018-04-28T11:57:37Z</time>
      </trkpt>
      <trkpt lat="44.95862" lon="3.61043">
        <ele>1061</ele>
        <time>2018-04-28T11:57:41Z</time>
      </trkpt>
      <trkpt lat="44.9586" lon="3.61036">
        <ele>1061</ele>
        <time>2018-04-28T11:57:46Z</time>
      </trkpt>
      <trkpt lat="44.95857" lon="3.61023">
        <ele>1061</ele>
        <time>2018-04-28T11:57:54Z</time>
      </trkpt>
      <trkpt lat="44.95848" lon="3.60997">
        <ele>1061</ele>
        <time>2018-04-28T11:58:12Z</time>
      </trkpt>
      <trkpt lat="44.9583" lon="3.60962">
        <ele>1062</ele>
        <time>2018-04-28T11:58:36Z</time>
      </trkpt>
      <trkpt lat="44.9576" lon="3.60866">
        <ele>1065</ele>
        <time>2018-04-28T11:59:56Z</time>
      </trkpt>
      <trkpt lat="44.95667" lon="3.60765">
        <ele>1070</ele>
        <time>2018-04-28T12:01:36Z</time>
      </trkpt>
      <trkpt lat="44.95666" lon="3.60756">
        <ele>1069</ele>
        <time>2018-04-28T12:02:33Z</time>
      </trkpt>
      <trkpt lat="44.95645" lon="3.60665">
        <ele>1063</ele>
        <time>2018-04-28T12:03:26Z</time>
      </trkpt>
      <trkpt lat="44.95624" lon="3.60615">
        <ele>1061</ele>
        <time>2018-04-28T12:03:59Z</time>
      </trkpt>
      <trkpt lat="44.95617" lon="3.60594">
        <ele>1060</ele>
        <time>2018-04-28T12:04:11Z</time>
      </trkpt>
      <trkpt lat="44.95595" lon="3.60441">
        <ele>1053</ele>
        <time>2018-04-28T12:05:44Z</time>
      </trkpt>
      <trkpt lat="44.95593" lon="3.60434">
        <ele>1053</ele>
        <time>2018-04-28T12:05:48Z</time>
      </trkpt>
      <trkpt lat="44.95593" lon="3.60427">
        <ele>1052</ele>
        <time>2018-04-28T12:05:52Z</time>
      </trkpt>
      <trkpt lat="44.95594" lon="3.6042">
        <ele>1052</ele>
        <time>2018-04-28T12:05:56Z</time>
      </trkpt>
      <trkpt lat="44.9559" lon="3.60399">
        <ele>1051</ele>
        <time>2018-04-28T12:06:09Z</time>
      </trkpt>
      <trkpt lat="44.95586" lon="3.60386">
        <ele>1051</ele>
        <time>2018-04-28T12:06:18Z</time>
      </trkpt>
      <trkpt lat="44.95584" lon="3.60372">
        <ele>1050</ele>
        <time>2018-04-28T12:06:26Z</time>
      </trkpt>
      <trkpt lat="44.9556" lon="3.60274">
        <ele>1044</ele>
        <time>2018-04-28T12:07:31Z</time>
      </trkpt>
      <trkpt lat="44.95558" lon="3.60226">
        <ele>1040</ele>
        <time>2018-04-28T12:08:00Z</time>
      </trkpt>
      <trkpt lat="44.95571" lon="3.60173">
        <ele>1040</ele>
        <time>2018-04-28T12:08:35Z</time>
      </trkpt>
      <trkpt lat="44.95575" lon="3.60144">
        <ele>1041</ele>
        <time>2018-04-28T12:08:56Z</time>
      </trkpt>
      <trkpt lat="44.95577" lon="3.60138">
        <ele>1041</ele>
        <time>2018-04-28T12:09:01Z</time>
      </trkpt>
      <trkpt lat="44.95578" lon="3.60131">
        <ele>1041</ele>
        <time>2018-04-28T12:09:05Z</time>
      </trkpt>
      <trkpt lat="44.95596" lon="3.60095">
        <ele>1044</ele>
        <time>2018-04-28T12:09:35Z</time>
      </trkpt>
      <trkpt lat="44.95599" lon="3.60089">
        <ele>1045</ele>
        <time>2018-04-28T12:09:40Z</time>
      </trkpt>
      <trkpt lat="44.95607" lon="3.60083">
        <ele>1046</ele>
        <time>2018-04-28T12:09:52Z</time>
      </trkpt>
      <trkpt lat="44.95617" lon="3.60067">
        <ele>1048</ele>
        <time>2018-04-28T12:10:07Z</time>
      </trkpt>
      <trkpt lat="44.95628" lon="3.6002">
        <ele>1051</ele>
        <time>2018-04-28T12:10:42Z</time>
      </trkpt>
      <trkpt lat="44.95627" lon="3.59978">
        <ele>1052</ele>
        <time>2018-04-28T12:11:09Z</time>
      </trkpt>
      <trkpt lat="44.95603" lon="3.59666">
        <ele>1054</ele>
        <time>2018-04-28T12:14:36Z</time>
      </trkpt>
      <trkpt lat="44.95605" lon="3.59603">
        <ele>1054</ele>
        <time>2018-04-28T12:15:23Z</time>
      </trkpt>
      <trkpt lat="44.95616" lon="3.59537">
        <ele>1051</ele>
        <time>2018-04-28T12:16:03Z</time>
      </trkpt>
      <trkpt lat="44.95619" lon="3.59531">
        <ele>1050</ele>
        <time>2018-04-28T12:16:08Z</time>
      </trkpt>
      <trkpt lat="44.95632" lon="3.59519">
        <ele>1049</ele>
        <time>2018-04-28T12:16:21Z</time>
      </trkpt>
      <trkpt lat="44.95637" lon="3.59516">
        <ele>1048</ele>
        <time>2018-04-28T12:16:25Z</time>
      </trkpt>
      <trkpt lat="44.95651" lon="3.59513">
        <ele>1047</ele>
        <time>2018-04-28T12:16:37Z</time>
      </trkpt>
      <trkpt lat="44.95685" lon="3.59498">
        <ele>1045</ele>
        <time>2018-04-28T12:17:09Z</time>
      </trkpt>
      <trkpt lat="44.9569" lon="3.59497">
        <ele>1045</ele>
        <time>2018-04-28T12:17:13Z</time>
      </trkpt>
      <trkpt lat="44.95698" lon="3.59489">
        <ele>1045</ele>
        <time>2018-04-28T12:17:23Z</time>
      </trkpt>
      <trkpt lat="44.95702" lon="3.59484">
        <ele>1044</ele>
        <time>2018-04-28T12:17:28Z</time>
      </trkpt>
      <trkpt lat="44.95709" lon="3.59478">
        <ele>1044</ele>
        <time>2018-04-28T12:17:43Z</time>
      </trkpt>
      <trkpt lat="44.95714" lon="3.59479">
        <ele>1043</ele>
        <time>2018-04-28T12:20:05Z</time>
      </trkpt>
      <trkpt lat="44.95718" lon="3.59476">
        <ele>1043</ele>
        <time>2018-04-28T12:20:10Z</time>
      </trkpt>
      <trkpt lat="44.95743" lon="3.59474">
        <ele>1042</ele>
        <time>2018-04-28T12:25:43Z</time>
      </trkpt>
      <trkpt lat="44.95753" lon="3.59478">
        <ele>1042</ele>
        <time>2018-04-28T12:25:53Z</time>
      </trkpt>
      <trkpt lat="44.95763" lon="3.59486">
        <ele>1043</ele>
        <time>2018-04-28T12:26:05Z</time>
      </trkpt>
      <trkpt lat="44.95771" lon="3.59496">
        <ele>1044</ele>
        <time>2018-04-28T12:26:19Z</time>
      </trkpt>
      <trkpt lat="44.95777" lon="3.595">
        <ele>1045</ele>
        <time>2018-04-28T12:26:30Z</time>
      </trkpt>
      <trkpt lat="44.95782" lon="3.59498">
        <ele>1046</ele>
        <time>2018-04-28T12:26:35Z</time>
      </trkpt>
      <trkpt lat="44.95784" lon="3.59491">
        <ele>1046</ele>
        <time>2018-04-28T12:26:40Z</time>
      </trkpt>
      <trkpt lat="44.95784" lon="3.59483">
        <ele>1047</ele>
        <time>2018-04-28T12:26:45Z</time>
      </trkpt>
      <trkpt lat="44.95783" lon="3.59477">
        <ele>1048</ele>
        <time>2018-04-28T12:26:50Z</time>
      </trkpt>
      <trkpt lat="44.95782" lon="3.5947">
        <ele>1049</ele>
        <time>2018-04-28T12:26:57Z</time>
      </trkpt>
      <trkpt lat="44.95784" lon="3.59446">
        <ele>1051</ele>
        <time>2018-04-28T12:27:18Z</time>
      </trkpt>
      <trkpt lat="44.95801" lon="3.59417">
        <ele>1052</ele>
        <time>2018-04-28T12:27:44Z</time>
      </trkpt>
      <trkpt lat="44.95806" lon="3.59405">
        <ele>1053</ele>
        <time>2018-04-28T12:27:54Z</time>
      </trkpt>
      <trkpt lat="44.95809" lon="3.59386">
        <ele>1055</ele>
        <time>2018-04-28T12:28:09Z</time>
      </trkpt>
      <trkpt lat="44.95809" lon="3.59379">
        <ele>1055</ele>
        <time>2018-04-28T12:28:14Z</time>
      </trkpt>
      <trkpt lat="44.95807" lon="3.59373">
        <ele>1056</ele>
        <time>2018-04-28T12:28:19Z</time>
      </trkpt>
      <trkpt lat="44.95807" lon="3.59364">
        <ele>1056</ele>
        <time>2018-04-28T12:28:27Z</time>
      </trkpt>
      <trkpt lat="44.95809" lon="3.59358">
        <ele>1057</ele>
        <time>2018-04-28T12:28:31Z</time>
      </trkpt>
      <trkpt lat="44.95813" lon="3.59354">
        <ele>1057</ele>
        <time>2018-04-28T12:28:36Z</time>
      </trkpt>
      <trkpt lat="44.95817" lon="3.59349">
        <ele>1058</ele>
        <time>2018-04-28T12:28:41Z</time>
      </trkpt>
      <trkpt lat="44.95818" lon="3.59342">
        <ele>1058</ele>
        <time>2018-04-28T12:28:46Z</time>
      </trkpt>
      <trkpt lat="44.95818" lon="3.59335">
        <ele>1059</ele>
        <time>2018-04-28T12:28:51Z</time>
      </trkpt>
      <trkpt lat="44.95813" lon="3.59311">
        <ele>1058</ele>
        <time>2018-04-28T12:29:09Z</time>
      </trkpt>
      <trkpt lat="44.95794" lon="3.59275">
        <ele>1057</ele>
        <time>2018-04-28T12:29:40Z</time>
      </trkpt>
      <trkpt lat="44.95775" lon="3.59249">
        <ele>1057</ele>
        <time>2018-04-28T12:30:04Z</time>
      </trkpt>
      <trkpt lat="44.95771" lon="3.59246">
        <ele>1057</ele>
        <time>2018-04-28T12:30:09Z</time>
      </trkpt>
      <trkpt lat="44.95767" lon="3.59244">
        <ele>1057</ele>
        <time>2018-04-28T12:30:14Z</time>
      </trkpt>
      <trkpt lat="44.95756" lon="3.59229">
        <ele>1056</ele>
        <time>2018-04-28T12:32:02Z</time>
      </trkpt>
      <trkpt lat="44.95676" lon="3.5915">
        <ele>1059</ele>
        <time>2018-04-28T12:33:30Z</time>
      </trkpt>
      <trkpt lat="44.95636" lon="3.59137">
        <ele>1062</ele>
        <time>2018-04-28T12:34:08Z</time>
      </trkpt>
      <trkpt lat="44.95613" lon="3.59126">
        <ele>1062</ele>
        <time>2018-04-28T12:34:29Z</time>
      </trkpt>
      <trkpt lat="44.956" lon="3.59116">
        <ele>1063</ele>
        <time>2018-04-28T12:34:42Z</time>
      </trkpt>
      <trkpt lat="44.95589" lon="3.591">
        <ele>1063</ele>
        <time>2018-04-28T12:34:56Z</time>
      </trkpt>
      <trkpt lat="44.95581" lon="3.59084">
        <ele>1063</ele>
        <time>2018-04-28T12:35:08Z</time>
      </trkpt>
      <trkpt lat="44.95573" lon="3.59065">
        <ele>1062</ele>
        <time>2018-04-28T12:35:20Z</time>
      </trkpt>
      <trkpt lat="44.95538" lon="3.59026">
        <ele>1062</ele>
        <time>2018-04-28T12:35:57Z</time>
      </trkpt>
      <trkpt lat="44.95405" lon="3.5891">
        <ele>1070</ele>
        <time>2018-04-28T12:38:39Z</time>
      </trkpt>
      <trkpt lat="44.95381" lon="3.58881">
        <ele>1072</ele>
        <time>2018-04-28T12:39:23Z</time>
      </trkpt>
      <trkpt lat="44.95377" lon="3.58876">
        <ele>1071</ele>
        <time>2018-04-28T12:39:27Z</time>
      </trkpt>
      <trkpt lat="44.95374" lon="3.58863">
        <ele>1071</ele>
        <time>2018-04-28T12:39:36Z</time>
      </trkpt>
      <trkpt lat="44.95349" lon="3.58809">
        <ele>1072</ele>
        <time>2018-04-28T12:40:14Z</time>
      </trkpt>
      <trkpt lat="44.95342" lon="3.58798">
        <ele>1072</ele>
        <time>2018-04-28T12:40:23Z</time>
      </trkpt>
      <trkpt lat="44.95333" lon="3.58774">
        <ele>1072</ele>
        <time>2018-04-28T12:40:39Z</time>
      </trkpt>
      <trkpt lat="44.95307" lon="3.58739">
        <ele>1072</ele>
        <time>2018-04-28T12:41:07Z</time>
      </trkpt>
      <trkpt lat="44.95299" lon="3.58733">
        <ele>1072</ele>
        <time>2018-04-28T12:41:15Z</time>
      </trkpt>
      <trkpt lat="44.9528" lon="3.58723">
        <ele>1072</ele>
        <time>2018-04-28T12:41:31Z</time>
      </trkpt>
      <trkpt lat="44.95265" lon="3.5872">
        <ele>1071</ele>
        <time>2018-04-28T12:41:43Z</time>
      </trkpt>
      <trkpt lat="44.95255" lon="3.58721">
        <ele>1072</ele>
        <time>2018-04-28T12:41:52Z</time>
      </trkpt>
      <trkpt lat="44.95245" lon="3.58719">
        <ele>1071</ele>
        <time>2018-04-28T12:42:00Z</time>
      </trkpt>
      <trkpt lat="44.95235" lon="3.58714">
        <ele>1071</ele>
        <time>2018-04-28T12:42:09Z</time>
      </trkpt>
      <trkpt lat="44.95202" lon="3.58686">
        <ele>1071</ele>
        <time>2018-04-28T12:42:42Z</time>
      </trkpt>
      <trkpt lat="44.95188" lon="3.58678">
        <ele>1070</ele>
        <time>2018-04-28T12:42:54Z</time>
      </trkpt>
      <trkpt lat="44.95174" lon="3.58672">
        <ele>1070</ele>
        <time>2018-04-28T12:43:06Z</time>
      </trkpt>
      <trkpt lat="44.95121" lon="3.58636">
        <ele>1069</ele>
        <time>2018-04-28T12:43:56Z</time>
      </trkpt>
      <trkpt lat="44.95092" lon="3.58612">
        <ele>1068</ele>
        <time>2018-04-28T12:44:25Z</time>
      </trkpt>
      <trkpt lat="44.95055" lon="3.5859">
        <ele>1068</ele>
        <time>2018-04-28T12:45:00Z</time>
      </trkpt>
      <trkpt lat="44.9504" lon="3.58585">
        <ele>1068</ele>
        <time>2018-04-28T12:45:13Z</time>
      </trkpt>
      <trkpt lat="44.95033" lon="3.58577">
        <ele>1068</ele>
        <time>2018-04-28T12:45:21Z</time>
      </trkpt>
      <trkpt lat="44.95029" lon="3.58572">
        <ele>1068</ele>
        <time>2018-04-28T12:45:25Z</time>
      </trkpt>
      <trkpt lat="44.95027" lon="3.58566">
        <ele>1069</ele>
        <time>2018-04-28T12:45:30Z</time>
      </trkpt>
      <trkpt lat="44.95002" lon="3.5844">
        <ele>1076</ele>
        <time>2018-04-28T12:47:21Z</time>
      </trkpt>
      <trkpt lat="44.94995" lon="3.58429">
        <ele>1076</ele>
        <time>2018-04-28T12:47:31Z</time>
      </trkpt>
      <trkpt lat="44.94993" lon="3.58423">
        <ele>1076</ele>
        <time>2018-04-28T12:47:36Z</time>
      </trkpt>
      <trkpt lat="44.94977" lon="3.58345">
        <ele>1079</ele>
        <time>2018-04-28T12:48:40Z</time>
      </trkpt>
      <trkpt lat="44.94962" lon="3.58305">
        <ele>1081</ele>
        <time>2018-04-28T12:49:12Z</time>
      </trkpt>
      <trkpt lat="44.94932" lon="3.58259">
        <ele>1077</ele>
        <time>2018-04-28T12:49:52Z</time>
      </trkpt>
      <trkpt lat="44.94919" lon="3.58227">
        <ele>1077</ele>
        <time>2018-04-28T12:50:15Z</time>
      </trkpt>
      <trkpt lat="44.94898" lon="3.58107">
        <ele>1081</ele>
        <time>2018-04-28T12:51:40Z</time>
      </trkpt>
      <trkpt lat="44.94896" lon="3.581">
        <ele>1081</ele>
        <time>2018-04-28T12:51:45Z</time>
      </trkpt>
      <trkpt lat="44.94887" lon="3.58044">
        <ele>1081</ele>
        <time>2018-04-28T12:52:20Z</time>
      </trkpt>
      <trkpt lat="44.9489" lon="3.5803">
        <ele>1080</ele>
        <time>2018-04-28T12:52:34Z</time>
      </trkpt>
      <trkpt lat="44.94892" lon="3.57916">
        <ele>1080</ele>
        <time>2018-04-28T12:53:46Z</time>
      </trkpt>
      <trkpt lat="44.94895" lon="3.57895">
        <ele>1080</ele>
        <time>2018-04-28T12:54:00Z</time>
      </trkpt>
      <trkpt lat="44.94898" lon="3.57888">
        <ele>1080</ele>
        <time>2018-04-28T12:54:05Z</time>
      </trkpt>
      <trkpt lat="44.94964" lon="3.57781">
        <ele>1085</ele>
        <time>2018-04-28T12:55:49Z</time>
      </trkpt>
      <trkpt lat="44.94995" lon="3.57745">
        <ele>1087</ele>
        <time>2018-04-28T12:56:29Z</time>
      </trkpt>
      <trkpt lat="44.94998" lon="3.5774">
        <ele>1087</ele>
        <time>2018-04-28T12:56:33Z</time>
      </trkpt>
      <trkpt lat="44.95" lon="3.57732">
        <ele>1088</ele>
        <time>2018-04-28T12:56:38Z</time>
      </trkpt>
      <trkpt lat="44.95" lon="3.57726">
        <ele>1088</ele>
        <time>2018-04-28T12:56:43Z</time>
      </trkpt>
      <trkpt lat="44.95001" lon="3.57719">
        <ele>1088</ele>
        <time>2018-04-28T12:56:54Z</time>
      </trkpt>
      <trkpt lat="44.95002" lon="3.57597">
        <ele>1092</ele>
        <time>2018-04-28T12:58:15Z</time>
      </trkpt>
      <trkpt lat="44.95001" lon="3.57591">
        <ele>1093</ele>
        <time>2018-04-28T12:58:20Z</time>
      </trkpt>
      <trkpt lat="44.95007" lon="3.57548">
        <ele>1095</ele>
        <time>2018-04-28T12:58:56Z</time>
      </trkpt>
      <trkpt lat="44.95007" lon="3.57541">
        <ele>1095</ele>
        <time>2018-04-28T12:59:01Z</time>
      </trkpt>
      <trkpt lat="44.95012" lon="3.57493">
        <ele>1095</ele>
        <time>2018-04-28T12:59:45Z</time>
      </trkpt>
      <trkpt lat="44.95014" lon="3.57464">
        <ele>1096</ele>
        <time>2018-04-28T13:00:03Z</time>
      </trkpt>
      <trkpt lat="44.95053" lon="3.57296">
        <ele>1098</ele>
        <time>2018-04-28T13:01:54Z</time>
      </trkpt>
      <trkpt lat="44.95089" lon="3.57194">
        <ele>1096</ele>
        <time>2018-04-28T13:03:04Z</time>
      </trkpt>
      <trkpt lat="44.95146" lon="3.56982">
        <ele>1091</ele>
        <time>2018-04-28T13:05:40Z</time>
      </trkpt>
      <trkpt lat="44.95159" lon="3.56953">
        <ele>1092</ele>
        <time>2018-04-28T13:06:01Z</time>
      </trkpt>
      <trkpt lat="44.95162" lon="3.56946">
        <ele>1091</ele>
        <time>2018-04-28T13:06:06Z</time>
      </trkpt>
      <trkpt lat="44.9518" lon="3.56911">
        <ele>1091</ele>
        <time>2018-04-28T13:06:32Z</time>
      </trkpt>
      <trkpt lat="44.95195" lon="3.56863">
        <ele>1092</ele>
        <time>2018-04-28T13:07:18Z</time>
      </trkpt>
      <trkpt lat="44.95199" lon="3.56835">
        <ele>1093</ele>
        <time>2018-04-28T13:07:34Z</time>
      </trkpt>
      <trkpt lat="44.95202" lon="3.56823">
        <ele>1093</ele>
        <time>2018-04-28T13:07:42Z</time>
      </trkpt>
      <trkpt lat="44.95207" lon="3.56811">
        <ele>1093</ele>
        <time>2018-04-28T13:07:50Z</time>
      </trkpt>
      <trkpt lat="44.95225" lon="3.56779">
        <ele>1093</ele>
        <time>2018-04-28T13:08:15Z</time>
      </trkpt>
      <trkpt lat="44.95232" lon="3.56771">
        <ele>1093</ele>
        <time>2018-04-28T13:08:23Z</time>
      </trkpt>
      <trkpt lat="44.95242" lon="3.56755">
        <ele>1093</ele>
        <time>2018-04-28T13:08:37Z</time>
      </trkpt>
      <trkpt lat="44.95252" lon="3.56742">
        <ele>1092</ele>
        <time>2018-04-28T13:08:52Z</time>
      </trkpt>
      <trkpt lat="44.95257" lon="3.5673">
        <ele>1091</ele>
        <time>2018-04-28T13:10:04Z</time>
      </trkpt>
      <trkpt lat="44.95258" lon="3.56722">
        <ele>1091</ele>
        <time>2018-04-28T13:10:14Z</time>
      </trkpt>
      <trkpt lat="44.9527" lon="3.56711">
        <ele>1088</ele>
        <time>2018-04-28T13:10:34Z</time>
      </trkpt>
      <trkpt lat="44.95275" lon="3.56702">
        <ele>1087</ele>
        <time>2018-04-28T13:10:44Z</time>
      </trkpt>
      <trkpt lat="44.95284" lon="3.56694">
        <ele>1085</ele>
        <time>2018-04-28T13:11:07Z</time>
      </trkpt>
      <trkpt lat="44.95286" lon="3.56687">
        <ele>1083</ele>
        <time>2018-04-28T13:11:31Z</time>
      </trkpt>
      <trkpt lat="44.95292" lon="3.56675">
        <ele>1082</ele>
        <time>2018-04-28T13:12:03Z</time>
      </trkpt>
      <trkpt lat="44.95298" lon="3.56665">
        <ele>1080</ele>
        <time>2018-04-28T13:12:17Z</time>
      </trkpt>
      <trkpt lat="44.95305" lon="3.56659">
        <ele>1079</ele>
        <time>2018-04-28T13:12:35Z</time>
      </trkpt>
      <trkpt lat="44.95329" lon="3.56624">
        <ele>1075</ele>
        <time>2018-04-28T13:13:12Z</time>
      </trkpt>
      <trkpt lat="44.95331" lon="3.56619">
        <ele>1074</ele>
        <time>2018-04-28T13:13:23Z</time>
      </trkpt>
      <trkpt lat="44.95355" lon="3.56585">
        <ele>1070</ele>
        <time>2018-04-28T13:13:56Z</time>
      </trkpt>
      <trkpt lat="44.95386" lon="3.5652">
        <ele>1067</ele>
        <time>2018-04-28T13:14:46Z</time>
      </trkpt>
      <trkpt lat="44.95388" lon="3.56505">
        <ele>1067</ele>
        <time>2018-04-28T13:14:56Z</time>
      </trkpt>
      <trkpt lat="44.95396" lon="3.56488">
        <ele>1066</ele>
        <time>2018-04-28T13:15:08Z</time>
      </trkpt>
      <trkpt lat="44.95399" lon="3.56473">
        <ele>1066</ele>
        <time>2018-04-28T13:15:17Z</time>
      </trkpt>
      <trkpt lat="44.954" lon="3.56418">
        <ele>1064</ele>
        <time>2018-04-28T13:15:50Z</time>
      </trkpt>
      <trkpt lat="44.95405" lon="3.56377">
        <ele>1061</ele>
        <time>2018-04-28T13:16:16Z</time>
      </trkpt>
      <trkpt lat="44.95425" lon="3.56328">
        <ele>1058</ele>
        <time>2018-04-28T13:16:50Z</time>
      </trkpt>
      <trkpt lat="44.95438" lon="3.56281">
        <ele>1056</ele>
        <time>2018-04-28T13:17:22Z</time>
      </trkpt>
      <trkpt lat="44.95459" lon="3.56238">
        <ele>1055</ele>
        <time>2018-04-28T13:17:56Z</time>
      </trkpt>
      <trkpt lat="44.95469" lon="3.56214">
        <ele>1053</ele>
        <time>2018-04-28T13:18:14Z</time>
      </trkpt>
      <trkpt lat="44.95473" lon="3.56201">
        <ele>1052</ele>
        <time>2018-04-28T13:18:23Z</time>
      </trkpt>
      <trkpt lat="44.95481" lon="3.56184">
        <ele>1051</ele>
        <time>2018-04-28T13:18:36Z</time>
      </trkpt>
      <trkpt lat="44.95489" lon="3.56151">
        <ele>1050</ele>
        <time>2018-04-28T13:18:59Z</time>
      </trkpt>
      <trkpt lat="44.95489" lon="3.56123">
        <ele>1051</ele>
        <time>2018-04-28T13:19:18Z</time>
      </trkpt>
      <trkpt lat="44.95495" lon="3.56087">
        <ele>1050</ele>
        <time>2018-04-28T13:19:43Z</time>
      </trkpt>
      <trkpt lat="44.95502" lon="3.56067">
        <ele>1049</ele>
        <time>2018-04-28T13:19:58Z</time>
      </trkpt>
      <trkpt lat="44.95511" lon="3.56049">
        <ele>1049</ele>
        <time>2018-04-28T13:20:12Z</time>
      </trkpt>
      <trkpt lat="44.95529" lon="3.56004">
        <ele>1046</ele>
        <time>2018-04-28T13:20:58Z</time>
      </trkpt>
      <trkpt lat="44.95536" lon="3.55991">
        <ele>1045</ele>
        <time>2018-04-28T13:21:13Z</time>
      </trkpt>
      <trkpt lat="44.95542" lon="3.55972">
        <ele>1043</ele>
        <time>2018-04-28T13:21:38Z</time>
      </trkpt>
      <trkpt lat="44.95583" lon="3.55899">
        <ele>1038</ele>
        <time>2018-04-28T13:22:46Z</time>
      </trkpt>
      <trkpt lat="44.95588" lon="3.55886">
        <ele>1038</ele>
        <time>2018-04-28T13:22:58Z</time>
      </trkpt>
      <trkpt lat="44.95594" lon="3.55876">
        <ele>1036</ele>
        <time>2018-04-28T13:23:08Z</time>
      </trkpt>
      <trkpt lat="44.95596" lon="3.5587">
        <ele>1036</ele>
        <time>2018-04-28T13:23:17Z</time>
      </trkpt>
      <trkpt lat="44.95613" lon="3.55848">
        <ele>1033</ele>
        <time>2018-04-28T13:23:51Z</time>
      </trkpt>
      <trkpt lat="44.95616" lon="3.55843">
        <ele>1033</ele>
        <time>2018-04-28T13:23:56Z</time>
      </trkpt>
      <trkpt lat="44.95624" lon="3.55815">
        <ele>1030</ele>
        <time>2018-04-28T13:24:33Z</time>
      </trkpt>
      <trkpt lat="44.95634" lon="3.55795">
        <ele>1029</ele>
        <time>2018-04-28T13:25:00Z</time>
      </trkpt>
      <trkpt lat="44.95638" lon="3.55792">
        <ele>1028</ele>
        <time>2018-04-28T13:25:05Z</time>
      </trkpt>
      <trkpt lat="44.95642" lon="3.55786">
        <ele>1028</ele>
        <time>2018-04-28T13:25:36Z</time>
      </trkpt>
      <trkpt lat="44.95645" lon="3.55781">
        <ele>1027</ele>
        <time>2018-04-28T13:25:41Z</time>
      </trkpt>
      <trkpt lat="44.9565" lon="3.55777">
        <ele>1027</ele>
        <time>2018-04-28T13:25:49Z</time>
      </trkpt>
      <trkpt lat="44.95666" lon="3.55751">
        <ele>1022</ele>
        <time>2018-04-28T13:26:22Z</time>
      </trkpt>
      <trkpt lat="44.9567" lon="3.55747">
        <ele>1022</ele>
        <time>2018-04-28T13:26:27Z</time>
      </trkpt>
      <trkpt lat="44.95677" lon="3.55735">
        <ele>1020</ele>
        <time>2018-04-28T13:26:37Z</time>
      </trkpt>
      <trkpt lat="44.95684" lon="3.55716">
        <ele>1019</ele>
        <time>2018-04-28T13:27:47Z</time>
      </trkpt>
      <trkpt lat="44.95702" lon="3.55686">
        <ele>1015</ele>
        <time>2018-04-28T13:28:24Z</time>
      </trkpt>
      <trkpt lat="44.95705" lon="3.55674">
        <ele>1013</ele>
        <time>2018-04-28T13:28:40Z</time>
      </trkpt>
      <trkpt lat="44.9572" lon="3.55629">
        <ele>1007</ele>
        <time>2018-04-28T13:29:13Z</time>
      </trkpt>
      <trkpt lat="44.95736" lon="3.55595">
        <ele>1002</ele>
        <time>2018-04-28T13:29:41Z</time>
      </trkpt>
      <trkpt lat="44.95741" lon="3.55587">
        <ele>1002</ele>
        <time>2018-04-28T13:29:53Z</time>
      </trkpt>
      <trkpt lat="44.95749" lon="3.55569">
        <ele>1000</ele>
        <time>2018-04-28T13:30:07Z</time>
      </trkpt>
      <trkpt lat="44.95757" lon="3.55492">
        <ele>991</ele>
        <time>2018-04-28T13:31:18Z</time>
      </trkpt>
      <trkpt lat="44.95758" lon="3.5545">
        <ele>987</ele>
        <time>2018-04-28T13:31:44Z</time>
      </trkpt>
      <trkpt lat="44.9576" lon="3.55443">
        <ele>986</ele>
        <time>2018-04-28T13:31:49Z</time>
      </trkpt>
      <trkpt lat="44.95793" lon="3.55358">
        <ele>977</ele>
        <time>2018-04-28T13:32:46Z</time>
      </trkpt>
      <trkpt lat="44.95809" lon="3.55299">
        <ele>973</ele>
        <time>2018-04-28T13:33:37Z</time>
      </trkpt>
      <trkpt lat="44.95823" lon="3.55262">
        <ele>969</ele>
        <time>2018-04-28T13:34:02Z</time>
      </trkpt>
      <trkpt lat="44.95824" lon="3.55256">
        <ele>968</ele>
        <time>2018-04-28T13:34:06Z</time>
      </trkpt>
      <trkpt lat="44.9584" lon="3.55232">
        <ele>965</ele>
        <time>2018-04-28T13:34:30Z</time>
      </trkpt>
      <trkpt lat="44.95848" lon="3.55229">
        <ele>964</ele>
        <time>2018-04-28T13:34:42Z</time>
      </trkpt>
      <trkpt lat="44.95864" lon="3.55212">
        <ele>960</ele>
        <time>2018-04-28T13:35:00Z</time>
      </trkpt>
      <trkpt lat="44.95874" lon="3.55188">
        <ele>956</ele>
        <time>2018-04-28T13:35:24Z</time>
      </trkpt>
      <trkpt lat="44.95874" lon="3.55164">
        <ele>954</ele>
        <time>2018-04-28T13:35:39Z</time>
      </trkpt>
      <trkpt lat="44.9585" lon="3.55096">
        <ele>952</ele>
        <time>2018-04-28T13:36:27Z</time>
      </trkpt>
      <trkpt lat="44.95843" lon="3.55062">
        <ele>953</ele>
        <time>2018-04-28T13:36:49Z</time>
      </trkpt>
      <trkpt lat="44.95842" lon="3.55049">
        <ele>953</ele>
        <time>2018-04-28T13:36:58Z</time>
      </trkpt>
      <trkpt lat="44.95843" lon="3.55041">
        <ele>953</ele>
        <time>2018-04-28T13:37:03Z</time>
      </trkpt>
      <trkpt lat="44.95846" lon="3.55034">
        <ele>953</ele>
        <time>2018-04-28T13:37:08Z</time>
      </trkpt>
      <trkpt lat="44.95849" lon="3.5503">
        <ele>954</ele>
        <time>2018-04-28T13:37:13Z</time>
      </trkpt>
      <trkpt lat="44.95888" lon="3.54955">
        <ele>957</ele>
        <time>2018-04-28T13:38:26Z</time>
      </trkpt>
      <trkpt lat="44.95904" lon="3.54929">
        <ele>958</ele>
        <time>2018-04-28T13:38:58Z</time>
      </trkpt>
      <trkpt lat="44.95907" lon="3.54923">
        <ele>958</ele>
        <time>2018-04-28T13:39:02Z</time>
      </trkpt>
      <trkpt lat="44.95917" lon="3.54907">
        <ele>959</ele>
        <time>2018-04-28T13:39:16Z</time>
      </trkpt>
      <trkpt lat="44.95922" lon="3.54903">
        <ele>959</ele>
        <time>2018-04-28T13:39:21Z</time>
      </trkpt>
      <trkpt lat="44.95927" lon="3.54902">
        <ele>959</ele>
        <time>2018-04-28T13:39:26Z</time>
      </trkpt>
      <trkpt lat="44.95924" lon="3.54895">
        <ele>959</ele>
        <time>2018-04-28T13:40:04Z</time>
      </trkpt>
      <trkpt lat="44.95938" lon="3.5487">
        <ele>960</ele>
        <time>2018-04-28T13:40:24Z</time>
      </trkpt>
      <trkpt lat="44.95945" lon="3.54856">
        <ele>961</ele>
        <time>2018-04-28T13:40:37Z</time>
      </trkpt>
      <trkpt lat="44.95952" lon="3.54834">
        <ele>962</ele>
        <time>2018-04-28T13:40:55Z</time>
      </trkpt>
      <trkpt lat="44.95955" lon="3.54819">
        <ele>962</ele>
        <time>2018-04-28T13:41:05Z</time>
      </trkpt>
      <trkpt lat="44.95955" lon="3.54798">
        <ele>964</ele>
        <time>2018-04-28T13:41:19Z</time>
      </trkpt>
      <trkpt lat="44.95957" lon="3.54788">
        <ele>964</ele>
        <time>2018-04-28T13:41:28Z</time>
      </trkpt>
      <trkpt lat="44.95967" lon="3.54792">
        <ele>964</ele>
        <time>2018-04-28T13:41:36Z</time>
      </trkpt>
      <trkpt lat="44.95975" lon="3.54799">
        <ele>964</ele>
        <time>2018-04-28T13:41:44Z</time>
      </trkpt>
      <trkpt lat="44.95985" lon="3.54805">
        <ele>964</ele>
        <time>2018-04-28T13:41:53Z</time>
      </trkpt>
      <trkpt lat="44.95989" lon="3.5481">
        <ele>963</ele>
        <time>2018-04-28T13:41:58Z</time>
      </trkpt>
      <trkpt lat="44.95995" lon="3.54811">
        <ele>963</ele>
        <time>2018-04-28T13:42:03Z</time>
      </trkpt>
      <trkpt lat="44.95999" lon="3.54816">
        <ele>963</ele>
        <time>2018-04-28T13:42:07Z</time>
      </trkpt>
      <trkpt lat="44.96004" lon="3.54818">
        <ele>963</ele>
        <time>2018-04-28T13:42:11Z</time>
      </trkpt>
      <trkpt lat="44.96013" lon="3.54824">
        <ele>963</ele>
        <time>2018-04-28T13:42:19Z</time>
      </trkpt>
      <trkpt lat="44.96029" lon="3.54841">
        <ele>964</ele>
        <time>2018-04-28T13:42:37Z</time>
      </trkpt>
      <trkpt lat="44.96039" lon="3.54843">
        <ele>964</ele>
        <time>2018-04-28T13:42:45Z</time>
      </trkpt>
      <trkpt lat="44.96044" lon="3.54842">
        <ele>964</ele>
        <time>2018-04-28T13:42:49Z</time>
      </trkpt>
      <trkpt lat="44.96048" lon="3.54844">
        <ele>964</ele>
        <time>2018-04-28T13:42:54Z</time>
      </trkpt>
      <trkpt lat="44.96055" lon="3.54843">
        <ele>964</ele>
        <time>2018-04-28T13:43:01Z</time>
      </trkpt>
      <trkpt lat="44.96061" lon="3.54841">
        <ele>964</ele>
        <time>2018-04-28T13:43:08Z</time>
      </trkpt>
      <trkpt lat="44.96066" lon="3.54836">
        <ele>963</ele>
        <time>2018-04-28T13:43:16Z</time>
      </trkpt>
      <trkpt lat="44.96072" lon="3.54834">
        <ele>963</ele>
        <time>2018-04-28T13:43:21Z</time>
      </trkpt>
      <trkpt lat="44.96082" lon="3.54828">
        <ele>964</ele>
        <time>2018-04-28T13:43:31Z</time>
      </trkpt>
      <trkpt lat="44.96081" lon="3.54828">
        <ele>964</ele>
        <time>2018-04-28T13:43:54Z</time>
      </trkpt>
      <trkpt lat="44.96072" lon="3.54848">
        <ele>966</ele>
        <time>2018-04-29T05:53:44Z</time>
      </trkpt>
      <trkpt lat="44.96062" lon="3.54851">
        <ele>964</ele>
        <time>2018-04-29T05:53:53Z</time>
      </trkpt>
      <trkpt lat="44.9605" lon="3.54852">
        <ele>965</ele>
        <time>2018-04-29T05:54:03Z</time>
      </trkpt>
      <trkpt lat="44.9604" lon="3.54844">
        <ele>966</ele>
        <time>2018-04-29T05:54:10Z</time>
      </trkpt>
      <trkpt lat="44.96035" lon="3.54842">
        <ele>966</ele>
        <time>2018-04-29T05:54:14Z</time>
      </trkpt>
      <trkpt lat="44.96004" lon="3.54816">
        <ele>964</ele>
        <time>2018-04-29T05:54:43Z</time>
      </trkpt>
      <trkpt lat="44.95995" lon="3.54812">
        <ele>963</ele>
        <time>2018-04-29T05:54:51Z</time>
      </trkpt>
      <trkpt lat="44.95985" lon="3.54804">
        <ele>963</ele>
        <time>2018-04-29T05:55:00Z</time>
      </trkpt>
      <trkpt lat="44.95965" lon="3.54792">
        <ele>964</ele>
        <time>2018-04-29T05:55:17Z</time>
      </trkpt>
      <trkpt lat="44.95959" lon="3.54794">
        <ele>964</ele>
        <time>2018-04-29T05:55:26Z</time>
      </trkpt>
      <trkpt lat="44.95956" lon="3.54789">
        <ele>965</ele>
        <time>2018-04-29T05:57:22Z</time>
      </trkpt>
      <trkpt lat="44.95958" lon="3.54783">
        <ele>965</ele>
        <time>2018-04-29T05:57:27Z</time>
      </trkpt>
      <trkpt lat="44.95959" lon="3.54773">
        <ele>965</ele>
        <time>2018-04-29T05:57:34Z</time>
      </trkpt>
      <trkpt lat="44.95953" lon="3.54726">
        <ele>967</ele>
        <time>2018-04-29T05:58:07Z</time>
      </trkpt>
      <trkpt lat="44.95956" lon="3.54713">
        <ele>967</ele>
        <time>2018-04-29T05:58:16Z</time>
      </trkpt>
      <trkpt lat="44.95957" lon="3.54706">
        <ele>967</ele>
        <time>2018-04-29T05:58:21Z</time>
      </trkpt>
      <trkpt lat="44.9596" lon="3.54699">
        <ele>967</ele>
        <time>2018-04-29T05:58:25Z</time>
      </trkpt>
      <trkpt lat="44.95961" lon="3.54692">
        <ele>967</ele>
        <time>2018-04-29T05:58:29Z</time>
      </trkpt>
      <trkpt lat="44.95963" lon="3.54686">
        <ele>967</ele>
        <time>2018-04-29T05:58:33Z</time>
      </trkpt>
      <trkpt lat="44.95963" lon="3.54679">
        <ele>966</ele>
        <time>2018-04-29T05:58:38Z</time>
      </trkpt>
      <trkpt lat="44.95965" lon="3.54672">
        <ele>966</ele>
        <time>2018-04-29T05:58:43Z</time>
      </trkpt>
      <trkpt lat="44.95966" lon="3.54665">
        <ele>965</ele>
        <time>2018-04-29T05:58:48Z</time>
      </trkpt>
      <trkpt lat="44.95968" lon="3.54659">
        <ele>965</ele>
        <time>2018-04-29T05:58:52Z</time>
      </trkpt>
      <trkpt lat="44.95967" lon="3.54644">
        <ele>965</ele>
        <time>2018-04-29T05:59:02Z</time>
      </trkpt>
      <trkpt lat="44.95968" lon="3.54637">
        <ele>964</ele>
        <time>2018-04-29T05:59:07Z</time>
      </trkpt>
      <trkpt lat="44.95969" lon="3.54631">
        <ele>964</ele>
        <time>2018-04-29T05:59:11Z</time>
      </trkpt>
      <trkpt lat="44.95966" lon="3.54616">
        <ele>964</ele>
        <time>2018-04-29T05:59:20Z</time>
      </trkpt>
      <trkpt lat="44.95964" lon="3.54611">
        <ele>965</ele>
        <time>2018-04-29T05:59:23Z</time>
      </trkpt>
      <trkpt lat="44.9596" lon="3.54606">
        <ele>965</ele>
        <time>2018-04-29T05:59:26Z</time>
      </trkpt>
      <trkpt lat="44.95951" lon="3.546">
        <ele>965</ele>
        <time>2018-04-29T05:59:32Z</time>
      </trkpt>
      <trkpt lat="44.95926" lon="3.54573">
        <ele>961</ele>
        <time>2018-04-29T05:59:57Z</time>
      </trkpt>
      <trkpt lat="44.95921" lon="3.54571">
        <ele>961</ele>
        <time>2018-04-29T06:00:02Z</time>
      </trkpt>
      <trkpt lat="44.95913" lon="3.54555">
        <ele>960</ele>
        <time>2018-04-29T06:00:18Z</time>
      </trkpt>
      <trkpt lat="44.95906" lon="3.54546">
        <ele>960</ele>
        <time>2018-04-29T06:00:26Z</time>
      </trkpt>
      <trkpt lat="44.95903" lon="3.54537">
        <ele>958</ele>
        <time>2018-04-29T06:00:54Z</time>
      </trkpt>
      <trkpt lat="44.95892" lon="3.54505">
        <ele>958</ele>
        <time>2018-04-29T06:01:27Z</time>
      </trkpt>
      <trkpt lat="44.9589" lon="3.54464">
        <ele>957</ele>
        <time>2018-04-29T06:01:52Z</time>
      </trkpt>
      <trkpt lat="44.95888" lon="3.5445">
        <ele>956</ele>
        <time>2018-04-29T06:02:01Z</time>
      </trkpt>
      <trkpt lat="44.95881" lon="3.5444">
        <ele>956</ele>
        <time>2018-04-29T06:02:09Z</time>
      </trkpt>
      <trkpt lat="44.95871" lon="3.54435">
        <ele>955</ele>
        <time>2018-04-29T06:02:17Z</time>
      </trkpt>
      <trkpt lat="44.95854" lon="3.5441">
        <ele>956</ele>
        <time>2018-04-29T06:02:35Z</time>
      </trkpt>
      <trkpt lat="44.9585" lon="3.54406">
        <ele>956</ele>
        <time>2018-04-29T06:02:38Z</time>
      </trkpt>
      <trkpt lat="44.95846" lon="3.54402">
        <ele>955</ele>
        <time>2018-04-29T06:02:42Z</time>
      </trkpt>
      <trkpt lat="44.95843" lon="3.54396">
        <ele>953</ele>
        <time>2018-04-29T06:02:47Z</time>
      </trkpt>
      <trkpt lat="44.95841" lon="3.54389">
        <ele>953</ele>
        <time>2018-04-29T06:02:51Z</time>
      </trkpt>
      <trkpt lat="44.95838" lon="3.54384">
        <ele>952</ele>
        <time>2018-04-29T06:02:55Z</time>
      </trkpt>
      <trkpt lat="44.9583" lon="3.54373">
        <ele>953</ele>
        <time>2018-04-29T06:03:03Z</time>
      </trkpt>
      <trkpt lat="44.95826" lon="3.54362">
        <ele>952</ele>
        <time>2018-04-29T06:03:12Z</time>
      </trkpt>
      <trkpt lat="44.95825" lon="3.54355">
        <ele>951</ele>
        <time>2018-04-29T06:03:15Z</time>
      </trkpt>
      <trkpt lat="44.95815" lon="3.54322">
        <ele>951</ele>
        <time>2018-04-29T06:03:37Z</time>
      </trkpt>
      <trkpt lat="44.95807" lon="3.54305">
        <ele>950</ele>
        <time>2018-04-29T06:03:50Z</time>
      </trkpt>
      <trkpt lat="44.95802" lon="3.54301">
        <ele>951</ele>
        <time>2018-04-29T06:03:55Z</time>
      </trkpt>
      <trkpt lat="44.95795" lon="3.54291">
        <ele>948</ele>
        <time>2018-04-29T06:04:03Z</time>
      </trkpt>
      <trkpt lat="44.95781" lon="3.54261">
        <ele>947</ele>
        <time>2018-04-29T06:04:23Z</time>
      </trkpt>
      <trkpt lat="44.95772" lon="3.54254">
        <ele>947</ele>
        <time>2018-04-29T06:04:31Z</time>
      </trkpt>
      <trkpt lat="44.95764" lon="3.54249">
        <ele>946</ele>
        <time>2018-04-29T06:04:39Z</time>
      </trkpt>
      <trkpt lat="44.95752" lon="3.54235">
        <ele>945</ele>
        <time>2018-04-29T06:04:52Z</time>
      </trkpt>
      <trkpt lat="44.95744" lon="3.54228">
        <ele>944</ele>
        <time>2018-04-29T06:05:00Z</time>
      </trkpt>
      <trkpt lat="44.95698" lon="3.54203">
        <ele>940</ele>
        <time>2018-04-29T06:05:42Z</time>
      </trkpt>
      <trkpt lat="44.95693" lon="3.54199">
        <ele>940</ele>
        <time>2018-04-29T06:05:47Z</time>
      </trkpt>
      <trkpt lat="44.95689" lon="3.54195">
        <ele>940</ele>
        <time>2018-04-29T06:05:51Z</time>
      </trkpt>
      <trkpt lat="44.9568" lon="3.54187">
        <ele>939</ele>
        <time>2018-04-29T06:06:01Z</time>
      </trkpt>
      <trkpt lat="44.95675" lon="3.54184">
        <ele>939</ele>
        <time>2018-04-29T06:06:05Z</time>
      </trkpt>
      <trkpt lat="44.95665" lon="3.54184">
        <ele>938</ele>
        <time>2018-04-29T06:06:12Z</time>
      </trkpt>
      <trkpt lat="44.9566" lon="3.54182">
        <ele>938</ele>
        <time>2018-04-29T06:06:16Z</time>
      </trkpt>
      <trkpt lat="44.95649" lon="3.5418">
        <ele>939</ele>
        <time>2018-04-29T06:06:24Z</time>
      </trkpt>
      <trkpt lat="44.95645" lon="3.54178">
        <ele>938</ele>
        <time>2018-04-29T06:06:28Z</time>
      </trkpt>
      <trkpt lat="44.95641" lon="3.54174">
        <ele>938</ele>
        <time>2018-04-29T06:06:32Z</time>
      </trkpt>
      <trkpt lat="44.95634" lon="3.54164">
        <ele>937</ele>
        <time>2018-04-29T06:06:41Z</time>
      </trkpt>
      <trkpt lat="44.95626" lon="3.54145">
        <ele>937</ele>
        <time>2018-04-29T06:06:54Z</time>
      </trkpt>
      <trkpt lat="44.95626" lon="3.54138">
        <ele>936</ele>
        <time>2018-04-29T06:06:58Z</time>
      </trkpt>
      <trkpt lat="44.95631" lon="3.54124">
        <ele>935</ele>
        <time>2018-04-29T06:07:06Z</time>
      </trkpt>
      <trkpt lat="44.9563" lon="3.54103">
        <ele>935</ele>
        <time>2018-04-29T06:07:19Z</time>
      </trkpt>
      <trkpt lat="44.95625" lon="3.54095">
        <ele>935</ele>
        <time>2018-04-29T06:07:27Z</time>
      </trkpt>
      <trkpt lat="44.9562" lon="3.54091">
        <ele>936</ele>
        <time>2018-04-29T06:07:34Z</time>
      </trkpt>
      <trkpt lat="44.95617" lon="3.54085">
        <ele>937</ele>
        <time>2018-04-29T06:07:58Z</time>
      </trkpt>
      <trkpt lat="44.95612" lon="3.54083">
        <ele>938</ele>
        <time>2018-04-29T06:08:08Z</time>
      </trkpt>
      <trkpt lat="44.95609" lon="3.54075">
        <ele>937</ele>
        <time>2018-04-29T06:08:22Z</time>
      </trkpt>
      <trkpt lat="44.95605" lon="3.5407">
        <ele>937</ele>
        <time>2018-04-29T06:08:26Z</time>
      </trkpt>
      <trkpt lat="44.95596" lon="3.54053">
        <ele>938</ele>
        <time>2018-04-29T06:08:39Z</time>
      </trkpt>
      <trkpt lat="44.95595" lon="3.54046">
        <ele>938</ele>
        <time>2018-04-29T06:08:43Z</time>
      </trkpt>
      <trkpt lat="44.95595" lon="3.5404">
        <ele>938</ele>
        <time>2018-04-29T06:08:47Z</time>
      </trkpt>
      <trkpt lat="44.95587" lon="3.53996">
        <ele>938</ele>
        <time>2018-04-29T06:09:17Z</time>
      </trkpt>
      <trkpt lat="44.95563" lon="3.5391">
        <ele>936</ele>
        <time>2018-04-29T06:10:27Z</time>
      </trkpt>
      <trkpt lat="44.95563" lon="3.53903">
        <ele>937</ele>
        <time>2018-04-29T06:10:32Z</time>
      </trkpt>
      <trkpt lat="44.95566" lon="3.53896">
        <ele>938</ele>
        <time>2018-04-29T06:10:36Z</time>
      </trkpt>
      <trkpt lat="44.95566" lon="3.53889">
        <ele>938</ele>
        <time>2018-04-29T06:10:40Z</time>
      </trkpt>
      <trkpt lat="44.9556" lon="3.53878">
        <ele>938</ele>
        <time>2018-04-29T06:10:58Z</time>
      </trkpt>
      <trkpt lat="44.95554" lon="3.53864">
        <ele>938</ele>
        <time>2018-04-29T06:11:06Z</time>
      </trkpt>
      <trkpt lat="44.9555" lon="3.53861">
        <ele>938</ele>
        <time>2018-04-29T06:11:10Z</time>
      </trkpt>
      <trkpt lat="44.9554" lon="3.53862">
        <ele>940</ele>
        <time>2018-04-29T06:11:17Z</time>
      </trkpt>
      <trkpt lat="44.95529" lon="3.53862">
        <ele>938</ele>
        <time>2018-04-29T06:11:25Z</time>
      </trkpt>
      <trkpt lat="44.95519" lon="3.5386">
        <ele>939</ele>
        <time>2018-04-29T06:11:33Z</time>
      </trkpt>
      <trkpt lat="44.95484" lon="3.53848">
        <ele>937</ele>
        <time>2018-04-29T06:12:01Z</time>
      </trkpt>
      <trkpt lat="44.95475" lon="3.53846">
        <ele>937</ele>
        <time>2018-04-29T06:12:09Z</time>
      </trkpt>
      <trkpt lat="44.95446" lon="3.53833">
        <ele>937</ele>
        <time>2018-04-29T06:12:34Z</time>
      </trkpt>
      <trkpt lat="44.95427" lon="3.53817">
        <ele>936</ele>
        <time>2018-04-29T06:12:50Z</time>
      </trkpt>
      <trkpt lat="44.954" lon="3.53785">
        <ele>937</ele>
        <time>2018-04-29T06:13:18Z</time>
      </trkpt>
      <trkpt lat="44.95359" lon="3.53746">
        <ele>938</ele>
        <time>2018-04-29T06:13:59Z</time>
      </trkpt>
      <trkpt lat="44.95321" lon="3.53725">
        <ele>938</ele>
        <time>2018-04-29T06:14:33Z</time>
      </trkpt>
      <trkpt lat="44.95292" lon="3.53712">
        <ele>938</ele>
        <time>2018-04-29T06:14:57Z</time>
      </trkpt>
      <trkpt lat="44.95274" lon="3.53701">
        <ele>939</ele>
        <time>2018-04-29T06:15:13Z</time>
      </trkpt>
      <trkpt lat="44.95266" lon="3.53693">
        <ele>939</ele>
        <time>2018-04-29T06:15:21Z</time>
      </trkpt>
      <trkpt lat="44.95253" lon="3.53672">
        <ele>940</ele>
        <time>2018-04-29T06:15:38Z</time>
      </trkpt>
      <trkpt lat="44.9525" lon="3.53665">
        <ele>940</ele>
        <time>2018-04-29T06:15:43Z</time>
      </trkpt>
      <trkpt lat="44.95245" lon="3.53637">
        <ele>941</ele>
        <time>2018-04-29T06:16:01Z</time>
      </trkpt>
      <trkpt lat="44.95219" lon="3.53563">
        <ele>942</ele>
        <time>2018-04-29T06:16:51Z</time>
      </trkpt>
      <trkpt lat="44.95158" lon="3.53436">
        <ele>943</ele>
        <time>2018-04-29T06:18:20Z</time>
      </trkpt>
      <trkpt lat="44.95154" lon="3.53432">
        <ele>944</ele>
        <time>2018-04-29T06:18:24Z</time>
      </trkpt>
      <trkpt lat="44.9515" lon="3.53428">
        <ele>944</ele>
        <time>2018-04-29T06:18:28Z</time>
      </trkpt>
      <trkpt lat="44.95119" lon="3.53364">
        <ele>943</ele>
        <time>2018-04-29T06:19:13Z</time>
      </trkpt>
      <trkpt lat="44.95117" lon="3.53358">
        <ele>942</ele>
        <time>2018-04-29T06:19:17Z</time>
      </trkpt>
      <trkpt lat="44.95102" lon="3.53336">
        <ele>942</ele>
        <time>2018-04-29T06:19:34Z</time>
      </trkpt>
      <trkpt lat="44.95098" lon="3.53332">
        <ele>943</ele>
        <time>2018-04-29T06:19:38Z</time>
      </trkpt>
      <trkpt lat="44.95093" lon="3.5333">
        <ele>943</ele>
        <time>2018-04-29T06:19:42Z</time>
      </trkpt>
      <trkpt lat="44.95082" lon="3.53316">
        <ele>943</ele>
        <time>2018-04-29T06:19:55Z</time>
      </trkpt>
      <trkpt lat="44.95036" lon="3.5328">
        <ele>944</ele>
        <time>2018-04-29T06:20:37Z</time>
      </trkpt>
      <trkpt lat="44.9503" lon="3.53279">
        <ele>944</ele>
        <time>2018-04-29T06:20:42Z</time>
      </trkpt>
      <trkpt lat="44.95022" lon="3.53272">
        <ele>944</ele>
        <time>2018-04-29T06:20:49Z</time>
      </trkpt>
      <trkpt lat="44.95016" lon="3.53261">
        <ele>944</ele>
        <time>2018-04-29T06:20:57Z</time>
      </trkpt>
      <trkpt lat="44.9501" lon="3.53259">
        <ele>944</ele>
        <time>2018-04-29T06:21:02Z</time>
      </trkpt>
      <trkpt lat="44.95" lon="3.53259">
        <ele>945</ele>
        <time>2018-04-29T06:21:10Z</time>
      </trkpt>
      <trkpt lat="44.94961" lon="3.53261">
        <ele>945</ele>
        <time>2018-04-29T06:21:42Z</time>
      </trkpt>
      <trkpt lat="44.94925" lon="3.53253">
        <ele>947</ele>
        <time>2018-04-29T06:22:15Z</time>
      </trkpt>
      <trkpt lat="44.94917" lon="3.53252">
        <ele>947</ele>
        <time>2018-04-29T06:22:23Z</time>
      </trkpt>
      <trkpt lat="44.94886" lon="3.5324">
        <ele>949</ele>
        <time>2018-04-29T06:22:51Z</time>
      </trkpt>
      <trkpt lat="44.94882" lon="3.53237">
        <ele>950</ele>
        <time>2018-04-29T06:22:56Z</time>
      </trkpt>
      <trkpt lat="44.94876" lon="3.53235">
        <ele>950</ele>
        <time>2018-04-29T06:23:01Z</time>
      </trkpt>
      <trkpt lat="44.94867" lon="3.53228">
        <ele>951</ele>
        <time>2018-04-29T06:23:10Z</time>
      </trkpt>
      <trkpt lat="44.94852" lon="3.53223">
        <ele>952</ele>
        <time>2018-04-29T06:23:25Z</time>
      </trkpt>
      <trkpt lat="44.94823" lon="3.53209">
        <ele>956</ele>
        <time>2018-04-29T06:23:56Z</time>
      </trkpt>
      <trkpt lat="44.94761" lon="3.53159">
        <ele>960</ele>
        <time>2018-04-29T06:25:06Z</time>
      </trkpt>
      <trkpt lat="44.94709" lon="3.53125">
        <ele>966</ele>
        <time>2018-04-29T06:26:01Z</time>
      </trkpt>
      <trkpt lat="44.94705" lon="3.53122">
        <ele>966</ele>
        <time>2018-04-29T06:26:05Z</time>
      </trkpt>
      <trkpt lat="44.94702" lon="3.53117">
        <ele>966</ele>
        <time>2018-04-29T06:26:09Z</time>
      </trkpt>
      <trkpt lat="44.94698" lon="3.53113">
        <ele>966</ele>
        <time>2018-04-29T06:26:13Z</time>
      </trkpt>
      <trkpt lat="44.94617" lon="3.53056">
        <ele>972</ele>
        <time>2018-04-29T06:27:41Z</time>
      </trkpt>
      <trkpt lat="44.946" lon="3.53039">
        <ele>974</ele>
        <time>2018-04-29T06:28:00Z</time>
      </trkpt>
      <trkpt lat="44.94586" lon="3.5303">
        <ele>974</ele>
        <time>2018-04-29T06:28:14Z</time>
      </trkpt>
      <trkpt lat="44.94567" lon="3.53021">
        <ele>975</ele>
        <time>2018-04-29T06:28:31Z</time>
      </trkpt>
      <trkpt lat="44.94563" lon="3.53018">
        <ele>976</ele>
        <time>2018-04-29T06:28:35Z</time>
      </trkpt>
      <trkpt lat="44.94553" lon="3.53015">
        <ele>977</ele>
        <time>2018-04-29T06:28:44Z</time>
      </trkpt>
      <trkpt lat="44.94548" lon="3.53015">
        <ele>977</ele>
        <time>2018-04-29T06:28:48Z</time>
      </trkpt>
      <trkpt lat="44.94543" lon="3.53013">
        <ele>977</ele>
        <time>2018-04-29T06:28:53Z</time>
      </trkpt>
      <trkpt lat="44.94507" lon="3.52995">
        <ele>980</ele>
        <time>2018-04-29T06:29:28Z</time>
      </trkpt>
      <trkpt lat="44.94498" lon="3.52987">
        <ele>981</ele>
        <time>2018-04-29T06:29:37Z</time>
      </trkpt>
      <trkpt lat="44.94482" lon="3.52967">
        <ele>984</ele>
        <time>2018-04-29T06:29:57Z</time>
      </trkpt>
      <trkpt lat="44.94451" lon="3.52911">
        <ele>988</ele>
        <time>2018-04-29T06:30:43Z</time>
      </trkpt>
      <trkpt lat="44.94421" lon="3.52879">
        <ele>990</ele>
        <time>2018-04-29T06:31:21Z</time>
      </trkpt>
      <trkpt lat="44.94395" lon="3.52848">
        <ele>990</ele>
        <time>2018-04-29T06:31:54Z</time>
      </trkpt>
      <trkpt lat="44.94392" lon="3.52842">
        <ele>991</ele>
        <time>2018-04-29T06:31:59Z</time>
      </trkpt>
      <trkpt lat="44.94353" lon="3.52806">
        <ele>994</ele>
        <time>2018-04-29T06:32:43Z</time>
      </trkpt>
      <trkpt lat="44.94344" lon="3.52799">
        <ele>994</ele>
        <time>2018-04-29T06:32:54Z</time>
      </trkpt>
      <trkpt lat="44.94339" lon="3.52797">
        <ele>995</ele>
        <time>2018-04-29T06:32:59Z</time>
      </trkpt>
      <trkpt lat="44.94329" lon="3.52793">
        <ele>996</ele>
        <time>2018-04-29T06:33:09Z</time>
      </trkpt>
      <trkpt lat="44.94323" lon="3.52793">
        <ele>997</ele>
        <time>2018-04-29T06:33:14Z</time>
      </trkpt>
      <trkpt lat="44.94319" lon="3.52793">
        <ele>996</ele>
        <time>2018-04-29T06:33:19Z</time>
      </trkpt>
      <trkpt lat="44.94313" lon="3.52791">
        <ele>997</ele>
        <time>2018-04-29T06:33:27Z</time>
      </trkpt>
      <trkpt lat="44.94309" lon="3.52797">
        <ele>999</ele>
        <time>2018-04-29T06:33:45Z</time>
      </trkpt>
      <trkpt lat="44.94305" lon="3.528">
        <ele>998</ele>
        <time>2018-04-29T06:33:50Z</time>
      </trkpt>
      <trkpt lat="44.94285" lon="3.52808">
        <ele>1001</ele>
        <time>2018-04-29T06:34:09Z</time>
      </trkpt>
      <trkpt lat="44.94276" lon="3.52814">
        <ele>1001</ele>
        <time>2018-04-29T06:34:17Z</time>
      </trkpt>
      <trkpt lat="44.94267" lon="3.52812">
        <ele>1001</ele>
        <time>2018-04-29T06:34:27Z</time>
      </trkpt>
      <trkpt lat="44.94229" lon="3.52828">
        <ele>1002</ele>
        <time>2018-04-29T06:35:00Z</time>
      </trkpt>
      <trkpt lat="44.94224" lon="3.5283">
        <ele>1003</ele>
        <time>2018-04-29T06:35:05Z</time>
      </trkpt>
      <trkpt lat="44.94202" lon="3.52842">
        <ele>1003</ele>
        <time>2018-04-29T06:35:25Z</time>
      </trkpt>
      <trkpt lat="44.94178" lon="3.5285">
        <ele>1004</ele>
        <time>2018-04-29T06:35:46Z</time>
      </trkpt>
      <trkpt lat="44.94173" lon="3.52852">
        <ele>1004</ele>
        <time>2018-04-29T06:35:51Z</time>
      </trkpt>
      <trkpt lat="44.94149" lon="3.52859">
        <ele>1003</ele>
        <time>2018-04-29T06:36:12Z</time>
      </trkpt>
      <trkpt lat="44.94144" lon="3.52857">
        <ele>1002</ele>
        <time>2018-04-29T06:36:17Z</time>
      </trkpt>
      <trkpt lat="44.94139" lon="3.52854">
        <ele>1002</ele>
        <time>2018-04-29T06:36:22Z</time>
      </trkpt>
      <trkpt lat="44.94135" lon="3.52849">
        <ele>1001</ele>
        <time>2018-04-29T06:36:27Z</time>
      </trkpt>
      <trkpt lat="44.94105" lon="3.52844">
        <ele>998</ele>
        <time>2018-04-29T06:36:51Z</time>
      </trkpt>
      <trkpt lat="44.94086" lon="3.52846">
        <ele>997</ele>
        <time>2018-04-29T06:37:07Z</time>
      </trkpt>
      <trkpt lat="44.94077" lon="3.5285">
        <ele>997</ele>
        <time>2018-04-29T06:37:15Z</time>
      </trkpt>
      <trkpt lat="44.94058" lon="3.52861">
        <ele>998</ele>
        <time>2018-04-29T06:37:32Z</time>
      </trkpt>
      <trkpt lat="44.94022" lon="3.52877">
        <ele>997</ele>
        <time>2018-04-29T06:38:05Z</time>
      </trkpt>
      <trkpt lat="44.94018" lon="3.52881">
        <ele>998</ele>
        <time>2018-04-29T06:38:09Z</time>
      </trkpt>
      <trkpt lat="44.9401" lon="3.52897">
        <ele>1000</ele>
        <time>2018-04-29T06:38:21Z</time>
      </trkpt>
      <trkpt lat="44.93992" lon="3.52961">
        <ele>1004</ele>
        <time>2018-04-29T06:39:06Z</time>
      </trkpt>
      <trkpt lat="44.93988" lon="3.52965">
        <ele>1004</ele>
        <time>2018-04-29T06:39:11Z</time>
      </trkpt>
      <trkpt lat="44.93979" lon="3.52967">
        <ele>1006</ele>
        <time>2018-04-29T06:39:21Z</time>
      </trkpt>
      <trkpt lat="44.93974" lon="3.5297">
        <ele>1007</ele>
        <time>2018-04-29T06:39:30Z</time>
      </trkpt>
      <trkpt lat="44.93969" lon="3.5297">
        <ele>1008</ele>
        <time>2018-04-29T06:39:36Z</time>
      </trkpt>
      <trkpt lat="44.93961" lon="3.52979">
        <ele>1009</ele>
        <time>2018-04-29T06:39:46Z</time>
      </trkpt>
      <trkpt lat="44.93951" lon="3.52984">
        <ele>1011</ele>
        <time>2018-04-29T06:39:56Z</time>
      </trkpt>
      <trkpt lat="44.93935" lon="3.52987">
        <ele>1012</ele>
        <time>2018-04-29T06:40:15Z</time>
      </trkpt>
      <trkpt lat="44.93919" lon="3.52986">
        <ele>1014</ele>
        <time>2018-04-29T06:40:28Z</time>
      </trkpt>
      <trkpt lat="44.93902" lon="3.5298">
        <ele>1016</ele>
        <time>2018-04-29T06:40:50Z</time>
      </trkpt>
      <trkpt lat="44.93877" lon="3.52974">
        <ele>1017</ele>
        <time>2018-04-29T06:41:10Z</time>
      </trkpt>
      <trkpt lat="44.93863" lon="3.52964">
        <ele>1017</ele>
        <time>2018-04-29T06:41:24Z</time>
      </trkpt>
      <trkpt lat="44.93847" lon="3.52949">
        <ele>1019</ele>
        <time>2018-04-29T06:41:43Z</time>
      </trkpt>
      <trkpt lat="44.93844" lon="3.5294">
        <ele>1020</ele>
        <time>2018-04-29T06:41:50Z</time>
      </trkpt>
      <trkpt lat="44.93839" lon="3.52937">
        <ele>1020</ele>
        <time>2018-04-29T06:41:54Z</time>
      </trkpt>
      <trkpt lat="44.93833" lon="3.52936">
        <ele>1019</ele>
        <time>2018-04-29T06:42:03Z</time>
      </trkpt>
      <trkpt lat="44.93826" lon="3.52926">
        <ele>1020</ele>
        <time>2018-04-29T06:42:12Z</time>
      </trkpt>
      <trkpt lat="44.93822" lon="3.5292">
        <ele>1020</ele>
        <time>2018-04-29T06:42:16Z</time>
      </trkpt>
      <trkpt lat="44.9382" lon="3.52915">
        <ele>1020</ele>
        <time>2018-04-29T06:42:20Z</time>
      </trkpt>
      <trkpt lat="44.93813" lon="3.52906">
        <ele>1021</ele>
        <time>2018-04-29T06:42:28Z</time>
      </trkpt>
      <trkpt lat="44.93792" lon="3.52875">
        <ele>1021</ele>
        <time>2018-04-29T06:42:55Z</time>
      </trkpt>
      <trkpt lat="44.9379" lon="3.5287">
        <ele>1021</ele>
        <time>2018-04-29T06:42:59Z</time>
      </trkpt>
      <trkpt lat="44.93786" lon="3.52865">
        <ele>1021</ele>
        <time>2018-04-29T06:43:04Z</time>
      </trkpt>
      <trkpt lat="44.93781" lon="3.52862">
        <ele>1021</ele>
        <time>2018-04-29T06:43:09Z</time>
      </trkpt>
      <trkpt lat="44.93777" lon="3.52856">
        <ele>1022</ele>
        <time>2018-04-29T06:43:14Z</time>
      </trkpt>
      <trkpt lat="44.93772" lon="3.52854">
        <ele>1022</ele>
        <time>2018-04-29T06:43:19Z</time>
      </trkpt>
      <trkpt lat="44.93767" lon="3.5285">
        <ele>1023</ele>
        <time>2018-04-29T06:43:33Z</time>
      </trkpt>
      <trkpt lat="44.93763" lon="3.52848">
        <ele>1022</ele>
        <time>2018-04-29T06:43:37Z</time>
      </trkpt>
      <trkpt lat="44.93758" lon="3.52848">
        <ele>1023</ele>
        <time>2018-04-29T06:43:41Z</time>
      </trkpt>
      <trkpt lat="44.93747" lon="3.52845">
        <ele>1024</ele>
        <time>2018-04-29T06:43:50Z</time>
      </trkpt>
      <trkpt lat="44.93743" lon="3.52844">
        <ele>1024</ele>
        <time>2018-04-29T06:43:54Z</time>
      </trkpt>
      <trkpt lat="44.93738" lon="3.52845">
        <ele>1024</ele>
        <time>2018-04-29T06:43:58Z</time>
      </trkpt>
      <trkpt lat="44.93725" lon="3.52852">
        <ele>1024</ele>
        <time>2018-04-29T06:44:12Z</time>
      </trkpt>
      <trkpt lat="44.93717" lon="3.52858">
        <ele>1025</ele>
        <time>2018-04-29T06:44:20Z</time>
      </trkpt>
      <trkpt lat="44.93712" lon="3.5286">
        <ele>1025</ele>
        <time>2018-04-29T06:44:25Z</time>
      </trkpt>
      <trkpt lat="44.93707" lon="3.52859">
        <ele>1025</ele>
        <time>2018-04-29T06:44:30Z</time>
      </trkpt>
      <trkpt lat="44.93702" lon="3.52856">
        <ele>1025</ele>
        <time>2018-04-29T06:44:35Z</time>
      </trkpt>
      <trkpt lat="44.93695" lon="3.52854">
        <ele>1025</ele>
        <time>2018-04-29T06:44:42Z</time>
      </trkpt>
      <trkpt lat="44.9369" lon="3.52845">
        <ele>1025</ele>
        <time>2018-04-29T06:44:56Z</time>
      </trkpt>
      <trkpt lat="44.93686" lon="3.52842">
        <ele>1025</ele>
        <time>2018-04-29T06:45:00Z</time>
      </trkpt>
      <trkpt lat="44.93675" lon="3.52827">
        <ele>1025</ele>
        <time>2018-04-29T06:45:13Z</time>
      </trkpt>
      <trkpt lat="44.93671" lon="3.52823">
        <ele>1025</ele>
        <time>2018-04-29T06:45:17Z</time>
      </trkpt>
      <trkpt lat="44.93664" lon="3.52805">
        <ele>1025</ele>
        <time>2018-04-29T06:45:29Z</time>
      </trkpt>
      <trkpt lat="44.93649" lon="3.52784">
        <ele>1026</ele>
        <time>2018-04-29T06:45:46Z</time>
      </trkpt>
      <trkpt lat="44.93637" lon="3.52762">
        <ele>1027</ele>
        <time>2018-04-29T06:46:03Z</time>
      </trkpt>
      <trkpt lat="44.93635" lon="3.52756">
        <ele>1027</ele>
        <time>2018-04-29T06:46:07Z</time>
      </trkpt>
      <trkpt lat="44.93623" lon="3.52733">
        <ele>1026</ele>
        <time>2018-04-29T06:46:24Z</time>
      </trkpt>
      <trkpt lat="44.93619" lon="3.5272">
        <ele>1026</ele>
        <time>2018-04-29T06:46:32Z</time>
      </trkpt>
      <trkpt lat="44.93616" lon="3.52715">
        <ele>1026</ele>
        <time>2018-04-29T06:46:36Z</time>
      </trkpt>
      <trkpt lat="44.93611" lon="3.5271">
        <ele>1026</ele>
        <time>2018-04-29T06:46:41Z</time>
      </trkpt>
      <trkpt lat="44.93607" lon="3.52707">
        <ele>1026</ele>
        <time>2018-04-29T06:46:45Z</time>
      </trkpt>
      <trkpt lat="44.93603" lon="3.52702">
        <ele>1026</ele>
        <time>2018-04-29T06:46:49Z</time>
      </trkpt>
      <trkpt lat="44.936" lon="3.52696">
        <ele>1026</ele>
        <time>2018-04-29T06:46:53Z</time>
      </trkpt>
      <trkpt lat="44.93598" lon="3.52688">
        <ele>1026</ele>
        <time>2018-04-29T06:46:57Z</time>
      </trkpt>
      <trkpt lat="44.93595" lon="3.52683">
        <ele>1026</ele>
        <time>2018-04-29T06:47:01Z</time>
      </trkpt>
      <trkpt lat="44.93591" lon="3.52679">
        <ele>1027</ele>
        <time>2018-04-29T06:47:05Z</time>
      </trkpt>
      <trkpt lat="44.93585" lon="3.52667">
        <ele>1026</ele>
        <time>2018-04-29T06:47:14Z</time>
      </trkpt>
      <trkpt lat="44.93582" lon="3.52661">
        <ele>1027</ele>
        <time>2018-04-29T06:47:18Z</time>
      </trkpt>
      <trkpt lat="44.9358" lon="3.52655">
        <ele>1027</ele>
        <time>2018-04-29T06:47:22Z</time>
      </trkpt>
      <trkpt lat="44.93578" lon="3.52648">
        <ele>1027</ele>
        <time>2018-04-29T06:47:27Z</time>
      </trkpt>
      <trkpt lat="44.93575" lon="3.52642">
        <ele>1027</ele>
        <time>2018-04-29T06:47:31Z</time>
      </trkpt>
      <trkpt lat="44.93546" lon="3.52533">
        <ele>1029</ele>
        <time>2018-04-29T06:48:42Z</time>
      </trkpt>
      <trkpt lat="44.93543" lon="3.52528">
        <ele>1029</ele>
        <time>2018-04-29T06:48:46Z</time>
      </trkpt>
      <trkpt lat="44.9354" lon="3.52522">
        <ele>1030</ele>
        <time>2018-04-29T06:48:50Z</time>
      </trkpt>
      <trkpt lat="44.93523" lon="3.5248">
        <ele>1029</ele>
        <time>2018-04-29T06:49:18Z</time>
      </trkpt>
      <trkpt lat="44.93513" lon="3.52464">
        <ele>1029</ele>
        <time>2018-04-29T06:49:30Z</time>
      </trkpt>
      <trkpt lat="44.9351" lon="3.52459">
        <ele>1029</ele>
        <time>2018-04-29T06:49:34Z</time>
      </trkpt>
      <trkpt lat="44.93501" lon="3.52453">
        <ele>1029</ele>
        <time>2018-04-29T06:49:42Z</time>
      </trkpt>
      <trkpt lat="44.93491" lon="3.5244">
        <ele>1028</ele>
        <time>2018-04-29T06:50:13Z</time>
      </trkpt>
      <trkpt lat="44.93485" lon="3.52438">
        <ele>1028</ele>
        <time>2018-04-29T06:50:17Z</time>
      </trkpt>
      <trkpt lat="44.93471" lon="3.52436">
        <ele>1029</ele>
        <time>2018-04-29T06:50:29Z</time>
      </trkpt>
      <trkpt lat="44.93456" lon="3.52439">
        <ele>1029</ele>
        <time>2018-04-29T06:50:41Z</time>
      </trkpt>
      <trkpt lat="44.93445" lon="3.52443">
        <ele>1028</ele>
        <time>2018-04-29T06:50:51Z</time>
      </trkpt>
      <trkpt lat="44.9344" lon="3.52443">
        <ele>1028</ele>
        <time>2018-04-29T06:50:55Z</time>
      </trkpt>
      <trkpt lat="44.93424" lon="3.52446">
        <ele>1028</ele>
        <time>2018-04-29T06:51:10Z</time>
      </trkpt>
      <trkpt lat="44.93414" lon="3.52445">
        <ele>1029</ele>
        <time>2018-04-29T06:51:18Z</time>
      </trkpt>
      <trkpt lat="44.93389" lon="3.52447">
        <ele>1028</ele>
        <time>2018-04-29T06:51:37Z</time>
      </trkpt>
      <trkpt lat="44.93384" lon="3.52446">
        <ele>1028</ele>
        <time>2018-04-29T06:51:41Z</time>
      </trkpt>
      <trkpt lat="44.93365" lon="3.52444">
        <ele>1030</ele>
        <time>2018-04-29T06:51:57Z</time>
      </trkpt>
      <trkpt lat="44.93361" lon="3.52443">
        <ele>1031</ele>
        <time>2018-04-29T06:52:01Z</time>
      </trkpt>
      <trkpt lat="44.93351" lon="3.52443">
        <ele>1031</ele>
        <time>2018-04-29T06:52:09Z</time>
      </trkpt>
      <trkpt lat="44.93346" lon="3.52443">
        <ele>1030</ele>
        <time>2018-04-29T06:52:13Z</time>
      </trkpt>
      <trkpt lat="44.93342" lon="3.52444">
        <ele>1031</ele>
        <time>2018-04-29T06:52:17Z</time>
      </trkpt>
      <trkpt lat="44.93336" lon="3.52443">
        <ele>1031</ele>
        <time>2018-04-29T06:52:22Z</time>
      </trkpt>
      <trkpt lat="44.93326" lon="3.52447">
        <ele>1031</ele>
        <time>2018-04-29T06:52:30Z</time>
      </trkpt>
      <trkpt lat="44.93322" lon="3.52447">
        <ele>1031</ele>
        <time>2018-04-29T06:52:34Z</time>
      </trkpt>
      <trkpt lat="44.93317" lon="3.52446">
        <ele>1031</ele>
        <time>2018-04-29T06:52:39Z</time>
      </trkpt>
      <trkpt lat="44.93312" lon="3.52447">
        <ele>1030</ele>
        <time>2018-04-29T06:52:46Z</time>
      </trkpt>
      <trkpt lat="44.93306" lon="3.52448">
        <ele>1031</ele>
        <time>2018-04-29T06:52:51Z</time>
      </trkpt>
      <trkpt lat="44.93301" lon="3.52448">
        <ele>1030</ele>
        <time>2018-04-29T06:52:55Z</time>
      </trkpt>
      <trkpt lat="44.9328" lon="3.5245">
        <ele>1031</ele>
        <time>2018-04-29T06:53:11Z</time>
      </trkpt>
      <trkpt lat="44.93226" lon="3.52427">
        <ele>1034</ele>
        <time>2018-04-29T06:54:00Z</time>
      </trkpt>
      <trkpt lat="44.93221" lon="3.52427">
        <ele>1034</ele>
        <time>2018-04-29T06:54:04Z</time>
      </trkpt>
      <trkpt lat="44.93212" lon="3.52424">
        <ele>1035</ele>
        <time>2018-04-29T06:54:12Z</time>
      </trkpt>
      <trkpt lat="44.93207" lon="3.52424">
        <ele>1036</ele>
        <time>2018-04-29T06:54:16Z</time>
      </trkpt>
      <trkpt lat="44.93202" lon="3.52422">
        <ele>1036</ele>
        <time>2018-04-29T06:54:21Z</time>
      </trkpt>
      <trkpt lat="44.93192" lon="3.52421">
        <ele>1037</ele>
        <time>2018-04-29T06:54:32Z</time>
      </trkpt>
      <trkpt lat="44.93163" lon="3.52413">
        <ele>1040</ele>
        <time>2018-04-29T06:54:58Z</time>
      </trkpt>
      <trkpt lat="44.93157" lon="3.52414">
        <ele>1040</ele>
        <time>2018-04-29T06:55:03Z</time>
      </trkpt>
      <trkpt lat="44.93125" lon="3.52407">
        <ele>1043</ele>
        <time>2018-04-29T06:55:38Z</time>
      </trkpt>
      <trkpt lat="44.93113" lon="3.52389">
        <ele>1044</ele>
        <time>2018-04-29T06:55:56Z</time>
      </trkpt>
      <trkpt lat="44.93103" lon="3.52365">
        <ele>1046</ele>
        <time>2018-04-29T06:56:16Z</time>
      </trkpt>
      <trkpt lat="44.93096" lon="3.52356">
        <ele>1046</ele>
        <time>2018-04-29T06:56:24Z</time>
      </trkpt>
      <trkpt lat="44.93088" lon="3.52349">
        <ele>1047</ele>
        <time>2018-04-29T06:56:32Z</time>
      </trkpt>
      <trkpt lat="44.9308" lon="3.52339">
        <ele>1046</ele>
        <time>2018-04-29T06:56:41Z</time>
      </trkpt>
      <trkpt lat="44.93071" lon="3.52334">
        <ele>1046</ele>
        <time>2018-04-29T06:56:49Z</time>
      </trkpt>
      <trkpt lat="44.93061" lon="3.52332">
        <ele>1046</ele>
        <time>2018-04-29T06:56:58Z</time>
      </trkpt>
      <trkpt lat="44.93052" lon="3.52332">
        <ele>1047</ele>
        <time>2018-04-29T06:57:04Z</time>
      </trkpt>
      <trkpt lat="44.93039" lon="3.52312">
        <ele>1047</ele>
        <time>2018-04-29T06:57:21Z</time>
      </trkpt>
      <trkpt lat="44.9303" lon="3.52308">
        <ele>1046</ele>
        <time>2018-04-29T06:57:29Z</time>
      </trkpt>
      <trkpt lat="44.93002" lon="3.52309">
        <ele>1045</ele>
        <time>2018-04-29T06:57:51Z</time>
      </trkpt>
      <trkpt lat="44.92993" lon="3.52304">
        <ele>1045</ele>
        <time>2018-04-29T06:58:00Z</time>
      </trkpt>
      <trkpt lat="44.92972" lon="3.52306">
        <ele>1046</ele>
        <time>2018-04-29T06:58:15Z</time>
      </trkpt>
      <trkpt lat="44.92957" lon="3.523">
        <ele>1045</ele>
        <time>2018-04-29T06:58:27Z</time>
      </trkpt>
      <trkpt lat="44.92952" lon="3.52297">
        <ele>1044</ele>
        <time>2018-04-29T06:58:31Z</time>
      </trkpt>
      <trkpt lat="44.92948" lon="3.52293">
        <ele>1045</ele>
        <time>2018-04-29T06:58:35Z</time>
      </trkpt>
      <trkpt lat="44.92943" lon="3.5229">
        <ele>1045</ele>
        <time>2018-04-29T06:58:39Z</time>
      </trkpt>
      <trkpt lat="44.92931" lon="3.52278">
        <ele>1046</ele>
        <time>2018-04-29T06:58:52Z</time>
      </trkpt>
      <trkpt lat="44.92926" lon="3.52275">
        <ele>1046</ele>
        <time>2018-04-29T06:58:56Z</time>
      </trkpt>
      <trkpt lat="44.92914" lon="3.52261">
        <ele>1047</ele>
        <time>2018-04-29T06:59:10Z</time>
      </trkpt>
      <trkpt lat="44.9291" lon="3.52257">
        <ele>1048</ele>
        <time>2018-04-29T06:59:14Z</time>
      </trkpt>
      <trkpt lat="44.92884" lon="3.52249">
        <ele>1047</ele>
        <time>2018-04-29T06:59:34Z</time>
      </trkpt>
      <trkpt lat="44.9288" lon="3.52246">
        <ele>1048</ele>
        <time>2018-04-29T06:59:38Z</time>
      </trkpt>
      <trkpt lat="44.92874" lon="3.52247">
        <ele>1048</ele>
        <time>2018-04-29T06:59:42Z</time>
      </trkpt>
      <trkpt lat="44.92859" lon="3.52241">
        <ele>1049</ele>
        <time>2018-04-29T06:59:54Z</time>
      </trkpt>
      <trkpt lat="44.92851" lon="3.52235">
        <ele>1049</ele>
        <time>2018-04-29T07:00:03Z</time>
      </trkpt>
      <trkpt lat="44.92837" lon="3.52231">
        <ele>1051</ele>
        <time>2018-04-29T07:00:17Z</time>
      </trkpt>
      <trkpt lat="44.92827" lon="3.52233">
        <ele>1052</ele>
        <time>2018-04-29T07:00:26Z</time>
      </trkpt>
      <trkpt lat="44.92822" lon="3.52224">
        <ele>1053</ele>
        <time>2018-04-29T07:00:39Z</time>
      </trkpt>
      <trkpt lat="44.92817" lon="3.5222">
        <ele>1054</ele>
        <time>2018-04-29T07:00:44Z</time>
      </trkpt>
      <trkpt lat="44.92814" lon="3.52214">
        <ele>1055</ele>
        <time>2018-04-29T07:00:49Z</time>
      </trkpt>
      <trkpt lat="44.92811" lon="3.52208">
        <ele>1055</ele>
        <time>2018-04-29T07:00:54Z</time>
      </trkpt>
      <trkpt lat="44.9281" lon="3.52201">
        <ele>1055</ele>
        <time>2018-04-29T07:00:58Z</time>
      </trkpt>
      <trkpt lat="44.928" lon="3.52176">
        <ele>1056</ele>
        <time>2018-04-29T07:01:16Z</time>
      </trkpt>
      <trkpt lat="44.92796" lon="3.52172">
        <ele>1057</ele>
        <time>2018-04-29T07:01:20Z</time>
      </trkpt>
      <trkpt lat="44.9279" lon="3.52161">
        <ele>1057</ele>
        <time>2018-04-29T07:01:28Z</time>
      </trkpt>
      <trkpt lat="44.92781" lon="3.5215">
        <ele>1059</ele>
        <time>2018-04-29T07:01:37Z</time>
      </trkpt>
      <trkpt lat="44.92778" lon="3.52144">
        <ele>1058</ele>
        <time>2018-04-29T07:01:41Z</time>
      </trkpt>
      <trkpt lat="44.92771" lon="3.52133">
        <ele>1059</ele>
        <time>2018-04-29T07:01:51Z</time>
      </trkpt>
      <trkpt lat="44.92766" lon="3.52132">
        <ele>1058</ele>
        <time>2018-04-29T07:01:55Z</time>
      </trkpt>
      <trkpt lat="44.92761" lon="3.52132">
        <ele>1059</ele>
        <time>2018-04-29T07:01:59Z</time>
      </trkpt>
      <trkpt lat="44.92751" lon="3.52129">
        <ele>1059</ele>
        <time>2018-04-29T07:02:07Z</time>
      </trkpt>
      <trkpt lat="44.92747" lon="3.52127">
        <ele>1059</ele>
        <time>2018-04-29T07:02:11Z</time>
      </trkpt>
      <trkpt lat="44.92742" lon="3.52127">
        <ele>1060</ele>
        <time>2018-04-29T07:02:15Z</time>
      </trkpt>
      <trkpt lat="44.92737" lon="3.52124">
        <ele>1060</ele>
        <time>2018-04-29T07:02:20Z</time>
      </trkpt>
      <trkpt lat="44.92733" lon="3.52119">
        <ele>1060</ele>
        <time>2018-04-29T07:02:25Z</time>
      </trkpt>
      <trkpt lat="44.92721" lon="3.52113">
        <ele>1063</ele>
        <time>2018-04-29T07:02:36Z</time>
      </trkpt>
      <trkpt lat="44.92715" lon="3.52111">
        <ele>1063</ele>
        <time>2018-04-29T07:02:43Z</time>
      </trkpt>
      <trkpt lat="44.92713" lon="3.52103">
        <ele>1063</ele>
        <time>2018-04-29T07:02:51Z</time>
      </trkpt>
      <trkpt lat="44.92691" lon="3.52088">
        <ele>1066</ele>
        <time>2018-04-29T07:03:13Z</time>
      </trkpt>
      <trkpt lat="44.92686" lon="3.52086">
        <ele>1066</ele>
        <time>2018-04-29T07:03:17Z</time>
      </trkpt>
      <trkpt lat="44.92674" lon="3.52083">
        <ele>1067</ele>
        <time>2018-04-29T07:03:28Z</time>
      </trkpt>
      <trkpt lat="44.92668" lon="3.5208">
        <ele>1067</ele>
        <time>2018-04-29T07:03:35Z</time>
      </trkpt>
      <trkpt lat="44.92641" lon="3.52056">
        <ele>1070</ele>
        <time>2018-04-29T07:04:05Z</time>
      </trkpt>
      <trkpt lat="44.92607" lon="3.51987">
        <ele>1072</ele>
        <time>2018-04-29T07:04:56Z</time>
      </trkpt>
      <trkpt lat="44.92593" lon="3.51968">
        <ele>1072</ele>
        <time>2018-04-29T07:05:13Z</time>
      </trkpt>
      <trkpt lat="44.92581" lon="3.51947">
        <ele>1075</ele>
        <time>2018-04-29T07:05:30Z</time>
      </trkpt>
      <trkpt lat="44.92563" lon="3.51935">
        <ele>1076</ele>
        <time>2018-04-29T07:05:47Z</time>
      </trkpt>
      <trkpt lat="44.92544" lon="3.51908">
        <ele>1077</ele>
        <time>2018-04-29T07:06:11Z</time>
      </trkpt>
      <trkpt lat="44.92536" lon="3.519">
        <ele>1078</ele>
        <time>2018-04-29T07:06:19Z</time>
      </trkpt>
      <trkpt lat="44.92527" lon="3.51895">
        <ele>1077</ele>
        <time>2018-04-29T07:06:26Z</time>
      </trkpt>
      <trkpt lat="44.92506" lon="3.51869">
        <ele>1080</ele>
        <time>2018-04-29T07:06:51Z</time>
      </trkpt>
      <trkpt lat="44.92487" lon="3.5184">
        <ele>1080</ele>
        <time>2018-04-29T07:07:15Z</time>
      </trkpt>
      <trkpt lat="44.92481" lon="3.51828">
        <ele>1080</ele>
        <time>2018-04-29T07:07:23Z</time>
      </trkpt>
      <trkpt lat="44.92458" lon="3.51804">
        <ele>1080</ele>
        <time>2018-04-29T07:07:45Z</time>
      </trkpt>
      <trkpt lat="44.92426" lon="3.51753">
        <ele>1079</ele>
        <time>2018-04-29T07:08:23Z</time>
      </trkpt>
      <trkpt lat="44.9241" lon="3.5172">
        <ele>1077</ele>
        <time>2018-04-29T07:08:43Z</time>
      </trkpt>
      <trkpt lat="44.92404" lon="3.51711">
        <ele>1078</ele>
        <time>2018-04-29T07:08:50Z</time>
      </trkpt>
      <trkpt lat="44.92399" lon="3.51699">
        <ele>1077</ele>
        <time>2018-04-29T07:08:58Z</time>
      </trkpt>
      <trkpt lat="44.92394" lon="3.51688">
        <ele>1076</ele>
        <time>2018-04-29T07:09:07Z</time>
      </trkpt>
      <trkpt lat="44.9239" lon="3.51675">
        <ele>1076</ele>
        <time>2018-04-29T07:09:16Z</time>
      </trkpt>
      <trkpt lat="44.92385" lon="3.51664">
        <ele>1076</ele>
        <time>2018-04-29T07:09:24Z</time>
      </trkpt>
      <trkpt lat="44.92344" lon="3.51633">
        <ele>1074</ele>
        <time>2018-04-29T07:10:01Z</time>
      </trkpt>
      <trkpt lat="44.92335" lon="3.51628">
        <ele>1074</ele>
        <time>2018-04-29T07:10:09Z</time>
      </trkpt>
      <trkpt lat="44.92327" lon="3.51619">
        <ele>1074</ele>
        <time>2018-04-29T07:10:17Z</time>
      </trkpt>
      <trkpt lat="44.92322" lon="3.51606">
        <ele>1074</ele>
        <time>2018-04-29T07:10:25Z</time>
      </trkpt>
      <trkpt lat="44.92312" lon="3.51584">
        <ele>1072</ele>
        <time>2018-04-29T07:10:42Z</time>
      </trkpt>
      <trkpt lat="44.923" lon="3.51563">
        <ele>1072</ele>
        <time>2018-04-29T07:10:57Z</time>
      </trkpt>
      <trkpt lat="44.92293" lon="3.51537">
        <ele>1071</ele>
        <time>2018-04-29T07:11:12Z</time>
      </trkpt>
      <trkpt lat="44.92291" lon="3.51524">
        <ele>1069</ele>
        <time>2018-04-29T07:11:19Z</time>
      </trkpt>
      <trkpt lat="44.92261" lon="3.51454">
        <ele>1066</ele>
        <time>2018-04-29T07:12:05Z</time>
      </trkpt>
      <trkpt lat="44.92255" lon="3.51445">
        <ele>1066</ele>
        <time>2018-04-29T07:12:12Z</time>
      </trkpt>
      <trkpt lat="44.92233" lon="3.514">
        <ele>1065</ele>
        <time>2018-04-29T07:12:43Z</time>
      </trkpt>
      <trkpt lat="44.92222" lon="3.51369">
        <ele>1064</ele>
        <time>2018-04-29T07:13:02Z</time>
      </trkpt>
      <trkpt lat="44.92184" lon="3.51226">
        <ele>1065</ele>
        <time>2018-04-29T07:14:30Z</time>
      </trkpt>
      <trkpt lat="44.92181" lon="3.5122">
        <ele>1065</ele>
        <time>2018-04-29T07:14:35Z</time>
      </trkpt>
      <trkpt lat="44.92179" lon="3.51202">
        <ele>1064</ele>
        <time>2018-04-29T07:14:46Z</time>
      </trkpt>
      <trkpt lat="44.92174" lon="3.51183">
        <ele>1065</ele>
        <time>2018-04-29T07:14:58Z</time>
      </trkpt>
      <trkpt lat="44.92167" lon="3.51145">
        <ele>1066</ele>
        <time>2018-04-29T07:15:23Z</time>
      </trkpt>
      <trkpt lat="44.92166" lon="3.51129">
        <ele>1066</ele>
        <time>2018-04-29T07:16:02Z</time>
      </trkpt>
      <trkpt lat="44.92157" lon="3.51089">
        <ele>1068</ele>
        <time>2018-04-29T07:16:28Z</time>
      </trkpt>
      <trkpt lat="44.92148" lon="3.51065">
        <ele>1070</ele>
        <time>2018-04-29T07:16:46Z</time>
      </trkpt>
      <trkpt lat="44.92141" lon="3.5104">
        <ele>1072</ele>
        <time>2018-04-29T07:17:02Z</time>
      </trkpt>
      <trkpt lat="44.9214" lon="3.51027">
        <ele>1072</ele>
        <time>2018-04-29T07:17:10Z</time>
      </trkpt>
      <trkpt lat="44.92117" lon="3.50967">
        <ele>1070</ele>
        <time>2018-04-29T07:17:51Z</time>
      </trkpt>
      <trkpt lat="44.9211" lon="3.50957">
        <ele>1069</ele>
        <time>2018-04-29T07:17:58Z</time>
      </trkpt>
      <trkpt lat="44.92095" lon="3.50923">
        <ele>1072</ele>
        <time>2018-04-29T07:18:21Z</time>
      </trkpt>
      <trkpt lat="44.92088" lon="3.50913">
        <ele>1071</ele>
        <time>2018-04-29T07:18:29Z</time>
      </trkpt>
      <trkpt lat="44.92081" lon="3.50906">
        <ele>1070</ele>
        <time>2018-04-29T07:18:37Z</time>
      </trkpt>
      <trkpt lat="44.92054" lon="3.50832">
        <ele>1065</ele>
        <time>2018-04-29T07:19:26Z</time>
      </trkpt>
      <trkpt lat="44.92051" lon="3.50819">
        <ele>1065</ele>
        <time>2018-04-29T07:19:34Z</time>
      </trkpt>
      <trkpt lat="44.92033" lon="3.50772">
        <ele>1061</ele>
        <time>2018-04-29T07:20:08Z</time>
      </trkpt>
      <trkpt lat="44.92026" lon="3.50766">
        <ele>1061</ele>
        <time>2018-04-29T07:20:19Z</time>
      </trkpt>
      <trkpt lat="44.92017" lon="3.50746">
        <ele>1060</ele>
        <time>2018-04-29T07:20:34Z</time>
      </trkpt>
      <trkpt lat="44.92016" lon="3.5074">
        <ele>1061</ele>
        <time>2018-04-29T07:20:38Z</time>
      </trkpt>
      <trkpt lat="44.92003" lon="3.50703">
        <ele>1059</ele>
        <time>2018-04-29T07:21:03Z</time>
      </trkpt>
      <trkpt lat="44.91994" lon="3.50687">
        <ele>1055</ele>
        <time>2018-04-29T07:21:15Z</time>
      </trkpt>
      <trkpt lat="44.91984" lon="3.50661">
        <ele>1056</ele>
        <time>2018-04-29T07:21:31Z</time>
      </trkpt>
      <trkpt lat="44.9198" lon="3.50656">
        <ele>1056</ele>
        <time>2018-04-29T07:21:35Z</time>
      </trkpt>
      <trkpt lat="44.91976" lon="3.50652">
        <ele>1055</ele>
        <time>2018-04-29T07:21:39Z</time>
      </trkpt>
      <trkpt lat="44.91958" lon="3.50623">
        <ele>1053</ele>
        <time>2018-04-29T07:22:02Z</time>
      </trkpt>
      <trkpt lat="44.91954" lon="3.5062">
        <ele>1054</ele>
        <time>2018-04-29T07:22:06Z</time>
      </trkpt>
      <trkpt lat="44.91949" lon="3.50618">
        <ele>1054</ele>
        <time>2018-04-29T07:22:11Z</time>
      </trkpt>
      <trkpt lat="44.9194" lon="3.50612">
        <ele>1054</ele>
        <time>2018-04-29T07:22:19Z</time>
      </trkpt>
      <trkpt lat="44.91931" lon="3.50603">
        <ele>1055</ele>
        <time>2018-04-29T07:22:27Z</time>
      </trkpt>
      <trkpt lat="44.91929" lon="3.50598">
        <ele>1055</ele>
        <time>2018-04-29T07:22:30Z</time>
      </trkpt>
      <trkpt lat="44.91924" lon="3.50593">
        <ele>1054</ele>
        <time>2018-04-29T07:22:35Z</time>
      </trkpt>
      <trkpt lat="44.91914" lon="3.50561">
        <ele>1050</ele>
        <time>2018-04-29T07:22:55Z</time>
      </trkpt>
      <trkpt lat="44.91913" lon="3.50554">
        <ele>1052</ele>
        <time>2018-04-29T07:22:59Z</time>
      </trkpt>
      <trkpt lat="44.91906" lon="3.5053">
        <ele>1049</ele>
        <time>2018-04-29T07:23:15Z</time>
      </trkpt>
      <trkpt lat="44.91905" lon="3.50523">
        <ele>1049</ele>
        <time>2018-04-29T07:23:19Z</time>
      </trkpt>
      <trkpt lat="44.91905" lon="3.50515">
        <ele>1050</ele>
        <time>2018-04-29T07:23:24Z</time>
      </trkpt>
      <trkpt lat="44.91904" lon="3.50507">
        <ele>1050</ele>
        <time>2018-04-29T07:23:29Z</time>
      </trkpt>
      <trkpt lat="44.91902" lon="3.50501">
        <ele>1050</ele>
        <time>2018-04-29T07:23:41Z</time>
      </trkpt>
      <trkpt lat="44.91895" lon="3.50492">
        <ele>1050</ele>
        <time>2018-04-29T07:23:49Z</time>
      </trkpt>
      <trkpt lat="44.9189" lon="3.50489">
        <ele>1050</ele>
        <time>2018-04-29T07:23:53Z</time>
      </trkpt>
      <trkpt lat="44.91886" lon="3.50485">
        <ele>1049</ele>
        <time>2018-04-29T07:23:57Z</time>
      </trkpt>
      <trkpt lat="44.91871" lon="3.50481">
        <ele>1051</ele>
        <time>2018-04-29T07:24:09Z</time>
      </trkpt>
      <trkpt lat="44.9186" lon="3.50483">
        <ele>1051</ele>
        <time>2018-04-29T07:24:17Z</time>
      </trkpt>
      <trkpt lat="44.91856" lon="3.50482">
        <ele>1051</ele>
        <time>2018-04-29T07:24:21Z</time>
      </trkpt>
      <trkpt lat="44.9185" lon="3.50484">
        <ele>1051</ele>
        <time>2018-04-29T07:24:25Z</time>
      </trkpt>
      <trkpt lat="44.91834" lon="3.50497">
        <ele>1054</ele>
        <time>2018-04-29T07:24:58Z</time>
      </trkpt>
      <trkpt lat="44.91831" lon="3.50506">
        <ele>1055</ele>
        <time>2018-04-29T07:25:16Z</time>
      </trkpt>
      <trkpt lat="44.91828" lon="3.50501">
        <ele>1059</ele>
        <time>2018-04-29T07:31:50Z</time>
      </trkpt>
      <trkpt lat="44.91825" lon="3.50508">
        <ele>1057</ele>
        <time>2018-04-29T07:32:29Z</time>
      </trkpt>
      <trkpt lat="44.9182" lon="3.50511">
        <ele>1058</ele>
        <time>2018-04-29T07:32:33Z</time>
      </trkpt>
      <trkpt lat="44.91803" lon="3.50513">
        <ele>1061</ele>
        <time>2018-04-29T07:32:50Z</time>
      </trkpt>
      <trkpt lat="44.91797" lon="3.50502">
        <ele>1061</ele>
        <time>2018-04-29T07:32:58Z</time>
      </trkpt>
      <trkpt lat="44.91788" lon="3.50509">
        <ele>1062</ele>
        <time>2018-04-29T07:33:06Z</time>
      </trkpt>
      <trkpt lat="44.91779" lon="3.50505">
        <ele>1064</ele>
        <time>2018-04-29T07:33:17Z</time>
      </trkpt>
      <trkpt lat="44.91773" lon="3.50506">
        <ele>1065</ele>
        <time>2018-04-29T07:33:21Z</time>
      </trkpt>
      <trkpt lat="44.91769" lon="3.50504">
        <ele>1065</ele>
        <time>2018-04-29T07:33:26Z</time>
      </trkpt>
      <trkpt lat="44.91764" lon="3.50505">
        <ele>1065</ele>
        <time>2018-04-29T07:33:30Z</time>
      </trkpt>
      <trkpt lat="44.91738" lon="3.50482">
        <ele>1073</ele>
        <time>2018-04-29T07:34:06Z</time>
      </trkpt>
      <trkpt lat="44.91739" lon="3.50475">
        <ele>1073</ele>
        <time>2018-04-29T07:34:15Z</time>
      </trkpt>
      <trkpt lat="44.91737" lon="3.50469">
        <ele>1073</ele>
        <time>2018-04-29T07:34:20Z</time>
      </trkpt>
      <trkpt lat="44.91732" lon="3.50466">
        <ele>1072</ele>
        <time>2018-04-29T07:34:27Z</time>
      </trkpt>
      <trkpt lat="44.91726" lon="3.50464">
        <ele>1075</ele>
        <time>2018-04-29T07:34:34Z</time>
      </trkpt>
      <trkpt lat="44.91716" lon="3.50439">
        <ele>1077</ele>
        <time>2018-04-29T07:34:56Z</time>
      </trkpt>
      <trkpt lat="44.91704" lon="3.50423">
        <ele>1081</ele>
        <time>2018-04-29T07:35:16Z</time>
      </trkpt>
      <trkpt lat="44.91694" lon="3.50417">
        <ele>1081</ele>
        <time>2018-04-29T07:35:28Z</time>
      </trkpt>
      <trkpt lat="44.9169" lon="3.50415">
        <ele>1081</ele>
        <time>2018-04-29T07:35:33Z</time>
      </trkpt>
      <trkpt lat="44.91682" lon="3.50414">
        <ele>1082</ele>
        <time>2018-04-29T07:35:41Z</time>
      </trkpt>
      <trkpt lat="44.91677" lon="3.50411">
        <ele>1082</ele>
        <time>2018-04-29T07:35:46Z</time>
      </trkpt>
      <trkpt lat="44.91623" lon="3.50417">
        <ele>1085</ele>
        <time>2018-04-29T07:37:16Z</time>
      </trkpt>
      <trkpt lat="44.91602" lon="3.50424">
        <ele>1085</ele>
        <time>2018-04-29T07:37:48Z</time>
      </trkpt>
      <trkpt lat="44.91592" lon="3.5043">
        <ele>1086</ele>
        <time>2018-04-29T07:37:58Z</time>
      </trkpt>
      <trkpt lat="44.91577" lon="3.50441">
        <ele>1087</ele>
        <time>2018-04-29T07:38:14Z</time>
      </trkpt>
      <trkpt lat="44.91535" lon="3.50464">
        <ele>1087</ele>
        <time>2018-04-29T07:38:59Z</time>
      </trkpt>
      <trkpt lat="44.91509" lon="3.50466">
        <ele>1087</ele>
        <time>2018-04-29T07:39:25Z</time>
      </trkpt>
      <trkpt lat="44.91486" lon="3.50461">
        <ele>1088</ele>
        <time>2018-04-29T07:39:53Z</time>
      </trkpt>
      <trkpt lat="44.91481" lon="3.50458">
        <ele>1090</ele>
        <time>2018-04-29T07:39:58Z</time>
      </trkpt>
      <trkpt lat="44.91476" lon="3.50455">
        <ele>1090</ele>
        <time>2018-04-29T07:40:03Z</time>
      </trkpt>
      <trkpt lat="44.91468" lon="3.50448">
        <ele>1091</ele>
        <time>2018-04-29T07:40:18Z</time>
      </trkpt>
      <trkpt lat="44.91459" lon="3.50443">
        <ele>1092</ele>
        <time>2018-04-29T07:40:29Z</time>
      </trkpt>
      <trkpt lat="44.91453" lon="3.50436">
        <ele>1093</ele>
        <time>2018-04-29T07:40:37Z</time>
      </trkpt>
      <trkpt lat="44.91438" lon="3.5043">
        <ele>1095</ele>
        <time>2018-04-29T07:40:55Z</time>
      </trkpt>
      <trkpt lat="44.91415" lon="3.50427">
        <ele>1096</ele>
        <time>2018-04-29T07:41:21Z</time>
      </trkpt>
      <trkpt lat="44.91382" lon="3.50419">
        <ele>1099</ele>
        <time>2018-04-29T07:41:55Z</time>
      </trkpt>
      <trkpt lat="44.91377" lon="3.50416">
        <ele>1102</ele>
        <time>2018-04-29T07:42:00Z</time>
      </trkpt>
      <trkpt lat="44.91369" lon="3.5041">
        <ele>1103</ele>
        <time>2018-04-29T07:42:10Z</time>
      </trkpt>
      <trkpt lat="44.91336" lon="3.50393">
        <ele>1102</ele>
        <time>2018-04-29T07:42:42Z</time>
      </trkpt>
      <trkpt lat="44.91322" lon="3.50391">
        <ele>1103</ele>
        <time>2018-04-29T07:42:56Z</time>
      </trkpt>
      <trkpt lat="44.91311" lon="3.50392">
        <ele>1103</ele>
        <time>2018-04-29T07:43:06Z</time>
      </trkpt>
      <trkpt lat="44.91291" lon="3.50391">
        <ele>1104</ele>
        <time>2018-04-29T07:43:25Z</time>
      </trkpt>
      <trkpt lat="44.91286" lon="3.5039">
        <ele>1104</ele>
        <time>2018-04-29T07:43:30Z</time>
      </trkpt>
      <trkpt lat="44.91281" lon="3.50391">
        <ele>1104</ele>
        <time>2018-04-29T07:43:34Z</time>
      </trkpt>
      <trkpt lat="44.91271" lon="3.5039">
        <ele>1105</ele>
        <time>2018-04-29T07:43:44Z</time>
      </trkpt>
      <trkpt lat="44.91258" lon="3.50391">
        <ele>1105</ele>
        <time>2018-04-29T07:43:57Z</time>
      </trkpt>
      <trkpt lat="44.91252" lon="3.50389">
        <ele>1105</ele>
        <time>2018-04-29T07:44:04Z</time>
      </trkpt>
      <trkpt lat="44.91246" lon="3.5039">
        <ele>1105</ele>
        <time>2018-04-29T07:44:10Z</time>
      </trkpt>
      <trkpt lat="44.91193" lon="3.50407">
        <ele>1110</ele>
        <time>2018-04-29T07:45:06Z</time>
      </trkpt>
      <trkpt lat="44.91178" lon="3.50414">
        <ele>1108</ele>
        <time>2018-04-29T07:45:21Z</time>
      </trkpt>
      <trkpt lat="44.91159" lon="3.50418">
        <ele>1107</ele>
        <time>2018-04-29T07:46:04Z</time>
      </trkpt>
      <trkpt lat="44.91145" lon="3.50423">
        <ele>1105</ele>
        <time>2018-04-29T07:46:16Z</time>
      </trkpt>
      <trkpt lat="44.91134" lon="3.50425">
        <ele>1105</ele>
        <time>2018-04-29T07:46:25Z</time>
      </trkpt>
      <trkpt lat="44.91125" lon="3.50428">
        <ele>1105</ele>
        <time>2018-04-29T07:46:33Z</time>
      </trkpt>
      <trkpt lat="44.91121" lon="3.50428">
        <ele>1105</ele>
        <time>2018-04-29T07:46:37Z</time>
      </trkpt>
      <trkpt lat="44.91106" lon="3.50433">
        <ele>1103</ele>
        <time>2018-04-29T07:46:51Z</time>
      </trkpt>
      <trkpt lat="44.91099" lon="3.50443">
        <ele>1105</ele>
        <time>2018-04-29T07:47:00Z</time>
      </trkpt>
      <trkpt lat="44.91096" lon="3.50449">
        <ele>1104</ele>
        <time>2018-04-29T07:47:05Z</time>
      </trkpt>
      <trkpt lat="44.91083" lon="3.50454">
        <ele>1104</ele>
        <time>2018-04-29T07:47:29Z</time>
      </trkpt>
      <trkpt lat="44.91071" lon="3.50469">
        <ele>1104</ele>
        <time>2018-04-29T07:47:44Z</time>
      </trkpt>
      <trkpt lat="44.91058" lon="3.50482">
        <ele>1106</ele>
        <time>2018-04-29T07:48:05Z</time>
      </trkpt>
      <trkpt lat="44.91044" lon="3.50504">
        <ele>1104</ele>
        <time>2018-04-29T07:49:29Z</time>
      </trkpt>
      <trkpt lat="44.91033" lon="3.50516">
        <ele>1103</ele>
        <time>2018-04-29T07:49:42Z</time>
      </trkpt>
      <trkpt lat="44.91028" lon="3.50519">
        <ele>1103</ele>
        <time>2018-04-29T07:49:47Z</time>
      </trkpt>
      <trkpt lat="44.91023" lon="3.50528">
        <ele>1101</ele>
        <time>2018-04-29T07:49:57Z</time>
      </trkpt>
      <trkpt lat="44.91017" lon="3.5053">
        <ele>1105</ele>
        <time>2018-04-29T07:50:27Z</time>
      </trkpt>
      <trkpt lat="44.91012" lon="3.5053">
        <ele>1105</ele>
        <time>2018-04-29T07:50:31Z</time>
      </trkpt>
      <trkpt lat="44.90996" lon="3.50528">
        <ele>1104</ele>
        <time>2018-04-29T07:50:45Z</time>
      </trkpt>
      <trkpt lat="44.90992" lon="3.50526">
        <ele>1104</ele>
        <time>2018-04-29T07:50:49Z</time>
      </trkpt>
      <trkpt lat="44.90987" lon="3.50523">
        <ele>1104</ele>
        <time>2018-04-29T07:50:53Z</time>
      </trkpt>
      <trkpt lat="44.90982" lon="3.50523">
        <ele>1104</ele>
        <time>2018-04-29T07:50:57Z</time>
      </trkpt>
      <trkpt lat="44.90979" lon="3.50518">
        <ele>1105</ele>
        <time>2018-04-29T07:51:01Z</time>
      </trkpt>
      <trkpt lat="44.90973" lon="3.50507">
        <ele>1105</ele>
        <time>2018-04-29T07:51:09Z</time>
      </trkpt>
      <trkpt lat="44.90971" lon="3.505">
        <ele>1105</ele>
        <time>2018-04-29T07:51:14Z</time>
      </trkpt>
      <trkpt lat="44.90967" lon="3.50471">
        <ele>1102</ele>
        <time>2018-04-29T07:51:46Z</time>
      </trkpt>
      <trkpt lat="44.90967" lon="3.50452">
        <ele>1104</ele>
        <time>2018-04-29T07:51:58Z</time>
      </trkpt>
      <trkpt lat="44.90969" lon="3.50435">
        <ele>1104</ele>
        <time>2018-04-29T07:52:13Z</time>
      </trkpt>
      <trkpt lat="44.90971" lon="3.50429">
        <ele>1104</ele>
        <time>2018-04-29T07:52:18Z</time>
      </trkpt>
      <trkpt lat="44.90971" lon="3.50423">
        <ele>1104</ele>
        <time>2018-04-29T07:52:23Z</time>
      </trkpt>
      <trkpt lat="44.90969" lon="3.50407">
        <ele>1104</ele>
        <time>2018-04-29T07:52:37Z</time>
      </trkpt>
      <trkpt lat="44.90966" lon="3.50401">
        <ele>1105</ele>
        <time>2018-04-29T07:52:42Z</time>
      </trkpt>
      <trkpt lat="44.90958" lon="3.50392">
        <ele>1109</ele>
        <time>2018-04-29T07:52:52Z</time>
      </trkpt>
      <trkpt lat="44.90938" lon="3.5038">
        <ele>1107</ele>
        <time>2018-04-29T07:53:15Z</time>
      </trkpt>
      <trkpt lat="44.90933" lon="3.50377">
        <ele>1107</ele>
        <time>2018-04-29T07:53:20Z</time>
      </trkpt>
      <trkpt lat="44.90924" lon="3.50371">
        <ele>1110</ele>
        <time>2018-04-29T07:53:30Z</time>
      </trkpt>
      <trkpt lat="44.90902" lon="3.50368">
        <ele>1112</ele>
        <time>2018-04-29T07:53:49Z</time>
      </trkpt>
      <trkpt lat="44.90893" lon="3.50362">
        <ele>1112</ele>
        <time>2018-04-29T07:53:58Z</time>
      </trkpt>
      <trkpt lat="44.90889" lon="3.50358">
        <ele>1111</ele>
        <time>2018-04-29T07:54:02Z</time>
      </trkpt>
      <trkpt lat="44.90878" lon="3.50342">
        <ele>1111</ele>
        <time>2018-04-29T07:54:16Z</time>
      </trkpt>
      <trkpt lat="44.9085" lon="3.50282">
        <ele>1110</ele>
        <time>2018-04-29T07:55:00Z</time>
      </trkpt>
      <trkpt lat="44.9084" lon="3.50264">
        <ele>1111</ele>
        <time>2018-04-29T07:55:13Z</time>
      </trkpt>
      <trkpt lat="44.90835" lon="3.50259">
        <ele>1111</ele>
        <time>2018-04-29T07:55:18Z</time>
      </trkpt>
      <trkpt lat="44.90827" lon="3.50251">
        <ele>1108</ele>
        <time>2018-04-29T07:55:26Z</time>
      </trkpt>
      <trkpt lat="44.90817" lon="3.50236">
        <ele>1107</ele>
        <time>2018-04-29T07:55:38Z</time>
      </trkpt>
      <trkpt lat="44.90801" lon="3.50219">
        <ele>1106</ele>
        <time>2018-04-29T07:55:55Z</time>
      </trkpt>
      <trkpt lat="44.90779" lon="3.502">
        <ele>1104</ele>
        <time>2018-04-29T07:56:16Z</time>
      </trkpt>
      <trkpt lat="44.9077" lon="3.50196">
        <ele>1104</ele>
        <time>2018-04-29T07:56:24Z</time>
      </trkpt>
      <trkpt lat="44.90754" lon="3.50194">
        <ele>1102</ele>
        <time>2018-04-29T07:56:36Z</time>
      </trkpt>
      <trkpt lat="44.90734" lon="3.50195">
        <ele>1100</ele>
        <time>2018-04-29T07:56:52Z</time>
      </trkpt>
      <trkpt lat="44.90729" lon="3.50194">
        <ele>1100</ele>
        <time>2018-04-29T07:56:56Z</time>
      </trkpt>
      <trkpt lat="44.90719" lon="3.50195">
        <ele>1098</ele>
        <time>2018-04-29T07:57:04Z</time>
      </trkpt>
      <trkpt lat="44.90709" lon="3.50198">
        <ele>1100</ele>
        <time>2018-04-29T07:57:12Z</time>
      </trkpt>
      <trkpt lat="44.90704" lon="3.50198">
        <ele>1099</ele>
        <time>2018-04-29T07:57:16Z</time>
      </trkpt>
      <trkpt lat="44.9069" lon="3.50196">
        <ele>1102</ele>
        <time>2018-04-29T07:57:29Z</time>
      </trkpt>
      <trkpt lat="44.90656" lon="3.50194">
        <ele>1100</ele>
        <time>2018-04-29T07:58:00Z</time>
      </trkpt>
      <trkpt lat="44.9065" lon="3.50193">
        <ele>1100</ele>
        <time>2018-04-29T07:58:05Z</time>
      </trkpt>
      <trkpt lat="44.90626" lon="3.5019">
        <ele>1103</ele>
        <time>2018-04-29T07:58:28Z</time>
      </trkpt>
      <trkpt lat="44.90606" lon="3.50192">
        <ele>1102</ele>
        <time>2018-04-29T07:58:46Z</time>
      </trkpt>
      <trkpt lat="44.90595" lon="3.50198">
        <ele>1103</ele>
        <time>2018-04-29T07:58:56Z</time>
      </trkpt>
      <trkpt lat="44.90556" lon="3.50203">
        <ele>1104</ele>
        <time>2018-04-29T07:59:29Z</time>
      </trkpt>
      <trkpt lat="44.90537" lon="3.50199">
        <ele>1106</ele>
        <time>2018-04-29T07:59:45Z</time>
      </trkpt>
      <trkpt lat="44.9053" lon="3.50196">
        <ele>1104</ele>
        <time>2018-04-29T07:59:51Z</time>
      </trkpt>
      <trkpt lat="44.90513" lon="3.50193">
        <ele>1106</ele>
        <time>2018-04-29T08:00:03Z</time>
      </trkpt>
      <trkpt lat="44.90505" lon="3.50185">
        <ele>1105</ele>
        <time>2018-04-29T08:00:11Z</time>
      </trkpt>
      <trkpt lat="44.905" lon="3.50182">
        <ele>1106</ele>
        <time>2018-04-29T08:00:15Z</time>
      </trkpt>
      <trkpt lat="44.9049" lon="3.50189">
        <ele>1106</ele>
        <time>2018-04-29T08:00:21Z</time>
      </trkpt>
      <trkpt lat="44.90484" lon="3.50192">
        <ele>1106</ele>
        <time>2018-04-29T08:00:24Z</time>
      </trkpt>
      <trkpt lat="44.90474" lon="3.50194">
        <ele>1107</ele>
        <time>2018-04-29T08:00:31Z</time>
      </trkpt>
      <trkpt lat="44.90464" lon="3.50194">
        <ele>1106</ele>
        <time>2018-04-29T08:00:39Z</time>
      </trkpt>
      <trkpt lat="44.9046" lon="3.50194">
        <ele>1107</ele>
        <time>2018-04-29T08:00:43Z</time>
      </trkpt>
      <trkpt lat="44.90456" lon="3.50191">
        <ele>1107</ele>
        <time>2018-04-29T08:00:47Z</time>
      </trkpt>
      <trkpt lat="44.9045" lon="3.50191">
        <ele>1108</ele>
        <time>2018-04-29T08:00:52Z</time>
      </trkpt>
      <trkpt lat="44.9043" lon="3.50193">
        <ele>1109</ele>
        <time>2018-04-29T08:01:08Z</time>
      </trkpt>
      <trkpt lat="44.90422" lon="3.50189">
        <ele>1108</ele>
        <time>2018-04-29T08:01:16Z</time>
      </trkpt>
      <trkpt lat="44.90401" lon="3.50194">
        <ele>1109</ele>
        <time>2018-04-29T08:01:30Z</time>
      </trkpt>
      <trkpt lat="44.90381" lon="3.50175">
        <ele>1111</ele>
        <time>2018-04-29T08:01:50Z</time>
      </trkpt>
      <trkpt lat="44.90377" lon="3.50172">
        <ele>1111</ele>
        <time>2018-04-29T08:01:55Z</time>
      </trkpt>
      <trkpt lat="44.90364" lon="3.50159">
        <ele>1111</ele>
        <time>2018-04-29T08:02:08Z</time>
      </trkpt>
      <trkpt lat="44.90334" lon="3.50119">
        <ele>1114</ele>
        <time>2018-04-29T08:02:55Z</time>
      </trkpt>
      <trkpt lat="44.90331" lon="3.50115">
        <ele>1114</ele>
        <time>2018-04-29T08:03:00Z</time>
      </trkpt>
      <trkpt lat="44.9031" lon="3.50103">
        <ele>1117</ele>
        <time>2018-04-29T08:03:26Z</time>
      </trkpt>
      <trkpt lat="44.90305" lon="3.50102">
        <ele>1118</ele>
        <time>2018-04-29T08:03:30Z</time>
      </trkpt>
      <trkpt lat="44.90291" lon="3.50096">
        <ele>1118</ele>
        <time>2018-04-29T08:03:44Z</time>
      </trkpt>
      <trkpt lat="44.90287" lon="3.50092">
        <ele>1118</ele>
        <time>2018-04-29T08:03:49Z</time>
      </trkpt>
      <trkpt lat="44.90267" lon="3.50083">
        <ele>1118</ele>
        <time>2018-04-29T08:04:05Z</time>
      </trkpt>
      <trkpt lat="44.90264" lon="3.50077">
        <ele>1118</ele>
        <time>2018-04-29T08:04:10Z</time>
      </trkpt>
      <trkpt lat="44.90245" lon="3.50066">
        <ele>1118</ele>
        <time>2018-04-29T08:04:27Z</time>
      </trkpt>
      <trkpt lat="44.90239" lon="3.50064">
        <ele>1118</ele>
        <time>2018-04-29T08:04:38Z</time>
      </trkpt>
      <trkpt lat="44.90235" lon="3.50061">
        <ele>1119</ele>
        <time>2018-04-29T08:04:42Z</time>
      </trkpt>
      <trkpt lat="44.90226" lon="3.50055">
        <ele>1119</ele>
        <time>2018-04-29T08:04:50Z</time>
      </trkpt>
      <trkpt lat="44.90212" lon="3.50048">
        <ele>1120</ele>
        <time>2018-04-29T08:05:04Z</time>
      </trkpt>
      <trkpt lat="44.90177" lon="3.50038">
        <ele>1119</ele>
        <time>2018-04-29T08:05:33Z</time>
      </trkpt>
      <trkpt lat="44.90162" lon="3.50036">
        <ele>1119</ele>
        <time>2018-04-29T08:05:45Z</time>
      </trkpt>
      <trkpt lat="44.90157" lon="3.50036">
        <ele>1120</ele>
        <time>2018-04-29T08:05:49Z</time>
      </trkpt>
      <trkpt lat="44.90142" lon="3.50032">
        <ele>1119</ele>
        <time>2018-04-29T08:06:02Z</time>
      </trkpt>
      <trkpt lat="44.90123" lon="3.5003">
        <ele>1119</ele>
        <time>2018-04-29T08:06:23Z</time>
      </trkpt>
      <trkpt lat="44.90107" lon="3.50031">
        <ele>1119</ele>
        <time>2018-04-29T08:06:36Z</time>
      </trkpt>
      <trkpt lat="44.90098" lon="3.5003">
        <ele>1119</ele>
        <time>2018-04-29T08:06:46Z</time>
      </trkpt>
      <trkpt lat="44.90092" lon="3.50031">
        <ele>1120</ele>
        <time>2018-04-29T08:06:57Z</time>
      </trkpt>
      <trkpt lat="44.90086" lon="3.50034">
        <ele>1121</ele>
        <time>2018-04-29T08:07:23Z</time>
      </trkpt>
      <trkpt lat="44.90074" lon="3.50038">
        <ele>1121</ele>
        <time>2018-04-29T08:07:37Z</time>
      </trkpt>
      <trkpt lat="44.90068" lon="3.50037">
        <ele>1123</ele>
        <time>2018-04-29T08:07:42Z</time>
      </trkpt>
      <trkpt lat="44.90059" lon="3.50038">
        <ele>1125</ele>
        <time>2018-04-29T08:07:50Z</time>
      </trkpt>
      <trkpt lat="44.90054" lon="3.5004">
        <ele>1125</ele>
        <time>2018-04-29T08:07:54Z</time>
      </trkpt>
      <trkpt lat="44.90048" lon="3.5004">
        <ele>1123</ele>
        <time>2018-04-29T08:07:59Z</time>
      </trkpt>
      <trkpt lat="44.90044" lon="3.50041">
        <ele>1123</ele>
        <time>2018-04-29T08:08:03Z</time>
      </trkpt>
      <trkpt lat="44.90039" lon="3.5004">
        <ele>1124</ele>
        <time>2018-04-29T08:08:07Z</time>
      </trkpt>
      <trkpt lat="44.89993" lon="3.5005">
        <ele>1127</ele>
        <time>2018-04-29T08:08:41Z</time>
      </trkpt>
      <trkpt lat="44.89941" lon="3.5007">
        <ele>1129</ele>
        <time>2018-04-29T08:09:32Z</time>
      </trkpt>
      <trkpt lat="44.89933" lon="3.50077">
        <ele>1128</ele>
        <time>2018-04-29T08:09:39Z</time>
      </trkpt>
      <trkpt lat="44.89915" lon="3.50086">
        <ele>1128</ele>
        <time>2018-04-29T08:09:55Z</time>
      </trkpt>
      <trkpt lat="44.89905" lon="3.50087">
        <ele>1127</ele>
        <time>2018-04-29T08:10:03Z</time>
      </trkpt>
      <trkpt lat="44.899" lon="3.50087">
        <ele>1127</ele>
        <time>2018-04-29T08:10:07Z</time>
      </trkpt>
      <trkpt lat="44.8989" lon="3.5009">
        <ele>1127</ele>
        <time>2018-04-29T08:10:15Z</time>
      </trkpt>
      <trkpt lat="44.8988" lon="3.5009">
        <ele>1127</ele>
        <time>2018-04-29T08:10:23Z</time>
      </trkpt>
      <trkpt lat="44.89873" lon="3.50091">
        <ele>1128</ele>
        <time>2018-04-29T08:10:51Z</time>
      </trkpt>
      <trkpt lat="44.89857" lon="3.5009">
        <ele>1126</ele>
        <time>2018-04-29T08:11:02Z</time>
      </trkpt>
      <trkpt lat="44.89846" lon="3.50087">
        <ele>1126</ele>
        <time>2018-04-29T08:11:10Z</time>
      </trkpt>
      <trkpt lat="44.89796" lon="3.50059">
        <ele>1128</ele>
        <time>2018-04-29T08:11:50Z</time>
      </trkpt>
      <trkpt lat="44.89735" lon="3.50036">
        <ele>1132</ele>
        <time>2018-04-29T08:12:55Z</time>
      </trkpt>
      <trkpt lat="44.8973" lon="3.50033">
        <ele>1132</ele>
        <time>2018-04-29T08:13:34Z</time>
      </trkpt>
      <trkpt lat="44.8971" lon="3.50028">
        <ele>1136</ele>
        <time>2018-04-29T08:13:50Z</time>
      </trkpt>
      <trkpt lat="44.89705" lon="3.50025">
        <ele>1135</ele>
        <time>2018-04-29T08:13:55Z</time>
      </trkpt>
      <trkpt lat="44.897" lon="3.50023">
        <ele>1136</ele>
        <time>2018-04-29T08:14:00Z</time>
      </trkpt>
      <trkpt lat="44.89624" lon="3.49998">
        <ele>1144</ele>
        <time>2018-04-29T08:15:45Z</time>
      </trkpt>
      <trkpt lat="44.89619" lon="3.49996">
        <ele>1144</ele>
        <time>2018-04-29T08:16:01Z</time>
      </trkpt>
      <trkpt lat="44.89613" lon="3.49996">
        <ele>1146</ele>
        <time>2018-04-29T08:16:07Z</time>
      </trkpt>
      <trkpt lat="44.89603" lon="3.49994">
        <ele>1147</ele>
        <time>2018-04-29T08:16:17Z</time>
      </trkpt>
      <trkpt lat="44.89582" lon="3.49994">
        <ele>1148</ele>
        <time>2018-04-29T08:16:36Z</time>
      </trkpt>
      <trkpt lat="44.89575" lon="3.49997">
        <ele>1147</ele>
        <time>2018-04-29T08:16:54Z</time>
      </trkpt>
      <trkpt lat="44.89536" lon="3.50004">
        <ele>1151</ele>
        <time>2018-04-29T08:17:38Z</time>
      </trkpt>
      <trkpt lat="44.89527" lon="3.50008">
        <ele>1151</ele>
        <time>2018-04-29T08:17:46Z</time>
      </trkpt>
      <trkpt lat="44.89517" lon="3.50013">
        <ele>1155</ele>
        <time>2018-04-29T08:17:59Z</time>
      </trkpt>
      <trkpt lat="44.89513" lon="3.5002">
        <ele>1155</ele>
        <time>2018-04-29T08:18:05Z</time>
      </trkpt>
      <trkpt lat="44.89509" lon="3.50023">
        <ele>1155</ele>
        <time>2018-04-29T08:18:10Z</time>
      </trkpt>
      <trkpt lat="44.89504" lon="3.50025">
        <ele>1155</ele>
        <time>2018-04-29T08:18:15Z</time>
      </trkpt>
      <trkpt lat="44.89488" lon="3.50028">
        <ele>1155</ele>
        <time>2018-04-29T08:18:30Z</time>
      </trkpt>
      <trkpt lat="44.89483" lon="3.50028">
        <ele>1153</ele>
        <time>2018-04-29T08:18:35Z</time>
      </trkpt>
      <trkpt lat="44.89452" lon="3.50022">
        <ele>1155</ele>
        <time>2018-04-29T08:19:06Z</time>
      </trkpt>
      <trkpt lat="44.89447" lon="3.50019">
        <ele>1153</ele>
        <time>2018-04-29T08:19:10Z</time>
      </trkpt>
      <trkpt lat="44.89439" lon="3.50019">
        <ele>1152</ele>
        <time>2018-04-29T08:19:26Z</time>
      </trkpt>
      <trkpt lat="44.89397" lon="3.49999">
        <ele>1148</ele>
        <time>2018-04-29T08:20:03Z</time>
      </trkpt>
      <trkpt lat="44.89388" lon="3.49992">
        <ele>1148</ele>
        <time>2018-04-29T08:20:11Z</time>
      </trkpt>
      <trkpt lat="44.89378" lon="3.49986">
        <ele>1143</ele>
        <time>2018-04-29T08:20:20Z</time>
      </trkpt>
      <trkpt lat="44.89362" lon="3.49981">
        <ele>1146</ele>
        <time>2018-04-29T08:20:33Z</time>
      </trkpt>
      <trkpt lat="44.89353" lon="3.49975">
        <ele>1144</ele>
        <time>2018-04-29T08:20:41Z</time>
      </trkpt>
      <trkpt lat="44.89349" lon="3.49972">
        <ele>1145</ele>
        <time>2018-04-29T08:20:45Z</time>
      </trkpt>
      <trkpt lat="44.89336" lon="3.49964">
        <ele>1142</ele>
        <time>2018-04-29T08:20:57Z</time>
      </trkpt>
      <trkpt lat="44.89332" lon="3.49962">
        <ele>1143</ele>
        <time>2018-04-29T08:21:01Z</time>
      </trkpt>
      <trkpt lat="44.89323" lon="3.49956">
        <ele>1142</ele>
        <time>2018-04-29T08:21:09Z</time>
      </trkpt>
      <trkpt lat="44.89314" lon="3.49951">
        <ele>1142</ele>
        <time>2018-04-29T08:21:17Z</time>
      </trkpt>
      <trkpt lat="44.89311" lon="3.49948">
        <ele>1142</ele>
        <time>2018-04-29T08:21:21Z</time>
      </trkpt>
      <trkpt lat="44.89307" lon="3.49942">
        <ele>1142</ele>
        <time>2018-04-29T08:21:36Z</time>
      </trkpt>
      <trkpt lat="44.89305" lon="3.49935">
        <ele>1141</ele>
        <time>2018-04-29T08:24:42Z</time>
      </trkpt>
      <trkpt lat="44.89297" lon="3.49928">
        <ele>1141</ele>
        <time>2018-04-29T08:25:20Z</time>
      </trkpt>
      <trkpt lat="44.89295" lon="3.49922">
        <ele>1141</ele>
        <time>2018-04-29T08:25:24Z</time>
      </trkpt>
      <trkpt lat="44.89273" lon="3.49884">
        <ele>1142</ele>
        <time>2018-04-29T08:25:57Z</time>
      </trkpt>
      <trkpt lat="44.89246" lon="3.49846">
        <ele>1141</ele>
        <time>2018-04-29T08:26:31Z</time>
      </trkpt>
      <trkpt lat="44.89134" lon="3.49645">
        <ele>1139</ele>
        <time>2018-04-29T08:29:00Z</time>
      </trkpt>
      <trkpt lat="44.89125" lon="3.49638">
        <ele>1138</ele>
        <time>2018-04-29T08:29:08Z</time>
      </trkpt>
      <trkpt lat="44.89116" lon="3.49634">
        <ele>1138</ele>
        <time>2018-04-29T08:29:16Z</time>
      </trkpt>
      <trkpt lat="44.89105" lon="3.49635">
        <ele>1139</ele>
        <time>2018-04-29T08:29:24Z</time>
      </trkpt>
      <trkpt lat="44.89086" lon="3.49633">
        <ele>1138</ele>
        <time>2018-04-29T08:29:41Z</time>
      </trkpt>
      <trkpt lat="44.89076" lon="3.4963">
        <ele>1138</ele>
        <time>2018-04-29T08:29:49Z</time>
      </trkpt>
      <trkpt lat="44.89072" lon="3.4963">
        <ele>1137</ele>
        <time>2018-04-29T08:29:53Z</time>
      </trkpt>
      <trkpt lat="44.89049" lon="3.49616">
        <ele>1137</ele>
        <time>2018-04-29T08:30:13Z</time>
      </trkpt>
      <trkpt lat="44.89041" lon="3.49608">
        <ele>1137</ele>
        <time>2018-04-29T08:30:21Z</time>
      </trkpt>
      <trkpt lat="44.89037" lon="3.49606">
        <ele>1137</ele>
        <time>2018-04-29T08:30:25Z</time>
      </trkpt>
      <trkpt lat="44.89022" lon="3.49586">
        <ele>1137</ele>
        <time>2018-04-29T08:30:43Z</time>
      </trkpt>
      <trkpt lat="44.89012" lon="3.49569">
        <ele>1134</ele>
        <time>2018-04-29T08:30:57Z</time>
      </trkpt>
      <trkpt lat="44.89005" lon="3.49547">
        <ele>1135</ele>
        <time>2018-04-29T08:31:14Z</time>
      </trkpt>
      <trkpt lat="44.89003" lon="3.49541">
        <ele>1138</ele>
        <time>2018-04-29T08:31:22Z</time>
      </trkpt>
      <trkpt lat="44.88999" lon="3.4953">
        <ele>1136</ele>
        <time>2018-04-29T08:31:32Z</time>
      </trkpt>
      <trkpt lat="44.88995" lon="3.49527">
        <ele>1137</ele>
        <time>2018-04-29T08:31:36Z</time>
      </trkpt>
      <trkpt lat="44.88972" lon="3.495">
        <ele>1135</ele>
        <time>2018-04-29T08:32:00Z</time>
      </trkpt>
      <trkpt lat="44.88957" lon="3.49495">
        <ele>1136</ele>
        <time>2018-04-29T08:32:14Z</time>
      </trkpt>
      <trkpt lat="44.88947" lon="3.49495">
        <ele>1135</ele>
        <time>2018-04-29T08:32:22Z</time>
      </trkpt>
      <trkpt lat="44.88923" lon="3.495">
        <ele>1137</ele>
        <time>2018-04-29T08:32:42Z</time>
      </trkpt>
      <trkpt lat="44.88914" lon="3.49496">
        <ele>1135</ele>
        <time>2018-04-29T08:32:50Z</time>
      </trkpt>
      <trkpt lat="44.88892" lon="3.49481">
        <ele>1136</ele>
        <time>2018-04-29T08:33:10Z</time>
      </trkpt>
      <trkpt lat="44.88885" lon="3.49479">
        <ele>1136</ele>
        <time>2018-04-29T08:33:17Z</time>
      </trkpt>
      <trkpt lat="44.8888" lon="3.49476">
        <ele>1138</ele>
        <time>2018-04-29T08:33:22Z</time>
      </trkpt>
      <trkpt lat="44.88873" lon="3.49474">
        <ele>1139</ele>
        <time>2018-04-29T08:34:24Z</time>
      </trkpt>
      <trkpt lat="44.88868" lon="3.49472">
        <ele>1139</ele>
        <time>2018-04-29T08:34:29Z</time>
      </trkpt>
      <trkpt lat="44.88855" lon="3.49463">
        <ele>1141</ele>
        <time>2018-04-29T08:34:43Z</time>
      </trkpt>
      <trkpt lat="44.88849" lon="3.49459">
        <ele>1141</ele>
        <time>2018-04-29T08:34:49Z</time>
      </trkpt>
      <trkpt lat="44.88831" lon="3.49446">
        <ele>1144</ele>
        <time>2018-04-29T08:35:05Z</time>
      </trkpt>
      <trkpt lat="44.88827" lon="3.49444">
        <ele>1144</ele>
        <time>2018-04-29T08:35:09Z</time>
      </trkpt>
      <trkpt lat="44.88822" lon="3.49444">
        <ele>1144</ele>
        <time>2018-04-29T08:35:13Z</time>
      </trkpt>
      <trkpt lat="44.88817" lon="3.49445">
        <ele>1145</ele>
        <time>2018-04-29T08:35:17Z</time>
      </trkpt>
      <trkpt lat="44.88812" lon="3.49447">
        <ele>1145</ele>
        <time>2018-04-29T08:35:21Z</time>
      </trkpt>
      <trkpt lat="44.88808" lon="3.49451">
        <ele>1145</ele>
        <time>2018-04-29T08:35:25Z</time>
      </trkpt>
      <trkpt lat="44.88793" lon="3.49474">
        <ele>1145</ele>
        <time>2018-04-29T08:35:51Z</time>
      </trkpt>
      <trkpt lat="44.88773" lon="3.49514">
        <ele>1148</ele>
        <time>2018-04-29T08:36:21Z</time>
      </trkpt>
      <trkpt lat="44.88764" lon="3.49527">
        <ele>1148</ele>
        <time>2018-04-29T08:36:39Z</time>
      </trkpt>
      <trkpt lat="44.8876" lon="3.49531">
        <ele>1149</ele>
        <time>2018-04-29T08:36:43Z</time>
      </trkpt>
      <trkpt lat="44.88756" lon="3.49536">
        <ele>1149</ele>
        <time>2018-04-29T08:36:47Z</time>
      </trkpt>
      <trkpt lat="44.88751" lon="3.49548">
        <ele>1150</ele>
        <time>2018-04-29T08:36:55Z</time>
      </trkpt>
      <trkpt lat="44.88748" lon="3.49552">
        <ele>1150</ele>
        <time>2018-04-29T08:36:59Z</time>
      </trkpt>
      <trkpt lat="44.88745" lon="3.49557">
        <ele>1150</ele>
        <time>2018-04-29T08:37:03Z</time>
      </trkpt>
      <trkpt lat="44.88742" lon="3.49563">
        <ele>1151</ele>
        <time>2018-04-29T08:37:08Z</time>
      </trkpt>
      <trkpt lat="44.88728" lon="3.49579">
        <ele>1152</ele>
        <time>2018-04-29T08:37:42Z</time>
      </trkpt>
      <trkpt lat="44.8872" lon="3.49586">
        <ele>1153</ele>
        <time>2018-04-29T08:37:54Z</time>
      </trkpt>
      <trkpt lat="44.88701" lon="3.49612">
        <ele>1156</ele>
        <time>2018-04-29T08:38:20Z</time>
      </trkpt>
      <trkpt lat="44.88681" lon="3.49635">
        <ele>1158</ele>
        <time>2018-04-29T08:38:44Z</time>
      </trkpt>
      <trkpt lat="44.88675" lon="3.49644">
        <ele>1158</ele>
        <time>2018-04-29T08:38:52Z</time>
      </trkpt>
      <trkpt lat="44.8867" lon="3.49649">
        <ele>1159</ele>
        <time>2018-04-29T08:38:57Z</time>
      </trkpt>
      <trkpt lat="44.88657" lon="3.4966">
        <ele>1160</ele>
        <time>2018-04-29T08:39:11Z</time>
      </trkpt>
      <trkpt lat="44.88644" lon="3.49669">
        <ele>1161</ele>
        <time>2018-04-29T08:39:24Z</time>
      </trkpt>
      <trkpt lat="44.88635" lon="3.49674">
        <ele>1160</ele>
        <time>2018-04-29T08:39:33Z</time>
      </trkpt>
      <trkpt lat="44.8862" lon="3.4968">
        <ele>1158</ele>
        <time>2018-04-29T08:39:47Z</time>
      </trkpt>
      <trkpt lat="44.88605" lon="3.49682">
        <ele>1158</ele>
        <time>2018-04-29T08:40:00Z</time>
      </trkpt>
      <trkpt lat="44.88596" lon="3.49685">
        <ele>1156</ele>
        <time>2018-04-29T08:40:08Z</time>
      </trkpt>
      <trkpt lat="44.88552" lon="3.49683">
        <ele>1154</ele>
        <time>2018-04-29T08:41:03Z</time>
      </trkpt>
      <trkpt lat="44.88547" lon="3.49683">
        <ele>1154</ele>
        <time>2018-04-29T08:41:07Z</time>
      </trkpt>
      <trkpt lat="44.88483" lon="3.49671">
        <ele>1151</ele>
        <time>2018-04-29T08:42:03Z</time>
      </trkpt>
      <trkpt lat="44.88475" lon="3.49671">
        <ele>1153</ele>
        <time>2018-04-29T08:42:18Z</time>
      </trkpt>
      <trkpt lat="44.88469" lon="3.49671">
        <ele>1152</ele>
        <time>2018-04-29T08:42:22Z</time>
      </trkpt>
      <trkpt lat="44.88439" lon="3.49674">
        <ele>1153</ele>
        <time>2018-04-29T08:42:47Z</time>
      </trkpt>
      <trkpt lat="44.88424" lon="3.49677">
        <ele>1152</ele>
        <time>2018-04-29T08:43:00Z</time>
      </trkpt>
      <trkpt lat="44.88404" lon="3.49684">
        <ele>1150</ele>
        <time>2018-04-29T08:43:19Z</time>
      </trkpt>
      <trkpt lat="44.88399" lon="3.49691">
        <ele>1150</ele>
        <time>2018-04-29T08:43:26Z</time>
      </trkpt>
      <trkpt lat="44.88387" lon="3.49715">
        <ele>1151</ele>
        <time>2018-04-29T08:43:45Z</time>
      </trkpt>
      <trkpt lat="44.88337" lon="3.49822">
        <ele>1151</ele>
        <time>2018-04-29T08:45:08Z</time>
      </trkpt>
      <trkpt lat="44.88307" lon="3.49863">
        <ele>1150</ele>
        <time>2018-04-29T08:45:45Z</time>
      </trkpt>
      <trkpt lat="44.88291" lon="3.49883">
        <ele>1149</ele>
        <time>2018-04-29T08:46:04Z</time>
      </trkpt>
      <trkpt lat="44.88286" lon="3.49885">
        <ele>1150</ele>
        <time>2018-04-29T08:46:08Z</time>
      </trkpt>
      <trkpt lat="44.88278" lon="3.49892">
        <ele>1149</ele>
        <time>2018-04-29T08:46:16Z</time>
      </trkpt>
      <trkpt lat="44.88265" lon="3.49898">
        <ele>1149</ele>
        <time>2018-04-29T08:46:28Z</time>
      </trkpt>
      <trkpt lat="44.88225" lon="3.49908">
        <ele>1145</ele>
        <time>2018-04-29T08:47:03Z</time>
      </trkpt>
      <trkpt lat="44.88221" lon="3.49908">
        <ele>1144</ele>
        <time>2018-04-29T08:47:07Z</time>
      </trkpt>
      <trkpt lat="44.88211" lon="3.49905">
        <ele>1145</ele>
        <time>2018-04-29T08:47:15Z</time>
      </trkpt>
      <trkpt lat="44.88198" lon="3.49897">
        <ele>1142</ele>
        <time>2018-04-29T08:47:27Z</time>
      </trkpt>
      <trkpt lat="44.88193" lon="3.49897">
        <ele>1141</ele>
        <time>2018-04-29T08:47:31Z</time>
      </trkpt>
      <trkpt lat="44.88173" lon="3.49901">
        <ele>1138</ele>
        <time>2018-04-29T08:47:48Z</time>
      </trkpt>
      <trkpt lat="44.88163" lon="3.49906">
        <ele>1138</ele>
        <time>2018-04-29T08:47:56Z</time>
      </trkpt>
      <trkpt lat="44.88158" lon="3.49908">
        <ele>1136</ele>
        <time>2018-04-29T08:48:00Z</time>
      </trkpt>
      <trkpt lat="44.88153" lon="3.49908">
        <ele>1134</ele>
        <time>2018-04-29T08:48:05Z</time>
      </trkpt>
      <trkpt lat="44.88148" lon="3.4991">
        <ele>1133</ele>
        <time>2018-04-29T08:48:09Z</time>
      </trkpt>
      <trkpt lat="44.88135" lon="3.4992">
        <ele>1134</ele>
        <time>2018-04-29T08:48:23Z</time>
      </trkpt>
      <trkpt lat="44.8813" lon="3.49923">
        <ele>1133</ele>
        <time>2018-04-29T08:48:27Z</time>
      </trkpt>
      <trkpt lat="44.88126" lon="3.49926">
        <ele>1132</ele>
        <time>2018-04-29T08:48:31Z</time>
      </trkpt>
      <trkpt lat="44.88121" lon="3.49929">
        <ele>1132</ele>
        <time>2018-04-29T08:48:36Z</time>
      </trkpt>
      <trkpt lat="44.88117" lon="3.49932">
        <ele>1131</ele>
        <time>2018-04-29T08:48:40Z</time>
      </trkpt>
      <trkpt lat="44.88113" lon="3.49937">
        <ele>1131</ele>
        <time>2018-04-29T08:48:45Z</time>
      </trkpt>
      <trkpt lat="44.88108" lon="3.4994">
        <ele>1131</ele>
        <time>2018-04-29T08:48:50Z</time>
      </trkpt>
      <trkpt lat="44.88098" lon="3.49937">
        <ele>1126</ele>
        <time>2018-04-29T09:04:14Z</time>
      </trkpt>
      <trkpt lat="44.88094" lon="3.49933">
        <ele>1127</ele>
        <time>2018-04-29T09:04:44Z</time>
      </trkpt>
      <trkpt lat="44.88091" lon="3.49923">
        <ele>1126</ele>
        <time>2018-04-29T09:05:10Z</time>
      </trkpt>
      <trkpt lat="44.88083" lon="3.49928">
        <ele>1125</ele>
        <time>2018-04-29T09:05:52Z</time>
      </trkpt>
      <trkpt lat="44.88071" lon="3.4993">
        <ele>1122</ele>
        <time>2018-04-29T09:06:11Z</time>
      </trkpt>
      <trkpt lat="44.88064" lon="3.49932">
        <ele>1122</ele>
        <time>2018-04-29T09:06:23Z</time>
      </trkpt>
      <trkpt lat="44.88047" lon="3.4994">
        <ele>1116</ele>
        <time>2018-04-29T09:06:46Z</time>
      </trkpt>
      <trkpt lat="44.88039" lon="3.49941">
        <ele>1112</ele>
        <time>2018-04-29T09:06:58Z</time>
      </trkpt>
      <trkpt lat="44.88031" lon="3.49949">
        <ele>1108</ele>
        <time>2018-04-29T09:07:08Z</time>
      </trkpt>
      <trkpt lat="44.88026" lon="3.49956">
        <ele>1110</ele>
        <time>2018-04-29T09:07:17Z</time>
      </trkpt>
      <trkpt lat="44.88025" lon="3.49963">
        <ele>1111</ele>
        <time>2018-04-29T09:07:22Z</time>
      </trkpt>
      <trkpt lat="44.88023" lon="3.50002">
        <ele>1108</ele>
        <time>2018-04-29T09:07:54Z</time>
      </trkpt>
      <trkpt lat="44.8802" lon="3.50009">
        <ele>1106</ele>
        <time>2018-04-29T09:08:04Z</time>
      </trkpt>
      <trkpt lat="44.88017" lon="3.50015">
        <ele>1106</ele>
        <time>2018-04-29T09:08:15Z</time>
      </trkpt>
      <trkpt lat="44.88009" lon="3.50012">
        <ele>1105</ele>
        <time>2018-04-29T09:08:27Z</time>
      </trkpt>
      <trkpt lat="44.87998" lon="3.5">
        <ele>1101</ele>
        <time>2018-04-29T09:09:03Z</time>
      </trkpt>
      <trkpt lat="44.87994" lon="3.49996">
        <ele>1099</ele>
        <time>2018-04-29T09:09:09Z</time>
      </trkpt>
      <trkpt lat="44.87986" lon="3.49995">
        <ele>1100</ele>
        <time>2018-04-29T09:09:21Z</time>
      </trkpt>
      <trkpt lat="44.8798" lon="3.50002">
        <ele>1098</ele>
        <time>2018-04-29T09:09:33Z</time>
      </trkpt>
      <trkpt lat="44.87968" lon="3.50012">
        <ele>1095</ele>
        <time>2018-04-29T09:09:51Z</time>
      </trkpt>
      <trkpt lat="44.87963" lon="3.50015">
        <ele>1094</ele>
        <time>2018-04-29T09:09:56Z</time>
      </trkpt>
      <trkpt lat="44.87953" lon="3.50017">
        <ele>1094</ele>
        <time>2018-04-29T09:10:06Z</time>
      </trkpt>
      <trkpt lat="44.87941" lon="3.50017">
        <ele>1091</ele>
        <time>2018-04-29T09:10:19Z</time>
      </trkpt>
      <trkpt lat="44.87937" lon="3.50016">
        <ele>1090</ele>
        <time>2018-04-29T09:10:24Z</time>
      </trkpt>
      <trkpt lat="44.87926" lon="3.50016">
        <ele>1092</ele>
        <time>2018-04-29T09:10:33Z</time>
      </trkpt>
      <trkpt lat="44.87917" lon="3.50017">
        <ele>1090</ele>
        <time>2018-04-29T09:10:41Z</time>
      </trkpt>
      <trkpt lat="44.87909" lon="3.5002">
        <ele>1089</ele>
        <time>2018-04-29T09:10:55Z</time>
      </trkpt>
      <trkpt lat="44.87905" lon="3.50021">
        <ele>1090</ele>
        <time>2018-04-29T09:10:59Z</time>
      </trkpt>
      <trkpt lat="44.879" lon="3.50021">
        <ele>1089</ele>
        <time>2018-04-29T09:11:03Z</time>
      </trkpt>
      <trkpt lat="44.8789" lon="3.5002">
        <ele>1090</ele>
        <time>2018-04-29T09:11:12Z</time>
      </trkpt>
      <trkpt lat="44.87885" lon="3.50017">
        <ele>1090</ele>
        <time>2018-04-29T09:11:17Z</time>
      </trkpt>
      <trkpt lat="44.87871" lon="3.50008">
        <ele>1092</ele>
        <time>2018-04-29T09:11:31Z</time>
      </trkpt>
      <trkpt lat="44.87861" lon="3.50003">
        <ele>1091</ele>
        <time>2018-04-29T09:11:41Z</time>
      </trkpt>
      <trkpt lat="44.87857" lon="3.50002">
        <ele>1092</ele>
        <time>2018-04-29T09:11:45Z</time>
      </trkpt>
      <trkpt lat="44.87847" lon="3.50002">
        <ele>1094</ele>
        <time>2018-04-29T09:11:54Z</time>
      </trkpt>
      <trkpt lat="44.87841" lon="3.50001">
        <ele>1094</ele>
        <time>2018-04-29T09:11:58Z</time>
      </trkpt>
      <trkpt lat="44.87836" lon="3.50005">
        <ele>1094</ele>
        <time>2018-04-29T09:12:03Z</time>
      </trkpt>
      <trkpt lat="44.87832" lon="3.50011">
        <ele>1094</ele>
        <time>2018-04-29T09:12:07Z</time>
      </trkpt>
      <trkpt lat="44.87801" lon="3.50112">
        <ele>1099</ele>
        <time>2018-04-29T09:13:06Z</time>
      </trkpt>
      <trkpt lat="44.87792" lon="3.50129">
        <ele>1101</ele>
        <time>2018-04-29T09:13:18Z</time>
      </trkpt>
      <trkpt lat="44.87787" lon="3.50134">
        <ele>1102</ele>
        <time>2018-04-29T09:13:22Z</time>
      </trkpt>
      <trkpt lat="44.87783" lon="3.50135">
        <ele>1103</ele>
        <time>2018-04-29T09:13:26Z</time>
      </trkpt>
      <trkpt lat="44.87779" lon="3.50131">
        <ele>1104</ele>
        <time>2018-04-29T09:13:30Z</time>
      </trkpt>
      <trkpt lat="44.87776" lon="3.50126">
        <ele>1106</ele>
        <time>2018-04-29T09:13:34Z</time>
      </trkpt>
      <trkpt lat="44.87774" lon="3.50119">
        <ele>1107</ele>
        <time>2018-04-29T09:13:39Z</time>
      </trkpt>
      <trkpt lat="44.87768" lon="3.50114">
        <ele>1107</ele>
        <time>2018-04-29T09:14:04Z</time>
      </trkpt>
      <trkpt lat="44.87762" lon="3.50112">
        <ele>1107</ele>
        <time>2018-04-29T09:14:09Z</time>
      </trkpt>
      <trkpt lat="44.87753" lon="3.5011">
        <ele>1109</ele>
        <time>2018-04-29T09:14:18Z</time>
      </trkpt>
      <trkpt lat="44.87748" lon="3.50108">
        <ele>1110</ele>
        <time>2018-04-29T09:14:22Z</time>
      </trkpt>
      <trkpt lat="44.87743" lon="3.50109">
        <ele>1110</ele>
        <time>2018-04-29T09:14:26Z</time>
      </trkpt>
      <trkpt lat="44.87738" lon="3.50108">
        <ele>1110</ele>
        <time>2018-04-29T09:14:31Z</time>
      </trkpt>
      <trkpt lat="44.87735" lon="3.50115">
        <ele>1112</ele>
        <time>2018-04-29T09:15:07Z</time>
      </trkpt>
      <trkpt lat="44.87727" lon="3.50119">
        <ele>1112</ele>
        <time>2018-04-29T09:15:17Z</time>
      </trkpt>
      <trkpt lat="44.87717" lon="3.50135">
        <ele>1113</ele>
        <time>2018-04-29T09:15:32Z</time>
      </trkpt>
      <trkpt lat="44.87703" lon="3.50147">
        <ele>1114</ele>
        <time>2018-04-29T09:15:50Z</time>
      </trkpt>
      <trkpt lat="44.8767" lon="3.50172">
        <ele>1117</ele>
        <time>2018-04-29T09:16:32Z</time>
      </trkpt>
      <trkpt lat="44.87666" lon="3.50175">
        <ele>1116</ele>
        <time>2018-04-29T09:16:37Z</time>
      </trkpt>
      <trkpt lat="44.87609" lon="3.50195">
        <ele>1121</ele>
        <time>2018-04-29T09:17:29Z</time>
      </trkpt>
      <trkpt lat="44.87583" lon="3.50215">
        <ele>1123</ele>
        <time>2018-04-29T09:17:48Z</time>
      </trkpt>
      <trkpt lat="44.87563" lon="3.50241">
        <ele>1127</ele>
        <time>2018-04-29T09:18:08Z</time>
      </trkpt>
      <trkpt lat="44.87558" lon="3.50244">
        <ele>1129</ele>
        <time>2018-04-29T09:18:12Z</time>
      </trkpt>
      <trkpt lat="44.87554" lon="3.50241">
        <ele>1130</ele>
        <time>2018-04-29T09:18:50Z</time>
      </trkpt>
      <trkpt lat="44.87546" lon="3.5025">
        <ele>1130</ele>
        <time>2018-04-29T09:19:02Z</time>
      </trkpt>
      <trkpt lat="44.87524" lon="3.50263">
        <ele>1136</ele>
        <time>2018-04-29T09:19:25Z</time>
      </trkpt>
      <trkpt lat="44.87519" lon="3.50268">
        <ele>1136</ele>
        <time>2018-04-29T09:19:29Z</time>
      </trkpt>
      <trkpt lat="44.87513" lon="3.50271">
        <ele>1138</ele>
        <time>2018-04-29T09:19:36Z</time>
      </trkpt>
      <trkpt lat="44.87509" lon="3.50272">
        <ele>1138</ele>
        <time>2018-04-29T09:19:47Z</time>
      </trkpt>
      <trkpt lat="44.87492" lon="3.50271">
        <ele>1141</ele>
        <time>2018-04-29T09:20:19Z</time>
      </trkpt>
      <trkpt lat="44.87488" lon="3.50272">
        <ele>1141</ele>
        <time>2018-04-29T09:20:24Z</time>
      </trkpt>
      <trkpt lat="44.87481" lon="3.50277">
        <ele>1144</ele>
        <time>2018-04-29T09:20:54Z</time>
      </trkpt>
      <trkpt lat="44.87476" lon="3.50282">
        <ele>1144</ele>
        <time>2018-04-29T09:21:02Z</time>
      </trkpt>
      <trkpt lat="44.87471" lon="3.50286">
        <ele>1145</ele>
        <time>2018-04-29T09:21:07Z</time>
      </trkpt>
      <trkpt lat="44.87468" lon="3.5029">
        <ele>1145</ele>
        <time>2018-04-29T09:21:12Z</time>
      </trkpt>
      <trkpt lat="44.87463" lon="3.50292">
        <ele>1146</ele>
        <time>2018-04-29T09:21:20Z</time>
      </trkpt>
      <trkpt lat="44.87454" lon="3.50293">
        <ele>1149</ele>
        <time>2018-04-29T09:21:44Z</time>
      </trkpt>
      <trkpt lat="44.87452" lon="3.50285">
        <ele>1150</ele>
        <time>2018-04-29T09:21:50Z</time>
      </trkpt>
      <trkpt lat="44.87467" lon="3.50233">
        <ele>1146</ele>
        <time>2018-04-29T09:22:25Z</time>
      </trkpt>
      <trkpt lat="44.8747" lon="3.50212">
        <ele>1145</ele>
        <time>2018-04-29T09:22:38Z</time>
      </trkpt>
      <trkpt lat="44.8747" lon="3.50177">
        <ele>1144</ele>
        <time>2018-04-29T09:22:59Z</time>
      </trkpt>
      <trkpt lat="44.87455" lon="3.50044">
        <ele>1139</ele>
        <time>2018-04-29T09:24:22Z</time>
      </trkpt>
      <trkpt lat="44.87447" lon="3.50011">
        <ele>1138</ele>
        <time>2018-04-29T09:24:44Z</time>
      </trkpt>
      <trkpt lat="44.87423" lon="3.4994">
        <ele>1137</ele>
        <time>2018-04-29T09:25:32Z</time>
      </trkpt>
      <trkpt lat="44.8742" lon="3.49935">
        <ele>1136</ele>
        <time>2018-04-29T09:25:36Z</time>
      </trkpt>
      <trkpt lat="44.8737" lon="3.49783">
        <ele>1131</ele>
        <time>2018-04-29T09:27:18Z</time>
      </trkpt>
      <trkpt lat="44.87318" lon="3.49687">
        <ele>1120</ele>
        <time>2018-04-29T09:28:33Z</time>
      </trkpt>
      <trkpt lat="44.87313" lon="3.49682">
        <ele>1120</ele>
        <time>2018-04-29T09:28:38Z</time>
      </trkpt>
      <trkpt lat="44.87304" lon="3.49667">
        <ele>1119</ele>
        <time>2018-04-29T09:28:50Z</time>
      </trkpt>
      <trkpt lat="44.87297" lon="3.49657">
        <ele>1118</ele>
        <time>2018-04-29T09:28:59Z</time>
      </trkpt>
      <trkpt lat="44.87293" lon="3.49653">
        <ele>1118</ele>
        <time>2018-04-29T09:29:03Z</time>
      </trkpt>
      <trkpt lat="44.87288" lon="3.49651">
        <ele>1118</ele>
        <time>2018-04-29T09:29:08Z</time>
      </trkpt>
      <trkpt lat="44.87278" lon="3.49644">
        <ele>1118</ele>
        <time>2018-04-29T09:29:18Z</time>
      </trkpt>
      <trkpt lat="44.87241" lon="3.49628">
        <ele>1115</ele>
        <time>2018-04-29T09:29:59Z</time>
      </trkpt>
      <trkpt lat="44.87232" lon="3.49621">
        <ele>1113</ele>
        <time>2018-04-29T09:30:09Z</time>
      </trkpt>
      <trkpt lat="44.87217" lon="3.49604">
        <ele>1113</ele>
        <time>2018-04-29T09:30:44Z</time>
      </trkpt>
      <trkpt lat="44.8721" lon="3.49592">
        <ele>1112</ele>
        <time>2018-04-29T09:30:53Z</time>
      </trkpt>
      <trkpt lat="44.87204" lon="3.49581">
        <ele>1111</ele>
        <time>2018-04-29T09:31:02Z</time>
      </trkpt>
      <trkpt lat="44.87197" lon="3.49554">
        <ele>1108</ele>
        <time>2018-04-29T09:31:18Z</time>
      </trkpt>
      <trkpt lat="44.87185" lon="3.49525">
        <ele>1109</ele>
        <time>2018-04-29T09:31:39Z</time>
      </trkpt>
      <trkpt lat="44.87178" lon="3.4952">
        <ele>1110</ele>
        <time>2018-04-29T09:31:47Z</time>
      </trkpt>
      <trkpt lat="44.87168" lon="3.49522">
        <ele>1106</ele>
        <time>2018-04-29T09:31:56Z</time>
      </trkpt>
      <trkpt lat="44.87163" lon="3.49524">
        <ele>1106</ele>
        <time>2018-04-29T09:32:01Z</time>
      </trkpt>
      <trkpt lat="44.87156" lon="3.4953">
        <ele>1106</ele>
        <time>2018-04-29T09:32:22Z</time>
      </trkpt>
      <trkpt lat="44.87141" lon="3.49538">
        <ele>1108</ele>
        <time>2018-04-29T09:32:50Z</time>
      </trkpt>
      <trkpt lat="44.87131" lon="3.49545">
        <ele>1108</ele>
        <time>2018-04-29T09:32:59Z</time>
      </trkpt>
      <trkpt lat="44.87126" lon="3.49547">
        <ele>1107</ele>
        <time>2018-04-29T09:33:04Z</time>
      </trkpt>
      <trkpt lat="44.87116" lon="3.49549">
        <ele>1106</ele>
        <time>2018-04-29T09:33:12Z</time>
      </trkpt>
      <trkpt lat="44.87107" lon="3.49552">
        <ele>1107</ele>
        <time>2018-04-29T09:33:20Z</time>
      </trkpt>
      <trkpt lat="44.87102" lon="3.49553">
        <ele>1107</ele>
        <time>2018-04-29T09:33:24Z</time>
      </trkpt>
      <trkpt lat="44.87097" lon="3.49555">
        <ele>1108</ele>
        <time>2018-04-29T09:33:39Z</time>
      </trkpt>
      <trkpt lat="44.8709" lon="3.4956">
        <ele>1107</ele>
        <time>2018-04-29T09:34:01Z</time>
      </trkpt>
      <trkpt lat="44.87084" lon="3.49562">
        <ele>1107</ele>
        <time>2018-04-29T09:34:06Z</time>
      </trkpt>
      <trkpt lat="44.87074" lon="3.49566">
        <ele>1108</ele>
        <time>2018-04-29T09:34:15Z</time>
      </trkpt>
      <trkpt lat="44.8707" lon="3.49568">
        <ele>1108</ele>
        <time>2018-04-29T09:34:20Z</time>
      </trkpt>
      <trkpt lat="44.87066" lon="3.49574">
        <ele>1109</ele>
        <time>2018-04-29T09:34:27Z</time>
      </trkpt>
      <trkpt lat="44.87059" lon="3.4958">
        <ele>1109</ele>
        <time>2018-04-29T09:34:36Z</time>
      </trkpt>
      <trkpt lat="44.87035" lon="3.49581">
        <ele>1110</ele>
        <time>2018-04-29T09:35:01Z</time>
      </trkpt>
      <trkpt lat="44.8702" lon="3.49579">
        <ele>1113</ele>
        <time>2018-04-29T09:35:17Z</time>
      </trkpt>
      <trkpt lat="44.87015" lon="3.49579">
        <ele>1112</ele>
        <time>2018-04-29T09:35:27Z</time>
      </trkpt>
      <trkpt lat="44.87" lon="3.49573">
        <ele>1114</ele>
        <time>2018-04-29T09:35:41Z</time>
      </trkpt>
      <trkpt lat="44.86995" lon="3.49572">
        <ele>1113</ele>
        <time>2018-04-29T09:35:46Z</time>
      </trkpt>
      <trkpt lat="44.8698" lon="3.49572">
        <ele>1114</ele>
        <time>2018-04-29T09:36:01Z</time>
      </trkpt>
      <trkpt lat="44.86961" lon="3.49576">
        <ele>1115</ele>
        <time>2018-04-29T09:36:20Z</time>
      </trkpt>
      <trkpt lat="44.86951" lon="3.49579">
        <ele>1116</ele>
        <time>2018-04-29T09:36:30Z</time>
      </trkpt>
      <trkpt lat="44.86938" lon="3.49587">
        <ele>1117</ele>
        <time>2018-04-29T09:36:46Z</time>
      </trkpt>
      <trkpt lat="44.86922" lon="3.49593">
        <ele>1118</ele>
        <time>2018-04-29T09:37:05Z</time>
      </trkpt>
      <trkpt lat="44.86917" lon="3.49595">
        <ele>1118</ele>
        <time>2018-04-29T09:37:10Z</time>
      </trkpt>
      <trkpt lat="44.86897" lon="3.496">
        <ele>1121</ele>
        <time>2018-04-29T09:37:30Z</time>
      </trkpt>
      <trkpt lat="44.86893" lon="3.49602">
        <ele>1122</ele>
        <time>2018-04-29T09:37:38Z</time>
      </trkpt>
      <trkpt lat="44.86885" lon="3.49603">
        <ele>1120</ele>
        <time>2018-04-29T09:37:48Z</time>
      </trkpt>
      <trkpt lat="44.86876" lon="3.49605">
        <ele>1119</ele>
        <time>2018-04-29T09:37:56Z</time>
      </trkpt>
      <trkpt lat="44.86847" lon="3.49609">
        <ele>1120</ele>
        <time>2018-04-29T09:38:21Z</time>
      </trkpt>
      <trkpt lat="44.86837" lon="3.49612">
        <ele>1119</ele>
        <time>2018-04-29T09:38:29Z</time>
      </trkpt>
      <trkpt lat="44.86832" lon="3.49613">
        <ele>1118</ele>
        <time>2018-04-29T09:38:33Z</time>
      </trkpt>
      <trkpt lat="44.86807" lon="3.49624">
        <ele>1117</ele>
        <time>2018-04-29T09:38:54Z</time>
      </trkpt>
      <trkpt lat="44.86798" lon="3.49626">
        <ele>1117</ele>
        <time>2018-04-29T09:39:02Z</time>
      </trkpt>
      <trkpt lat="44.86793" lon="3.49626">
        <ele>1117</ele>
        <time>2018-04-29T09:39:06Z</time>
      </trkpt>
      <trkpt lat="44.86783" lon="3.4962">
        <ele>1117</ele>
        <time>2018-04-29T09:39:15Z</time>
      </trkpt>
      <trkpt lat="44.86756" lon="3.496">
        <ele>1119</ele>
        <time>2018-04-29T09:39:43Z</time>
      </trkpt>
      <trkpt lat="44.8675" lon="3.49599">
        <ele>1119</ele>
        <time>2018-04-29T09:39:48Z</time>
      </trkpt>
      <trkpt lat="44.86741" lon="3.49596">
        <ele>1120</ele>
        <time>2018-04-29T09:39:56Z</time>
      </trkpt>
      <trkpt lat="44.86695" lon="3.49591">
        <ele>1122</ele>
        <time>2018-04-29T09:40:35Z</time>
      </trkpt>
      <trkpt lat="44.86685" lon="3.49592">
        <ele>1123</ele>
        <time>2018-04-29T09:40:43Z</time>
      </trkpt>
      <trkpt lat="44.86647" lon="3.49591">
        <ele>1124</ele>
        <time>2018-04-29T09:42:18Z</time>
      </trkpt>
      <trkpt lat="44.86638" lon="3.49589">
        <ele>1125</ele>
        <time>2018-04-29T09:42:27Z</time>
      </trkpt>
      <trkpt lat="44.86613" lon="3.49587">
        <ele>1124</ele>
        <time>2018-04-29T09:42:49Z</time>
      </trkpt>
      <trkpt lat="44.86607" lon="3.49588">
        <ele>1125</ele>
        <time>2018-04-29T09:42:54Z</time>
      </trkpt>
      <trkpt lat="44.86598" lon="3.49585">
        <ele>1125</ele>
        <time>2018-04-29T09:43:02Z</time>
      </trkpt>
      <trkpt lat="44.86594" lon="3.49582">
        <ele>1126</ele>
        <time>2018-04-29T09:43:06Z</time>
      </trkpt>
      <trkpt lat="44.86589" lon="3.49581">
        <ele>1127</ele>
        <time>2018-04-29T09:43:10Z</time>
      </trkpt>
      <trkpt lat="44.86584" lon="3.49578">
        <ele>1128</ele>
        <time>2018-04-29T09:43:14Z</time>
      </trkpt>
      <trkpt lat="44.86576" lon="3.4957">
        <ele>1128</ele>
        <time>2018-04-29T09:43:22Z</time>
      </trkpt>
      <trkpt lat="44.86561" lon="3.49561">
        <ele>1129</ele>
        <time>2018-04-29T09:43:34Z</time>
      </trkpt>
      <trkpt lat="44.86524" lon="3.49534">
        <ele>1132</ele>
        <time>2018-04-29T09:44:06Z</time>
      </trkpt>
      <trkpt lat="44.8652" lon="3.49532">
        <ele>1132</ele>
        <time>2018-04-29T09:44:10Z</time>
      </trkpt>
      <trkpt lat="44.86515" lon="3.49528">
        <ele>1132</ele>
        <time>2018-04-29T09:44:15Z</time>
      </trkpt>
      <trkpt lat="44.86496" lon="3.49519">
        <ele>1133</ele>
        <time>2018-04-29T09:44:33Z</time>
      </trkpt>
      <trkpt lat="44.86476" lon="3.49514">
        <ele>1134</ele>
        <time>2018-04-29T09:44:54Z</time>
      </trkpt>
      <trkpt lat="44.86471" lon="3.49514">
        <ele>1133</ele>
        <time>2018-04-29T09:44:58Z</time>
      </trkpt>
      <trkpt lat="44.86467" lon="3.49512">
        <ele>1133</ele>
        <time>2018-04-29T09:45:02Z</time>
      </trkpt>
      <trkpt lat="44.86431" lon="3.49511">
        <ele>1135</ele>
        <time>2018-04-29T09:45:35Z</time>
      </trkpt>
      <trkpt lat="44.86426" lon="3.49512">
        <ele>1135</ele>
        <time>2018-04-29T09:45:39Z</time>
      </trkpt>
      <trkpt lat="44.86406" lon="3.4952">
        <ele>1136</ele>
        <time>2018-04-29T09:45:57Z</time>
      </trkpt>
      <trkpt lat="44.86387" lon="3.49532">
        <ele>1133</ele>
        <time>2018-04-29T09:46:14Z</time>
      </trkpt>
      <trkpt lat="44.86382" lon="3.49533">
        <ele>1134</ele>
        <time>2018-04-29T09:46:19Z</time>
      </trkpt>
      <trkpt lat="44.86376" lon="3.49534">
        <ele>1134</ele>
        <time>2018-04-29T09:46:27Z</time>
      </trkpt>
      <trkpt lat="44.86355" lon="3.49524">
        <ele>1130</ele>
        <time>2018-04-29T09:46:49Z</time>
      </trkpt>
      <trkpt lat="44.86316" lon="3.49517">
        <ele>1127</ele>
        <time>2018-04-29T09:47:20Z</time>
      </trkpt>
      <trkpt lat="44.86311" lon="3.49517">
        <ele>1126</ele>
        <time>2018-04-29T09:47:24Z</time>
      </trkpt>
      <trkpt lat="44.86305" lon="3.49518">
        <ele>1126</ele>
        <time>2018-04-29T09:47:28Z</time>
      </trkpt>
      <trkpt lat="44.86301" lon="3.4952">
        <ele>1126</ele>
        <time>2018-04-29T09:47:32Z</time>
      </trkpt>
      <trkpt lat="44.86291" lon="3.49521">
        <ele>1124</ele>
        <time>2018-04-29T09:47:41Z</time>
      </trkpt>
      <trkpt lat="44.86276" lon="3.49517">
        <ele>1124</ele>
        <time>2018-04-29T09:47:54Z</time>
      </trkpt>
      <trkpt lat="44.86272" lon="3.49515">
        <ele>1125</ele>
        <time>2018-04-29T09:47:58Z</time>
      </trkpt>
      <trkpt lat="44.86268" lon="3.49513">
        <ele>1125</ele>
        <time>2018-04-29T09:48:02Z</time>
      </trkpt>
      <trkpt lat="44.86262" lon="3.49511">
        <ele>1124</ele>
        <time>2018-04-29T09:48:07Z</time>
      </trkpt>
      <trkpt lat="44.86258" lon="3.49509">
        <ele>1124</ele>
        <time>2018-04-29T09:48:11Z</time>
      </trkpt>
      <trkpt lat="44.8623" lon="3.49497">
        <ele>1123</ele>
        <time>2018-04-29T09:48:36Z</time>
      </trkpt>
      <trkpt lat="44.86213" lon="3.49482">
        <ele>1123</ele>
        <time>2018-04-29T09:48:55Z</time>
      </trkpt>
      <trkpt lat="44.86181" lon="3.4947">
        <ele>1126</ele>
        <time>2018-04-29T09:49:52Z</time>
      </trkpt>
      <trkpt lat="44.86171" lon="3.49469">
        <ele>1128</ele>
        <time>2018-04-29T09:50:02Z</time>
      </trkpt>
      <trkpt lat="44.86149" lon="3.49477">
        <ele>1129</ele>
        <time>2018-04-29T09:50:25Z</time>
      </trkpt>
      <trkpt lat="44.86125" lon="3.49475">
        <ele>1132</ele>
        <time>2018-04-29T09:50:51Z</time>
      </trkpt>
      <trkpt lat="44.86116" lon="3.49471">
        <ele>1133</ele>
        <time>2018-04-29T09:51:00Z</time>
      </trkpt>
      <trkpt lat="44.86095" lon="3.49465">
        <ele>1135</ele>
        <time>2018-04-29T09:51:30Z</time>
      </trkpt>
      <trkpt lat="44.86074" lon="3.49454">
        <ele>1138</ele>
        <time>2018-04-29T09:52:01Z</time>
      </trkpt>
      <trkpt lat="44.8607" lon="3.4945">
        <ele>1140</ele>
        <time>2018-04-29T09:52:06Z</time>
      </trkpt>
      <trkpt lat="44.86059" lon="3.49442">
        <ele>1141</ele>
        <time>2018-04-29T09:52:18Z</time>
      </trkpt>
      <trkpt lat="44.86041" lon="3.49433">
        <ele>1144</ele>
        <time>2018-04-29T09:52:49Z</time>
      </trkpt>
      <trkpt lat="44.86037" lon="3.49432">
        <ele>1144</ele>
        <time>2018-04-29T09:53:24Z</time>
      </trkpt>
      <trkpt lat="44.86" lon="3.49409">
        <ele>1151</ele>
        <time>2018-04-29T09:54:10Z</time>
      </trkpt>
      <trkpt lat="44.85994" lon="3.49409">
        <ele>1153</ele>
        <time>2018-04-29T09:54:23Z</time>
      </trkpt>
      <trkpt lat="44.85966" lon="3.4939">
        <ele>1155</ele>
        <time>2018-04-29T09:55:16Z</time>
      </trkpt>
      <trkpt lat="44.85946" lon="3.4938">
        <ele>1156</ele>
        <time>2018-04-29T09:55:32Z</time>
      </trkpt>
      <trkpt lat="44.85937" lon="3.49374">
        <ele>1156</ele>
        <time>2018-04-29T09:55:40Z</time>
      </trkpt>
      <trkpt lat="44.85924" lon="3.49366">
        <ele>1158</ele>
        <time>2018-04-29T09:55:52Z</time>
      </trkpt>
      <trkpt lat="44.85918" lon="3.49365">
        <ele>1158</ele>
        <time>2018-04-29T09:55:56Z</time>
      </trkpt>
      <trkpt lat="44.85908" lon="3.49367">
        <ele>1160</ele>
        <time>2018-04-29T09:56:04Z</time>
      </trkpt>
      <trkpt lat="44.85889" lon="3.49365">
        <ele>1162</ele>
        <time>2018-04-29T09:56:25Z</time>
      </trkpt>
      <trkpt lat="44.85868" lon="3.49358">
        <ele>1163</ele>
        <time>2018-04-29T09:56:42Z</time>
      </trkpt>
      <trkpt lat="44.85863" lon="3.49356">
        <ele>1164</ele>
        <time>2018-04-29T09:56:46Z</time>
      </trkpt>
      <trkpt lat="44.85854" lon="3.49348">
        <ele>1164</ele>
        <time>2018-04-29T09:56:54Z</time>
      </trkpt>
      <trkpt lat="44.8585" lon="3.49344">
        <ele>1164</ele>
        <time>2018-04-29T09:56:58Z</time>
      </trkpt>
      <trkpt lat="44.85845" lon="3.4934">
        <ele>1164</ele>
        <time>2018-04-29T09:57:03Z</time>
      </trkpt>
      <trkpt lat="44.8584" lon="3.49327">
        <ele>1162</ele>
        <time>2018-04-29T09:57:12Z</time>
      </trkpt>
      <trkpt lat="44.85839" lon="3.49321">
        <ele>1162</ele>
        <time>2018-04-29T09:57:16Z</time>
      </trkpt>
      <trkpt lat="44.85836" lon="3.49315">
        <ele>1162</ele>
        <time>2018-04-29T09:57:20Z</time>
      </trkpt>
      <trkpt lat="44.85832" lon="3.49309">
        <ele>1163</ele>
        <time>2018-04-29T09:57:24Z</time>
      </trkpt>
      <trkpt lat="44.85827" lon="3.49307">
        <ele>1163</ele>
        <time>2018-04-29T09:57:27Z</time>
      </trkpt>
      <trkpt lat="44.85795" lon="3.49304">
        <ele>1160</ele>
        <time>2018-04-29T09:57:52Z</time>
      </trkpt>
      <trkpt lat="44.85784" lon="3.49305">
        <ele>1162</ele>
        <time>2018-04-29T09:58:00Z</time>
      </trkpt>
      <trkpt lat="44.85779" lon="3.49304">
        <ele>1161</ele>
        <time>2018-04-29T09:58:04Z</time>
      </trkpt>
      <trkpt lat="44.85774" lon="3.49303">
        <ele>1161</ele>
        <time>2018-04-29T09:58:09Z</time>
      </trkpt>
      <trkpt lat="44.85759" lon="3.49309">
        <ele>1159</ele>
        <time>2018-04-29T09:58:21Z</time>
      </trkpt>
      <trkpt lat="44.85754" lon="3.4931">
        <ele>1159</ele>
        <time>2018-04-29T09:58:25Z</time>
      </trkpt>
      <trkpt lat="44.85749" lon="3.4931">
        <ele>1158</ele>
        <time>2018-04-29T09:58:29Z</time>
      </trkpt>
      <trkpt lat="44.85744" lon="3.4931">
        <ele>1158</ele>
        <time>2018-04-29T09:58:33Z</time>
      </trkpt>
      <trkpt lat="44.85738" lon="3.49311">
        <ele>1159</ele>
        <time>2018-04-29T09:58:37Z</time>
      </trkpt>
      <trkpt lat="44.85729" lon="3.49311">
        <ele>1159</ele>
        <time>2018-04-29T09:58:45Z</time>
      </trkpt>
      <trkpt lat="44.85718" lon="3.49311">
        <ele>1159</ele>
        <time>2018-04-29T09:58:53Z</time>
      </trkpt>
      <trkpt lat="44.85713" lon="3.49312">
        <ele>1161</ele>
        <time>2018-04-29T09:58:57Z</time>
      </trkpt>
      <trkpt lat="44.85708" lon="3.49313">
        <ele>1161</ele>
        <time>2018-04-29T09:59:02Z</time>
      </trkpt>
      <trkpt lat="44.85703" lon="3.49315">
        <ele>1160</ele>
        <time>2018-04-29T09:59:07Z</time>
      </trkpt>
      <trkpt lat="44.85697" lon="3.49318">
        <ele>1158</ele>
        <time>2018-04-29T09:59:20Z</time>
      </trkpt>
      <trkpt lat="44.85692" lon="3.49321">
        <ele>1159</ele>
        <time>2018-04-29T09:59:24Z</time>
      </trkpt>
      <trkpt lat="44.85688" lon="3.49325">
        <ele>1159</ele>
        <time>2018-04-29T09:59:29Z</time>
      </trkpt>
      <trkpt lat="44.8568" lon="3.49338">
        <ele>1155</ele>
        <time>2018-04-29T09:59:41Z</time>
      </trkpt>
      <trkpt lat="44.85666" lon="3.49351">
        <ele>1156</ele>
        <time>2018-04-29T09:59:56Z</time>
      </trkpt>
      <trkpt lat="44.85663" lon="3.4936">
        <ele>1157</ele>
        <time>2018-04-29T10:00:10Z</time>
      </trkpt>
      <trkpt lat="44.85666" lon="3.4937">
        <ele>1158</ele>
        <time>2018-04-29T10:00:22Z</time>
      </trkpt>
      <trkpt lat="44.85672" lon="3.4937">
        <ele>1159</ele>
        <time>2018-04-29T10:00:58Z</time>
      </trkpt>
      <trkpt lat="44.85681" lon="3.49365">
        <ele>1160</ele>
        <time>2018-04-29T10:01:07Z</time>
      </trkpt>
      <trkpt lat="44.85692" lon="3.49372">
        <ele>1155</ele>
        <time>2018-04-29T10:01:43Z</time>
      </trkpt>
      <trkpt lat="44.85679" lon="3.49376">
        <ele>1157</ele>
        <time>2018-04-29T10:55:19Z</time>
      </trkpt>
      <trkpt lat="44.85675" lon="3.49379">
        <ele>1157</ele>
        <time>2018-04-29T10:55:23Z</time>
      </trkpt>
      <trkpt lat="44.85673" lon="3.49388">
        <ele>1159</ele>
        <time>2018-04-29T10:55:34Z</time>
      </trkpt>
      <trkpt lat="44.8567" lon="3.49394">
        <ele>1159</ele>
        <time>2018-04-29T10:55:38Z</time>
      </trkpt>
      <trkpt lat="44.85668" lon="3.49408">
        <ele>1160</ele>
        <time>2018-04-29T10:55:47Z</time>
      </trkpt>
      <trkpt lat="44.85671" lon="3.49413">
        <ele>1161</ele>
        <time>2018-04-29T10:55:52Z</time>
      </trkpt>
      <trkpt lat="44.85672" lon="3.49422">
        <ele>1162</ele>
        <time>2018-04-29T10:56:00Z</time>
      </trkpt>
      <trkpt lat="44.85671" lon="3.49428">
        <ele>1163</ele>
        <time>2018-04-29T10:56:05Z</time>
      </trkpt>
      <trkpt lat="44.85673" lon="3.49455">
        <ele>1166</ele>
        <time>2018-04-29T10:56:35Z</time>
      </trkpt>
      <trkpt lat="44.85672" lon="3.49462">
        <ele>1166</ele>
        <time>2018-04-29T10:56:41Z</time>
      </trkpt>
      <trkpt lat="44.85645" lon="3.49505">
        <ele>1171</ele>
        <time>2018-04-29T10:57:16Z</time>
      </trkpt>
      <trkpt lat="44.85635" lon="3.49516">
        <ele>1173</ele>
        <time>2018-04-29T10:57:30Z</time>
      </trkpt>
      <trkpt lat="44.85619" lon="3.49524">
        <ele>1174</ele>
        <time>2018-04-29T10:58:33Z</time>
      </trkpt>
      <trkpt lat="44.85613" lon="3.49523">
        <ele>1174</ele>
        <time>2018-04-29T10:58:53Z</time>
      </trkpt>
      <trkpt lat="44.85598" lon="3.49524">
        <ele>1177</ele>
        <time>2018-04-29T10:59:06Z</time>
      </trkpt>
      <trkpt lat="44.85592" lon="3.49523">
        <ele>1177</ele>
        <time>2018-04-29T10:59:11Z</time>
      </trkpt>
      <trkpt lat="44.85577" lon="3.49516">
        <ele>1177</ele>
        <time>2018-04-29T10:59:25Z</time>
      </trkpt>
      <trkpt lat="44.85567" lon="3.49515">
        <ele>1176</ele>
        <time>2018-04-29T10:59:34Z</time>
      </trkpt>
      <trkpt lat="44.85556" lon="3.49512">
        <ele>1176</ele>
        <time>2018-04-29T11:00:01Z</time>
      </trkpt>
      <trkpt lat="44.85544" lon="3.49517">
        <ele>1175</ele>
        <time>2018-04-29T11:00:19Z</time>
      </trkpt>
      <trkpt lat="44.85521" lon="3.4952">
        <ele>1174</ele>
        <time>2018-04-29T11:00:41Z</time>
      </trkpt>
      <trkpt lat="44.85515" lon="3.49521">
        <ele>1174</ele>
        <time>2018-04-29T11:00:46Z</time>
      </trkpt>
      <trkpt lat="44.85492" lon="3.49523">
        <ele>1173</ele>
        <time>2018-04-29T11:01:06Z</time>
      </trkpt>
      <trkpt lat="44.85477" lon="3.49526">
        <ele>1172</ele>
        <time>2018-04-29T11:01:18Z</time>
      </trkpt>
      <trkpt lat="44.85472" lon="3.49528">
        <ele>1171</ele>
        <time>2018-04-29T11:01:22Z</time>
      </trkpt>
      <trkpt lat="44.85453" lon="3.49542">
        <ele>1169</ele>
        <time>2018-04-29T11:01:38Z</time>
      </trkpt>
      <trkpt lat="44.85449" lon="3.49547">
        <ele>1170</ele>
        <time>2018-04-29T11:01:42Z</time>
      </trkpt>
      <trkpt lat="44.85435" lon="3.49558">
        <ele>1169</ele>
        <time>2018-04-29T11:01:54Z</time>
      </trkpt>
      <trkpt lat="44.8542" lon="3.49566">
        <ele>1169</ele>
        <time>2018-04-29T11:02:06Z</time>
      </trkpt>
      <trkpt lat="44.85415" lon="3.49569">
        <ele>1169</ele>
        <time>2018-04-29T11:02:10Z</time>
      </trkpt>
      <trkpt lat="44.85396" lon="3.49577">
        <ele>1168</ele>
        <time>2018-04-29T11:02:26Z</time>
      </trkpt>
      <trkpt lat="44.85391" lon="3.4958">
        <ele>1169</ele>
        <time>2018-04-29T11:02:30Z</time>
      </trkpt>
      <trkpt lat="44.85371" lon="3.49586">
        <ele>1168</ele>
        <time>2018-04-29T11:02:46Z</time>
      </trkpt>
      <trkpt lat="44.85361" lon="3.49584">
        <ele>1168</ele>
        <time>2018-04-29T11:02:54Z</time>
      </trkpt>
      <trkpt lat="44.85346" lon="3.49581">
        <ele>1169</ele>
        <time>2018-04-29T11:03:06Z</time>
      </trkpt>
      <trkpt lat="44.85341" lon="3.49578">
        <ele>1170</ele>
        <time>2018-04-29T11:03:10Z</time>
      </trkpt>
      <trkpt lat="44.85337" lon="3.49575">
        <ele>1170</ele>
        <time>2018-04-29T11:03:14Z</time>
      </trkpt>
      <trkpt lat="44.85332" lon="3.49576">
        <ele>1170</ele>
        <time>2018-04-29T11:03:18Z</time>
      </trkpt>
      <trkpt lat="44.85327" lon="3.49577">
        <ele>1171</ele>
        <time>2018-04-29T11:03:22Z</time>
      </trkpt>
      <trkpt lat="44.85322" lon="3.49576">
        <ele>1171</ele>
        <time>2018-04-29T11:03:27Z</time>
      </trkpt>
      <trkpt lat="44.85318" lon="3.49573">
        <ele>1172</ele>
        <time>2018-04-29T11:03:31Z</time>
      </trkpt>
      <trkpt lat="44.85313" lon="3.49572">
        <ele>1172</ele>
        <time>2018-04-29T11:03:36Z</time>
      </trkpt>
      <trkpt lat="44.85309" lon="3.49574">
        <ele>1173</ele>
        <time>2018-04-29T11:03:44Z</time>
      </trkpt>
      <trkpt lat="44.85302" lon="3.49574">
        <ele>1173</ele>
        <time>2018-04-29T11:04:12Z</time>
      </trkpt>
      <trkpt lat="44.85297" lon="3.49573">
        <ele>1173</ele>
        <time>2018-04-29T11:04:16Z</time>
      </trkpt>
      <trkpt lat="44.85288" lon="3.49568">
        <ele>1175</ele>
        <time>2018-04-29T11:04:24Z</time>
      </trkpt>
      <trkpt lat="44.85273" lon="3.49564">
        <ele>1176</ele>
        <time>2018-04-29T11:04:38Z</time>
      </trkpt>
      <trkpt lat="44.85263" lon="3.49563">
        <ele>1177</ele>
        <time>2018-04-29T11:04:46Z</time>
      </trkpt>
      <trkpt lat="44.85249" lon="3.49556">
        <ele>1178</ele>
        <time>2018-04-29T11:04:58Z</time>
      </trkpt>
      <trkpt lat="44.85239" lon="3.49558">
        <ele>1180</ele>
        <time>2018-04-29T11:05:06Z</time>
      </trkpt>
      <trkpt lat="44.8523" lon="3.49566">
        <ele>1180</ele>
        <time>2018-04-29T11:05:12Z</time>
      </trkpt>
      <trkpt lat="44.85225" lon="3.49568">
        <ele>1180</ele>
        <time>2018-04-29T11:05:16Z</time>
      </trkpt>
      <trkpt lat="44.85214" lon="3.49566">
        <ele>1182</ele>
        <time>2018-04-29T11:05:25Z</time>
      </trkpt>
      <trkpt lat="44.85209" lon="3.49565">
        <ele>1182</ele>
        <time>2018-04-29T11:05:30Z</time>
      </trkpt>
      <trkpt lat="44.85185" lon="3.49569">
        <ele>1183</ele>
        <time>2018-04-29T11:05:50Z</time>
      </trkpt>
      <trkpt lat="44.8518" lon="3.49572">
        <ele>1183</ele>
        <time>2018-04-29T11:05:54Z</time>
      </trkpt>
      <trkpt lat="44.85175" lon="3.49572">
        <ele>1184</ele>
        <time>2018-04-29T11:05:58Z</time>
      </trkpt>
      <trkpt lat="44.85166" lon="3.49574">
        <ele>1184</ele>
        <time>2018-04-29T11:06:06Z</time>
      </trkpt>
      <trkpt lat="44.8516" lon="3.49573">
        <ele>1183</ele>
        <time>2018-04-29T11:06:11Z</time>
      </trkpt>
      <trkpt lat="44.85138" lon="3.49581">
        <ele>1180</ele>
        <time>2018-04-29T11:06:28Z</time>
      </trkpt>
      <trkpt lat="44.85134" lon="3.4958">
        <ele>1180</ele>
        <time>2018-04-29T11:06:32Z</time>
      </trkpt>
      <trkpt lat="44.85124" lon="3.49584">
        <ele>1180</ele>
        <time>2018-04-29T11:06:40Z</time>
      </trkpt>
      <trkpt lat="44.85119" lon="3.49588">
        <ele>1179</ele>
        <time>2018-04-29T11:06:44Z</time>
      </trkpt>
      <trkpt lat="44.851" lon="3.49612">
        <ele>1181</ele>
        <time>2018-04-29T11:07:00Z</time>
      </trkpt>
      <trkpt lat="44.85096" lon="3.49617">
        <ele>1181</ele>
        <time>2018-04-29T11:07:04Z</time>
      </trkpt>
      <trkpt lat="44.85093" lon="3.49624">
        <ele>1181</ele>
        <time>2018-04-29T11:07:09Z</time>
      </trkpt>
      <trkpt lat="44.85091" lon="3.49631">
        <ele>1180</ele>
        <time>2018-04-29T11:07:14Z</time>
      </trkpt>
      <trkpt lat="44.85083" lon="3.49648">
        <ele>1181</ele>
        <time>2018-04-29T11:07:27Z</time>
      </trkpt>
      <trkpt lat="44.85079" lon="3.49653">
        <ele>1181</ele>
        <time>2018-04-29T11:07:31Z</time>
      </trkpt>
      <trkpt lat="44.85075" lon="3.49658">
        <ele>1181</ele>
        <time>2018-04-29T11:07:35Z</time>
      </trkpt>
      <trkpt lat="44.85049" lon="3.49663">
        <ele>1182</ele>
        <time>2018-04-29T11:07:55Z</time>
      </trkpt>
      <trkpt lat="44.85038" lon="3.49662">
        <ele>1182</ele>
        <time>2018-04-29T11:08:03Z</time>
      </trkpt>
      <trkpt lat="44.85017" lon="3.49655">
        <ele>1183</ele>
        <time>2018-04-29T11:08:19Z</time>
      </trkpt>
      <trkpt lat="44.85001" lon="3.49655">
        <ele>1183</ele>
        <time>2018-04-29T11:08:31Z</time>
      </trkpt>
      <trkpt lat="44.84996" lon="3.49654">
        <ele>1184</ele>
        <time>2018-04-29T11:08:35Z</time>
      </trkpt>
      <trkpt lat="44.8499" lon="3.49655">
        <ele>1184</ele>
        <time>2018-04-29T11:08:40Z</time>
      </trkpt>
      <trkpt lat="44.84986" lon="3.49659">
        <ele>1184</ele>
        <time>2018-04-29T11:08:44Z</time>
      </trkpt>
      <trkpt lat="44.84976" lon="3.49675">
        <ele>1184</ele>
        <time>2018-04-29T11:08:56Z</time>
      </trkpt>
      <trkpt lat="44.84957" lon="3.49696">
        <ele>1186</ele>
        <time>2018-04-29T11:09:16Z</time>
      </trkpt>
      <trkpt lat="44.84939" lon="3.49711">
        <ele>1189</ele>
        <time>2018-04-29T11:09:35Z</time>
      </trkpt>
      <trkpt lat="44.84925" lon="3.49735">
        <ele>1191</ele>
        <time>2018-04-29T11:10:06Z</time>
      </trkpt>
      <trkpt lat="44.84916" lon="3.49741">
        <ele>1193</ele>
        <time>2018-04-29T11:10:32Z</time>
      </trkpt>
      <trkpt lat="44.84907" lon="3.49739">
        <ele>1194</ele>
        <time>2018-04-29T11:10:42Z</time>
      </trkpt>
      <trkpt lat="44.84898" lon="3.49733">
        <ele>1194</ele>
        <time>2018-04-29T11:10:50Z</time>
      </trkpt>
      <trkpt lat="44.84888" lon="3.4973">
        <ele>1195</ele>
        <time>2018-04-29T11:11:00Z</time>
      </trkpt>
      <trkpt lat="44.84869" lon="3.49735">
        <ele>1200</ele>
        <time>2018-04-29T11:11:21Z</time>
      </trkpt>
      <trkpt lat="44.84863" lon="3.49735">
        <ele>1200</ele>
        <time>2018-04-29T11:11:25Z</time>
      </trkpt>
      <trkpt lat="44.84832" lon="3.49702">
        <ele>1202</ele>
        <time>2018-04-29T11:12:01Z</time>
      </trkpt>
      <trkpt lat="44.84828" lon="3.497">
        <ele>1202</ele>
        <time>2018-04-29T11:12:05Z</time>
      </trkpt>
      <trkpt lat="44.84817" lon="3.49685">
        <ele>1202</ele>
        <time>2018-04-29T11:12:17Z</time>
      </trkpt>
      <trkpt lat="44.84814" lon="3.49679">
        <ele>1202</ele>
        <time>2018-04-29T11:12:21Z</time>
      </trkpt>
      <trkpt lat="44.84804" lon="3.49665">
        <ele>1202</ele>
        <time>2018-04-29T11:12:33Z</time>
      </trkpt>
      <trkpt lat="44.84799" lon="3.49663">
        <ele>1203</ele>
        <time>2018-04-29T11:12:37Z</time>
      </trkpt>
      <trkpt lat="44.84794" lon="3.49661">
        <ele>1202</ele>
        <time>2018-04-29T11:12:41Z</time>
      </trkpt>
      <trkpt lat="44.8479" lon="3.49663">
        <ele>1202</ele>
        <time>2018-04-29T11:12:45Z</time>
      </trkpt>
      <trkpt lat="44.84781" lon="3.49668">
        <ele>1202</ele>
        <time>2018-04-29T11:12:53Z</time>
      </trkpt>
      <trkpt lat="44.84765" lon="3.49686">
        <ele>1202</ele>
        <time>2018-04-29T11:13:09Z</time>
      </trkpt>
      <trkpt lat="44.84761" lon="3.49689">
        <ele>1203</ele>
        <time>2018-04-29T11:13:13Z</time>
      </trkpt>
      <trkpt lat="44.84757" lon="3.49693">
        <ele>1203</ele>
        <time>2018-04-29T11:13:17Z</time>
      </trkpt>
      <trkpt lat="44.84745" lon="3.49709">
        <ele>1202</ele>
        <time>2018-04-29T11:13:30Z</time>
      </trkpt>
      <trkpt lat="44.84741" lon="3.49712">
        <ele>1203</ele>
        <time>2018-04-29T11:13:34Z</time>
      </trkpt>
      <trkpt lat="44.84737" lon="3.49715">
        <ele>1203</ele>
        <time>2018-04-29T11:13:38Z</time>
      </trkpt>
      <trkpt lat="44.84731" lon="3.49727">
        <ele>1203</ele>
        <time>2018-04-29T11:13:46Z</time>
      </trkpt>
      <trkpt lat="44.84727" lon="3.49732">
        <ele>1203</ele>
        <time>2018-04-29T11:13:50Z</time>
      </trkpt>
      <trkpt lat="44.84723" lon="3.49736">
        <ele>1203</ele>
        <time>2018-04-29T11:13:54Z</time>
      </trkpt>
      <trkpt lat="44.84683" lon="3.49768">
        <ele>1201</ele>
        <time>2018-04-29T11:14:29Z</time>
      </trkpt>
      <trkpt lat="44.84679" lon="3.49771">
        <ele>1201</ele>
        <time>2018-04-29T11:14:33Z</time>
      </trkpt>
      <trkpt lat="44.84669" lon="3.49775">
        <ele>1201</ele>
        <time>2018-04-29T11:14:41Z</time>
      </trkpt>
      <trkpt lat="44.8466" lon="3.4978">
        <ele>1201</ele>
        <time>2018-04-29T11:14:49Z</time>
      </trkpt>
      <trkpt lat="44.84655" lon="3.4978">
        <ele>1201</ele>
        <time>2018-04-29T11:14:53Z</time>
      </trkpt>
      <trkpt lat="44.8465" lon="3.4978">
        <ele>1201</ele>
        <time>2018-04-29T11:14:57Z</time>
      </trkpt>
      <trkpt lat="44.84645" lon="3.49785">
        <ele>1202</ele>
        <time>2018-04-29T11:15:01Z</time>
      </trkpt>
      <trkpt lat="44.84636" lon="3.49786">
        <ele>1202</ele>
        <time>2018-04-29T11:15:09Z</time>
      </trkpt>
      <trkpt lat="44.84627" lon="3.49792">
        <ele>1203</ele>
        <time>2018-04-29T11:15:15Z</time>
      </trkpt>
      <trkpt lat="44.84623" lon="3.49796">
        <ele>1203</ele>
        <time>2018-04-29T11:15:18Z</time>
      </trkpt>
      <trkpt lat="44.84619" lon="3.49797">
        <ele>1202</ele>
        <time>2018-04-29T11:15:23Z</time>
      </trkpt>
      <trkpt lat="44.84601" lon="3.49807">
        <ele>1203</ele>
        <time>2018-04-29T11:15:40Z</time>
      </trkpt>
      <trkpt lat="44.84586" lon="3.49813">
        <ele>1205</ele>
        <time>2018-04-29T11:16:14Z</time>
      </trkpt>
      <trkpt lat="44.84579" lon="3.49814">
        <ele>1205</ele>
        <time>2018-04-29T11:16:20Z</time>
      </trkpt>
      <trkpt lat="44.84574" lon="3.49817">
        <ele>1206</ele>
        <time>2018-04-29T11:16:24Z</time>
      </trkpt>
      <trkpt lat="44.84569" lon="3.49819">
        <ele>1206</ele>
        <time>2018-04-29T11:16:28Z</time>
      </trkpt>
      <trkpt lat="44.84563" lon="3.49819">
        <ele>1206</ele>
        <time>2018-04-29T11:16:32Z</time>
      </trkpt>
      <trkpt lat="44.8456" lon="3.49822">
        <ele>1206</ele>
        <time>2018-04-29T11:16:35Z</time>
      </trkpt>
      <trkpt lat="44.84555" lon="3.49823">
        <ele>1206</ele>
        <time>2018-04-29T11:16:39Z</time>
      </trkpt>
      <trkpt lat="44.84545" lon="3.49826">
        <ele>1206</ele>
        <time>2018-04-29T11:16:47Z</time>
      </trkpt>
      <trkpt lat="44.84539" lon="3.49827">
        <ele>1206</ele>
        <time>2018-04-29T11:16:52Z</time>
      </trkpt>
      <trkpt lat="44.8453" lon="3.49825">
        <ele>1206</ele>
        <time>2018-04-29T11:17:00Z</time>
      </trkpt>
      <trkpt lat="44.84519" lon="3.49828">
        <ele>1207</ele>
        <time>2018-04-29T11:17:09Z</time>
      </trkpt>
      <trkpt lat="44.84502" lon="3.49843">
        <ele>1208</ele>
        <time>2018-04-29T11:17:29Z</time>
      </trkpt>
      <trkpt lat="44.84497" lon="3.49851">
        <ele>1211</ele>
        <time>2018-04-29T11:17:38Z</time>
      </trkpt>
      <trkpt lat="44.84491" lon="3.49854">
        <ele>1213</ele>
        <time>2018-04-29T11:17:49Z</time>
      </trkpt>
      <trkpt lat="44.84483" lon="3.49855">
        <ele>1213</ele>
        <time>2018-04-29T11:17:58Z</time>
      </trkpt>
      <trkpt lat="44.84475" lon="3.4986">
        <ele>1215</ele>
        <time>2018-04-29T11:18:18Z</time>
      </trkpt>
      <trkpt lat="44.84465" lon="3.4986">
        <ele>1215</ele>
        <time>2018-04-29T11:18:24Z</time>
      </trkpt>
      <trkpt lat="44.84438" lon="3.49848">
        <ele>1216</ele>
        <time>2018-04-29T11:18:55Z</time>
      </trkpt>
      <trkpt lat="44.84431" lon="3.49841">
        <ele>1216</ele>
        <time>2018-04-29T11:19:04Z</time>
      </trkpt>
      <trkpt lat="44.84404" lon="3.49827">
        <ele>1219</ele>
        <time>2018-04-29T11:19:32Z</time>
      </trkpt>
      <trkpt lat="44.84395" lon="3.49827">
        <ele>1219</ele>
        <time>2018-04-29T11:19:39Z</time>
      </trkpt>
      <trkpt lat="44.84385" lon="3.49826">
        <ele>1218</ele>
        <time>2018-04-29T11:19:47Z</time>
      </trkpt>
      <trkpt lat="44.84362" lon="3.49816">
        <ele>1217</ele>
        <time>2018-04-29T11:20:10Z</time>
      </trkpt>
      <trkpt lat="44.84333" lon="3.49814">
        <ele>1217</ele>
        <time>2018-04-29T11:20:42Z</time>
      </trkpt>
      <trkpt lat="44.84327" lon="3.49822">
        <ele>1218</ele>
        <time>2018-04-29T11:20:49Z</time>
      </trkpt>
      <trkpt lat="44.84314" lon="3.49826">
        <ele>1218</ele>
        <time>2018-04-29T11:20:59Z</time>
      </trkpt>
      <trkpt lat="44.84304" lon="3.49825">
        <ele>1218</ele>
        <time>2018-04-29T11:21:07Z</time>
      </trkpt>
      <trkpt lat="44.84296" lon="3.4982">
        <ele>1218</ele>
        <time>2018-04-29T11:21:11Z</time>
      </trkpt>
      <trkpt lat="44.8429" lon="3.49811">
        <ele>1217</ele>
        <time>2018-04-29T11:21:17Z</time>
      </trkpt>
      <trkpt lat="44.84284" lon="3.49818">
        <ele>1218</ele>
        <time>2018-04-29T11:21:59Z</time>
      </trkpt>
      <trkpt lat="44.84286" lon="3.49809">
        <ele>1219</ele>
        <time>2018-04-29T11:22:17Z</time>
      </trkpt>
      <trkpt lat="44.84268" lon="3.49787">
        <ele>1221</ele>
        <time>2018-04-29T11:22:49Z</time>
      </trkpt>
      <trkpt lat="44.84262" lon="3.49767">
        <ele>1223</ele>
        <time>2018-04-29T11:22:59Z</time>
      </trkpt>
      <trkpt lat="44.84261" lon="3.49753">
        <ele>1224</ele>
        <time>2018-04-29T11:23:07Z</time>
      </trkpt>
      <trkpt lat="44.84258" lon="3.49741">
        <ele>1224</ele>
        <time>2018-04-29T11:23:16Z</time>
      </trkpt>
      <trkpt lat="44.84257" lon="3.49728">
        <ele>1224</ele>
        <time>2018-04-29T11:23:26Z</time>
      </trkpt>
      <trkpt lat="44.84244" lon="3.49702">
        <ele>1223</ele>
        <time>2018-04-29T11:23:45Z</time>
      </trkpt>
      <trkpt lat="44.84232" lon="3.4967">
        <ele>1223</ele>
        <time>2018-04-29T11:24:16Z</time>
      </trkpt>
      <trkpt lat="44.84224" lon="3.49657">
        <ele>1224</ele>
        <time>2018-04-29T11:24:27Z</time>
      </trkpt>
      <trkpt lat="44.84216" lon="3.49631">
        <ele>1224</ele>
        <time>2018-04-29T11:24:41Z</time>
      </trkpt>
      <trkpt lat="44.84186" lon="3.4959">
        <ele>1228</ele>
        <time>2018-04-29T11:25:27Z</time>
      </trkpt>
      <trkpt lat="44.84178" lon="3.49581">
        <ele>1229</ele>
        <time>2018-04-29T11:25:37Z</time>
      </trkpt>
      <trkpt lat="44.84173" lon="3.4957">
        <ele>1229</ele>
        <time>2018-04-29T11:25:45Z</time>
      </trkpt>
      <trkpt lat="44.84164" lon="3.49562">
        <ele>1230</ele>
        <time>2018-04-29T11:25:57Z</time>
      </trkpt>
      <trkpt lat="44.84161" lon="3.49548">
        <ele>1230</ele>
        <time>2018-04-29T11:26:07Z</time>
      </trkpt>
      <trkpt lat="44.84154" lon="3.49538">
        <ele>1230</ele>
        <time>2018-04-29T11:26:15Z</time>
      </trkpt>
      <trkpt lat="44.84136" lon="3.49519">
        <ele>1232</ele>
        <time>2018-04-29T11:26:46Z</time>
      </trkpt>
      <trkpt lat="44.84108" lon="3.4952">
        <ele>1238</ele>
        <time>2018-04-29T11:27:22Z</time>
      </trkpt>
      <trkpt lat="44.841" lon="3.49517">
        <ele>1240</ele>
        <time>2018-04-29T11:27:58Z</time>
      </trkpt>
      <trkpt lat="44.8409" lon="3.49523">
        <ele>1240</ele>
        <time>2018-04-29T11:28:10Z</time>
      </trkpt>
      <trkpt lat="44.84081" lon="3.4952">
        <ele>1244</ele>
        <time>2018-04-29T11:28:20Z</time>
      </trkpt>
      <trkpt lat="44.84062" lon="3.49526">
        <ele>1245</ele>
        <time>2018-04-29T11:28:38Z</time>
      </trkpt>
      <trkpt lat="44.84052" lon="3.49537">
        <ele>1248</ele>
        <time>2018-04-29T11:30:04Z</time>
      </trkpt>
      <trkpt lat="44.8403" lon="3.49552">
        <ele>1251</ele>
        <time>2018-04-29T11:30:29Z</time>
      </trkpt>
      <trkpt lat="44.84021" lon="3.49565">
        <ele>1254</ele>
        <time>2018-04-29T11:30:46Z</time>
      </trkpt>
      <trkpt lat="44.84004" lon="3.49574">
        <ele>1256</ele>
        <time>2018-04-29T11:31:08Z</time>
      </trkpt>
      <trkpt lat="44.83972" lon="3.49576">
        <ele>1259</ele>
        <time>2018-04-29T11:31:43Z</time>
      </trkpt>
      <trkpt lat="44.83964" lon="3.49569">
        <ele>1259</ele>
        <time>2018-04-29T11:31:50Z</time>
      </trkpt>
      <trkpt lat="44.83935" lon="3.49559">
        <ele>1261</ele>
        <time>2018-04-29T11:32:21Z</time>
      </trkpt>
      <trkpt lat="44.83922" lon="3.49557">
        <ele>1263</ele>
        <time>2018-04-29T11:32:34Z</time>
      </trkpt>
      <trkpt lat="44.83913" lon="3.49554">
        <ele>1263</ele>
        <time>2018-04-29T11:32:43Z</time>
      </trkpt>
      <trkpt lat="44.839" lon="3.49552">
        <ele>1265</ele>
        <time>2018-04-29T11:32:59Z</time>
      </trkpt>
      <trkpt lat="44.8389" lon="3.49556">
        <ele>1266</ele>
        <time>2018-04-29T11:33:23Z</time>
      </trkpt>
      <trkpt lat="44.83881" lon="3.49562">
        <ele>1268</ele>
        <time>2018-04-29T11:33:35Z</time>
      </trkpt>
      <trkpt lat="44.83838" lon="3.4957">
        <ele>1274</ele>
        <time>2018-04-29T11:34:32Z</time>
      </trkpt>
      <trkpt lat="44.83829" lon="3.49576">
        <ele>1276</ele>
        <time>2018-04-29T11:34:44Z</time>
      </trkpt>
      <trkpt lat="44.83819" lon="3.49574">
        <ele>1276</ele>
        <time>2018-04-29T11:34:51Z</time>
      </trkpt>
      <trkpt lat="44.83781" lon="3.49581">
        <ele>1279</ele>
        <time>2018-04-29T11:35:24Z</time>
      </trkpt>
      <trkpt lat="44.83763" lon="3.4958">
        <ele>1281</ele>
        <time>2018-04-29T11:35:42Z</time>
      </trkpt>
      <trkpt lat="44.83743" lon="3.49575">
        <ele>1283</ele>
        <time>2018-04-29T11:36:03Z</time>
      </trkpt>
      <trkpt lat="44.83731" lon="3.49575">
        <ele>1284</ele>
        <time>2018-04-29T11:36:14Z</time>
      </trkpt>
      <trkpt lat="44.83721" lon="3.49573">
        <ele>1284</ele>
        <time>2018-04-29T11:36:23Z</time>
      </trkpt>
      <trkpt lat="44.83712" lon="3.49573">
        <ele>1285</ele>
        <time>2018-04-29T11:36:33Z</time>
      </trkpt>
      <trkpt lat="44.83696" lon="3.49568">
        <ele>1286</ele>
        <time>2018-04-29T11:36:49Z</time>
      </trkpt>
      <trkpt lat="44.83667" lon="3.49566">
        <ele>1287</ele>
        <time>2018-04-29T11:37:13Z</time>
      </trkpt>
      <trkpt lat="44.83657" lon="3.49567">
        <ele>1287</ele>
        <time>2018-04-29T11:37:23Z</time>
      </trkpt>
      <trkpt lat="44.83649" lon="3.49565">
        <ele>1288</ele>
        <time>2018-04-29T11:37:32Z</time>
      </trkpt>
      <trkpt lat="44.83629" lon="3.49562">
        <ele>1289</ele>
        <time>2018-04-29T11:37:51Z</time>
      </trkpt>
      <trkpt lat="44.83617" lon="3.49557">
        <ele>1289</ele>
        <time>2018-04-29T11:38:03Z</time>
      </trkpt>
      <trkpt lat="44.83589" lon="3.4955">
        <ele>1290</ele>
        <time>2018-04-29T11:38:29Z</time>
      </trkpt>
      <trkpt lat="44.83579" lon="3.49551">
        <ele>1291</ele>
        <time>2018-04-29T11:38:38Z</time>
      </trkpt>
      <trkpt lat="44.8357" lon="3.4955">
        <ele>1290</ele>
        <time>2018-04-29T11:38:46Z</time>
      </trkpt>
      <trkpt lat="44.83561" lon="3.49545">
        <ele>1290</ele>
        <time>2018-04-29T11:38:54Z</time>
      </trkpt>
      <trkpt lat="44.8355" lon="3.49544">
        <ele>1291</ele>
        <time>2018-04-29T11:39:05Z</time>
      </trkpt>
      <trkpt lat="44.83522" lon="3.49554">
        <ele>1293</ele>
        <time>2018-04-29T11:39:35Z</time>
      </trkpt>
      <trkpt lat="44.83518" lon="3.49561">
        <ele>1294</ele>
        <time>2018-04-29T11:39:53Z</time>
      </trkpt>
      <trkpt lat="44.8352" lon="3.4957">
        <ele>1296</ele>
        <time>2018-04-29T11:40:05Z</time>
      </trkpt>
      <trkpt lat="44.83524" lon="3.49574">
        <ele>1295</ele>
        <time>2018-04-29T11:40:23Z</time>
      </trkpt>
      <trkpt lat="44.83516" lon="3.49584">
        <ele>1295</ele>
        <time>2018-04-29T11:41:43Z</time>
      </trkpt>
      <trkpt lat="44.83515" lon="3.49626">
        <ele>1299</ele>
        <time>2018-04-29T11:42:22Z</time>
      </trkpt>
      <trkpt lat="44.83512" lon="3.49637">
        <ele>1301</ele>
        <time>2018-04-29T11:42:40Z</time>
      </trkpt>
      <trkpt lat="44.83512" lon="3.49651">
        <ele>1302</ele>
        <time>2018-04-29T11:42:50Z</time>
      </trkpt>
      <trkpt lat="44.83509" lon="3.4966">
        <ele>1302</ele>
        <time>2018-04-29T11:42:58Z</time>
      </trkpt>
      <trkpt lat="44.83511" lon="3.4969">
        <ele>1306</ele>
        <time>2018-04-29T11:43:20Z</time>
      </trkpt>
      <trkpt lat="44.83511" lon="3.49696">
        <ele>1306</ele>
        <time>2018-04-29T11:43:24Z</time>
      </trkpt>
      <trkpt lat="44.83508" lon="3.49702">
        <ele>1306</ele>
        <time>2018-04-29T11:43:29Z</time>
      </trkpt>
      <trkpt lat="44.83506" lon="3.49717">
        <ele>1308</ele>
        <time>2018-04-29T11:43:52Z</time>
      </trkpt>
      <trkpt lat="44.83507" lon="3.49732">
        <ele>1311</ele>
        <time>2018-04-29T11:44:07Z</time>
      </trkpt>
      <trkpt lat="44.83498" lon="3.49746">
        <ele>1314</ele>
        <time>2018-04-29T11:44:22Z</time>
      </trkpt>
      <trkpt lat="44.8349" lon="3.49754">
        <ele>1314</ele>
        <time>2018-04-29T11:44:36Z</time>
      </trkpt>
      <trkpt lat="44.83479" lon="3.49752">
        <ele>1315</ele>
        <time>2018-04-29T11:44:45Z</time>
      </trkpt>
      <trkpt lat="44.8347" lon="3.49754">
        <ele>1314</ele>
        <time>2018-04-29T11:44:54Z</time>
      </trkpt>
      <trkpt lat="44.83421" lon="3.49744">
        <ele>1311</ele>
        <time>2018-04-29T11:45:31Z</time>
      </trkpt>
      <trkpt lat="44.83411" lon="3.49745">
        <ele>1310</ele>
        <time>2018-04-29T11:45:38Z</time>
      </trkpt>
      <trkpt lat="44.83402" lon="3.49741">
        <ele>1311</ele>
        <time>2018-04-29T11:45:45Z</time>
      </trkpt>
      <trkpt lat="44.83383" lon="3.49737">
        <ele>1310</ele>
        <time>2018-04-29T11:45:59Z</time>
      </trkpt>
      <trkpt lat="44.83352" lon="3.49724">
        <ele>1310</ele>
        <time>2018-04-29T11:46:30Z</time>
      </trkpt>
      <trkpt lat="44.83333" lon="3.4972">
        <ele>1310</ele>
        <time>2018-04-29T11:46:42Z</time>
      </trkpt>
      <trkpt lat="44.83324" lon="3.49716">
        <ele>1311</ele>
        <time>2018-04-29T11:46:50Z</time>
      </trkpt>
      <trkpt lat="44.83258" lon="3.49702">
        <ele>1315</ele>
        <time>2018-04-29T11:47:52Z</time>
      </trkpt>
      <trkpt lat="44.83249" lon="3.49697">
        <ele>1315</ele>
        <time>2018-04-29T11:48:00Z</time>
      </trkpt>
      <trkpt lat="44.83221" lon="3.49695">
        <ele>1316</ele>
        <time>2018-04-29T11:48:27Z</time>
      </trkpt>
      <trkpt lat="44.83214" lon="3.49686">
        <ele>1316</ele>
        <time>2018-04-29T11:48:31Z</time>
      </trkpt>
      <trkpt lat="44.83195" lon="3.4968">
        <ele>1318</ele>
        <time>2018-04-29T11:48:46Z</time>
      </trkpt>
      <trkpt lat="44.83177" lon="3.49671">
        <ele>1317</ele>
        <time>2018-04-29T11:49:01Z</time>
      </trkpt>
      <trkpt lat="44.83168" lon="3.49665">
        <ele>1317</ele>
        <time>2018-04-29T11:49:10Z</time>
      </trkpt>
      <trkpt lat="44.8315" lon="3.49659">
        <ele>1317</ele>
        <time>2018-04-29T11:49:25Z</time>
      </trkpt>
      <trkpt lat="44.83121" lon="3.49656">
        <ele>1318</ele>
        <time>2018-04-29T11:49:48Z</time>
      </trkpt>
      <trkpt lat="44.83073" lon="3.49638">
        <ele>1319</ele>
        <time>2018-04-29T11:50:34Z</time>
      </trkpt>
      <trkpt lat="44.83064" lon="3.49632">
        <ele>1321</ele>
        <time>2018-04-29T11:50:43Z</time>
      </trkpt>
      <trkpt lat="44.83058" lon="3.49627">
        <ele>1321</ele>
        <time>2018-04-29T11:50:50Z</time>
      </trkpt>
      <trkpt lat="44.83053" lon="3.49625">
        <ele>1321</ele>
        <time>2018-04-29T11:50:55Z</time>
      </trkpt>
      <trkpt lat="44.83048" lon="3.49624">
        <ele>1322</ele>
        <time>2018-04-29T11:50:59Z</time>
      </trkpt>
      <trkpt lat="44.83038" lon="3.4962">
        <ele>1321</ele>
        <time>2018-04-29T11:51:07Z</time>
      </trkpt>
      <trkpt lat="44.83029" lon="3.49618">
        <ele>1321</ele>
        <time>2018-04-29T11:51:13Z</time>
      </trkpt>
      <trkpt lat="44.83024" lon="3.49618">
        <ele>1321</ele>
        <time>2018-04-29T11:51:17Z</time>
      </trkpt>
      <trkpt lat="44.83004" lon="3.49611">
        <ele>1320</ele>
        <time>2018-04-29T11:51:35Z</time>
      </trkpt>
      <trkpt lat="44.83003" lon="3.49603">
        <ele>1319</ele>
        <time>2018-04-29T11:51:40Z</time>
      </trkpt>
      <trkpt lat="44.83016" lon="3.49591">
        <ele>1319</ele>
        <time>2018-04-29T11:51:52Z</time>
      </trkpt>
      <trkpt lat="44.83022" lon="3.4958">
        <ele>1319</ele>
        <time>2018-04-29T11:51:59Z</time>
      </trkpt>
      <trkpt lat="44.83042" lon="3.49559">
        <ele>1317</ele>
        <time>2018-04-29T11:52:19Z</time>
      </trkpt>
      <trkpt lat="44.83056" lon="3.49551">
        <ele>1316</ele>
        <time>2018-04-29T11:52:31Z</time>
      </trkpt>
      <trkpt lat="44.83075" lon="3.49495">
        <ele>1315</ele>
        <time>2018-04-29T11:53:03Z</time>
      </trkpt>
      <trkpt lat="44.83082" lon="3.4941">
        <ele>1313</ele>
        <time>2018-04-29T11:53:51Z</time>
      </trkpt>
      <trkpt lat="44.83082" lon="3.49403">
        <ele>1313</ele>
        <time>2018-04-29T11:53:55Z</time>
      </trkpt>
      <trkpt lat="44.83074" lon="3.4937">
        <ele>1311</ele>
        <time>2018-04-29T11:54:15Z</time>
      </trkpt>
      <trkpt lat="44.83071" lon="3.49363">
        <ele>1311</ele>
        <time>2018-04-29T11:54:19Z</time>
      </trkpt>
      <trkpt lat="44.83048" lon="3.49319">
        <ele>1309</ele>
        <time>2018-04-29T11:55:32Z</time>
      </trkpt>
      <trkpt lat="44.83046" lon="3.49312">
        <ele>1308</ele>
        <time>2018-04-29T11:55:36Z</time>
      </trkpt>
      <trkpt lat="44.83043" lon="3.49306">
        <ele>1308</ele>
        <time>2018-04-29T11:55:40Z</time>
      </trkpt>
      <trkpt lat="44.83036" lon="3.49287">
        <ele>1307</ele>
        <time>2018-04-29T11:55:52Z</time>
      </trkpt>
      <trkpt lat="44.83033" lon="3.49272">
        <ele>1306</ele>
        <time>2018-04-29T11:56:01Z</time>
      </trkpt>
      <trkpt lat="44.8301" lon="3.49217">
        <ele>1303</ele>
        <time>2018-04-29T11:56:38Z</time>
      </trkpt>
      <trkpt lat="44.82974" lon="3.4916">
        <ele>1297</ele>
        <time>2018-04-29T11:57:25Z</time>
      </trkpt>
      <trkpt lat="44.82962" lon="3.49144">
        <ele>1295</ele>
        <time>2018-04-29T11:58:16Z</time>
      </trkpt>
      <trkpt lat="44.82942" lon="3.49125">
        <ele>1294</ele>
        <time>2018-04-29T11:58:37Z</time>
      </trkpt>
      <trkpt lat="44.82914" lon="3.49108">
        <ele>1291</ele>
        <time>2018-04-29T11:59:01Z</time>
      </trkpt>
      <trkpt lat="44.82869" lon="3.49093">
        <ele>1289</ele>
        <time>2018-04-29T11:59:37Z</time>
      </trkpt>
      <trkpt lat="44.82865" lon="3.4909">
        <ele>1288</ele>
        <time>2018-04-29T11:59:41Z</time>
      </trkpt>
      <trkpt lat="44.82855" lon="3.49085">
        <ele>1289</ele>
        <time>2018-04-29T11:59:49Z</time>
      </trkpt>
      <trkpt lat="44.82846" lon="3.49083">
        <ele>1289</ele>
        <time>2018-04-29T11:59:57Z</time>
      </trkpt>
      <trkpt lat="44.82827" lon="3.49071">
        <ele>1290</ele>
        <time>2018-04-29T12:00:16Z</time>
      </trkpt>
      <trkpt lat="44.82807" lon="3.49063">
        <ele>1293</ele>
        <time>2018-04-29T12:00:44Z</time>
      </trkpt>
      <trkpt lat="44.82791" lon="3.49061">
        <ele>1295</ele>
        <time>2018-04-29T12:01:09Z</time>
      </trkpt>
      <trkpt lat="44.82786" lon="3.49062">
        <ele>1295</ele>
        <time>2018-04-29T12:01:14Z</time>
      </trkpt>
      <trkpt lat="44.82781" lon="3.49063">
        <ele>1294</ele>
        <time>2018-04-29T12:01:19Z</time>
      </trkpt>
      <trkpt lat="44.82761" lon="3.49078">
        <ele>1297</ele>
        <time>2018-04-29T12:01:41Z</time>
      </trkpt>
      <trkpt lat="44.82721" lon="3.49117">
        <ele>1300</ele>
        <time>2018-04-29T12:02:26Z</time>
      </trkpt>
      <trkpt lat="44.82712" lon="3.49121">
        <ele>1300</ele>
        <time>2018-04-29T12:02:34Z</time>
      </trkpt>
      <trkpt lat="44.82703" lon="3.49121">
        <ele>1300</ele>
        <time>2018-04-29T12:02:42Z</time>
      </trkpt>
      <trkpt lat="44.82693" lon="3.49117">
        <ele>1301</ele>
        <time>2018-04-29T12:02:50Z</time>
      </trkpt>
      <trkpt lat="44.82684" lon="3.49115">
        <ele>1300</ele>
        <time>2018-04-29T12:02:58Z</time>
      </trkpt>
      <trkpt lat="44.82607" lon="3.49087">
        <ele>1297</ele>
        <time>2018-04-29T12:04:02Z</time>
      </trkpt>
      <trkpt lat="44.8257" lon="3.49064">
        <ele>1295</ele>
        <time>2018-04-29T12:04:35Z</time>
      </trkpt>
      <trkpt lat="44.82565" lon="3.49062">
        <ele>1295</ele>
        <time>2018-04-29T12:04:39Z</time>
      </trkpt>
      <trkpt lat="44.82546" lon="3.49053">
        <ele>1294</ele>
        <time>2018-04-29T12:04:55Z</time>
      </trkpt>
      <trkpt lat="44.82533" lon="3.49043">
        <ele>1293</ele>
        <time>2018-04-29T12:05:07Z</time>
      </trkpt>
      <trkpt lat="44.82505" lon="3.49028">
        <ele>1292</ele>
        <time>2018-04-29T12:05:32Z</time>
      </trkpt>
      <trkpt lat="44.82484" lon="3.49012">
        <ele>1292</ele>
        <time>2018-04-29T12:05:53Z</time>
      </trkpt>
      <trkpt lat="44.82477" lon="3.49001">
        <ele>1292</ele>
        <time>2018-04-29T12:06:02Z</time>
      </trkpt>
      <trkpt lat="44.82455" lon="3.48938">
        <ele>1292</ele>
        <time>2018-04-29T12:06:45Z</time>
      </trkpt>
      <trkpt lat="44.82454" lon="3.48931">
        <ele>1292</ele>
        <time>2018-04-29T12:06:49Z</time>
      </trkpt>
      <trkpt lat="44.8245" lon="3.48919">
        <ele>1293</ele>
        <time>2018-04-29T12:06:57Z</time>
      </trkpt>
      <trkpt lat="44.8245" lon="3.48912">
        <ele>1294</ele>
        <time>2018-04-29T12:07:01Z</time>
      </trkpt>
      <trkpt lat="44.82451" lon="3.48898">
        <ele>1293</ele>
        <time>2018-04-29T12:07:09Z</time>
      </trkpt>
      <trkpt lat="44.82449" lon="3.4884">
        <ele>1294</ele>
        <time>2018-04-29T12:07:44Z</time>
      </trkpt>
      <trkpt lat="44.8245" lon="3.48826">
        <ele>1293</ele>
        <time>2018-04-29T12:07:53Z</time>
      </trkpt>
      <trkpt lat="44.82445" lon="3.48777">
        <ele>1292</ele>
        <time>2018-04-29T12:08:22Z</time>
      </trkpt>
      <trkpt lat="44.82446" lon="3.48769">
        <ele>1292</ele>
        <time>2018-04-29T12:08:27Z</time>
      </trkpt>
      <trkpt lat="44.82445" lon="3.48763">
        <ele>1292</ele>
        <time>2018-04-29T12:08:31Z</time>
      </trkpt>
      <trkpt lat="44.82442" lon="3.48757">
        <ele>1292</ele>
        <time>2018-04-29T12:08:35Z</time>
      </trkpt>
      <trkpt lat="44.82439" lon="3.48753">
        <ele>1292</ele>
        <time>2018-04-29T12:08:39Z</time>
      </trkpt>
      <trkpt lat="44.82429" lon="3.48746">
        <ele>1290</ele>
        <time>2018-04-29T12:08:49Z</time>
      </trkpt>
      <trkpt lat="44.82424" lon="3.48745">
        <ele>1290</ele>
        <time>2018-04-29T12:08:57Z</time>
      </trkpt>
      <trkpt lat="44.82419" lon="3.48747">
        <ele>1290</ele>
        <time>2018-04-29T12:09:02Z</time>
      </trkpt>
      <trkpt lat="44.82413" lon="3.48747">
        <ele>1289</ele>
        <time>2018-04-29T12:09:09Z</time>
      </trkpt>
      <trkpt lat="44.82408" lon="3.48744">
        <ele>1289</ele>
        <time>2018-04-29T12:09:14Z</time>
      </trkpt>
      <trkpt lat="44.82407" lon="3.48737">
        <ele>1288</ele>
        <time>2018-04-29T12:09:19Z</time>
      </trkpt>
      <trkpt lat="44.82409" lon="3.48731">
        <ele>1288</ele>
        <time>2018-04-29T12:09:33Z</time>
      </trkpt>
      <trkpt lat="44.82413" lon="3.48729">
        <ele>1289</ele>
        <time>2018-04-29T12:09:41Z</time>
      </trkpt>
      <trkpt lat="44.8241" lon="3.48724">
        <ele>1287</ele>
        <time>2018-04-29T12:09:59Z</time>
      </trkpt>
      <trkpt lat="44.82408" lon="3.48731">
        <ele>1287</ele>
        <time>2018-04-29T12:10:06Z</time>
      </trkpt>
      <trkpt lat="44.82404" lon="3.48733">
        <ele>1288</ele>
        <time>2018-04-29T12:10:11Z</time>
      </trkpt>
      <trkpt lat="44.82404" lon="3.48725">
        <ele>1287</ele>
        <time>2018-04-29T12:10:16Z</time>
      </trkpt>
      <trkpt lat="44.82408" lon="3.4872">
        <ele>1285</ele>
        <time>2018-04-29T12:10:20Z</time>
      </trkpt>
      <trkpt lat="44.82415" lon="3.48701">
        <ele>1284</ele>
        <time>2018-04-29T12:10:34Z</time>
      </trkpt>
      <trkpt lat="44.8242" lon="3.48706">
        <ele>1285</ele>
        <time>2018-04-29T12:10:42Z</time>
      </trkpt>
      <trkpt lat="44.8241" lon="3.48727">
        <ele>1292</ele>
        <time>2018-04-30T05:37:42Z</time>
      </trkpt>
      <trkpt lat="44.82405" lon="3.48727">
        <ele>1292</ele>
        <time>2018-04-30T05:37:57Z</time>
      </trkpt>
      <trkpt lat="44.82403" lon="3.48733">
        <ele>1292</ele>
        <time>2018-04-30T05:38:18Z</time>
      </trkpt>
      <trkpt lat="44.82403" lon="3.48741">
        <ele>1292</ele>
        <time>2018-04-30T05:38:26Z</time>
      </trkpt>
      <trkpt lat="44.82404" lon="3.48747">
        <ele>1292</ele>
        <time>2018-04-30T05:38:30Z</time>
      </trkpt>
      <trkpt lat="44.82397" lon="3.48753">
        <ele>1292</ele>
        <time>2018-04-30T05:38:42Z</time>
      </trkpt>
      <trkpt lat="44.82393" lon="3.48755">
        <ele>1291</ele>
        <time>2018-04-30T05:38:46Z</time>
      </trkpt>
      <trkpt lat="44.82382" lon="3.48757">
        <ele>1291</ele>
        <time>2018-04-30T05:38:55Z</time>
      </trkpt>
      <trkpt lat="44.82347" lon="3.48758">
        <ele>1289</ele>
        <time>2018-04-30T05:39:22Z</time>
      </trkpt>
      <trkpt lat="44.82341" lon="3.48755">
        <ele>1289</ele>
        <time>2018-04-30T05:39:39Z</time>
      </trkpt>
      <trkpt lat="44.82326" lon="3.48751">
        <ele>1289</ele>
        <time>2018-04-30T05:39:51Z</time>
      </trkpt>
      <trkpt lat="44.82322" lon="3.48747">
        <ele>1289</ele>
        <time>2018-04-30T05:39:55Z</time>
      </trkpt>
      <trkpt lat="44.82318" lon="3.48745">
        <ele>1290</ele>
        <time>2018-04-30T05:40:06Z</time>
      </trkpt>
      <trkpt lat="44.82316" lon="3.48728">
        <ele>1290</ele>
        <time>2018-04-30T05:40:27Z</time>
      </trkpt>
      <trkpt lat="44.82321" lon="3.48693">
        <ele>1291</ele>
        <time>2018-04-30T05:40:48Z</time>
      </trkpt>
      <trkpt lat="44.82318" lon="3.48688">
        <ele>1291</ele>
        <time>2018-04-30T05:40:51Z</time>
      </trkpt>
      <trkpt lat="44.82317" lon="3.4868">
        <ele>1292</ele>
        <time>2018-04-30T05:40:56Z</time>
      </trkpt>
      <trkpt lat="44.82309" lon="3.48653">
        <ele>1293</ele>
        <time>2018-04-30T05:41:11Z</time>
      </trkpt>
      <trkpt lat="44.82306" lon="3.48632">
        <ele>1293</ele>
        <time>2018-04-30T05:41:22Z</time>
      </trkpt>
      <trkpt lat="44.82308" lon="3.48625">
        <ele>1293</ele>
        <time>2018-04-30T05:41:26Z</time>
      </trkpt>
      <trkpt lat="44.82312" lon="3.48619">
        <ele>1293</ele>
        <time>2018-04-30T05:41:30Z</time>
      </trkpt>
      <trkpt lat="44.82322" lon="3.48588">
        <ele>1294</ele>
        <time>2018-04-30T05:41:50Z</time>
      </trkpt>
      <trkpt lat="44.82321" lon="3.48575">
        <ele>1295</ele>
        <time>2018-04-30T05:41:58Z</time>
      </trkpt>
      <trkpt lat="44.82323" lon="3.48535">
        <ele>1296</ele>
        <time>2018-04-30T05:42:22Z</time>
      </trkpt>
      <trkpt lat="44.82322" lon="3.48509">
        <ele>1297</ele>
        <time>2018-04-30T05:42:38Z</time>
      </trkpt>
      <trkpt lat="44.82317" lon="3.48496">
        <ele>1297</ele>
        <time>2018-04-30T05:42:45Z</time>
      </trkpt>
      <trkpt lat="44.82317" lon="3.48484">
        <ele>1298</ele>
        <time>2018-04-30T05:42:52Z</time>
      </trkpt>
      <trkpt lat="44.82322" lon="3.48472">
        <ele>1298</ele>
        <time>2018-04-30T05:42:58Z</time>
      </trkpt>
      <trkpt lat="44.82324" lon="3.48445">
        <ele>1298</ele>
        <time>2018-04-30T05:43:14Z</time>
      </trkpt>
      <trkpt lat="44.82326" lon="3.48432">
        <ele>1298</ele>
        <time>2018-04-30T05:43:22Z</time>
      </trkpt>
      <trkpt lat="44.82326" lon="3.4842">
        <ele>1299</ele>
        <time>2018-04-30T05:43:31Z</time>
      </trkpt>
      <trkpt lat="44.82307" lon="3.48354">
        <ele>1301</ele>
        <time>2018-04-30T05:44:15Z</time>
      </trkpt>
      <trkpt lat="44.82302" lon="3.48343">
        <ele>1301</ele>
        <time>2018-04-30T05:44:23Z</time>
      </trkpt>
      <trkpt lat="44.82298" lon="3.48317">
        <ele>1301</ele>
        <time>2018-04-30T05:44:39Z</time>
      </trkpt>
      <trkpt lat="44.82296" lon="3.48312">
        <ele>1300</ele>
        <time>2018-04-30T05:44:43Z</time>
      </trkpt>
      <trkpt lat="44.82292" lon="3.48306">
        <ele>1300</ele>
        <time>2018-04-30T05:44:48Z</time>
      </trkpt>
      <trkpt lat="44.82283" lon="3.48297">
        <ele>1300</ele>
        <time>2018-04-30T05:44:56Z</time>
      </trkpt>
      <trkpt lat="44.82278" lon="3.48284">
        <ele>1300</ele>
        <time>2018-04-30T05:45:06Z</time>
      </trkpt>
      <trkpt lat="44.82265" lon="3.48264">
        <ele>1300</ele>
        <time>2018-04-30T05:45:22Z</time>
      </trkpt>
      <trkpt lat="44.82257" lon="3.48257">
        <ele>1300</ele>
        <time>2018-04-30T05:45:30Z</time>
      </trkpt>
      <trkpt lat="44.8225" lon="3.48247">
        <ele>1300</ele>
        <time>2018-04-30T05:45:39Z</time>
      </trkpt>
      <trkpt lat="44.82229" lon="3.48226">
        <ele>1300</ele>
        <time>2018-04-30T05:46:00Z</time>
      </trkpt>
      <trkpt lat="44.82207" lon="3.48197">
        <ele>1298</ele>
        <time>2018-04-30T05:46:25Z</time>
      </trkpt>
      <trkpt lat="44.82205" lon="3.48192">
        <ele>1298</ele>
        <time>2018-04-30T05:46:29Z</time>
      </trkpt>
      <trkpt lat="44.82203" lon="3.48185">
        <ele>1297</ele>
        <time>2018-04-30T05:46:33Z</time>
      </trkpt>
      <trkpt lat="44.82194" lon="3.4811">
        <ele>1298</ele>
        <time>2018-04-30T05:47:17Z</time>
      </trkpt>
      <trkpt lat="44.82196" lon="3.48097">
        <ele>1298</ele>
        <time>2018-04-30T05:47:26Z</time>
      </trkpt>
      <trkpt lat="44.82199" lon="3.4809">
        <ele>1299</ele>
        <time>2018-04-30T05:47:31Z</time>
      </trkpt>
      <trkpt lat="44.82202" lon="3.48085">
        <ele>1298</ele>
        <time>2018-04-30T05:47:35Z</time>
      </trkpt>
      <trkpt lat="44.82206" lon="3.4808">
        <ele>1298</ele>
        <time>2018-04-30T05:47:39Z</time>
      </trkpt>
      <trkpt lat="44.82209" lon="3.48068">
        <ele>1299</ele>
        <time>2018-04-30T05:47:47Z</time>
      </trkpt>
      <trkpt lat="44.82212" lon="3.48062">
        <ele>1299</ele>
        <time>2018-04-30T05:47:52Z</time>
      </trkpt>
      <trkpt lat="44.82216" lon="3.48049">
        <ele>1299</ele>
        <time>2018-04-30T05:48:00Z</time>
      </trkpt>
      <trkpt lat="44.82217" lon="3.48035">
        <ele>1300</ele>
        <time>2018-04-30T05:48:08Z</time>
      </trkpt>
      <trkpt lat="44.82221" lon="3.4802">
        <ele>1300</ele>
        <time>2018-04-30T05:48:18Z</time>
      </trkpt>
      <trkpt lat="44.82224" lon="3.47988">
        <ele>1302</ele>
        <time>2018-04-30T05:48:46Z</time>
      </trkpt>
      <trkpt lat="44.82225" lon="3.4798">
        <ele>1301</ele>
        <time>2018-04-30T05:48:51Z</time>
      </trkpt>
      <trkpt lat="44.82229" lon="3.47975">
        <ele>1301</ele>
        <time>2018-04-30T05:48:55Z</time>
      </trkpt>
      <trkpt lat="44.82232" lon="3.47961">
        <ele>1300</ele>
        <time>2018-04-30T05:49:04Z</time>
      </trkpt>
      <trkpt lat="44.82216" lon="3.47894">
        <ele>1299</ele>
        <time>2018-04-30T05:49:43Z</time>
      </trkpt>
      <trkpt lat="44.82214" lon="3.47881">
        <ele>1299</ele>
        <time>2018-04-30T05:49:51Z</time>
      </trkpt>
      <trkpt lat="44.82214" lon="3.47845">
        <ele>1299</ele>
        <time>2018-04-30T05:50:12Z</time>
      </trkpt>
      <trkpt lat="44.82218" lon="3.47833">
        <ele>1299</ele>
        <time>2018-04-30T05:50:18Z</time>
      </trkpt>
      <trkpt lat="44.82231" lon="3.47812">
        <ele>1299</ele>
        <time>2018-04-30T05:50:32Z</time>
      </trkpt>
      <trkpt lat="44.82238" lon="3.47803">
        <ele>1298</ele>
        <time>2018-04-30T05:50:39Z</time>
      </trkpt>
      <trkpt lat="44.82287" lon="3.47766">
        <ele>1301</ele>
        <time>2018-04-30T05:51:25Z</time>
      </trkpt>
      <trkpt lat="44.82291" lon="3.47761">
        <ele>1301</ele>
        <time>2018-04-30T05:51:29Z</time>
      </trkpt>
      <trkpt lat="44.823" lon="3.47743">
        <ele>1300</ele>
        <time>2018-04-30T05:51:42Z</time>
      </trkpt>
      <trkpt lat="44.82307" lon="3.47723">
        <ele>1301</ele>
        <time>2018-04-30T05:51:55Z</time>
      </trkpt>
      <trkpt lat="44.82313" lon="3.47713">
        <ele>1301</ele>
        <time>2018-04-30T05:52:03Z</time>
      </trkpt>
      <trkpt lat="44.82331" lon="3.47661">
        <ele>1303</ele>
        <time>2018-04-30T05:52:36Z</time>
      </trkpt>
      <trkpt lat="44.82333" lon="3.47646">
        <ele>1303</ele>
        <time>2018-04-30T05:52:45Z</time>
      </trkpt>
      <trkpt lat="44.82331" lon="3.47599">
        <ele>1303</ele>
        <time>2018-04-30T05:53:13Z</time>
      </trkpt>
      <trkpt lat="44.82328" lon="3.47586">
        <ele>1304</ele>
        <time>2018-04-30T05:53:21Z</time>
      </trkpt>
      <trkpt lat="44.82327" lon="3.47572">
        <ele>1304</ele>
        <time>2018-04-30T05:53:30Z</time>
      </trkpt>
      <trkpt lat="44.82324" lon="3.47559">
        <ele>1303</ele>
        <time>2018-04-30T05:53:38Z</time>
      </trkpt>
      <trkpt lat="44.82323" lon="3.47531">
        <ele>1303</ele>
        <time>2018-04-30T05:53:54Z</time>
      </trkpt>
      <trkpt lat="44.82325" lon="3.47517">
        <ele>1303</ele>
        <time>2018-04-30T05:54:02Z</time>
      </trkpt>
      <trkpt lat="44.82327" lon="3.47509">
        <ele>1302</ele>
        <time>2018-04-30T05:54:06Z</time>
      </trkpt>
      <trkpt lat="44.82331" lon="3.47504">
        <ele>1302</ele>
        <time>2018-04-30T05:54:10Z</time>
      </trkpt>
      <trkpt lat="44.82335" lon="3.47492">
        <ele>1302</ele>
        <time>2018-04-30T05:54:18Z</time>
      </trkpt>
      <trkpt lat="44.82342" lon="3.47482">
        <ele>1302</ele>
        <time>2018-04-30T05:54:26Z</time>
      </trkpt>
      <trkpt lat="44.82347" lon="3.47469">
        <ele>1302</ele>
        <time>2018-04-30T05:54:34Z</time>
      </trkpt>
      <trkpt lat="44.82351" lon="3.47464">
        <ele>1302</ele>
        <time>2018-04-30T05:54:38Z</time>
      </trkpt>
      <trkpt lat="44.82359" lon="3.47455">
        <ele>1303</ele>
        <time>2018-04-30T05:54:47Z</time>
      </trkpt>
      <trkpt lat="44.82363" lon="3.47452">
        <ele>1303</ele>
        <time>2018-04-30T05:54:51Z</time>
      </trkpt>
      <trkpt lat="44.82372" lon="3.47444">
        <ele>1303</ele>
        <time>2018-04-30T05:54:59Z</time>
      </trkpt>
      <trkpt lat="44.82375" lon="3.47439">
        <ele>1303</ele>
        <time>2018-04-30T05:55:03Z</time>
      </trkpt>
      <trkpt lat="44.82388" lon="3.47425">
        <ele>1303</ele>
        <time>2018-04-30T05:55:16Z</time>
      </trkpt>
      <trkpt lat="44.82394" lon="3.47398">
        <ele>1304</ele>
        <time>2018-04-30T05:55:33Z</time>
      </trkpt>
      <trkpt lat="44.82419" lon="3.47331">
        <ele>1305</ele>
        <time>2018-04-30T05:56:17Z</time>
      </trkpt>
      <trkpt lat="44.8242" lon="3.47323">
        <ele>1306</ele>
        <time>2018-04-30T05:56:21Z</time>
      </trkpt>
      <trkpt lat="44.82422" lon="3.47318">
        <ele>1306</ele>
        <time>2018-04-30T05:56:25Z</time>
      </trkpt>
      <trkpt lat="44.82426" lon="3.47312">
        <ele>1307</ele>
        <time>2018-04-30T05:56:29Z</time>
      </trkpt>
      <trkpt lat="44.82432" lon="3.47292">
        <ele>1308</ele>
        <time>2018-04-30T05:56:42Z</time>
      </trkpt>
      <trkpt lat="44.82443" lon="3.47268">
        <ele>1309</ele>
        <time>2018-04-30T05:56:59Z</time>
      </trkpt>
      <trkpt lat="44.82447" lon="3.47264">
        <ele>1309</ele>
        <time>2018-04-30T05:57:02Z</time>
      </trkpt>
      <trkpt lat="44.82447" lon="3.47249">
        <ele>1309</ele>
        <time>2018-04-30T05:57:10Z</time>
      </trkpt>
      <trkpt lat="44.8245" lon="3.47234">
        <ele>1310</ele>
        <time>2018-04-30T05:57:21Z</time>
      </trkpt>
      <trkpt lat="44.82453" lon="3.4723">
        <ele>1311</ele>
        <time>2018-04-30T05:57:25Z</time>
      </trkpt>
      <trkpt lat="44.82457" lon="3.47216">
        <ele>1312</ele>
        <time>2018-04-30T05:57:35Z</time>
      </trkpt>
      <trkpt lat="44.82487" lon="3.47186">
        <ele>1314</ele>
        <time>2018-04-30T05:58:07Z</time>
      </trkpt>
      <trkpt lat="44.82523" lon="3.47159">
        <ele>1318</ele>
        <time>2018-04-30T05:58:43Z</time>
      </trkpt>
      <trkpt lat="44.82551" lon="3.47121">
        <ele>1319</ele>
        <time>2018-04-30T05:59:17Z</time>
      </trkpt>
      <trkpt lat="44.82556" lon="3.4711">
        <ele>1319</ele>
        <time>2018-04-30T05:59:25Z</time>
      </trkpt>
      <trkpt lat="44.82584" lon="3.47073">
        <ele>1319</ele>
        <time>2018-04-30T05:59:56Z</time>
      </trkpt>
      <trkpt lat="44.82589" lon="3.47061">
        <ele>1318</ele>
        <time>2018-04-30T06:00:03Z</time>
      </trkpt>
      <trkpt lat="44.82595" lon="3.4705">
        <ele>1318</ele>
        <time>2018-04-30T06:00:11Z</time>
      </trkpt>
      <trkpt lat="44.82598" lon="3.47037">
        <ele>1318</ele>
        <time>2018-04-30T06:00:18Z</time>
      </trkpt>
      <trkpt lat="44.82606" lon="3.47019">
        <ele>1318</ele>
        <time>2018-04-30T06:00:30Z</time>
      </trkpt>
      <trkpt lat="44.82608" lon="3.47012">
        <ele>1317</ele>
        <time>2018-04-30T06:00:34Z</time>
      </trkpt>
      <trkpt lat="44.82611" lon="3.47006">
        <ele>1317</ele>
        <time>2018-04-30T06:00:38Z</time>
      </trkpt>
      <trkpt lat="44.82615" lon="3.47001">
        <ele>1316</ele>
        <time>2018-04-30T06:00:42Z</time>
      </trkpt>
      <trkpt lat="44.82616" lon="3.46981">
        <ele>1315</ele>
        <time>2018-04-30T06:00:52Z</time>
      </trkpt>
      <trkpt lat="44.82622" lon="3.4696">
        <ele>1316</ele>
        <time>2018-04-30T06:01:04Z</time>
      </trkpt>
      <trkpt lat="44.82625" lon="3.46954">
        <ele>1316</ele>
        <time>2018-04-30T06:01:08Z</time>
      </trkpt>
      <trkpt lat="44.82632" lon="3.46927">
        <ele>1315</ele>
        <time>2018-04-30T06:01:23Z</time>
      </trkpt>
      <trkpt lat="44.82633" lon="3.46914">
        <ele>1315</ele>
        <time>2018-04-30T06:01:31Z</time>
      </trkpt>
      <trkpt lat="44.82638" lon="3.4688">
        <ele>1314</ele>
        <time>2018-04-30T06:01:51Z</time>
      </trkpt>
      <trkpt lat="44.8264" lon="3.46875">
        <ele>1314</ele>
        <time>2018-04-30T06:01:55Z</time>
      </trkpt>
      <trkpt lat="44.82641" lon="3.4686">
        <ele>1314</ele>
        <time>2018-04-30T06:02:03Z</time>
      </trkpt>
      <trkpt lat="44.82644" lon="3.46853">
        <ele>1314</ele>
        <time>2018-04-30T06:02:08Z</time>
      </trkpt>
      <trkpt lat="44.82645" lon="3.46831">
        <ele>1313</ele>
        <time>2018-04-30T06:02:20Z</time>
      </trkpt>
      <trkpt lat="44.82648" lon="3.46825">
        <ele>1313</ele>
        <time>2018-04-30T06:02:25Z</time>
      </trkpt>
      <trkpt lat="44.8265" lon="3.46796">
        <ele>1312</ele>
        <time>2018-04-30T06:02:41Z</time>
      </trkpt>
      <trkpt lat="44.8265" lon="3.46789">
        <ele>1312</ele>
        <time>2018-04-30T06:02:44Z</time>
      </trkpt>
      <trkpt lat="44.82656" lon="3.46752">
        <ele>1311</ele>
        <time>2018-04-30T06:03:05Z</time>
      </trkpt>
      <trkpt lat="44.82662" lon="3.46732">
        <ele>1311</ele>
        <time>2018-04-30T06:03:17Z</time>
      </trkpt>
      <trkpt lat="44.82665" lon="3.46727">
        <ele>1311</ele>
        <time>2018-04-30T06:03:21Z</time>
      </trkpt>
      <trkpt lat="44.82669" lon="3.46723">
        <ele>1311</ele>
        <time>2018-04-30T06:03:25Z</time>
      </trkpt>
      <trkpt lat="44.82673" lon="3.46714">
        <ele>1310</ele>
        <time>2018-04-30T06:03:32Z</time>
      </trkpt>
      <trkpt lat="44.82685" lon="3.46702">
        <ele>1309</ele>
        <time>2018-04-30T06:03:43Z</time>
      </trkpt>
      <trkpt lat="44.82709" lon="3.46687">
        <ele>1309</ele>
        <time>2018-04-30T06:04:03Z</time>
      </trkpt>
      <trkpt lat="44.8272" lon="3.46683">
        <ele>1308</ele>
        <time>2018-04-30T06:04:11Z</time>
      </trkpt>
      <trkpt lat="44.82724" lon="3.46683">
        <ele>1308</ele>
        <time>2018-04-30T06:05:40Z</time>
      </trkpt>
      <trkpt lat="44.82729" lon="3.46673">
        <ele>1308</ele>
        <time>2018-04-30T06:05:59Z</time>
      </trkpt>
      <trkpt lat="44.82739" lon="3.4666">
        <ele>1308</ele>
        <time>2018-04-30T06:06:04Z</time>
      </trkpt>
      <trkpt lat="44.82744" lon="3.46657">
        <ele>1308</ele>
        <time>2018-04-30T06:06:06Z</time>
      </trkpt>
      <trkpt lat="44.82751" lon="3.46655">
        <ele>1307</ele>
        <time>2018-04-30T06:06:15Z</time>
      </trkpt>
      <trkpt lat="44.82757" lon="3.46653">
        <ele>1307</ele>
        <time>2018-04-30T06:06:20Z</time>
      </trkpt>
      <trkpt lat="44.82791" lon="3.46634">
        <ele>1306</ele>
        <time>2018-04-30T06:06:50Z</time>
      </trkpt>
      <trkpt lat="44.8281" lon="3.4662">
        <ele>1304</ele>
        <time>2018-04-30T06:07:06Z</time>
      </trkpt>
      <trkpt lat="44.82819" lon="3.46615">
        <ele>1304</ele>
        <time>2018-04-30T06:07:14Z</time>
      </trkpt>
      <trkpt lat="44.82829" lon="3.46608">
        <ele>1304</ele>
        <time>2018-04-30T06:07:22Z</time>
      </trkpt>
      <trkpt lat="44.82838" lon="3.46604">
        <ele>1304</ele>
        <time>2018-04-30T06:07:30Z</time>
      </trkpt>
      <trkpt lat="44.82843" lon="3.46603">
        <ele>1303</ele>
        <time>2018-04-30T06:07:34Z</time>
      </trkpt>
      <trkpt lat="44.82848" lon="3.46604">
        <ele>1303</ele>
        <time>2018-04-30T06:07:38Z</time>
      </trkpt>
      <trkpt lat="44.82872" lon="3.46615">
        <ele>1303</ele>
        <time>2018-04-30T06:07:58Z</time>
      </trkpt>
      <trkpt lat="44.82958" lon="3.46685">
        <ele>1303</ele>
        <time>2018-04-30T06:09:15Z</time>
      </trkpt>
      <trkpt lat="44.82982" lon="3.467">
        <ele>1302</ele>
        <time>2018-04-30T06:09:35Z</time>
      </trkpt>
      <trkpt lat="44.83014" lon="3.46713">
        <ele>1302</ele>
        <time>2018-04-30T06:10:04Z</time>
      </trkpt>
      <trkpt lat="44.83031" lon="3.46714">
        <ele>1302</ele>
        <time>2018-04-30T06:10:16Z</time>
      </trkpt>
      <trkpt lat="44.83046" lon="3.46707">
        <ele>1302</ele>
        <time>2018-04-30T06:10:29Z</time>
      </trkpt>
      <trkpt lat="44.83069" lon="3.46694">
        <ele>1302</ele>
        <time>2018-04-30T06:10:51Z</time>
      </trkpt>
      <trkpt lat="44.83085" lon="3.46675">
        <ele>1303</ele>
        <time>2018-04-30T06:11:06Z</time>
      </trkpt>
      <trkpt lat="44.83093" lon="3.46667">
        <ele>1302</ele>
        <time>2018-04-30T06:11:14Z</time>
      </trkpt>
      <trkpt lat="44.83142" lon="3.46512">
        <ele>1303</ele>
        <time>2018-04-30T06:12:49Z</time>
      </trkpt>
      <trkpt lat="44.83147" lon="3.4648">
        <ele>1303</ele>
        <time>2018-04-30T06:13:07Z</time>
      </trkpt>
      <trkpt lat="44.83147" lon="3.4646">
        <ele>1303</ele>
        <time>2018-04-30T06:13:17Z</time>
      </trkpt>
      <trkpt lat="44.83148" lon="3.46454">
        <ele>1303</ele>
        <time>2018-04-30T06:13:21Z</time>
      </trkpt>
      <trkpt lat="44.83153" lon="3.46442">
        <ele>1303</ele>
        <time>2018-04-30T06:13:29Z</time>
      </trkpt>
      <trkpt lat="44.8316" lon="3.46408">
        <ele>1303</ele>
        <time>2018-04-30T06:13:51Z</time>
      </trkpt>
      <trkpt lat="44.8317" lon="3.46403">
        <ele>1301</ele>
        <time>2018-04-30T06:14:05Z</time>
      </trkpt>
      <trkpt lat="44.83164" lon="3.46391">
        <ele>1302</ele>
        <time>2018-04-30T06:14:56Z</time>
      </trkpt>
      <trkpt lat="44.83162" lon="3.46369">
        <ele>1301</ele>
        <time>2018-04-30T06:15:08Z</time>
      </trkpt>
      <trkpt lat="44.83166" lon="3.46314">
        <ele>1302</ele>
        <time>2018-04-30T06:15:40Z</time>
      </trkpt>
      <trkpt lat="44.83169" lon="3.46271">
        <ele>1302</ele>
        <time>2018-04-30T06:16:04Z</time>
      </trkpt>
      <trkpt lat="44.83176" lon="3.46231">
        <ele>1303</ele>
        <time>2018-04-30T06:16:39Z</time>
      </trkpt>
      <trkpt lat="44.83174" lon="3.46225">
        <ele>1303</ele>
        <time>2018-04-30T06:16:43Z</time>
      </trkpt>
      <trkpt lat="44.83158" lon="3.46199">
        <ele>1303</ele>
        <time>2018-04-30T06:17:13Z</time>
      </trkpt>
      <trkpt lat="44.83151" lon="3.46179">
        <ele>1303</ele>
        <time>2018-04-30T06:17:37Z</time>
      </trkpt>
      <trkpt lat="44.83113" lon="3.46088">
        <ele>1300</ele>
        <time>2018-04-30T06:18:37Z</time>
      </trkpt>
      <trkpt lat="44.831" lon="3.46043">
        <ele>1300</ele>
        <time>2018-04-30T06:19:07Z</time>
      </trkpt>
      <trkpt lat="44.831" lon="3.46036">
        <ele>1299</ele>
        <time>2018-04-30T06:19:11Z</time>
      </trkpt>
      <trkpt lat="44.83081" lon="3.45943">
        <ele>1297</ele>
        <time>2018-04-30T06:20:02Z</time>
      </trkpt>
      <trkpt lat="44.83079" lon="3.45925">
        <ele>1296</ele>
        <time>2018-04-30T06:20:17Z</time>
      </trkpt>
      <trkpt lat="44.83074" lon="3.45905">
        <ele>1296</ele>
        <time>2018-04-30T06:20:29Z</time>
      </trkpt>
      <trkpt lat="44.83075" lon="3.4589">
        <ele>1295</ele>
        <time>2018-04-30T06:20:38Z</time>
      </trkpt>
      <trkpt lat="44.83072" lon="3.45876">
        <ele>1295</ele>
        <time>2018-04-30T06:20:46Z</time>
      </trkpt>
      <trkpt lat="44.83057" lon="3.45842">
        <ele>1293</ele>
        <time>2018-04-30T06:21:06Z</time>
      </trkpt>
      <trkpt lat="44.83052" lon="3.45821">
        <ele>1291</ele>
        <time>2018-04-30T06:21:18Z</time>
      </trkpt>
      <trkpt lat="44.83051" lon="3.45815">
        <ele>1291</ele>
        <time>2018-04-30T06:21:22Z</time>
      </trkpt>
      <trkpt lat="44.83055" lon="3.4581">
        <ele>1291</ele>
        <time>2018-04-30T06:21:27Z</time>
      </trkpt>
      <trkpt lat="44.83083" lon="3.45835">
        <ele>1293</ele>
        <time>2018-04-30T06:22:06Z</time>
      </trkpt>
      <trkpt lat="44.83094" lon="3.45849">
        <ele>1293</ele>
        <time>2018-04-30T06:22:40Z</time>
      </trkpt>
      <trkpt lat="44.83087" lon="3.45845">
        <ele>1293</ele>
        <time>2018-04-30T06:23:22Z</time>
      </trkpt>
      <trkpt lat="44.83084" lon="3.45839">
        <ele>1293</ele>
        <time>2018-04-30T06:23:31Z</time>
      </trkpt>
      <trkpt lat="44.83079" lon="3.45837">
        <ele>1293</ele>
        <time>2018-04-30T06:23:35Z</time>
      </trkpt>
      <trkpt lat="44.83068" lon="3.45822">
        <ele>1293</ele>
        <time>2018-04-30T06:23:48Z</time>
      </trkpt>
      <trkpt lat="44.83064" lon="3.45819">
        <ele>1293</ele>
        <time>2018-04-30T06:23:52Z</time>
      </trkpt>
      <trkpt lat="44.83055" lon="3.45816">
        <ele>1292</ele>
        <time>2018-04-30T06:24:00Z</time>
      </trkpt>
      <trkpt lat="44.83053" lon="3.45809">
        <ele>1293</ele>
        <time>2018-04-30T06:24:05Z</time>
      </trkpt>
      <trkpt lat="44.83049" lon="3.45737">
        <ele>1290</ele>
        <time>2018-04-30T06:24:46Z</time>
      </trkpt>
      <trkpt lat="44.83034" lon="3.45696">
        <ele>1291</ele>
        <time>2018-04-30T06:25:10Z</time>
      </trkpt>
      <trkpt lat="44.8302" lon="3.45673">
        <ele>1291</ele>
        <time>2018-04-30T06:25:26Z</time>
      </trkpt>
      <trkpt lat="44.83016" lon="3.45668">
        <ele>1291</ele>
        <time>2018-04-30T06:25:30Z</time>
      </trkpt>
      <trkpt lat="44.82999" lon="3.45654">
        <ele>1292</ele>
        <time>2018-04-30T06:25:46Z</time>
      </trkpt>
      <trkpt lat="44.82956" lon="3.45633">
        <ele>1292</ele>
        <time>2018-04-30T06:26:22Z</time>
      </trkpt>
      <trkpt lat="44.8292" lon="3.45624">
        <ele>1291</ele>
        <time>2018-04-30T06:26:53Z</time>
      </trkpt>
      <trkpt lat="44.82911" lon="3.45621">
        <ele>1291</ele>
        <time>2018-04-30T06:27:01Z</time>
      </trkpt>
      <trkpt lat="44.82908" lon="3.45616">
        <ele>1292</ele>
        <time>2018-04-30T06:27:27Z</time>
      </trkpt>
      <trkpt lat="44.82884" lon="3.45596">
        <ele>1293</ele>
        <time>2018-04-30T06:28:35Z</time>
      </trkpt>
      <trkpt lat="44.82851" lon="3.45575">
        <ele>1293</ele>
        <time>2018-04-30T06:29:03Z</time>
      </trkpt>
      <trkpt lat="44.82848" lon="3.4557">
        <ele>1293</ele>
        <time>2018-04-30T06:29:07Z</time>
      </trkpt>
      <trkpt lat="44.82847" lon="3.45563">
        <ele>1293</ele>
        <time>2018-04-30T06:29:11Z</time>
      </trkpt>
      <trkpt lat="44.82847" lon="3.45556">
        <ele>1293</ele>
        <time>2018-04-30T06:29:15Z</time>
      </trkpt>
      <trkpt lat="44.82852" lon="3.4556">
        <ele>1293</ele>
        <time>2018-04-30T06:29:35Z</time>
      </trkpt>
      <trkpt lat="44.82848" lon="3.45547">
        <ele>1292</ele>
        <time>2018-04-30T06:31:09Z</time>
      </trkpt>
      <trkpt lat="44.82841" lon="3.45552">
        <ele>1291</ele>
        <time>2018-04-30T06:31:53Z</time>
      </trkpt>
      <trkpt lat="44.82835" lon="3.45554">
        <ele>1291</ele>
        <time>2018-04-30T06:31:58Z</time>
      </trkpt>
      <trkpt lat="44.82825" lon="3.45554">
        <ele>1289</ele>
        <time>2018-04-30T06:32:08Z</time>
      </trkpt>
      <trkpt lat="44.8282" lon="3.45558">
        <ele>1288</ele>
        <time>2018-04-30T06:32:13Z</time>
      </trkpt>
      <trkpt lat="44.8281" lon="3.45558">
        <ele>1286</ele>
        <time>2018-04-30T06:32:22Z</time>
      </trkpt>
      <trkpt lat="44.82805" lon="3.45555">
        <ele>1286</ele>
        <time>2018-04-30T06:32:26Z</time>
      </trkpt>
      <trkpt lat="44.82796" lon="3.45548">
        <ele>1286</ele>
        <time>2018-04-30T06:32:34Z</time>
      </trkpt>
      <trkpt lat="44.82752" lon="3.45497">
        <ele>1284</ele>
        <time>2018-04-30T06:33:26Z</time>
      </trkpt>
      <trkpt lat="44.82745" lon="3.45478">
        <ele>1284</ele>
        <time>2018-04-30T06:33:38Z</time>
      </trkpt>
      <trkpt lat="44.82742" lon="3.45464">
        <ele>1284</ele>
        <time>2018-04-30T06:33:46Z</time>
      </trkpt>
      <trkpt lat="44.82736" lon="3.45459">
        <ele>1283</ele>
        <time>2018-04-30T06:33:54Z</time>
      </trkpt>
      <trkpt lat="44.82735" lon="3.45447">
        <ele>1284</ele>
        <time>2018-04-30T06:34:24Z</time>
      </trkpt>
      <trkpt lat="44.82727" lon="3.45428">
        <ele>1282</ele>
        <time>2018-04-30T06:34:47Z</time>
      </trkpt>
      <trkpt lat="44.82724" lon="3.45414">
        <ele>1281</ele>
        <time>2018-04-30T06:34:56Z</time>
      </trkpt>
      <trkpt lat="44.82719" lon="3.45402">
        <ele>1281</ele>
        <time>2018-04-30T06:35:04Z</time>
      </trkpt>
      <trkpt lat="44.82715" lon="3.45396">
        <ele>1280</ele>
        <time>2018-04-30T06:35:26Z</time>
      </trkpt>
      <trkpt lat="44.82701" lon="3.45364">
        <ele>1278</ele>
        <time>2018-04-30T06:35:51Z</time>
      </trkpt>
      <trkpt lat="44.82683" lon="3.45334">
        <ele>1272</ele>
        <time>2018-04-30T06:36:22Z</time>
      </trkpt>
      <trkpt lat="44.82657" lon="3.45301">
        <ele>1267</ele>
        <time>2018-04-30T06:36:54Z</time>
      </trkpt>
      <trkpt lat="44.82653" lon="3.45298">
        <ele>1266</ele>
        <time>2018-04-30T06:36:58Z</time>
      </trkpt>
      <trkpt lat="44.82648" lon="3.45298">
        <ele>1265</ele>
        <time>2018-04-30T06:37:02Z</time>
      </trkpt>
      <trkpt lat="44.82644" lon="3.45295">
        <ele>1265</ele>
        <time>2018-04-30T06:37:07Z</time>
      </trkpt>
      <trkpt lat="44.82631" lon="3.45275">
        <ele>1263</ele>
        <time>2018-04-30T06:37:19Z</time>
      </trkpt>
      <trkpt lat="44.82626" lon="3.45264">
        <ele>1262</ele>
        <time>2018-04-30T06:37:25Z</time>
      </trkpt>
      <trkpt lat="44.82624" lon="3.45243">
        <ele>1261</ele>
        <time>2018-04-30T06:37:34Z</time>
      </trkpt>
      <trkpt lat="44.82609" lon="3.45205">
        <ele>1260</ele>
        <time>2018-04-30T06:37:56Z</time>
      </trkpt>
      <trkpt lat="44.82609" lon="3.45178">
        <ele>1259</ele>
        <time>2018-04-30T06:38:14Z</time>
      </trkpt>
      <trkpt lat="44.82608" lon="3.45162">
        <ele>1260</ele>
        <time>2018-04-30T06:38:25Z</time>
      </trkpt>
      <trkpt lat="44.82598" lon="3.45152">
        <ele>1261</ele>
        <time>2018-04-30T06:38:36Z</time>
      </trkpt>
      <trkpt lat="44.82579" lon="3.45148">
        <ele>1260</ele>
        <time>2018-04-30T06:38:51Z</time>
      </trkpt>
      <trkpt lat="44.82567" lon="3.45129">
        <ele>1258</ele>
        <time>2018-04-30T06:39:06Z</time>
      </trkpt>
      <trkpt lat="44.8255" lon="3.45115">
        <ele>1258</ele>
        <time>2018-04-30T06:39:21Z</time>
      </trkpt>
      <trkpt lat="44.82539" lon="3.45113">
        <ele>1257</ele>
        <time>2018-04-30T06:39:29Z</time>
      </trkpt>
      <trkpt lat="44.82531" lon="3.45107">
        <ele>1257</ele>
        <time>2018-04-30T06:39:37Z</time>
      </trkpt>
      <trkpt lat="44.82526" lon="3.45096">
        <ele>1257</ele>
        <time>2018-04-30T06:39:46Z</time>
      </trkpt>
      <trkpt lat="44.82488" lon="3.45073">
        <ele>1253</ele>
        <time>2018-04-30T06:40:21Z</time>
      </trkpt>
      <trkpt lat="44.82481" lon="3.45065">
        <ele>1253</ele>
        <time>2018-04-30T06:40:28Z</time>
      </trkpt>
      <trkpt lat="44.82465" lon="3.45051">
        <ele>1251</ele>
        <time>2018-04-30T06:40:47Z</time>
      </trkpt>
      <trkpt lat="44.82454" lon="3.45033">
        <ele>1250</ele>
        <time>2018-04-30T06:42:03Z</time>
      </trkpt>
      <trkpt lat="44.82439" lon="3.44998">
        <ele>1247</ele>
        <time>2018-04-30T06:42:43Z</time>
      </trkpt>
      <trkpt lat="44.82436" lon="3.44985">
        <ele>1246</ele>
        <time>2018-04-30T06:42:53Z</time>
      </trkpt>
      <trkpt lat="44.82437" lon="3.44962">
        <ele>1245</ele>
        <time>2018-04-30T06:43:17Z</time>
      </trkpt>
      <trkpt lat="44.82439" lon="3.44955">
        <ele>1245</ele>
        <time>2018-04-30T06:43:22Z</time>
      </trkpt>
      <trkpt lat="44.8244" lon="3.44943">
        <ele>1244</ele>
        <time>2018-04-30T06:43:31Z</time>
      </trkpt>
      <trkpt lat="44.8244" lon="3.44929">
        <ele>1243</ele>
        <time>2018-04-30T06:43:40Z</time>
      </trkpt>
      <trkpt lat="44.82443" lon="3.44919">
        <ele>1242</ele>
        <time>2018-04-30T06:43:49Z</time>
      </trkpt>
      <trkpt lat="44.82442" lon="3.44903">
        <ele>1241</ele>
        <time>2018-04-30T06:44:01Z</time>
      </trkpt>
      <trkpt lat="44.82446" lon="3.4489">
        <ele>1240</ele>
        <time>2018-04-30T06:44:10Z</time>
      </trkpt>
      <trkpt lat="44.82449" lon="3.44883">
        <ele>1239</ele>
        <time>2018-04-30T06:44:15Z</time>
      </trkpt>
      <trkpt lat="44.82452" lon="3.44878">
        <ele>1239</ele>
        <time>2018-04-30T06:44:20Z</time>
      </trkpt>
      <trkpt lat="44.82453" lon="3.44871">
        <ele>1239</ele>
        <time>2018-04-30T06:44:24Z</time>
      </trkpt>
      <trkpt lat="44.82468" lon="3.44836">
        <ele>1237</ele>
        <time>2018-04-30T06:45:03Z</time>
      </trkpt>
      <trkpt lat="44.8247" lon="3.44828">
        <ele>1237</ele>
        <time>2018-04-30T06:45:07Z</time>
      </trkpt>
      <trkpt lat="44.82466" lon="3.44784">
        <ele>1236</ele>
        <time>2018-04-30T06:45:33Z</time>
      </trkpt>
      <trkpt lat="44.8246" lon="3.44763">
        <ele>1236</ele>
        <time>2018-04-30T06:45:47Z</time>
      </trkpt>
      <trkpt lat="44.82448" lon="3.4474">
        <ele>1237</ele>
        <time>2018-04-30T06:46:03Z</time>
      </trkpt>
      <trkpt lat="44.8244" lon="3.44731">
        <ele>1237</ele>
        <time>2018-04-30T06:46:11Z</time>
      </trkpt>
      <trkpt lat="44.82437" lon="3.44726">
        <ele>1237</ele>
        <time>2018-04-30T06:46:15Z</time>
      </trkpt>
      <trkpt lat="44.82428" lon="3.44717">
        <ele>1236</ele>
        <time>2018-04-30T06:46:24Z</time>
      </trkpt>
      <trkpt lat="44.82416" lon="3.44694">
        <ele>1234</ele>
        <time>2018-04-30T06:46:41Z</time>
      </trkpt>
      <trkpt lat="44.82401" lon="3.44655">
        <ele>1232</ele>
        <time>2018-04-30T06:47:06Z</time>
      </trkpt>
      <trkpt lat="44.82393" lon="3.44638">
        <ele>1231</ele>
        <time>2018-04-30T06:47:16Z</time>
      </trkpt>
      <trkpt lat="44.82392" lon="3.44631">
        <ele>1231</ele>
        <time>2018-04-30T06:47:20Z</time>
      </trkpt>
      <trkpt lat="44.82386" lon="3.44618">
        <ele>1231</ele>
        <time>2018-04-30T06:47:28Z</time>
      </trkpt>
      <trkpt lat="44.82373" lon="3.44603">
        <ele>1230</ele>
        <time>2018-04-30T06:47:44Z</time>
      </trkpt>
      <trkpt lat="44.82369" lon="3.44599">
        <ele>1231</ele>
        <time>2018-04-30T06:47:48Z</time>
      </trkpt>
      <trkpt lat="44.82336" lon="3.44578">
        <ele>1232</ele>
        <time>2018-04-30T06:48:18Z</time>
      </trkpt>
      <trkpt lat="44.82326" lon="3.44577">
        <ele>1232</ele>
        <time>2018-04-30T06:48:26Z</time>
      </trkpt>
      <trkpt lat="44.82322" lon="3.44574">
        <ele>1233</ele>
        <time>2018-04-30T06:48:30Z</time>
      </trkpt>
      <trkpt lat="44.82317" lon="3.44572">
        <ele>1233</ele>
        <time>2018-04-30T06:48:35Z</time>
      </trkpt>
      <trkpt lat="44.82303" lon="3.44559">
        <ele>1235</ele>
        <time>2018-04-30T06:48:51Z</time>
      </trkpt>
      <trkpt lat="44.82273" lon="3.44536">
        <ele>1238</ele>
        <time>2018-04-30T06:49:28Z</time>
      </trkpt>
      <trkpt lat="44.82251" lon="3.44523">
        <ele>1238</ele>
        <time>2018-04-30T06:50:11Z</time>
      </trkpt>
      <trkpt lat="44.82239" lon="3.4451">
        <ele>1238</ele>
        <time>2018-04-30T06:50:30Z</time>
      </trkpt>
      <trkpt lat="44.82222" lon="3.44495">
        <ele>1237</ele>
        <time>2018-04-30T06:50:46Z</time>
      </trkpt>
      <trkpt lat="44.82216" lon="3.44484">
        <ele>1237</ele>
        <time>2018-04-30T06:50:56Z</time>
      </trkpt>
      <trkpt lat="44.822" lon="3.44467">
        <ele>1237</ele>
        <time>2018-04-30T06:51:12Z</time>
      </trkpt>
      <trkpt lat="44.82186" lon="3.44446">
        <ele>1236</ele>
        <time>2018-04-30T06:51:29Z</time>
      </trkpt>
      <trkpt lat="44.82183" lon="3.4444">
        <ele>1236</ele>
        <time>2018-04-30T06:51:34Z</time>
      </trkpt>
      <trkpt lat="44.8217" lon="3.4442">
        <ele>1235</ele>
        <time>2018-04-30T06:51:50Z</time>
      </trkpt>
      <trkpt lat="44.82152" lon="3.44376">
        <ele>1234</ele>
        <time>2018-04-30T06:52:18Z</time>
      </trkpt>
      <trkpt lat="44.82142" lon="3.4436">
        <ele>1233</ele>
        <time>2018-04-30T06:52:30Z</time>
      </trkpt>
      <trkpt lat="44.82125" lon="3.4434">
        <ele>1232</ele>
        <time>2018-04-30T06:52:46Z</time>
      </trkpt>
      <trkpt lat="44.8212" lon="3.44336">
        <ele>1231</ele>
        <time>2018-04-30T06:52:50Z</time>
      </trkpt>
      <trkpt lat="44.82113" lon="3.44325">
        <ele>1231</ele>
        <time>2018-04-30T06:52:58Z</time>
      </trkpt>
      <trkpt lat="44.82085" lon="3.44294">
        <ele>1230</ele>
        <time>2018-04-30T06:53:26Z</time>
      </trkpt>
      <trkpt lat="44.8208" lon="3.4429">
        <ele>1230</ele>
        <time>2018-04-30T06:53:30Z</time>
      </trkpt>
      <trkpt lat="44.82072" lon="3.4428">
        <ele>1230</ele>
        <time>2018-04-30T06:53:38Z</time>
      </trkpt>
      <trkpt lat="44.82071" lon="3.44272">
        <ele>1230</ele>
        <time>2018-04-30T06:53:42Z</time>
      </trkpt>
      <trkpt lat="44.82068" lon="3.44265">
        <ele>1229</ele>
        <time>2018-04-30T06:53:46Z</time>
      </trkpt>
      <trkpt lat="44.82058" lon="3.44257">
        <ele>1228</ele>
        <time>2018-04-30T06:54:10Z</time>
      </trkpt>
      <trkpt lat="44.8205" lon="3.44236">
        <ele>1226</ele>
        <time>2018-04-30T06:54:22Z</time>
      </trkpt>
      <trkpt lat="44.82047" lon="3.44217">
        <ele>1224</ele>
        <time>2018-04-30T06:54:41Z</time>
      </trkpt>
      <trkpt lat="44.82025" lon="3.44183">
        <ele>1222</ele>
        <time>2018-04-30T06:55:05Z</time>
      </trkpt>
      <trkpt lat="44.8201" lon="3.4414">
        <ele>1222</ele>
        <time>2018-04-30T06:55:30Z</time>
      </trkpt>
      <trkpt lat="44.82007" lon="3.44116">
        <ele>1220</ele>
        <time>2018-04-30T06:55:42Z</time>
      </trkpt>
      <trkpt lat="44.82007" lon="3.44109">
        <ele>1220</ele>
        <time>2018-04-30T06:55:45Z</time>
      </trkpt>
      <trkpt lat="44.82004" lon="3.441">
        <ele>1220</ele>
        <time>2018-04-30T06:55:50Z</time>
      </trkpt>
      <trkpt lat="44.82" lon="3.44094">
        <ele>1220</ele>
        <time>2018-04-30T06:55:54Z</time>
      </trkpt>
      <trkpt lat="44.8198" lon="3.44015">
        <ele>1213</ele>
        <time>2018-04-30T06:56:38Z</time>
      </trkpt>
      <trkpt lat="44.81972" lon="3.43996">
        <ele>1211</ele>
        <time>2018-04-30T06:56:50Z</time>
      </trkpt>
      <trkpt lat="44.81969" lon="3.43991">
        <ele>1211</ele>
        <time>2018-04-30T06:56:55Z</time>
      </trkpt>
      <trkpt lat="44.81965" lon="3.43987">
        <ele>1211</ele>
        <time>2018-04-30T06:56:59Z</time>
      </trkpt>
      <trkpt lat="44.81959" lon="3.43975">
        <ele>1209</ele>
        <time>2018-04-30T06:57:07Z</time>
      </trkpt>
      <trkpt lat="44.81935" lon="3.43945">
        <ele>1205</ele>
        <time>2018-04-30T06:57:30Z</time>
      </trkpt>
      <trkpt lat="44.8193" lon="3.43942">
        <ele>1205</ele>
        <time>2018-04-30T06:57:34Z</time>
      </trkpt>
      <trkpt lat="44.81925" lon="3.4394">
        <ele>1205</ele>
        <time>2018-04-30T06:57:38Z</time>
      </trkpt>
      <trkpt lat="44.81924" lon="3.43932">
        <ele>1204</ele>
        <time>2018-04-30T06:57:51Z</time>
      </trkpt>
      <trkpt lat="44.81913" lon="3.43916">
        <ele>1203</ele>
        <time>2018-04-30T06:58:05Z</time>
      </trkpt>
      <trkpt lat="44.81879" lon="3.43813">
        <ele>1198</ele>
        <time>2018-04-30T06:59:07Z</time>
      </trkpt>
      <trkpt lat="44.81862" lon="3.4372">
        <ele>1193</ele>
        <time>2018-04-30T07:00:00Z</time>
      </trkpt>
      <trkpt lat="44.81857" lon="3.43623">
        <ele>1190</ele>
        <time>2018-04-30T07:00:52Z</time>
      </trkpt>
      <trkpt lat="44.81853" lon="3.43595">
        <ele>1190</ele>
        <time>2018-04-30T07:01:10Z</time>
      </trkpt>
      <trkpt lat="44.81856" lon="3.43589">
        <ele>1189</ele>
        <time>2018-04-30T07:01:20Z</time>
      </trkpt>
      <trkpt lat="44.8185" lon="3.43585">
        <ele>1189</ele>
        <time>2018-04-30T07:03:42Z</time>
      </trkpt>
      <trkpt lat="44.81834" lon="3.43496">
        <ele>1185</ele>
        <time>2018-04-30T07:04:44Z</time>
      </trkpt>
      <trkpt lat="44.81833" lon="3.43481">
        <ele>1185</ele>
        <time>2018-04-30T07:04:53Z</time>
      </trkpt>
      <trkpt lat="44.81822" lon="3.43428">
        <ele>1182</ele>
        <time>2018-04-30T07:05:25Z</time>
      </trkpt>
      <trkpt lat="44.81803" lon="3.43379">
        <ele>1178</ele>
        <time>2018-04-30T07:05:57Z</time>
      </trkpt>
      <trkpt lat="44.8176" lon="3.43191">
        <ele>1167</ele>
        <time>2018-04-30T07:07:49Z</time>
      </trkpt>
      <trkpt lat="44.81749" lon="3.43161">
        <ele>1165</ele>
        <time>2018-04-30T07:08:10Z</time>
      </trkpt>
      <trkpt lat="44.81753" lon="3.43019">
        <ele>1156</ele>
        <time>2018-04-30T07:09:38Z</time>
      </trkpt>
      <trkpt lat="44.8175" lon="3.42998">
        <ele>1156</ele>
        <time>2018-04-30T07:09:50Z</time>
      </trkpt>
      <trkpt lat="44.8174" lon="3.42964">
        <ele>1155</ele>
        <time>2018-04-30T07:10:14Z</time>
      </trkpt>
      <trkpt lat="44.81738" lon="3.42945">
        <ele>1157</ele>
        <time>2018-04-30T07:10:42Z</time>
      </trkpt>
      <trkpt lat="44.81734" lon="3.42932">
        <ele>1157</ele>
        <time>2018-04-30T07:10:51Z</time>
      </trkpt>
      <trkpt lat="44.81733" lon="3.42919">
        <ele>1157</ele>
        <time>2018-04-30T07:11:01Z</time>
      </trkpt>
      <trkpt lat="44.81723" lon="3.42902">
        <ele>1157</ele>
        <time>2018-04-30T07:11:14Z</time>
      </trkpt>
      <trkpt lat="44.81718" lon="3.42897">
        <ele>1157</ele>
        <time>2018-04-30T07:11:21Z</time>
      </trkpt>
      <trkpt lat="44.81716" lon="3.42887">
        <ele>1157</ele>
        <time>2018-04-30T07:11:28Z</time>
      </trkpt>
      <trkpt lat="44.81679" lon="3.42836">
        <ele>1158</ele>
        <time>2018-04-30T07:12:13Z</time>
      </trkpt>
      <trkpt lat="44.81657" lon="3.42814">
        <ele>1159</ele>
        <time>2018-04-30T07:12:33Z</time>
      </trkpt>
      <trkpt lat="44.81646" lon="3.42799">
        <ele>1159</ele>
        <time>2018-04-30T07:12:47Z</time>
      </trkpt>
      <trkpt lat="44.81641" lon="3.42796">
        <ele>1159</ele>
        <time>2018-04-30T07:12:52Z</time>
      </trkpt>
      <trkpt lat="44.81636" lon="3.42793">
        <ele>1160</ele>
        <time>2018-04-30T07:12:57Z</time>
      </trkpt>
      <trkpt lat="44.81622" lon="3.42769">
        <ele>1160</ele>
        <time>2018-04-30T07:13:55Z</time>
      </trkpt>
      <trkpt lat="44.81596" lon="3.42711">
        <ele>1164</ele>
        <time>2018-04-30T07:14:36Z</time>
      </trkpt>
      <trkpt lat="44.81582" lon="3.42689">
        <ele>1167</ele>
        <time>2018-04-30T07:14:53Z</time>
      </trkpt>
      <trkpt lat="44.81566" lon="3.42633">
        <ele>1172</ele>
        <time>2018-04-30T07:15:29Z</time>
      </trkpt>
      <trkpt lat="44.8156" lon="3.42623">
        <ele>1174</ele>
        <time>2018-04-30T07:15:39Z</time>
      </trkpt>
      <trkpt lat="44.81551" lon="3.42619">
        <ele>1176</ele>
        <time>2018-04-30T07:15:48Z</time>
      </trkpt>
      <trkpt lat="44.8154" lon="3.42581">
        <ele>1180</ele>
        <time>2018-04-30T07:16:17Z</time>
      </trkpt>
      <trkpt lat="44.8153" lon="3.42559">
        <ele>1181</ele>
        <time>2018-04-30T07:16:33Z</time>
      </trkpt>
      <trkpt lat="44.81522" lon="3.42553">
        <ele>1182</ele>
        <time>2018-04-30T07:16:41Z</time>
      </trkpt>
      <trkpt lat="44.81516" lon="3.42525">
        <ele>1183</ele>
        <time>2018-04-30T07:16:58Z</time>
      </trkpt>
      <trkpt lat="44.8151" lon="3.42515">
        <ele>1184</ele>
        <time>2018-04-30T07:17:07Z</time>
      </trkpt>
      <trkpt lat="44.81503" lon="3.42506">
        <ele>1183</ele>
        <time>2018-04-30T07:17:14Z</time>
      </trkpt>
      <trkpt lat="44.81485" lon="3.42458">
        <ele>1184</ele>
        <time>2018-04-30T07:17:46Z</time>
      </trkpt>
      <trkpt lat="44.81478" lon="3.42448">
        <ele>1184</ele>
        <time>2018-04-30T07:17:54Z</time>
      </trkpt>
      <trkpt lat="44.81469" lon="3.42424">
        <ele>1184</ele>
        <time>2018-04-30T07:18:09Z</time>
      </trkpt>
      <trkpt lat="44.81462" lon="3.42414">
        <ele>1184</ele>
        <time>2018-04-30T07:18:17Z</time>
      </trkpt>
      <trkpt lat="44.81444" lon="3.42373">
        <ele>1185</ele>
        <time>2018-04-30T07:18:45Z</time>
      </trkpt>
      <trkpt lat="44.81441" lon="3.42363">
        <ele>1184</ele>
        <time>2018-04-30T07:19:05Z</time>
      </trkpt>
      <trkpt lat="44.81438" lon="3.42357">
        <ele>1185</ele>
        <time>2018-04-30T07:19:09Z</time>
      </trkpt>
      <trkpt lat="44.81388" lon="3.42289">
        <ele>1185</ele>
        <time>2018-04-30T07:20:06Z</time>
      </trkpt>
      <trkpt lat="44.81384" lon="3.42286">
        <ele>1185</ele>
        <time>2018-04-30T07:20:10Z</time>
      </trkpt>
      <trkpt lat="44.81357" lon="3.4224">
        <ele>1185</ele>
        <time>2018-04-30T07:20:43Z</time>
      </trkpt>
      <trkpt lat="44.81349" lon="3.42232">
        <ele>1186</ele>
        <time>2018-04-30T07:20:52Z</time>
      </trkpt>
      <trkpt lat="44.81331" lon="3.4222">
        <ele>1186</ele>
        <time>2018-04-30T07:21:08Z</time>
      </trkpt>
      <trkpt lat="44.81327" lon="3.42216">
        <ele>1187</ele>
        <time>2018-04-30T07:21:12Z</time>
      </trkpt>
      <trkpt lat="44.81322" lon="3.42217">
        <ele>1187</ele>
        <time>2018-04-30T07:21:16Z</time>
      </trkpt>
      <trkpt lat="44.81317" lon="3.42215">
        <ele>1187</ele>
        <time>2018-04-30T07:21:20Z</time>
      </trkpt>
      <trkpt lat="44.81313" lon="3.42209">
        <ele>1187</ele>
        <time>2018-04-30T07:21:24Z</time>
      </trkpt>
      <trkpt lat="44.81308" lon="3.42207">
        <ele>1187</ele>
        <time>2018-04-30T07:21:28Z</time>
      </trkpt>
      <trkpt lat="44.81295" lon="3.42195">
        <ele>1188</ele>
        <time>2018-04-30T07:21:41Z</time>
      </trkpt>
      <trkpt lat="44.8129" lon="3.42192">
        <ele>1188</ele>
        <time>2018-04-30T07:21:45Z</time>
      </trkpt>
      <trkpt lat="44.81282" lon="3.42184">
        <ele>1188</ele>
        <time>2018-04-30T07:21:53Z</time>
      </trkpt>
      <trkpt lat="44.81271" lon="3.42182">
        <ele>1188</ele>
        <time>2018-04-30T07:22:01Z</time>
      </trkpt>
      <trkpt lat="44.81266" lon="3.42182">
        <ele>1188</ele>
        <time>2018-04-30T07:22:06Z</time>
      </trkpt>
      <trkpt lat="44.81257" lon="3.42172">
        <ele>1189</ele>
        <time>2018-04-30T07:22:16Z</time>
      </trkpt>
      <trkpt lat="44.81251" lon="3.42171">
        <ele>1189</ele>
        <time>2018-04-30T07:22:21Z</time>
      </trkpt>
      <trkpt lat="44.81238" lon="3.4217">
        <ele>1190</ele>
        <time>2018-04-30T07:22:28Z</time>
      </trkpt>
      <trkpt lat="44.81233" lon="3.42169">
        <ele>1190</ele>
        <time>2018-04-30T07:22:33Z</time>
      </trkpt>
      <trkpt lat="44.81226" lon="3.42163">
        <ele>1190</ele>
        <time>2018-04-30T07:22:40Z</time>
      </trkpt>
      <trkpt lat="44.81216" lon="3.42161">
        <ele>1191</ele>
        <time>2018-04-30T07:22:49Z</time>
      </trkpt>
      <trkpt lat="44.81193" lon="3.42136">
        <ele>1192</ele>
        <time>2018-04-30T07:23:11Z</time>
      </trkpt>
      <trkpt lat="44.81181" lon="3.42129">
        <ele>1192</ele>
        <time>2018-04-30T07:23:22Z</time>
      </trkpt>
      <trkpt lat="44.81181" lon="3.42114">
        <ele>1193</ele>
        <time>2018-04-30T07:23:37Z</time>
      </trkpt>
      <trkpt lat="44.81175" lon="3.42101">
        <ele>1193</ele>
        <time>2018-04-30T07:23:42Z</time>
      </trkpt>
      <trkpt lat="44.81175" lon="3.42082">
        <ele>1194</ele>
        <time>2018-04-30T07:23:48Z</time>
      </trkpt>
      <trkpt lat="44.81166" lon="3.42076">
        <ele>1194</ele>
        <time>2018-04-30T07:23:57Z</time>
      </trkpt>
      <trkpt lat="44.8109" lon="3.41912">
        <ele>1198</ele>
        <time>2018-04-30T07:25:53Z</time>
      </trkpt>
      <trkpt lat="44.81077" lon="3.41894">
        <ele>1198</ele>
        <time>2018-04-30T07:26:08Z</time>
      </trkpt>
      <trkpt lat="44.81069" lon="3.41887">
        <ele>1198</ele>
        <time>2018-04-30T07:26:16Z</time>
      </trkpt>
      <trkpt lat="44.81065" lon="3.41875">
        <ele>1198</ele>
        <time>2018-04-30T07:26:24Z</time>
      </trkpt>
      <trkpt lat="44.81026" lon="3.41837">
        <ele>1198</ele>
        <time>2018-04-30T07:27:01Z</time>
      </trkpt>
      <trkpt lat="44.81021" lon="3.41826">
        <ele>1198</ele>
        <time>2018-04-30T07:27:08Z</time>
      </trkpt>
      <trkpt lat="44.81014" lon="3.41816">
        <ele>1197</ele>
        <time>2018-04-30T07:27:16Z</time>
      </trkpt>
      <trkpt lat="44.80996" lon="3.41803">
        <ele>1196</ele>
        <time>2018-04-30T07:27:32Z</time>
      </trkpt>
      <trkpt lat="44.8098" lon="3.41781">
        <ele>1195</ele>
        <time>2018-04-30T07:27:49Z</time>
      </trkpt>
      <trkpt lat="44.80957" lon="3.41763">
        <ele>1194</ele>
        <time>2018-04-30T07:28:09Z</time>
      </trkpt>
      <trkpt lat="44.80954" lon="3.41757">
        <ele>1194</ele>
        <time>2018-04-30T07:28:13Z</time>
      </trkpt>
      <trkpt lat="44.8095" lon="3.41751">
        <ele>1194</ele>
        <time>2018-04-30T07:28:17Z</time>
      </trkpt>
      <trkpt lat="44.80938" lon="3.41738">
        <ele>1192</ele>
        <time>2018-04-30T07:28:30Z</time>
      </trkpt>
      <trkpt lat="44.80935" lon="3.41733">
        <ele>1192</ele>
        <time>2018-04-30T07:28:34Z</time>
      </trkpt>
      <trkpt lat="44.80932" lon="3.41726">
        <ele>1192</ele>
        <time>2018-04-30T07:28:38Z</time>
      </trkpt>
      <trkpt lat="44.80932" lon="3.41718">
        <ele>1192</ele>
        <time>2018-04-30T07:28:43Z</time>
      </trkpt>
      <trkpt lat="44.80934" lon="3.41719">
        <ele>1193</ele>
        <time>2018-04-30T07:30:07Z</time>
      </trkpt>
      <trkpt lat="44.8093" lon="3.41725">
        <ele>1192</ele>
        <time>2018-04-30T07:30:31Z</time>
      </trkpt>
      <trkpt lat="44.80928" lon="3.41716">
        <ele>1191</ele>
        <time>2018-04-30T07:31:25Z</time>
      </trkpt>
      <trkpt lat="44.80912" lon="3.41703">
        <ele>1190</ele>
        <time>2018-04-30T07:32:05Z</time>
      </trkpt>
      <trkpt lat="44.80886" lon="3.41649">
        <ele>1185</ele>
        <time>2018-04-30T07:32:40Z</time>
      </trkpt>
      <trkpt lat="44.80879" lon="3.41641">
        <ele>1185</ele>
        <time>2018-04-30T07:32:47Z</time>
      </trkpt>
      <trkpt lat="44.80872" lon="3.4163">
        <ele>1184</ele>
        <time>2018-04-30T07:32:55Z</time>
      </trkpt>
      <trkpt lat="44.80864" lon="3.41623">
        <ele>1184</ele>
        <time>2018-04-30T07:33:03Z</time>
      </trkpt>
      <trkpt lat="44.80857" lon="3.41611">
        <ele>1183</ele>
        <time>2018-04-30T07:33:11Z</time>
      </trkpt>
      <trkpt lat="44.80848" lon="3.41604">
        <ele>1182</ele>
        <time>2018-04-30T07:33:19Z</time>
      </trkpt>
      <trkpt lat="44.80834" lon="3.41594">
        <ele>1181</ele>
        <time>2018-04-30T07:33:31Z</time>
      </trkpt>
      <trkpt lat="44.80825" lon="3.41584">
        <ele>1181</ele>
        <time>2018-04-30T07:33:39Z</time>
      </trkpt>
      <trkpt lat="44.80814" lon="3.41579">
        <ele>1180</ele>
        <time>2018-04-30T07:33:48Z</time>
      </trkpt>
      <trkpt lat="44.808" lon="3.41571">
        <ele>1179</ele>
        <time>2018-04-30T07:34:00Z</time>
      </trkpt>
      <trkpt lat="44.80797" lon="3.41566">
        <ele>1179</ele>
        <time>2018-04-30T07:34:04Z</time>
      </trkpt>
      <trkpt lat="44.80793" lon="3.41562">
        <ele>1179</ele>
        <time>2018-04-30T07:34:08Z</time>
      </trkpt>
      <trkpt lat="44.80753" lon="3.41539">
        <ele>1177</ele>
        <time>2018-04-30T07:34:41Z</time>
      </trkpt>
      <trkpt lat="44.80736" lon="3.41523">
        <ele>1176</ele>
        <time>2018-04-30T07:34:57Z</time>
      </trkpt>
      <trkpt lat="44.80717" lon="3.41511">
        <ele>1176</ele>
        <time>2018-04-30T07:35:11Z</time>
      </trkpt>
      <trkpt lat="44.80711" lon="3.4151">
        <ele>1175</ele>
        <time>2018-04-30T07:35:15Z</time>
      </trkpt>
      <trkpt lat="44.80706" lon="3.41508">
        <ele>1175</ele>
        <time>2018-04-30T07:35:19Z</time>
      </trkpt>
      <trkpt lat="44.80696" lon="3.41501">
        <ele>1175</ele>
        <time>2018-04-30T07:35:27Z</time>
      </trkpt>
      <trkpt lat="44.80558" lon="3.41386">
        <ele>1169</ele>
        <time>2018-04-30T07:37:33Z</time>
      </trkpt>
      <trkpt lat="44.80538" lon="3.41383">
        <ele>1167</ele>
        <time>2018-04-30T07:37:52Z</time>
      </trkpt>
      <trkpt lat="44.80521" lon="3.41368">
        <ele>1166</ele>
        <time>2018-04-30T07:38:10Z</time>
      </trkpt>
      <trkpt lat="44.80487" lon="3.41318">
        <ele>1165</ele>
        <time>2018-04-30T07:38:45Z</time>
      </trkpt>
      <trkpt lat="44.80426" lon="3.41248">
        <ele>1161</ele>
        <time>2018-04-30T07:39:48Z</time>
      </trkpt>
      <trkpt lat="44.80422" lon="3.41235">
        <ele>1160</ele>
        <time>2018-04-30T07:39:56Z</time>
      </trkpt>
      <trkpt lat="44.80423" lon="3.41215">
        <ele>1159</ele>
        <time>2018-04-30T07:40:08Z</time>
      </trkpt>
      <trkpt lat="44.80429" lon="3.41192">
        <ele>1159</ele>
        <time>2018-04-30T07:40:25Z</time>
      </trkpt>
      <trkpt lat="44.8043" lon="3.41176">
        <ele>1157</ele>
        <time>2018-04-30T07:40:34Z</time>
      </trkpt>
      <trkpt lat="44.80432" lon="3.41169">
        <ele>1156</ele>
        <time>2018-04-30T07:40:38Z</time>
      </trkpt>
      <trkpt lat="44.80435" lon="3.41129">
        <ele>1154</ele>
        <time>2018-04-30T07:41:01Z</time>
      </trkpt>
      <trkpt lat="44.80438" lon="3.41122">
        <ele>1153</ele>
        <time>2018-04-30T07:41:05Z</time>
      </trkpt>
      <trkpt lat="44.80442" lon="3.41117">
        <ele>1153</ele>
        <time>2018-04-30T07:41:09Z</time>
      </trkpt>
      <trkpt lat="44.80444" lon="3.4111">
        <ele>1153</ele>
        <time>2018-04-30T07:41:13Z</time>
      </trkpt>
      <trkpt lat="44.80444" lon="3.41104">
        <ele>1152</ele>
        <time>2018-04-30T07:41:16Z</time>
      </trkpt>
      <trkpt lat="44.80446" lon="3.41098">
        <ele>1152</ele>
        <time>2018-04-30T07:41:21Z</time>
      </trkpt>
      <trkpt lat="44.80468" lon="3.41064">
        <ele>1149</ele>
        <time>2018-04-30T07:41:48Z</time>
      </trkpt>
      <trkpt lat="44.80469" lon="3.41059">
        <ele>1149</ele>
        <time>2018-04-30T07:41:53Z</time>
      </trkpt>
      <trkpt lat="44.80476" lon="3.41052">
        <ele>1148</ele>
        <time>2018-04-30T07:42:02Z</time>
      </trkpt>
      <trkpt lat="44.80494" lon="3.41026">
        <ele>1145</ele>
        <time>2018-04-30T07:42:23Z</time>
      </trkpt>
      <trkpt lat="44.80497" lon="3.4102">
        <ele>1145</ele>
        <time>2018-04-30T07:42:27Z</time>
      </trkpt>
      <trkpt lat="44.80503" lon="3.41011">
        <ele>1145</ele>
        <time>2018-04-30T07:42:35Z</time>
      </trkpt>
      <trkpt lat="44.80518" lon="3.40986">
        <ele>1143</ele>
        <time>2018-04-30T07:42:55Z</time>
      </trkpt>
      <trkpt lat="44.80527" lon="3.40982">
        <ele>1142</ele>
        <time>2018-04-30T07:43:02Z</time>
      </trkpt>
      <trkpt lat="44.80549" lon="3.40945">
        <ele>1140</ele>
        <time>2018-04-30T07:43:29Z</time>
      </trkpt>
      <trkpt lat="44.80554" lon="3.40919">
        <ele>1138</ele>
        <time>2018-04-30T07:43:46Z</time>
      </trkpt>
      <trkpt lat="44.80552" lon="3.40905">
        <ele>1138</ele>
        <time>2018-04-30T07:43:54Z</time>
      </trkpt>
      <trkpt lat="44.80553" lon="3.40898">
        <ele>1137</ele>
        <time>2018-04-30T07:43:58Z</time>
      </trkpt>
      <trkpt lat="44.80552" lon="3.40891">
        <ele>1137</ele>
        <time>2018-04-30T07:44:02Z</time>
      </trkpt>
      <trkpt lat="44.80548" lon="3.40899">
        <ele>1136</ele>
        <time>2018-04-30T07:44:10Z</time>
      </trkpt>
      <trkpt lat="44.80548" lon="3.40905">
        <ele>1136</ele>
        <time>2018-04-30T07:44:13Z</time>
      </trkpt>
      <trkpt lat="44.80543" lon="3.40921">
        <ele>1134</ele>
        <time>2018-04-30T07:44:24Z</time>
      </trkpt>
      <trkpt lat="44.80538" lon="3.40928">
        <ele>1134</ele>
        <time>2018-04-30T07:44:31Z</time>
      </trkpt>
      <trkpt lat="44.80525" lon="3.40938">
        <ele>1132</ele>
        <time>2018-04-30T07:44:43Z</time>
      </trkpt>
      <trkpt lat="44.80518" lon="3.40946">
        <ele>1131</ele>
        <time>2018-04-30T07:44:52Z</time>
      </trkpt>
      <trkpt lat="44.80507" lon="3.40952">
        <ele>1130</ele>
        <time>2018-04-30T07:45:02Z</time>
      </trkpt>
      <trkpt lat="44.805" lon="3.40961">
        <ele>1130</ele>
        <time>2018-04-30T07:45:07Z</time>
      </trkpt>
      <trkpt lat="44.8049" lon="3.40966">
        <ele>1129</ele>
        <time>2018-04-30T07:45:12Z</time>
      </trkpt>
      <trkpt lat="44.80471" lon="3.40969">
        <ele>1128</ele>
        <time>2018-04-30T07:45:27Z</time>
      </trkpt>
      <trkpt lat="44.80458" lon="3.40981">
        <ele>1127</ele>
        <time>2018-04-30T07:45:43Z</time>
      </trkpt>
      <trkpt lat="44.8043" lon="3.40986">
        <ele>1124</ele>
        <time>2018-04-30T07:46:06Z</time>
      </trkpt>
      <trkpt lat="44.80421" lon="3.40987">
        <ele>1124</ele>
        <time>2018-04-30T07:46:15Z</time>
      </trkpt>
      <trkpt lat="44.80386" lon="3.40996">
        <ele>1121</ele>
        <time>2018-04-30T07:46:50Z</time>
      </trkpt>
      <trkpt lat="44.80366" lon="3.40999">
        <ele>1120</ele>
        <time>2018-04-30T07:47:05Z</time>
      </trkpt>
      <trkpt lat="44.8035" lon="3.41016">
        <ele>1118</ele>
        <time>2018-04-30T07:47:20Z</time>
      </trkpt>
      <trkpt lat="44.80342" lon="3.41022">
        <ele>1117</ele>
        <time>2018-04-30T07:47:28Z</time>
      </trkpt>
      <trkpt lat="44.803" lon="3.41072">
        <ele>1112</ele>
        <time>2018-04-30T07:48:29Z</time>
      </trkpt>
      <trkpt lat="44.80294" lon="3.41081">
        <ele>1111</ele>
        <time>2018-04-30T07:48:36Z</time>
      </trkpt>
      <trkpt lat="44.80286" lon="3.41087">
        <ele>1111</ele>
        <time>2018-04-30T07:48:44Z</time>
      </trkpt>
      <trkpt lat="44.80265" lon="3.41117">
        <ele>1108</ele>
        <time>2018-04-30T07:49:14Z</time>
      </trkpt>
      <trkpt lat="44.8026" lon="3.41119">
        <ele>1107</ele>
        <time>2018-04-30T07:49:19Z</time>
      </trkpt>
      <trkpt lat="44.80255" lon="3.41118">
        <ele>1106</ele>
        <time>2018-04-30T07:49:24Z</time>
      </trkpt>
      <trkpt lat="44.80243" lon="3.41105">
        <ele>1106</ele>
        <time>2018-04-30T07:49:37Z</time>
      </trkpt>
      <trkpt lat="44.80244" lon="3.41097">
        <ele>1105</ele>
        <time>2018-04-30T07:49:42Z</time>
      </trkpt>
      <trkpt lat="44.80261" lon="3.41062">
        <ele>1105</ele>
        <time>2018-04-30T07:50:07Z</time>
      </trkpt>
      <trkpt lat="44.80274" lon="3.41015">
        <ele>1105</ele>
        <time>2018-04-30T07:50:37Z</time>
      </trkpt>
      <trkpt lat="44.8028" lon="3.41003">
        <ele>1105</ele>
        <time>2018-04-30T07:50:46Z</time>
      </trkpt>
      <trkpt lat="44.80282" lon="3.40997">
        <ele>1104</ele>
        <time>2018-04-30T07:50:50Z</time>
      </trkpt>
      <trkpt lat="44.80285" lon="3.40969">
        <ele>1104</ele>
        <time>2018-04-30T07:51:07Z</time>
      </trkpt>
      <trkpt lat="44.80294" lon="3.40948">
        <ele>1102</ele>
        <time>2018-04-30T07:51:24Z</time>
      </trkpt>
      <trkpt lat="44.80301" lon="3.40925">
        <ele>1100</ele>
        <time>2018-04-30T07:51:41Z</time>
      </trkpt>
      <trkpt lat="44.80301" lon="3.40868">
        <ele>1098</ele>
        <time>2018-04-30T07:52:16Z</time>
      </trkpt>
      <trkpt lat="44.80298" lon="3.40861">
        <ele>1098</ele>
        <time>2018-04-30T07:52:23Z</time>
      </trkpt>
      <trkpt lat="44.80278" lon="3.40824">
        <ele>1097</ele>
        <time>2018-04-30T07:52:54Z</time>
      </trkpt>
      <trkpt lat="44.80267" lon="3.40799">
        <ele>1096</ele>
        <time>2018-04-30T07:53:10Z</time>
      </trkpt>
      <trkpt lat="44.80259" lon="3.4079">
        <ele>1096</ele>
        <time>2018-04-30T07:53:19Z</time>
      </trkpt>
      <trkpt lat="44.80256" lon="3.40784">
        <ele>1095</ele>
        <time>2018-04-30T07:53:24Z</time>
      </trkpt>
      <trkpt lat="44.80249" lon="3.40751">
        <ele>1093</ele>
        <time>2018-04-30T07:53:45Z</time>
      </trkpt>
      <trkpt lat="44.80249" lon="3.40742">
        <ele>1093</ele>
        <time>2018-04-30T07:53:52Z</time>
      </trkpt>
      <trkpt lat="44.80247" lon="3.4072">
        <ele>1092</ele>
        <time>2018-04-30T07:54:03Z</time>
      </trkpt>
      <trkpt lat="44.80246" lon="3.40697">
        <ele>1092</ele>
        <time>2018-04-30T07:54:15Z</time>
      </trkpt>
      <trkpt lat="44.80251" lon="3.40669">
        <ele>1091</ele>
        <time>2018-04-30T07:54:31Z</time>
      </trkpt>
      <trkpt lat="44.8025" lon="3.40655">
        <ele>1091</ele>
        <time>2018-04-30T07:54:38Z</time>
      </trkpt>
      <trkpt lat="44.80251" lon="3.40649">
        <ele>1090</ele>
        <time>2018-04-30T07:54:42Z</time>
      </trkpt>
      <trkpt lat="44.80252" lon="3.40618">
        <ele>1089</ele>
        <time>2018-04-30T07:54:58Z</time>
      </trkpt>
      <trkpt lat="44.80263" lon="3.40586">
        <ele>1089</ele>
        <time>2018-04-30T07:55:18Z</time>
      </trkpt>
      <trkpt lat="44.80269" lon="3.40574">
        <ele>1088</ele>
        <time>2018-04-30T07:55:26Z</time>
      </trkpt>
      <trkpt lat="44.8027" lon="3.40567">
        <ele>1088</ele>
        <time>2018-04-30T07:55:31Z</time>
      </trkpt>
      <trkpt lat="44.80272" lon="3.40544">
        <ele>1086</ele>
        <time>2018-04-30T07:55:51Z</time>
      </trkpt>
      <trkpt lat="44.80272" lon="3.40537">
        <ele>1086</ele>
        <time>2018-04-30T07:55:55Z</time>
      </trkpt>
      <trkpt lat="44.80277" lon="3.40511">
        <ele>1081</ele>
        <time>2018-04-30T07:57:18Z</time>
      </trkpt>
      <trkpt lat="44.80281" lon="3.40499">
        <ele>1079</ele>
        <time>2018-04-30T07:57:26Z</time>
      </trkpt>
      <trkpt lat="44.80281" lon="3.40491">
        <ele>1078</ele>
        <time>2018-04-30T07:57:30Z</time>
      </trkpt>
      <trkpt lat="44.80287" lon="3.40453">
        <ele>1075</ele>
        <time>2018-04-30T07:57:49Z</time>
      </trkpt>
      <trkpt lat="44.80301" lon="3.40408">
        <ele>1070</ele>
        <time>2018-04-30T07:58:17Z</time>
      </trkpt>
      <trkpt lat="44.80299" lon="3.404">
        <ele>1070</ele>
        <time>2018-04-30T07:58:21Z</time>
      </trkpt>
      <trkpt lat="44.80298" lon="3.40385">
        <ele>1068</ele>
        <time>2018-04-30T07:58:29Z</time>
      </trkpt>
      <trkpt lat="44.80293" lon="3.40373">
        <ele>1067</ele>
        <time>2018-04-30T07:58:37Z</time>
      </trkpt>
      <trkpt lat="44.80289" lon="3.40345">
        <ele>1065</ele>
        <time>2018-04-30T07:58:54Z</time>
      </trkpt>
      <trkpt lat="44.80281" lon="3.40336">
        <ele>1064</ele>
        <time>2018-04-30T07:59:04Z</time>
      </trkpt>
      <trkpt lat="44.80278" lon="3.4033">
        <ele>1064</ele>
        <time>2018-04-30T07:59:09Z</time>
      </trkpt>
      <trkpt lat="44.80266" lon="3.40316">
        <ele>1062</ele>
        <time>2018-04-30T07:59:21Z</time>
      </trkpt>
      <trkpt lat="44.80249" lon="3.40272">
        <ele>1059</ele>
        <time>2018-04-30T08:00:05Z</time>
      </trkpt>
      <trkpt lat="44.80248" lon="3.40264">
        <ele>1058</ele>
        <time>2018-04-30T08:00:09Z</time>
      </trkpt>
      <trkpt lat="44.80245" lon="3.40258">
        <ele>1057</ele>
        <time>2018-04-30T08:00:13Z</time>
      </trkpt>
      <trkpt lat="44.80244" lon="3.40235">
        <ele>1056</ele>
        <time>2018-04-30T08:00:25Z</time>
      </trkpt>
      <trkpt lat="44.80241" lon="3.40221">
        <ele>1055</ele>
        <time>2018-04-30T08:00:33Z</time>
      </trkpt>
      <trkpt lat="44.80241" lon="3.40191">
        <ele>1053</ele>
        <time>2018-04-30T08:00:49Z</time>
      </trkpt>
      <trkpt lat="44.80239" lon="3.40184">
        <ele>1053</ele>
        <time>2018-04-30T08:00:54Z</time>
      </trkpt>
      <trkpt lat="44.80238" lon="3.40155">
        <ele>1052</ele>
        <time>2018-04-30T08:01:10Z</time>
      </trkpt>
      <trkpt lat="44.80234" lon="3.40135">
        <ele>1051</ele>
        <time>2018-04-30T08:01:22Z</time>
      </trkpt>
      <trkpt lat="44.80227" lon="3.40118">
        <ele>1050</ele>
        <time>2018-04-30T08:01:34Z</time>
      </trkpt>
      <trkpt lat="44.802" lon="3.40082">
        <ele>1047</ele>
        <time>2018-04-30T08:02:06Z</time>
      </trkpt>
      <trkpt lat="44.80192" lon="3.40076">
        <ele>1047</ele>
        <time>2018-04-30T08:02:15Z</time>
      </trkpt>
      <trkpt lat="44.80187" lon="3.40075">
        <ele>1046</ele>
        <time>2018-04-30T08:02:19Z</time>
      </trkpt>
      <trkpt lat="44.80173" lon="3.40063">
        <ele>1046</ele>
        <time>2018-04-30T08:02:31Z</time>
      </trkpt>
      <trkpt lat="44.8016" lon="3.40055">
        <ele>1047</ele>
        <time>2018-04-30T08:02:43Z</time>
      </trkpt>
      <trkpt lat="44.80145" lon="3.40044">
        <ele>1047</ele>
        <time>2018-04-30T08:02:59Z</time>
      </trkpt>
      <trkpt lat="44.80139" lon="3.40044">
        <ele>1047</ele>
        <time>2018-04-30T08:03:03Z</time>
      </trkpt>
      <trkpt lat="44.8013" lon="3.4004">
        <ele>1046</ele>
        <time>2018-04-30T08:03:11Z</time>
      </trkpt>
      <trkpt lat="44.80126" lon="3.40036">
        <ele>1046</ele>
        <time>2018-04-30T08:03:15Z</time>
      </trkpt>
      <trkpt lat="44.80122" lon="3.40031">
        <ele>1046</ele>
        <time>2018-04-30T08:03:19Z</time>
      </trkpt>
      <trkpt lat="44.80103" lon="3.39989">
        <ele>1043</ele>
        <time>2018-04-30T08:03:47Z</time>
      </trkpt>
      <trkpt lat="44.801" lon="3.39984">
        <ele>1043</ele>
        <time>2018-04-30T08:03:51Z</time>
      </trkpt>
      <trkpt lat="44.80095" lon="3.39981">
        <ele>1042</ele>
        <time>2018-04-30T08:03:55Z</time>
      </trkpt>
      <trkpt lat="44.80089" lon="3.39981">
        <ele>1042</ele>
        <time>2018-04-30T08:03:59Z</time>
      </trkpt>
      <trkpt lat="44.80086" lon="3.39985">
        <ele>1042</ele>
        <time>2018-04-30T08:04:02Z</time>
      </trkpt>
      <trkpt lat="44.80082" lon="3.39991">
        <ele>1041</ele>
        <time>2018-04-30T08:04:06Z</time>
      </trkpt>
      <trkpt lat="44.80079" lon="3.40006">
        <ele>1039</ele>
        <time>2018-04-30T08:04:14Z</time>
      </trkpt>
      <trkpt lat="44.80077" lon="3.4002">
        <ele>1038</ele>
        <time>2018-04-30T08:04:22Z</time>
      </trkpt>
      <trkpt lat="44.80075" lon="3.40026">
        <ele>1037</ele>
        <time>2018-04-30T08:04:26Z</time>
      </trkpt>
      <trkpt lat="44.8007" lon="3.40028">
        <ele>1037</ele>
        <time>2018-04-30T08:04:30Z</time>
      </trkpt>
      <trkpt lat="44.8003" lon="3.4001">
        <ele>1036</ele>
        <time>2018-04-30T08:05:02Z</time>
      </trkpt>
      <trkpt lat="44.80015" lon="3.40005">
        <ele>1035</ele>
        <time>2018-04-30T08:05:14Z</time>
      </trkpt>
      <trkpt lat="44.79996" lon="3.39997">
        <ele>1034</ele>
        <time>2018-04-30T08:05:30Z</time>
      </trkpt>
      <trkpt lat="44.79957" lon="3.39989">
        <ele>1032</ele>
        <time>2018-04-30T08:06:04Z</time>
      </trkpt>
      <trkpt lat="44.79952" lon="3.3999">
        <ele>1032</ele>
        <time>2018-04-30T08:06:08Z</time>
      </trkpt>
      <trkpt lat="44.79941" lon="3.39987">
        <ele>1030</ele>
        <time>2018-04-30T08:06:35Z</time>
      </trkpt>
      <trkpt lat="44.79937" lon="3.39983">
        <ele>1030</ele>
        <time>2018-04-30T08:06:53Z</time>
      </trkpt>
      <trkpt lat="44.79887" lon="3.39963">
        <ele>1028</ele>
        <time>2018-04-30T08:07:38Z</time>
      </trkpt>
      <trkpt lat="44.79882" lon="3.39962">
        <ele>1028</ele>
        <time>2018-04-30T08:07:42Z</time>
      </trkpt>
      <trkpt lat="44.79877" lon="3.3996">
        <ele>1027</ele>
        <time>2018-04-30T08:07:47Z</time>
      </trkpt>
      <trkpt lat="44.79831" lon="3.39944">
        <ele>1024</ele>
        <time>2018-04-30T08:09:10Z</time>
      </trkpt>
      <trkpt lat="44.79824" lon="3.39941">
        <ele>1025</ele>
        <time>2018-04-30T08:10:28Z</time>
      </trkpt>
      <trkpt lat="44.79794" lon="3.39916">
        <ele>1024</ele>
        <time>2018-04-30T08:10:56Z</time>
      </trkpt>
      <trkpt lat="44.7978" lon="3.39908">
        <ele>1022</ele>
        <time>2018-04-30T08:11:08Z</time>
      </trkpt>
      <trkpt lat="44.7977" lon="3.39905">
        <ele>1022</ele>
        <time>2018-04-30T08:11:16Z</time>
      </trkpt>
      <trkpt lat="44.79734" lon="3.39882">
        <ele>1022</ele>
        <time>2018-04-30T08:12:43Z</time>
      </trkpt>
      <trkpt lat="44.79726" lon="3.39873">
        <ele>1021</ele>
        <time>2018-04-30T08:12:51Z</time>
      </trkpt>
      <trkpt lat="44.7969" lon="3.39854">
        <ele>1021</ele>
        <time>2018-04-30T08:13:23Z</time>
      </trkpt>
      <trkpt lat="44.7967" lon="3.39847">
        <ele>1020</ele>
        <time>2018-04-30T08:13:40Z</time>
      </trkpt>
      <trkpt lat="44.79664" lon="3.39845">
        <ele>1021</ele>
        <time>2018-04-30T08:13:44Z</time>
      </trkpt>
      <trkpt lat="44.79627" lon="3.3982">
        <ele>1020</ele>
        <time>2018-04-30T08:14:18Z</time>
      </trkpt>
      <trkpt lat="44.79596" lon="3.39786">
        <ele>1019</ele>
        <time>2018-04-30T08:15:05Z</time>
      </trkpt>
      <trkpt lat="44.79488" lon="3.39633">
        <ele>1017</ele>
        <time>2018-04-30T08:17:05Z</time>
      </trkpt>
      <trkpt lat="44.79469" lon="3.39612">
        <ele>1016</ele>
        <time>2018-04-30T08:17:26Z</time>
      </trkpt>
      <trkpt lat="44.79451" lon="3.39586">
        <ele>1012</ele>
        <time>2018-04-30T08:17:49Z</time>
      </trkpt>
      <trkpt lat="44.79446" lon="3.39583">
        <ele>1012</ele>
        <time>2018-04-30T08:17:54Z</time>
      </trkpt>
      <trkpt lat="44.79441" lon="3.39571">
        <ele>1010</ele>
        <time>2018-04-30T08:18:04Z</time>
      </trkpt>
      <trkpt lat="44.79439" lon="3.39564">
        <ele>1009</ele>
        <time>2018-04-30T08:18:08Z</time>
      </trkpt>
      <trkpt lat="44.79437" lon="3.39542">
        <ele>1008</ele>
        <time>2018-04-30T08:18:22Z</time>
      </trkpt>
      <trkpt lat="44.79422" lon="3.39505">
        <ele>1006</ele>
        <time>2018-04-30T08:18:47Z</time>
      </trkpt>
      <trkpt lat="44.79418" lon="3.39501">
        <ele>1006</ele>
        <time>2018-04-30T08:18:52Z</time>
      </trkpt>
      <trkpt lat="44.79387" lon="3.39481">
        <ele>1007</ele>
        <time>2018-04-30T08:19:30Z</time>
      </trkpt>
      <trkpt lat="44.79382" lon="3.3948">
        <ele>1007</ele>
        <time>2018-04-30T08:19:35Z</time>
      </trkpt>
      <trkpt lat="44.79365" lon="3.39464">
        <ele>1008</ele>
        <time>2018-04-30T08:19:55Z</time>
      </trkpt>
      <trkpt lat="44.79362" lon="3.39459">
        <ele>1008</ele>
        <time>2018-04-30T08:19:59Z</time>
      </trkpt>
      <trkpt lat="44.79357" lon="3.39456">
        <ele>1009</ele>
        <time>2018-04-30T08:20:04Z</time>
      </trkpt>
      <trkpt lat="44.79353" lon="3.39452">
        <ele>1009</ele>
        <time>2018-04-30T08:20:09Z</time>
      </trkpt>
      <trkpt lat="44.79336" lon="3.39438">
        <ele>1012</ele>
        <time>2018-04-30T08:20:40Z</time>
      </trkpt>
      <trkpt lat="44.7933" lon="3.39434">
        <ele>1014</ele>
        <time>2018-04-30T08:20:48Z</time>
      </trkpt>
      <trkpt lat="44.7931" lon="3.39411">
        <ele>1016</ele>
        <time>2018-04-30T08:21:21Z</time>
      </trkpt>
      <trkpt lat="44.79284" lon="3.39367">
        <ele>1020</ele>
        <time>2018-04-30T08:22:08Z</time>
      </trkpt>
      <trkpt lat="44.79242" lon="3.39328">
        <ele>1023</ele>
        <time>2018-04-30T08:22:55Z</time>
      </trkpt>
      <trkpt lat="44.79104" lon="3.39269">
        <ele>1028</ele>
        <time>2018-04-30T08:25:01Z</time>
      </trkpt>
      <trkpt lat="44.79067" lon="3.39245">
        <ele>1027</ele>
        <time>2018-04-30T08:25:33Z</time>
      </trkpt>
      <trkpt lat="44.79063" lon="3.39241">
        <ele>1027</ele>
        <time>2018-04-30T08:25:37Z</time>
      </trkpt>
      <trkpt lat="44.79056" lon="3.39239">
        <ele>1027</ele>
        <time>2018-04-30T08:26:17Z</time>
      </trkpt>
      <trkpt lat="44.79004" lon="3.39209">
        <ele>1026</ele>
        <time>2018-04-30T08:27:05Z</time>
      </trkpt>
      <trkpt lat="44.78999" lon="3.39207">
        <ele>1025</ele>
        <time>2018-04-30T08:27:10Z</time>
      </trkpt>
      <trkpt lat="44.7899" lon="3.39201">
        <ele>1025</ele>
        <time>2018-04-30T08:27:18Z</time>
      </trkpt>
      <trkpt lat="44.78967" lon="3.39187">
        <ele>1025</ele>
        <time>2018-04-30T08:27:40Z</time>
      </trkpt>
      <trkpt lat="44.78953" lon="3.39189">
        <ele>1025</ele>
        <time>2018-04-30T08:27:52Z</time>
      </trkpt>
      <trkpt lat="44.7895" lon="3.39194">
        <ele>1025</ele>
        <time>2018-04-30T08:28:55Z</time>
      </trkpt>
      <trkpt lat="44.78944" lon="3.39193">
        <ele>1025</ele>
        <time>2018-04-30T08:29:00Z</time>
      </trkpt>
      <trkpt lat="44.78913" lon="3.39203">
        <ele>1024</ele>
        <time>2018-04-30T08:29:24Z</time>
      </trkpt>
      <trkpt lat="44.78792" lon="3.39227">
        <ele>1024</ele>
        <time>2018-04-30T08:31:02Z</time>
      </trkpt>
      <trkpt lat="44.78753" lon="3.39229">
        <ele>1025</ele>
        <time>2018-04-30T08:31:34Z</time>
      </trkpt>
      <trkpt lat="44.78664" lon="3.39218">
        <ele>1028</ele>
        <time>2018-04-30T08:32:56Z</time>
      </trkpt>
      <trkpt lat="44.7863" lon="3.39219">
        <ele>1029</ele>
        <time>2018-04-30T08:33:27Z</time>
      </trkpt>
      <trkpt lat="44.78577" lon="3.39229">
        <ele>1028</ele>
        <time>2018-04-30T08:34:11Z</time>
      </trkpt>
      <trkpt lat="44.7853" lon="3.39252">
        <ele>1025</ele>
        <time>2018-04-30T08:34:51Z</time>
      </trkpt>
      <trkpt lat="44.7852" lon="3.39254">
        <ele>1025</ele>
        <time>2018-04-30T08:35:00Z</time>
      </trkpt>
      <trkpt lat="44.78484" lon="3.3928">
        <ele>1023</ele>
        <time>2018-04-30T08:35:32Z</time>
      </trkpt>
      <trkpt lat="44.78443" lon="3.39303">
        <ele>1021</ele>
        <time>2018-04-30T08:36:09Z</time>
      </trkpt>
      <trkpt lat="44.78438" lon="3.39306">
        <ele>1021</ele>
        <time>2018-04-30T08:36:13Z</time>
      </trkpt>
      <trkpt lat="44.78414" lon="3.39316">
        <ele>1020</ele>
        <time>2018-04-30T08:36:33Z</time>
      </trkpt>
      <trkpt lat="44.78376" lon="3.39324">
        <ele>1019</ele>
        <time>2018-04-30T08:37:05Z</time>
      </trkpt>
      <trkpt lat="44.78338" lon="3.39343">
        <ele>1016</ele>
        <time>2018-04-30T08:37:37Z</time>
      </trkpt>
      <trkpt lat="44.7833" lon="3.39349">
        <ele>1016</ele>
        <time>2018-04-30T08:37:45Z</time>
      </trkpt>
      <trkpt lat="44.78325" lon="3.39347">
        <ele>1016</ele>
        <time>2018-04-30T08:37:49Z</time>
      </trkpt>
      <trkpt lat="44.78315" lon="3.3934">
        <ele>1015</ele>
        <time>2018-04-30T08:37:57Z</time>
      </trkpt>
      <trkpt lat="44.78312" lon="3.39336">
        <ele>1015</ele>
        <time>2018-04-30T08:38:01Z</time>
      </trkpt>
      <trkpt lat="44.78305" lon="3.39317">
        <ele>1014</ele>
        <time>2018-04-30T08:38:13Z</time>
      </trkpt>
      <trkpt lat="44.78271" lon="3.39263">
        <ele>1014</ele>
        <time>2018-04-30T08:38:53Z</time>
      </trkpt>
      <trkpt lat="44.78264" lon="3.39255">
        <ele>1015</ele>
        <time>2018-04-30T08:39:02Z</time>
      </trkpt>
      <trkpt lat="44.78257" lon="3.39244">
        <ele>1015</ele>
        <time>2018-04-30T08:39:10Z</time>
      </trkpt>
      <trkpt lat="44.78252" lon="3.3924">
        <ele>1015</ele>
        <time>2018-04-30T08:39:14Z</time>
      </trkpt>
      <trkpt lat="44.78237" lon="3.39223">
        <ele>1014</ele>
        <time>2018-04-30T08:39:30Z</time>
      </trkpt>
      <trkpt lat="44.7823" lon="3.39218">
        <ele>1014</ele>
        <time>2018-04-30T08:39:37Z</time>
      </trkpt>
      <trkpt lat="44.78224" lon="3.39215">
        <ele>1015</ele>
        <time>2018-04-30T08:39:43Z</time>
      </trkpt>
      <trkpt lat="44.7822" lon="3.39214">
        <ele>1015</ele>
        <time>2018-04-30T08:39:47Z</time>
      </trkpt>
      <trkpt lat="44.78209" lon="3.3921">
        <ele>1015</ele>
        <time>2018-04-30T08:39:59Z</time>
      </trkpt>
      <trkpt lat="44.78187" lon="3.39208">
        <ele>1015</ele>
        <time>2018-04-30T08:40:21Z</time>
      </trkpt>
      <trkpt lat="44.78182" lon="3.39208">
        <ele>1015</ele>
        <time>2018-04-30T08:40:28Z</time>
      </trkpt>
      <trkpt lat="44.78122" lon="3.39208">
        <ele>1017</ele>
        <time>2018-04-30T08:41:20Z</time>
      </trkpt>
      <trkpt lat="44.78102" lon="3.39209">
        <ele>1016</ele>
        <time>2018-04-30T08:41:51Z</time>
      </trkpt>
      <trkpt lat="44.78043" lon="3.39224">
        <ele>1015</ele>
        <time>2018-04-30T08:42:39Z</time>
      </trkpt>
      <trkpt lat="44.78034" lon="3.39223">
        <ele>1015</ele>
        <time>2018-04-30T08:42:47Z</time>
      </trkpt>
      <trkpt lat="44.78021" lon="3.39211">
        <ele>1014</ele>
        <time>2018-04-30T08:43:00Z</time>
      </trkpt>
      <trkpt lat="44.78007" lon="3.39193">
        <ele>1012</ele>
        <time>2018-04-30T08:43:17Z</time>
      </trkpt>
      <trkpt lat="44.78001" lon="3.39192">
        <ele>1012</ele>
        <time>2018-04-30T08:43:29Z</time>
      </trkpt>
      <trkpt lat="44.7797" lon="3.39157">
        <ele>1010</ele>
        <time>2018-04-30T08:44:01Z</time>
      </trkpt>
      <trkpt lat="44.77967" lon="3.39151">
        <ele>1009</ele>
        <time>2018-04-30T08:44:05Z</time>
      </trkpt>
      <trkpt lat="44.77961" lon="3.3914">
        <ele>1009</ele>
        <time>2018-04-30T08:44:13Z</time>
      </trkpt>
      <trkpt lat="44.77959" lon="3.39126">
        <ele>1008</ele>
        <time>2018-04-30T08:44:22Z</time>
      </trkpt>
      <trkpt lat="44.77961" lon="3.39119">
        <ele>1007</ele>
        <time>2018-04-30T08:44:26Z</time>
      </trkpt>
      <trkpt lat="44.77992" lon="3.39037">
        <ele>1000</ele>
        <time>2018-04-30T08:45:18Z</time>
      </trkpt>
      <trkpt lat="44.78022" lon="3.38999">
        <ele>996</ele>
        <time>2018-04-30T08:45:54Z</time>
      </trkpt>
      <trkpt lat="44.78049" lon="3.38997">
        <ele>994</ele>
        <time>2018-04-30T08:46:24Z</time>
      </trkpt>
      <trkpt lat="44.78156" lon="3.39007">
        <ele>997</ele>
        <time>2018-04-30T08:48:01Z</time>
      </trkpt>
      <trkpt lat="44.78162" lon="3.38999">
        <ele>998</ele>
        <time>2018-04-30T08:48:32Z</time>
      </trkpt>
      <trkpt lat="44.7816" lon="3.38993">
        <ele>997</ele>
        <time>2018-04-30T08:48:48Z</time>
      </trkpt>
      <trkpt lat="44.78158" lon="3.38977">
        <ele>997</ele>
        <time>2018-04-30T08:49:05Z</time>
      </trkpt>
      <trkpt lat="44.78154" lon="3.38973">
        <ele>997</ele>
        <time>2018-04-30T08:49:09Z</time>
      </trkpt>
      <trkpt lat="44.7815" lon="3.38971">
        <ele>997</ele>
        <time>2018-04-30T08:49:13Z</time>
      </trkpt>
      <trkpt lat="44.78145" lon="3.38969">
        <ele>997</ele>
        <time>2018-04-30T08:49:17Z</time>
      </trkpt>
      <trkpt lat="44.78142" lon="3.38951">
        <ele>995</ele>
        <time>2018-04-30T08:49:35Z</time>
      </trkpt>
      <trkpt lat="44.78144" lon="3.38944">
        <ele>995</ele>
        <time>2018-04-30T08:49:40Z</time>
      </trkpt>
      <trkpt lat="44.78152" lon="3.3894">
        <ele>995</ele>
        <time>2018-04-30T08:50:06Z</time>
      </trkpt>
      <trkpt lat="44.78149" lon="3.3894">
        <ele>991</ele>
        <time>2018-04-30T08:58:37Z</time>
      </trkpt>
      <trkpt lat="44.78143" lon="3.38947">
        <ele>991</ele>
        <time>2018-04-30T08:58:47Z</time>
      </trkpt>
      <trkpt lat="44.78138" lon="3.38942">
        <ele>991</ele>
        <time>2018-04-30T08:58:57Z</time>
      </trkpt>
      <trkpt lat="44.78134" lon="3.38935">
        <ele>990</ele>
        <time>2018-04-30T08:59:22Z</time>
      </trkpt>
      <trkpt lat="44.78127" lon="3.38939">
        <ele>986</ele>
        <time>2018-04-30T08:59:34Z</time>
      </trkpt>
      <trkpt lat="44.78125" lon="3.38934">
        <ele>986</ele>
        <time>2018-04-30T08:59:38Z</time>
      </trkpt>
      <trkpt lat="44.78121" lon="3.38923">
        <ele>983</ele>
        <time>2018-04-30T08:59:53Z</time>
      </trkpt>
      <trkpt lat="44.78118" lon="3.38919">
        <ele>981</ele>
        <time>2018-04-30T08:59:58Z</time>
      </trkpt>
      <trkpt lat="44.78113" lon="3.38924">
        <ele>981</ele>
        <time>2018-04-30T09:00:06Z</time>
      </trkpt>
      <trkpt lat="44.78109" lon="3.38913">
        <ele>981</ele>
        <time>2018-04-30T09:00:23Z</time>
      </trkpt>
      <trkpt lat="44.78108" lon="3.389">
        <ele>980</ele>
        <time>2018-04-30T09:00:31Z</time>
      </trkpt>
      <trkpt lat="44.78108" lon="3.38892">
        <ele>979</ele>
        <time>2018-04-30T09:00:36Z</time>
      </trkpt>
      <trkpt lat="44.7811" lon="3.38887">
        <ele>979</ele>
        <time>2018-04-30T09:00:40Z</time>
      </trkpt>
      <trkpt lat="44.78123" lon="3.38865">
        <ele>978</ele>
        <time>2018-04-30T09:00:58Z</time>
      </trkpt>
      <trkpt lat="44.78126" lon="3.38856">
        <ele>976</ele>
        <time>2018-04-30T09:01:04Z</time>
      </trkpt>
      <trkpt lat="44.78127" lon="3.38841">
        <ele>975</ele>
        <time>2018-04-30T09:01:11Z</time>
      </trkpt>
      <trkpt lat="44.7813" lon="3.38834">
        <ele>975</ele>
        <time>2018-04-30T09:01:16Z</time>
      </trkpt>
      <trkpt lat="44.78133" lon="3.38831">
        <ele>974</ele>
        <time>2018-04-30T09:01:30Z</time>
      </trkpt>
      <trkpt lat="44.7813" lon="3.38827">
        <ele>974</ele>
        <time>2018-04-30T09:01:35Z</time>
      </trkpt>
      <trkpt lat="44.78124" lon="3.38823">
        <ele>975</ele>
        <time>2018-04-30T09:02:29Z</time>
      </trkpt>
      <trkpt lat="44.78119" lon="3.38821">
        <ele>973</ele>
        <time>2018-04-30T09:02:34Z</time>
      </trkpt>
      <trkpt lat="44.78122" lon="3.38811">
        <ele>970</ele>
        <time>2018-04-30T09:02:48Z</time>
      </trkpt>
      <trkpt lat="44.78126" lon="3.3881">
        <ele>969</ele>
        <time>2018-04-30T09:02:52Z</time>
      </trkpt>
      <trkpt lat="44.78177" lon="3.3882">
        <ele>965</ele>
        <time>2018-04-30T09:03:47Z</time>
      </trkpt>
      <trkpt lat="44.78182" lon="3.38818">
        <ele>964</ele>
        <time>2018-04-30T09:03:51Z</time>
      </trkpt>
      <trkpt lat="44.78186" lon="3.38813">
        <ele>963</ele>
        <time>2018-04-30T09:03:56Z</time>
      </trkpt>
      <trkpt lat="44.78187" lon="3.38806">
        <ele>963</ele>
        <time>2018-04-30T09:04:01Z</time>
      </trkpt>
      <trkpt lat="44.78184" lon="3.38801">
        <ele>962</ele>
        <time>2018-04-30T09:04:06Z</time>
      </trkpt>
      <trkpt lat="44.78172" lon="3.38802">
        <ele>962</ele>
        <time>2018-04-30T09:04:28Z</time>
      </trkpt>
      <trkpt lat="44.78167" lon="3.38804">
        <ele>962</ele>
        <time>2018-04-30T09:04:33Z</time>
      </trkpt>
      <trkpt lat="44.78162" lon="3.38804">
        <ele>962</ele>
        <time>2018-04-30T09:04:47Z</time>
      </trkpt>
      <trkpt lat="44.78155" lon="3.38806">
        <ele>962</ele>
        <time>2018-04-30T09:05:29Z</time>
      </trkpt>
      <trkpt lat="44.7816" lon="3.38792">
        <ele>963</ele>
        <time>2018-04-30T09:06:01Z</time>
      </trkpt>
      <trkpt lat="44.7817" lon="3.38797">
        <ele>963</ele>
        <time>2018-04-30T09:06:21Z</time>
      </trkpt>
      <trkpt lat="44.78176" lon="3.38811">
        <ele>964</ele>
        <time>2018-04-30T09:07:49Z</time>
      </trkpt>
      <trkpt lat="44.78163" lon="3.38807">
        <ele>966</ele>
        <time>2018-04-30T09:10:07Z</time>
      </trkpt>
      <trkpt lat="44.78146" lon="3.38806">
        <ele>966</ele>
        <time>2018-04-30T09:14:22Z</time>
      </trkpt>
      <trkpt lat="44.78137" lon="3.38803">
        <ele>966</ele>
        <time>2018-04-30T09:14:29Z</time>
      </trkpt>
      <trkpt lat="44.7813" lon="3.38796">
        <ele>965</ele>
        <time>2018-04-30T09:14:37Z</time>
      </trkpt>
      <trkpt lat="44.7812" lon="3.38792">
        <ele>964</ele>
        <time>2018-04-30T09:14:58Z</time>
      </trkpt>
      <trkpt lat="44.78116" lon="3.38788">
        <ele>964</ele>
        <time>2018-04-30T09:15:16Z</time>
      </trkpt>
      <trkpt lat="44.78111" lon="3.38784">
        <ele>963</ele>
        <time>2018-04-30T09:15:36Z</time>
      </trkpt>
      <trkpt lat="44.78111" lon="3.38786">
        <ele>964</ele>
        <time>2018-04-30T09:17:58Z</time>
      </trkpt>
      <trkpt lat="44.78112" lon="3.38767">
        <ele>961</ele>
        <time>2018-04-30T09:34:06Z</time>
      </trkpt>
      <trkpt lat="44.78102" lon="3.38771">
        <ele>961</ele>
        <time>2018-04-30T09:34:15Z</time>
      </trkpt>
      <trkpt lat="44.78089" lon="3.38772">
        <ele>959</ele>
        <time>2018-04-30T09:34:33Z</time>
      </trkpt>
      <trkpt lat="44.7809" lon="3.38769">
        <ele>960</ele>
        <time>2018-04-30T09:35:54Z</time>
      </trkpt>
      <trkpt lat="44.78091" lon="3.38762">
        <ele>959</ele>
        <time>2018-04-30T09:36:08Z</time>
      </trkpt>
      <trkpt lat="44.78095" lon="3.38756">
        <ele>958</ele>
        <time>2018-04-30T09:36:14Z</time>
      </trkpt>
      <trkpt lat="44.78112" lon="3.38742">
        <ele>957</ele>
        <time>2018-04-30T09:36:42Z</time>
      </trkpt>
      <trkpt lat="44.7811" lon="3.38731">
        <ele>958</ele>
        <time>2018-04-30T09:37:13Z</time>
      </trkpt>
      <trkpt lat="44.78118" lon="3.38735">
        <ele>958</ele>
        <time>2018-04-30T09:37:19Z</time>
      </trkpt>
      <trkpt lat="44.78117" lon="3.38748">
        <ele>959</ele>
        <time>2018-04-30T09:38:11Z</time>
      </trkpt>
      <trkpt lat="44.78109" lon="3.38742">
        <ele>961</ele>
        <time>2018-04-30T09:41:27Z</time>
      </trkpt>
      <trkpt lat="44.78101" lon="3.38754">
        <ele>961</ele>
        <time>2018-04-30T09:41:43Z</time>
      </trkpt>
      <trkpt lat="44.78096" lon="3.38767">
        <ele>962</ele>
        <time>2018-04-30T09:41:51Z</time>
      </trkpt>
      <trkpt lat="44.78092" lon="3.38772">
        <ele>963</ele>
        <time>2018-04-30T09:41:56Z</time>
      </trkpt>
      <trkpt lat="44.78079" lon="3.38776">
        <ele>963</ele>
        <time>2018-04-30T09:42:07Z</time>
      </trkpt>
      <trkpt lat="44.78054" lon="3.38791">
        <ele>961</ele>
        <time>2018-04-30T09:42:29Z</time>
      </trkpt>
      <trkpt lat="44.78049" lon="3.3879">
        <ele>961</ele>
        <time>2018-04-30T09:42:32Z</time>
      </trkpt>
      <trkpt lat="44.78038" lon="3.388">
        <ele>960</ele>
        <time>2018-04-30T09:42:45Z</time>
      </trkpt>
      <trkpt lat="44.78028" lon="3.38797">
        <ele>959</ele>
        <time>2018-04-30T09:42:57Z</time>
      </trkpt>
      <trkpt lat="44.77998" lon="3.38798">
        <ele>958</ele>
        <time>2018-04-30T09:44:14Z</time>
      </trkpt>
      <trkpt lat="44.77993" lon="3.38794">
        <ele>958</ele>
        <time>2018-04-30T09:44:18Z</time>
      </trkpt>
      <trkpt lat="44.77988" lon="3.38795">
        <ele>957</ele>
        <time>2018-04-30T09:44:23Z</time>
      </trkpt>
      <trkpt lat="44.77983" lon="3.38798">
        <ele>958</ele>
        <time>2018-04-30T09:44:28Z</time>
      </trkpt>
      <trkpt lat="44.7798" lon="3.38803">
        <ele>957</ele>
        <time>2018-04-30T09:44:33Z</time>
      </trkpt>
      <trkpt lat="44.77977" lon="3.38809">
        <ele>957</ele>
        <time>2018-04-30T09:44:38Z</time>
      </trkpt>
      <trkpt lat="44.77973" lon="3.38814">
        <ele>957</ele>
        <time>2018-04-30T09:44:48Z</time>
      </trkpt>
      <trkpt lat="44.77972" lon="3.38806">
        <ele>958</ele>
        <time>2018-04-30T09:46:48Z</time>
      </trkpt>
      <trkpt lat="44.77976" lon="3.388">
        <ele>961</ele>
        <time>2018-04-30T09:50:08Z</time>
      </trkpt>
      <trkpt lat="44.77981" lon="3.38801">
        <ele>961</ele>
        <time>2018-04-30T09:50:50Z</time>
      </trkpt>
      <trkpt lat="44.77986" lon="3.38796">
        <ele>961</ele>
        <time>2018-04-30T09:51:14Z</time>
      </trkpt>
      <trkpt lat="44.77992" lon="3.38785">
        <ele>961</ele>
        <time>2018-04-30T09:51:32Z</time>
      </trkpt>
      <trkpt lat="44.77991" lon="3.38779">
        <ele>961</ele>
        <time>2018-04-30T09:51:35Z</time>
      </trkpt>
      <trkpt lat="44.77988" lon="3.38772">
        <ele>961</ele>
        <time>2018-04-30T09:51:39Z</time>
      </trkpt>
      <trkpt lat="44.77983" lon="3.38751">
        <ele>960</ele>
        <time>2018-04-30T09:51:52Z</time>
      </trkpt>
      <trkpt lat="44.77973" lon="3.38647">
        <ele>954</ele>
        <time>2018-04-30T09:52:56Z</time>
      </trkpt>
      <trkpt lat="44.77973" lon="3.38638">
        <ele>954</ele>
        <time>2018-04-30T09:53:21Z</time>
      </trkpt>
      <trkpt lat="44.77969" lon="3.3861">
        <ele>953</ele>
        <time>2018-04-30T09:53:40Z</time>
      </trkpt>
      <trkpt lat="44.77962" lon="3.38591">
        <ele>953</ele>
        <time>2018-04-30T09:53:53Z</time>
      </trkpt>
      <trkpt lat="44.77965" lon="3.38581">
        <ele>952</ele>
        <time>2018-04-30T09:54:00Z</time>
      </trkpt>
      <trkpt lat="44.77965" lon="3.38574">
        <ele>952</ele>
        <time>2018-04-30T09:54:04Z</time>
      </trkpt>
      <trkpt lat="44.77954" lon="3.38536">
        <ele>950</ele>
        <time>2018-04-30T09:54:29Z</time>
      </trkpt>
      <trkpt lat="44.77952" lon="3.38522">
        <ele>950</ele>
        <time>2018-04-30T09:54:37Z</time>
      </trkpt>
      <trkpt lat="44.77949" lon="3.3851">
        <ele>949</ele>
        <time>2018-04-30T09:54:44Z</time>
      </trkpt>
      <trkpt lat="44.77945" lon="3.38506">
        <ele>948</ele>
        <time>2018-04-30T09:54:48Z</time>
      </trkpt>
      <trkpt lat="44.77943" lon="3.38499">
        <ele>948</ele>
        <time>2018-04-30T09:54:52Z</time>
      </trkpt>
      <trkpt lat="44.77942" lon="3.38492">
        <ele>948</ele>
        <time>2018-04-30T09:54:56Z</time>
      </trkpt>
      <trkpt lat="44.77937" lon="3.38479">
        <ele>947</ele>
        <time>2018-04-30T09:55:04Z</time>
      </trkpt>
      <trkpt lat="44.77933" lon="3.3846">
        <ele>946</ele>
        <time>2018-04-30T09:55:16Z</time>
      </trkpt>
      <trkpt lat="44.77881" lon="3.38301">
        <ele>937</ele>
        <time>2018-04-30T09:56:59Z</time>
      </trkpt>
      <trkpt lat="44.77875" lon="3.38299">
        <ele>937</ele>
        <time>2018-04-30T09:57:04Z</time>
      </trkpt>
      <trkpt lat="44.7786" lon="3.38301">
        <ele>935</ele>
        <time>2018-04-30T09:57:16Z</time>
      </trkpt>
      <trkpt lat="44.77869" lon="3.38297">
        <ele>935</ele>
        <time>2018-04-30T09:57:42Z</time>
      </trkpt>
      <trkpt lat="44.77872" lon="3.3829">
        <ele>935</ele>
        <time>2018-04-30T09:57:46Z</time>
      </trkpt>
      <trkpt lat="44.77871" lon="3.38275">
        <ele>935</ele>
        <time>2018-04-30T09:57:52Z</time>
      </trkpt>
      <trkpt lat="44.77864" lon="3.38249">
        <ele>934</ele>
        <time>2018-04-30T09:58:06Z</time>
      </trkpt>
      <trkpt lat="44.77857" lon="3.38229">
        <ele>934</ele>
        <time>2018-04-30T09:58:18Z</time>
      </trkpt>
      <trkpt lat="44.77852" lon="3.38207">
        <ele>933</ele>
        <time>2018-04-30T09:58:30Z</time>
      </trkpt>
      <trkpt lat="44.77812" lon="3.38095">
        <ele>933</ele>
        <time>2018-04-30T09:59:38Z</time>
      </trkpt>
      <trkpt lat="44.7781" lon="3.38087">
        <ele>933</ele>
        <time>2018-04-30T09:59:49Z</time>
      </trkpt>
      <trkpt lat="44.77807" lon="3.38078">
        <ele>931</ele>
        <time>2018-04-30T10:00:05Z</time>
      </trkpt>
      <trkpt lat="44.77805" lon="3.38065">
        <ele>931</ele>
        <time>2018-04-30T10:00:13Z</time>
      </trkpt>
      <trkpt lat="44.77767" lon="3.37957">
        <ele>930</ele>
        <time>2018-04-30T10:01:17Z</time>
      </trkpt>
      <trkpt lat="44.77758" lon="3.3794">
        <ele>930</ele>
        <time>2018-04-30T10:01:29Z</time>
      </trkpt>
      <trkpt lat="44.77756" lon="3.37933">
        <ele>930</ele>
        <time>2018-04-30T10:01:33Z</time>
      </trkpt>
      <trkpt lat="44.77758" lon="3.37926">
        <ele>929</ele>
        <time>2018-04-30T10:01:37Z</time>
      </trkpt>
      <trkpt lat="44.77761" lon="3.37921">
        <ele>929</ele>
        <time>2018-04-30T10:01:41Z</time>
      </trkpt>
      <trkpt lat="44.77765" lon="3.37918">
        <ele>929</ele>
        <time>2018-04-30T10:01:46Z</time>
      </trkpt>
      <trkpt lat="44.77818" lon="3.379">
        <ele>930</ele>
        <time>2018-04-30T10:02:31Z</time>
      </trkpt>
      <trkpt lat="44.77822" lon="3.37896">
        <ele>930</ele>
        <time>2018-04-30T10:02:35Z</time>
      </trkpt>
      <trkpt lat="44.77834" lon="3.37874">
        <ele>931</ele>
        <time>2018-04-30T10:02:53Z</time>
      </trkpt>
      <trkpt lat="44.77844" lon="3.37851">
        <ele>931</ele>
        <time>2018-04-30T10:03:07Z</time>
      </trkpt>
      <trkpt lat="44.77851" lon="3.37842">
        <ele>931</ele>
        <time>2018-04-30T10:03:14Z</time>
      </trkpt>
      <trkpt lat="44.77871" lon="3.37822">
        <ele>932</ele>
        <time>2018-04-30T10:03:35Z</time>
      </trkpt>
      <trkpt lat="44.77875" lon="3.3781">
        <ele>932</ele>
        <time>2018-04-30T10:03:43Z</time>
      </trkpt>
      <trkpt lat="44.77877" lon="3.37797">
        <ele>932</ele>
        <time>2018-04-30T10:03:51Z</time>
      </trkpt>
      <trkpt lat="44.77879" lon="3.37791">
        <ele>932</ele>
        <time>2018-04-30T10:03:55Z</time>
      </trkpt>
      <trkpt lat="44.77879" lon="3.37784">
        <ele>933</ele>
        <time>2018-04-30T10:04:00Z</time>
      </trkpt>
      <trkpt lat="44.77878" lon="3.37773">
        <ele>933</ele>
        <time>2018-04-30T10:04:36Z</time>
      </trkpt>
      <trkpt lat="44.77874" lon="3.3776">
        <ele>933</ele>
        <time>2018-04-30T10:04:44Z</time>
      </trkpt>
      <trkpt lat="44.77858" lon="3.37735">
        <ele>934</ele>
        <time>2018-04-30T10:05:01Z</time>
      </trkpt>
      <trkpt lat="44.77837" lon="3.37685">
        <ele>936</ele>
        <time>2018-04-30T10:05:36Z</time>
      </trkpt>
      <trkpt lat="44.77817" lon="3.37663">
        <ele>941</ele>
        <time>2018-04-30T10:05:59Z</time>
      </trkpt>
      <trkpt lat="44.77781" lon="3.37583">
        <ele>945</ele>
        <time>2018-04-30T10:07:21Z</time>
      </trkpt>
      <trkpt lat="44.77772" lon="3.37558">
        <ele>947</ele>
        <time>2018-04-30T10:07:38Z</time>
      </trkpt>
      <trkpt lat="44.7777" lon="3.37552">
        <ele>947</ele>
        <time>2018-04-30T10:07:41Z</time>
      </trkpt>
      <trkpt lat="44.77743" lon="3.37462">
        <ele>950</ele>
        <time>2018-04-30T10:08:37Z</time>
      </trkpt>
      <trkpt lat="44.77742" lon="3.37389">
        <ele>952</ele>
        <time>2018-04-30T10:09:18Z</time>
      </trkpt>
      <trkpt lat="44.77753" lon="3.3735">
        <ele>953</ele>
        <time>2018-04-30T10:09:42Z</time>
      </trkpt>
      <trkpt lat="44.77755" lon="3.37344">
        <ele>953</ele>
        <time>2018-04-30T10:09:46Z</time>
      </trkpt>
      <trkpt lat="44.77756" lon="3.37329">
        <ele>955</ele>
        <time>2018-04-30T10:09:55Z</time>
      </trkpt>
      <trkpt lat="44.77744" lon="3.37268">
        <ele>962</ele>
        <time>2018-04-30T10:10:55Z</time>
      </trkpt>
      <trkpt lat="44.77744" lon="3.3726">
        <ele>963</ele>
        <time>2018-04-30T10:11:32Z</time>
      </trkpt>
      <trkpt lat="44.77745" lon="3.37253">
        <ele>964</ele>
        <time>2018-04-30T10:11:58Z</time>
      </trkpt>
      <trkpt lat="44.77743" lon="3.37247">
        <ele>964</ele>
        <time>2018-04-30T10:12:02Z</time>
      </trkpt>
      <trkpt lat="44.77739" lon="3.37211">
        <ele>969</ele>
        <time>2018-04-30T10:12:24Z</time>
      </trkpt>
      <trkpt lat="44.7774" lon="3.37198">
        <ele>971</ele>
        <time>2018-04-30T10:12:34Z</time>
      </trkpt>
      <trkpt lat="44.77733" lon="3.37156">
        <ele>975</ele>
        <time>2018-04-30T10:13:08Z</time>
      </trkpt>
      <trkpt lat="44.77736" lon="3.37142">
        <ele>976</ele>
        <time>2018-04-30T10:13:17Z</time>
      </trkpt>
      <trkpt lat="44.77734" lon="3.37135">
        <ele>977</ele>
        <time>2018-04-30T10:13:22Z</time>
      </trkpt>
      <trkpt lat="44.77734" lon="3.37121">
        <ele>978</ele>
        <time>2018-04-30T10:13:31Z</time>
      </trkpt>
      <trkpt lat="44.77727" lon="3.3708">
        <ele>982</ele>
        <time>2018-04-30T10:14:00Z</time>
      </trkpt>
      <trkpt lat="44.77724" lon="3.37071">
        <ele>983</ele>
        <time>2018-04-30T10:14:08Z</time>
      </trkpt>
      <trkpt lat="44.77726" lon="3.37066">
        <ele>985</ele>
        <time>2018-04-30T10:14:20Z</time>
      </trkpt>
      <trkpt lat="44.77719" lon="3.3704">
        <ele>984</ele>
        <time>2018-04-30T10:14:53Z</time>
      </trkpt>
      <trkpt lat="44.77716" lon="3.37028">
        <ele>983</ele>
        <time>2018-04-30T10:15:01Z</time>
      </trkpt>
      <trkpt lat="44.77711" lon="3.37016">
        <ele>982</ele>
        <time>2018-04-30T10:15:09Z</time>
      </trkpt>
      <trkpt lat="44.777" lon="3.37001">
        <ele>980</ele>
        <time>2018-04-30T10:15:21Z</time>
      </trkpt>
      <trkpt lat="44.77698" lon="3.36995">
        <ele>980</ele>
        <time>2018-04-30T10:15:25Z</time>
      </trkpt>
      <trkpt lat="44.77698" lon="3.36988">
        <ele>979</ele>
        <time>2018-04-30T10:15:29Z</time>
      </trkpt>
      <trkpt lat="44.77699" lon="3.36981">
        <ele>978</ele>
        <time>2018-04-30T10:15:33Z</time>
      </trkpt>
      <trkpt lat="44.77705" lon="3.36971">
        <ele>976</ele>
        <time>2018-04-30T10:15:42Z</time>
      </trkpt>
      <trkpt lat="44.77732" lon="3.36945">
        <ele>971</ele>
        <time>2018-04-30T10:16:11Z</time>
      </trkpt>
      <trkpt lat="44.77737" lon="3.36944">
        <ele>972</ele>
        <time>2018-04-30T10:16:27Z</time>
      </trkpt>
      <trkpt lat="44.77765" lon="3.36918">
        <ele>969</ele>
        <time>2018-04-30T10:16:55Z</time>
      </trkpt>
      <trkpt lat="44.77775" lon="3.36904">
        <ele>967</ele>
        <time>2018-04-30T10:17:07Z</time>
      </trkpt>
      <trkpt lat="44.77796" lon="3.36882">
        <ele>965</ele>
        <time>2018-04-30T10:17:30Z</time>
      </trkpt>
      <trkpt lat="44.77856" lon="3.36858">
        <ele>960</ele>
        <time>2018-04-30T10:18:36Z</time>
      </trkpt>
      <trkpt lat="44.7786" lon="3.36854">
        <ele>960</ele>
        <time>2018-04-30T10:18:40Z</time>
      </trkpt>
      <trkpt lat="44.77868" lon="3.36845">
        <ele>961</ele>
        <time>2018-04-30T10:18:48Z</time>
      </trkpt>
      <trkpt lat="44.77877" lon="3.36837">
        <ele>961</ele>
        <time>2018-04-30T10:18:56Z</time>
      </trkpt>
      <trkpt lat="44.77909" lon="3.36796">
        <ele>958</ele>
        <time>2018-04-30T10:19:28Z</time>
      </trkpt>
      <trkpt lat="44.77911" lon="3.3679">
        <ele>957</ele>
        <time>2018-04-30T10:19:32Z</time>
      </trkpt>
      <trkpt lat="44.77912" lon="3.36783">
        <ele>957</ele>
        <time>2018-04-30T10:19:36Z</time>
      </trkpt>
      <trkpt lat="44.77903" lon="3.36781">
        <ele>956</ele>
        <time>2018-04-30T10:19:51Z</time>
      </trkpt>
      <trkpt lat="44.77878" lon="3.36794">
        <ele>952</ele>
        <time>2018-04-30T10:20:10Z</time>
      </trkpt>
      <trkpt lat="44.77867" lon="3.36796">
        <ele>950</ele>
        <time>2018-04-30T10:20:18Z</time>
      </trkpt>
      <trkpt lat="44.77858" lon="3.36802">
        <ele>948</ele>
        <time>2018-04-30T10:20:27Z</time>
      </trkpt>
      <trkpt lat="44.77848" lon="3.36802">
        <ele>947</ele>
        <time>2018-04-30T10:20:35Z</time>
      </trkpt>
      <trkpt lat="44.77844" lon="3.36797">
        <ele>946</ele>
        <time>2018-04-30T10:20:40Z</time>
      </trkpt>
      <trkpt lat="44.77839" lon="3.36796">
        <ele>945</ele>
        <time>2018-04-30T10:20:44Z</time>
      </trkpt>
      <trkpt lat="44.77812" lon="3.3677">
        <ele>942</ele>
        <time>2018-04-30T10:21:09Z</time>
      </trkpt>
      <trkpt lat="44.77802" lon="3.36771">
        <ele>941</ele>
        <time>2018-04-30T10:21:17Z</time>
      </trkpt>
      <trkpt lat="44.77792" lon="3.36765">
        <ele>940</ele>
        <time>2018-04-30T10:21:25Z</time>
      </trkpt>
      <trkpt lat="44.77784" lon="3.36756">
        <ele>938</ele>
        <time>2018-04-30T10:21:33Z</time>
      </trkpt>
      <trkpt lat="44.77779" lon="3.36754">
        <ele>938</ele>
        <time>2018-04-30T10:21:37Z</time>
      </trkpt>
      <trkpt lat="44.7777" lon="3.36745">
        <ele>937</ele>
        <time>2018-04-30T10:21:46Z</time>
      </trkpt>
      <trkpt lat="44.77767" lon="3.36739">
        <ele>936</ele>
        <time>2018-04-30T10:21:50Z</time>
      </trkpt>
      <trkpt lat="44.77767" lon="3.36732">
        <ele>935</ele>
        <time>2018-04-30T10:21:53Z</time>
      </trkpt>
      <trkpt lat="44.77767" lon="3.36725">
        <ele>935</ele>
        <time>2018-04-30T10:21:57Z</time>
      </trkpt>
      <trkpt lat="44.77775" lon="3.36711">
        <ele>934</ele>
        <time>2018-04-30T10:22:13Z</time>
      </trkpt>
      <trkpt lat="44.77777" lon="3.36702">
        <ele>933</ele>
        <time>2018-04-30T10:22:28Z</time>
      </trkpt>
      <trkpt lat="44.77772" lon="3.36702">
        <ele>932</ele>
        <time>2018-04-30T10:22:33Z</time>
      </trkpt>
      <trkpt lat="44.77767" lon="3.36704">
        <ele>932</ele>
        <time>2018-04-30T10:22:37Z</time>
      </trkpt>
      <trkpt lat="44.77727" lon="3.36713">
        <ele>929</ele>
        <time>2018-04-30T10:23:11Z</time>
      </trkpt>
      <trkpt lat="44.77722" lon="3.36713">
        <ele>928</ele>
        <time>2018-04-30T10:23:15Z</time>
      </trkpt>
      <trkpt lat="44.77719" lon="3.36709">
        <ele>927</ele>
        <time>2018-04-30T10:23:19Z</time>
      </trkpt>
      <trkpt lat="44.77719" lon="3.36701">
        <ele>926</ele>
        <time>2018-04-30T10:23:23Z</time>
      </trkpt>
      <trkpt lat="44.77723" lon="3.36671">
        <ele>925</ele>
        <time>2018-04-30T10:23:39Z</time>
      </trkpt>
      <trkpt lat="44.77722" lon="3.36657">
        <ele>924</ele>
        <time>2018-04-30T10:23:47Z</time>
      </trkpt>
      <trkpt lat="44.77727" lon="3.36637">
        <ele>923</ele>
        <time>2018-04-30T10:23:59Z</time>
      </trkpt>
      <trkpt lat="44.77727" lon="3.3663">
        <ele>923</ele>
        <time>2018-04-30T10:24:03Z</time>
      </trkpt>
      <trkpt lat="44.77731" lon="3.36616">
        <ele>922</ele>
        <time>2018-04-30T10:24:11Z</time>
      </trkpt>
      <trkpt lat="44.77731" lon="3.36602">
        <ele>922</ele>
        <time>2018-04-30T10:24:19Z</time>
      </trkpt>
      <trkpt lat="44.77728" lon="3.36539">
        <ele>920</ele>
        <time>2018-04-30T10:24:56Z</time>
      </trkpt>
      <trkpt lat="44.77724" lon="3.3652">
        <ele>921</ele>
        <time>2018-04-30T10:25:08Z</time>
      </trkpt>
      <trkpt lat="44.77718" lon="3.36511">
        <ele>920</ele>
        <time>2018-04-30T10:25:16Z</time>
      </trkpt>
      <trkpt lat="44.77714" lon="3.36509">
        <ele>919</ele>
        <time>2018-04-30T10:25:20Z</time>
      </trkpt>
      <trkpt lat="44.77709" lon="3.36507">
        <ele>919</ele>
        <time>2018-04-30T10:25:24Z</time>
      </trkpt>
      <trkpt lat="44.777" lon="3.36503">
        <ele>919</ele>
        <time>2018-04-30T10:25:32Z</time>
      </trkpt>
      <trkpt lat="44.7769" lon="3.365">
        <ele>920</ele>
        <time>2018-04-30T10:25:40Z</time>
      </trkpt>
      <trkpt lat="44.77685" lon="3.36499">
        <ele>919</ele>
        <time>2018-04-30T10:25:45Z</time>
      </trkpt>
      <trkpt lat="44.7768" lon="3.36496">
        <ele>919</ele>
        <time>2018-04-30T10:25:50Z</time>
      </trkpt>
      <trkpt lat="44.77675" lon="3.36496">
        <ele>919</ele>
        <time>2018-04-30T10:25:54Z</time>
      </trkpt>
      <trkpt lat="44.77668" lon="3.36497">
        <ele>919</ele>
        <time>2018-04-30T10:26:02Z</time>
      </trkpt>
      <trkpt lat="44.7764" lon="3.3649">
        <ele>920</ele>
        <time>2018-04-30T10:26:31Z</time>
      </trkpt>
      <trkpt lat="44.77626" lon="3.36483">
        <ele>921</ele>
        <time>2018-04-30T10:26:59Z</time>
      </trkpt>
      <trkpt lat="44.77619" lon="3.36481">
        <ele>921</ele>
        <time>2018-04-30T10:27:07Z</time>
      </trkpt>
      <trkpt lat="44.77609" lon="3.3647">
        <ele>922</ele>
        <time>2018-04-30T10:27:21Z</time>
      </trkpt>
      <trkpt lat="44.77607" lon="3.36463">
        <ele>922</ele>
        <time>2018-04-30T10:28:12Z</time>
      </trkpt>
      <trkpt lat="44.77612" lon="3.36453">
        <ele>922</ele>
        <time>2018-04-30T10:28:46Z</time>
      </trkpt>
      <trkpt lat="44.77614" lon="3.36447">
        <ele>922</ele>
        <time>2018-04-30T10:28:50Z</time>
      </trkpt>
      <trkpt lat="44.77618" lon="3.36443">
        <ele>922</ele>
        <time>2018-04-30T10:28:55Z</time>
      </trkpt>
      <trkpt lat="44.77622" lon="3.36439">
        <ele>923</ele>
        <time>2018-04-30T10:29:00Z</time>
      </trkpt>
      <trkpt lat="44.77636" lon="3.36414">
        <ele>926</ele>
        <time>2018-04-30T10:29:24Z</time>
      </trkpt>
      <trkpt lat="44.77644" lon="3.36376">
        <ele>930</ele>
        <time>2018-04-30T10:29:58Z</time>
      </trkpt>
      <trkpt lat="44.7764" lon="3.36364">
        <ele>931</ele>
        <time>2018-04-30T10:30:06Z</time>
      </trkpt>
      <trkpt lat="44.77631" lon="3.36363">
        <ele>932</ele>
        <time>2018-04-30T10:30:20Z</time>
      </trkpt>
      <trkpt lat="44.77628" lon="3.36369">
        <ele>932</ele>
        <time>2018-04-30T10:30:25Z</time>
      </trkpt>
      <trkpt lat="44.77625" lon="3.36375">
        <ele>933</ele>
        <time>2018-04-30T10:30:33Z</time>
      </trkpt>
      <trkpt lat="44.77611" lon="3.36393">
        <ele>938</ele>
        <time>2018-04-30T10:31:04Z</time>
      </trkpt>
      <trkpt lat="44.77605" lon="3.36391">
        <ele>939</ele>
        <time>2018-04-30T10:31:12Z</time>
      </trkpt>
      <trkpt lat="44.77594" lon="3.36393">
        <ele>939</ele>
        <time>2018-04-30T10:31:28Z</time>
      </trkpt>
      <trkpt lat="44.77582" lon="3.36397">
        <ele>941</ele>
        <time>2018-04-30T10:31:40Z</time>
      </trkpt>
      <trkpt lat="44.77573" lon="3.36396">
        <ele>941</ele>
        <time>2018-04-30T10:31:49Z</time>
      </trkpt>
      <trkpt lat="44.77557" lon="3.364">
        <ele>942</ele>
        <time>2018-04-30T10:32:02Z</time>
      </trkpt>
      <trkpt lat="44.77514" lon="3.36396">
        <ele>946</ele>
        <time>2018-04-30T10:33:15Z</time>
      </trkpt>
      <trkpt lat="44.77498" lon="3.36388">
        <ele>947</ele>
        <time>2018-04-30T10:33:29Z</time>
      </trkpt>
      <trkpt lat="44.77467" lon="3.36394">
        <ele>950</ele>
        <time>2018-04-30T10:34:01Z</time>
      </trkpt>
      <trkpt lat="44.77462" lon="3.36397">
        <ele>951</ele>
        <time>2018-04-30T10:34:05Z</time>
      </trkpt>
      <trkpt lat="44.77448" lon="3.36399">
        <ele>953</ele>
        <time>2018-04-30T10:34:35Z</time>
      </trkpt>
      <trkpt lat="44.77429" lon="3.36395">
        <ele>956</ele>
        <time>2018-04-30T10:34:58Z</time>
      </trkpt>
      <trkpt lat="44.77424" lon="3.36396">
        <ele>957</ele>
        <time>2018-04-30T10:35:03Z</time>
      </trkpt>
      <trkpt lat="44.77417" lon="3.36394">
        <ele>958</ele>
        <time>2018-04-30T10:35:13Z</time>
      </trkpt>
      <trkpt lat="44.77405" lon="3.36392">
        <ele>961</ele>
        <time>2018-04-30T10:35:31Z</time>
      </trkpt>
      <trkpt lat="44.77398" lon="3.36392">
        <ele>961</ele>
        <time>2018-04-30T10:36:04Z</time>
      </trkpt>
      <trkpt lat="44.77386" lon="3.36385">
        <ele>963</ele>
        <time>2018-04-30T10:36:19Z</time>
      </trkpt>
      <trkpt lat="44.77383" lon="3.36381">
        <ele>963</ele>
        <time>2018-04-30T10:36:24Z</time>
      </trkpt>
      <trkpt lat="44.77365" lon="3.36377">
        <ele>966</ele>
        <time>2018-04-30T10:36:45Z</time>
      </trkpt>
      <trkpt lat="44.77359" lon="3.36374">
        <ele>966</ele>
        <time>2018-04-30T10:36:53Z</time>
      </trkpt>
      <trkpt lat="44.77355" lon="3.36373">
        <ele>967</ele>
        <time>2018-04-30T10:36:57Z</time>
      </trkpt>
      <trkpt lat="44.7735" lon="3.36372">
        <ele>967</ele>
        <time>2018-04-30T10:37:01Z</time>
      </trkpt>
      <trkpt lat="44.77333" lon="3.36361">
        <ele>969</ele>
        <time>2018-04-30T10:37:20Z</time>
      </trkpt>
      <trkpt lat="44.77326" lon="3.36351">
        <ele>970</ele>
        <time>2018-04-30T10:37:29Z</time>
      </trkpt>
      <trkpt lat="44.77318" lon="3.36334">
        <ele>970</ele>
        <time>2018-04-30T10:37:43Z</time>
      </trkpt>
      <trkpt lat="44.77316" lon="3.36326">
        <ele>970</ele>
        <time>2018-04-30T10:37:49Z</time>
      </trkpt>
      <trkpt lat="44.77315" lon="3.36297">
        <ele>971</ele>
        <time>2018-04-30T10:38:08Z</time>
      </trkpt>
      <trkpt lat="44.77312" lon="3.36281">
        <ele>971</ele>
        <time>2018-04-30T10:38:21Z</time>
      </trkpt>
      <trkpt lat="44.77309" lon="3.36275">
        <ele>973</ele>
        <time>2018-04-30T10:38:33Z</time>
      </trkpt>
      <trkpt lat="44.77302" lon="3.36251">
        <ele>975</ele>
        <time>2018-04-30T10:38:53Z</time>
      </trkpt>
      <trkpt lat="44.77294" lon="3.36242">
        <ele>975</ele>
        <time>2018-04-30T10:39:02Z</time>
      </trkpt>
      <trkpt lat="44.77291" lon="3.36236">
        <ele>976</ele>
        <time>2018-04-30T10:39:07Z</time>
      </trkpt>
      <trkpt lat="44.77286" lon="3.36235">
        <ele>976</ele>
        <time>2018-04-30T10:39:11Z</time>
      </trkpt>
      <trkpt lat="44.77281" lon="3.36232">
        <ele>976</ele>
        <time>2018-04-30T10:39:15Z</time>
      </trkpt>
      <trkpt lat="44.77275" lon="3.36229">
        <ele>977</ele>
        <time>2018-04-30T10:39:32Z</time>
      </trkpt>
      <trkpt lat="44.77272" lon="3.36224">
        <ele>977</ele>
        <time>2018-04-30T10:39:37Z</time>
      </trkpt>
      <trkpt lat="44.77249" lon="3.36208">
        <ele>978</ele>
        <time>2018-04-30T10:40:00Z</time>
      </trkpt>
      <trkpt lat="44.77242" lon="3.36201">
        <ele>979</ele>
        <time>2018-04-30T10:40:13Z</time>
      </trkpt>
      <trkpt lat="44.77237" lon="3.36197">
        <ele>979</ele>
        <time>2018-04-30T10:40:43Z</time>
      </trkpt>
      <trkpt lat="44.7723" lon="3.3619">
        <ele>981</ele>
        <time>2018-04-30T10:41:01Z</time>
      </trkpt>
      <trkpt lat="44.77215" lon="3.36182">
        <ele>983</ele>
        <time>2018-04-30T10:41:24Z</time>
      </trkpt>
      <trkpt lat="44.77209" lon="3.36165">
        <ele>985</ele>
        <time>2018-04-30T10:41:38Z</time>
      </trkpt>
      <trkpt lat="44.77205" lon="3.3616">
        <ele>985</ele>
        <time>2018-04-30T10:41:43Z</time>
      </trkpt>
      <trkpt lat="44.772" lon="3.36157">
        <ele>985</ele>
        <time>2018-04-30T10:41:48Z</time>
      </trkpt>
      <trkpt lat="44.77195" lon="3.36153">
        <ele>987</ele>
        <time>2018-04-30T10:42:05Z</time>
      </trkpt>
      <trkpt lat="44.77186" lon="3.36149">
        <ele>988</ele>
        <time>2018-04-30T10:42:14Z</time>
      </trkpt>
      <trkpt lat="44.77181" lon="3.36145">
        <ele>990</ele>
        <time>2018-04-30T10:42:34Z</time>
      </trkpt>
      <trkpt lat="44.77175" lon="3.36136">
        <ele>990</ele>
        <time>2018-04-30T10:42:45Z</time>
      </trkpt>
      <trkpt lat="44.77173" lon="3.3613">
        <ele>990</ele>
        <time>2018-04-30T10:42:49Z</time>
      </trkpt>
      <trkpt lat="44.77165" lon="3.36121">
        <ele>991</ele>
        <time>2018-04-30T10:42:59Z</time>
      </trkpt>
      <trkpt lat="44.77136" lon="3.36095">
        <ele>994</ele>
        <time>2018-04-30T10:43:36Z</time>
      </trkpt>
      <trkpt lat="44.77129" lon="3.36084">
        <ele>995</ele>
        <time>2018-04-30T10:43:45Z</time>
      </trkpt>
      <trkpt lat="44.7712" lon="3.36076">
        <ele>996</ele>
        <time>2018-04-30T10:43:58Z</time>
      </trkpt>
      <trkpt lat="44.77109" lon="3.3606">
        <ele>998</ele>
        <time>2018-04-30T10:44:19Z</time>
      </trkpt>
      <trkpt lat="44.77107" lon="3.36049">
        <ele>999</ele>
        <time>2018-04-30T10:44:43Z</time>
      </trkpt>
      <trkpt lat="44.77103" lon="3.3605">
        <ele>999</ele>
        <time>2018-04-30T10:44:48Z</time>
      </trkpt>
      <trkpt lat="44.77098" lon="3.36047">
        <ele>1000</ele>
        <time>2018-04-30T10:44:56Z</time>
      </trkpt>
      <trkpt lat="44.77096" lon="3.3604">
        <ele>1000</ele>
        <time>2018-04-30T10:45:14Z</time>
      </trkpt>
      <trkpt lat="44.77089" lon="3.36036">
        <ele>1002</ele>
        <time>2018-04-30T10:45:26Z</time>
      </trkpt>
      <trkpt lat="44.77072" lon="3.36015">
        <ele>1006</ele>
        <time>2018-04-30T10:46:08Z</time>
      </trkpt>
      <trkpt lat="44.77066" lon="3.36005">
        <ele>1007</ele>
        <time>2018-04-30T10:46:26Z</time>
      </trkpt>
      <trkpt lat="44.77056" lon="3.35993">
        <ele>1009</ele>
        <time>2018-04-30T10:46:44Z</time>
      </trkpt>
      <trkpt lat="44.7705" lon="3.35987">
        <ele>1009</ele>
        <time>2018-04-30T10:46:56Z</time>
      </trkpt>
      <trkpt lat="44.77041" lon="3.35971">
        <ele>1013</ele>
        <time>2018-04-30T10:47:20Z</time>
      </trkpt>
      <trkpt lat="44.77027" lon="3.35954">
        <ele>1016</ele>
        <time>2018-04-30T10:47:44Z</time>
      </trkpt>
      <trkpt lat="44.77013" lon="3.35942">
        <ele>1017</ele>
        <time>2018-04-30T10:48:02Z</time>
      </trkpt>
      <trkpt lat="44.7701" lon="3.35933">
        <ele>1017</ele>
        <time>2018-04-30T10:48:40Z</time>
      </trkpt>
      <trkpt lat="44.77005" lon="3.3593">
        <ele>1017</ele>
        <time>2018-04-30T10:48:44Z</time>
      </trkpt>
      <trkpt lat="44.77002" lon="3.35926">
        <ele>1018</ele>
        <time>2018-04-30T10:48:48Z</time>
      </trkpt>
      <trkpt lat="44.76968" lon="3.35907">
        <ele>1018</ele>
        <time>2018-04-30T10:49:21Z</time>
      </trkpt>
      <trkpt lat="44.76964" lon="3.35902">
        <ele>1018</ele>
        <time>2018-04-30T10:49:26Z</time>
      </trkpt>
      <trkpt lat="44.76946" lon="3.35895">
        <ele>1019</ele>
        <time>2018-04-30T10:49:49Z</time>
      </trkpt>
      <trkpt lat="44.76939" lon="3.3589">
        <ele>1019</ele>
        <time>2018-04-30T10:50:17Z</time>
      </trkpt>
      <trkpt lat="44.76933" lon="3.3589">
        <ele>1019</ele>
        <time>2018-04-30T10:50:21Z</time>
      </trkpt>
      <trkpt lat="44.76924" lon="3.35893">
        <ele>1020</ele>
        <time>2018-04-30T10:50:28Z</time>
      </trkpt>
      <trkpt lat="44.7692" lon="3.35895">
        <ele>1020</ele>
        <time>2018-04-30T10:50:33Z</time>
      </trkpt>
      <trkpt lat="44.76913" lon="3.35897">
        <ele>1020</ele>
        <time>2018-04-30T10:50:40Z</time>
      </trkpt>
      <trkpt lat="44.76908" lon="3.35896">
        <ele>1020</ele>
        <time>2018-04-30T10:50:45Z</time>
      </trkpt>
      <trkpt lat="44.76898" lon="3.35893">
        <ele>1021</ele>
        <time>2018-04-30T10:50:54Z</time>
      </trkpt>
      <trkpt lat="44.76883" lon="3.35891">
        <ele>1022</ele>
        <time>2018-04-30T10:51:08Z</time>
      </trkpt>
      <trkpt lat="44.76879" lon="3.35894">
        <ele>1022</ele>
        <time>2018-04-30T10:51:30Z</time>
      </trkpt>
      <trkpt lat="44.76869" lon="3.35891">
        <ele>1023</ele>
        <time>2018-04-30T10:51:39Z</time>
      </trkpt>
      <trkpt lat="44.76858" lon="3.35886">
        <ele>1025</ele>
        <time>2018-04-30T10:51:52Z</time>
      </trkpt>
      <trkpt lat="44.76849" lon="3.35885">
        <ele>1025</ele>
        <time>2018-04-30T10:52:06Z</time>
      </trkpt>
      <trkpt lat="44.76825" lon="3.35868">
        <ele>1028</ele>
        <time>2018-04-30T10:52:33Z</time>
      </trkpt>
      <trkpt lat="44.76814" lon="3.35866">
        <ele>1028</ele>
        <time>2018-04-30T10:52:43Z</time>
      </trkpt>
      <trkpt lat="44.76811" lon="3.35861">
        <ele>1029</ele>
        <time>2018-04-30T10:52:48Z</time>
      </trkpt>
      <trkpt lat="44.7679" lon="3.35854">
        <ele>1030</ele>
        <time>2018-04-30T10:53:05Z</time>
      </trkpt>
      <trkpt lat="44.76785" lon="3.35851">
        <ele>1030</ele>
        <time>2018-04-30T10:53:09Z</time>
      </trkpt>
      <trkpt lat="44.7675" lon="3.35838">
        <ele>1032</ele>
        <time>2018-04-30T10:53:39Z</time>
      </trkpt>
      <trkpt lat="44.76736" lon="3.35827">
        <ele>1033</ele>
        <time>2018-04-30T10:53:54Z</time>
      </trkpt>
      <trkpt lat="44.76732" lon="3.35825">
        <ele>1033</ele>
        <time>2018-04-30T10:53:58Z</time>
      </trkpt>
      <trkpt lat="44.76722" lon="3.3582">
        <ele>1034</ele>
        <time>2018-04-30T10:54:07Z</time>
      </trkpt>
      <trkpt lat="44.76718" lon="3.35819">
        <ele>1034</ele>
        <time>2018-04-30T10:54:11Z</time>
      </trkpt>
      <trkpt lat="44.76681" lon="3.35795">
        <ele>1035</ele>
        <time>2018-04-30T10:54:45Z</time>
      </trkpt>
      <trkpt lat="44.76666" lon="3.3579">
        <ele>1035</ele>
        <time>2018-04-30T10:54:57Z</time>
      </trkpt>
      <trkpt lat="44.76614" lon="3.35797">
        <ele>1036</ele>
        <time>2018-04-30T10:55:39Z</time>
      </trkpt>
      <trkpt lat="44.76574" lon="3.35787">
        <ele>1034</ele>
        <time>2018-04-30T10:56:12Z</time>
      </trkpt>
      <trkpt lat="44.76505" lon="3.35783">
        <ele>1033</ele>
        <time>2018-04-30T10:57:58Z</time>
      </trkpt>
      <trkpt lat="44.765" lon="3.35781">
        <ele>1033</ele>
        <time>2018-04-30T10:58:02Z</time>
      </trkpt>
      <trkpt lat="44.76486" lon="3.35772">
        <ele>1033</ele>
        <time>2018-04-30T10:58:15Z</time>
      </trkpt>
      <trkpt lat="44.7643" lon="3.35716">
        <ele>1032</ele>
        <time>2018-04-30T10:59:34Z</time>
      </trkpt>
      <trkpt lat="44.76425" lon="3.35713">
        <ele>1032</ele>
        <time>2018-04-30T10:59:38Z</time>
      </trkpt>
      <trkpt lat="44.76414" lon="3.35711">
        <ele>1031</ele>
        <time>2018-04-30T10:59:46Z</time>
      </trkpt>
      <trkpt lat="44.76404" lon="3.35712">
        <ele>1031</ele>
        <time>2018-04-30T10:59:54Z</time>
      </trkpt>
      <trkpt lat="44.7637" lon="3.35708">
        <ele>1031</ele>
        <time>2018-04-30T11:00:23Z</time>
      </trkpt>
      <trkpt lat="44.76365" lon="3.35709">
        <ele>1031</ele>
        <time>2018-04-30T11:00:27Z</time>
      </trkpt>
      <trkpt lat="44.76354" lon="3.35707">
        <ele>1030</ele>
        <time>2018-04-30T11:00:35Z</time>
      </trkpt>
      <trkpt lat="44.76344" lon="3.35705">
        <ele>1030</ele>
        <time>2018-04-30T11:00:43Z</time>
      </trkpt>
      <trkpt lat="44.76339" lon="3.35706">
        <ele>1029</ele>
        <time>2018-04-30T11:00:47Z</time>
      </trkpt>
      <trkpt lat="44.76312" lon="3.35701">
        <ele>1028</ele>
        <time>2018-04-30T11:01:07Z</time>
      </trkpt>
      <trkpt lat="44.76307" lon="3.35699">
        <ele>1027</ele>
        <time>2018-04-30T11:01:11Z</time>
      </trkpt>
      <trkpt lat="44.76292" lon="3.357">
        <ele>1027</ele>
        <time>2018-04-30T11:01:23Z</time>
      </trkpt>
      <trkpt lat="44.76262" lon="3.35705">
        <ele>1026</ele>
        <time>2018-04-30T11:01:47Z</time>
      </trkpt>
      <trkpt lat="44.76217" lon="3.35702">
        <ele>1026</ele>
        <time>2018-04-30T11:02:29Z</time>
      </trkpt>
      <trkpt lat="44.76166" lon="3.35689">
        <ele>1026</ele>
        <time>2018-04-30T11:03:10Z</time>
      </trkpt>
      <trkpt lat="44.76135" lon="3.35697">
        <ele>1025</ele>
        <time>2018-04-30T11:03:36Z</time>
      </trkpt>
      <trkpt lat="44.7613" lon="3.35695">
        <ele>1024</ele>
        <time>2018-04-30T11:03:40Z</time>
      </trkpt>
      <trkpt lat="44.76126" lon="3.3569">
        <ele>1025</ele>
        <time>2018-04-30T11:03:45Z</time>
      </trkpt>
      <trkpt lat="44.76115" lon="3.35664">
        <ele>1025</ele>
        <time>2018-04-30T11:04:37Z</time>
      </trkpt>
      <trkpt lat="44.76117" lon="3.35655">
        <ele>1025</ele>
        <time>2018-04-30T11:04:47Z</time>
      </trkpt>
      <trkpt lat="44.76117" lon="3.35656">
        <ele>1028</ele>
        <time>2018-04-30T11:08:47Z</time>
      </trkpt>
      <trkpt lat="44.76111" lon="3.35648">
        <ele>1026</ele>
        <time>2018-04-30T11:25:47Z</time>
      </trkpt>
      <trkpt lat="44.7611" lon="3.3564">
        <ele>1026</ele>
        <time>2018-04-30T11:25:51Z</time>
      </trkpt>
      <trkpt lat="44.76114" lon="3.3563">
        <ele>1026</ele>
        <time>2018-04-30T11:25:58Z</time>
      </trkpt>
      <trkpt lat="44.76124" lon="3.35627">
        <ele>1024</ele>
        <time>2018-04-30T11:26:06Z</time>
      </trkpt>
      <trkpt lat="44.76126" lon="3.3562">
        <ele>1024</ele>
        <time>2018-04-30T11:26:11Z</time>
      </trkpt>
      <trkpt lat="44.76125" lon="3.35613">
        <ele>1024</ele>
        <time>2018-04-30T11:26:15Z</time>
      </trkpt>
      <trkpt lat="44.76118" lon="3.35595">
        <ele>1022</ele>
        <time>2018-04-30T11:26:25Z</time>
      </trkpt>
      <trkpt lat="44.76114" lon="3.3559">
        <ele>1022</ele>
        <time>2018-04-30T11:26:29Z</time>
      </trkpt>
      <trkpt lat="44.76104" lon="3.35585">
        <ele>1020</ele>
        <time>2018-04-30T11:26:37Z</time>
      </trkpt>
      <trkpt lat="44.76099" lon="3.35586">
        <ele>1020</ele>
        <time>2018-04-30T11:26:41Z</time>
      </trkpt>
      <trkpt lat="44.76094" lon="3.35587">
        <ele>1019</ele>
        <time>2018-04-30T11:26:45Z</time>
      </trkpt>
      <trkpt lat="44.76084" lon="3.35582">
        <ele>1018</ele>
        <time>2018-04-30T11:26:54Z</time>
      </trkpt>
      <trkpt lat="44.7607" lon="3.35581">
        <ele>1017</ele>
        <time>2018-04-30T11:27:06Z</time>
      </trkpt>
      <trkpt lat="44.7606" lon="3.35583">
        <ele>1016</ele>
        <time>2018-04-30T11:27:14Z</time>
      </trkpt>
      <trkpt lat="44.7605" lon="3.35588">
        <ele>1016</ele>
        <time>2018-04-30T11:27:24Z</time>
      </trkpt>
      <trkpt lat="44.76046" lon="3.35591">
        <ele>1015</ele>
        <time>2018-04-30T11:27:29Z</time>
      </trkpt>
      <trkpt lat="44.76035" lon="3.35596">
        <ele>1014</ele>
        <time>2018-04-30T11:27:39Z</time>
      </trkpt>
      <trkpt lat="44.76019" lon="3.35613">
        <ele>1014</ele>
        <time>2018-04-30T11:27:55Z</time>
      </trkpt>
      <trkpt lat="44.7601" lon="3.3562">
        <ele>1013</ele>
        <time>2018-04-30T11:28:04Z</time>
      </trkpt>
      <trkpt lat="44.76" lon="3.3562">
        <ele>1012</ele>
        <time>2018-04-30T11:28:13Z</time>
      </trkpt>
      <trkpt lat="44.75996" lon="3.35622">
        <ele>1012</ele>
        <time>2018-04-30T11:28:17Z</time>
      </trkpt>
      <trkpt lat="44.75991" lon="3.35627">
        <ele>1013</ele>
        <time>2018-04-30T11:28:21Z</time>
      </trkpt>
      <trkpt lat="44.75973" lon="3.35638">
        <ele>1013</ele>
        <time>2018-04-30T11:28:37Z</time>
      </trkpt>
      <trkpt lat="44.75964" lon="3.35645">
        <ele>1013</ele>
        <time>2018-04-30T11:28:45Z</time>
      </trkpt>
      <trkpt lat="44.75943" lon="3.35665">
        <ele>1014</ele>
        <time>2018-04-30T11:29:11Z</time>
      </trkpt>
      <trkpt lat="44.75938" lon="3.35667">
        <ele>1014</ele>
        <time>2018-04-30T11:29:16Z</time>
      </trkpt>
      <trkpt lat="44.75923" lon="3.35681">
        <ele>1016</ele>
        <time>2018-04-30T11:29:34Z</time>
      </trkpt>
      <trkpt lat="44.75904" lon="3.35693">
        <ele>1018</ele>
        <time>2018-04-30T11:29:51Z</time>
      </trkpt>
      <trkpt lat="44.75895" lon="3.357">
        <ele>1018</ele>
        <time>2018-04-30T11:29:59Z</time>
      </trkpt>
      <trkpt lat="44.7589" lon="3.35704">
        <ele>1018</ele>
        <time>2018-04-30T11:30:04Z</time>
      </trkpt>
      <trkpt lat="44.75868" lon="3.35717">
        <ele>1019</ele>
        <time>2018-04-30T11:30:23Z</time>
      </trkpt>
      <trkpt lat="44.75863" lon="3.35719">
        <ele>1019</ele>
        <time>2018-04-30T11:30:27Z</time>
      </trkpt>
      <trkpt lat="44.75769" lon="3.35771">
        <ele>1025</ele>
        <time>2018-04-30T11:31:53Z</time>
      </trkpt>
      <trkpt lat="44.75754" lon="3.35777">
        <ele>1025</ele>
        <time>2018-04-30T11:32:07Z</time>
      </trkpt>
      <trkpt lat="44.75747" lon="3.35779">
        <ele>1025</ele>
        <time>2018-04-30T11:32:18Z</time>
      </trkpt>
      <trkpt lat="44.75631" lon="3.35842">
        <ele>1029</ele>
        <time>2018-04-30T11:34:26Z</time>
      </trkpt>
      <trkpt lat="44.75612" lon="3.35845">
        <ele>1029</ele>
        <time>2018-04-30T11:34:42Z</time>
      </trkpt>
      <trkpt lat="44.75603" lon="3.35844">
        <ele>1028</ele>
        <time>2018-04-30T11:34:50Z</time>
      </trkpt>
      <trkpt lat="44.75598" lon="3.35845">
        <ele>1028</ele>
        <time>2018-04-30T11:34:55Z</time>
      </trkpt>
      <trkpt lat="44.75592" lon="3.35844">
        <ele>1028</ele>
        <time>2018-04-30T11:35:00Z</time>
      </trkpt>
      <trkpt lat="44.75588" lon="3.35845">
        <ele>1029</ele>
        <time>2018-04-30T11:35:04Z</time>
      </trkpt>
      <trkpt lat="44.75555" lon="3.35853">
        <ele>1030</ele>
        <time>2018-04-30T11:35:33Z</time>
      </trkpt>
      <trkpt lat="44.7555" lon="3.35856">
        <ele>1031</ele>
        <time>2018-04-30T11:35:41Z</time>
      </trkpt>
      <trkpt lat="44.75542" lon="3.35855">
        <ele>1033</ele>
        <time>2018-04-30T11:38:53Z</time>
      </trkpt>
      <trkpt lat="44.75532" lon="3.35855">
        <ele>1031</ele>
        <time>2018-04-30T11:39:04Z</time>
      </trkpt>
      <trkpt lat="44.75521" lon="3.35855">
        <ele>1030</ele>
        <time>2018-04-30T11:39:32Z</time>
      </trkpt>
      <trkpt lat="44.75487" lon="3.35848">
        <ele>1027</ele>
        <time>2018-04-30T11:40:07Z</time>
      </trkpt>
      <trkpt lat="44.75472" lon="3.35849">
        <ele>1027</ele>
        <time>2018-04-30T11:40:19Z</time>
      </trkpt>
      <trkpt lat="44.75467" lon="3.35849">
        <ele>1027</ele>
        <time>2018-04-30T11:40:24Z</time>
      </trkpt>
      <trkpt lat="44.75456" lon="3.35845">
        <ele>1027</ele>
        <time>2018-04-30T11:40:35Z</time>
      </trkpt>
      <trkpt lat="44.75441" lon="3.35847">
        <ele>1025</ele>
        <time>2018-04-30T11:40:47Z</time>
      </trkpt>
      <trkpt lat="44.75411" lon="3.35834">
        <ele>1024</ele>
        <time>2018-04-30T11:41:16Z</time>
      </trkpt>
      <trkpt lat="44.75407" lon="3.35831">
        <ele>1024</ele>
        <time>2018-04-30T11:41:29Z</time>
      </trkpt>
      <trkpt lat="44.75399" lon="3.35831">
        <ele>1024</ele>
        <time>2018-04-30T11:41:39Z</time>
      </trkpt>
      <trkpt lat="44.75389" lon="3.35829">
        <ele>1024</ele>
        <time>2018-04-30T11:41:47Z</time>
      </trkpt>
      <trkpt lat="44.75383" lon="3.3583">
        <ele>1024</ele>
        <time>2018-04-30T11:41:52Z</time>
      </trkpt>
      <trkpt lat="44.75371" lon="3.35825">
        <ele>1025</ele>
        <time>2018-04-30T11:42:08Z</time>
      </trkpt>
      <trkpt lat="44.75367" lon="3.35821">
        <ele>1025</ele>
        <time>2018-04-30T11:42:12Z</time>
      </trkpt>
      <trkpt lat="44.75362" lon="3.35812">
        <ele>1026</ele>
        <time>2018-04-30T11:42:35Z</time>
      </trkpt>
      <trkpt lat="44.75338" lon="3.35784">
        <ele>1026</ele>
        <time>2018-04-30T11:42:59Z</time>
      </trkpt>
      <trkpt lat="44.75308" lon="3.35737">
        <ele>1026</ele>
        <time>2018-04-30T11:43:36Z</time>
      </trkpt>
      <trkpt lat="44.75279" lon="3.3571">
        <ele>1027</ele>
        <time>2018-04-30T11:44:03Z</time>
      </trkpt>
      <trkpt lat="44.75264" lon="3.357">
        <ele>1028</ele>
        <time>2018-04-30T11:44:15Z</time>
      </trkpt>
      <trkpt lat="44.75261" lon="3.35695">
        <ele>1029</ele>
        <time>2018-04-30T11:44:19Z</time>
      </trkpt>
      <trkpt lat="44.75254" lon="3.35684">
        <ele>1028</ele>
        <time>2018-04-30T11:44:28Z</time>
      </trkpt>
      <trkpt lat="44.75239" lon="3.35667">
        <ele>1029</ele>
        <time>2018-04-30T11:44:44Z</time>
      </trkpt>
      <trkpt lat="44.75235" lon="3.35662">
        <ele>1029</ele>
        <time>2018-04-30T11:44:48Z</time>
      </trkpt>
      <trkpt lat="44.75215" lon="3.35639">
        <ele>1030</ele>
        <time>2018-04-30T11:45:08Z</time>
      </trkpt>
      <trkpt lat="44.75197" lon="3.35625">
        <ele>1030</ele>
        <time>2018-04-30T11:45:25Z</time>
      </trkpt>
      <trkpt lat="44.75186" lon="3.35611">
        <ele>1031</ele>
        <time>2018-04-30T11:45:39Z</time>
      </trkpt>
      <trkpt lat="44.75181" lon="3.35607">
        <ele>1031</ele>
        <time>2018-04-30T11:45:43Z</time>
      </trkpt>
      <trkpt lat="44.75174" lon="3.35598">
        <ele>1032</ele>
        <time>2018-04-30T11:45:57Z</time>
      </trkpt>
      <trkpt lat="44.7517" lon="3.35584">
        <ele>1033</ele>
        <time>2018-04-30T11:46:08Z</time>
      </trkpt>
      <trkpt lat="44.75167" lon="3.35578">
        <ele>1033</ele>
        <time>2018-04-30T11:46:12Z</time>
      </trkpt>
      <trkpt lat="44.7516" lon="3.35556">
        <ele>1034</ele>
        <time>2018-04-30T11:46:29Z</time>
      </trkpt>
      <trkpt lat="44.75144" lon="3.35538">
        <ele>1034</ele>
        <time>2018-04-30T11:46:45Z</time>
      </trkpt>
      <trkpt lat="44.7514" lon="3.35534">
        <ele>1033</ele>
        <time>2018-04-30T11:46:50Z</time>
      </trkpt>
      <trkpt lat="44.75132" lon="3.35524">
        <ele>1034</ele>
        <time>2018-04-30T11:47:00Z</time>
      </trkpt>
      <trkpt lat="44.75127" lon="3.35522">
        <ele>1034</ele>
        <time>2018-04-30T11:47:03Z</time>
      </trkpt>
      <trkpt lat="44.75119" lon="3.3552">
        <ele>1035</ele>
        <time>2018-04-30T11:47:24Z</time>
      </trkpt>
      <trkpt lat="44.75115" lon="3.35517">
        <ele>1035</ele>
        <time>2018-04-30T11:47:27Z</time>
      </trkpt>
      <trkpt lat="44.75001" lon="3.35452">
        <ele>1033</ele>
        <time>2018-04-30T11:49:04Z</time>
      </trkpt>
      <trkpt lat="44.74997" lon="3.35448">
        <ele>1034</ele>
        <time>2018-04-30T11:49:08Z</time>
      </trkpt>
      <trkpt lat="44.74983" lon="3.35443">
        <ele>1033</ele>
        <time>2018-04-30T11:49:21Z</time>
      </trkpt>
      <trkpt lat="44.74972" lon="3.3544">
        <ele>1034</ele>
        <time>2018-04-30T11:49:55Z</time>
      </trkpt>
      <trkpt lat="44.74951" lon="3.35434">
        <ele>1033</ele>
        <time>2018-04-30T11:50:12Z</time>
      </trkpt>
      <trkpt lat="44.74931" lon="3.3542">
        <ele>1033</ele>
        <time>2018-04-30T11:50:28Z</time>
      </trkpt>
      <trkpt lat="44.74907" lon="3.35393">
        <ele>1032</ele>
        <time>2018-04-30T11:50:52Z</time>
      </trkpt>
      <trkpt lat="44.74876" lon="3.35346">
        <ele>1029</ele>
        <time>2018-04-30T11:51:29Z</time>
      </trkpt>
      <trkpt lat="44.74866" lon="3.35329">
        <ele>1028</ele>
        <time>2018-04-30T11:51:41Z</time>
      </trkpt>
      <trkpt lat="44.74853" lon="3.35282">
        <ele>1027</ele>
        <time>2018-04-30T11:52:10Z</time>
      </trkpt>
      <trkpt lat="44.74835" lon="3.35248">
        <ele>1023</ele>
        <time>2018-04-30T11:52:36Z</time>
      </trkpt>
      <trkpt lat="44.74832" lon="3.35242">
        <ele>1024</ele>
        <time>2018-04-30T11:52:39Z</time>
      </trkpt>
      <trkpt lat="44.74828" lon="3.35238">
        <ele>1023</ele>
        <time>2018-04-30T11:52:44Z</time>
      </trkpt>
      <trkpt lat="44.74825" lon="3.3523">
        <ele>1023</ele>
        <time>2018-04-30T11:53:05Z</time>
      </trkpt>
      <trkpt lat="44.74822" lon="3.35225">
        <ele>1022</ele>
        <time>2018-04-30T11:53:09Z</time>
      </trkpt>
      <trkpt lat="44.74801" lon="3.35184">
        <ele>1021</ele>
        <time>2018-04-30T11:54:28Z</time>
      </trkpt>
      <trkpt lat="44.74797" lon="3.35178">
        <ele>1020</ele>
        <time>2018-04-30T11:54:34Z</time>
      </trkpt>
      <trkpt lat="44.74789" lon="3.35159">
        <ele>1021</ele>
        <time>2018-04-30T11:54:45Z</time>
      </trkpt>
      <trkpt lat="44.74785" lon="3.35154">
        <ele>1020</ele>
        <time>2018-04-30T11:54:49Z</time>
      </trkpt>
      <trkpt lat="44.74782" lon="3.35147">
        <ele>1020</ele>
        <time>2018-04-30T11:54:54Z</time>
      </trkpt>
      <trkpt lat="44.74722" lon="3.35081">
        <ele>1022</ele>
        <time>2018-04-30T11:55:58Z</time>
      </trkpt>
      <trkpt lat="44.74705" lon="3.35068">
        <ele>1022</ele>
        <time>2018-04-30T11:56:14Z</time>
      </trkpt>
      <trkpt lat="44.74696" lon="3.35063">
        <ele>1022</ele>
        <time>2018-04-30T11:56:22Z</time>
      </trkpt>
      <trkpt lat="44.74664" lon="3.35039">
        <ele>1021</ele>
        <time>2018-04-30T11:56:50Z</time>
      </trkpt>
      <trkpt lat="44.74651" lon="3.35032">
        <ele>1021</ele>
        <time>2018-04-30T11:57:02Z</time>
      </trkpt>
      <trkpt lat="44.74645" lon="3.35032">
        <ele>1021</ele>
        <time>2018-04-30T11:57:06Z</time>
      </trkpt>
      <trkpt lat="44.74637" lon="3.35024">
        <ele>1021</ele>
        <time>2018-04-30T11:57:14Z</time>
      </trkpt>
      <trkpt lat="44.74627" lon="3.35021">
        <ele>1021</ele>
        <time>2018-04-30T11:57:22Z</time>
      </trkpt>
      <trkpt lat="44.74623" lon="3.35018">
        <ele>1021</ele>
        <time>2018-04-30T11:57:27Z</time>
      </trkpt>
      <trkpt lat="44.74617" lon="3.3502">
        <ele>1023</ele>
        <time>2018-04-30T11:57:40Z</time>
      </trkpt>
      <trkpt lat="44.74613" lon="3.3502">
        <ele>1022</ele>
        <time>2018-04-30T11:57:43Z</time>
      </trkpt>
      <trkpt lat="44.74592" lon="3.35016">
        <ele>1022</ele>
        <time>2018-04-30T11:57:57Z</time>
      </trkpt>
      <trkpt lat="44.74559" lon="3.35017">
        <ele>1022</ele>
        <time>2018-04-30T11:58:21Z</time>
      </trkpt>
      <trkpt lat="44.74545" lon="3.3502">
        <ele>1022</ele>
        <time>2018-04-30T11:58:36Z</time>
      </trkpt>
      <trkpt lat="44.74536" lon="3.35026">
        <ele>1022</ele>
        <time>2018-04-30T11:58:46Z</time>
      </trkpt>
      <trkpt lat="44.74521" lon="3.3503">
        <ele>1021</ele>
        <time>2018-04-30T11:58:58Z</time>
      </trkpt>
      <trkpt lat="44.74508" lon="3.35042">
        <ele>1021</ele>
        <time>2018-04-30T11:59:10Z</time>
      </trkpt>
      <trkpt lat="44.74501" lon="3.35054">
        <ele>1020</ele>
        <time>2018-04-30T11:59:18Z</time>
      </trkpt>
      <trkpt lat="44.74498" lon="3.3506">
        <ele>1021</ele>
        <time>2018-04-30T11:59:22Z</time>
      </trkpt>
      <trkpt lat="44.74475" lon="3.35095">
        <ele>1019</ele>
        <time>2018-04-30T11:59:51Z</time>
      </trkpt>
      <trkpt lat="44.74473" lon="3.35103">
        <ele>1020</ele>
        <time>2018-04-30T12:00:00Z</time>
      </trkpt>
      <trkpt lat="44.74468" lon="3.35115">
        <ele>1019</ele>
        <time>2018-04-30T12:00:08Z</time>
      </trkpt>
      <trkpt lat="44.74467" lon="3.35122">
        <ele>1019</ele>
        <time>2018-04-30T12:00:12Z</time>
      </trkpt>
      <trkpt lat="44.74457" lon="3.35154">
        <ele>1017</ele>
        <time>2018-04-30T12:00:32Z</time>
      </trkpt>
      <trkpt lat="44.74453" lon="3.35198">
        <ele>1013</ele>
        <time>2018-04-30T12:00:58Z</time>
      </trkpt>
      <trkpt lat="44.74421" lon="3.35263">
        <ele>1008</ele>
        <time>2018-04-30T12:01:42Z</time>
      </trkpt>
      <trkpt lat="44.74416" lon="3.35266">
        <ele>1008</ele>
        <time>2018-04-30T12:01:46Z</time>
      </trkpt>
      <trkpt lat="44.74405" lon="3.35282">
        <ele>1007</ele>
        <time>2018-04-30T12:01:58Z</time>
      </trkpt>
      <trkpt lat="44.74403" lon="3.35289">
        <ele>1006</ele>
        <time>2018-04-30T12:02:02Z</time>
      </trkpt>
      <trkpt lat="44.744" lon="3.35293">
        <ele>1005</ele>
        <time>2018-04-30T12:02:06Z</time>
      </trkpt>
      <trkpt lat="44.74399" lon="3.35302">
        <ele>1005</ele>
        <time>2018-04-30T12:02:23Z</time>
      </trkpt>
      <trkpt lat="44.74402" lon="3.35307">
        <ele>1004</ele>
        <time>2018-04-30T12:02:27Z</time>
      </trkpt>
      <trkpt lat="44.74409" lon="3.35315">
        <ele>1003</ele>
        <time>2018-04-30T12:02:36Z</time>
      </trkpt>
      <trkpt lat="44.74411" lon="3.35322">
        <ele>1002</ele>
        <time>2018-04-30T12:02:41Z</time>
      </trkpt>
      <trkpt lat="44.7441" lon="3.3533">
        <ele>1001</ele>
        <time>2018-04-30T12:02:46Z</time>
      </trkpt>
      <trkpt lat="44.74401" lon="3.35339">
        <ele>1000</ele>
        <time>2018-04-30T12:03:01Z</time>
      </trkpt>
      <trkpt lat="44.74371" lon="3.35335">
        <ele>997</ele>
        <time>2018-04-30T12:03:30Z</time>
      </trkpt>
      <trkpt lat="44.74368" lon="3.35331">
        <ele>996</ele>
        <time>2018-04-30T12:03:34Z</time>
      </trkpt>
      <trkpt lat="44.74362" lon="3.35329">
        <ele>995</ele>
        <time>2018-04-30T12:03:39Z</time>
      </trkpt>
      <trkpt lat="44.74352" lon="3.35326">
        <ele>993</ele>
        <time>2018-04-30T12:03:49Z</time>
      </trkpt>
      <trkpt lat="44.74348" lon="3.35322">
        <ele>993</ele>
        <time>2018-04-30T12:03:53Z</time>
      </trkpt>
      <trkpt lat="44.74343" lon="3.35318">
        <ele>992</ele>
        <time>2018-04-30T12:03:57Z</time>
      </trkpt>
      <trkpt lat="44.74332" lon="3.35316">
        <ele>992</ele>
        <time>2018-04-30T12:04:05Z</time>
      </trkpt>
      <trkpt lat="44.74328" lon="3.35313">
        <ele>991</ele>
        <time>2018-04-30T12:04:09Z</time>
      </trkpt>
      <trkpt lat="44.74323" lon="3.35314">
        <ele>989</ele>
        <time>2018-04-30T12:04:18Z</time>
      </trkpt>
      <trkpt lat="44.74318" lon="3.35311">
        <ele>989</ele>
        <time>2018-04-30T12:04:25Z</time>
      </trkpt>
      <trkpt lat="44.7431" lon="3.35307">
        <ele>987</ele>
        <time>2018-04-30T12:04:39Z</time>
      </trkpt>
      <trkpt lat="44.74294" lon="3.35305">
        <ele>984</ele>
        <time>2018-04-30T12:05:11Z</time>
      </trkpt>
      <trkpt lat="44.74294" lon="3.35297">
        <ele>984</ele>
        <time>2018-04-30T12:05:23Z</time>
      </trkpt>
      <trkpt lat="44.74285" lon="3.35295">
        <ele>983</ele>
        <time>2018-04-30T12:05:34Z</time>
      </trkpt>
      <trkpt lat="44.74281" lon="3.35296">
        <ele>981</ele>
        <time>2018-04-30T12:05:43Z</time>
      </trkpt>
      <trkpt lat="44.74272" lon="3.35299">
        <ele>979</ele>
        <time>2018-04-30T12:06:42Z</time>
      </trkpt>
      <trkpt lat="44.7425" lon="3.35298">
        <ele>974</ele>
        <time>2018-04-30T12:07:13Z</time>
      </trkpt>
      <trkpt lat="44.74235" lon="3.35303">
        <ele>970</ele>
        <time>2018-04-30T12:07:35Z</time>
      </trkpt>
      <trkpt lat="44.74225" lon="3.35302">
        <ele>969</ele>
        <time>2018-04-30T12:07:43Z</time>
      </trkpt>
      <trkpt lat="44.7422" lon="3.35304">
        <ele>968</ele>
        <time>2018-04-30T12:07:48Z</time>
      </trkpt>
      <trkpt lat="44.74203" lon="3.35303">
        <ele>964</ele>
        <time>2018-04-30T12:08:09Z</time>
      </trkpt>
      <trkpt lat="44.74183" lon="3.35305">
        <ele>961</ele>
        <time>2018-04-30T12:08:27Z</time>
      </trkpt>
      <trkpt lat="44.74173" lon="3.35302">
        <ele>960</ele>
        <time>2018-04-30T12:08:35Z</time>
      </trkpt>
      <trkpt lat="44.74163" lon="3.35302">
        <ele>958</ele>
        <time>2018-04-30T12:08:43Z</time>
      </trkpt>
      <trkpt lat="44.74159" lon="3.35306">
        <ele>957</ele>
        <time>2018-04-30T12:08:48Z</time>
      </trkpt>
      <trkpt lat="44.74148" lon="3.35309">
        <ele>955</ele>
        <time>2018-04-30T12:08:57Z</time>
      </trkpt>
      <trkpt lat="44.74144" lon="3.35314">
        <ele>954</ele>
        <time>2018-04-30T12:09:02Z</time>
      </trkpt>
      <trkpt lat="44.74137" lon="3.3531">
        <ele>953</ele>
        <time>2018-04-30T12:09:26Z</time>
      </trkpt>
      <trkpt lat="44.74122" lon="3.35285">
        <ele>950</ele>
        <time>2018-04-30T12:09:49Z</time>
      </trkpt>
      <trkpt lat="44.74123" lon="3.35278">
        <ele>950</ele>
        <time>2018-04-30T12:09:53Z</time>
      </trkpt>
      <trkpt lat="44.74122" lon="3.35264">
        <ele>950</ele>
        <time>2018-04-30T12:10:03Z</time>
      </trkpt>
      <trkpt lat="44.74121" lon="3.35269">
        <ele>949</ele>
        <time>2018-04-30T12:10:38Z</time>
      </trkpt>
      <trkpt lat="44.74117" lon="3.35273">
        <ele>950</ele>
        <time>2018-04-30T12:10:47Z</time>
      </trkpt>
      <trkpt lat="44.74108" lon="3.35266">
        <ele>947</ele>
        <time>2018-04-30T12:11:05Z</time>
      </trkpt>
      <trkpt lat="44.74107" lon="3.35258">
        <ele>947</ele>
        <time>2018-04-30T12:11:17Z</time>
      </trkpt>
      <trkpt lat="44.74107" lon="3.35251">
        <ele>948</ele>
        <time>2018-04-30T12:11:41Z</time>
      </trkpt>
      <trkpt lat="44.74112" lon="3.35251">
        <ele>947</ele>
        <time>2018-04-30T12:11:53Z</time>
      </trkpt>
      <trkpt lat="44.74112" lon="3.35263">
        <ele>949</ele>
        <time>2018-04-30T12:14:29Z</time>
      </trkpt>
      <trkpt lat="44.74115" lon="3.35267">
        <ele>949</ele>
        <time>2018-04-30T12:14:38Z</time>
      </trkpt>
      <trkpt lat="44.74119" lon="3.35271">
        <ele>951</ele>
        <time>2018-04-30T12:14:50Z</time>
      </trkpt>
      <trkpt lat="44.74123" lon="3.35279">
        <ele>954</ele>
        <time>2018-04-30T12:15:02Z</time>
      </trkpt>
      <trkpt lat="44.74123" lon="3.35286">
        <ele>954</ele>
        <time>2018-04-30T12:15:06Z</time>
      </trkpt>
      <trkpt lat="44.74117" lon="3.35319">
        <ele>951</ele>
        <time>2018-04-30T12:15:27Z</time>
      </trkpt>
      <trkpt lat="44.74112" lon="3.35323">
        <ele>950</ele>
        <time>2018-04-30T12:15:32Z</time>
      </trkpt>
      <trkpt lat="44.74107" lon="3.35319">
        <ele>949</ele>
        <time>2018-04-30T12:15:36Z</time>
      </trkpt>
      <trkpt lat="44.74104" lon="3.35305">
        <ele>949</ele>
        <time>2018-04-30T12:15:44Z</time>
      </trkpt>
      <trkpt lat="44.74103" lon="3.35298">
        <ele>949</ele>
        <time>2018-04-30T12:15:48Z</time>
      </trkpt>
      <trkpt lat="44.74102" lon="3.35292">
        <ele>949</ele>
        <time>2018-04-30T12:15:52Z</time>
      </trkpt>
      <trkpt lat="44.74098" lon="3.35286">
        <ele>948</ele>
        <time>2018-04-30T12:15:56Z</time>
      </trkpt>
      <trkpt lat="44.74095" lon="3.35276">
        <ele>947</ele>
        <time>2018-04-30T12:16:22Z</time>
      </trkpt>
      <trkpt lat="44.74096" lon="3.35224">
        <ele>945</ele>
        <time>2018-04-30T12:16:57Z</time>
      </trkpt>
      <trkpt lat="44.74098" lon="3.35218">
        <ele>945</ele>
        <time>2018-04-30T12:17:02Z</time>
      </trkpt>
      <trkpt lat="44.74099" lon="3.35211">
        <ele>946</ele>
        <time>2018-04-30T12:17:06Z</time>
      </trkpt>
      <trkpt lat="44.74097" lon="3.35184">
        <ele>945</ele>
        <time>2018-04-30T12:17:23Z</time>
      </trkpt>
      <trkpt lat="44.74099" lon="3.35171">
        <ele>944</ele>
        <time>2018-04-30T12:17:31Z</time>
      </trkpt>
      <trkpt lat="44.74099" lon="3.35138">
        <ele>942</ele>
        <time>2018-04-30T12:18:09Z</time>
      </trkpt>
      <trkpt lat="44.74099" lon="3.3513">
        <ele>942</ele>
        <time>2018-04-30T12:18:13Z</time>
      </trkpt>
      <trkpt lat="44.74095" lon="3.35108">
        <ele>941</ele>
        <time>2018-04-30T12:18:25Z</time>
      </trkpt>
      <trkpt lat="44.74093" lon="3.35102">
        <ele>940</ele>
        <time>2018-04-30T12:18:30Z</time>
      </trkpt>
      <trkpt lat="44.7409" lon="3.35097">
        <ele>940</ele>
        <time>2018-04-30T12:18:35Z</time>
      </trkpt>
      <trkpt lat="44.7408" lon="3.35089">
        <ele>939</ele>
        <time>2018-04-30T12:18:43Z</time>
      </trkpt>
      <trkpt lat="44.7402" lon="3.35011">
        <ele>935</ele>
        <time>2018-04-30T12:19:52Z</time>
      </trkpt>
      <trkpt lat="44.74009" lon="3.34989">
        <ele>935</ele>
        <time>2018-04-30T12:20:09Z</time>
      </trkpt>
      <trkpt lat="44.74007" lon="3.34983">
        <ele>935</ele>
        <time>2018-04-30T12:20:14Z</time>
      </trkpt>
      <trkpt lat="44.74007" lon="3.34962">
        <ele>934</ele>
        <time>2018-04-30T12:20:28Z</time>
      </trkpt>
      <trkpt lat="44.74005" lon="3.34955">
        <ele>934</ele>
        <time>2018-04-30T12:20:35Z</time>
      </trkpt>
      <trkpt lat="44.74003" lon="3.3495">
        <ele>934</ele>
        <time>2018-04-30T12:20:39Z</time>
      </trkpt>
      <trkpt lat="44.74005" lon="3.34945">
        <ele>934</ele>
        <time>2018-04-30T12:20:47Z</time>
      </trkpt>
      <trkpt lat="44.74" lon="3.34942">
        <ele>935</ele>
        <time>2018-04-30T12:20:57Z</time>
      </trkpt>
      <trkpt lat="44.73994" lon="3.34931">
        <ele>934</ele>
        <time>2018-04-30T12:21:05Z</time>
      </trkpt>
      <trkpt lat="44.73987" lon="3.34913">
        <ele>934</ele>
        <time>2018-04-30T12:21:17Z</time>
      </trkpt>
      <trkpt lat="44.73986" lon="3.34906">
        <ele>934</ele>
        <time>2018-04-30T12:21:21Z</time>
      </trkpt>
      <trkpt lat="44.73987" lon="3.34898">
        <ele>934</ele>
        <time>2018-04-30T12:21:25Z</time>
      </trkpt>
      <trkpt lat="44.74017" lon="3.34835">
        <ele>935</ele>
        <time>2018-04-30T12:22:18Z</time>
      </trkpt>
      <trkpt lat="44.74019" lon="3.34829">
        <ele>934</ele>
        <time>2018-04-30T12:22:25Z</time>
      </trkpt>
      <trkpt lat="44.74022" lon="3.34824">
        <ele>934</ele>
        <time>2018-04-30T12:22:30Z</time>
      </trkpt>
      <trkpt lat="44.74024" lon="3.34815">
        <ele>934</ele>
        <time>2018-04-30T12:22:38Z</time>
      </trkpt>
      <trkpt lat="44.74029" lon="3.34811">
        <ele>934</ele>
        <time>2018-04-30T12:22:50Z</time>
      </trkpt>
      <trkpt lat="44.74036" lon="3.34801">
        <ele>934</ele>
        <time>2018-04-30T12:23:00Z</time>
      </trkpt>
      <trkpt lat="44.74052" lon="3.34783">
        <ele>934</ele>
        <time>2018-04-30T12:23:19Z</time>
      </trkpt>
      <trkpt lat="44.74058" lon="3.3477">
        <ele>934</ele>
        <time>2018-04-30T12:23:29Z</time>
      </trkpt>
      <trkpt lat="44.74058" lon="3.34763">
        <ele>934</ele>
        <time>2018-04-30T12:23:34Z</time>
      </trkpt>
      <trkpt lat="44.74058" lon="3.3475">
        <ele>934</ele>
        <time>2018-04-30T12:23:44Z</time>
      </trkpt>
      <trkpt lat="44.74059" lon="3.34743">
        <ele>935</ele>
        <time>2018-04-30T12:23:51Z</time>
      </trkpt>
      <trkpt lat="44.74056" lon="3.34736">
        <ele>935</ele>
        <time>2018-04-30T12:23:57Z</time>
      </trkpt>
      <trkpt lat="44.74054" lon="3.3473">
        <ele>936</ele>
        <time>2018-04-30T12:24:02Z</time>
      </trkpt>
      <trkpt lat="44.74055" lon="3.34723">
        <ele>936</ele>
        <time>2018-04-30T12:24:07Z</time>
      </trkpt>
      <trkpt lat="44.74064" lon="3.34706">
        <ele>938</ele>
        <time>2018-04-30T12:24:22Z</time>
      </trkpt>
      <trkpt lat="44.74086" lon="3.34624">
        <ele>943</ele>
        <time>2018-04-30T12:25:25Z</time>
      </trkpt>
      <trkpt lat="44.74087" lon="3.34617">
        <ele>943</ele>
        <time>2018-04-30T12:25:30Z</time>
      </trkpt>
      <trkpt lat="44.74086" lon="3.34597">
        <ele>946</ele>
        <time>2018-04-30T12:25:50Z</time>
      </trkpt>
      <trkpt lat="44.74085" lon="3.34588">
        <ele>948</ele>
        <time>2018-04-30T12:26:02Z</time>
      </trkpt>
      <trkpt lat="44.74085" lon="3.34581">
        <ele>948</ele>
        <time>2018-04-30T12:26:14Z</time>
      </trkpt>
      <trkpt lat="44.74083" lon="3.34573">
        <ele>949</ele>
        <time>2018-04-30T12:26:22Z</time>
      </trkpt>
      <trkpt lat="44.74079" lon="3.34568">
        <ele>949</ele>
        <time>2018-04-30T12:26:28Z</time>
      </trkpt>
      <trkpt lat="44.74062" lon="3.34552">
        <ele>952</ele>
        <time>2018-04-30T12:26:51Z</time>
      </trkpt>
      <trkpt lat="44.74055" lon="3.34548">
        <ele>953</ele>
        <time>2018-04-30T12:26:58Z</time>
      </trkpt>
      <trkpt lat="44.74051" lon="3.34547">
        <ele>953</ele>
        <time>2018-04-30T12:27:02Z</time>
      </trkpt>
      <trkpt lat="44.74044" lon="3.34548">
        <ele>954</ele>
        <time>2018-04-30T12:27:10Z</time>
      </trkpt>
      <trkpt lat="44.74031" lon="3.34543">
        <ele>956</ele>
        <time>2018-04-30T12:27:25Z</time>
      </trkpt>
      <trkpt lat="44.74027" lon="3.34545">
        <ele>957</ele>
        <time>2018-04-30T12:27:31Z</time>
      </trkpt>
      <trkpt lat="44.74001" lon="3.34547">
        <ele>959</ele>
        <time>2018-04-30T12:28:01Z</time>
      </trkpt>
      <trkpt lat="44.73969" lon="3.34561">
        <ele>962</ele>
        <time>2018-04-30T12:28:34Z</time>
      </trkpt>
      <trkpt lat="44.73965" lon="3.34564">
        <ele>962</ele>
        <time>2018-04-30T12:28:38Z</time>
      </trkpt>
      <trkpt lat="44.73953" lon="3.34576">
        <ele>964</ele>
        <time>2018-04-30T12:29:08Z</time>
      </trkpt>
      <trkpt lat="44.73948" lon="3.34578">
        <ele>964</ele>
        <time>2018-04-30T12:29:13Z</time>
      </trkpt>
      <trkpt lat="44.73942" lon="3.34577">
        <ele>965</ele>
        <time>2018-04-30T12:29:21Z</time>
      </trkpt>
      <trkpt lat="44.73937" lon="3.34575">
        <ele>966</ele>
        <time>2018-04-30T12:29:26Z</time>
      </trkpt>
      <trkpt lat="44.73909" lon="3.3455">
        <ele>971</ele>
        <time>2018-04-30T12:29:59Z</time>
      </trkpt>
      <trkpt lat="44.73899" lon="3.34537">
        <ele>974</ele>
        <time>2018-04-30T12:30:19Z</time>
      </trkpt>
      <trkpt lat="44.73881" lon="3.34524">
        <ele>978</ele>
        <time>2018-04-30T12:30:39Z</time>
      </trkpt>
      <trkpt lat="44.73878" lon="3.34519">
        <ele>979</ele>
        <time>2018-04-30T12:30:44Z</time>
      </trkpt>
      <trkpt lat="44.73869" lon="3.34512">
        <ele>981</ele>
        <time>2018-04-30T12:31:02Z</time>
      </trkpt>
      <trkpt lat="44.73856" lon="3.34499">
        <ele>983</ele>
        <time>2018-04-30T12:31:31Z</time>
      </trkpt>
      <trkpt lat="44.73851" lon="3.34497">
        <ele>983</ele>
        <time>2018-04-30T12:31:37Z</time>
      </trkpt>
      <trkpt lat="44.73825" lon="3.3448">
        <ele>986</ele>
        <time>2018-04-30T12:32:09Z</time>
      </trkpt>
      <trkpt lat="44.73809" lon="3.34466">
        <ele>989</ele>
        <time>2018-04-30T12:32:27Z</time>
      </trkpt>
      <trkpt lat="44.738" lon="3.3446">
        <ele>988</ele>
        <time>2018-04-30T12:32:36Z</time>
      </trkpt>
      <trkpt lat="44.73791" lon="3.34452">
        <ele>989</ele>
        <time>2018-04-30T12:32:46Z</time>
      </trkpt>
      <trkpt lat="44.73788" lon="3.34448">
        <ele>988</ele>
        <time>2018-04-30T12:32:51Z</time>
      </trkpt>
      <trkpt lat="44.73773" lon="3.34437">
        <ele>990</ele>
        <time>2018-04-30T12:33:06Z</time>
      </trkpt>
      <trkpt lat="44.73767" lon="3.34437">
        <ele>992</ele>
        <time>2018-04-30T12:33:16Z</time>
      </trkpt>
      <trkpt lat="44.73764" lon="3.34427">
        <ele>992</ele>
        <time>2018-04-30T12:33:44Z</time>
      </trkpt>
      <trkpt lat="44.73756" lon="3.34416">
        <ele>993</ele>
        <time>2018-04-30T12:33:52Z</time>
      </trkpt>
      <trkpt lat="44.73752" lon="3.34415">
        <ele>994</ele>
        <time>2018-04-30T12:34:02Z</time>
      </trkpt>
      <trkpt lat="44.73745" lon="3.34403">
        <ele>995</ele>
        <time>2018-04-30T12:34:23Z</time>
      </trkpt>
      <trkpt lat="44.73739" lon="3.34395">
        <ele>996</ele>
        <time>2018-04-30T12:34:31Z</time>
      </trkpt>
      <trkpt lat="44.73731" lon="3.34367">
        <ele>998</ele>
        <time>2018-04-30T12:34:49Z</time>
      </trkpt>
      <trkpt lat="44.73701" lon="3.34317">
        <ele>1003</ele>
        <time>2018-04-30T12:35:25Z</time>
      </trkpt>
      <trkpt lat="44.73695" lon="3.34299">
        <ele>1003</ele>
        <time>2018-04-30T12:35:37Z</time>
      </trkpt>
      <trkpt lat="44.73639" lon="3.34205">
        <ele>996</ele>
        <time>2018-04-30T12:36:48Z</time>
      </trkpt>
      <trkpt lat="44.73608" lon="3.34129">
        <ele>995</ele>
        <time>2018-04-30T12:37:36Z</time>
      </trkpt>
      <trkpt lat="44.73595" lon="3.34108">
        <ele>995</ele>
        <time>2018-04-30T12:37:58Z</time>
      </trkpt>
      <trkpt lat="44.73579" lon="3.34109">
        <ele>994</ele>
        <time>2018-04-30T12:38:14Z</time>
      </trkpt>
      <trkpt lat="44.73569" lon="3.34103">
        <ele>993</ele>
        <time>2018-04-30T12:38:23Z</time>
      </trkpt>
      <trkpt lat="44.73562" lon="3.34094">
        <ele>991</ele>
        <time>2018-04-30T12:38:34Z</time>
      </trkpt>
      <trkpt lat="44.7352" lon="3.3406">
        <ele>984</ele>
        <time>2018-04-30T12:39:14Z</time>
      </trkpt>
      <trkpt lat="44.73443" lon="3.3401">
        <ele>981</ele>
        <time>2018-04-30T12:40:27Z</time>
      </trkpt>
      <trkpt lat="44.73434" lon="3.34006">
        <ele>981</ele>
        <time>2018-04-30T12:40:35Z</time>
      </trkpt>
      <trkpt lat="44.73413" lon="3.34002">
        <ele>980</ele>
        <time>2018-04-30T12:40:53Z</time>
      </trkpt>
      <trkpt lat="44.73405" lon="3.33994">
        <ele>978</ele>
        <time>2018-04-30T12:41:01Z</time>
      </trkpt>
      <trkpt lat="44.73403" lon="3.33988">
        <ele>978</ele>
        <time>2018-04-30T12:41:05Z</time>
      </trkpt>
      <trkpt lat="44.7341" lon="3.33961">
        <ele>977</ele>
        <time>2018-04-30T12:41:21Z</time>
      </trkpt>
      <trkpt lat="44.73414" lon="3.33931">
        <ele>977</ele>
        <time>2018-04-30T12:41:40Z</time>
      </trkpt>
      <trkpt lat="44.73412" lon="3.33897">
        <ele>979</ele>
        <time>2018-04-30T12:42:02Z</time>
      </trkpt>
      <trkpt lat="44.73413" lon="3.33876">
        <ele>978</ele>
        <time>2018-04-30T12:42:14Z</time>
      </trkpt>
      <trkpt lat="44.73417" lon="3.33862">
        <ele>978</ele>
        <time>2018-04-30T12:42:23Z</time>
      </trkpt>
      <trkpt lat="44.73422" lon="3.33852">
        <ele>978</ele>
        <time>2018-04-30T12:42:31Z</time>
      </trkpt>
      <trkpt lat="44.7343" lon="3.33843">
        <ele>979</ele>
        <time>2018-04-30T12:42:40Z</time>
      </trkpt>
      <trkpt lat="44.73438" lon="3.33836">
        <ele>980</ele>
        <time>2018-04-30T12:42:48Z</time>
      </trkpt>
      <trkpt lat="44.73449" lon="3.33822">
        <ele>981</ele>
        <time>2018-04-30T12:43:01Z</time>
      </trkpt>
      <trkpt lat="44.73451" lon="3.33816">
        <ele>981</ele>
        <time>2018-04-30T12:43:05Z</time>
      </trkpt>
      <trkpt lat="44.73459" lon="3.33768">
        <ele>983</ele>
        <time>2018-04-30T12:43:55Z</time>
      </trkpt>
      <trkpt lat="44.7346" lon="3.33738">
        <ele>983</ele>
        <time>2018-04-30T12:44:12Z</time>
      </trkpt>
      <trkpt lat="44.73458" lon="3.33717">
        <ele>982</ele>
        <time>2018-04-30T12:44:26Z</time>
      </trkpt>
      <trkpt lat="44.73448" lon="3.33689">
        <ele>981</ele>
        <time>2018-04-30T12:44:45Z</time>
      </trkpt>
      <trkpt lat="44.73445" lon="3.33659">
        <ele>980</ele>
        <time>2018-04-30T12:45:02Z</time>
      </trkpt>
      <trkpt lat="44.73446" lon="3.33651">
        <ele>980</ele>
        <time>2018-04-30T12:45:06Z</time>
      </trkpt>
      <trkpt lat="44.73447" lon="3.33645">
        <ele>979</ele>
        <time>2018-04-30T12:45:10Z</time>
      </trkpt>
      <trkpt lat="44.73447" lon="3.33637">
        <ele>979</ele>
        <time>2018-04-30T12:45:14Z</time>
      </trkpt>
      <trkpt lat="44.73446" lon="3.33623">
        <ele>979</ele>
        <time>2018-04-30T12:45:30Z</time>
      </trkpt>
      <trkpt lat="44.73446" lon="3.33595">
        <ele>979</ele>
        <time>2018-04-30T12:45:47Z</time>
      </trkpt>
      <trkpt lat="44.73451" lon="3.33561">
        <ele>980</ele>
        <time>2018-04-30T12:46:09Z</time>
      </trkpt>
      <trkpt lat="44.73479" lon="3.33478">
        <ele>983</ele>
        <time>2018-04-30T12:47:13Z</time>
      </trkpt>
      <trkpt lat="44.7348" lon="3.33464">
        <ele>985</ele>
        <time>2018-04-30T12:47:23Z</time>
      </trkpt>
      <trkpt lat="44.73471" lon="3.33417">
        <ele>987</ele>
        <time>2018-04-30T12:47:56Z</time>
      </trkpt>
      <trkpt lat="44.7347" lon="3.33403">
        <ele>986</ele>
        <time>2018-04-30T12:48:05Z</time>
      </trkpt>
      <trkpt lat="44.73468" lon="3.33396">
        <ele>986</ele>
        <time>2018-04-30T12:48:09Z</time>
      </trkpt>
      <trkpt lat="44.73456" lon="3.33368">
        <ele>983</ele>
        <time>2018-04-30T12:48:29Z</time>
      </trkpt>
      <trkpt lat="44.73454" lon="3.33361">
        <ele>983</ele>
        <time>2018-04-30T12:48:33Z</time>
      </trkpt>
      <trkpt lat="44.73453" lon="3.33354">
        <ele>983</ele>
        <time>2018-04-30T12:48:37Z</time>
      </trkpt>
      <trkpt lat="44.73443" lon="3.33322">
        <ele>983</ele>
        <time>2018-04-30T12:48:59Z</time>
      </trkpt>
      <trkpt lat="44.73431" lon="3.333">
        <ele>984</ele>
        <time>2018-04-30T12:49:52Z</time>
      </trkpt>
      <trkpt lat="44.73423" lon="3.33288">
        <ele>984</ele>
        <time>2018-04-30T12:50:16Z</time>
      </trkpt>
      <trkpt lat="44.73392" lon="3.33257">
        <ele>983</ele>
        <time>2018-04-30T12:50:47Z</time>
      </trkpt>
      <trkpt lat="44.73387" lon="3.33255">
        <ele>983</ele>
        <time>2018-04-30T12:50:51Z</time>
      </trkpt>
      <trkpt lat="44.73383" lon="3.33254">
        <ele>983</ele>
        <time>2018-04-30T12:50:55Z</time>
      </trkpt>
      <trkpt lat="44.73373" lon="3.33253">
        <ele>983</ele>
        <time>2018-04-30T12:51:03Z</time>
      </trkpt>
      <trkpt lat="44.73368" lon="3.33251">
        <ele>983</ele>
        <time>2018-04-30T12:51:07Z</time>
      </trkpt>
      <trkpt lat="44.73357" lon="3.33238">
        <ele>984</ele>
        <time>2018-04-30T12:51:19Z</time>
      </trkpt>
      <trkpt lat="44.73352" lon="3.33234">
        <ele>984</ele>
        <time>2018-04-30T12:51:24Z</time>
      </trkpt>
      <trkpt lat="44.73332" lon="3.33212">
        <ele>984</ele>
        <time>2018-04-30T12:51:46Z</time>
      </trkpt>
      <trkpt lat="44.73309" lon="3.33164">
        <ele>986</ele>
        <time>2018-04-30T12:52:20Z</time>
      </trkpt>
      <trkpt lat="44.73306" lon="3.33159">
        <ele>986</ele>
        <time>2018-04-30T12:52:24Z</time>
      </trkpt>
      <trkpt lat="44.73266" lon="3.33059">
        <ele>990</ele>
        <time>2018-04-30T12:53:33Z</time>
      </trkpt>
      <trkpt lat="44.73259" lon="3.33049">
        <ele>991</ele>
        <time>2018-04-30T12:53:42Z</time>
      </trkpt>
      <trkpt lat="44.73251" lon="3.33038">
        <ele>990</ele>
        <time>2018-04-30T12:53:54Z</time>
      </trkpt>
      <trkpt lat="44.73245" lon="3.33033">
        <ele>991</ele>
        <time>2018-04-30T12:54:26Z</time>
      </trkpt>
      <trkpt lat="44.73239" lon="3.33023">
        <ele>991</ele>
        <time>2018-04-30T12:54:35Z</time>
      </trkpt>
      <trkpt lat="44.73232" lon="3.33014">
        <ele>991</ele>
        <time>2018-04-30T12:54:44Z</time>
      </trkpt>
      <trkpt lat="44.73194" lon="3.32994">
        <ele>993</ele>
        <time>2018-04-30T12:55:16Z</time>
      </trkpt>
      <trkpt lat="44.73183" lon="3.32991">
        <ele>994</ele>
        <time>2018-04-30T12:55:25Z</time>
      </trkpt>
      <trkpt lat="44.73179" lon="3.32992">
        <ele>994</ele>
        <time>2018-04-30T12:55:29Z</time>
      </trkpt>
      <trkpt lat="44.73174" lon="3.32996">
        <ele>995</ele>
        <time>2018-04-30T12:55:34Z</time>
      </trkpt>
      <trkpt lat="44.73152" lon="3.33023">
        <ele>998</ele>
        <time>2018-04-30T12:56:42Z</time>
      </trkpt>
      <trkpt lat="44.7313" lon="3.33042">
        <ele>1001</ele>
        <time>2018-04-30T12:57:03Z</time>
      </trkpt>
      <trkpt lat="44.73125" lon="3.33044">
        <ele>1002</ele>
        <time>2018-04-30T12:57:07Z</time>
      </trkpt>
      <trkpt lat="44.73121" lon="3.33043">
        <ele>1002</ele>
        <time>2018-04-30T12:57:11Z</time>
      </trkpt>
      <trkpt lat="44.73114" lon="3.3304">
        <ele>1004</ele>
        <time>2018-04-30T12:57:19Z</time>
      </trkpt>
      <trkpt lat="44.73103" lon="3.33036">
        <ele>1005</ele>
        <time>2018-04-30T12:57:37Z</time>
      </trkpt>
      <trkpt lat="44.731" lon="3.3303">
        <ele>1006</ele>
        <time>2018-04-30T12:57:42Z</time>
      </trkpt>
      <trkpt lat="44.73088" lon="3.33017">
        <ele>1008</ele>
        <time>2018-04-30T12:58:02Z</time>
      </trkpt>
      <trkpt lat="44.73084" lon="3.33014">
        <ele>1008</ele>
        <time>2018-04-30T12:58:06Z</time>
      </trkpt>
      <trkpt lat="44.73079" lon="3.33009">
        <ele>1009</ele>
        <time>2018-04-30T12:58:11Z</time>
      </trkpt>
      <trkpt lat="44.73077" lon="3.33003">
        <ele>1010</ele>
        <time>2018-04-30T12:58:16Z</time>
      </trkpt>
      <trkpt lat="44.73072" lon="3.33">
        <ele>1010</ele>
        <time>2018-04-30T12:58:21Z</time>
      </trkpt>
      <trkpt lat="44.73065" lon="3.32998">
        <ele>1012</ele>
        <time>2018-04-30T12:59:06Z</time>
      </trkpt>
      <trkpt lat="44.7306" lon="3.32995">
        <ele>1012</ele>
        <time>2018-04-30T12:59:10Z</time>
      </trkpt>
      <trkpt lat="44.73055" lon="3.32994">
        <ele>1012</ele>
        <time>2018-04-30T12:59:15Z</time>
      </trkpt>
      <trkpt lat="44.7304" lon="3.32996">
        <ele>1013</ele>
        <time>2018-04-30T12:59:27Z</time>
      </trkpt>
      <trkpt lat="44.7303" lon="3.32995">
        <ele>1014</ele>
        <time>2018-04-30T12:59:37Z</time>
      </trkpt>
      <trkpt lat="44.73015" lon="3.32996">
        <ele>1016</ele>
        <time>2018-04-30T13:00:02Z</time>
      </trkpt>
      <trkpt lat="44.7301" lon="3.32994">
        <ele>1016</ele>
        <time>2018-04-30T13:00:07Z</time>
      </trkpt>
      <trkpt lat="44.7299" lon="3.32997">
        <ele>1018</ele>
        <time>2018-04-30T13:00:26Z</time>
      </trkpt>
      <trkpt lat="44.72986" lon="3.32997">
        <ele>1018</ele>
        <time>2018-04-30T13:00:30Z</time>
      </trkpt>
      <trkpt lat="44.72969" lon="3.32998">
        <ele>1019</ele>
        <time>2018-04-30T13:00:44Z</time>
      </trkpt>
      <trkpt lat="44.72964" lon="3.33">
        <ele>1020</ele>
        <time>2018-04-30T13:01:01Z</time>
      </trkpt>
      <trkpt lat="44.72943" lon="3.33002">
        <ele>1023</ele>
        <time>2018-04-30T13:01:22Z</time>
      </trkpt>
      <trkpt lat="44.72938" lon="3.33001">
        <ele>1023</ele>
        <time>2018-04-30T13:01:28Z</time>
      </trkpt>
      <trkpt lat="44.7293" lon="3.33004">
        <ele>1025</ele>
        <time>2018-04-30T13:01:40Z</time>
      </trkpt>
      <trkpt lat="44.7291" lon="3.33019">
        <ele>1027</ele>
        <time>2018-04-30T13:02:13Z</time>
      </trkpt>
      <trkpt lat="44.72884" lon="3.3303">
        <ele>1031</ele>
        <time>2018-04-30T13:02:43Z</time>
      </trkpt>
      <trkpt lat="44.72861" lon="3.33038">
        <ele>1033</ele>
        <time>2018-04-30T13:03:18Z</time>
      </trkpt>
      <trkpt lat="44.72793" lon="3.33101">
        <ele>1040</ele>
        <time>2018-04-30T13:04:36Z</time>
      </trkpt>
      <trkpt lat="44.72785" lon="3.33112">
        <ele>1041</ele>
        <time>2018-04-30T13:04:46Z</time>
      </trkpt>
      <trkpt lat="44.72769" lon="3.33126">
        <ele>1043</ele>
        <time>2018-04-30T13:05:04Z</time>
      </trkpt>
      <trkpt lat="44.72742" lon="3.33141">
        <ele>1043</ele>
        <time>2018-04-30T13:05:28Z</time>
      </trkpt>
      <trkpt lat="44.72728" lon="3.33143">
        <ele>1043</ele>
        <time>2018-04-30T13:05:44Z</time>
      </trkpt>
      <trkpt lat="44.72723" lon="3.33145">
        <ele>1043</ele>
        <time>2018-04-30T13:05:49Z</time>
      </trkpt>
      <trkpt lat="44.72708" lon="3.33146">
        <ele>1043</ele>
        <time>2018-04-30T13:06:03Z</time>
      </trkpt>
      <trkpt lat="44.72674" lon="3.33164">
        <ele>1042</ele>
        <time>2018-04-30T13:06:36Z</time>
      </trkpt>
      <trkpt lat="44.72669" lon="3.33165">
        <ele>1042</ele>
        <time>2018-04-30T13:06:40Z</time>
      </trkpt>
      <trkpt lat="44.72665" lon="3.33167">
        <ele>1042</ele>
        <time>2018-04-30T13:06:45Z</time>
      </trkpt>
      <trkpt lat="44.7266" lon="3.33168">
        <ele>1042</ele>
        <time>2018-04-30T13:06:49Z</time>
      </trkpt>
      <trkpt lat="44.72651" lon="3.33173">
        <ele>1042</ele>
        <time>2018-04-30T13:06:57Z</time>
      </trkpt>
      <trkpt lat="44.72616" lon="3.33185">
        <ele>1042</ele>
        <time>2018-04-30T13:07:28Z</time>
      </trkpt>
      <trkpt lat="44.72606" lon="3.33186">
        <ele>1042</ele>
        <time>2018-04-30T13:07:37Z</time>
      </trkpt>
      <trkpt lat="44.726" lon="3.33181">
        <ele>1044</ele>
        <time>2018-04-30T13:07:57Z</time>
      </trkpt>
      <trkpt lat="44.72581" lon="3.33158">
        <ele>1045</ele>
        <time>2018-04-30T13:08:20Z</time>
      </trkpt>
      <trkpt lat="44.72572" lon="3.3313">
        <ele>1047</ele>
        <time>2018-04-30T13:08:51Z</time>
      </trkpt>
      <trkpt lat="44.72567" lon="3.33123">
        <ele>1047</ele>
        <time>2018-04-30T13:08:59Z</time>
      </trkpt>
      <trkpt lat="44.72564" lon="3.33117">
        <ele>1048</ele>
        <time>2018-04-30T13:09:04Z</time>
      </trkpt>
      <trkpt lat="44.72546" lon="3.33092">
        <ele>1051</ele>
        <time>2018-04-30T13:09:33Z</time>
      </trkpt>
      <trkpt lat="44.72545" lon="3.33085">
        <ele>1052</ele>
        <time>2018-04-30T13:09:39Z</time>
      </trkpt>
      <trkpt lat="44.72541" lon="3.3308">
        <ele>1052</ele>
        <time>2018-04-30T13:09:43Z</time>
      </trkpt>
      <trkpt lat="44.72539" lon="3.33074">
        <ele>1053</ele>
        <time>2018-04-30T13:09:48Z</time>
      </trkpt>
      <trkpt lat="44.72537" lon="3.33068">
        <ele>1053</ele>
        <time>2018-04-30T13:10:02Z</time>
      </trkpt>
      <trkpt lat="44.72537" lon="3.33069">
        <ele>1053</ele>
        <time>2018-04-30T13:11:56Z</time>
      </trkpt>
      <trkpt lat="44.72524" lon="3.3305">
        <ele>1054</ele>
        <time>2018-04-30T13:13:25Z</time>
      </trkpt>
      <trkpt lat="44.72518" lon="3.33038">
        <ele>1054</ele>
        <time>2018-04-30T13:13:33Z</time>
      </trkpt>
      <trkpt lat="44.72509" lon="3.33027">
        <ele>1054</ele>
        <time>2018-04-30T13:13:45Z</time>
      </trkpt>
      <trkpt lat="44.72501" lon="3.33007">
        <ele>1056</ele>
        <time>2018-04-30T13:13:56Z</time>
      </trkpt>
      <trkpt lat="44.72498" lon="3.33001">
        <ele>1056</ele>
        <time>2018-04-30T13:14:00Z</time>
      </trkpt>
      <trkpt lat="44.72494" lon="3.32989">
        <ele>1056</ele>
        <time>2018-04-30T13:14:08Z</time>
      </trkpt>
      <trkpt lat="44.7247" lon="3.3295">
        <ele>1055</ele>
        <time>2018-04-30T13:14:36Z</time>
      </trkpt>
      <trkpt lat="44.72467" lon="3.32947">
        <ele>1055</ele>
        <time>2018-04-30T13:14:41Z</time>
      </trkpt>
      <trkpt lat="44.72462" lon="3.32939">
        <ele>1054</ele>
        <time>2018-04-30T13:14:52Z</time>
      </trkpt>
      <trkpt lat="44.72452" lon="3.329">
        <ele>1053</ele>
        <time>2018-04-30T13:15:16Z</time>
      </trkpt>
      <trkpt lat="44.72447" lon="3.32887">
        <ele>1053</ele>
        <time>2018-04-30T13:15:24Z</time>
      </trkpt>
      <trkpt lat="44.72437" lon="3.32855">
        <ele>1054</ele>
        <time>2018-04-30T13:15:46Z</time>
      </trkpt>
      <trkpt lat="44.72435" lon="3.32849">
        <ele>1053</ele>
        <time>2018-04-30T13:15:50Z</time>
      </trkpt>
      <trkpt lat="44.72433" lon="3.32842">
        <ele>1053</ele>
        <time>2018-04-30T13:15:54Z</time>
      </trkpt>
      <trkpt lat="44.72432" lon="3.32828">
        <ele>1053</ele>
        <time>2018-04-30T13:16:03Z</time>
      </trkpt>
      <trkpt lat="44.72426" lon="3.32803">
        <ele>1054</ele>
        <time>2018-04-30T13:17:26Z</time>
      </trkpt>
      <trkpt lat="44.72423" lon="3.32797">
        <ele>1054</ele>
        <time>2018-04-30T13:17:29Z</time>
      </trkpt>
      <trkpt lat="44.72419" lon="3.32791">
        <ele>1053</ele>
        <time>2018-04-30T13:17:37Z</time>
      </trkpt>
      <trkpt lat="44.72416" lon="3.32775">
        <ele>1052</ele>
        <time>2018-04-30T13:18:54Z</time>
      </trkpt>
      <trkpt lat="44.72406" lon="3.32756">
        <ele>1052</ele>
        <time>2018-04-30T13:19:08Z</time>
      </trkpt>
      <trkpt lat="44.72393" lon="3.32718">
        <ele>1052</ele>
        <time>2018-04-30T13:19:33Z</time>
      </trkpt>
      <trkpt lat="44.72389" lon="3.32661">
        <ele>1051</ele>
        <time>2018-04-30T13:20:06Z</time>
      </trkpt>
      <trkpt lat="44.72394" lon="3.32584">
        <ele>1052</ele>
        <time>2018-04-30T13:20:50Z</time>
      </trkpt>
      <trkpt lat="44.72392" lon="3.3257">
        <ele>1052</ele>
        <time>2018-04-30T13:20:58Z</time>
      </trkpt>
      <trkpt lat="44.72393" lon="3.32562">
        <ele>1052</ele>
        <time>2018-04-30T13:21:02Z</time>
      </trkpt>
      <trkpt lat="44.72424" lon="3.32357">
        <ele>1055</ele>
        <time>2018-04-30T13:23:40Z</time>
      </trkpt>
      <trkpt lat="44.72423" lon="3.3235">
        <ele>1056</ele>
        <time>2018-04-30T13:23:44Z</time>
      </trkpt>
      <trkpt lat="44.72433" lon="3.32291">
        <ele>1055</ele>
        <time>2018-04-30T13:24:20Z</time>
      </trkpt>
      <trkpt lat="44.72435" lon="3.32278">
        <ele>1054</ele>
        <time>2018-04-30T13:24:28Z</time>
      </trkpt>
      <trkpt lat="44.72436" lon="3.32272">
        <ele>1054</ele>
        <time>2018-04-30T13:24:33Z</time>
      </trkpt>
      <trkpt lat="44.7243" lon="3.32193">
        <ele>1052</ele>
        <time>2018-04-30T13:25:17Z</time>
      </trkpt>
      <trkpt lat="44.72431" lon="3.32179">
        <ele>1052</ele>
        <time>2018-04-30T13:25:25Z</time>
      </trkpt>
      <trkpt lat="44.7243" lon="3.32165">
        <ele>1052</ele>
        <time>2018-04-30T13:25:34Z</time>
      </trkpt>
      <trkpt lat="44.72434" lon="3.32132">
        <ele>1051</ele>
        <time>2018-04-30T13:26:14Z</time>
      </trkpt>
      <trkpt lat="44.72445" lon="3.32107">
        <ele>1051</ele>
        <time>2018-04-30T13:26:31Z</time>
      </trkpt>
      <trkpt lat="44.72448" lon="3.32102">
        <ele>1051</ele>
        <time>2018-04-30T13:26:35Z</time>
      </trkpt>
      <trkpt lat="44.72452" lon="3.32098">
        <ele>1051</ele>
        <time>2018-04-30T13:26:39Z</time>
      </trkpt>
      <trkpt lat="44.72476" lon="3.32061">
        <ele>1052</ele>
        <time>2018-04-30T13:27:08Z</time>
      </trkpt>
      <trkpt lat="44.72484" lon="3.32038">
        <ele>1052</ele>
        <time>2018-04-30T13:27:28Z</time>
      </trkpt>
      <trkpt lat="44.72488" lon="3.31968">
        <ele>1056</ele>
        <time>2018-04-30T13:28:31Z</time>
      </trkpt>
      <trkpt lat="44.72498" lon="3.31925">
        <ele>1056</ele>
        <time>2018-04-30T13:28:57Z</time>
      </trkpt>
      <trkpt lat="44.72503" lon="3.31914">
        <ele>1057</ele>
        <time>2018-04-30T13:29:05Z</time>
      </trkpt>
      <trkpt lat="44.72505" lon="3.31866">
        <ele>1058</ele>
        <time>2018-04-30T13:29:35Z</time>
      </trkpt>
      <trkpt lat="44.72521" lon="3.31763">
        <ele>1057</ele>
        <time>2018-04-30T13:30:39Z</time>
      </trkpt>
      <trkpt lat="44.72519" lon="3.31712">
        <ele>1057</ele>
        <time>2018-04-30T13:31:07Z</time>
      </trkpt>
      <trkpt lat="44.72519" lon="3.31705">
        <ele>1057</ele>
        <time>2018-04-30T13:31:11Z</time>
      </trkpt>
      <trkpt lat="44.7252" lon="3.31699">
        <ele>1058</ele>
        <time>2018-04-30T13:31:27Z</time>
      </trkpt>
      <trkpt lat="44.72517" lon="3.31692">
        <ele>1058</ele>
        <time>2018-04-30T13:31:31Z</time>
      </trkpt>
      <trkpt lat="44.72517" lon="3.31679">
        <ele>1058</ele>
        <time>2018-04-30T13:31:39Z</time>
      </trkpt>
      <trkpt lat="44.72519" lon="3.31637">
        <ele>1059</ele>
        <time>2018-04-30T13:32:06Z</time>
      </trkpt>
      <trkpt lat="44.7253" lon="3.31596">
        <ele>1061</ele>
        <time>2018-04-30T13:32:44Z</time>
      </trkpt>
      <trkpt lat="44.7253" lon="3.31589">
        <ele>1061</ele>
        <time>2018-04-30T13:32:48Z</time>
      </trkpt>
      <trkpt lat="44.72532" lon="3.31583">
        <ele>1062</ele>
        <time>2018-04-30T13:32:52Z</time>
      </trkpt>
      <trkpt lat="44.72541" lon="3.31482">
        <ele>1067</ele>
        <time>2018-04-30T13:33:55Z</time>
      </trkpt>
      <trkpt lat="44.72538" lon="3.31453">
        <ele>1068</ele>
        <time>2018-04-30T13:34:12Z</time>
      </trkpt>
      <trkpt lat="44.72538" lon="3.31446">
        <ele>1069</ele>
        <time>2018-04-30T13:34:17Z</time>
      </trkpt>
      <trkpt lat="44.7254" lon="3.31432">
        <ele>1069</ele>
        <time>2018-04-30T13:34:26Z</time>
      </trkpt>
      <trkpt lat="44.72541" lon="3.31417">
        <ele>1070</ele>
        <time>2018-04-30T13:34:35Z</time>
      </trkpt>
      <trkpt lat="44.7255" lon="3.31361">
        <ele>1073</ele>
        <time>2018-04-30T13:35:12Z</time>
      </trkpt>
      <trkpt lat="44.72553" lon="3.3134">
        <ele>1073</ele>
        <time>2018-04-30T13:35:24Z</time>
      </trkpt>
      <trkpt lat="44.72553" lon="3.31333">
        <ele>1073</ele>
        <time>2018-04-30T13:35:28Z</time>
      </trkpt>
      <trkpt lat="44.72554" lon="3.31319">
        <ele>1073</ele>
        <time>2018-04-30T13:35:36Z</time>
      </trkpt>
      <trkpt lat="44.72551" lon="3.31269">
        <ele>1073</ele>
        <time>2018-04-30T13:36:05Z</time>
      </trkpt>
      <trkpt lat="44.72556" lon="3.31121">
        <ele>1082</ele>
        <time>2018-04-30T13:38:04Z</time>
      </trkpt>
      <trkpt lat="44.72555" lon="3.31107">
        <ele>1082</ele>
        <time>2018-04-30T13:38:12Z</time>
      </trkpt>
      <trkpt lat="44.72556" lon="3.30941">
        <ele>1086</ele>
        <time>2018-04-30T13:40:02Z</time>
      </trkpt>
      <trkpt lat="44.7255" lon="3.30895">
        <ele>1086</ele>
        <time>2018-04-30T13:40:38Z</time>
      </trkpt>
      <trkpt lat="44.72544" lon="3.30883">
        <ele>1086</ele>
        <time>2018-04-30T13:40:47Z</time>
      </trkpt>
      <trkpt lat="44.7252" lon="3.30777">
        <ele>1089</ele>
        <time>2018-04-30T13:42:12Z</time>
      </trkpt>
      <trkpt lat="44.7252" lon="3.30769">
        <ele>1089</ele>
        <time>2018-04-30T13:42:43Z</time>
      </trkpt>
      <trkpt lat="44.72528" lon="3.30765">
        <ele>1090</ele>
        <time>2018-04-30T13:43:21Z</time>
      </trkpt>
      <trkpt lat="44.72539" lon="3.30764">
        <ele>1089</ele>
        <time>2018-04-30T13:43:30Z</time>
      </trkpt>
      <trkpt lat="44.72544" lon="3.30766">
        <ele>1089</ele>
        <time>2018-04-30T13:43:34Z</time>
      </trkpt>
      <trkpt lat="44.72596" lon="3.30784">
        <ele>1087</ele>
        <time>2018-04-30T13:44:20Z</time>
      </trkpt>
      <trkpt lat="44.72647" lon="3.30806">
        <ele>1085</ele>
        <time>2018-04-30T13:45:06Z</time>
      </trkpt>
      <trkpt lat="44.72656" lon="3.30809">
        <ele>1085</ele>
        <time>2018-04-30T13:45:15Z</time>
      </trkpt>
      <trkpt lat="44.72663" lon="3.30807">
        <ele>1085</ele>
        <time>2018-04-30T13:45:25Z</time>
      </trkpt>
      <trkpt lat="44.72657" lon="3.30798">
        <ele>1086</ele>
        <time>2018-04-30T13:45:36Z</time>
      </trkpt>
      <trkpt lat="44.72646" lon="3.30793">
        <ele>1088</ele>
        <time>2018-04-30T13:45:50Z</time>
      </trkpt>
      <trkpt lat="44.72617" lon="3.30772">
        <ele>1091</ele>
        <time>2018-04-30T13:46:29Z</time>
      </trkpt>
      <trkpt lat="44.72579" lon="3.30731">
        <ele>1093</ele>
        <time>2018-04-30T13:47:19Z</time>
      </trkpt>
      <trkpt lat="44.72552" lon="3.30688">
        <ele>1095</ele>
        <time>2018-04-30T13:47:51Z</time>
      </trkpt>
      <trkpt lat="44.72532" lon="3.3064">
        <ele>1098</ele>
        <time>2018-04-30T13:48:35Z</time>
      </trkpt>
      <trkpt lat="44.72505" lon="3.30531">
        <ele>1099</ele>
        <time>2018-04-30T13:49:42Z</time>
      </trkpt>
      <trkpt lat="44.72502" lon="3.30525">
        <ele>1099</ele>
        <time>2018-04-30T13:49:46Z</time>
      </trkpt>
      <trkpt lat="44.72495" lon="3.30507">
        <ele>1098</ele>
        <time>2018-04-30T13:49:58Z</time>
      </trkpt>
      <trkpt lat="44.72489" lon="3.30483">
        <ele>1098</ele>
        <time>2018-04-30T13:50:21Z</time>
      </trkpt>
      <trkpt lat="44.7249" lon="3.30477">
        <ele>1097</ele>
        <time>2018-04-30T13:51:24Z</time>
      </trkpt>
      <trkpt lat="44.72469" lon="3.30442">
        <ele>1098</ele>
        <time>2018-04-30T13:58:41Z</time>
      </trkpt>
      <trkpt lat="44.72428" lon="3.30329">
        <ele>1098</ele>
        <time>2018-04-30T13:59:59Z</time>
      </trkpt>
      <trkpt lat="44.72404" lon="3.30284">
        <ele>1100</ele>
        <time>2018-04-30T14:00:32Z</time>
      </trkpt>
      <trkpt lat="44.72402" lon="3.30277">
        <ele>1100</ele>
        <time>2018-04-30T14:00:36Z</time>
      </trkpt>
      <trkpt lat="44.72389" lon="3.30257">
        <ele>1100</ele>
        <time>2018-04-30T14:00:52Z</time>
      </trkpt>
      <trkpt lat="44.72385" lon="3.30253">
        <ele>1101</ele>
        <time>2018-04-30T14:00:56Z</time>
      </trkpt>
      <trkpt lat="44.72339" lon="3.3019">
        <ele>1102</ele>
        <time>2018-04-30T14:01:48Z</time>
      </trkpt>
      <trkpt lat="44.72317" lon="3.30145">
        <ele>1103</ele>
        <time>2018-04-30T14:02:20Z</time>
      </trkpt>
      <trkpt lat="44.72308" lon="3.30119">
        <ele>1102</ele>
        <time>2018-04-30T14:02:36Z</time>
      </trkpt>
      <trkpt lat="44.72302" lon="3.30107">
        <ele>1102</ele>
        <time>2018-04-30T14:02:44Z</time>
      </trkpt>
      <trkpt lat="44.723" lon="3.30102">
        <ele>1101</ele>
        <time>2018-04-30T14:02:48Z</time>
      </trkpt>
      <trkpt lat="44.72297" lon="3.30092">
        <ele>1101</ele>
        <time>2018-04-30T14:03:17Z</time>
      </trkpt>
      <trkpt lat="44.72294" lon="3.30086">
        <ele>1099</ele>
        <time>2018-04-30T14:03:21Z</time>
      </trkpt>
      <trkpt lat="44.72259" lon="3.29999">
        <ele>1094</ele>
        <time>2018-04-30T14:04:17Z</time>
      </trkpt>
      <trkpt lat="44.72245" lon="3.29979">
        <ele>1091</ele>
        <time>2018-04-30T14:04:33Z</time>
      </trkpt>
      <trkpt lat="44.72241" lon="3.29976">
        <ele>1090</ele>
        <time>2018-04-30T14:04:42Z</time>
      </trkpt>
      <trkpt lat="44.72237" lon="3.29972">
        <ele>1090</ele>
        <time>2018-04-30T14:04:46Z</time>
      </trkpt>
      <trkpt lat="44.72228" lon="3.29965">
        <ele>1089</ele>
        <time>2018-04-30T14:04:54Z</time>
      </trkpt>
      <trkpt lat="44.72214" lon="3.29958">
        <ele>1089</ele>
        <time>2018-04-30T14:05:06Z</time>
      </trkpt>
      <trkpt lat="44.72201" lon="3.29948">
        <ele>1088</ele>
        <time>2018-04-30T14:05:26Z</time>
      </trkpt>
      <trkpt lat="44.72161" lon="3.29932">
        <ele>1086</ele>
        <time>2018-04-30T14:05:58Z</time>
      </trkpt>
      <trkpt lat="44.72129" lon="3.29896">
        <ele>1086</ele>
        <time>2018-04-30T14:06:33Z</time>
      </trkpt>
      <trkpt lat="44.72126" lon="3.29891">
        <ele>1086</ele>
        <time>2018-04-30T14:06:37Z</time>
      </trkpt>
      <trkpt lat="44.72105" lon="3.29873">
        <ele>1086</ele>
        <time>2018-04-30T14:06:58Z</time>
      </trkpt>
      <trkpt lat="44.72097" lon="3.29864">
        <ele>1085</ele>
        <time>2018-04-30T14:07:06Z</time>
      </trkpt>
      <trkpt lat="44.72089" lon="3.29838">
        <ele>1086</ele>
        <time>2018-04-30T14:07:22Z</time>
      </trkpt>
      <trkpt lat="44.72086" lon="3.29817">
        <ele>1086</ele>
        <time>2018-04-30T14:07:36Z</time>
      </trkpt>
      <trkpt lat="44.72086" lon="3.29796">
        <ele>1086</ele>
        <time>2018-04-30T14:07:55Z</time>
      </trkpt>
      <trkpt lat="44.72085" lon="3.2979">
        <ele>1086</ele>
        <time>2018-04-30T14:07:58Z</time>
      </trkpt>
      <trkpt lat="44.72081" lon="3.29697">
        <ele>1087</ele>
        <time>2018-04-30T14:08:57Z</time>
      </trkpt>
      <trkpt lat="44.7207" lon="3.29631">
        <ele>1084</ele>
        <time>2018-04-30T14:09:44Z</time>
      </trkpt>
      <trkpt lat="44.72068" lon="3.29625">
        <ele>1085</ele>
        <time>2018-04-30T14:09:51Z</time>
      </trkpt>
      <trkpt lat="44.72061" lon="3.29611">
        <ele>1083</ele>
        <time>2018-04-30T14:11:17Z</time>
      </trkpt>
      <trkpt lat="44.72055" lon="3.29607">
        <ele>1082</ele>
        <time>2018-04-30T14:11:27Z</time>
      </trkpt>
      <trkpt lat="44.72051" lon="3.29603">
        <ele>1082</ele>
        <time>2018-04-30T14:11:32Z</time>
      </trkpt>
      <trkpt lat="44.72041" lon="3.29594">
        <ele>1079</ele>
        <time>2018-04-30T14:11:48Z</time>
      </trkpt>
      <trkpt lat="44.72036" lon="3.2958">
        <ele>1078</ele>
        <time>2018-04-30T14:11:58Z</time>
      </trkpt>
      <trkpt lat="44.72027" lon="3.29564">
        <ele>1077</ele>
        <time>2018-04-30T14:12:11Z</time>
      </trkpt>
      <trkpt lat="44.72021" lon="3.29546">
        <ele>1076</ele>
        <time>2018-04-30T14:12:24Z</time>
      </trkpt>
      <trkpt lat="44.72017" lon="3.29526">
        <ele>1076</ele>
        <time>2018-04-30T14:12:36Z</time>
      </trkpt>
      <trkpt lat="44.72017" lon="3.2952">
        <ele>1076</ele>
        <time>2018-04-30T14:12:40Z</time>
      </trkpt>
      <trkpt lat="44.72016" lon="3.29485">
        <ele>1076</ele>
        <time>2018-04-30T14:13:02Z</time>
      </trkpt>
      <trkpt lat="44.72018" lon="3.29473">
        <ele>1076</ele>
        <time>2018-04-30T14:13:11Z</time>
      </trkpt>
      <trkpt lat="44.72023" lon="3.29461">
        <ele>1076</ele>
        <time>2018-04-30T14:13:21Z</time>
      </trkpt>
      <trkpt lat="44.72025" lon="3.29454">
        <ele>1077</ele>
        <time>2018-04-30T14:13:25Z</time>
      </trkpt>
      <trkpt lat="44.72025" lon="3.29447">
        <ele>1076</ele>
        <time>2018-04-30T14:13:30Z</time>
      </trkpt>
      <trkpt lat="44.72038" lon="3.29386">
        <ele>1077</ele>
        <time>2018-04-30T14:14:11Z</time>
      </trkpt>
      <trkpt lat="44.72043" lon="3.29374">
        <ele>1077</ele>
        <time>2018-04-30T14:14:19Z</time>
      </trkpt>
      <trkpt lat="44.72064" lon="3.29297">
        <ele>1078</ele>
        <time>2018-04-30T14:15:09Z</time>
      </trkpt>
      <trkpt lat="44.72066" lon="3.29291">
        <ele>1078</ele>
        <time>2018-04-30T14:15:13Z</time>
      </trkpt>
      <trkpt lat="44.72072" lon="3.29273">
        <ele>1080</ele>
        <time>2018-04-30T14:15:28Z</time>
      </trkpt>
      <trkpt lat="44.72075" lon="3.29266">
        <ele>1081</ele>
        <time>2018-04-30T14:15:36Z</time>
      </trkpt>
      <trkpt lat="44.72078" lon="3.2926">
        <ele>1081</ele>
        <time>2018-04-30T14:15:41Z</time>
      </trkpt>
      <trkpt lat="44.72082" lon="3.29247">
        <ele>1081</ele>
        <time>2018-04-30T14:15:50Z</time>
      </trkpt>
      <trkpt lat="44.72091" lon="3.29228">
        <ele>1080</ele>
        <time>2018-04-30T14:16:14Z</time>
      </trkpt>
      <trkpt lat="44.7212" lon="3.29106">
        <ele>1072</ele>
        <time>2018-04-30T14:17:34Z</time>
      </trkpt>
      <trkpt lat="44.72123" lon="3.291">
        <ele>1072</ele>
        <time>2018-04-30T14:17:38Z</time>
      </trkpt>
      <trkpt lat="44.72139" lon="3.2901">
        <ele>1069</ele>
        <time>2018-04-30T14:18:40Z</time>
      </trkpt>
      <trkpt lat="44.72145" lon="3.28992">
        <ele>1068</ele>
        <time>2018-04-30T14:18:52Z</time>
      </trkpt>
      <trkpt lat="44.7215" lon="3.28983">
        <ele>1068</ele>
        <time>2018-04-30T14:19:28Z</time>
      </trkpt>
      <trkpt lat="44.72155" lon="3.28963">
        <ele>1068</ele>
        <time>2018-04-30T14:19:42Z</time>
      </trkpt>
      <trkpt lat="44.72155" lon="3.28955">
        <ele>1068</ele>
        <time>2018-04-30T14:19:46Z</time>
      </trkpt>
      <trkpt lat="44.72159" lon="3.28928">
        <ele>1067</ele>
        <time>2018-04-30T14:20:03Z</time>
      </trkpt>
      <trkpt lat="44.72162" lon="3.28922">
        <ele>1067</ele>
        <time>2018-04-30T14:20:07Z</time>
      </trkpt>
      <trkpt lat="44.72165" lon="3.28917">
        <ele>1066</ele>
        <time>2018-04-30T14:20:11Z</time>
      </trkpt>
      <trkpt lat="44.72175" lon="3.28887">
        <ele>1065</ele>
        <time>2018-04-30T14:20:32Z</time>
      </trkpt>
      <trkpt lat="44.72181" lon="3.28874">
        <ele>1064</ele>
        <time>2018-04-30T14:20:41Z</time>
      </trkpt>
      <trkpt lat="44.72182" lon="3.28868">
        <ele>1064</ele>
        <time>2018-04-30T14:20:45Z</time>
      </trkpt>
      <trkpt lat="44.72185" lon="3.28861">
        <ele>1064</ele>
        <time>2018-04-30T14:20:49Z</time>
      </trkpt>
      <trkpt lat="44.72188" lon="3.28856">
        <ele>1063</ele>
        <time>2018-04-30T14:20:54Z</time>
      </trkpt>
      <trkpt lat="44.72199" lon="3.28822">
        <ele>1062</ele>
        <time>2018-04-30T14:21:19Z</time>
      </trkpt>
      <trkpt lat="44.72195" lon="3.28813">
        <ele>1062</ele>
        <time>2018-04-30T14:21:35Z</time>
      </trkpt>
      <trkpt lat="44.72197" lon="3.2881">
        <ele>1062</ele>
        <time>2018-04-30T14:22:03Z</time>
      </trkpt>
      <trkpt lat="44.722" lon="3.28804">
        <ele>1062</ele>
        <time>2018-04-30T14:22:07Z</time>
      </trkpt>
      <trkpt lat="44.72206" lon="3.28785">
        <ele>1061</ele>
        <time>2018-04-30T14:22:18Z</time>
      </trkpt>
      <trkpt lat="44.7221" lon="3.28778">
        <ele>1060</ele>
        <time>2018-04-30T14:22:23Z</time>
      </trkpt>
      <trkpt lat="44.72214" lon="3.28773">
        <ele>1060</ele>
        <time>2018-04-30T14:22:28Z</time>
      </trkpt>
      <trkpt lat="44.72218" lon="3.28761">
        <ele>1060</ele>
        <time>2018-04-30T14:22:37Z</time>
      </trkpt>
      <trkpt lat="44.72219" lon="3.28755">
        <ele>1060</ele>
        <time>2018-04-30T14:22:41Z</time>
      </trkpt>
      <trkpt lat="44.72224" lon="3.28744">
        <ele>1059</ele>
        <time>2018-04-30T14:22:49Z</time>
      </trkpt>
      <trkpt lat="44.72225" lon="3.28715">
        <ele>1058</ele>
        <time>2018-04-30T14:23:06Z</time>
      </trkpt>
      <trkpt lat="44.72231" lon="3.2873">
        <ele>1058</ele>
        <time>2018-04-30T14:23:37Z</time>
      </trkpt>
      <trkpt lat="44.72236" lon="3.28734">
        <ele>1059</ele>
        <time>2018-04-30T14:23:45Z</time>
      </trkpt>
      <trkpt lat="44.72285" lon="3.28724">
        <ele>1061</ele>
        <time>2018-04-30T14:24:57Z</time>
      </trkpt>
      <trkpt lat="44.72258" lon="3.28723">
        <ele>1062</ele>
        <time>2018-04-30T14:25:01Z</time>
      </trkpt>
      <trkpt lat="44.72251" lon="3.28729">
        <ele>1063</ele>
        <time>2018-04-30T14:25:09Z</time>
      </trkpt>
      <trkpt lat="44.72257" lon="3.28731">
        <ele>1063</ele>
        <time>2018-04-30T14:26:43Z</time>
      </trkpt>
      <trkpt lat="44.72241" lon="3.28731">
        <ele>1062</ele>
        <time>2018-04-30T14:27:01Z</time>
      </trkpt>
      <trkpt lat="44.7225" lon="3.28742">
        <ele>1062</ele>
        <time>2018-04-30T14:29:47Z</time>
      </trkpt>
      <trkpt lat="44.72259" lon="3.28741">
        <ele>1062</ele>
        <time>2018-04-30T14:29:53Z</time>
      </trkpt>
      <trkpt lat="44.72247" lon="3.28549">
        <ele>1058</ele>
        <time>2018-05-01T05:56:47Z</time>
      </trkpt>
      <trkpt lat="44.72259" lon="3.2854">
        <ele>1058</ele>
        <time>2018-05-01T05:57:04Z</time>
      </trkpt>
      <trkpt lat="44.72258" lon="3.28533">
        <ele>1058</ele>
        <time>2018-05-01T05:57:07Z</time>
      </trkpt>
      <trkpt lat="44.72261" lon="3.28483">
        <ele>1057</ele>
        <time>2018-05-01T05:57:35Z</time>
      </trkpt>
      <trkpt lat="44.72266" lon="3.28455">
        <ele>1056</ele>
        <time>2018-05-01T05:57:54Z</time>
      </trkpt>
      <trkpt lat="44.72294" lon="3.28474">
        <ele>1055</ele>
        <time>2018-05-01T05:58:18Z</time>
      </trkpt>
      <trkpt lat="44.72298" lon="3.28496">
        <ele>1054</ele>
        <time>2018-05-01T05:58:34Z</time>
      </trkpt>
      <trkpt lat="44.72314" lon="3.28494">
        <ele>1052</ele>
        <time>2018-05-01T05:59:16Z</time>
      </trkpt>
      <trkpt lat="44.72329" lon="3.28504">
        <ele>1050</ele>
        <time>2018-05-01T05:59:34Z</time>
      </trkpt>
      <trkpt lat="44.72318" lon="3.28493">
        <ele>1050</ele>
        <time>2018-05-01T06:00:58Z</time>
      </trkpt>
      <trkpt lat="44.72309" lon="3.28487">
        <ele>1051</ele>
        <time>2018-05-01T06:01:08Z</time>
      </trkpt>
      <trkpt lat="44.72306" lon="3.2848">
        <ele>1052</ele>
        <time>2018-05-01T06:01:17Z</time>
      </trkpt>
      <trkpt lat="44.723" lon="3.28482">
        <ele>1052</ele>
        <time>2018-05-01T06:01:22Z</time>
      </trkpt>
      <trkpt lat="44.72298" lon="3.28487">
        <ele>1052</ele>
        <time>2018-05-01T06:01:26Z</time>
      </trkpt>
      <trkpt lat="44.72297" lon="3.28494">
        <ele>1052</ele>
        <time>2018-05-01T06:01:30Z</time>
      </trkpt>
      <trkpt lat="44.72301" lon="3.285">
        <ele>1052</ele>
        <time>2018-05-01T06:01:44Z</time>
      </trkpt>
      <trkpt lat="44.72306" lon="3.28498">
        <ele>1052</ele>
        <time>2018-05-01T06:02:02Z</time>
      </trkpt>
      <trkpt lat="44.72305" lon="3.28505">
        <ele>1050</ele>
        <time>2018-05-01T06:03:37Z</time>
      </trkpt>
      <trkpt lat="44.72301" lon="3.28486">
        <ele>1050</ele>
        <time>2018-05-01T06:04:01Z</time>
      </trkpt>
      <trkpt lat="44.72288" lon="3.28467">
        <ele>1051</ele>
        <time>2018-05-01T06:04:12Z</time>
      </trkpt>
      <trkpt lat="44.72273" lon="3.28462">
        <ele>1051</ele>
        <time>2018-05-01T06:04:33Z</time>
      </trkpt>
      <trkpt lat="44.72269" lon="3.2845">
        <ele>1051</ele>
        <time>2018-05-01T06:04:40Z</time>
      </trkpt>
      <trkpt lat="44.72263" lon="3.28423">
        <ele>1050</ele>
        <time>2018-05-01T06:05:13Z</time>
      </trkpt>
      <trkpt lat="44.72258" lon="3.28413">
        <ele>1050</ele>
        <time>2018-05-01T06:05:26Z</time>
      </trkpt>
      <trkpt lat="44.72257" lon="3.28406">
        <ele>1050</ele>
        <time>2018-05-01T06:05:31Z</time>
      </trkpt>
      <trkpt lat="44.72247" lon="3.28398">
        <ele>1051</ele>
        <time>2018-05-01T06:06:06Z</time>
      </trkpt>
      <trkpt lat="44.72235" lon="3.28368">
        <ele>1051</ele>
        <time>2018-05-01T06:06:26Z</time>
      </trkpt>
      <trkpt lat="44.7222" lon="3.28349">
        <ele>1051</ele>
        <time>2018-05-01T06:06:41Z</time>
      </trkpt>
      <trkpt lat="44.72186" lon="3.28321">
        <ele>1051</ele>
        <time>2018-05-01T06:07:15Z</time>
      </trkpt>
      <trkpt lat="44.72184" lon="3.28314">
        <ele>1052</ele>
        <time>2018-05-01T06:07:56Z</time>
      </trkpt>
      <trkpt lat="44.7218" lon="3.28311">
        <ele>1052</ele>
        <time>2018-05-01T06:08:00Z</time>
      </trkpt>
      <trkpt lat="44.72167" lon="3.28308">
        <ele>1051</ele>
        <time>2018-05-01T06:08:13Z</time>
      </trkpt>
      <trkpt lat="44.72157" lon="3.28298">
        <ele>1051</ele>
        <time>2018-05-01T06:08:24Z</time>
      </trkpt>
      <trkpt lat="44.72147" lon="3.28277">
        <ele>1049</ele>
        <time>2018-05-01T06:09:05Z</time>
      </trkpt>
      <trkpt lat="44.72121" lon="3.28253">
        <ele>1047</ele>
        <time>2018-05-01T06:09:36Z</time>
      </trkpt>
      <trkpt lat="44.72117" lon="3.28246">
        <ele>1046</ele>
        <time>2018-05-01T06:09:41Z</time>
      </trkpt>
      <trkpt lat="44.72073" lon="3.28198">
        <ele>1042</ele>
        <time>2018-05-01T06:10:27Z</time>
      </trkpt>
      <trkpt lat="44.72045" lon="3.2821">
        <ele>1040</ele>
        <time>2018-05-01T06:10:52Z</time>
      </trkpt>
      <trkpt lat="44.72036" lon="3.28216">
        <ele>1039</ele>
        <time>2018-05-01T06:11:01Z</time>
      </trkpt>
      <trkpt lat="44.72032" lon="3.28218">
        <ele>1038</ele>
        <time>2018-05-01T06:11:05Z</time>
      </trkpt>
      <trkpt lat="44.72027" lon="3.28216">
        <ele>1038</ele>
        <time>2018-05-01T06:11:09Z</time>
      </trkpt>
      <trkpt lat="44.7201" lon="3.282">
        <ele>1037</ele>
        <time>2018-05-01T06:11:25Z</time>
      </trkpt>
      <trkpt lat="44.72005" lon="3.28188">
        <ele>1037</ele>
        <time>2018-05-01T06:11:32Z</time>
      </trkpt>
      <trkpt lat="44.72004" lon="3.2818">
        <ele>1036</ele>
        <time>2018-05-01T06:11:37Z</time>
      </trkpt>
      <trkpt lat="44.71998" lon="3.2817">
        <ele>1036</ele>
        <time>2018-05-01T06:11:45Z</time>
      </trkpt>
      <trkpt lat="44.71993" lon="3.28168">
        <ele>1036</ele>
        <time>2018-05-01T06:11:49Z</time>
      </trkpt>
      <trkpt lat="44.71956" lon="3.28186">
        <ele>1034</ele>
        <time>2018-05-01T06:12:20Z</time>
      </trkpt>
      <trkpt lat="44.71922" lon="3.28195">
        <ele>1033</ele>
        <time>2018-05-01T06:12:50Z</time>
      </trkpt>
      <trkpt lat="44.71908" lon="3.28212">
        <ele>1033</ele>
        <time>2018-05-01T06:13:06Z</time>
      </trkpt>
      <trkpt lat="44.71882" lon="3.28224">
        <ele>1034</ele>
        <time>2018-05-01T06:13:30Z</time>
      </trkpt>
      <trkpt lat="44.71875" lon="3.2823">
        <ele>1034</ele>
        <time>2018-05-01T06:13:37Z</time>
      </trkpt>
      <trkpt lat="44.71867" lon="3.2824">
        <ele>1034</ele>
        <time>2018-05-01T06:13:45Z</time>
      </trkpt>
      <trkpt lat="44.71858" lon="3.28247">
        <ele>1034</ele>
        <time>2018-05-01T06:13:54Z</time>
      </trkpt>
      <trkpt lat="44.71855" lon="3.28252">
        <ele>1034</ele>
        <time>2018-05-01T06:13:58Z</time>
      </trkpt>
      <trkpt lat="44.7183" lon="3.28275">
        <ele>1034</ele>
        <time>2018-05-01T06:14:24Z</time>
      </trkpt>
      <trkpt lat="44.71821" lon="3.28289">
        <ele>1035</ele>
        <time>2018-05-01T06:14:36Z</time>
      </trkpt>
      <trkpt lat="44.71789" lon="3.28325">
        <ele>1037</ele>
        <time>2018-05-01T06:15:15Z</time>
      </trkpt>
      <trkpt lat="44.71752" lon="3.28359">
        <ele>1040</ele>
        <time>2018-05-01T06:15:59Z</time>
      </trkpt>
      <trkpt lat="44.71742" lon="3.28363">
        <ele>1040</ele>
        <time>2018-05-01T06:16:13Z</time>
      </trkpt>
      <trkpt lat="44.71712" lon="3.28357">
        <ele>1041</ele>
        <time>2018-05-01T06:16:41Z</time>
      </trkpt>
      <trkpt lat="44.71703" lon="3.28352">
        <ele>1041</ele>
        <time>2018-05-01T06:16:50Z</time>
      </trkpt>
      <trkpt lat="44.71657" lon="3.28248">
        <ele>1046</ele>
        <time>2018-05-01T06:18:17Z</time>
      </trkpt>
      <trkpt lat="44.71654" lon="3.28232">
        <ele>1047</ele>
        <time>2018-05-01T06:18:27Z</time>
      </trkpt>
      <trkpt lat="44.71642" lon="3.28212">
        <ele>1048</ele>
        <time>2018-05-01T06:18:46Z</time>
      </trkpt>
      <trkpt lat="44.71574" lon="3.28145">
        <ele>1057</ele>
        <time>2018-05-01T06:20:13Z</time>
      </trkpt>
      <trkpt lat="44.71568" lon="3.28147">
        <ele>1058</ele>
        <time>2018-05-01T06:20:36Z</time>
      </trkpt>
      <trkpt lat="44.71544" lon="3.28116">
        <ele>1063</ele>
        <time>2018-05-01T06:21:12Z</time>
      </trkpt>
      <trkpt lat="44.71533" lon="3.28107">
        <ele>1066</ele>
        <time>2018-05-01T06:21:29Z</time>
      </trkpt>
      <trkpt lat="44.71524" lon="3.28101">
        <ele>1068</ele>
        <time>2018-05-01T06:21:43Z</time>
      </trkpt>
      <trkpt lat="44.71509" lon="3.28078">
        <ele>1070</ele>
        <time>2018-05-01T06:22:06Z</time>
      </trkpt>
      <trkpt lat="44.71479" lon="3.28052">
        <ele>1070</ele>
        <time>2018-05-01T06:22:37Z</time>
      </trkpt>
      <trkpt lat="44.71458" lon="3.2803">
        <ele>1068</ele>
        <time>2018-05-01T06:23:01Z</time>
      </trkpt>
      <trkpt lat="44.71435" lon="3.2799">
        <ele>1066</ele>
        <time>2018-05-01T06:23:35Z</time>
      </trkpt>
      <trkpt lat="44.71428" lon="3.2798">
        <ele>1065</ele>
        <time>2018-05-01T06:23:44Z</time>
      </trkpt>
      <trkpt lat="44.71422" lon="3.27959">
        <ele>1064</ele>
        <time>2018-05-01T06:23:59Z</time>
      </trkpt>
      <trkpt lat="44.71419" lon="3.27938">
        <ele>1063</ele>
        <time>2018-05-01T06:24:12Z</time>
      </trkpt>
      <trkpt lat="44.71422" lon="3.27901">
        <ele>1063</ele>
        <time>2018-05-01T06:24:34Z</time>
      </trkpt>
      <trkpt lat="44.71402" lon="3.27624">
        <ele>1063</ele>
        <time>2018-05-01T06:27:25Z</time>
      </trkpt>
      <trkpt lat="44.71397" lon="3.27612">
        <ele>1063</ele>
        <time>2018-05-01T06:27:33Z</time>
      </trkpt>
      <trkpt lat="44.71389" lon="3.27606">
        <ele>1063</ele>
        <time>2018-05-01T06:27:40Z</time>
      </trkpt>
      <trkpt lat="44.71371" lon="3.27574">
        <ele>1064</ele>
        <time>2018-05-01T06:28:05Z</time>
      </trkpt>
      <trkpt lat="44.71352" lon="3.27527">
        <ele>1064</ele>
        <time>2018-05-01T06:28:39Z</time>
      </trkpt>
      <trkpt lat="44.71326" lon="3.27494">
        <ele>1064</ele>
        <time>2018-05-01T06:29:08Z</time>
      </trkpt>
      <trkpt lat="44.71322" lon="3.2749">
        <ele>1064</ele>
        <time>2018-05-01T06:29:12Z</time>
      </trkpt>
      <trkpt lat="44.71319" lon="3.27485">
        <ele>1065</ele>
        <time>2018-05-01T06:29:16Z</time>
      </trkpt>
      <trkpt lat="44.71312" lon="3.2748">
        <ele>1065</ele>
        <time>2018-05-01T06:29:34Z</time>
      </trkpt>
      <trkpt lat="44.71294" lon="3.27456">
        <ele>1064</ele>
        <time>2018-05-01T06:29:56Z</time>
      </trkpt>
      <trkpt lat="44.71277" lon="3.2742">
        <ele>1061</ele>
        <time>2018-05-01T06:30:22Z</time>
      </trkpt>
      <trkpt lat="44.71259" lon="3.27394">
        <ele>1060</ele>
        <time>2018-05-01T06:30:44Z</time>
      </trkpt>
      <trkpt lat="44.71241" lon="3.27358">
        <ele>1059</ele>
        <time>2018-05-01T06:31:07Z</time>
      </trkpt>
      <trkpt lat="44.71209" lon="3.27322">
        <ele>1059</ele>
        <time>2018-05-01T06:31:39Z</time>
      </trkpt>
      <trkpt lat="44.71205" lon="3.27319">
        <ele>1059</ele>
        <time>2018-05-01T06:31:43Z</time>
      </trkpt>
      <trkpt lat="44.71185" lon="3.27287">
        <ele>1060</ele>
        <time>2018-05-01T06:32:10Z</time>
      </trkpt>
      <trkpt lat="44.71177" lon="3.27282">
        <ele>1059</ele>
        <time>2018-05-01T06:32:18Z</time>
      </trkpt>
      <trkpt lat="44.7116" lon="3.27286">
        <ele>1059</ele>
        <time>2018-05-01T06:32:30Z</time>
      </trkpt>
      <trkpt lat="44.71137" lon="3.27303">
        <ele>1058</ele>
        <time>2018-05-01T06:32:49Z</time>
      </trkpt>
      <trkpt lat="44.71118" lon="3.27325">
        <ele>1054</ele>
        <time>2018-05-01T06:33:16Z</time>
      </trkpt>
      <trkpt lat="44.7111" lon="3.27319">
        <ele>1053</ele>
        <time>2018-05-01T06:33:24Z</time>
      </trkpt>
      <trkpt lat="44.71089" lon="3.27291">
        <ele>1054</ele>
        <time>2018-05-01T06:34:04Z</time>
      </trkpt>
      <trkpt lat="44.71094" lon="3.27281">
        <ele>1055</ele>
        <time>2018-05-01T06:34:09Z</time>
      </trkpt>
      <trkpt lat="44.71098" lon="3.27279">
        <ele>1055</ele>
        <time>2018-05-01T06:34:16Z</time>
      </trkpt>
      <trkpt lat="44.711" lon="3.2727">
        <ele>1055</ele>
        <time>2018-05-01T06:34:39Z</time>
      </trkpt>
      <trkpt lat="44.71104" lon="3.27268">
        <ele>1055</ele>
        <time>2018-05-01T06:34:43Z</time>
      </trkpt>
      <trkpt lat="44.71109" lon="3.27267">
        <ele>1056</ele>
        <time>2018-05-01T06:34:48Z</time>
      </trkpt>
      <trkpt lat="44.71114" lon="3.27264">
        <ele>1057</ele>
        <time>2018-05-01T06:34:53Z</time>
      </trkpt>
      <trkpt lat="44.71118" lon="3.27257">
        <ele>1058</ele>
        <time>2018-05-01T06:35:01Z</time>
      </trkpt>
      <trkpt lat="44.7112" lon="3.27249">
        <ele>1058</ele>
        <time>2018-05-01T06:35:06Z</time>
      </trkpt>
      <trkpt lat="44.71106" lon="3.2721">
        <ele>1058</ele>
        <time>2018-05-01T06:35:45Z</time>
      </trkpt>
      <trkpt lat="44.71089" lon="3.27195">
        <ele>1057</ele>
        <time>2018-05-01T06:36:03Z</time>
      </trkpt>
      <trkpt lat="44.71086" lon="3.27188">
        <ele>1057</ele>
        <time>2018-05-01T06:36:08Z</time>
      </trkpt>
      <trkpt lat="44.71067" lon="3.27165">
        <ele>1057</ele>
        <time>2018-05-01T06:36:31Z</time>
      </trkpt>
      <trkpt lat="44.71064" lon="3.27158">
        <ele>1057</ele>
        <time>2018-05-01T06:36:36Z</time>
      </trkpt>
      <trkpt lat="44.71039" lon="3.27119">
        <ele>1057</ele>
        <time>2018-05-01T06:37:08Z</time>
      </trkpt>
      <trkpt lat="44.71034" lon="3.27116">
        <ele>1057</ele>
        <time>2018-05-01T06:37:12Z</time>
      </trkpt>
      <trkpt lat="44.71029" lon="3.27114">
        <ele>1057</ele>
        <time>2018-05-01T06:37:16Z</time>
      </trkpt>
      <trkpt lat="44.70999" lon="3.27078">
        <ele>1058</ele>
        <time>2018-05-01T06:38:08Z</time>
      </trkpt>
      <trkpt lat="44.70994" lon="3.27075">
        <ele>1058</ele>
        <time>2018-05-01T06:38:13Z</time>
      </trkpt>
      <trkpt lat="44.70993" lon="3.27067">
        <ele>1058</ele>
        <time>2018-05-01T06:38:17Z</time>
      </trkpt>
      <trkpt lat="44.70986" lon="3.27056">
        <ele>1058</ele>
        <time>2018-05-01T06:38:25Z</time>
      </trkpt>
      <trkpt lat="44.70984" lon="3.2705">
        <ele>1058</ele>
        <time>2018-05-01T06:38:29Z</time>
      </trkpt>
      <trkpt lat="44.70971" lon="3.27037">
        <ele>1058</ele>
        <time>2018-05-01T06:38:45Z</time>
      </trkpt>
      <trkpt lat="44.70931" lon="3.27013">
        <ele>1057</ele>
        <time>2018-05-01T06:39:21Z</time>
      </trkpt>
      <trkpt lat="44.70917" lon="3.27001">
        <ele>1056</ele>
        <time>2018-05-01T06:39:34Z</time>
      </trkpt>
      <trkpt lat="44.70914" lon="3.26996">
        <ele>1056</ele>
        <time>2018-05-01T06:39:38Z</time>
      </trkpt>
      <trkpt lat="44.70896" lon="3.26983">
        <ele>1056</ele>
        <time>2018-05-01T06:39:55Z</time>
      </trkpt>
      <trkpt lat="44.70887" lon="3.2698">
        <ele>1056</ele>
        <time>2018-05-01T06:40:07Z</time>
      </trkpt>
      <trkpt lat="44.70868" lon="3.26968">
        <ele>1055</ele>
        <time>2018-05-01T06:40:24Z</time>
      </trkpt>
      <trkpt lat="44.70864" lon="3.26967">
        <ele>1055</ele>
        <time>2018-05-01T06:40:28Z</time>
      </trkpt>
      <trkpt lat="44.7083" lon="3.26953">
        <ele>1055</ele>
        <time>2018-05-01T06:40:58Z</time>
      </trkpt>
      <trkpt lat="44.70821" lon="3.26951">
        <ele>1054</ele>
        <time>2018-05-01T06:41:07Z</time>
      </trkpt>
      <trkpt lat="44.70815" lon="3.26949">
        <ele>1053</ele>
        <time>2018-05-01T06:41:12Z</time>
      </trkpt>
      <trkpt lat="44.70806" lon="3.26947">
        <ele>1052</ele>
        <time>2018-05-01T06:41:21Z</time>
      </trkpt>
      <trkpt lat="44.70802" lon="3.26943">
        <ele>1052</ele>
        <time>2018-05-01T06:41:25Z</time>
      </trkpt>
      <trkpt lat="44.70777" lon="3.2694">
        <ele>1051</ele>
        <time>2018-05-01T06:41:45Z</time>
      </trkpt>
      <trkpt lat="44.70767" lon="3.26936">
        <ele>1050</ele>
        <time>2018-05-01T06:41:53Z</time>
      </trkpt>
      <trkpt lat="44.7069" lon="3.26926">
        <ele>1047</ele>
        <time>2018-05-01T06:42:55Z</time>
      </trkpt>
      <trkpt lat="44.70676" lon="3.2692">
        <ele>1046</ele>
        <time>2018-05-01T06:43:08Z</time>
      </trkpt>
      <trkpt lat="44.70636" lon="3.26893">
        <ele>1045</ele>
        <time>2018-05-01T06:43:44Z</time>
      </trkpt>
      <trkpt lat="44.70607" lon="3.26878">
        <ele>1045</ele>
        <time>2018-05-01T06:44:09Z</time>
      </trkpt>
      <trkpt lat="44.70587" lon="3.26872">
        <ele>1045</ele>
        <time>2018-05-01T06:44:26Z</time>
      </trkpt>
      <trkpt lat="44.70578" lon="3.26868">
        <ele>1045</ele>
        <time>2018-05-01T06:44:33Z</time>
      </trkpt>
      <trkpt lat="44.70577" lon="3.26862">
        <ele>1045</ele>
        <time>2018-05-01T06:44:37Z</time>
      </trkpt>
      <trkpt lat="44.70542" lon="3.26836">
        <ele>1044</ele>
        <time>2018-05-01T06:45:11Z</time>
      </trkpt>
      <trkpt lat="44.70537" lon="3.26833">
        <ele>1044</ele>
        <time>2018-05-01T06:45:16Z</time>
      </trkpt>
      <trkpt lat="44.70532" lon="3.26832">
        <ele>1044</ele>
        <time>2018-05-01T06:45:21Z</time>
      </trkpt>
      <trkpt lat="44.70526" lon="3.26836">
        <ele>1047</ele>
        <time>2018-05-01T06:48:24Z</time>
      </trkpt>
      <trkpt lat="44.7052" lon="3.26838">
        <ele>1047</ele>
        <time>2018-05-01T06:48:28Z</time>
      </trkpt>
      <trkpt lat="44.7051" lon="3.2684">
        <ele>1047</ele>
        <time>2018-05-01T06:48:35Z</time>
      </trkpt>
      <trkpt lat="44.70498" lon="3.26837">
        <ele>1046</ele>
        <time>2018-05-01T06:48:55Z</time>
      </trkpt>
      <trkpt lat="44.70492" lon="3.26838">
        <ele>1046</ele>
        <time>2018-05-01T06:48:59Z</time>
      </trkpt>
      <trkpt lat="44.70488" lon="3.26836">
        <ele>1046</ele>
        <time>2018-05-01T06:49:03Z</time>
      </trkpt>
      <trkpt lat="44.70484" lon="3.2683">
        <ele>1046</ele>
        <time>2018-05-01T06:49:08Z</time>
      </trkpt>
      <trkpt lat="44.70479" lon="3.26829">
        <ele>1046</ele>
        <time>2018-05-01T06:49:13Z</time>
      </trkpt>
      <trkpt lat="44.70473" lon="3.26831">
        <ele>1046</ele>
        <time>2018-05-01T06:49:17Z</time>
      </trkpt>
      <trkpt lat="44.70429" lon="3.26836">
        <ele>1045</ele>
        <time>2018-05-01T06:49:51Z</time>
      </trkpt>
      <trkpt lat="44.70394" lon="3.26845">
        <ele>1045</ele>
        <time>2018-05-01T06:50:15Z</time>
      </trkpt>
      <trkpt lat="44.70361" lon="3.26844">
        <ele>1044</ele>
        <time>2018-05-01T06:50:41Z</time>
      </trkpt>
      <trkpt lat="44.70357" lon="3.2684">
        <ele>1043</ele>
        <time>2018-05-01T06:50:46Z</time>
      </trkpt>
      <trkpt lat="44.70352" lon="3.26839">
        <ele>1043</ele>
        <time>2018-05-01T06:50:50Z</time>
      </trkpt>
      <trkpt lat="44.7033" lon="3.26842">
        <ele>1042</ele>
        <time>2018-05-01T06:51:05Z</time>
      </trkpt>
      <trkpt lat="44.70325" lon="3.26844">
        <ele>1042</ele>
        <time>2018-05-01T06:51:08Z</time>
      </trkpt>
      <trkpt lat="44.70316" lon="3.26839">
        <ele>1042</ele>
        <time>2018-05-01T06:51:18Z</time>
      </trkpt>
      <trkpt lat="44.7031" lon="3.2684">
        <ele>1042</ele>
        <time>2018-05-01T06:51:21Z</time>
      </trkpt>
      <trkpt lat="44.70307" lon="3.26834">
        <ele>1042</ele>
        <time>2018-05-01T06:51:26Z</time>
      </trkpt>
      <trkpt lat="44.70191" lon="3.26809">
        <ele>1040</ele>
        <time>2018-05-01T06:53:01Z</time>
      </trkpt>
      <trkpt lat="44.70171" lon="3.26802">
        <ele>1040</ele>
        <time>2018-05-01T06:53:18Z</time>
      </trkpt>
      <trkpt lat="44.70166" lon="3.26798">
        <ele>1040</ele>
        <time>2018-05-01T06:53:22Z</time>
      </trkpt>
      <trkpt lat="44.70155" lon="3.26797">
        <ele>1039</ele>
        <time>2018-05-01T06:53:31Z</time>
      </trkpt>
      <trkpt lat="44.70131" lon="3.26787">
        <ele>1039</ele>
        <time>2018-05-01T06:53:52Z</time>
      </trkpt>
      <trkpt lat="44.70123" lon="3.26778">
        <ele>1040</ele>
        <time>2018-05-01T06:54:01Z</time>
      </trkpt>
      <trkpt lat="44.70102" lon="3.26728">
        <ele>1039</ele>
        <time>2018-05-01T06:54:35Z</time>
      </trkpt>
      <trkpt lat="44.70072" lon="3.26679">
        <ele>1036</ele>
        <time>2018-05-01T06:55:12Z</time>
      </trkpt>
      <trkpt lat="44.70067" lon="3.26675">
        <ele>1036</ele>
        <time>2018-05-01T06:55:16Z</time>
      </trkpt>
      <trkpt lat="44.70064" lon="3.2667">
        <ele>1036</ele>
        <time>2018-05-01T06:55:20Z</time>
      </trkpt>
      <trkpt lat="44.70056" lon="3.2665">
        <ele>1035</ele>
        <time>2018-05-01T06:55:32Z</time>
      </trkpt>
      <trkpt lat="44.70053" lon="3.26637">
        <ele>1034</ele>
        <time>2018-05-01T06:55:40Z</time>
      </trkpt>
      <trkpt lat="44.70046" lon="3.26626">
        <ele>1034</ele>
        <time>2018-05-01T06:55:48Z</time>
      </trkpt>
      <trkpt lat="44.70002" lon="3.26526">
        <ele>1029</ele>
        <time>2018-05-01T06:56:55Z</time>
      </trkpt>
      <trkpt lat="44.69999" lon="3.26521">
        <ele>1029</ele>
        <time>2018-05-01T06:56:59Z</time>
      </trkpt>
      <trkpt lat="44.69983" lon="3.26469">
        <ele>1027</ele>
        <time>2018-05-01T06:57:32Z</time>
      </trkpt>
      <trkpt lat="44.69961" lon="3.2642">
        <ele>1025</ele>
        <time>2018-05-01T06:58:04Z</time>
      </trkpt>
      <trkpt lat="44.6995" lon="3.26388">
        <ele>1024</ele>
        <time>2018-05-01T06:58:25Z</time>
      </trkpt>
      <trkpt lat="44.69941" lon="3.26369">
        <ele>1023</ele>
        <time>2018-05-01T06:58:39Z</time>
      </trkpt>
      <trkpt lat="44.6994" lon="3.26363">
        <ele>1022</ele>
        <time>2018-05-01T06:58:44Z</time>
      </trkpt>
      <trkpt lat="44.69933" lon="3.26351">
        <ele>1020</ele>
        <time>2018-05-01T06:58:53Z</time>
      </trkpt>
      <trkpt lat="44.69929" lon="3.26337">
        <ele>1020</ele>
        <time>2018-05-01T06:59:01Z</time>
      </trkpt>
      <trkpt lat="44.6992" lon="3.2632">
        <ele>1019</ele>
        <time>2018-05-01T06:59:13Z</time>
      </trkpt>
      <trkpt lat="44.69908" lon="3.26307">
        <ele>1018</ele>
        <time>2018-05-01T06:59:25Z</time>
      </trkpt>
      <trkpt lat="44.69898" lon="3.26301">
        <ele>1017</ele>
        <time>2018-05-01T06:59:32Z</time>
      </trkpt>
      <trkpt lat="44.69879" lon="3.26284">
        <ele>1016</ele>
        <time>2018-05-01T06:59:52Z</time>
      </trkpt>
      <trkpt lat="44.69869" lon="3.2628">
        <ele>1016</ele>
        <time>2018-05-01T06:59:59Z</time>
      </trkpt>
      <trkpt lat="44.69861" lon="3.26274">
        <ele>1016</ele>
        <time>2018-05-01T07:00:06Z</time>
      </trkpt>
      <trkpt lat="44.69857" lon="3.26268">
        <ele>1016</ele>
        <time>2018-05-01T07:00:11Z</time>
      </trkpt>
      <trkpt lat="44.69855" lon="3.26261">
        <ele>1016</ele>
        <time>2018-05-01T07:00:15Z</time>
      </trkpt>
      <trkpt lat="44.69858" lon="3.26254">
        <ele>1016</ele>
        <time>2018-05-01T07:00:19Z</time>
      </trkpt>
      <trkpt lat="44.69957" lon="3.26199">
        <ele>1017</ele>
        <time>2018-05-01T07:01:48Z</time>
      </trkpt>
      <trkpt lat="44.69977" lon="3.26176">
        <ele>1017</ele>
        <time>2018-05-01T07:02:11Z</time>
      </trkpt>
      <trkpt lat="44.69983" lon="3.26166">
        <ele>1017</ele>
        <time>2018-05-01T07:02:20Z</time>
      </trkpt>
      <trkpt lat="44.69987" lon="3.26154">
        <ele>1017</ele>
        <time>2018-05-01T07:02:28Z</time>
      </trkpt>
      <trkpt lat="44.69991" lon="3.26085">
        <ele>1018</ele>
        <time>2018-05-01T07:04:27Z</time>
      </trkpt>
      <trkpt lat="44.6999" lon="3.26056">
        <ele>1018</ele>
        <time>2018-05-01T07:04:51Z</time>
      </trkpt>
      <trkpt lat="44.69995" lon="3.26022">
        <ele>1019</ele>
        <time>2018-05-01T07:05:16Z</time>
      </trkpt>
      <trkpt lat="44.70009" lon="3.25992">
        <ele>1019</ele>
        <time>2018-05-01T07:05:39Z</time>
      </trkpt>
      <trkpt lat="44.70025" lon="3.25947">
        <ele>1020</ele>
        <time>2018-05-01T07:06:13Z</time>
      </trkpt>
      <trkpt lat="44.7004" lon="3.25849">
        <ele>1022</ele>
        <time>2018-05-01T07:07:18Z</time>
      </trkpt>
      <trkpt lat="44.70044" lon="3.25837">
        <ele>1023</ele>
        <time>2018-05-01T07:07:27Z</time>
      </trkpt>
      <trkpt lat="44.70054" lon="3.25781">
        <ele>1024</ele>
        <time>2018-05-01T07:08:01Z</time>
      </trkpt>
      <trkpt lat="44.70067" lon="3.25737">
        <ele>1025</ele>
        <time>2018-05-01T07:08:29Z</time>
      </trkpt>
      <trkpt lat="44.7007" lon="3.25732">
        <ele>1025</ele>
        <time>2018-05-01T07:08:33Z</time>
      </trkpt>
      <trkpt lat="44.70077" lon="3.25716">
        <ele>1025</ele>
        <time>2018-05-01T07:08:45Z</time>
      </trkpt>
      <trkpt lat="44.70086" lon="3.25683">
        <ele>1026</ele>
        <time>2018-05-01T07:09:05Z</time>
      </trkpt>
      <trkpt lat="44.70105" lon="3.25641">
        <ele>1027</ele>
        <time>2018-05-01T07:09:36Z</time>
      </trkpt>
      <trkpt lat="44.70157" lon="3.25557">
        <ele>1029</ele>
        <time>2018-05-01T07:10:44Z</time>
      </trkpt>
      <trkpt lat="44.70181" lon="3.25531">
        <ele>1030</ele>
        <time>2018-05-01T07:11:13Z</time>
      </trkpt>
      <trkpt lat="44.70186" lon="3.25523">
        <ele>1031</ele>
        <time>2018-05-01T07:11:25Z</time>
      </trkpt>
      <trkpt lat="44.70194" lon="3.25514">
        <ele>1031</ele>
        <time>2018-05-01T07:11:35Z</time>
      </trkpt>
      <trkpt lat="44.70196" lon="3.25508">
        <ele>1032</ele>
        <time>2018-05-01T07:11:39Z</time>
      </trkpt>
      <trkpt lat="44.70214" lon="3.25489">
        <ele>1033</ele>
        <time>2018-05-01T07:12:06Z</time>
      </trkpt>
      <trkpt lat="44.70231" lon="3.25477">
        <ele>1035</ele>
        <time>2018-05-01T07:12:26Z</time>
      </trkpt>
      <trkpt lat="44.70244" lon="3.25464">
        <ele>1035</ele>
        <time>2018-05-01T07:12:41Z</time>
      </trkpt>
      <trkpt lat="44.70247" lon="3.25458">
        <ele>1035</ele>
        <time>2018-05-01T07:12:46Z</time>
      </trkpt>
      <trkpt lat="44.70249" lon="3.25452">
        <ele>1036</ele>
        <time>2018-05-01T07:12:51Z</time>
      </trkpt>
      <trkpt lat="44.70253" lon="3.25447">
        <ele>1036</ele>
        <time>2018-05-01T07:12:59Z</time>
      </trkpt>
      <trkpt lat="44.70262" lon="3.25428">
        <ele>1038</ele>
        <time>2018-05-01T07:13:19Z</time>
      </trkpt>
      <trkpt lat="44.70263" lon="3.25421">
        <ele>1039</ele>
        <time>2018-05-01T07:13:25Z</time>
      </trkpt>
      <trkpt lat="44.70266" lon="3.25415">
        <ele>1039</ele>
        <time>2018-05-01T07:13:31Z</time>
      </trkpt>
      <trkpt lat="44.70262" lon="3.25388">
        <ele>1040</ele>
        <time>2018-05-01T07:13:48Z</time>
      </trkpt>
      <trkpt lat="44.70264" lon="3.25366">
        <ele>1040</ele>
        <time>2018-05-01T07:14:42Z</time>
      </trkpt>
      <trkpt lat="44.70274" lon="3.25368">
        <ele>1041</ele>
        <time>2018-05-01T07:14:59Z</time>
      </trkpt>
      <trkpt lat="44.70281" lon="3.25365">
        <ele>1042</ele>
        <time>2018-05-01T07:15:06Z</time>
      </trkpt>
      <trkpt lat="44.70309" lon="3.25361">
        <ele>1045</ele>
        <time>2018-05-01T07:15:46Z</time>
      </trkpt>
      <trkpt lat="44.70313" lon="3.25358">
        <ele>1046</ele>
        <time>2018-05-01T07:15:50Z</time>
      </trkpt>
      <trkpt lat="44.70319" lon="3.25345">
        <ele>1046</ele>
        <time>2018-05-01T07:15:59Z</time>
      </trkpt>
      <trkpt lat="44.7032" lon="3.25339">
        <ele>1046</ele>
        <time>2018-05-01T07:16:03Z</time>
      </trkpt>
      <trkpt lat="44.70315" lon="3.25323">
        <ele>1047</ele>
        <time>2018-05-01T07:16:19Z</time>
      </trkpt>
      <trkpt lat="44.70316" lon="3.25316">
        <ele>1047</ele>
        <time>2018-05-01T07:16:25Z</time>
      </trkpt>
      <trkpt lat="44.70308" lon="3.25311">
        <ele>1045</ele>
        <time>2018-05-01T07:16:34Z</time>
      </trkpt>
      <trkpt lat="44.70304" lon="3.25309">
        <ele>1045</ele>
        <time>2018-05-01T07:16:37Z</time>
      </trkpt>
      <trkpt lat="44.703" lon="3.25316">
        <ele>1044</ele>
        <time>2018-05-01T07:16:49Z</time>
      </trkpt>
      <trkpt lat="44.70302" lon="3.25348">
        <ele>1050</ele>
        <time>2018-05-01T07:22:26Z</time>
      </trkpt>
      <trkpt lat="44.70269" lon="3.25306">
        <ele>1047</ele>
        <time>2018-05-01T07:23:14Z</time>
      </trkpt>
      <trkpt lat="44.70287" lon="3.25324">
        <ele>1046</ele>
        <time>2018-05-01T07:23:26Z</time>
      </trkpt>
      <trkpt lat="44.70284" lon="3.25318">
        <ele>1045</ele>
        <time>2018-05-01T07:24:06Z</time>
      </trkpt>
      <trkpt lat="44.70281" lon="3.25299">
        <ele>1042</ele>
        <time>2018-05-01T07:25:00Z</time>
      </trkpt>
      <trkpt lat="44.70286" lon="3.25285">
        <ele>1042</ele>
        <time>2018-05-01T07:25:10Z</time>
      </trkpt>
      <trkpt lat="44.70294" lon="3.25275">
        <ele>1042</ele>
        <time>2018-05-01T07:25:18Z</time>
      </trkpt>
      <trkpt lat="44.70304" lon="3.2527">
        <ele>1042</ele>
        <time>2018-05-01T07:25:27Z</time>
      </trkpt>
      <trkpt lat="44.70313" lon="3.25268">
        <ele>1042</ele>
        <time>2018-05-01T07:25:35Z</time>
      </trkpt>
      <trkpt lat="44.70333" lon="3.25277">
        <ele>1043</ele>
        <time>2018-05-01T07:25:54Z</time>
      </trkpt>
      <trkpt lat="44.70338" lon="3.2528">
        <ele>1044</ele>
        <time>2018-05-01T07:25:59Z</time>
      </trkpt>
      <trkpt lat="44.70343" lon="3.25281">
        <ele>1044</ele>
        <time>2018-05-01T07:26:03Z</time>
      </trkpt>
      <trkpt lat="44.70349" lon="3.2528">
        <ele>1044</ele>
        <time>2018-05-01T07:26:08Z</time>
      </trkpt>
      <trkpt lat="44.70358" lon="3.25282">
        <ele>1044</ele>
        <time>2018-05-01T07:26:16Z</time>
      </trkpt>
      <trkpt lat="44.70386" lon="3.25272">
        <ele>1045</ele>
        <time>2018-05-01T07:26:42Z</time>
      </trkpt>
      <trkpt lat="44.70415" lon="3.25257">
        <ele>1046</ele>
        <time>2018-05-01T07:27:10Z</time>
      </trkpt>
      <trkpt lat="44.70429" lon="3.25248">
        <ele>1046</ele>
        <time>2018-05-01T07:27:22Z</time>
      </trkpt>
      <trkpt lat="44.70434" lon="3.25247">
        <ele>1046</ele>
        <time>2018-05-01T07:27:26Z</time>
      </trkpt>
      <trkpt lat="44.70439" lon="3.25245">
        <ele>1046</ele>
        <time>2018-05-01T07:27:30Z</time>
      </trkpt>
      <trkpt lat="44.70454" lon="3.25225">
        <ele>1046</ele>
        <time>2018-05-01T07:27:47Z</time>
      </trkpt>
      <trkpt lat="44.70458" lon="3.25223">
        <ele>1046</ele>
        <time>2018-05-01T07:27:51Z</time>
      </trkpt>
      <trkpt lat="44.70472" lon="3.25213">
        <ele>1046</ele>
        <time>2018-05-01T07:28:05Z</time>
      </trkpt>
      <trkpt lat="44.70506" lon="3.25196">
        <ele>1047</ele>
        <time>2018-05-01T07:28:36Z</time>
      </trkpt>
      <trkpt lat="44.70536" lon="3.25171">
        <ele>1048</ele>
        <time>2018-05-01T07:29:07Z</time>
      </trkpt>
      <trkpt lat="44.70546" lon="3.25154">
        <ele>1049</ele>
        <time>2018-05-01T07:29:21Z</time>
      </trkpt>
      <trkpt lat="44.70609" lon="3.25068">
        <ele>1055</ele>
        <time>2018-05-01T07:30:47Z</time>
      </trkpt>
      <trkpt lat="44.70617" lon="3.25062">
        <ele>1055</ele>
        <time>2018-05-01T07:30:55Z</time>
      </trkpt>
      <trkpt lat="44.7064" lon="3.25037">
        <ele>1057</ele>
        <time>2018-05-01T07:31:20Z</time>
      </trkpt>
      <trkpt lat="44.70649" lon="3.25022">
        <ele>1058</ele>
        <time>2018-05-01T07:31:32Z</time>
      </trkpt>
      <trkpt lat="44.70654" lon="3.25023">
        <ele>1059</ele>
        <time>2018-05-01T07:31:36Z</time>
      </trkpt>
      <trkpt lat="44.70659" lon="3.2502">
        <ele>1059</ele>
        <time>2018-05-01T07:31:41Z</time>
      </trkpt>
      <trkpt lat="44.7068" lon="3.24992">
        <ele>1061</ele>
        <time>2018-05-01T07:32:06Z</time>
      </trkpt>
      <trkpt lat="44.70684" lon="3.24989">
        <ele>1061</ele>
        <time>2018-05-01T07:32:11Z</time>
      </trkpt>
      <trkpt lat="44.70746" lon="3.24893">
        <ele>1063</ele>
        <time>2018-05-01T07:33:48Z</time>
      </trkpt>
      <trkpt lat="44.70763" lon="3.24852">
        <ele>1064</ele>
        <time>2018-05-01T07:34:18Z</time>
      </trkpt>
      <trkpt lat="44.70767" lon="3.24847">
        <ele>1065</ele>
        <time>2018-05-01T07:34:23Z</time>
      </trkpt>
      <trkpt lat="44.70768" lon="3.2484">
        <ele>1065</ele>
        <time>2018-05-01T07:34:27Z</time>
      </trkpt>
      <trkpt lat="44.70791" lon="3.24792">
        <ele>1068</ele>
        <time>2018-05-01T07:35:08Z</time>
      </trkpt>
      <trkpt lat="44.70795" lon="3.24787">
        <ele>1069</ele>
        <time>2018-05-01T07:35:13Z</time>
      </trkpt>
      <trkpt lat="44.70823" lon="3.24734">
        <ele>1069</ele>
        <time>2018-05-01T07:36:10Z</time>
      </trkpt>
      <trkpt lat="44.70853" lon="3.24693">
        <ele>1068</ele>
        <time>2018-05-01T07:36:42Z</time>
      </trkpt>
      <trkpt lat="44.70861" lon="3.24686">
        <ele>1067</ele>
        <time>2018-05-01T07:36:50Z</time>
      </trkpt>
      <trkpt lat="44.70864" lon="3.2468">
        <ele>1067</ele>
        <time>2018-05-01T07:36:55Z</time>
      </trkpt>
      <trkpt lat="44.70878" lon="3.24668">
        <ele>1067</ele>
        <time>2018-05-01T07:37:08Z</time>
      </trkpt>
      <trkpt lat="44.70882" lon="3.24666">
        <ele>1066</ele>
        <time>2018-05-01T07:37:12Z</time>
      </trkpt>
      <trkpt lat="44.70909" lon="3.24638">
        <ele>1066</ele>
        <time>2018-05-01T07:37:40Z</time>
      </trkpt>
      <trkpt lat="44.70918" lon="3.24633">
        <ele>1065</ele>
        <time>2018-05-01T07:37:48Z</time>
      </trkpt>
      <trkpt lat="44.70932" lon="3.24622">
        <ele>1065</ele>
        <time>2018-05-01T07:38:00Z</time>
      </trkpt>
      <trkpt lat="44.70942" lon="3.24618">
        <ele>1065</ele>
        <time>2018-05-01T07:38:09Z</time>
      </trkpt>
      <trkpt lat="44.70999" lon="3.24552">
        <ele>1065</ele>
        <time>2018-05-01T07:39:11Z</time>
      </trkpt>
      <trkpt lat="44.71024" lon="3.24508">
        <ele>1065</ele>
        <time>2018-05-01T07:39:45Z</time>
      </trkpt>
      <trkpt lat="44.7104" lon="3.24485">
        <ele>1066</ele>
        <time>2018-05-01T07:40:05Z</time>
      </trkpt>
      <trkpt lat="44.71044" lon="3.24482">
        <ele>1066</ele>
        <time>2018-05-01T07:40:09Z</time>
      </trkpt>
      <trkpt lat="44.71053" lon="3.24485">
        <ele>1066</ele>
        <time>2018-05-01T07:40:19Z</time>
      </trkpt>
      <trkpt lat="44.71052" lon="3.24477">
        <ele>1068</ele>
        <time>2018-05-01T07:40:47Z</time>
      </trkpt>
      <trkpt lat="44.71054" lon="3.24471">
        <ele>1069</ele>
        <time>2018-05-01T07:42:41Z</time>
      </trkpt>
      <trkpt lat="44.71053" lon="3.24463">
        <ele>1070</ele>
        <time>2018-05-01T07:43:11Z</time>
      </trkpt>
      <trkpt lat="44.71055" lon="3.24456">
        <ele>1070</ele>
        <time>2018-05-01T07:43:16Z</time>
      </trkpt>
      <trkpt lat="44.71058" lon="3.24451">
        <ele>1070</ele>
        <time>2018-05-01T07:43:25Z</time>
      </trkpt>
      <trkpt lat="44.71061" lon="3.24444">
        <ele>1070</ele>
        <time>2018-05-01T07:43:30Z</time>
      </trkpt>
      <trkpt lat="44.71116" lon="3.24263">
        <ele>1072</ele>
        <time>2018-05-01T07:45:30Z</time>
      </trkpt>
      <trkpt lat="44.7112" lon="3.24258">
        <ele>1073</ele>
        <time>2018-05-01T07:45:35Z</time>
      </trkpt>
      <trkpt lat="44.71158" lon="3.24162">
        <ele>1076</ele>
        <time>2018-05-01T07:46:39Z</time>
      </trkpt>
      <trkpt lat="44.7119" lon="3.24042">
        <ele>1082</ele>
        <time>2018-05-01T07:47:53Z</time>
      </trkpt>
      <trkpt lat="44.71191" lon="3.24035">
        <ele>1082</ele>
        <time>2018-05-01T07:47:57Z</time>
      </trkpt>
      <trkpt lat="44.71255" lon="3.23795">
        <ele>1089</ele>
        <time>2018-05-01T07:51:58Z</time>
      </trkpt>
      <trkpt lat="44.71264" lon="3.23777">
        <ele>1089</ele>
        <time>2018-05-01T07:52:12Z</time>
      </trkpt>
      <trkpt lat="44.71279" lon="3.2376">
        <ele>1089</ele>
        <time>2018-05-01T07:52:28Z</time>
      </trkpt>
      <trkpt lat="44.71288" lon="3.23754">
        <ele>1088</ele>
        <time>2018-05-01T07:52:36Z</time>
      </trkpt>
      <trkpt lat="44.713" lon="3.23741">
        <ele>1088</ele>
        <time>2018-05-01T07:52:49Z</time>
      </trkpt>
      <trkpt lat="44.71311" lon="3.2372">
        <ele>1088</ele>
        <time>2018-05-01T07:53:05Z</time>
      </trkpt>
      <trkpt lat="44.71313" lon="3.23714">
        <ele>1088</ele>
        <time>2018-05-01T07:53:09Z</time>
      </trkpt>
      <trkpt lat="44.71315" lon="3.237">
        <ele>1089</ele>
        <time>2018-05-01T07:53:17Z</time>
      </trkpt>
      <trkpt lat="44.71314" lon="3.2368">
        <ele>1089</ele>
        <time>2018-05-01T07:53:29Z</time>
      </trkpt>
      <trkpt lat="44.71311" lon="3.23667">
        <ele>1089</ele>
        <time>2018-05-01T07:53:37Z</time>
      </trkpt>
      <trkpt lat="44.71292" lon="3.23625">
        <ele>1089</ele>
        <time>2018-05-01T07:54:06Z</time>
      </trkpt>
      <trkpt lat="44.71283" lon="3.23609">
        <ele>1090</ele>
        <time>2018-05-01T07:54:19Z</time>
      </trkpt>
      <trkpt lat="44.71275" lon="3.236">
        <ele>1090</ele>
        <time>2018-05-01T07:54:28Z</time>
      </trkpt>
      <trkpt lat="44.71263" lon="3.23569">
        <ele>1091</ele>
        <time>2018-05-01T07:54:49Z</time>
      </trkpt>
      <trkpt lat="44.71252" lon="3.2355">
        <ele>1091</ele>
        <time>2018-05-01T07:55:03Z</time>
      </trkpt>
      <trkpt lat="44.71234" lon="3.23457">
        <ele>1091</ele>
        <time>2018-05-01T07:56:01Z</time>
      </trkpt>
      <trkpt lat="44.71238" lon="3.23296">
        <ele>1094</ele>
        <time>2018-05-01T08:10:53Z</time>
      </trkpt>
      <trkpt lat="44.71252" lon="3.23205">
        <ele>1090</ele>
        <time>2018-05-01T08:12:22Z</time>
      </trkpt>
      <trkpt lat="44.71249" lon="3.23177">
        <ele>1089</ele>
        <time>2018-05-01T08:12:38Z</time>
      </trkpt>
      <trkpt lat="44.71247" lon="3.23169">
        <ele>1088</ele>
        <time>2018-05-01T08:12:43Z</time>
      </trkpt>
      <trkpt lat="44.71246" lon="3.23162">
        <ele>1088</ele>
        <time>2018-05-01T08:12:47Z</time>
      </trkpt>
      <trkpt lat="44.71244" lon="3.23157">
        <ele>1088</ele>
        <time>2018-05-01T08:12:51Z</time>
      </trkpt>
      <trkpt lat="44.71237" lon="3.23146">
        <ele>1086</ele>
        <time>2018-05-01T08:13:00Z</time>
      </trkpt>
      <trkpt lat="44.71225" lon="3.23114">
        <ele>1083</ele>
        <time>2018-05-01T08:13:20Z</time>
      </trkpt>
      <trkpt lat="44.71217" lon="3.23072">
        <ele>1079</ele>
        <time>2018-05-01T08:13:44Z</time>
      </trkpt>
      <trkpt lat="44.71212" lon="3.2306">
        <ele>1078</ele>
        <time>2018-05-01T08:13:52Z</time>
      </trkpt>
      <trkpt lat="44.71206" lon="3.2305">
        <ele>1077</ele>
        <time>2018-05-01T08:14:01Z</time>
      </trkpt>
      <trkpt lat="44.71205" lon="3.23042">
        <ele>1076</ele>
        <time>2018-05-01T08:14:05Z</time>
      </trkpt>
      <trkpt lat="44.7119" lon="3.23015">
        <ele>1074</ele>
        <time>2018-05-01T08:14:27Z</time>
      </trkpt>
      <trkpt lat="44.71181" lon="3.23008">
        <ele>1074</ele>
        <time>2018-05-01T08:14:36Z</time>
      </trkpt>
      <trkpt lat="44.71175" lon="3.23007">
        <ele>1074</ele>
        <time>2018-05-01T08:14:41Z</time>
      </trkpt>
      <trkpt lat="44.7117" lon="3.23002">
        <ele>1074</ele>
        <time>2018-05-01T08:14:49Z</time>
      </trkpt>
      <trkpt lat="44.71166" lon="3.22996">
        <ele>1074</ele>
        <time>2018-05-01T08:14:54Z</time>
      </trkpt>
      <trkpt lat="44.71156" lon="3.22972">
        <ele>1074</ele>
        <time>2018-05-01T08:15:10Z</time>
      </trkpt>
      <trkpt lat="44.71153" lon="3.22952">
        <ele>1075</ele>
        <time>2018-05-01T08:15:22Z</time>
      </trkpt>
      <trkpt lat="44.71157" lon="3.2293">
        <ele>1077</ele>
        <time>2018-05-01T08:15:55Z</time>
      </trkpt>
      <trkpt lat="44.71155" lon="3.22907">
        <ele>1079</ele>
        <time>2018-05-01T08:16:11Z</time>
      </trkpt>
      <trkpt lat="44.71158" lon="3.22896">
        <ele>1080</ele>
        <time>2018-05-01T08:16:20Z</time>
      </trkpt>
      <trkpt lat="44.71163" lon="3.22842">
        <ele>1085</ele>
        <time>2018-05-01T08:16:52Z</time>
      </trkpt>
      <trkpt lat="44.71161" lon="3.22815">
        <ele>1088</ele>
        <time>2018-05-01T08:17:14Z</time>
      </trkpt>
      <trkpt lat="44.71132" lon="3.22712">
        <ele>1096</ele>
        <time>2018-05-01T08:18:50Z</time>
      </trkpt>
      <trkpt lat="44.71122" lon="3.22655">
        <ele>1098</ele>
        <time>2018-05-01T08:19:28Z</time>
      </trkpt>
      <trkpt lat="44.71091" lon="3.22542">
        <ele>1102</ele>
        <time>2018-05-01T08:20:55Z</time>
      </trkpt>
      <trkpt lat="44.7109" lon="3.2252">
        <ele>1102</ele>
        <time>2018-05-01T08:21:08Z</time>
      </trkpt>
      <trkpt lat="44.71089" lon="3.22514">
        <ele>1102</ele>
        <time>2018-05-01T08:21:12Z</time>
      </trkpt>
      <trkpt lat="44.71092" lon="3.22493">
        <ele>1103</ele>
        <time>2018-05-01T08:21:25Z</time>
      </trkpt>
      <trkpt lat="44.71088" lon="3.2248">
        <ele>1102</ele>
        <time>2018-05-01T08:21:33Z</time>
      </trkpt>
      <trkpt lat="44.71087" lon="3.22474">
        <ele>1103</ele>
        <time>2018-05-01T08:21:37Z</time>
      </trkpt>
      <trkpt lat="44.71079" lon="3.22454">
        <ele>1103</ele>
        <time>2018-05-01T08:21:50Z</time>
      </trkpt>
      <trkpt lat="44.71082" lon="3.22427">
        <ele>1104</ele>
        <time>2018-05-01T08:22:09Z</time>
      </trkpt>
      <trkpt lat="44.7108" lon="3.2242">
        <ele>1104</ele>
        <time>2018-05-01T08:22:14Z</time>
      </trkpt>
      <trkpt lat="44.71089" lon="3.22406">
        <ele>1104</ele>
        <time>2018-05-01T08:22:27Z</time>
      </trkpt>
      <trkpt lat="44.71097" lon="3.22401">
        <ele>1104</ele>
        <time>2018-05-01T08:22:34Z</time>
      </trkpt>
      <trkpt lat="44.71103" lon="3.22395">
        <ele>1104</ele>
        <time>2018-05-01T08:22:41Z</time>
      </trkpt>
      <trkpt lat="44.71109" lon="3.22393">
        <ele>1104</ele>
        <time>2018-05-01T08:22:44Z</time>
      </trkpt>
      <trkpt lat="44.71138" lon="3.22388">
        <ele>1107</ele>
        <time>2018-05-01T08:23:18Z</time>
      </trkpt>
      <trkpt lat="44.71155" lon="3.22379">
        <ele>1108</ele>
        <time>2018-05-01T08:23:36Z</time>
      </trkpt>
      <trkpt lat="44.71227" lon="3.22373">
        <ele>1112</ele>
        <time>2018-05-01T08:24:41Z</time>
      </trkpt>
      <trkpt lat="44.71245" lon="3.22363">
        <ele>1112</ele>
        <time>2018-05-01T08:24:59Z</time>
      </trkpt>
      <trkpt lat="44.7125" lon="3.22362">
        <ele>1112</ele>
        <time>2018-05-01T08:25:03Z</time>
      </trkpt>
      <trkpt lat="44.71299" lon="3.22339">
        <ele>1111</ele>
        <time>2018-05-01T08:25:45Z</time>
      </trkpt>
      <trkpt lat="44.71304" lon="3.22335">
        <ele>1111</ele>
        <time>2018-05-01T08:25:50Z</time>
      </trkpt>
      <trkpt lat="44.71321" lon="3.22314">
        <ele>1111</ele>
        <time>2018-05-01T08:26:11Z</time>
      </trkpt>
      <trkpt lat="44.71324" lon="3.22307">
        <ele>1110</ele>
        <time>2018-05-01T08:26:16Z</time>
      </trkpt>
      <trkpt lat="44.71322" lon="3.223">
        <ele>1110</ele>
        <time>2018-05-01T08:26:20Z</time>
      </trkpt>
      <trkpt lat="44.71319" lon="3.22295">
        <ele>1110</ele>
        <time>2018-05-01T08:26:24Z</time>
      </trkpt>
      <trkpt lat="44.71317" lon="3.22282">
        <ele>1111</ele>
        <time>2018-05-01T08:26:51Z</time>
      </trkpt>
      <trkpt lat="44.71302" lon="3.22243">
        <ele>1114</ele>
        <time>2018-05-01T08:27:23Z</time>
      </trkpt>
      <trkpt lat="44.71301" lon="3.22234">
        <ele>1115</ele>
        <time>2018-05-01T08:27:31Z</time>
      </trkpt>
      <trkpt lat="44.71302" lon="3.22227">
        <ele>1115</ele>
        <time>2018-05-01T08:27:36Z</time>
      </trkpt>
      <trkpt lat="44.71296" lon="3.2219">
        <ele>1118</ele>
        <time>2018-05-01T08:28:03Z</time>
      </trkpt>
      <trkpt lat="44.71297" lon="3.22183">
        <ele>1118</ele>
        <time>2018-05-01T08:28:07Z</time>
      </trkpt>
      <trkpt lat="44.71255" lon="3.22003">
        <ele>1126</ele>
        <time>2018-05-01T08:30:36Z</time>
      </trkpt>
      <trkpt lat="44.71254" lon="3.21996">
        <ele>1126</ele>
        <time>2018-05-01T08:30:41Z</time>
      </trkpt>
      <trkpt lat="44.71251" lon="3.2199">
        <ele>1126</ele>
        <time>2018-05-01T08:30:45Z</time>
      </trkpt>
      <trkpt lat="44.71241" lon="3.21952">
        <ele>1128</ele>
        <time>2018-05-01T08:31:10Z</time>
      </trkpt>
      <trkpt lat="44.71242" lon="3.21945">
        <ele>1128</ele>
        <time>2018-05-01T08:31:15Z</time>
      </trkpt>
      <trkpt lat="44.71241" lon="3.21935">
        <ele>1129</ele>
        <time>2018-05-01T08:31:28Z</time>
      </trkpt>
      <trkpt lat="44.71217" lon="3.21889">
        <ele>1131</ele>
        <time>2018-05-01T08:32:05Z</time>
      </trkpt>
      <trkpt lat="44.71209" lon="3.21858">
        <ele>1131</ele>
        <time>2018-05-01T08:32:29Z</time>
      </trkpt>
      <trkpt lat="44.71206" lon="3.21852">
        <ele>1131</ele>
        <time>2018-05-01T08:32:34Z</time>
      </trkpt>
      <trkpt lat="44.71194" lon="3.21838">
        <ele>1131</ele>
        <time>2018-05-01T08:32:46Z</time>
      </trkpt>
      <trkpt lat="44.71189" lon="3.21835">
        <ele>1132</ele>
        <time>2018-05-01T08:32:54Z</time>
      </trkpt>
      <trkpt lat="44.71186" lon="3.21829">
        <ele>1132</ele>
        <time>2018-05-01T08:33:00Z</time>
      </trkpt>
      <trkpt lat="44.71184" lon="3.21816">
        <ele>1132</ele>
        <time>2018-05-01T08:33:08Z</time>
      </trkpt>
      <trkpt lat="44.71186" lon="3.21803">
        <ele>1132</ele>
        <time>2018-05-01T08:33:17Z</time>
      </trkpt>
      <trkpt lat="44.71183" lon="3.2179">
        <ele>1133</ele>
        <time>2018-05-01T08:33:26Z</time>
      </trkpt>
      <trkpt lat="44.71187" lon="3.21721">
        <ele>1135</ele>
        <time>2018-05-01T08:34:17Z</time>
      </trkpt>
      <trkpt lat="44.71191" lon="3.217">
        <ele>1136</ele>
        <time>2018-05-01T08:34:30Z</time>
      </trkpt>
      <trkpt lat="44.7119" lon="3.21685">
        <ele>1137</ele>
        <time>2018-05-01T08:34:39Z</time>
      </trkpt>
      <trkpt lat="44.71188" lon="3.21679">
        <ele>1137</ele>
        <time>2018-05-01T08:34:43Z</time>
      </trkpt>
      <trkpt lat="44.7119" lon="3.21667">
        <ele>1138</ele>
        <time>2018-05-01T08:35:34Z</time>
      </trkpt>
      <trkpt lat="44.71191" lon="3.21647">
        <ele>1139</ele>
        <time>2018-05-01T08:35:47Z</time>
      </trkpt>
      <trkpt lat="44.71183" lon="3.21613">
        <ele>1141</ele>
        <time>2018-05-01T08:36:20Z</time>
      </trkpt>
      <trkpt lat="44.7114" lon="3.2153">
        <ele>1143</ele>
        <time>2018-05-01T08:37:21Z</time>
      </trkpt>
      <trkpt lat="44.71136" lon="3.21524">
        <ele>1143</ele>
        <time>2018-05-01T08:37:25Z</time>
      </trkpt>
      <trkpt lat="44.71125" lon="3.21502">
        <ele>1143</ele>
        <time>2018-05-01T08:37:41Z</time>
      </trkpt>
      <trkpt lat="44.71071" lon="3.21424">
        <ele>1142</ele>
        <time>2018-05-01T08:38:41Z</time>
      </trkpt>
      <trkpt lat="44.71065" lon="3.21409">
        <ele>1142</ele>
        <time>2018-05-01T08:38:52Z</time>
      </trkpt>
      <trkpt lat="44.71058" lon="3.21399">
        <ele>1142</ele>
        <time>2018-05-01T08:39:00Z</time>
      </trkpt>
      <trkpt lat="44.71049" lon="3.21373">
        <ele>1143</ele>
        <time>2018-05-01T08:39:15Z</time>
      </trkpt>
      <trkpt lat="44.71036" lon="3.21317">
        <ele>1142</ele>
        <time>2018-05-01T08:39:46Z</time>
      </trkpt>
      <trkpt lat="44.71033" lon="3.2128">
        <ele>1142</ele>
        <time>2018-05-01T08:40:06Z</time>
      </trkpt>
      <trkpt lat="44.71035" lon="3.21274">
        <ele>1142</ele>
        <time>2018-05-01T08:40:10Z</time>
      </trkpt>
      <trkpt lat="44.71005" lon="3.21197">
        <ele>1141</ele>
        <time>2018-05-01T08:41:30Z</time>
      </trkpt>
      <trkpt lat="44.70993" lon="3.21121">
        <ele>1139</ele>
        <time>2018-05-01T08:43:29Z</time>
      </trkpt>
      <trkpt lat="44.70992" lon="3.21106">
        <ele>1139</ele>
        <time>2018-05-01T08:43:39Z</time>
      </trkpt>
      <trkpt lat="44.70986" lon="3.21087">
        <ele>1138</ele>
        <time>2018-05-01T08:43:52Z</time>
      </trkpt>
      <trkpt lat="44.70985" lon="3.21079">
        <ele>1138</ele>
        <time>2018-05-01T08:43:57Z</time>
      </trkpt>
      <trkpt lat="44.7096" lon="3.21016">
        <ele>1137</ele>
        <time>2018-05-01T08:44:38Z</time>
      </trkpt>
      <trkpt lat="44.70957" lon="3.2098">
        <ele>1138</ele>
        <time>2018-05-01T08:45:01Z</time>
      </trkpt>
      <trkpt lat="44.70958" lon="3.20973">
        <ele>1138</ele>
        <time>2018-05-01T08:45:05Z</time>
      </trkpt>
      <trkpt lat="44.70957" lon="3.20967">
        <ele>1138</ele>
        <time>2018-05-01T08:45:09Z</time>
      </trkpt>
      <trkpt lat="44.70959" lon="3.20961">
        <ele>1138</ele>
        <time>2018-05-01T08:45:13Z</time>
      </trkpt>
      <trkpt lat="44.70955" lon="3.20925">
        <ele>1139</ele>
        <time>2018-05-01T08:45:42Z</time>
      </trkpt>
      <trkpt lat="44.70956" lon="3.20912">
        <ele>1140</ele>
        <time>2018-05-01T08:45:52Z</time>
      </trkpt>
      <trkpt lat="44.70947" lon="3.20849">
        <ele>1139</ele>
        <time>2018-05-01T08:46:31Z</time>
      </trkpt>
      <trkpt lat="44.70943" lon="3.20835">
        <ele>1138</ele>
        <time>2018-05-01T08:46:40Z</time>
      </trkpt>
      <trkpt lat="44.70936" lon="3.20764">
        <ele>1135</ele>
        <time>2018-05-01T08:47:22Z</time>
      </trkpt>
      <trkpt lat="44.70928" lon="3.20738">
        <ele>1134</ele>
        <time>2018-05-01T08:47:39Z</time>
      </trkpt>
      <trkpt lat="44.70916" lon="3.20664">
        <ele>1131</ele>
        <time>2018-05-01T08:48:25Z</time>
      </trkpt>
      <trkpt lat="44.70899" lon="3.20617">
        <ele>1128</ele>
        <time>2018-05-01T08:48:59Z</time>
      </trkpt>
      <trkpt lat="44.70895" lon="3.20613">
        <ele>1128</ele>
        <time>2018-05-01T08:49:03Z</time>
      </trkpt>
      <trkpt lat="44.70888" lon="3.20602">
        <ele>1127</ele>
        <time>2018-05-01T08:49:12Z</time>
      </trkpt>
      <trkpt lat="44.70884" lon="3.20598">
        <ele>1127</ele>
        <time>2018-05-01T08:49:17Z</time>
      </trkpt>
      <trkpt lat="44.70864" lon="3.20557">
        <ele>1126</ele>
        <time>2018-05-01T08:49:47Z</time>
      </trkpt>
      <trkpt lat="44.7086" lon="3.20545">
        <ele>1126</ele>
        <time>2018-05-01T08:49:55Z</time>
      </trkpt>
      <trkpt lat="44.70863" lon="3.2054">
        <ele>1126</ele>
        <time>2018-05-01T08:50:03Z</time>
      </trkpt>
      <trkpt lat="44.70858" lon="3.2052">
        <ele>1127</ele>
        <time>2018-05-01T08:50:44Z</time>
      </trkpt>
      <trkpt lat="44.7086" lon="3.20509">
        <ele>1127</ele>
        <time>2018-05-01T08:50:55Z</time>
      </trkpt>
      <trkpt lat="44.70858" lon="3.20482">
        <ele>1126</ele>
        <time>2018-05-01T08:51:18Z</time>
      </trkpt>
      <trkpt lat="44.70861" lon="3.2045">
        <ele>1127</ele>
        <time>2018-05-01T08:51:38Z</time>
      </trkpt>
      <trkpt lat="44.70856" lon="3.2043">
        <ele>1127</ele>
        <time>2018-05-01T08:51:50Z</time>
      </trkpt>
      <trkpt lat="44.70822" lon="3.20351">
        <ele>1130</ele>
        <time>2018-05-01T08:52:59Z</time>
      </trkpt>
      <trkpt lat="44.70801" lon="3.20319">
        <ele>1131</ele>
        <time>2018-05-01T08:53:35Z</time>
      </trkpt>
      <trkpt lat="44.70761" lon="3.20278">
        <ele>1133</ele>
        <time>2018-05-01T08:54:26Z</time>
      </trkpt>
      <trkpt lat="44.70748" lon="3.20258">
        <ele>1134</ele>
        <time>2018-05-01T08:54:45Z</time>
      </trkpt>
      <trkpt lat="44.70739" lon="3.20235">
        <ele>1135</ele>
        <time>2018-05-01T08:55:11Z</time>
      </trkpt>
      <trkpt lat="44.7074" lon="3.20202">
        <ele>1137</ele>
        <time>2018-05-01T08:55:39Z</time>
      </trkpt>
      <trkpt lat="44.70737" lon="3.20189">
        <ele>1138</ele>
        <time>2018-05-01T08:55:47Z</time>
      </trkpt>
      <trkpt lat="44.70734" lon="3.2014">
        <ele>1141</ele>
        <time>2018-05-01T08:56:16Z</time>
      </trkpt>
      <trkpt lat="44.70729" lon="3.20127">
        <ele>1141</ele>
        <time>2018-05-01T08:56:25Z</time>
      </trkpt>
      <trkpt lat="44.70724" lon="3.20121">
        <ele>1142</ele>
        <time>2018-05-01T08:56:37Z</time>
      </trkpt>
      <trkpt lat="44.70718" lon="3.2011">
        <ele>1142</ele>
        <time>2018-05-01T08:56:45Z</time>
      </trkpt>
      <trkpt lat="44.70716" lon="3.20104">
        <ele>1143</ele>
        <time>2018-05-01T08:56:50Z</time>
      </trkpt>
      <trkpt lat="44.70713" lon="3.20078">
        <ele>1144</ele>
        <time>2018-05-01T08:57:14Z</time>
      </trkpt>
      <trkpt lat="44.70707" lon="3.20058">
        <ele>1145</ele>
        <time>2018-05-01T08:57:29Z</time>
      </trkpt>
      <trkpt lat="44.70705" lon="3.20032">
        <ele>1147</ele>
        <time>2018-05-01T08:57:48Z</time>
      </trkpt>
      <trkpt lat="44.707" lon="3.20021">
        <ele>1148</ele>
        <time>2018-05-01T08:57:58Z</time>
      </trkpt>
      <trkpt lat="44.70696" lon="3.20015">
        <ele>1148</ele>
        <time>2018-05-01T08:58:06Z</time>
      </trkpt>
      <trkpt lat="44.70695" lon="3.2">
        <ele>1149</ele>
        <time>2018-05-01T08:58:18Z</time>
      </trkpt>
      <trkpt lat="44.70692" lon="3.19993">
        <ele>1150</ele>
        <time>2018-05-01T08:58:24Z</time>
      </trkpt>
      <trkpt lat="44.70688" lon="3.19989">
        <ele>1150</ele>
        <time>2018-05-01T08:58:28Z</time>
      </trkpt>
      <trkpt lat="44.70683" lon="3.19974">
        <ele>1152</ele>
        <time>2018-05-01T08:58:50Z</time>
      </trkpt>
      <trkpt lat="44.70679" lon="3.1997">
        <ele>1152</ele>
        <time>2018-05-01T08:58:54Z</time>
      </trkpt>
      <trkpt lat="44.70668" lon="3.19945">
        <ele>1154</ele>
        <time>2018-05-01T08:59:26Z</time>
      </trkpt>
      <trkpt lat="44.70666" lon="3.19939">
        <ele>1155</ele>
        <time>2018-05-01T08:59:31Z</time>
      </trkpt>
      <trkpt lat="44.70664" lon="3.19916">
        <ele>1156</ele>
        <time>2018-05-01T08:59:45Z</time>
      </trkpt>
      <trkpt lat="44.70661" lon="3.1991">
        <ele>1156</ele>
        <time>2018-05-01T08:59:49Z</time>
      </trkpt>
      <trkpt lat="44.70659" lon="3.19864">
        <ele>1159</ele>
        <time>2018-05-01T09:00:20Z</time>
      </trkpt>
      <trkpt lat="44.70682" lon="3.19768">
        <ele>1165</ele>
        <time>2018-05-01T09:01:27Z</time>
      </trkpt>
      <trkpt lat="44.70698" lon="3.19613">
        <ele>1171</ele>
        <time>2018-05-01T09:03:10Z</time>
      </trkpt>
      <trkpt lat="44.70697" lon="3.19435">
        <ele>1176</ele>
        <time>2018-05-01T09:05:17Z</time>
      </trkpt>
      <trkpt lat="44.7069" lon="3.19378">
        <ele>1177</ele>
        <time>2018-05-01T09:06:00Z</time>
      </trkpt>
      <trkpt lat="44.70688" lon="3.19371">
        <ele>1177</ele>
        <time>2018-05-01T09:06:05Z</time>
      </trkpt>
      <trkpt lat="44.70686" lon="3.1935">
        <ele>1176</ele>
        <time>2018-05-01T09:06:20Z</time>
      </trkpt>
      <trkpt lat="44.70689" lon="3.19284">
        <ele>1176</ele>
        <time>2018-05-01T09:07:04Z</time>
      </trkpt>
      <trkpt lat="44.70686" lon="3.19257">
        <ele>1177</ele>
        <time>2018-05-01T09:09:35Z</time>
      </trkpt>
      <trkpt lat="44.7069" lon="3.19153">
        <ele>1175</ele>
        <time>2018-05-01T09:10:42Z</time>
      </trkpt>
      <trkpt lat="44.70687" lon="3.19132">
        <ele>1175</ele>
        <time>2018-05-01T09:11:19Z</time>
      </trkpt>
      <trkpt lat="44.7069" lon="3.19103">
        <ele>1175</ele>
        <time>2018-05-01T09:11:52Z</time>
      </trkpt>
      <trkpt lat="44.70697" lon="3.18898">
        <ele>1177</ele>
        <time>2018-05-01T09:13:59Z</time>
      </trkpt>
      <trkpt lat="44.70699" lon="3.18884">
        <ele>1177</ele>
        <time>2018-05-01T09:14:08Z</time>
      </trkpt>
      <trkpt lat="44.70698" lon="3.18877">
        <ele>1178</ele>
        <time>2018-05-01T09:14:13Z</time>
      </trkpt>
      <trkpt lat="44.70694" lon="3.18875">
        <ele>1178</ele>
        <time>2018-05-01T09:14:18Z</time>
      </trkpt>
      <trkpt lat="44.7067" lon="3.18815">
        <ele>1180</ele>
        <time>2018-05-01T09:15:06Z</time>
      </trkpt>
      <trkpt lat="44.70668" lon="3.18808">
        <ele>1181</ele>
        <time>2018-05-01T09:15:11Z</time>
      </trkpt>
      <trkpt lat="44.70664" lon="3.18802">
        <ele>1181</ele>
        <time>2018-05-01T09:15:16Z</time>
      </trkpt>
      <trkpt lat="44.70656" lon="3.18796">
        <ele>1181</ele>
        <time>2018-05-01T09:15:27Z</time>
      </trkpt>
      <trkpt lat="44.70649" lon="3.18785">
        <ele>1181</ele>
        <time>2018-05-01T09:15:35Z</time>
      </trkpt>
      <trkpt lat="44.70631" lon="3.18743">
        <ele>1180</ele>
        <time>2018-05-01T09:16:05Z</time>
      </trkpt>
      <trkpt lat="44.7063" lon="3.18737">
        <ele>1179</ele>
        <time>2018-05-01T09:16:10Z</time>
      </trkpt>
      <trkpt lat="44.7062" lon="3.18706">
        <ele>1178</ele>
        <time>2018-05-01T09:16:30Z</time>
      </trkpt>
      <trkpt lat="44.70619" lon="3.18698">
        <ele>1178</ele>
        <time>2018-05-01T09:16:35Z</time>
      </trkpt>
      <trkpt lat="44.70615" lon="3.18687">
        <ele>1177</ele>
        <time>2018-05-01T09:16:44Z</time>
      </trkpt>
      <trkpt lat="44.70609" lon="3.18677">
        <ele>1176</ele>
        <time>2018-05-01T09:16:52Z</time>
      </trkpt>
      <trkpt lat="44.70602" lon="3.1865">
        <ele>1175</ele>
        <time>2018-05-01T09:17:09Z</time>
      </trkpt>
      <trkpt lat="44.70586" lon="3.18614">
        <ele>1174</ele>
        <time>2018-05-01T09:17:37Z</time>
      </trkpt>
      <trkpt lat="44.70581" lon="3.18595">
        <ele>1173</ele>
        <time>2018-05-01T09:17:50Z</time>
      </trkpt>
      <trkpt lat="44.70578" lon="3.18588">
        <ele>1174</ele>
        <time>2018-05-01T09:17:55Z</time>
      </trkpt>
      <trkpt lat="44.70575" lon="3.18583">
        <ele>1174</ele>
        <time>2018-05-01T09:18:00Z</time>
      </trkpt>
      <trkpt lat="44.70572" lon="3.18575">
        <ele>1174</ele>
        <time>2018-05-01T09:18:09Z</time>
      </trkpt>
      <trkpt lat="44.70564" lon="3.18545">
        <ele>1172</ele>
        <time>2018-05-01T09:18:31Z</time>
      </trkpt>
      <trkpt lat="44.70561" lon="3.1854">
        <ele>1172</ele>
        <time>2018-05-01T09:18:35Z</time>
      </trkpt>
      <trkpt lat="44.70487" lon="3.18333">
        <ele>1169</ele>
        <time>2018-05-01T09:21:47Z</time>
      </trkpt>
      <trkpt lat="44.70484" lon="3.1832">
        <ele>1169</ele>
        <time>2018-05-01T09:21:56Z</time>
      </trkpt>
      <trkpt lat="44.70473" lon="3.18288">
        <ele>1169</ele>
        <time>2018-05-01T09:22:20Z</time>
      </trkpt>
      <trkpt lat="44.70471" lon="3.18267">
        <ele>1169</ele>
        <time>2018-05-01T09:22:34Z</time>
      </trkpt>
      <trkpt lat="44.70465" lon="3.18255">
        <ele>1168</ele>
        <time>2018-05-01T09:22:42Z</time>
      </trkpt>
      <trkpt lat="44.70433" lon="3.18163">
        <ele>1166</ele>
        <time>2018-05-01T09:23:46Z</time>
      </trkpt>
      <trkpt lat="44.70431" lon="3.18155">
        <ele>1166</ele>
        <time>2018-05-01T09:23:55Z</time>
      </trkpt>
      <trkpt lat="44.70426" lon="3.18148">
        <ele>1166</ele>
        <time>2018-05-01T09:24:24Z</time>
      </trkpt>
      <trkpt lat="44.70424" lon="3.18133">
        <ele>1166</ele>
        <time>2018-05-01T09:24:37Z</time>
      </trkpt>
      <trkpt lat="44.70422" lon="3.18127">
        <ele>1165</ele>
        <time>2018-05-01T09:24:42Z</time>
      </trkpt>
      <trkpt lat="44.70405" lon="3.17953">
        <ele>1159</ele>
        <time>2018-05-01T09:26:38Z</time>
      </trkpt>
      <trkpt lat="44.70406" lon="3.17946">
        <ele>1159</ele>
        <time>2018-05-01T09:26:52Z</time>
      </trkpt>
      <trkpt lat="44.70403" lon="3.1793">
        <ele>1158</ele>
        <time>2018-05-01T09:27:05Z</time>
      </trkpt>
      <trkpt lat="44.70402" lon="3.17918">
        <ele>1160</ele>
        <time>2018-05-01T09:27:30Z</time>
      </trkpt>
      <trkpt lat="44.70399" lon="3.17906">
        <ele>1160</ele>
        <time>2018-05-01T09:27:38Z</time>
      </trkpt>
      <trkpt lat="44.70394" lon="3.179">
        <ele>1159</ele>
        <time>2018-05-01T09:27:47Z</time>
      </trkpt>
      <trkpt lat="44.70387" lon="3.1788">
        <ele>1158</ele>
        <time>2018-05-01T09:28:01Z</time>
      </trkpt>
      <trkpt lat="44.70386" lon="3.17873">
        <ele>1158</ele>
        <time>2018-05-01T09:28:06Z</time>
      </trkpt>
      <trkpt lat="44.7038" lon="3.17867">
        <ele>1158</ele>
        <time>2018-05-01T09:28:15Z</time>
      </trkpt>
      <trkpt lat="44.7036" lon="3.17834">
        <ele>1158</ele>
        <time>2018-05-01T09:28:43Z</time>
      </trkpt>
      <trkpt lat="44.70343" lon="3.17786">
        <ele>1158</ele>
        <time>2018-05-01T09:29:31Z</time>
      </trkpt>
      <trkpt lat="44.70339" lon="3.1778">
        <ele>1158</ele>
        <time>2018-05-01T09:29:36Z</time>
      </trkpt>
      <trkpt lat="44.70335" lon="3.17776">
        <ele>1158</ele>
        <time>2018-05-01T09:29:40Z</time>
      </trkpt>
      <trkpt lat="44.70314" lon="3.17732">
        <ele>1159</ele>
        <time>2018-05-01T09:30:15Z</time>
      </trkpt>
      <trkpt lat="44.70302" lon="3.17712">
        <ele>1160</ele>
        <time>2018-05-01T09:30:32Z</time>
      </trkpt>
      <trkpt lat="44.70291" lon="3.17683">
        <ele>1163</ele>
        <time>2018-05-01T09:30:59Z</time>
      </trkpt>
      <trkpt lat="44.70287" lon="3.1766">
        <ele>1164</ele>
        <time>2018-05-01T09:31:18Z</time>
      </trkpt>
      <trkpt lat="44.70279" lon="3.17636">
        <ele>1164</ele>
        <time>2018-05-01T09:31:36Z</time>
      </trkpt>
      <trkpt lat="44.70276" lon="3.1763">
        <ele>1164</ele>
        <time>2018-05-01T09:31:41Z</time>
      </trkpt>
      <trkpt lat="44.70274" lon="3.17618">
        <ele>1165</ele>
        <time>2018-05-01T09:31:52Z</time>
      </trkpt>
      <trkpt lat="44.70272" lon="3.17612">
        <ele>1166</ele>
        <time>2018-05-01T09:31:57Z</time>
      </trkpt>
      <trkpt lat="44.70262" lon="3.17595">
        <ele>1166</ele>
        <time>2018-05-01T09:32:10Z</time>
      </trkpt>
      <trkpt lat="44.70254" lon="3.17577">
        <ele>1168</ele>
        <time>2018-05-01T09:32:23Z</time>
      </trkpt>
      <trkpt lat="44.70245" lon="3.17546">
        <ele>1169</ele>
        <time>2018-05-01T09:32:44Z</time>
      </trkpt>
      <trkpt lat="44.70242" lon="3.17525">
        <ele>1169</ele>
        <time>2018-05-01T09:32:57Z</time>
      </trkpt>
      <trkpt lat="44.70238" lon="3.17512">
        <ele>1168</ele>
        <time>2018-05-01T09:33:06Z</time>
      </trkpt>
      <trkpt lat="44.70235" lon="3.17505">
        <ele>1168</ele>
        <time>2018-05-01T09:33:17Z</time>
      </trkpt>
      <trkpt lat="44.70233" lon="3.17492">
        <ele>1168</ele>
        <time>2018-05-01T09:33:42Z</time>
      </trkpt>
      <trkpt lat="44.70235" lon="3.17477">
        <ele>1168</ele>
        <time>2018-05-01T09:33:52Z</time>
      </trkpt>
      <trkpt lat="44.70233" lon="3.17449">
        <ele>1167</ele>
        <time>2018-05-01T09:34:16Z</time>
      </trkpt>
      <trkpt lat="44.70237" lon="3.17427">
        <ele>1165</ele>
        <time>2018-05-01T09:34:31Z</time>
      </trkpt>
      <trkpt lat="44.70239" lon="3.17359">
        <ele>1164</ele>
        <time>2018-05-01T09:35:20Z</time>
      </trkpt>
      <trkpt lat="44.70241" lon="3.17354">
        <ele>1164</ele>
        <time>2018-05-01T09:35:24Z</time>
      </trkpt>
      <trkpt lat="44.70246" lon="3.17334">
        <ele>1163</ele>
        <time>2018-05-01T09:35:37Z</time>
      </trkpt>
      <trkpt lat="44.70249" lon="3.17329">
        <ele>1163</ele>
        <time>2018-05-01T09:35:42Z</time>
      </trkpt>
      <trkpt lat="44.70251" lon="3.17321">
        <ele>1162</ele>
        <time>2018-05-01T09:35:49Z</time>
      </trkpt>
      <trkpt lat="44.70257" lon="3.17308">
        <ele>1162</ele>
        <time>2018-05-01T09:35:57Z</time>
      </trkpt>
      <trkpt lat="44.70263" lon="3.1725">
        <ele>1162</ele>
        <time>2018-05-01T09:36:30Z</time>
      </trkpt>
      <trkpt lat="44.70279" lon="3.17212">
        <ele>1163</ele>
        <time>2018-05-01T09:37:07Z</time>
      </trkpt>
      <trkpt lat="44.70305" lon="3.17141">
        <ele>1163</ele>
        <time>2018-05-01T09:37:57Z</time>
      </trkpt>
      <trkpt lat="44.7032" lon="3.1707">
        <ele>1163</ele>
        <time>2018-05-01T09:39:00Z</time>
      </trkpt>
      <trkpt lat="44.70323" lon="3.17041">
        <ele>1163</ele>
        <time>2018-05-01T09:39:18Z</time>
      </trkpt>
      <trkpt lat="44.7033" lon="3.17022">
        <ele>1162</ele>
        <time>2018-05-01T09:39:30Z</time>
      </trkpt>
      <trkpt lat="44.70346" lon="3.16947">
        <ele>1159</ele>
        <time>2018-05-01T09:40:27Z</time>
      </trkpt>
      <trkpt lat="44.7035" lon="3.16889">
        <ele>1158</ele>
        <time>2018-05-01T09:40:59Z</time>
      </trkpt>
      <trkpt lat="44.70349" lon="3.16854">
        <ele>1158</ele>
        <time>2018-05-01T09:41:19Z</time>
      </trkpt>
      <trkpt lat="44.70341" lon="3.16801">
        <ele>1158</ele>
        <time>2018-05-01T09:41:51Z</time>
      </trkpt>
      <trkpt lat="44.70322" lon="3.16742">
        <ele>1158</ele>
        <time>2018-05-01T09:42:32Z</time>
      </trkpt>
      <trkpt lat="44.70318" lon="3.16736">
        <ele>1158</ele>
        <time>2018-05-01T09:43:04Z</time>
      </trkpt>
      <trkpt lat="44.70316" lon="3.16725">
        <ele>1158</ele>
        <time>2018-05-01T09:43:20Z</time>
      </trkpt>
      <trkpt lat="44.70292" lon="3.16687">
        <ele>1157</ele>
        <time>2018-05-01T09:43:50Z</time>
      </trkpt>
      <trkpt lat="44.70272" lon="3.16665">
        <ele>1157</ele>
        <time>2018-05-01T09:44:10Z</time>
      </trkpt>
      <trkpt lat="44.70254" lon="3.16652">
        <ele>1156</ele>
        <time>2018-05-01T09:44:26Z</time>
      </trkpt>
      <trkpt lat="44.70244" lon="3.16638">
        <ele>1156</ele>
        <time>2018-05-01T09:44:38Z</time>
      </trkpt>
      <trkpt lat="44.70238" lon="3.16618">
        <ele>1156</ele>
        <time>2018-05-01T09:44:52Z</time>
      </trkpt>
      <trkpt lat="44.70232" lon="3.16575">
        <ele>1157</ele>
        <time>2018-05-01T09:45:38Z</time>
      </trkpt>
      <trkpt lat="44.70227" lon="3.1657">
        <ele>1157</ele>
        <time>2018-05-01T09:45:50Z</time>
      </trkpt>
      <trkpt lat="44.70225" lon="3.16563">
        <ele>1157</ele>
        <time>2018-05-01T09:45:55Z</time>
      </trkpt>
      <trkpt lat="44.70221" lon="3.16558">
        <ele>1157</ele>
        <time>2018-05-01T09:46:27Z</time>
      </trkpt>
      <trkpt lat="44.70215" lon="3.16545">
        <ele>1157</ele>
        <time>2018-05-01T09:46:37Z</time>
      </trkpt>
      <trkpt lat="44.7021" lon="3.16538">
        <ele>1157</ele>
        <time>2018-05-01T09:46:44Z</time>
      </trkpt>
      <trkpt lat="44.70205" lon="3.16525">
        <ele>1159</ele>
        <time>2018-05-01T09:46:54Z</time>
      </trkpt>
      <trkpt lat="44.70201" lon="3.16518">
        <ele>1159</ele>
        <time>2018-05-01T09:47:01Z</time>
      </trkpt>
      <trkpt lat="44.70199" lon="3.16512">
        <ele>1159</ele>
        <time>2018-05-01T09:47:06Z</time>
      </trkpt>
      <trkpt lat="44.70185" lon="3.16497">
        <ele>1160</ele>
        <time>2018-05-01T09:47:23Z</time>
      </trkpt>
      <trkpt lat="44.70172" lon="3.16476">
        <ele>1161</ele>
        <time>2018-05-01T09:47:42Z</time>
      </trkpt>
      <trkpt lat="44.70168" lon="3.16465">
        <ele>1161</ele>
        <time>2018-05-01T09:47:50Z</time>
      </trkpt>
      <trkpt lat="44.70158" lon="3.16418">
        <ele>1161</ele>
        <time>2018-05-01T09:48:21Z</time>
      </trkpt>
      <trkpt lat="44.70153" lon="3.16405">
        <ele>1161</ele>
        <time>2018-05-01T09:48:31Z</time>
      </trkpt>
      <trkpt lat="44.70145" lon="3.16374">
        <ele>1163</ele>
        <time>2018-05-01T09:49:20Z</time>
      </trkpt>
      <trkpt lat="44.7014" lon="3.16366">
        <ele>1164</ele>
        <time>2018-05-01T09:49:32Z</time>
      </trkpt>
      <trkpt lat="44.70135" lon="3.16364">
        <ele>1164</ele>
        <time>2018-05-01T09:49:56Z</time>
      </trkpt>
      <trkpt lat="44.70126" lon="3.16353">
        <ele>1162</ele>
        <time>2018-05-01T09:51:46Z</time>
      </trkpt>
      <trkpt lat="44.70124" lon="3.16343">
        <ele>1163</ele>
        <time>2018-05-01T09:51:58Z</time>
      </trkpt>
      <trkpt lat="44.70113" lon="3.16332">
        <ele>1164</ele>
        <time>2018-05-01T09:52:13Z</time>
      </trkpt>
      <trkpt lat="44.70075" lon="3.16269">
        <ele>1165</ele>
        <time>2018-05-01T09:53:29Z</time>
      </trkpt>
      <trkpt lat="44.70059" lon="3.16232">
        <ele>1166</ele>
        <time>2018-05-01T09:53:59Z</time>
      </trkpt>
      <trkpt lat="44.70055" lon="3.16226">
        <ele>1166</ele>
        <time>2018-05-01T09:54:04Z</time>
      </trkpt>
      <trkpt lat="44.70044" lon="3.16204">
        <ele>1167</ele>
        <time>2018-05-01T09:54:34Z</time>
      </trkpt>
      <trkpt lat="44.70033" lon="3.16181">
        <ele>1167</ele>
        <time>2018-05-01T09:54:51Z</time>
      </trkpt>
      <trkpt lat="44.70023" lon="3.16165">
        <ele>1167</ele>
        <time>2018-05-01T09:55:04Z</time>
      </trkpt>
      <trkpt lat="44.69987" lon="3.16132">
        <ele>1166</ele>
        <time>2018-05-01T09:55:41Z</time>
      </trkpt>
      <trkpt lat="44.69978" lon="3.16128">
        <ele>1167</ele>
        <time>2018-05-01T09:56:05Z</time>
      </trkpt>
      <trkpt lat="44.69902" lon="3.16073">
        <ele>1166</ele>
        <time>2018-05-01T09:57:18Z</time>
      </trkpt>
      <trkpt lat="44.6989" lon="3.16068">
        <ele>1166</ele>
        <time>2018-05-01T09:57:37Z</time>
      </trkpt>
      <trkpt lat="44.69865" lon="3.16049">
        <ele>1166</ele>
        <time>2018-05-01T09:58:06Z</time>
      </trkpt>
      <trkpt lat="44.6986" lon="3.16048">
        <ele>1166</ele>
        <time>2018-05-01T09:58:11Z</time>
      </trkpt>
      <trkpt lat="44.69837" lon="3.16036">
        <ele>1165</ele>
        <time>2018-05-01T09:58:36Z</time>
      </trkpt>
      <trkpt lat="44.69808" lon="3.16027">
        <ele>1165</ele>
        <time>2018-05-01T09:59:05Z</time>
      </trkpt>
      <trkpt lat="44.69799" lon="3.16029">
        <ele>1165</ele>
        <time>2018-05-01T09:59:19Z</time>
      </trkpt>
      <trkpt lat="44.69775" lon="3.16041">
        <ele>1166</ele>
        <time>2018-05-01T10:00:32Z</time>
      </trkpt>
      <trkpt lat="44.6977" lon="3.16042">
        <ele>1166</ele>
        <time>2018-05-01T10:00:38Z</time>
      </trkpt>
      <trkpt lat="44.69739" lon="3.16039">
        <ele>1167</ele>
        <time>2018-05-01T10:01:11Z</time>
      </trkpt>
      <trkpt lat="44.69733" lon="3.16037">
        <ele>1167</ele>
        <time>2018-05-01T10:01:34Z</time>
      </trkpt>
      <trkpt lat="44.69722" lon="3.16022">
        <ele>1167</ele>
        <time>2018-05-01T10:01:49Z</time>
      </trkpt>
      <trkpt lat="44.69683" lon="3.15976">
        <ele>1169</ele>
        <time>2018-05-01T10:02:40Z</time>
      </trkpt>
      <trkpt lat="44.69666" lon="3.15961">
        <ele>1168</ele>
        <time>2018-05-01T10:02:56Z</time>
      </trkpt>
      <trkpt lat="44.69636" lon="3.15903">
        <ele>1169</ele>
        <time>2018-05-01T10:03:37Z</time>
      </trkpt>
      <trkpt lat="44.69594" lon="3.15848">
        <ele>1165</ele>
        <time>2018-05-01T10:04:21Z</time>
      </trkpt>
      <trkpt lat="44.69547" lon="3.15821">
        <ele>1164</ele>
        <time>2018-05-01T10:05:02Z</time>
      </trkpt>
      <trkpt lat="44.69544" lon="3.15815">
        <ele>1165</ele>
        <time>2018-05-01T10:05:40Z</time>
      </trkpt>
      <trkpt lat="44.69518" lon="3.15787">
        <ele>1165</ele>
        <time>2018-05-01T10:07:03Z</time>
      </trkpt>
      <trkpt lat="44.69468" lon="3.15743">
        <ele>1164</ele>
        <time>2018-05-01T10:07:58Z</time>
      </trkpt>
      <trkpt lat="44.69462" lon="3.15734">
        <ele>1163</ele>
        <time>2018-05-01T10:08:08Z</time>
      </trkpt>
      <trkpt lat="44.69449" lon="3.15724">
        <ele>1162</ele>
        <time>2018-05-01T10:08:40Z</time>
      </trkpt>
      <trkpt lat="44.69432" lon="3.15693">
        <ele>1163</ele>
        <time>2018-05-01T10:09:11Z</time>
      </trkpt>
      <trkpt lat="44.69416" lon="3.15674">
        <ele>1163</ele>
        <time>2018-05-01T10:09:29Z</time>
      </trkpt>
      <trkpt lat="44.69411" lon="3.15671">
        <ele>1163</ele>
        <time>2018-05-01T10:09:34Z</time>
      </trkpt>
      <trkpt lat="44.69407" lon="3.15668">
        <ele>1165</ele>
        <time>2018-05-01T10:10:30Z</time>
      </trkpt>
      <trkpt lat="44.69403" lon="3.15663">
        <ele>1164</ele>
        <time>2018-05-01T10:10:34Z</time>
      </trkpt>
      <trkpt lat="44.6939" lon="3.15651">
        <ele>1164</ele>
        <time>2018-05-01T10:10:46Z</time>
      </trkpt>
      <trkpt lat="44.69377" lon="3.15643">
        <ele>1163</ele>
        <time>2018-05-01T10:10:58Z</time>
      </trkpt>
      <trkpt lat="44.69347" lon="3.15634">
        <ele>1162</ele>
        <time>2018-05-01T10:11:40Z</time>
      </trkpt>
      <trkpt lat="44.69342" lon="3.15626">
        <ele>1162</ele>
        <time>2018-05-01T10:11:51Z</time>
      </trkpt>
      <trkpt lat="44.6933" lon="3.15608">
        <ele>1162</ele>
        <time>2018-05-01T10:12:09Z</time>
      </trkpt>
      <trkpt lat="44.69325" lon="3.1559">
        <ele>1162</ele>
        <time>2018-05-01T10:12:23Z</time>
      </trkpt>
      <trkpt lat="44.69324" lon="3.15584">
        <ele>1162</ele>
        <time>2018-05-01T10:12:28Z</time>
      </trkpt>
      <trkpt lat="44.69311" lon="3.15553">
        <ele>1163</ele>
        <time>2018-05-01T10:12:52Z</time>
      </trkpt>
      <trkpt lat="44.69295" lon="3.15524">
        <ele>1165</ele>
        <time>2018-05-01T10:13:17Z</time>
      </trkpt>
      <trkpt lat="44.69284" lon="3.15508">
        <ele>1167</ele>
        <time>2018-05-01T10:13:35Z</time>
      </trkpt>
      <trkpt lat="44.69276" lon="3.15493">
        <ele>1169</ele>
        <time>2018-05-01T10:15:01Z</time>
      </trkpt>
      <trkpt lat="44.69214" lon="3.1543">
        <ele>1174</ele>
        <time>2018-05-01T10:16:15Z</time>
      </trkpt>
      <trkpt lat="44.69204" lon="3.15425">
        <ele>1175</ele>
        <time>2018-05-01T10:16:25Z</time>
      </trkpt>
      <trkpt lat="44.69194" lon="3.15422">
        <ele>1174</ele>
        <time>2018-05-01T10:16:34Z</time>
      </trkpt>
      <trkpt lat="44.69127" lon="3.15417">
        <ele>1174</ele>
        <time>2018-05-01T10:17:42Z</time>
      </trkpt>
      <trkpt lat="44.69103" lon="3.15411">
        <ele>1174</ele>
        <time>2018-05-01T10:18:03Z</time>
      </trkpt>
      <trkpt lat="44.69098" lon="3.15408">
        <ele>1174</ele>
        <time>2018-05-01T10:18:08Z</time>
      </trkpt>
      <trkpt lat="44.6894" lon="3.15394">
        <ele>1179</ele>
        <time>2018-05-01T10:20:18Z</time>
      </trkpt>
      <trkpt lat="44.68937" lon="3.15389">
        <ele>1179</ele>
        <time>2018-05-01T10:20:22Z</time>
      </trkpt>
      <trkpt lat="44.68933" lon="3.15384">
        <ele>1179</ele>
        <time>2018-05-01T10:20:26Z</time>
      </trkpt>
      <trkpt lat="44.68907" lon="3.15326">
        <ele>1180</ele>
        <time>2018-05-01T10:21:05Z</time>
      </trkpt>
      <trkpt lat="44.68893" lon="3.15288">
        <ele>1181</ele>
        <time>2018-05-01T10:21:29Z</time>
      </trkpt>
      <trkpt lat="44.68892" lon="3.15275">
        <ele>1181</ele>
        <time>2018-05-01T10:21:37Z</time>
      </trkpt>
      <trkpt lat="44.68898" lon="3.15227">
        <ele>1181</ele>
        <time>2018-05-01T10:22:08Z</time>
      </trkpt>
      <trkpt lat="44.6889" lon="3.15208">
        <ele>1181</ele>
        <time>2018-05-01T10:22:22Z</time>
      </trkpt>
      <trkpt lat="44.68889" lon="3.15201">
        <ele>1181</ele>
        <time>2018-05-01T10:22:27Z</time>
      </trkpt>
      <trkpt lat="44.6887" lon="3.15168">
        <ele>1182</ele>
        <time>2018-05-01T10:23:06Z</time>
      </trkpt>
      <trkpt lat="44.68862" lon="3.1516">
        <ele>1182</ele>
        <time>2018-05-01T10:23:15Z</time>
      </trkpt>
      <trkpt lat="44.68857" lon="3.15156">
        <ele>1182</ele>
        <time>2018-05-01T10:23:19Z</time>
      </trkpt>
      <trkpt lat="44.68852" lon="3.15153">
        <ele>1182</ele>
        <time>2018-05-01T10:23:23Z</time>
      </trkpt>
      <trkpt lat="44.68843" lon="3.1515">
        <ele>1182</ele>
        <time>2018-05-01T10:23:32Z</time>
      </trkpt>
      <trkpt lat="44.68817" lon="3.15109">
        <ele>1182</ele>
        <time>2018-05-01T10:24:04Z</time>
      </trkpt>
      <trkpt lat="44.68813" lon="3.15104">
        <ele>1182</ele>
        <time>2018-05-01T10:24:09Z</time>
      </trkpt>
      <trkpt lat="44.68778" lon="3.15042">
        <ele>1184</ele>
        <time>2018-05-01T10:25:14Z</time>
      </trkpt>
      <trkpt lat="44.6877" lon="3.15032">
        <ele>1185</ele>
        <time>2018-05-01T10:25:24Z</time>
      </trkpt>
      <trkpt lat="44.68764" lon="3.15018">
        <ele>1186</ele>
        <time>2018-05-01T10:25:49Z</time>
      </trkpt>
      <trkpt lat="44.68762" lon="3.14997">
        <ele>1186</ele>
        <time>2018-05-01T10:26:02Z</time>
      </trkpt>
      <trkpt lat="44.68766" lon="3.1493">
        <ele>1188</ele>
        <time>2018-05-01T10:26:40Z</time>
      </trkpt>
      <trkpt lat="44.68767" lon="3.14924">
        <ele>1188</ele>
        <time>2018-05-01T10:26:44Z</time>
      </trkpt>
      <trkpt lat="44.68764" lon="3.14903">
        <ele>1189</ele>
        <time>2018-05-01T10:26:56Z</time>
      </trkpt>
      <trkpt lat="44.6876" lon="3.1489">
        <ele>1189</ele>
        <time>2018-05-01T10:27:04Z</time>
      </trkpt>
      <trkpt lat="44.68747" lon="3.1478">
        <ele>1193</ele>
        <time>2018-05-01T10:28:22Z</time>
      </trkpt>
      <trkpt lat="44.68731" lon="3.14746">
        <ele>1195</ele>
        <time>2018-05-01T10:28:53Z</time>
      </trkpt>
      <trkpt lat="44.68725" lon="3.14725">
        <ele>1195</ele>
        <time>2018-05-01T10:29:08Z</time>
      </trkpt>
      <trkpt lat="44.68715" lon="3.147">
        <ele>1195</ele>
        <time>2018-05-01T10:29:27Z</time>
      </trkpt>
      <trkpt lat="44.68695" lon="3.14666">
        <ele>1195</ele>
        <time>2018-05-01T10:29:57Z</time>
      </trkpt>
      <trkpt lat="44.68672" lon="3.14636">
        <ele>1195</ele>
        <time>2018-05-01T10:30:28Z</time>
      </trkpt>
      <trkpt lat="44.6864" lon="3.14579">
        <ele>1194</ele>
        <time>2018-05-01T10:31:28Z</time>
      </trkpt>
      <trkpt lat="44.6863" lon="3.14554">
        <ele>1193</ele>
        <time>2018-05-01T10:31:50Z</time>
      </trkpt>
      <trkpt lat="44.68626" lon="3.14548">
        <ele>1192</ele>
        <time>2018-05-01T10:31:58Z</time>
      </trkpt>
      <trkpt lat="44.68621" lon="3.1455">
        <ele>1192</ele>
        <time>2018-05-01T10:32:16Z</time>
      </trkpt>
      <trkpt lat="44.6862" lon="3.14557">
        <ele>1193</ele>
        <time>2018-05-01T10:33:41Z</time>
      </trkpt>
      <trkpt lat="44.68613" lon="3.14565">
        <ele>1193</ele>
        <time>2018-05-01T10:34:58Z</time>
      </trkpt>
      <trkpt lat="44.68609" lon="3.14571">
        <ele>1193</ele>
        <time>2018-05-01T10:35:06Z</time>
      </trkpt>
      <trkpt lat="44.68611" lon="3.14567">
        <ele>1193</ele>
        <time>2018-05-01T10:53:32Z</time>
      </trkpt>
      <trkpt lat="44.68615" lon="3.14562">
        <ele>1193</ele>
        <time>2018-05-01T10:53:37Z</time>
      </trkpt>
      <trkpt lat="44.68618" lon="3.14554">
        <ele>1193</ele>
        <time>2018-05-01T10:53:41Z</time>
      </trkpt>
      <trkpt lat="44.68614" lon="3.14563">
        <ele>1193</ele>
        <time>2018-05-01T10:55:10Z</time>
      </trkpt>
      <trkpt lat="44.68611" lon="3.14568">
        <ele>1193</ele>
        <time>2018-05-01T10:55:15Z</time>
      </trkpt>
      <trkpt lat="44.68607" lon="3.14573">
        <ele>1193</ele>
        <time>2018-05-01T10:55:24Z</time>
      </trkpt>
      <trkpt lat="44.68605" lon="3.14577">
        <ele>1192</ele>
        <time>2018-05-01T11:01:52Z</time>
      </trkpt>
      <trkpt lat="44.68606" lon="3.14584">
        <ele>1193</ele>
        <time>2018-05-01T11:02:00Z</time>
      </trkpt>
      <trkpt lat="44.68602" lon="3.14594">
        <ele>1194</ele>
        <time>2018-05-01T11:02:11Z</time>
      </trkpt>
      <trkpt lat="44.68596" lon="3.14614">
        <ele>1194</ele>
        <time>2018-05-01T11:02:24Z</time>
      </trkpt>
      <trkpt lat="44.68588" lon="3.14628">
        <ele>1194</ele>
        <time>2018-05-01T11:02:41Z</time>
      </trkpt>
      <trkpt lat="44.68583" lon="3.14642">
        <ele>1195</ele>
        <time>2018-05-01T11:05:18Z</time>
      </trkpt>
      <trkpt lat="44.68585" lon="3.14629">
        <ele>1196</ele>
        <time>2018-05-01T11:19:38Z</time>
      </trkpt>
      <trkpt lat="44.68582" lon="3.14634">
        <ele>1198</ele>
        <time>2018-05-01T11:52:22Z</time>
      </trkpt>
      <trkpt lat="44.6858" lon="3.14626">
        <ele>1197</ele>
        <time>2018-05-01T11:53:03Z</time>
      </trkpt>
      <trkpt lat="44.68587" lon="3.14628">
        <ele>1198</ele>
        <time>2018-05-01T11:53:20Z</time>
      </trkpt>
      <trkpt lat="44.68592" lon="3.14627">
        <ele>1198</ele>
        <time>2018-05-01T11:53:24Z</time>
      </trkpt>
      <trkpt lat="44.686" lon="3.14615">
        <ele>1198</ele>
        <time>2018-05-01T11:53:33Z</time>
      </trkpt>
      <trkpt lat="44.68602" lon="3.14599">
        <ele>1197</ele>
        <time>2018-05-01T11:54:33Z</time>
      </trkpt>
      <trkpt lat="44.68614" lon="3.14571">
        <ele>1196</ele>
        <time>2018-05-01T11:54:57Z</time>
      </trkpt>
      <trkpt lat="44.68616" lon="3.14564">
        <ele>1196</ele>
        <time>2018-05-01T11:55:02Z</time>
      </trkpt>
      <trkpt lat="44.68626" lon="3.14547">
        <ele>1194</ele>
        <time>2018-05-01T11:55:16Z</time>
      </trkpt>
      <trkpt lat="44.68628" lon="3.14541">
        <ele>1194</ele>
        <time>2018-05-01T11:55:20Z</time>
      </trkpt>
      <trkpt lat="44.68626" lon="3.14425">
        <ele>1188</ele>
        <time>2018-05-01T11:56:52Z</time>
      </trkpt>
      <trkpt lat="44.68634" lon="3.1433">
        <ele>1186</ele>
        <time>2018-05-01T11:57:51Z</time>
      </trkpt>
      <trkpt lat="44.68616" lon="3.14214">
        <ele>1185</ele>
        <time>2018-05-01T11:58:59Z</time>
      </trkpt>
      <trkpt lat="44.68607" lon="3.14183">
        <ele>1187</ele>
        <time>2018-05-01T11:59:19Z</time>
      </trkpt>
      <trkpt lat="44.68604" lon="3.14177">
        <ele>1187</ele>
        <time>2018-05-01T11:59:23Z</time>
      </trkpt>
      <trkpt lat="44.68581" lon="3.14158">
        <ele>1189</ele>
        <time>2018-05-01T11:59:45Z</time>
      </trkpt>
      <trkpt lat="44.68546" lon="3.14135">
        <ele>1193</ele>
        <time>2018-05-01T12:00:22Z</time>
      </trkpt>
      <trkpt lat="44.68538" lon="3.14127">
        <ele>1194</ele>
        <time>2018-05-01T12:00:31Z</time>
      </trkpt>
      <trkpt lat="44.68519" lon="3.14101">
        <ele>1195</ele>
        <time>2018-05-01T12:00:54Z</time>
      </trkpt>
      <trkpt lat="44.68492" lon="3.14078">
        <ele>1195</ele>
        <time>2018-05-01T12:01:20Z</time>
      </trkpt>
      <trkpt lat="44.68483" lon="3.14073">
        <ele>1195</ele>
        <time>2018-05-01T12:01:28Z</time>
      </trkpt>
      <trkpt lat="44.6846" lon="3.14048">
        <ele>1195</ele>
        <time>2018-05-01T12:01:52Z</time>
      </trkpt>
      <trkpt lat="44.68453" lon="3.14038">
        <ele>1196</ele>
        <time>2018-05-01T12:02:01Z</time>
      </trkpt>
      <trkpt lat="44.6845" lon="3.14029">
        <ele>1197</ele>
        <time>2018-05-01T12:02:08Z</time>
      </trkpt>
      <trkpt lat="44.68449" lon="3.14019">
        <ele>1198</ele>
        <time>2018-05-01T12:02:15Z</time>
      </trkpt>
      <trkpt lat="44.68447" lon="3.14012">
        <ele>1198</ele>
        <time>2018-05-01T12:02:20Z</time>
      </trkpt>
      <trkpt lat="44.68441" lon="3.13999">
        <ele>1198</ele>
        <time>2018-05-01T12:02:30Z</time>
      </trkpt>
      <trkpt lat="44.68437" lon="3.13986">
        <ele>1199</ele>
        <time>2018-05-01T12:02:40Z</time>
      </trkpt>
      <trkpt lat="44.68428" lon="3.13967">
        <ele>1200</ele>
        <time>2018-05-01T12:02:54Z</time>
      </trkpt>
      <trkpt lat="44.68416" lon="3.1392">
        <ele>1201</ele>
        <time>2018-05-01T12:03:27Z</time>
      </trkpt>
      <trkpt lat="44.68406" lon="3.13893">
        <ele>1202</ele>
        <time>2018-05-01T12:03:48Z</time>
      </trkpt>
      <trkpt lat="44.68395" lon="3.13884">
        <ele>1201</ele>
        <time>2018-05-01T12:04:20Z</time>
      </trkpt>
      <trkpt lat="44.68387" lon="3.13876">
        <ele>1200</ele>
        <time>2018-05-01T12:04:29Z</time>
      </trkpt>
      <trkpt lat="44.68383" lon="3.13872">
        <ele>1200</ele>
        <time>2018-05-01T12:04:33Z</time>
      </trkpt>
      <trkpt lat="44.68369" lon="3.13863">
        <ele>1200</ele>
        <time>2018-05-01T12:04:46Z</time>
      </trkpt>
      <trkpt lat="44.68364" lon="3.13862">
        <ele>1199</ele>
        <time>2018-05-01T12:04:50Z</time>
      </trkpt>
      <trkpt lat="44.68359" lon="3.13864">
        <ele>1199</ele>
        <time>2018-05-01T12:04:55Z</time>
      </trkpt>
      <trkpt lat="44.68353" lon="3.13865">
        <ele>1199</ele>
        <time>2018-05-01T12:06:09Z</time>
      </trkpt>
      <trkpt lat="44.68358" lon="3.13857">
        <ele>1199</ele>
        <time>2018-05-01T12:06:52Z</time>
      </trkpt>
      <trkpt lat="44.68362" lon="3.13862">
        <ele>1199</ele>
        <time>2018-05-01T12:06:58Z</time>
      </trkpt>
      <trkpt lat="44.68369" lon="3.1386">
        <ele>1200</ele>
        <time>2018-05-01T12:07:02Z</time>
      </trkpt>
      <trkpt lat="44.68381" lon="3.13867">
        <ele>1201</ele>
        <time>2018-05-01T12:07:15Z</time>
      </trkpt>
      <trkpt lat="44.68385" lon="3.1387">
        <ele>1201</ele>
        <time>2018-05-01T12:07:20Z</time>
      </trkpt>
      <trkpt lat="44.684" lon="3.13884">
        <ele>1202</ele>
        <time>2018-05-01T12:07:36Z</time>
      </trkpt>
      <trkpt lat="44.6841" lon="3.13885">
        <ele>1203</ele>
        <time>2018-05-01T12:08:39Z</time>
      </trkpt>
      <trkpt lat="44.68418" lon="3.13882">
        <ele>1204</ele>
        <time>2018-05-01T12:08:47Z</time>
      </trkpt>
      <trkpt lat="44.68429" lon="3.13855">
        <ele>1206</ele>
        <time>2018-05-01T12:09:09Z</time>
      </trkpt>
      <trkpt lat="44.68438" lon="3.13822">
        <ele>1209</ele>
        <time>2018-05-01T12:09:34Z</time>
      </trkpt>
      <trkpt lat="44.68439" lon="3.13804">
        <ele>1210</ele>
        <time>2018-05-01T12:09:48Z</time>
      </trkpt>
      <trkpt lat="44.68438" lon="3.13797">
        <ele>1211</ele>
        <time>2018-05-01T12:09:53Z</time>
      </trkpt>
      <trkpt lat="44.6843" lon="3.13775">
        <ele>1212</ele>
        <time>2018-05-01T12:10:09Z</time>
      </trkpt>
      <trkpt lat="44.68423" lon="3.13731">
        <ele>1215</ele>
        <time>2018-05-01T12:10:40Z</time>
      </trkpt>
      <trkpt lat="44.68395" lon="3.13656">
        <ele>1219</ele>
        <time>2018-05-01T12:11:36Z</time>
      </trkpt>
      <trkpt lat="44.68383" lon="3.13557">
        <ele>1218</ele>
        <time>2018-05-01T12:12:35Z</time>
      </trkpt>
      <trkpt lat="44.68382" lon="3.13456">
        <ele>1213</ele>
        <time>2018-05-01T12:13:34Z</time>
      </trkpt>
      <trkpt lat="44.68387" lon="3.13398">
        <ele>1211</ele>
        <time>2018-05-01T12:14:05Z</time>
      </trkpt>
      <trkpt lat="44.68386" lon="3.13375">
        <ele>1210</ele>
        <time>2018-05-01T12:14:17Z</time>
      </trkpt>
      <trkpt lat="44.68376" lon="3.1332">
        <ele>1207</ele>
        <time>2018-05-01T12:14:49Z</time>
      </trkpt>
      <trkpt lat="44.68381" lon="3.13256">
        <ele>1202</ele>
        <time>2018-05-01T12:15:28Z</time>
      </trkpt>
      <trkpt lat="44.68379" lon="3.13242">
        <ele>1200</ele>
        <time>2018-05-01T12:15:36Z</time>
      </trkpt>
      <trkpt lat="44.68374" lon="3.13228">
        <ele>1199</ele>
        <time>2018-05-01T12:15:44Z</time>
      </trkpt>
      <trkpt lat="44.68353" lon="3.13202">
        <ele>1196</ele>
        <time>2018-05-01T12:16:04Z</time>
      </trkpt>
      <trkpt lat="44.68339" lon="3.1319">
        <ele>1194</ele>
        <time>2018-05-01T12:16:16Z</time>
      </trkpt>
      <trkpt lat="44.68332" lon="3.1318">
        <ele>1193</ele>
        <time>2018-05-01T12:16:24Z</time>
      </trkpt>
      <trkpt lat="44.68325" lon="3.13152">
        <ele>1193</ele>
        <time>2018-05-01T12:16:40Z</time>
      </trkpt>
      <trkpt lat="44.68325" lon="3.13095">
        <ele>1194</ele>
        <time>2018-05-01T12:17:17Z</time>
      </trkpt>
      <trkpt lat="44.68327" lon="3.13087">
        <ele>1194</ele>
        <time>2018-05-01T12:17:22Z</time>
      </trkpt>
      <trkpt lat="44.68328" lon="3.1308">
        <ele>1195</ele>
        <time>2018-05-01T12:17:26Z</time>
      </trkpt>
      <trkpt lat="44.68336" lon="3.13055">
        <ele>1198</ele>
        <time>2018-05-01T12:17:40Z</time>
      </trkpt>
      <trkpt lat="44.68335" lon="3.13047">
        <ele>1198</ele>
        <time>2018-05-01T12:17:44Z</time>
      </trkpt>
      <trkpt lat="44.68336" lon="3.13041">
        <ele>1199</ele>
        <time>2018-05-01T12:17:48Z</time>
      </trkpt>
      <trkpt lat="44.68332" lon="3.13028">
        <ele>1200</ele>
        <time>2018-05-01T12:17:56Z</time>
      </trkpt>
      <trkpt lat="44.68326" lon="3.13017">
        <ele>1201</ele>
        <time>2018-05-01T12:18:04Z</time>
      </trkpt>
      <trkpt lat="44.68331" lon="3.1297">
        <ele>1205</ele>
        <time>2018-05-01T12:18:47Z</time>
      </trkpt>
      <trkpt lat="44.68338" lon="3.12941">
        <ele>1207</ele>
        <time>2018-05-01T12:19:06Z</time>
      </trkpt>
      <trkpt lat="44.68339" lon="3.12934">
        <ele>1208</ele>
        <time>2018-05-01T12:19:10Z</time>
      </trkpt>
      <trkpt lat="44.68337" lon="3.12898">
        <ele>1210</ele>
        <time>2018-05-01T12:19:33Z</time>
      </trkpt>
      <trkpt lat="44.68324" lon="3.12855">
        <ele>1215</ele>
        <time>2018-05-01T12:20:20Z</time>
      </trkpt>
      <trkpt lat="44.68323" lon="3.12847">
        <ele>1215</ele>
        <time>2018-05-01T12:20:24Z</time>
      </trkpt>
      <trkpt lat="44.68317" lon="3.12834">
        <ele>1216</ele>
        <time>2018-05-01T12:20:32Z</time>
      </trkpt>
      <trkpt lat="44.68306" lon="3.12819">
        <ele>1217</ele>
        <time>2018-05-01T12:20:44Z</time>
      </trkpt>
      <trkpt lat="44.68289" lon="3.12788">
        <ele>1220</ele>
        <time>2018-05-01T12:21:10Z</time>
      </trkpt>
      <trkpt lat="44.68271" lon="3.12726">
        <ele>1225</ele>
        <time>2018-05-01T12:22:07Z</time>
      </trkpt>
      <trkpt lat="44.6827" lon="3.12705">
        <ele>1227</ele>
        <time>2018-05-01T12:22:22Z</time>
      </trkpt>
      <trkpt lat="44.68265" lon="3.12689">
        <ele>1228</ele>
        <time>2018-05-01T12:22:34Z</time>
      </trkpt>
      <trkpt lat="44.68254" lon="3.12664">
        <ele>1231</ele>
        <time>2018-05-01T12:23:00Z</time>
      </trkpt>
      <trkpt lat="44.6825" lon="3.12657">
        <ele>1233</ele>
        <time>2018-05-01T12:23:36Z</time>
      </trkpt>
      <trkpt lat="44.68243" lon="3.1263">
        <ele>1235</ele>
        <time>2018-05-01T12:23:57Z</time>
      </trkpt>
      <trkpt lat="44.68244" lon="3.12622">
        <ele>1235</ele>
        <time>2018-05-01T12:24:02Z</time>
      </trkpt>
      <trkpt lat="44.68231" lon="3.12486">
        <ele>1240</ele>
        <time>2018-05-01T12:25:33Z</time>
      </trkpt>
      <trkpt lat="44.68225" lon="3.12459">
        <ele>1241</ele>
        <time>2018-05-01T12:25:49Z</time>
      </trkpt>
      <trkpt lat="44.68222" lon="3.12454">
        <ele>1241</ele>
        <time>2018-05-01T12:25:53Z</time>
      </trkpt>
      <trkpt lat="44.68201" lon="3.12406">
        <ele>1243</ele>
        <time>2018-05-01T12:26:26Z</time>
      </trkpt>
      <trkpt lat="44.68185" lon="3.12379">
        <ele>1245</ele>
        <time>2018-05-01T12:26:46Z</time>
      </trkpt>
      <trkpt lat="44.68163" lon="3.12362">
        <ele>1248</ele>
        <time>2018-05-01T12:27:13Z</time>
      </trkpt>
      <trkpt lat="44.68155" lon="3.12363">
        <ele>1249</ele>
        <time>2018-05-01T12:27:42Z</time>
      </trkpt>
      <trkpt lat="44.68125" lon="3.12359">
        <ele>1248</ele>
        <time>2018-05-01T12:28:11Z</time>
      </trkpt>
      <trkpt lat="44.68111" lon="3.12353">
        <ele>1247</ele>
        <time>2018-05-01T12:28:25Z</time>
      </trkpt>
      <trkpt lat="44.68102" lon="3.12337">
        <ele>1246</ele>
        <time>2018-05-01T12:28:38Z</time>
      </trkpt>
      <trkpt lat="44.68042" lon="3.12272">
        <ele>1240</ele>
        <time>2018-05-01T12:29:50Z</time>
      </trkpt>
      <trkpt lat="44.6802" lon="3.12232">
        <ele>1237</ele>
        <time>2018-05-01T12:30:25Z</time>
      </trkpt>
      <trkpt lat="44.68012" lon="3.12213">
        <ele>1236</ele>
        <time>2018-05-01T12:30:40Z</time>
      </trkpt>
      <trkpt lat="44.68008" lon="3.12209">
        <ele>1236</ele>
        <time>2018-05-01T12:30:45Z</time>
      </trkpt>
      <trkpt lat="44.68003" lon="3.12206">
        <ele>1235</ele>
        <time>2018-05-01T12:30:50Z</time>
      </trkpt>
      <trkpt lat="44.67989" lon="3.12177">
        <ele>1234</ele>
        <time>2018-05-01T12:31:15Z</time>
      </trkpt>
      <trkpt lat="44.67984" lon="3.12115">
        <ele>1230</ele>
        <time>2018-05-01T12:31:54Z</time>
      </trkpt>
      <trkpt lat="44.67985" lon="3.12095">
        <ele>1229</ele>
        <time>2018-05-01T12:32:28Z</time>
      </trkpt>
      <trkpt lat="44.67996" lon="3.12068">
        <ele>1228</ele>
        <time>2018-05-01T12:32:55Z</time>
      </trkpt>
      <trkpt lat="44.67998" lon="3.12058">
        <ele>1227</ele>
        <time>2018-05-01T12:33:16Z</time>
      </trkpt>
      <trkpt lat="44.68046" lon="3.12016">
        <ele>1225</ele>
        <time>2018-05-01T12:34:07Z</time>
      </trkpt>
      <trkpt lat="44.68049" lon="3.12011">
        <ele>1224</ele>
        <time>2018-05-01T12:34:12Z</time>
      </trkpt>
      <trkpt lat="44.68029" lon="3.11963">
        <ele>1222</ele>
        <time>2018-05-01T12:34:48Z</time>
      </trkpt>
      <trkpt lat="44.68012" lon="3.11938">
        <ele>1222</ele>
        <time>2018-05-01T12:35:08Z</time>
      </trkpt>
      <trkpt lat="44.67998" lon="3.11926">
        <ele>1222</ele>
        <time>2018-05-01T12:35:20Z</time>
      </trkpt>
      <trkpt lat="44.67979" lon="3.11917">
        <ele>1221</ele>
        <time>2018-05-01T12:35:37Z</time>
      </trkpt>
      <trkpt lat="44.6794" lon="3.11882">
        <ele>1220</ele>
        <time>2018-05-01T12:36:13Z</time>
      </trkpt>
      <trkpt lat="44.67913" lon="3.1185">
        <ele>1218</ele>
        <time>2018-05-01T12:36:45Z</time>
      </trkpt>
      <trkpt lat="44.67884" lon="3.11827">
        <ele>1214</ele>
        <time>2018-05-01T12:37:18Z</time>
      </trkpt>
      <trkpt lat="44.67876" lon="3.11817">
        <ele>1214</ele>
        <time>2018-05-01T12:37:26Z</time>
      </trkpt>
      <trkpt lat="44.67858" lon="3.11778">
        <ele>1210</ele>
        <time>2018-05-01T12:37:59Z</time>
      </trkpt>
      <trkpt lat="44.67829" lon="3.11687">
        <ele>1202</ele>
        <time>2018-05-01T12:39:02Z</time>
      </trkpt>
      <trkpt lat="44.67826" lon="3.11681">
        <ele>1202</ele>
        <time>2018-05-01T12:39:06Z</time>
      </trkpt>
      <trkpt lat="44.67825" lon="3.11674">
        <ele>1202</ele>
        <time>2018-05-01T12:39:11Z</time>
      </trkpt>
      <trkpt lat="44.67833" lon="3.11651">
        <ele>1201</ele>
        <time>2018-05-01T12:39:28Z</time>
      </trkpt>
      <trkpt lat="44.67832" lon="3.11643">
        <ele>1204</ele>
        <time>2018-05-01T12:42:26Z</time>
      </trkpt>
      <trkpt lat="44.67846" lon="3.11549">
        <ele>1197</ele>
        <time>2018-05-01T12:43:27Z</time>
      </trkpt>
      <trkpt lat="44.67845" lon="3.1152">
        <ele>1194</ele>
        <time>2018-05-01T12:43:47Z</time>
      </trkpt>
      <trkpt lat="44.67839" lon="3.11498">
        <ele>1193</ele>
        <time>2018-05-01T12:44:01Z</time>
      </trkpt>
      <trkpt lat="44.6783" lon="3.11445">
        <ele>1190</ele>
        <time>2018-05-01T12:44:34Z</time>
      </trkpt>
      <trkpt lat="44.67792" lon="3.11303">
        <ele>1186</ele>
        <time>2018-05-01T12:46:07Z</time>
      </trkpt>
      <trkpt lat="44.67773" lon="3.1112">
        <ele>1181</ele>
        <time>2018-05-01T12:47:57Z</time>
      </trkpt>
      <trkpt lat="44.67737" lon="3.11043">
        <ele>1182</ele>
        <time>2018-05-01T12:48:58Z</time>
      </trkpt>
      <trkpt lat="44.67735" lon="3.11048">
        <ele>1182</ele>
        <time>2018-05-01T12:49:51Z</time>
      </trkpt>
      <trkpt lat="44.67739" lon="3.11054">
        <ele>1182</ele>
        <time>2018-05-01T12:49:58Z</time>
      </trkpt>
      <trkpt lat="44.6774" lon="3.1106">
        <ele>1182</ele>
        <time>2018-05-01T12:50:01Z</time>
      </trkpt>
      <trkpt lat="44.67771" lon="3.11124">
        <ele>1182</ele>
        <time>2018-05-01T12:50:41Z</time>
      </trkpt>
      <trkpt lat="44.67779" lon="3.11241">
        <ele>1183</ele>
        <time>2018-05-01T12:51:42Z</time>
      </trkpt>
      <trkpt lat="44.67781" lon="3.11231">
        <ele>1183</ele>
        <time>2018-05-01T12:51:58Z</time>
      </trkpt>
      <trkpt lat="44.67782" lon="3.11217">
        <ele>1183</ele>
        <time>2018-05-01T12:52:06Z</time>
      </trkpt>
      <trkpt lat="44.67776" lon="3.11136">
        <ele>1181</ele>
        <time>2018-05-01T12:52:53Z</time>
      </trkpt>
      <trkpt lat="44.67768" lon="3.11108">
        <ele>1181</ele>
        <time>2018-05-01T12:53:09Z</time>
      </trkpt>
      <trkpt lat="44.67744" lon="3.11059">
        <ele>1180</ele>
        <time>2018-05-01T12:53:41Z</time>
      </trkpt>
      <trkpt lat="44.67738" lon="3.1104">
        <ele>1180</ele>
        <time>2018-05-01T12:53:54Z</time>
      </trkpt>
      <trkpt lat="44.67739" lon="3.11027">
        <ele>1181</ele>
        <time>2018-05-01T12:54:20Z</time>
      </trkpt>
      <trkpt lat="44.67737" lon="3.11026">
        <ele>1182</ele>
        <time>2018-05-01T12:55:15Z</time>
      </trkpt>
      <trkpt lat="44.67724" lon="3.11025">
        <ele>1182</ele>
        <time>2018-05-01T12:56:24Z</time>
      </trkpt>
      <trkpt lat="44.67719" lon="3.11019">
        <ele>1182</ele>
        <time>2018-05-01T12:56:31Z</time>
      </trkpt>
      <trkpt lat="44.67715" lon="3.11016">
        <ele>1182</ele>
        <time>2018-05-01T12:56:42Z</time>
      </trkpt>
      <trkpt lat="44.67697" lon="3.11008">
        <ele>1182</ele>
        <time>2018-05-01T12:57:17Z</time>
      </trkpt>
      <trkpt lat="44.67688" lon="3.11003">
        <ele>1183</ele>
        <time>2018-05-01T12:57:26Z</time>
      </trkpt>
      <trkpt lat="44.67668" lon="3.10996">
        <ele>1183</ele>
        <time>2018-05-01T12:57:47Z</time>
      </trkpt>
      <trkpt lat="44.67632" lon="3.10976">
        <ele>1185</ele>
        <time>2018-05-01T12:58:24Z</time>
      </trkpt>
      <trkpt lat="44.67593" lon="3.10962">
        <ele>1189</ele>
        <time>2018-05-01T12:59:05Z</time>
      </trkpt>
      <trkpt lat="44.67551" lon="3.10957">
        <ele>1193</ele>
        <time>2018-05-01T13:00:06Z</time>
      </trkpt>
      <trkpt lat="44.67545" lon="3.10958">
        <ele>1193</ele>
        <time>2018-05-01T13:00:10Z</time>
      </trkpt>
      <trkpt lat="44.67521" lon="3.10949">
        <ele>1194</ele>
        <time>2018-05-01T13:00:31Z</time>
      </trkpt>
      <trkpt lat="44.67504" lon="3.10936">
        <ele>1196</ele>
        <time>2018-05-01T13:00:49Z</time>
      </trkpt>
      <trkpt lat="44.67497" lon="3.10929">
        <ele>1196</ele>
        <time>2018-05-01T13:00:57Z</time>
      </trkpt>
      <trkpt lat="44.67496" lon="3.10922">
        <ele>1197</ele>
        <time>2018-05-01T13:01:02Z</time>
      </trkpt>
      <trkpt lat="44.67396" lon="3.10838">
        <ele>1200</ele>
        <time>2018-05-01T13:02:48Z</time>
      </trkpt>
      <trkpt lat="44.67393" lon="3.10826">
        <ele>1200</ele>
        <time>2018-05-01T13:03:39Z</time>
      </trkpt>
      <trkpt lat="44.67375" lon="3.10823">
        <ele>1200</ele>
        <time>2018-05-01T13:04:17Z</time>
      </trkpt>
      <trkpt lat="44.67328" lon="3.10785">
        <ele>1200</ele>
        <time>2018-05-01T13:05:07Z</time>
      </trkpt>
      <trkpt lat="44.67321" lon="3.10776">
        <ele>1200</ele>
        <time>2018-05-01T13:05:16Z</time>
      </trkpt>
      <trkpt lat="44.67255" lon="3.10719">
        <ele>1198</ele>
        <time>2018-05-01T13:06:26Z</time>
      </trkpt>
      <trkpt lat="44.67251" lon="3.10714">
        <ele>1198</ele>
        <time>2018-05-01T13:06:51Z</time>
      </trkpt>
      <trkpt lat="44.67191" lon="3.10664">
        <ele>1197</ele>
        <time>2018-05-01T13:08:22Z</time>
      </trkpt>
      <trkpt lat="44.67186" lon="3.10658">
        <ele>1197</ele>
        <time>2018-05-01T13:08:32Z</time>
      </trkpt>
      <trkpt lat="44.67161" lon="3.10636">
        <ele>1197</ele>
        <time>2018-05-01T13:09:03Z</time>
      </trkpt>
      <trkpt lat="44.67154" lon="3.10627">
        <ele>1197</ele>
        <time>2018-05-01T13:09:12Z</time>
      </trkpt>
      <trkpt lat="44.67141" lon="3.10615">
        <ele>1196</ele>
        <time>2018-05-01T13:09:25Z</time>
      </trkpt>
      <trkpt lat="44.67138" lon="3.10611">
        <ele>1196</ele>
        <time>2018-05-01T13:09:29Z</time>
      </trkpt>
      <trkpt lat="44.67129" lon="3.10602">
        <ele>1196</ele>
        <time>2018-05-01T13:09:39Z</time>
      </trkpt>
      <trkpt lat="44.67082" lon="3.10527">
        <ele>1198</ele>
        <time>2018-05-01T13:10:44Z</time>
      </trkpt>
      <trkpt lat="44.67059" lon="3.10505">
        <ele>1200</ele>
        <time>2018-05-01T13:11:28Z</time>
      </trkpt>
      <trkpt lat="44.67055" lon="3.10502">
        <ele>1200</ele>
        <time>2018-05-01T13:11:33Z</time>
      </trkpt>
      <trkpt lat="44.67007" lon="3.10453">
        <ele>1197</ele>
        <time>2018-05-01T13:12:26Z</time>
      </trkpt>
      <trkpt lat="44.67003" lon="3.10443">
        <ele>1198</ele>
        <time>2018-05-01T13:12:51Z</time>
      </trkpt>
      <trkpt lat="44.67" lon="3.10438">
        <ele>1197</ele>
        <time>2018-05-01T13:12:55Z</time>
      </trkpt>
      <trkpt lat="44.66991" lon="3.10435">
        <ele>1197</ele>
        <time>2018-05-01T13:13:12Z</time>
      </trkpt>
      <trkpt lat="44.66969" lon="3.10432">
        <ele>1196</ele>
        <time>2018-05-01T13:13:35Z</time>
      </trkpt>
      <trkpt lat="44.66959" lon="3.10434">
        <ele>1195</ele>
        <time>2018-05-01T13:13:43Z</time>
      </trkpt>
      <trkpt lat="44.66894" lon="3.10421">
        <ele>1190</ele>
        <time>2018-05-01T13:15:24Z</time>
      </trkpt>
      <trkpt lat="44.66888" lon="3.10427">
        <ele>1191</ele>
        <time>2018-05-01T13:19:08Z</time>
      </trkpt>
      <trkpt lat="44.66883" lon="3.10426">
        <ele>1190</ele>
        <time>2018-05-01T13:19:14Z</time>
      </trkpt>
      <trkpt lat="44.66888" lon="3.1041">
        <ele>1190</ele>
        <time>2018-05-01T13:20:10Z</time>
      </trkpt>
      <trkpt lat="44.66881" lon="3.10409">
        <ele>1189</ele>
        <time>2018-05-01T13:20:49Z</time>
      </trkpt>
      <trkpt lat="44.66877" lon="3.10406">
        <ele>1188</ele>
        <time>2018-05-01T13:20:55Z</time>
      </trkpt>
      <trkpt lat="44.66867" lon="3.10395">
        <ele>1187</ele>
        <time>2018-05-01T13:21:08Z</time>
      </trkpt>
      <trkpt lat="44.66854" lon="3.10291">
        <ele>1185</ele>
        <time>2018-05-01T13:22:19Z</time>
      </trkpt>
      <trkpt lat="44.66857" lon="3.10271">
        <ele>1184</ele>
        <time>2018-05-01T13:22:31Z</time>
      </trkpt>
      <trkpt lat="44.66856" lon="3.10256">
        <ele>1184</ele>
        <time>2018-05-01T13:22:41Z</time>
      </trkpt>
      <trkpt lat="44.66851" lon="3.10229">
        <ele>1184</ele>
        <time>2018-05-01T13:22:59Z</time>
      </trkpt>
      <trkpt lat="44.6685" lon="3.10201">
        <ele>1184</ele>
        <time>2018-05-01T13:23:18Z</time>
      </trkpt>
      <trkpt lat="44.66851" lon="3.10195">
        <ele>1183</ele>
        <time>2018-05-01T13:23:23Z</time>
      </trkpt>
      <trkpt lat="44.66849" lon="3.10151">
        <ele>1183</ele>
        <time>2018-05-01T13:24:10Z</time>
      </trkpt>
      <trkpt lat="44.66836" lon="3.10123">
        <ele>1181</ele>
        <time>2018-05-01T13:24:32Z</time>
      </trkpt>
      <trkpt lat="44.66815" lon="3.10095">
        <ele>1178</ele>
        <time>2018-05-01T13:24:57Z</time>
      </trkpt>
      <trkpt lat="44.66791" lon="3.10075">
        <ele>1175</ele>
        <time>2018-05-01T13:25:28Z</time>
      </trkpt>
      <trkpt lat="44.66776" lon="3.10068">
        <ele>1174</ele>
        <time>2018-05-01T13:25:41Z</time>
      </trkpt>
      <trkpt lat="44.66768" lon="3.10059">
        <ele>1173</ele>
        <time>2018-05-01T13:25:51Z</time>
      </trkpt>
      <trkpt lat="44.66732" lon="3.10057">
        <ele>1169</ele>
        <time>2018-05-01T13:26:25Z</time>
      </trkpt>
      <trkpt lat="44.66697" lon="3.10061">
        <ele>1168</ele>
        <time>2018-05-01T13:26:56Z</time>
      </trkpt>
      <trkpt lat="44.66667" lon="3.10056">
        <ele>1166</ele>
        <time>2018-05-01T13:27:22Z</time>
      </trkpt>
      <trkpt lat="44.66628" lon="3.10039">
        <ele>1164</ele>
        <time>2018-05-01T13:27:57Z</time>
      </trkpt>
      <trkpt lat="44.66624" lon="3.10036">
        <ele>1164</ele>
        <time>2018-05-01T13:28:01Z</time>
      </trkpt>
      <trkpt lat="44.66595" lon="3.10021">
        <ele>1161</ele>
        <time>2018-05-01T13:28:28Z</time>
      </trkpt>
      <trkpt lat="44.66592" lon="3.10015">
        <ele>1161</ele>
        <time>2018-05-01T13:28:33Z</time>
      </trkpt>
      <trkpt lat="44.66585" lon="3.10005">
        <ele>1161</ele>
        <time>2018-05-01T13:28:57Z</time>
      </trkpt>
      <trkpt lat="44.66582" lon="3.10002">
        <ele>1161</ele>
        <time>2018-05-01T13:29:01Z</time>
      </trkpt>
      <trkpt lat="44.66483" lon="3.09919">
        <ele>1156</ele>
        <time>2018-05-01T13:30:39Z</time>
      </trkpt>
      <trkpt lat="44.66433" lon="3.09868">
        <ele>1156</ele>
        <time>2018-05-01T13:31:34Z</time>
      </trkpt>
      <trkpt lat="44.66425" lon="3.09858">
        <ele>1158</ele>
        <time>2018-05-01T13:31:56Z</time>
      </trkpt>
      <trkpt lat="44.66421" lon="3.09854">
        <ele>1157</ele>
        <time>2018-05-01T13:32:00Z</time>
      </trkpt>
      <trkpt lat="44.66394" lon="3.0982">
        <ele>1157</ele>
        <time>2018-05-01T13:32:31Z</time>
      </trkpt>
      <trkpt lat="44.66381" lon="3.098">
        <ele>1158</ele>
        <time>2018-05-01T13:32:48Z</time>
      </trkpt>
      <trkpt lat="44.66377" lon="3.09796">
        <ele>1158</ele>
        <time>2018-05-01T13:32:52Z</time>
      </trkpt>
      <trkpt lat="44.66367" lon="3.09793">
        <ele>1157</ele>
        <time>2018-05-01T13:33:00Z</time>
      </trkpt>
      <trkpt lat="44.66363" lon="3.09788">
        <ele>1157</ele>
        <time>2018-05-01T13:33:04Z</time>
      </trkpt>
      <trkpt lat="44.66356" lon="3.09777">
        <ele>1158</ele>
        <time>2018-05-01T13:33:12Z</time>
      </trkpt>
      <trkpt lat="44.66316" lon="3.09692">
        <ele>1161</ele>
        <time>2018-05-01T13:34:17Z</time>
      </trkpt>
      <trkpt lat="44.66288" lon="3.09649">
        <ele>1158</ele>
        <time>2018-05-01T13:34:52Z</time>
      </trkpt>
      <trkpt lat="44.66286" lon="3.09644">
        <ele>1158</ele>
        <time>2018-05-01T13:34:56Z</time>
      </trkpt>
      <trkpt lat="44.66284" lon="3.09636">
        <ele>1158</ele>
        <time>2018-05-01T13:35:01Z</time>
      </trkpt>
      <trkpt lat="44.66282" lon="3.09631">
        <ele>1158</ele>
        <time>2018-05-01T13:35:05Z</time>
      </trkpt>
      <trkpt lat="44.66237" lon="3.09572">
        <ele>1158</ele>
        <time>2018-05-01T13:35:58Z</time>
      </trkpt>
      <trkpt lat="44.66229" lon="3.09569">
        <ele>1157</ele>
        <time>2018-05-01T13:36:10Z</time>
      </trkpt>
      <trkpt lat="44.66227" lon="3.09563">
        <ele>1158</ele>
        <time>2018-05-01T13:36:35Z</time>
      </trkpt>
      <trkpt lat="44.66223" lon="3.09557">
        <ele>1158</ele>
        <time>2018-05-01T13:36:40Z</time>
      </trkpt>
      <trkpt lat="44.66211" lon="3.09543">
        <ele>1158</ele>
        <time>2018-05-01T13:36:59Z</time>
      </trkpt>
      <trkpt lat="44.66199" lon="3.09536">
        <ele>1158</ele>
        <time>2018-05-01T13:37:13Z</time>
      </trkpt>
      <trkpt lat="44.66174" lon="3.09502">
        <ele>1157</ele>
        <time>2018-05-01T13:37:43Z</time>
      </trkpt>
      <trkpt lat="44.66164" lon="3.09496">
        <ele>1157</ele>
        <time>2018-05-01T13:37:51Z</time>
      </trkpt>
      <trkpt lat="44.66103" lon="3.09429">
        <ele>1159</ele>
        <time>2018-05-01T13:39:24Z</time>
      </trkpt>
      <trkpt lat="44.6604" lon="3.09371">
        <ele>1155</ele>
        <time>2018-05-01T13:40:32Z</time>
      </trkpt>
      <trkpt lat="44.66035" lon="3.09368">
        <ele>1155</ele>
        <time>2018-05-01T13:40:37Z</time>
      </trkpt>
      <trkpt lat="44.66027" lon="3.09358">
        <ele>1154</ele>
        <time>2018-05-01T13:40:47Z</time>
      </trkpt>
      <trkpt lat="44.65979" lon="3.09331">
        <ele>1153</ele>
        <time>2018-05-01T13:41:30Z</time>
      </trkpt>
      <trkpt lat="44.65962" lon="3.09317">
        <ele>1153</ele>
        <time>2018-05-01T13:41:48Z</time>
      </trkpt>
      <trkpt lat="44.65959" lon="3.0931">
        <ele>1154</ele>
        <time>2018-05-01T13:42:15Z</time>
      </trkpt>
      <trkpt lat="44.65955" lon="3.09308">
        <ele>1154</ele>
        <time>2018-05-01T13:42:19Z</time>
      </trkpt>
      <trkpt lat="44.65921" lon="3.09282">
        <ele>1153</ele>
        <time>2018-05-01T13:42:53Z</time>
      </trkpt>
      <trkpt lat="44.65917" lon="3.09278">
        <ele>1153</ele>
        <time>2018-05-01T13:42:57Z</time>
      </trkpt>
      <trkpt lat="44.6585" lon="3.09231">
        <ele>1153</ele>
        <time>2018-05-01T13:44:05Z</time>
      </trkpt>
      <trkpt lat="44.65845" lon="3.0923">
        <ele>1153</ele>
        <time>2018-05-01T13:44:10Z</time>
      </trkpt>
      <trkpt lat="44.65836" lon="3.09225">
        <ele>1153</ele>
        <time>2018-05-01T13:44:18Z</time>
      </trkpt>
      <trkpt lat="44.65815" lon="3.09208">
        <ele>1154</ele>
        <time>2018-05-01T13:44:38Z</time>
      </trkpt>
      <trkpt lat="44.65792" lon="3.09194">
        <ele>1153</ele>
        <time>2018-05-01T13:44:58Z</time>
      </trkpt>
      <trkpt lat="44.65788" lon="3.09191">
        <ele>1154</ele>
        <time>2018-05-01T13:45:02Z</time>
      </trkpt>
      <trkpt lat="44.65742" lon="3.09166">
        <ele>1154</ele>
        <time>2018-05-01T13:45:44Z</time>
      </trkpt>
      <trkpt lat="44.65737" lon="3.0916">
        <ele>1153</ele>
        <time>2018-05-01T13:46:00Z</time>
      </trkpt>
      <trkpt lat="44.65718" lon="3.0915">
        <ele>1154</ele>
        <time>2018-05-01T13:46:19Z</time>
      </trkpt>
      <trkpt lat="44.65713" lon="3.09151">
        <ele>1154</ele>
        <time>2018-05-01T13:46:23Z</time>
      </trkpt>
      <trkpt lat="44.65698" lon="3.09145">
        <ele>1154</ele>
        <time>2018-05-01T13:46:38Z</time>
      </trkpt>
      <trkpt lat="44.65693" lon="3.09132">
        <ele>1154</ele>
        <time>2018-05-01T13:47:10Z</time>
      </trkpt>
      <trkpt lat="44.65648" lon="3.09096">
        <ele>1154</ele>
        <time>2018-05-01T13:48:01Z</time>
      </trkpt>
      <trkpt lat="44.65619" lon="3.09078">
        <ele>1156</ele>
        <time>2018-05-01T13:48:37Z</time>
      </trkpt>
      <trkpt lat="44.6555" lon="3.09068">
        <ele>1156</ele>
        <time>2018-05-01T13:50:11Z</time>
      </trkpt>
      <trkpt lat="44.65523" lon="3.09049">
        <ele>1154</ele>
        <time>2018-05-01T13:50:36Z</time>
      </trkpt>
      <trkpt lat="44.65507" lon="3.09029">
        <ele>1154</ele>
        <time>2018-05-01T13:51:46Z</time>
      </trkpt>
      <trkpt lat="44.65505" lon="3.09023">
        <ele>1154</ele>
        <time>2018-05-01T13:51:50Z</time>
      </trkpt>
      <trkpt lat="44.65504" lon="3.09017">
        <ele>1154</ele>
        <time>2018-05-01T13:51:54Z</time>
      </trkpt>
      <trkpt lat="44.65508" lon="3.09008">
        <ele>1154</ele>
        <time>2018-05-01T13:52:03Z</time>
      </trkpt>
      <trkpt lat="44.65513" lon="3.08979">
        <ele>1155</ele>
        <time>2018-05-01T13:52:32Z</time>
      </trkpt>
      <trkpt lat="44.65514" lon="3.0895">
        <ele>1154</ele>
        <time>2018-05-01T13:52:54Z</time>
      </trkpt>
      <trkpt lat="44.6551" lon="3.08918">
        <ele>1152</ele>
        <time>2018-05-01T13:53:38Z</time>
      </trkpt>
      <trkpt lat="44.65506" lon="3.08906">
        <ele>1152</ele>
        <time>2018-05-01T13:53:47Z</time>
      </trkpt>
      <trkpt lat="44.65498" lon="3.08889">
        <ele>1152</ele>
        <time>2018-05-01T13:54:00Z</time>
      </trkpt>
      <trkpt lat="44.65499" lon="3.08876">
        <ele>1152</ele>
        <time>2018-05-01T13:54:10Z</time>
      </trkpt>
      <trkpt lat="44.65484" lon="3.08843">
        <ele>1153</ele>
        <time>2018-05-01T13:54:39Z</time>
      </trkpt>
      <trkpt lat="44.65496" lon="3.0882">
        <ele>1155</ele>
        <time>2018-05-01T13:55:02Z</time>
      </trkpt>
      <trkpt lat="44.65498" lon="3.08813">
        <ele>1156</ele>
        <time>2018-05-01T13:55:07Z</time>
      </trkpt>
      <trkpt lat="44.65503" lon="3.08806">
        <ele>1157</ele>
        <time>2018-05-01T13:55:17Z</time>
      </trkpt>
      <trkpt lat="44.65506" lon="3.08799">
        <ele>1158</ele>
        <time>2018-05-01T13:55:29Z</time>
      </trkpt>
      <trkpt lat="44.65521" lon="3.08791">
        <ele>1160</ele>
        <time>2018-05-01T13:55:53Z</time>
      </trkpt>
      <trkpt lat="44.65524" lon="3.08785">
        <ele>1161</ele>
        <time>2018-05-01T13:55:59Z</time>
      </trkpt>
      <trkpt lat="44.65523" lon="3.08759">
        <ele>1163</ele>
        <time>2018-05-01T13:56:18Z</time>
      </trkpt>
      <trkpt lat="44.65527" lon="3.08747">
        <ele>1163</ele>
        <time>2018-05-01T13:56:44Z</time>
      </trkpt>
      <trkpt lat="44.65531" lon="3.08742">
        <ele>1163</ele>
        <time>2018-05-01T13:56:49Z</time>
      </trkpt>
      <trkpt lat="44.65553" lon="3.08689">
        <ele>1166</ele>
        <time>2018-05-01T13:57:32Z</time>
      </trkpt>
      <trkpt lat="44.65558" lon="3.08669">
        <ele>1167</ele>
        <time>2018-05-01T13:57:46Z</time>
      </trkpt>
      <trkpt lat="44.65561" lon="3.08663">
        <ele>1167</ele>
        <time>2018-05-01T13:57:51Z</time>
      </trkpt>
      <trkpt lat="44.65599" lon="3.08533">
        <ele>1168</ele>
        <time>2018-05-01T13:59:20Z</time>
      </trkpt>
      <trkpt lat="44.65654" lon="3.08122">
        <ele>1176</ele>
        <time>2018-05-01T14:04:20Z</time>
      </trkpt>
      <trkpt lat="44.65661" lon="3.08109">
        <ele>1177</ele>
        <time>2018-05-01T14:04:32Z</time>
      </trkpt>
      <trkpt lat="44.65674" lon="3.08038">
        <ele>1175</ele>
        <time>2018-05-01T14:05:19Z</time>
      </trkpt>
      <trkpt lat="44.65678" lon="3.08028">
        <ele>1175</ele>
        <time>2018-05-01T14:05:27Z</time>
      </trkpt>
      <trkpt lat="44.65679" lon="3.0802">
        <ele>1175</ele>
        <time>2018-05-01T14:05:32Z</time>
      </trkpt>
      <trkpt lat="44.65652" lon="3.07832">
        <ele>1183</ele>
        <time>2018-05-01T14:06:15Z</time>
      </trkpt>
      <trkpt lat="44.65657" lon="3.07724">
        <ele>1186</ele>
        <time>2018-05-01T14:06:19Z</time>
      </trkpt>
      <trkpt lat="44.657" lon="3.07572">
        <ele>1194</ele>
        <time>2018-05-01T14:07:49Z</time>
      </trkpt>
      <trkpt lat="44.65742" lon="3.075">
        <ele>1199</ele>
        <time>2018-05-01T14:09:19Z</time>
      </trkpt>
      <trkpt lat="44.6576" lon="3.07435">
        <ele>1205</ele>
        <time>2018-05-01T14:10:49Z</time>
      </trkpt>
      <trkpt lat="44.65765" lon="3.07367">
        <ele>1210</ele>
        <time>2018-05-01T14:12:19Z</time>
      </trkpt>
      <trkpt lat="44.65775" lon="3.07335">
        <ele>1211</ele>
        <time>2018-05-01T14:13:49Z</time>
      </trkpt>
      <trkpt lat="44.65787" lon="3.07318">
        <ele>1213</ele>
        <time>2018-05-01T14:15:19Z</time>
      </trkpt>
      <trkpt lat="44.65783" lon="3.07243">
        <ele>1213</ele>
        <time>2018-05-01T14:17:32Z</time>
      </trkpt>
      <trkpt lat="44.65773" lon="3.07227">
        <ele>1213</ele>
        <time>2018-05-01T14:17:44Z</time>
      </trkpt>
      <trkpt lat="44.65775" lon="3.07226">
        <ele>1210</ele>
        <time>2018-05-01T14:17:57Z</time>
      </trkpt>
      <trkpt lat="44.65736" lon="3.07097">
        <ele>1211</ele>
        <time>2018-05-01T14:20:17Z</time>
      </trkpt>
      <trkpt lat="44.65737" lon="3.07023">
        <ele>1214</ele>
        <time>2018-05-01T14:22:00Z</time>
      </trkpt>
      <trkpt lat="44.65756" lon="3.06951">
        <ele>1207</ele>
        <time>2018-05-01T14:23:45Z</time>
      </trkpt>
      <trkpt lat="44.65771" lon="3.06847">
        <ele>1205</ele>
        <time>2018-05-01T14:25:30Z</time>
      </trkpt>
      <trkpt lat="44.65794" lon="3.06783">
        <ele>1202</ele>
        <time>2018-05-01T14:27:17Z</time>
      </trkpt>
      <trkpt lat="44.65841" lon="3.06725">
        <ele>1193</ele>
        <time>2018-05-01T14:29:00Z</time>
      </trkpt>
      <trkpt lat="44.65897" lon="3.06691">
        <ele>1190</ele>
        <time>2018-05-01T14:30:45Z</time>
      </trkpt>
      <trkpt lat="44.65891" lon="3.06308">
        <ele>1200</ele>
        <time>2018-05-01T14:37:45Z</time>
      </trkpt>
      <trkpt lat="44.65888" lon="3.06303">
        <ele>1207</ele>
        <time>2018-05-01T14:39:41Z</time>
      </trkpt>
      <trkpt lat="44.65811" lon="3.06065">
        <ele>1207</ele>
        <time>2018-05-01T14:39:42Z</time>
      </trkpt>
      <trkpt lat="44.65808" lon="3.06058">
        <ele>1207</ele>
        <time>2018-05-01T14:39:52Z</time>
      </trkpt>
      <trkpt lat="44.65802" lon="3.06055">
        <ele>1208</ele>
        <time>2018-05-01T14:40:22Z</time>
      </trkpt>
      <trkpt lat="44.65798" lon="3.0605">
        <ele>1208</ele>
        <time>2018-05-01T14:40:25Z</time>
      </trkpt>
      <trkpt lat="44.65788" lon="3.06023">
        <ele>1209</ele>
        <time>2018-05-01T14:40:46Z</time>
      </trkpt>
      <trkpt lat="44.65783" lon="3.06015">
        <ele>1210</ele>
        <time>2018-05-01T14:40:53Z</time>
      </trkpt>
      <trkpt lat="44.6578" lon="3.06008">
        <ele>1210</ele>
        <time>2018-05-01T14:40:58Z</time>
      </trkpt>
      <trkpt lat="44.65774" lon="3.05969">
        <ele>1213</ele>
        <time>2018-05-01T14:41:27Z</time>
      </trkpt>
      <trkpt lat="44.65761" lon="3.05925">
        <ele>1216</ele>
        <time>2018-05-01T14:41:58Z</time>
      </trkpt>
      <trkpt lat="44.65756" lon="3.05913">
        <ele>1217</ele>
        <time>2018-05-01T14:42:06Z</time>
      </trkpt>
      <trkpt lat="44.65744" lon="3.05892">
        <ele>1217</ele>
        <time>2018-05-01T14:42:22Z</time>
      </trkpt>
      <trkpt lat="44.65742" lon="3.05864">
        <ele>1217</ele>
        <time>2018-05-01T14:42:36Z</time>
      </trkpt>
      <trkpt lat="44.65743" lon="3.05849">
        <ele>1217</ele>
        <time>2018-05-01T14:42:45Z</time>
      </trkpt>
      <trkpt lat="44.6574" lon="3.05836">
        <ele>1218</ele>
        <time>2018-05-01T14:42:53Z</time>
      </trkpt>
      <trkpt lat="44.65739" lon="3.05823">
        <ele>1218</ele>
        <time>2018-05-01T14:43:00Z</time>
      </trkpt>
      <trkpt lat="44.6574" lon="3.05801">
        <ele>1219</ele>
        <time>2018-05-01T14:43:15Z</time>
      </trkpt>
      <trkpt lat="44.65756" lon="3.05778">
        <ele>1219</ele>
        <time>2018-05-01T14:44:15Z</time>
      </trkpt>
      <trkpt lat="44.65784" lon="3.05747">
        <ele>1216</ele>
        <time>2018-05-01T14:44:44Z</time>
      </trkpt>
      <trkpt lat="44.65789" lon="3.05735">
        <ele>1215</ele>
        <time>2018-05-01T14:44:52Z</time>
      </trkpt>
      <trkpt lat="44.65799" lon="3.05721">
        <ele>1213</ele>
        <time>2018-05-01T14:45:04Z</time>
      </trkpt>
      <trkpt lat="44.65804" lon="3.05717">
        <ele>1212</ele>
        <time>2018-05-01T14:45:09Z</time>
      </trkpt>
      <trkpt lat="44.65825" lon="3.05679">
        <ele>1208</ele>
        <time>2018-05-01T14:45:37Z</time>
      </trkpt>
      <trkpt lat="44.65838" lon="3.05668">
        <ele>1206</ele>
        <time>2018-05-01T14:45:49Z</time>
      </trkpt>
      <trkpt lat="44.65845" lon="3.05658">
        <ele>1205</ele>
        <time>2018-05-01T14:45:56Z</time>
      </trkpt>
      <trkpt lat="44.65853" lon="3.05651">
        <ele>1204</ele>
        <time>2018-05-01T14:46:04Z</time>
      </trkpt>
      <trkpt lat="44.65855" lon="3.05637">
        <ele>1203</ele>
        <time>2018-05-01T14:46:12Z</time>
      </trkpt>
      <trkpt lat="44.65851" lon="3.05616">
        <ele>1202</ele>
        <time>2018-05-01T14:46:23Z</time>
      </trkpt>
      <trkpt lat="44.65861" lon="3.05558">
        <ele>1202</ele>
        <time>2018-05-01T14:46:55Z</time>
      </trkpt>
      <trkpt lat="44.65863" lon="3.05551">
        <ele>1202</ele>
        <time>2018-05-01T14:46:59Z</time>
      </trkpt>
      <trkpt lat="44.65866" lon="3.05531">
        <ele>1202</ele>
        <time>2018-05-01T14:47:11Z</time>
      </trkpt>
      <trkpt lat="44.65868" lon="3.05525">
        <ele>1201</ele>
        <time>2018-05-01T14:47:15Z</time>
      </trkpt>
      <trkpt lat="44.65883" lon="3.05497">
        <ele>1199</ele>
        <time>2018-05-01T14:47:36Z</time>
      </trkpt>
      <trkpt lat="44.65887" lon="3.05485">
        <ele>1198</ele>
        <time>2018-05-01T14:47:43Z</time>
      </trkpt>
      <trkpt lat="44.6589" lon="3.0548">
        <ele>1198</ele>
        <time>2018-05-01T14:47:47Z</time>
      </trkpt>
      <trkpt lat="44.65904" lon="3.05413">
        <ele>1193</ele>
        <time>2018-05-01T14:48:29Z</time>
      </trkpt>
      <trkpt lat="44.6591" lon="3.05403">
        <ele>1192</ele>
        <time>2018-05-01T14:48:37Z</time>
      </trkpt>
      <trkpt lat="44.65922" lon="3.0539">
        <ele>1191</ele>
        <time>2018-05-01T14:48:50Z</time>
      </trkpt>
      <trkpt lat="44.65935" lon="3.05359">
        <ele>1189</ele>
        <time>2018-05-01T14:49:13Z</time>
      </trkpt>
      <trkpt lat="44.65939" lon="3.05355">
        <ele>1188</ele>
        <time>2018-05-01T14:49:17Z</time>
      </trkpt>
      <trkpt lat="44.65941" lon="3.05349">
        <ele>1188</ele>
        <time>2018-05-01T14:49:21Z</time>
      </trkpt>
      <trkpt lat="44.65946" lon="3.05321">
        <ele>1187</ele>
        <time>2018-05-01T14:49:37Z</time>
      </trkpt>
      <trkpt lat="44.65939" lon="3.05266">
        <ele>1187</ele>
        <time>2018-05-01T14:50:25Z</time>
      </trkpt>
      <trkpt lat="44.65937" lon="3.05258">
        <ele>1186</ele>
        <time>2018-05-01T14:50:30Z</time>
      </trkpt>
      <trkpt lat="44.65928" lon="3.0524">
        <ele>1185</ele>
        <time>2018-05-01T14:50:45Z</time>
      </trkpt>
      <trkpt lat="44.65927" lon="3.05233">
        <ele>1184</ele>
        <time>2018-05-01T14:50:50Z</time>
      </trkpt>
      <trkpt lat="44.65923" lon="3.05219">
        <ele>1184</ele>
        <time>2018-05-01T14:50:58Z</time>
      </trkpt>
      <trkpt lat="44.65922" lon="3.05212">
        <ele>1184</ele>
        <time>2018-05-01T14:51:02Z</time>
      </trkpt>
      <trkpt lat="44.65923" lon="3.05206">
        <ele>1184</ele>
        <time>2018-05-01T14:51:06Z</time>
      </trkpt>
      <trkpt lat="44.65926" lon="3.05201">
        <ele>1184</ele>
        <time>2018-05-01T14:51:10Z</time>
      </trkpt>
      <trkpt lat="44.65972" lon="3.05159">
        <ele>1183</ele>
        <time>2018-05-01T14:51:53Z</time>
      </trkpt>
      <trkpt lat="44.65988" lon="3.05141">
        <ele>1183</ele>
        <time>2018-05-01T14:52:10Z</time>
      </trkpt>
      <trkpt lat="44.65992" lon="3.05138">
        <ele>1183</ele>
        <time>2018-05-01T14:52:14Z</time>
      </trkpt>
      <trkpt lat="44.66022" lon="3.05102">
        <ele>1182</ele>
        <time>2018-05-01T14:52:55Z</time>
      </trkpt>
      <trkpt lat="44.66025" lon="3.05097">
        <ele>1184</ele>
        <time>2018-05-01T14:53:30Z</time>
      </trkpt>
      <trkpt lat="44.66036" lon="3.05066">
        <ele>1183</ele>
        <time>2018-05-01T14:53:53Z</time>
      </trkpt>
      <trkpt lat="44.66037" lon="3.05059">
        <ele>1183</ele>
        <time>2018-05-01T14:53:57Z</time>
      </trkpt>
      <trkpt lat="44.66042" lon="3.05039">
        <ele>1183</ele>
        <time>2018-05-01T14:54:11Z</time>
      </trkpt>
      <trkpt lat="44.66044" lon="3.05026">
        <ele>1183</ele>
        <time>2018-05-01T14:54:20Z</time>
      </trkpt>
      <trkpt lat="44.66047" lon="3.0502">
        <ele>1184</ele>
        <time>2018-05-01T14:54:25Z</time>
      </trkpt>
      <trkpt lat="44.6605" lon="3.05016">
        <ele>1184</ele>
        <time>2018-05-01T14:54:29Z</time>
      </trkpt>
      <trkpt lat="44.66055" lon="3.05014">
        <ele>1184</ele>
        <time>2018-05-01T14:54:33Z</time>
      </trkpt>
      <trkpt lat="44.66064" lon="3.05008">
        <ele>1184</ele>
        <time>2018-05-01T14:54:42Z</time>
      </trkpt>
      <trkpt lat="44.6607" lon="3.05007">
        <ele>1184</ele>
        <time>2018-05-01T14:54:46Z</time>
      </trkpt>
      <trkpt lat="44.66075" lon="3.05004">
        <ele>1184</ele>
        <time>2018-05-01T14:55:17Z</time>
      </trkpt>
      <trkpt lat="44.6608" lon="3.05002">
        <ele>1184</ele>
        <time>2018-05-01T14:55:21Z</time>
      </trkpt>
      <trkpt lat="44.66088" lon="3.04988">
        <ele>1183</ele>
        <time>2018-05-01T14:55:35Z</time>
      </trkpt>
      <trkpt lat="44.66092" lon="3.04983">
        <ele>1183</ele>
        <time>2018-05-01T14:55:40Z</time>
      </trkpt>
      <trkpt lat="44.66111" lon="3.0497">
        <ele>1181</ele>
        <time>2018-05-01T14:55:57Z</time>
      </trkpt>
      <trkpt lat="44.66118" lon="3.04962">
        <ele>1181</ele>
        <time>2018-05-01T14:56:05Z</time>
      </trkpt>
      <trkpt lat="44.66137" lon="3.04932">
        <ele>1179</ele>
        <time>2018-05-01T14:56:30Z</time>
      </trkpt>
      <trkpt lat="44.66141" lon="3.04928">
        <ele>1179</ele>
        <time>2018-05-01T14:56:34Z</time>
      </trkpt>
      <trkpt lat="44.66144" lon="3.04923">
        <ele>1178</ele>
        <time>2018-05-01T14:56:38Z</time>
      </trkpt>
      <trkpt lat="44.66148" lon="3.0492">
        <ele>1177</ele>
        <time>2018-05-01T14:56:42Z</time>
      </trkpt>
      <trkpt lat="44.66162" lon="3.04884">
        <ele>1173</ele>
        <time>2018-05-01T14:57:13Z</time>
      </trkpt>
      <trkpt lat="44.66169" lon="3.04875">
        <ele>1172</ele>
        <time>2018-05-01T14:57:23Z</time>
      </trkpt>
      <trkpt lat="44.66172" lon="3.04847">
        <ele>1172</ele>
        <time>2018-05-01T14:57:42Z</time>
      </trkpt>
      <trkpt lat="44.6618" lon="3.04818">
        <ele>1170</ele>
        <time>2018-05-01T14:59:10Z</time>
      </trkpt>
      <trkpt lat="44.66185" lon="3.04777">
        <ele>1168</ele>
        <time>2018-05-01T14:59:35Z</time>
      </trkpt>
      <trkpt lat="44.66188" lon="3.04772">
        <ele>1168</ele>
        <time>2018-05-01T14:59:39Z</time>
      </trkpt>
      <trkpt lat="44.66189" lon="3.04765">
        <ele>1168</ele>
        <time>2018-05-01T14:59:44Z</time>
      </trkpt>
      <trkpt lat="44.66192" lon="3.04753">
        <ele>1167</ele>
        <time>2018-05-01T14:59:52Z</time>
      </trkpt>
      <trkpt lat="44.66191" lon="3.04746">
        <ele>1167</ele>
        <time>2018-05-01T14:59:56Z</time>
      </trkpt>
      <trkpt lat="44.66192" lon="3.04712">
        <ele>1167</ele>
        <time>2018-05-01T15:00:34Z</time>
      </trkpt>
      <trkpt lat="44.66195" lon="3.04699">
        <ele>1167</ele>
        <time>2018-05-01T15:00:43Z</time>
      </trkpt>
      <trkpt lat="44.66198" lon="3.04693">
        <ele>1168</ele>
        <time>2018-05-01T15:00:47Z</time>
      </trkpt>
      <trkpt lat="44.66202" lon="3.04689">
        <ele>1168</ele>
        <time>2018-05-01T15:00:52Z</time>
      </trkpt>
      <trkpt lat="44.66209" lon="3.04679">
        <ele>1169</ele>
        <time>2018-05-01T15:01:01Z</time>
      </trkpt>
      <trkpt lat="44.66211" lon="3.04673">
        <ele>1169</ele>
        <time>2018-05-01T15:01:05Z</time>
      </trkpt>
      <trkpt lat="44.66208" lon="3.04667">
        <ele>1169</ele>
        <time>2018-05-01T15:01:13Z</time>
      </trkpt>
      <trkpt lat="44.66217" lon="3.04665">
        <ele>1170</ele>
        <time>2018-05-01T15:02:07Z</time>
      </trkpt>
      <trkpt lat="44.66226" lon="3.04667">
        <ele>1170</ele>
        <time>2018-05-01T15:03:03Z</time>
      </trkpt>
      <trkpt lat="44.66235" lon="3.04673">
        <ele>1170</ele>
        <time>2018-05-01T15:03:15Z</time>
      </trkpt>
      <trkpt lat="44.6625" lon="3.04668">
        <ele>1172</ele>
        <time>2018-05-01T15:03:49Z</time>
      </trkpt>
      <trkpt lat="44.66247" lon="3.04663">
        <ele>1172</ele>
        <time>2018-05-01T15:04:06Z</time>
      </trkpt>
      <trkpt lat="44.66237" lon="3.04659">
        <ele>1171</ele>
        <time>2018-05-01T15:04:17Z</time>
      </trkpt>
      <trkpt lat="44.66234" lon="3.04653">
        <ele>1171</ele>
        <time>2018-05-01T15:04:25Z</time>
      </trkpt>
      <trkpt lat="44.66233" lon="3.04644">
        <ele>1172</ele>
        <time>2018-05-01T15:04:43Z</time>
      </trkpt>
      <trkpt lat="44.6623" lon="3.04646">
        <ele>1172</ele>
        <time>2018-05-01T15:12:14Z</time>
      </trkpt>
      <trkpt lat="44.66233" lon="3.04652">
        <ele>1172</ele>
        <time>2018-05-01T15:12:18Z</time>
      </trkpt>
      <trkpt lat="44.66241" lon="3.04658">
        <ele>1172</ele>
        <time>2018-05-01T15:12:26Z</time>
      </trkpt>
      <trkpt lat="44.66246" lon="3.0466">
        <ele>1172</ele>
        <time>2018-05-01T15:12:31Z</time>
      </trkpt>
      <trkpt lat="44.66252" lon="3.04655">
        <ele>1173</ele>
        <time>2018-05-01T15:12:37Z</time>
      </trkpt>
      <trkpt lat="44.6626" lon="3.04636">
        <ele>1176</ele>
        <time>2018-05-01T15:13:02Z</time>
      </trkpt>
      <trkpt lat="44.66253" lon="3.04626">
        <ele>1176</ele>
        <time>2018-05-01T15:13:14Z</time>
      </trkpt>
      <trkpt lat="44.66257" lon="3.04619">
        <ele>1176</ele>
        <time>2018-05-01T15:13:39Z</time>
      </trkpt>
      <trkpt lat="44.66256" lon="3.04612">
        <ele>1174</ele>
        <time>2018-05-01T15:36:09Z</time>
      </trkpt>
      <trkpt lat="44.66261" lon="3.04608">
        <ele>1174</ele>
        <time>2018-05-01T15:36:27Z</time>
      </trkpt>
      <trkpt lat="44.66263" lon="3.04601">
        <ele>1175</ele>
        <time>2018-05-01T15:36:32Z</time>
      </trkpt>
      <trkpt lat="44.66262" lon="3.04559">
        <ele>1176</ele>
        <time>2018-05-01T15:37:07Z</time>
      </trkpt>
      <trkpt lat="44.66273" lon="3.04545">
        <ele>1176</ele>
        <time>2018-05-01T15:37:17Z</time>
      </trkpt>
      <trkpt lat="44.66272" lon="3.04538">
        <ele>1176</ele>
        <time>2018-05-01T15:37:22Z</time>
      </trkpt>
      <trkpt lat="44.66276" lon="3.04522">
        <ele>1175</ele>
        <time>2018-05-01T15:37:32Z</time>
      </trkpt>
      <trkpt lat="44.6627" lon="3.04511">
        <ele>1175</ele>
        <time>2018-05-01T15:37:40Z</time>
      </trkpt>
      <trkpt lat="44.66269" lon="3.0449">
        <ele>1175</ele>
        <time>2018-05-01T15:37:55Z</time>
      </trkpt>
      <trkpt lat="44.6627" lon="3.04482">
        <ele>1174</ele>
        <time>2018-05-01T15:38:00Z</time>
      </trkpt>
      <trkpt lat="44.66275" lon="3.04475">
        <ele>1174</ele>
        <time>2018-05-01T15:38:07Z</time>
      </trkpt>
      <trkpt lat="44.66284" lon="3.04469">
        <ele>1174</ele>
        <time>2018-05-01T15:38:17Z</time>
      </trkpt>
      <trkpt lat="44.66311" lon="3.04446">
        <ele>1175</ele>
        <time>2018-05-01T15:38:45Z</time>
      </trkpt>
      <trkpt lat="44.66331" lon="3.04437">
        <ele>1175</ele>
        <time>2018-05-01T15:39:08Z</time>
      </trkpt>
      <trkpt lat="44.6634" lon="3.0443">
        <ele>1175</ele>
        <time>2018-05-01T15:39:17Z</time>
      </trkpt>
      <trkpt lat="44.66364" lon="3.04416">
        <ele>1174</ele>
        <time>2018-05-01T15:39:40Z</time>
      </trkpt>
      <trkpt lat="44.66368" lon="3.04412">
        <ele>1175</ele>
        <time>2018-05-01T15:39:44Z</time>
      </trkpt>
      <trkpt lat="44.66411" lon="3.04381">
        <ele>1175</ele>
        <time>2018-05-01T15:40:25Z</time>
      </trkpt>
      <trkpt lat="44.66419" lon="3.04373">
        <ele>1175</ele>
        <time>2018-05-01T15:40:35Z</time>
      </trkpt>
      <trkpt lat="44.66437" lon="3.04359">
        <ele>1174</ele>
        <time>2018-05-01T15:40:54Z</time>
      </trkpt>
      <trkpt lat="44.66463" lon="3.04333">
        <ele>1174</ele>
        <time>2018-05-01T15:41:21Z</time>
      </trkpt>
      <trkpt lat="44.66468" lon="3.04332">
        <ele>1175</ele>
        <time>2018-05-01T15:41:25Z</time>
      </trkpt>
      <trkpt lat="44.66472" lon="3.04329">
        <ele>1174</ele>
        <time>2018-05-01T15:41:29Z</time>
      </trkpt>
      <trkpt lat="44.66476" lon="3.04324">
        <ele>1174</ele>
        <time>2018-05-01T15:41:33Z</time>
      </trkpt>
      <trkpt lat="44.66511" lon="3.04296">
        <ele>1175</ele>
        <time>2018-05-01T15:42:08Z</time>
      </trkpt>
      <trkpt lat="44.66527" lon="3.04264">
        <ele>1176</ele>
        <time>2018-05-01T15:42:34Z</time>
      </trkpt>
      <trkpt lat="44.66534" lon="3.04255">
        <ele>1176</ele>
        <time>2018-05-01T15:42:42Z</time>
      </trkpt>
      <trkpt lat="44.6654" lon="3.04244">
        <ele>1176</ele>
        <time>2018-05-01T15:42:50Z</time>
      </trkpt>
      <trkpt lat="44.66541" lon="3.04238">
        <ele>1176</ele>
        <time>2018-05-01T15:42:54Z</time>
      </trkpt>
      <trkpt lat="44.66545" lon="3.04233">
        <ele>1177</ele>
        <time>2018-05-01T15:42:58Z</time>
      </trkpt>
      <trkpt lat="44.6655" lon="3.04229">
        <ele>1177</ele>
        <time>2018-05-01T15:43:02Z</time>
      </trkpt>
      <trkpt lat="44.66558" lon="3.04218">
        <ele>1177</ele>
        <time>2018-05-01T15:43:10Z</time>
      </trkpt>
      <trkpt lat="44.66565" lon="3.04204">
        <ele>1177</ele>
        <time>2018-05-01T15:43:26Z</time>
      </trkpt>
      <trkpt lat="44.66563" lon="3.04191">
        <ele>1177</ele>
        <time>2018-05-01T15:43:35Z</time>
      </trkpt>
      <trkpt lat="44.66587" lon="3.04146">
        <ele>1178</ele>
        <time>2018-05-01T15:44:09Z</time>
      </trkpt>
      <trkpt lat="44.66599" lon="3.04132">
        <ele>1179</ele>
        <time>2018-05-01T15:44:23Z</time>
      </trkpt>
      <trkpt lat="44.66602" lon="3.04127">
        <ele>1179</ele>
        <time>2018-05-01T15:44:27Z</time>
      </trkpt>
      <trkpt lat="44.66614" lon="3.04115">
        <ele>1179</ele>
        <time>2018-05-01T15:44:40Z</time>
      </trkpt>
      <trkpt lat="44.66698" lon="3.04097">
        <ele>1178</ele>
        <time>2018-05-01T15:45:57Z</time>
      </trkpt>
      <trkpt lat="44.66701" lon="3.04091">
        <ele>1177</ele>
        <time>2018-05-01T15:46:06Z</time>
      </trkpt>
      <trkpt lat="44.66699" lon="3.04085">
        <ele>1177</ele>
        <time>2018-05-01T15:46:18Z</time>
      </trkpt>
      <trkpt lat="44.66695" lon="3.04081">
        <ele>1177</ele>
        <time>2018-05-01T15:46:22Z</time>
      </trkpt>
      <trkpt lat="44.66691" lon="3.04078">
        <ele>1178</ele>
        <time>2018-05-01T15:46:27Z</time>
      </trkpt>
      <trkpt lat="44.66683" lon="3.04075">
        <ele>1178</ele>
        <time>2018-05-01T15:46:37Z</time>
      </trkpt>
      <trkpt lat="44.66681" lon="3.0403">
        <ele>1178</ele>
        <time>2018-05-01T15:47:35Z</time>
      </trkpt>
      <trkpt lat="44.66691" lon="3.04041">
        <ele>1178</ele>
        <time>2018-05-01T15:47:39Z</time>
      </trkpt>
      <trkpt lat="44.66687" lon="3.04034">
        <ele>1178</ele>
        <time>2018-05-01T15:48:27Z</time>
      </trkpt>
      <trkpt lat="44.66676" lon="3.04051">
        <ele>1179</ele>
        <time>2018-05-01T15:55:14Z</time>
      </trkpt>
      <trkpt lat="44.66717" lon="3.04052">
        <ele>1166</ele>
        <time>2018-05-02T06:36:35Z</time>
      </trkpt>
      <trkpt lat="44.66648" lon="3.04085">
        <ele>1172</ele>
        <time>2018-05-02T06:37:09Z</time>
      </trkpt>
      <trkpt lat="44.66639" lon="3.04088">
        <ele>1174</ele>
        <time>2018-05-02T06:37:17Z</time>
      </trkpt>
      <trkpt lat="44.66629" lon="3.04089">
        <ele>1172</ele>
        <time>2018-05-02T06:37:25Z</time>
      </trkpt>
      <trkpt lat="44.66615" lon="3.04094">
        <ele>1168</ele>
        <time>2018-05-02T06:37:35Z</time>
      </trkpt>
      <trkpt lat="44.66597" lon="3.04111">
        <ele>1169</ele>
        <time>2018-05-02T06:37:55Z</time>
      </trkpt>
      <trkpt lat="44.66594" lon="3.04119">
        <ele>1171</ele>
        <time>2018-05-02T06:38:14Z</time>
      </trkpt>
      <trkpt lat="44.6659" lon="3.04123">
        <ele>1170</ele>
        <time>2018-05-02T06:38:18Z</time>
      </trkpt>
      <trkpt lat="44.66583" lon="3.04133">
        <ele>1170</ele>
        <time>2018-05-02T06:38:27Z</time>
      </trkpt>
      <trkpt lat="44.66572" lon="3.04155">
        <ele>1170</ele>
        <time>2018-05-02T06:38:43Z</time>
      </trkpt>
      <trkpt lat="44.66555" lon="3.04182">
        <ele>1170</ele>
        <time>2018-05-02T06:39:05Z</time>
      </trkpt>
      <trkpt lat="44.66536" lon="3.04232">
        <ele>1170</ele>
        <time>2018-05-02T06:39:39Z</time>
      </trkpt>
      <trkpt lat="44.66504" lon="3.04287">
        <ele>1169</ele>
        <time>2018-05-02T06:40:23Z</time>
      </trkpt>
      <trkpt lat="44.66439" lon="3.04342">
        <ele>1169</ele>
        <time>2018-05-02T06:41:29Z</time>
      </trkpt>
      <trkpt lat="44.66435" lon="3.04349">
        <ele>1169</ele>
        <time>2018-05-02T06:41:50Z</time>
      </trkpt>
      <trkpt lat="44.66357" lon="3.04402">
        <ele>1171</ele>
        <time>2018-05-02T06:43:02Z</time>
      </trkpt>
      <trkpt lat="44.6635" lon="3.0441">
        <ele>1171</ele>
        <time>2018-05-02T06:43:10Z</time>
      </trkpt>
      <trkpt lat="44.66345" lon="3.04413">
        <ele>1171</ele>
        <time>2018-05-02T06:43:15Z</time>
      </trkpt>
      <trkpt lat="44.66316" lon="3.04442">
        <ele>1172</ele>
        <time>2018-05-02T06:43:46Z</time>
      </trkpt>
      <trkpt lat="44.66303" lon="3.0445">
        <ele>1172</ele>
        <time>2018-05-02T06:43:58Z</time>
      </trkpt>
      <trkpt lat="44.66293" lon="3.04453">
        <ele>1172</ele>
        <time>2018-05-02T06:44:10Z</time>
      </trkpt>
      <trkpt lat="44.66279" lon="3.04459">
        <ele>1172</ele>
        <time>2018-05-02T06:44:24Z</time>
      </trkpt>
      <trkpt lat="44.66274" lon="3.0446">
        <ele>1172</ele>
        <time>2018-05-02T06:44:28Z</time>
      </trkpt>
      <trkpt lat="44.66269" lon="3.04464">
        <ele>1172</ele>
        <time>2018-05-02T06:44:32Z</time>
      </trkpt>
      <trkpt lat="44.66264" lon="3.04456">
        <ele>1171</ele>
        <time>2018-05-02T06:44:39Z</time>
      </trkpt>
      <trkpt lat="44.66263" lon="3.04442">
        <ele>1171</ele>
        <time>2018-05-02T06:44:48Z</time>
      </trkpt>
      <trkpt lat="44.66258" lon="3.0444">
        <ele>1171</ele>
        <time>2018-05-02T06:44:53Z</time>
      </trkpt>
      <trkpt lat="44.6625" lon="3.04421">
        <ele>1171</ele>
        <time>2018-05-02T06:45:11Z</time>
      </trkpt>
      <trkpt lat="44.66242" lon="3.04386">
        <ele>1171</ele>
        <time>2018-05-02T06:45:32Z</time>
      </trkpt>
      <trkpt lat="44.66241" lon="3.04379">
        <ele>1171</ele>
        <time>2018-05-02T06:45:36Z</time>
      </trkpt>
      <trkpt lat="44.66229" lon="3.04349">
        <ele>1171</ele>
        <time>2018-05-02T06:45:55Z</time>
      </trkpt>
      <trkpt lat="44.66234" lon="3.04339">
        <ele>1172</ele>
        <time>2018-05-02T06:46:28Z</time>
      </trkpt>
      <trkpt lat="44.66213" lon="3.04293">
        <ele>1174</ele>
        <time>2018-05-02T06:47:05Z</time>
      </trkpt>
      <trkpt lat="44.66203" lon="3.04279">
        <ele>1174</ele>
        <time>2018-05-02T06:47:17Z</time>
      </trkpt>
      <trkpt lat="44.66179" lon="3.04233">
        <ele>1175</ele>
        <time>2018-05-02T06:47:50Z</time>
      </trkpt>
      <trkpt lat="44.66026" lon="3.03997">
        <ele>1179</ele>
        <time>2018-05-02T06:51:00Z</time>
      </trkpt>
      <trkpt lat="44.66027" lon="3.0399">
        <ele>1180</ele>
        <time>2018-05-02T06:51:04Z</time>
      </trkpt>
      <trkpt lat="44.66035" lon="3.03982">
        <ele>1181</ele>
        <time>2018-05-02T06:51:11Z</time>
      </trkpt>
      <trkpt lat="44.66041" lon="3.0397">
        <ele>1182</ele>
        <time>2018-05-02T06:51:19Z</time>
      </trkpt>
      <trkpt lat="44.66047" lon="3.03931">
        <ele>1185</ele>
        <time>2018-05-02T06:51:46Z</time>
      </trkpt>
      <trkpt lat="44.66058" lon="3.03904">
        <ele>1187</ele>
        <time>2018-05-02T06:52:08Z</time>
      </trkpt>
      <trkpt lat="44.66059" lon="3.03897">
        <ele>1188</ele>
        <time>2018-05-02T06:52:13Z</time>
      </trkpt>
      <trkpt lat="44.66065" lon="3.03894">
        <ele>1188</ele>
        <time>2018-05-02T06:52:21Z</time>
      </trkpt>
      <trkpt lat="44.66069" lon="3.0389">
        <ele>1189</ele>
        <time>2018-05-02T06:52:25Z</time>
      </trkpt>
      <trkpt lat="44.66076" lon="3.03878">
        <ele>1189</ele>
        <time>2018-05-02T06:52:33Z</time>
      </trkpt>
      <trkpt lat="44.66078" lon="3.03871">
        <ele>1190</ele>
        <time>2018-05-02T06:52:38Z</time>
      </trkpt>
      <trkpt lat="44.66089" lon="3.03852">
        <ele>1192</ele>
        <time>2018-05-02T06:52:54Z</time>
      </trkpt>
      <trkpt lat="44.66112" lon="3.03833">
        <ele>1195</ele>
        <time>2018-05-02T06:53:18Z</time>
      </trkpt>
      <trkpt lat="44.66122" lon="3.03829">
        <ele>1196</ele>
        <time>2018-05-02T06:53:28Z</time>
      </trkpt>
      <trkpt lat="44.66126" lon="3.03825">
        <ele>1196</ele>
        <time>2018-05-02T06:53:32Z</time>
      </trkpt>
      <trkpt lat="44.66129" lon="3.0382">
        <ele>1197</ele>
        <time>2018-05-02T06:53:36Z</time>
      </trkpt>
      <trkpt lat="44.66128" lon="3.03811">
        <ele>1198</ele>
        <time>2018-05-02T06:53:52Z</time>
      </trkpt>
      <trkpt lat="44.66125" lon="3.03805">
        <ele>1199</ele>
        <time>2018-05-02T06:53:59Z</time>
      </trkpt>
      <trkpt lat="44.66121" lon="3.03802">
        <ele>1199</ele>
        <time>2018-05-02T06:54:04Z</time>
      </trkpt>
      <trkpt lat="44.66118" lon="3.03797">
        <ele>1200</ele>
        <time>2018-05-02T06:54:09Z</time>
      </trkpt>
      <trkpt lat="44.66109" lon="3.03789">
        <ele>1201</ele>
        <time>2018-05-02T06:54:19Z</time>
      </trkpt>
      <trkpt lat="44.6608" lon="3.03712">
        <ele>1206</ele>
        <time>2018-05-02T06:55:17Z</time>
      </trkpt>
      <trkpt lat="44.66072" lon="3.03707">
        <ele>1206</ele>
        <time>2018-05-02T06:55:25Z</time>
      </trkpt>
      <trkpt lat="44.66034" lon="3.03693">
        <ele>1208</ele>
        <time>2018-05-02T06:56:00Z</time>
      </trkpt>
      <trkpt lat="44.66027" lon="3.03692">
        <ele>1208</ele>
        <time>2018-05-02T06:56:07Z</time>
      </trkpt>
      <trkpt lat="44.66023" lon="3.0369">
        <ele>1208</ele>
        <time>2018-05-02T06:56:11Z</time>
      </trkpt>
      <trkpt lat="44.66018" lon="3.03686">
        <ele>1208</ele>
        <time>2018-05-02T06:56:16Z</time>
      </trkpt>
      <trkpt lat="44.66011" lon="3.03684">
        <ele>1209</ele>
        <time>2018-05-02T06:56:35Z</time>
      </trkpt>
      <trkpt lat="44.66002" lon="3.03677">
        <ele>1210</ele>
        <time>2018-05-02T06:56:44Z</time>
      </trkpt>
      <trkpt lat="44.65966" lon="3.03667">
        <ele>1211</ele>
        <time>2018-05-02T06:57:16Z</time>
      </trkpt>
      <trkpt lat="44.65947" lon="3.03658">
        <ele>1211</ele>
        <time>2018-05-02T06:57:33Z</time>
      </trkpt>
      <trkpt lat="44.65943" lon="3.03654">
        <ele>1211</ele>
        <time>2018-05-02T06:57:37Z</time>
      </trkpt>
      <trkpt lat="44.65907" lon="3.03538">
        <ele>1215</ele>
        <time>2018-05-02T06:58:50Z</time>
      </trkpt>
      <trkpt lat="44.65897" lon="3.03521">
        <ele>1215</ele>
        <time>2018-05-02T06:59:02Z</time>
      </trkpt>
      <trkpt lat="44.65821" lon="3.03274">
        <ele>1218</ele>
        <time>2018-05-02T07:01:34Z</time>
      </trkpt>
      <trkpt lat="44.6582" lon="3.03266">
        <ele>1218</ele>
        <time>2018-05-02T07:01:38Z</time>
      </trkpt>
      <trkpt lat="44.6582" lon="3.03259">
        <ele>1218</ele>
        <time>2018-05-02T07:01:42Z</time>
      </trkpt>
      <trkpt lat="44.65819" lon="3.03252">
        <ele>1218</ele>
        <time>2018-05-02T07:01:46Z</time>
      </trkpt>
      <trkpt lat="44.65819" lon="3.03238">
        <ele>1218</ele>
        <time>2018-05-02T07:01:54Z</time>
      </trkpt>
      <trkpt lat="44.65816" lon="3.03202">
        <ele>1218</ele>
        <time>2018-05-02T07:02:15Z</time>
      </trkpt>
      <trkpt lat="44.65817" lon="3.03188">
        <ele>1218</ele>
        <time>2018-05-02T07:02:23Z</time>
      </trkpt>
      <trkpt lat="44.65816" lon="3.03181">
        <ele>1218</ele>
        <time>2018-05-02T07:02:27Z</time>
      </trkpt>
      <trkpt lat="44.65825" lon="3.03133">
        <ele>1216</ele>
        <time>2018-05-02T07:02:56Z</time>
      </trkpt>
      <trkpt lat="44.65823" lon="3.03077">
        <ele>1215</ele>
        <time>2018-05-02T07:03:28Z</time>
      </trkpt>
      <trkpt lat="44.65817" lon="3.03042">
        <ele>1215</ele>
        <time>2018-05-02T07:03:48Z</time>
      </trkpt>
      <trkpt lat="44.65812" lon="3.03022">
        <ele>1214</ele>
        <time>2018-05-02T07:04:00Z</time>
      </trkpt>
      <trkpt lat="44.65811" lon="3.03016">
        <ele>1214</ele>
        <time>2018-05-02T07:04:04Z</time>
      </trkpt>
      <trkpt lat="44.65807" lon="3.02996">
        <ele>1213</ele>
        <time>2018-05-02T07:04:16Z</time>
      </trkpt>
      <trkpt lat="44.65805" lon="3.02967">
        <ele>1212</ele>
        <time>2018-05-02T07:04:32Z</time>
      </trkpt>
      <trkpt lat="44.65787" lon="3.02923">
        <ele>1211</ele>
        <time>2018-05-02T07:05:00Z</time>
      </trkpt>
      <trkpt lat="44.65762" lon="3.0289">
        <ele>1213</ele>
        <time>2018-05-02T07:05:30Z</time>
      </trkpt>
      <trkpt lat="44.65761" lon="3.02884">
        <ele>1214</ele>
        <time>2018-05-02T07:05:40Z</time>
      </trkpt>
      <trkpt lat="44.65728" lon="3.0284">
        <ele>1216</ele>
        <time>2018-05-02T07:08:05Z</time>
      </trkpt>
      <trkpt lat="44.6572" lon="3.02821">
        <ele>1216</ele>
        <time>2018-05-02T07:08:18Z</time>
      </trkpt>
      <trkpt lat="44.65713" lon="3.02767">
        <ele>1218</ele>
        <time>2018-05-02T07:08:50Z</time>
      </trkpt>
      <trkpt lat="44.65706" lon="3.02741">
        <ele>1218</ele>
        <time>2018-05-02T07:09:07Z</time>
      </trkpt>
      <trkpt lat="44.65704" lon="3.02735">
        <ele>1217</ele>
        <time>2018-05-02T07:09:11Z</time>
      </trkpt>
      <trkpt lat="44.65695" lon="3.02683">
        <ele>1217</ele>
        <time>2018-05-02T07:10:02Z</time>
      </trkpt>
      <trkpt lat="44.65692" lon="3.02649">
        <ele>1220</ele>
        <time>2018-05-02T07:10:23Z</time>
      </trkpt>
      <trkpt lat="44.6569" lon="3.02643">
        <ele>1220</ele>
        <time>2018-05-02T07:10:28Z</time>
      </trkpt>
      <trkpt lat="44.65684" lon="3.02634">
        <ele>1222</ele>
        <time>2018-05-02T07:10:36Z</time>
      </trkpt>
      <trkpt lat="44.65673" lon="3.02623">
        <ele>1223</ele>
        <time>2018-05-02T07:10:48Z</time>
      </trkpt>
      <trkpt lat="44.65661" lon="3.02598">
        <ele>1225</ele>
        <time>2018-05-02T07:11:10Z</time>
      </trkpt>
      <trkpt lat="44.65654" lon="3.02576">
        <ele>1227</ele>
        <time>2018-05-02T07:11:42Z</time>
      </trkpt>
      <trkpt lat="44.65648" lon="3.02565">
        <ele>1229</ele>
        <time>2018-05-02T07:11:51Z</time>
      </trkpt>
      <trkpt lat="44.65644" lon="3.02552">
        <ele>1230</ele>
        <time>2018-05-02T07:12:01Z</time>
      </trkpt>
      <trkpt lat="44.65641" lon="3.02547">
        <ele>1230</ele>
        <time>2018-05-02T07:12:05Z</time>
      </trkpt>
      <trkpt lat="44.65637" lon="3.02542">
        <ele>1230</ele>
        <time>2018-05-02T07:12:10Z</time>
      </trkpt>
      <trkpt lat="44.65621" lon="3.02516">
        <ele>1233</ele>
        <time>2018-05-02T07:12:33Z</time>
      </trkpt>
      <trkpt lat="44.65619" lon="3.02511">
        <ele>1233</ele>
        <time>2018-05-02T07:12:37Z</time>
      </trkpt>
      <trkpt lat="44.6561" lon="3.02456">
        <ele>1237</ele>
        <time>2018-05-02T07:13:14Z</time>
      </trkpt>
      <trkpt lat="44.65606" lon="3.02396">
        <ele>1239</ele>
        <time>2018-05-02T07:13:52Z</time>
      </trkpt>
      <trkpt lat="44.65592" lon="3.02368">
        <ele>1241</ele>
        <time>2018-05-02T07:14:23Z</time>
      </trkpt>
      <trkpt lat="44.65581" lon="3.02355">
        <ele>1243</ele>
        <time>2018-05-02T07:14:38Z</time>
      </trkpt>
      <trkpt lat="44.6558" lon="3.02345">
        <ele>1244</ele>
        <time>2018-05-02T07:14:45Z</time>
      </trkpt>
      <trkpt lat="44.65577" lon="3.02336">
        <ele>1244</ele>
        <time>2018-05-02T07:14:51Z</time>
      </trkpt>
      <trkpt lat="44.65572" lon="3.02274">
        <ele>1247</ele>
        <time>2018-05-02T07:15:30Z</time>
      </trkpt>
      <trkpt lat="44.65569" lon="3.02262">
        <ele>1247</ele>
        <time>2018-05-02T07:15:37Z</time>
      </trkpt>
      <trkpt lat="44.65571" lon="3.02226">
        <ele>1246</ele>
        <time>2018-05-02T07:16:04Z</time>
      </trkpt>
      <trkpt lat="44.65567" lon="3.02212">
        <ele>1245</ele>
        <time>2018-05-02T07:16:10Z</time>
      </trkpt>
      <trkpt lat="44.65561" lon="3.02161">
        <ele>1243</ele>
        <time>2018-05-02T07:16:39Z</time>
      </trkpt>
      <trkpt lat="44.65561" lon="3.02146">
        <ele>1243</ele>
        <time>2018-05-02T07:16:47Z</time>
      </trkpt>
      <trkpt lat="44.65564" lon="3.02137">
        <ele>1242</ele>
        <time>2018-05-02T07:16:54Z</time>
      </trkpt>
      <trkpt lat="44.65575" lon="3.02077">
        <ele>1240</ele>
        <time>2018-05-02T07:17:26Z</time>
      </trkpt>
      <trkpt lat="44.65586" lon="3.02046">
        <ele>1239</ele>
        <time>2018-05-02T07:17:48Z</time>
      </trkpt>
      <trkpt lat="44.65588" lon="3.02025">
        <ele>1239</ele>
        <time>2018-05-02T07:18:00Z</time>
      </trkpt>
      <trkpt lat="44.65588" lon="3.02018">
        <ele>1238</ele>
        <time>2018-05-02T07:18:05Z</time>
      </trkpt>
      <trkpt lat="44.65583" lon="3.01995">
        <ele>1238</ele>
        <time>2018-05-02T07:18:21Z</time>
      </trkpt>
      <trkpt lat="44.65579" lon="3.01987">
        <ele>1237</ele>
        <time>2018-05-02T07:18:28Z</time>
      </trkpt>
      <trkpt lat="44.65577" lon="3.0198">
        <ele>1237</ele>
        <time>2018-05-02T07:18:32Z</time>
      </trkpt>
      <trkpt lat="44.65573" lon="3.01975">
        <ele>1237</ele>
        <time>2018-05-02T07:18:36Z</time>
      </trkpt>
      <trkpt lat="44.65571" lon="3.01968">
        <ele>1237</ele>
        <time>2018-05-02T07:18:40Z</time>
      </trkpt>
      <trkpt lat="44.65571" lon="3.01961">
        <ele>1237</ele>
        <time>2018-05-02T07:18:44Z</time>
      </trkpt>
      <trkpt lat="44.65565" lon="3.01938">
        <ele>1235</ele>
        <time>2018-05-02T07:19:01Z</time>
      </trkpt>
      <trkpt lat="44.65559" lon="3.01926">
        <ele>1235</ele>
        <time>2018-05-02T07:19:11Z</time>
      </trkpt>
      <trkpt lat="44.6555" lon="3.01897">
        <ele>1234</ele>
        <time>2018-05-02T07:19:58Z</time>
      </trkpt>
      <trkpt lat="44.65551" lon="3.01888">
        <ele>1234</ele>
        <time>2018-05-02T07:20:27Z</time>
      </trkpt>
      <trkpt lat="44.65544" lon="3.01832">
        <ele>1230</ele>
        <time>2018-05-02T07:20:58Z</time>
      </trkpt>
      <trkpt lat="44.65538" lon="3.0182">
        <ele>1230</ele>
        <time>2018-05-02T07:21:07Z</time>
      </trkpt>
      <trkpt lat="44.65538" lon="3.01812">
        <ele>1229</ele>
        <time>2018-05-02T07:21:12Z</time>
      </trkpt>
      <trkpt lat="44.65539" lon="3.01805">
        <ele>1229</ele>
        <time>2018-05-02T07:21:16Z</time>
      </trkpt>
      <trkpt lat="44.65535" lon="3.01793">
        <ele>1228</ele>
        <time>2018-05-02T07:21:28Z</time>
      </trkpt>
      <trkpt lat="44.65533" lon="3.01668">
        <ele>1226</ele>
        <time>2018-05-02T07:23:06Z</time>
      </trkpt>
      <trkpt lat="44.65529" lon="3.01646">
        <ele>1225</ele>
        <time>2018-05-02T07:23:22Z</time>
      </trkpt>
      <trkpt lat="44.65519" lon="3.01632">
        <ele>1224</ele>
        <time>2018-05-02T07:23:34Z</time>
      </trkpt>
      <trkpt lat="44.65514" lon="3.0163">
        <ele>1224</ele>
        <time>2018-05-02T07:23:38Z</time>
      </trkpt>
      <trkpt lat="44.65507" lon="3.01621">
        <ele>1224</ele>
        <time>2018-05-02T07:23:46Z</time>
      </trkpt>
      <trkpt lat="44.65492" lon="3.01588">
        <ele>1223</ele>
        <time>2018-05-02T07:24:06Z</time>
      </trkpt>
      <trkpt lat="44.65478" lon="3.01571">
        <ele>1222</ele>
        <time>2018-05-02T07:24:24Z</time>
      </trkpt>
      <trkpt lat="44.65469" lon="3.01545">
        <ele>1222</ele>
        <time>2018-05-02T07:24:41Z</time>
      </trkpt>
      <trkpt lat="44.65455" lon="3.01478">
        <ele>1220</ele>
        <time>2018-05-02T07:25:37Z</time>
      </trkpt>
      <trkpt lat="44.65455" lon="3.01457">
        <ele>1220</ele>
        <time>2018-05-02T07:25:49Z</time>
      </trkpt>
      <trkpt lat="44.65459" lon="3.0144">
        <ele>1219</ele>
        <time>2018-05-02T07:26:45Z</time>
      </trkpt>
      <trkpt lat="44.65473" lon="3.0141">
        <ele>1218</ele>
        <time>2018-05-02T07:27:13Z</time>
      </trkpt>
      <trkpt lat="44.65476" lon="3.01405">
        <ele>1218</ele>
        <time>2018-05-02T07:27:17Z</time>
      </trkpt>
      <trkpt lat="44.65479" lon="3.01398">
        <ele>1218</ele>
        <time>2018-05-02T07:27:21Z</time>
      </trkpt>
      <trkpt lat="44.65481" lon="3.01392">
        <ele>1218</ele>
        <time>2018-05-02T07:27:25Z</time>
      </trkpt>
      <trkpt lat="44.65481" lon="3.01386">
        <ele>1218</ele>
        <time>2018-05-02T07:27:30Z</time>
      </trkpt>
      <trkpt lat="44.6548" lon="3.01379">
        <ele>1218</ele>
        <time>2018-05-02T07:27:35Z</time>
      </trkpt>
      <trkpt lat="44.6544" lon="3.01251">
        <ele>1227</ele>
        <time>2018-05-02T07:29:00Z</time>
      </trkpt>
      <trkpt lat="44.65437" lon="3.01245">
        <ele>1227</ele>
        <time>2018-05-02T07:29:04Z</time>
      </trkpt>
      <trkpt lat="44.65435" lon="3.01239">
        <ele>1228</ele>
        <time>2018-05-02T07:29:08Z</time>
      </trkpt>
      <trkpt lat="44.65434" lon="3.01232">
        <ele>1229</ele>
        <time>2018-05-02T07:29:13Z</time>
      </trkpt>
      <trkpt lat="44.65423" lon="3.01195">
        <ele>1233</ele>
        <time>2018-05-02T07:29:47Z</time>
      </trkpt>
      <trkpt lat="44.65418" lon="3.01182">
        <ele>1234</ele>
        <time>2018-05-02T07:29:57Z</time>
      </trkpt>
      <trkpt lat="44.65412" lon="3.01175">
        <ele>1235</ele>
        <time>2018-05-02T07:30:08Z</time>
      </trkpt>
      <trkpt lat="44.65388" lon="3.01133">
        <ele>1237</ele>
        <time>2018-05-02T07:30:45Z</time>
      </trkpt>
      <trkpt lat="44.65381" lon="3.01104">
        <ele>1238</ele>
        <time>2018-05-02T07:31:18Z</time>
      </trkpt>
      <trkpt lat="44.65375" lon="3.01062">
        <ele>1239</ele>
        <time>2018-05-02T07:31:50Z</time>
      </trkpt>
      <trkpt lat="44.65378" lon="3.01056">
        <ele>1240</ele>
        <time>2018-05-02T07:31:59Z</time>
      </trkpt>
      <trkpt lat="44.65379" lon="3.01048">
        <ele>1240</ele>
        <time>2018-05-02T07:32:17Z</time>
      </trkpt>
      <trkpt lat="44.65382" lon="3.01014">
        <ele>1244</ele>
        <time>2018-05-02T07:32:46Z</time>
      </trkpt>
      <trkpt lat="44.65388" lon="3.00989">
        <ele>1246</ele>
        <time>2018-05-02T07:33:07Z</time>
      </trkpt>
      <trkpt lat="44.65387" lon="3.0098">
        <ele>1247</ele>
        <time>2018-05-02T07:33:32Z</time>
      </trkpt>
      <trkpt lat="44.65399" lon="3.00928">
        <ele>1252</ele>
        <time>2018-05-02T07:34:20Z</time>
      </trkpt>
      <trkpt lat="44.65399" lon="3.00916">
        <ele>1252</ele>
        <time>2018-05-02T07:34:31Z</time>
      </trkpt>
      <trkpt lat="44.65398" lon="3.00909">
        <ele>1253</ele>
        <time>2018-05-02T07:34:36Z</time>
      </trkpt>
      <trkpt lat="44.654" lon="3.00902">
        <ele>1254</ele>
        <time>2018-05-02T07:34:44Z</time>
      </trkpt>
      <trkpt lat="44.65399" lon="3.00894">
        <ele>1254</ele>
        <time>2018-05-02T07:34:49Z</time>
      </trkpt>
      <trkpt lat="44.65403" lon="3.00886">
        <ele>1256</ele>
        <time>2018-05-02T07:34:58Z</time>
      </trkpt>
      <trkpt lat="44.6541" lon="3.00879">
        <ele>1257</ele>
        <time>2018-05-02T07:35:10Z</time>
      </trkpt>
      <trkpt lat="44.65411" lon="3.00873">
        <ele>1258</ele>
        <time>2018-05-02T07:35:15Z</time>
      </trkpt>
      <trkpt lat="44.65411" lon="3.00862">
        <ele>1259</ele>
        <time>2018-05-02T07:35:26Z</time>
      </trkpt>
      <trkpt lat="44.65408" lon="3.00846">
        <ele>1261</ele>
        <time>2018-05-02T07:35:44Z</time>
      </trkpt>
      <trkpt lat="44.65408" lon="3.00835">
        <ele>1262</ele>
        <time>2018-05-02T07:35:56Z</time>
      </trkpt>
      <trkpt lat="44.65407" lon="3.00828">
        <ele>1263</ele>
        <time>2018-05-02T07:36:02Z</time>
      </trkpt>
      <trkpt lat="44.65404" lon="3.00824">
        <ele>1263</ele>
        <time>2018-05-02T07:36:16Z</time>
      </trkpt>
      <trkpt lat="44.65401" lon="3.00814">
        <ele>1264</ele>
        <time>2018-05-02T07:36:27Z</time>
      </trkpt>
      <trkpt lat="44.65399" lon="3.00805">
        <ele>1266</ele>
        <time>2018-05-02T07:36:38Z</time>
      </trkpt>
      <trkpt lat="44.65395" lon="3.00771">
        <ele>1270</ele>
        <time>2018-05-02T07:37:11Z</time>
      </trkpt>
      <trkpt lat="44.65397" lon="3.00765">
        <ele>1271</ele>
        <time>2018-05-02T07:37:21Z</time>
      </trkpt>
      <trkpt lat="44.65402" lon="3.00754">
        <ele>1273</ele>
        <time>2018-05-02T07:37:33Z</time>
      </trkpt>
      <trkpt lat="44.65402" lon="3.00746">
        <ele>1273</ele>
        <time>2018-05-02T07:37:39Z</time>
      </trkpt>
      <trkpt lat="44.65398" lon="3.00742">
        <ele>1274</ele>
        <time>2018-05-02T07:37:51Z</time>
      </trkpt>
      <trkpt lat="44.65397" lon="3.00733">
        <ele>1274</ele>
        <time>2018-05-02T07:38:10Z</time>
      </trkpt>
      <trkpt lat="44.65387" lon="3.00716">
        <ele>1275</ele>
        <time>2018-05-02T07:38:53Z</time>
      </trkpt>
      <trkpt lat="44.65338" lon="3.00618">
        <ele>1275</ele>
        <time>2018-05-02T07:40:09Z</time>
      </trkpt>
      <trkpt lat="44.65313" lon="3.00598">
        <ele>1275</ele>
        <time>2018-05-02T07:40:34Z</time>
      </trkpt>
      <trkpt lat="44.65299" lon="3.00589">
        <ele>1275</ele>
        <time>2018-05-02T07:40:48Z</time>
      </trkpt>
      <trkpt lat="44.65265" lon="3.00581">
        <ele>1276</ele>
        <time>2018-05-02T07:41:18Z</time>
      </trkpt>
      <trkpt lat="44.65236" lon="3.00583">
        <ele>1277</ele>
        <time>2018-05-02T07:41:43Z</time>
      </trkpt>
      <trkpt lat="44.6522" lon="3.00591">
        <ele>1277</ele>
        <time>2018-05-02T07:41:59Z</time>
      </trkpt>
      <trkpt lat="44.65216" lon="3.00594">
        <ele>1277</ele>
        <time>2018-05-02T07:42:04Z</time>
      </trkpt>
      <trkpt lat="44.65211" lon="3.006">
        <ele>1277</ele>
        <time>2018-05-02T07:42:14Z</time>
      </trkpt>
      <trkpt lat="44.65201" lon="3.00597">
        <ele>1276</ele>
        <time>2018-05-02T07:42:29Z</time>
      </trkpt>
      <trkpt lat="44.65196" lon="3.00593">
        <ele>1277</ele>
        <time>2018-05-02T07:42:34Z</time>
      </trkpt>
      <trkpt lat="44.65186" lon="3.0059">
        <ele>1278</ele>
        <time>2018-05-02T07:42:44Z</time>
      </trkpt>
      <trkpt lat="44.65177" lon="3.00584">
        <ele>1279</ele>
        <time>2018-05-02T07:42:53Z</time>
      </trkpt>
      <trkpt lat="44.65163" lon="3.00577">
        <ele>1280</ele>
        <time>2018-05-02T07:43:09Z</time>
      </trkpt>
      <trkpt lat="44.65151" lon="3.00568">
        <ele>1283</ele>
        <time>2018-05-02T07:43:24Z</time>
      </trkpt>
      <trkpt lat="44.65136" lon="3.00565">
        <ele>1284</ele>
        <time>2018-05-02T07:43:38Z</time>
      </trkpt>
      <trkpt lat="44.65101" lon="3.00573">
        <ele>1286</ele>
        <time>2018-05-02T07:44:09Z</time>
      </trkpt>
      <trkpt lat="44.65097" lon="3.00572">
        <ele>1286</ele>
        <time>2018-05-02T07:44:13Z</time>
      </trkpt>
      <trkpt lat="44.65086" lon="3.00576">
        <ele>1287</ele>
        <time>2018-05-02T07:44:22Z</time>
      </trkpt>
      <trkpt lat="44.65014" lon="3.00578">
        <ele>1291</ele>
        <time>2018-05-02T07:45:25Z</time>
      </trkpt>
      <trkpt lat="44.64992" lon="3.00564">
        <ele>1292</ele>
        <time>2018-05-02T07:45:51Z</time>
      </trkpt>
      <trkpt lat="44.64988" lon="3.00559">
        <ele>1292</ele>
        <time>2018-05-02T07:45:56Z</time>
      </trkpt>
      <trkpt lat="44.64975" lon="3.00539">
        <ele>1293</ele>
        <time>2018-05-02T07:46:23Z</time>
      </trkpt>
      <trkpt lat="44.6497" lon="3.00535">
        <ele>1293</ele>
        <time>2018-05-02T07:46:27Z</time>
      </trkpt>
      <trkpt lat="44.64951" lon="3.00502">
        <ele>1294</ele>
        <time>2018-05-02T07:46:54Z</time>
      </trkpt>
      <trkpt lat="44.64933" lon="3.00452">
        <ele>1295</ele>
        <time>2018-05-02T07:47:29Z</time>
      </trkpt>
      <trkpt lat="44.64932" lon="3.00446">
        <ele>1295</ele>
        <time>2018-05-02T07:47:33Z</time>
      </trkpt>
      <trkpt lat="44.64927" lon="3.00437">
        <ele>1295</ele>
        <time>2018-05-02T07:47:51Z</time>
      </trkpt>
      <trkpt lat="44.64921" lon="3.00405">
        <ele>1296</ele>
        <time>2018-05-02T07:48:07Z</time>
      </trkpt>
      <trkpt lat="44.64919" lon="3.00399">
        <ele>1296</ele>
        <time>2018-05-02T07:48:11Z</time>
      </trkpt>
      <trkpt lat="44.64905" lon="3.00336">
        <ele>1296</ele>
        <time>2018-05-02T07:48:47Z</time>
      </trkpt>
      <trkpt lat="44.64904" lon="3.00327">
        <ele>1297</ele>
        <time>2018-05-02T07:49:19Z</time>
      </trkpt>
      <trkpt lat="44.64896" lon="3.00301">
        <ele>1297</ele>
        <time>2018-05-02T07:49:36Z</time>
      </trkpt>
      <trkpt lat="44.64892" lon="3.00298">
        <ele>1297</ele>
        <time>2018-05-02T07:49:40Z</time>
      </trkpt>
      <trkpt lat="44.64858" lon="3.00113">
        <ele>1300</ele>
        <time>2018-05-02T07:51:50Z</time>
      </trkpt>
      <trkpt lat="44.64856" lon="3.00088">
        <ele>1299</ele>
        <time>2018-05-02T07:52:26Z</time>
      </trkpt>
      <trkpt lat="44.64855" lon="3.00082">
        <ele>1299</ele>
        <time>2018-05-02T07:52:30Z</time>
      </trkpt>
      <trkpt lat="44.64855" lon="3.0006">
        <ele>1298</ele>
        <time>2018-05-02T07:52:44Z</time>
      </trkpt>
      <trkpt lat="44.64853" lon="3.00054">
        <ele>1297</ele>
        <time>2018-05-02T07:52:49Z</time>
      </trkpt>
      <trkpt lat="44.64849" lon="3.00048">
        <ele>1296</ele>
        <time>2018-05-02T07:52:53Z</time>
      </trkpt>
      <trkpt lat="44.64847" lon="3.00033">
        <ele>1296</ele>
        <time>2018-05-02T07:53:01Z</time>
      </trkpt>
      <trkpt lat="44.64841" lon="3.00011">
        <ele>1296</ele>
        <time>2018-05-02T07:53:13Z</time>
      </trkpt>
      <trkpt lat="44.64839" lon="2.99969">
        <ele>1296</ele>
        <time>2018-05-02T07:53:37Z</time>
      </trkpt>
      <trkpt lat="44.64842" lon="2.99955">
        <ele>1296</ele>
        <time>2018-05-02T07:53:45Z</time>
      </trkpt>
      <trkpt lat="44.64842" lon="2.99947">
        <ele>1295</ele>
        <time>2018-05-02T07:53:49Z</time>
      </trkpt>
      <trkpt lat="44.64842" lon="2.9994">
        <ele>1295</ele>
        <time>2018-05-02T07:53:54Z</time>
      </trkpt>
      <trkpt lat="44.64844" lon="2.99933">
        <ele>1295</ele>
        <time>2018-05-02T07:53:58Z</time>
      </trkpt>
      <trkpt lat="44.64851" lon="2.99892">
        <ele>1296</ele>
        <time>2018-05-02T07:54:23Z</time>
      </trkpt>
      <trkpt lat="44.64845" lon="2.99864">
        <ele>1297</ele>
        <time>2018-05-02T07:54:40Z</time>
      </trkpt>
      <trkpt lat="44.64832" lon="2.99841">
        <ele>1298</ele>
        <time>2018-05-02T07:55:00Z</time>
      </trkpt>
      <trkpt lat="44.6483" lon="2.99834">
        <ele>1298</ele>
        <time>2018-05-02T07:55:04Z</time>
      </trkpt>
      <trkpt lat="44.64826" lon="2.99805">
        <ele>1297</ele>
        <time>2018-05-02T07:55:20Z</time>
      </trkpt>
      <trkpt lat="44.64829" lon="2.99747">
        <ele>1297</ele>
        <time>2018-05-02T07:55:54Z</time>
      </trkpt>
      <trkpt lat="44.64846" lon="2.99624">
        <ele>1300</ele>
        <time>2018-05-02T07:57:12Z</time>
      </trkpt>
      <trkpt lat="44.64847" lon="2.99601">
        <ele>1300</ele>
        <time>2018-05-02T07:57:25Z</time>
      </trkpt>
      <trkpt lat="44.64846" lon="2.99595">
        <ele>1300</ele>
        <time>2018-05-02T07:57:28Z</time>
      </trkpt>
      <trkpt lat="44.64847" lon="2.99588">
        <ele>1301</ele>
        <time>2018-05-02T07:57:32Z</time>
      </trkpt>
      <trkpt lat="44.64844" lon="2.99461">
        <ele>1302</ele>
        <time>2018-05-02T07:58:48Z</time>
      </trkpt>
      <trkpt lat="44.64846" lon="2.99454">
        <ele>1302</ele>
        <time>2018-05-02T07:58:53Z</time>
      </trkpt>
      <trkpt lat="44.64845" lon="2.99439">
        <ele>1304</ele>
        <time>2018-05-02T07:59:03Z</time>
      </trkpt>
      <trkpt lat="44.6484" lon="2.99405">
        <ele>1305</ele>
        <time>2018-05-02T07:59:24Z</time>
      </trkpt>
      <trkpt lat="44.64836" lon="2.99311">
        <ele>1305</ele>
        <time>2018-05-02T08:00:24Z</time>
      </trkpt>
      <trkpt lat="44.64834" lon="2.99305">
        <ele>1305</ele>
        <time>2018-05-02T08:00:28Z</time>
      </trkpt>
      <trkpt lat="44.64833" lon="2.99288">
        <ele>1305</ele>
        <time>2018-05-02T08:00:41Z</time>
      </trkpt>
      <trkpt lat="44.6483" lon="2.99282">
        <ele>1305</ele>
        <time>2018-05-02T08:00:46Z</time>
      </trkpt>
      <trkpt lat="44.64826" lon="2.99267">
        <ele>1305</ele>
        <time>2018-05-02T08:00:56Z</time>
      </trkpt>
      <trkpt lat="44.64822" lon="2.99255">
        <ele>1305</ele>
        <time>2018-05-02T08:01:06Z</time>
      </trkpt>
      <trkpt lat="44.64825" lon="2.99245">
        <ele>1306</ele>
        <time>2018-05-02T08:01:16Z</time>
      </trkpt>
      <trkpt lat="44.64823" lon="2.99234">
        <ele>1306</ele>
        <time>2018-05-02T08:01:27Z</time>
      </trkpt>
      <trkpt lat="44.64823" lon="2.99224">
        <ele>1306</ele>
        <time>2018-05-02T08:01:41Z</time>
      </trkpt>
      <trkpt lat="44.64821" lon="2.99218">
        <ele>1306</ele>
        <time>2018-05-02T08:01:46Z</time>
      </trkpt>
      <trkpt lat="44.6482" lon="2.99211">
        <ele>1306</ele>
        <time>2018-05-02T08:01:51Z</time>
      </trkpt>
      <trkpt lat="44.64818" lon="2.99193">
        <ele>1307</ele>
        <time>2018-05-02T08:02:04Z</time>
      </trkpt>
      <trkpt lat="44.6481" lon="2.99176">
        <ele>1308</ele>
        <time>2018-05-02T08:02:16Z</time>
      </trkpt>
      <trkpt lat="44.64808" lon="2.99166">
        <ele>1307</ele>
        <time>2018-05-02T08:02:27Z</time>
      </trkpt>
      <trkpt lat="44.64806" lon="2.9916">
        <ele>1307</ele>
        <time>2018-05-02T08:02:32Z</time>
      </trkpt>
      <trkpt lat="44.64805" lon="2.99153">
        <ele>1308</ele>
        <time>2018-05-02T08:02:37Z</time>
      </trkpt>
      <trkpt lat="44.64775" lon="2.99086">
        <ele>1308</ele>
        <time>2018-05-02T08:03:25Z</time>
      </trkpt>
      <trkpt lat="44.64772" lon="2.99071">
        <ele>1310</ele>
        <time>2018-05-02T08:03:35Z</time>
      </trkpt>
      <trkpt lat="44.64759" lon="2.99045">
        <ele>1311</ele>
        <time>2018-05-02T08:03:55Z</time>
      </trkpt>
      <trkpt lat="44.64755" lon="2.99042">
        <ele>1311</ele>
        <time>2018-05-02T08:03:59Z</time>
      </trkpt>
      <trkpt lat="44.64748" lon="2.99032">
        <ele>1310</ele>
        <time>2018-05-02T08:04:07Z</time>
      </trkpt>
      <trkpt lat="44.64717" lon="2.99011">
        <ele>1307</ele>
        <time>2018-05-02T08:05:12Z</time>
      </trkpt>
      <trkpt lat="44.64707" lon="2.99007">
        <ele>1306</ele>
        <time>2018-05-02T08:05:21Z</time>
      </trkpt>
      <trkpt lat="44.64601" lon="2.98998">
        <ele>1291</ele>
        <time>2018-05-02T08:07:32Z</time>
      </trkpt>
      <trkpt lat="44.64596" lon="2.99">
        <ele>1291</ele>
        <time>2018-05-02T08:07:37Z</time>
      </trkpt>
      <trkpt lat="44.64597" lon="2.98993">
        <ele>1291</ele>
        <time>2018-05-02T08:07:52Z</time>
      </trkpt>
      <trkpt lat="44.64592" lon="2.98987">
        <ele>1290</ele>
        <time>2018-05-02T08:08:09Z</time>
      </trkpt>
      <trkpt lat="44.64585" lon="2.98984">
        <ele>1290</ele>
        <time>2018-05-02T08:08:13Z</time>
      </trkpt>
      <trkpt lat="44.64581" lon="2.98982">
        <ele>1290</ele>
        <time>2018-05-02T08:08:17Z</time>
      </trkpt>
      <trkpt lat="44.64575" lon="2.98983">
        <ele>1290</ele>
        <time>2018-05-02T08:08:21Z</time>
      </trkpt>
      <trkpt lat="44.64561" lon="2.98974">
        <ele>1290</ele>
        <time>2018-05-02T08:08:32Z</time>
      </trkpt>
      <trkpt lat="44.64544" lon="2.98959">
        <ele>1293</ele>
        <time>2018-05-02T08:08:56Z</time>
      </trkpt>
      <trkpt lat="44.6454" lon="2.9895">
        <ele>1294</ele>
        <time>2018-05-02T08:09:07Z</time>
      </trkpt>
      <trkpt lat="44.64543" lon="2.98928">
        <ele>1298</ele>
        <time>2018-05-02T08:09:25Z</time>
      </trkpt>
      <trkpt lat="44.6454" lon="2.98905">
        <ele>1300</ele>
        <time>2018-05-02T08:09:50Z</time>
      </trkpt>
      <trkpt lat="44.64543" lon="2.98884">
        <ele>1304</ele>
        <time>2018-05-02T08:10:15Z</time>
      </trkpt>
      <trkpt lat="44.64536" lon="2.98871">
        <ele>1304</ele>
        <time>2018-05-02T08:10:29Z</time>
      </trkpt>
      <trkpt lat="44.64531" lon="2.9887">
        <ele>1303</ele>
        <time>2018-05-02T08:10:34Z</time>
      </trkpt>
      <trkpt lat="44.64519" lon="2.98865">
        <ele>1304</ele>
        <time>2018-05-02T08:10:46Z</time>
      </trkpt>
      <trkpt lat="44.64515" lon="2.98864">
        <ele>1304</ele>
        <time>2018-05-02T08:10:51Z</time>
      </trkpt>
      <trkpt lat="44.6451" lon="2.98866">
        <ele>1303</ele>
        <time>2018-05-02T08:11:11Z</time>
      </trkpt>
      <trkpt lat="44.64502" lon="2.98869">
        <ele>1303</ele>
        <time>2018-05-02T08:11:29Z</time>
      </trkpt>
      <trkpt lat="44.64477" lon="2.98871">
        <ele>1304</ele>
        <time>2018-05-02T08:12:16Z</time>
      </trkpt>
      <trkpt lat="44.64461" lon="2.98873">
        <ele>1304</ele>
        <time>2018-05-02T08:12:31Z</time>
      </trkpt>
      <trkpt lat="44.64456" lon="2.98867">
        <ele>1304</ele>
        <time>2018-05-02T08:12:45Z</time>
      </trkpt>
      <trkpt lat="44.64446" lon="2.98864">
        <ele>1305</ele>
        <time>2018-05-02T08:12:53Z</time>
      </trkpt>
      <trkpt lat="44.64441" lon="2.98862">
        <ele>1304</ele>
        <time>2018-05-02T08:12:58Z</time>
      </trkpt>
      <trkpt lat="44.64437" lon="2.98859">
        <ele>1304</ele>
        <time>2018-05-02T08:13:03Z</time>
      </trkpt>
      <trkpt lat="44.64432" lon="2.98857">
        <ele>1305</ele>
        <time>2018-05-02T08:13:08Z</time>
      </trkpt>
      <trkpt lat="44.64428" lon="2.98854">
        <ele>1306</ele>
        <time>2018-05-02T08:13:13Z</time>
      </trkpt>
      <trkpt lat="44.64425" lon="2.98848">
        <ele>1306</ele>
        <time>2018-05-02T08:13:18Z</time>
      </trkpt>
      <trkpt lat="44.6442" lon="2.98834">
        <ele>1307</ele>
        <time>2018-05-02T08:13:31Z</time>
      </trkpt>
      <trkpt lat="44.64419" lon="2.98826">
        <ele>1309</ele>
        <time>2018-05-02T08:13:39Z</time>
      </trkpt>
      <trkpt lat="44.64424" lon="2.98816">
        <ele>1309</ele>
        <time>2018-05-02T08:13:56Z</time>
      </trkpt>
      <trkpt lat="44.64427" lon="2.9881">
        <ele>1310</ele>
        <time>2018-05-02T08:14:01Z</time>
      </trkpt>
      <trkpt lat="44.64426" lon="2.988">
        <ele>1311</ele>
        <time>2018-05-02T08:14:09Z</time>
      </trkpt>
      <trkpt lat="44.64427" lon="2.98794">
        <ele>1312</ele>
        <time>2018-05-02T08:14:14Z</time>
      </trkpt>
      <trkpt lat="44.64436" lon="2.98777">
        <ele>1315</ele>
        <time>2018-05-02T08:14:31Z</time>
      </trkpt>
      <trkpt lat="44.6444" lon="2.9876">
        <ele>1316</ele>
        <time>2018-05-02T08:14:45Z</time>
      </trkpt>
      <trkpt lat="44.64439" lon="2.98755">
        <ele>1318</ele>
        <time>2018-05-02T08:14:56Z</time>
      </trkpt>
      <trkpt lat="44.6444" lon="2.98723">
        <ele>1320</ele>
        <time>2018-05-02T08:15:20Z</time>
      </trkpt>
      <trkpt lat="44.64437" lon="2.98704">
        <ele>1319</ele>
        <time>2018-05-02T08:15:30Z</time>
      </trkpt>
      <trkpt lat="44.6442" lon="2.98652">
        <ele>1315</ele>
        <time>2018-05-02T08:16:02Z</time>
      </trkpt>
      <trkpt lat="44.64418" lon="2.98646">
        <ele>1315</ele>
        <time>2018-05-02T08:16:06Z</time>
      </trkpt>
      <trkpt lat="44.64416" lon="2.9864">
        <ele>1315</ele>
        <time>2018-05-02T08:16:11Z</time>
      </trkpt>
      <trkpt lat="44.64409" lon="2.9864">
        <ele>1314</ele>
        <time>2018-05-02T08:16:18Z</time>
      </trkpt>
      <trkpt lat="44.64399" lon="2.98644">
        <ele>1314</ele>
        <time>2018-05-02T08:16:26Z</time>
      </trkpt>
      <trkpt lat="44.64393" lon="2.98647">
        <ele>1314</ele>
        <time>2018-05-02T08:16:30Z</time>
      </trkpt>
      <trkpt lat="44.64378" lon="2.98652">
        <ele>1314</ele>
        <time>2018-05-02T08:16:44Z</time>
      </trkpt>
      <trkpt lat="44.64273" lon="2.98697">
        <ele>1311</ele>
        <time>2018-05-02T08:18:25Z</time>
      </trkpt>
      <trkpt lat="44.64259" lon="2.98704">
        <ele>1310</ele>
        <time>2018-05-02T08:18:37Z</time>
      </trkpt>
      <trkpt lat="44.64232" lon="2.98724">
        <ele>1308</ele>
        <time>2018-05-02T08:19:03Z</time>
      </trkpt>
      <trkpt lat="44.64195" lon="2.98742">
        <ele>1306</ele>
        <time>2018-05-02T08:19:35Z</time>
      </trkpt>
      <trkpt lat="44.64185" lon="2.98745">
        <ele>1306</ele>
        <time>2018-05-02T08:19:44Z</time>
      </trkpt>
      <trkpt lat="44.64174" lon="2.98746">
        <ele>1306</ele>
        <time>2018-05-02T08:19:53Z</time>
      </trkpt>
      <trkpt lat="44.64169" lon="2.98744">
        <ele>1307</ele>
        <time>2018-05-02T08:19:58Z</time>
      </trkpt>
      <trkpt lat="44.64164" lon="2.98746">
        <ele>1306</ele>
        <time>2018-05-02T08:20:03Z</time>
      </trkpt>
      <trkpt lat="44.64154" lon="2.98752">
        <ele>1306</ele>
        <time>2018-05-02T08:20:12Z</time>
      </trkpt>
      <trkpt lat="44.6414" lon="2.98756">
        <ele>1304</ele>
        <time>2018-05-02T08:20:27Z</time>
      </trkpt>
      <trkpt lat="44.64127" lon="2.98766">
        <ele>1304</ele>
        <time>2018-05-02T08:20:42Z</time>
      </trkpt>
      <trkpt lat="44.64097" lon="2.98801">
        <ele>1309</ele>
        <time>2018-05-02T08:21:20Z</time>
      </trkpt>
      <trkpt lat="44.64094" lon="2.98806">
        <ele>1310</ele>
        <time>2018-05-02T08:21:25Z</time>
      </trkpt>
      <trkpt lat="44.64057" lon="2.98844">
        <ele>1314</ele>
        <time>2018-05-02T08:22:08Z</time>
      </trkpt>
      <trkpt lat="44.64027" lon="2.98871">
        <ele>1316</ele>
        <time>2018-05-02T08:22:39Z</time>
      </trkpt>
      <trkpt lat="44.6393" lon="2.98936">
        <ele>1322</ele>
        <time>2018-05-02T08:24:17Z</time>
      </trkpt>
      <trkpt lat="44.63896" lon="2.9897">
        <ele>1326</ele>
        <time>2018-05-02T08:24:56Z</time>
      </trkpt>
      <trkpt lat="44.63892" lon="2.98975">
        <ele>1326</ele>
        <time>2018-05-02T08:25:01Z</time>
      </trkpt>
      <trkpt lat="44.63884" lon="2.98984">
        <ele>1326</ele>
        <time>2018-05-02T08:25:11Z</time>
      </trkpt>
      <trkpt lat="44.63854" lon="2.99008">
        <ele>1330</ele>
        <time>2018-05-02T08:25:46Z</time>
      </trkpt>
      <trkpt lat="44.6383" lon="2.99032">
        <ele>1332</ele>
        <time>2018-05-02T08:26:11Z</time>
      </trkpt>
      <trkpt lat="44.63825" lon="2.99035">
        <ele>1333</ele>
        <time>2018-05-02T08:26:16Z</time>
      </trkpt>
      <trkpt lat="44.63768" lon="2.9908">
        <ele>1339</ele>
        <time>2018-05-02T08:27:23Z</time>
      </trkpt>
      <trkpt lat="44.6376" lon="2.99082">
        <ele>1340</ele>
        <time>2018-05-02T08:27:32Z</time>
      </trkpt>
      <trkpt lat="44.6374" lon="2.99096">
        <ele>1343</ele>
        <time>2018-05-02T08:27:57Z</time>
      </trkpt>
      <trkpt lat="44.63736" lon="2.99103">
        <ele>1344</ele>
        <time>2018-05-02T08:28:04Z</time>
      </trkpt>
      <trkpt lat="44.63709" lon="2.99128">
        <ele>1348</ele>
        <time>2018-05-02T08:28:38Z</time>
      </trkpt>
      <trkpt lat="44.63685" lon="2.99155">
        <ele>1350</ele>
        <time>2018-05-02T08:29:07Z</time>
      </trkpt>
      <trkpt lat="44.63673" lon="2.99179">
        <ele>1352</ele>
        <time>2018-05-02T08:29:27Z</time>
      </trkpt>
      <trkpt lat="44.63666" lon="2.99186">
        <ele>1353</ele>
        <time>2018-05-02T08:29:59Z</time>
      </trkpt>
      <trkpt lat="44.63661" lon="2.99191">
        <ele>1354</ele>
        <time>2018-05-02T08:30:11Z</time>
      </trkpt>
      <trkpt lat="44.63655" lon="2.99194">
        <ele>1354</ele>
        <time>2018-05-02T08:30:47Z</time>
      </trkpt>
      <trkpt lat="44.63646" lon="2.99203">
        <ele>1354</ele>
        <time>2018-05-02T08:30:55Z</time>
      </trkpt>
      <trkpt lat="44.63643" lon="2.99209">
        <ele>1354</ele>
        <time>2018-05-02T08:31:00Z</time>
      </trkpt>
      <trkpt lat="44.63567" lon="2.99297">
        <ele>1357</ele>
        <time>2018-05-02T08:32:25Z</time>
      </trkpt>
      <trkpt lat="44.63565" lon="2.99303">
        <ele>1358</ele>
        <time>2018-05-02T08:32:40Z</time>
      </trkpt>
      <trkpt lat="44.63529" lon="2.99341">
        <ele>1359</ele>
        <time>2018-05-02T08:33:52Z</time>
      </trkpt>
      <trkpt lat="44.63524" lon="2.99341">
        <ele>1359</ele>
        <time>2018-05-02T08:33:57Z</time>
      </trkpt>
      <trkpt lat="44.63519" lon="2.99344">
        <ele>1360</ele>
        <time>2018-05-02T08:34:11Z</time>
      </trkpt>
      <trkpt lat="44.63516" lon="2.99351">
        <ele>1359</ele>
        <time>2018-05-02T08:34:16Z</time>
      </trkpt>
      <trkpt lat="44.63513" lon="2.99356">
        <ele>1359</ele>
        <time>2018-05-02T08:34:20Z</time>
      </trkpt>
      <trkpt lat="44.63509" lon="2.9936">
        <ele>1360</ele>
        <time>2018-05-02T08:34:24Z</time>
      </trkpt>
      <trkpt lat="44.635" lon="2.99368">
        <ele>1361</ele>
        <time>2018-05-02T08:34:34Z</time>
      </trkpt>
      <trkpt lat="44.63461" lon="2.99397">
        <ele>1362</ele>
        <time>2018-05-02T08:35:14Z</time>
      </trkpt>
      <trkpt lat="44.63423" lon="2.99412">
        <ele>1364</ele>
        <time>2018-05-02T08:35:46Z</time>
      </trkpt>
      <trkpt lat="44.63418" lon="2.99413">
        <ele>1364</ele>
        <time>2018-05-02T08:35:50Z</time>
      </trkpt>
      <trkpt lat="44.63413" lon="2.99416">
        <ele>1364</ele>
        <time>2018-05-02T08:35:54Z</time>
      </trkpt>
      <trkpt lat="44.63403" lon="2.99418">
        <ele>1365</ele>
        <time>2018-05-02T08:36:02Z</time>
      </trkpt>
      <trkpt lat="44.63394" lon="2.99425">
        <ele>1366</ele>
        <time>2018-05-02T08:36:11Z</time>
      </trkpt>
      <trkpt lat="44.63388" lon="2.99427">
        <ele>1367</ele>
        <time>2018-05-02T08:36:16Z</time>
      </trkpt>
      <trkpt lat="44.63372" lon="2.99428">
        <ele>1368</ele>
        <time>2018-05-02T08:36:32Z</time>
      </trkpt>
      <trkpt lat="44.63366" lon="2.9943">
        <ele>1368</ele>
        <time>2018-05-02T08:36:37Z</time>
      </trkpt>
      <trkpt lat="44.63348" lon="2.99421">
        <ele>1366</ele>
        <time>2018-05-02T08:36:53Z</time>
      </trkpt>
      <trkpt lat="44.63302" lon="2.99389">
        <ele>1362</ele>
        <time>2018-05-02T08:37:36Z</time>
      </trkpt>
      <trkpt lat="44.6329" lon="2.99373">
        <ele>1361</ele>
        <time>2018-05-02T08:37:49Z</time>
      </trkpt>
      <trkpt lat="44.63282" lon="2.99365">
        <ele>1361</ele>
        <time>2018-05-02T08:37:58Z</time>
      </trkpt>
      <trkpt lat="44.63253" lon="2.9935">
        <ele>1360</ele>
        <time>2018-05-02T08:38:24Z</time>
      </trkpt>
      <trkpt lat="44.63217" lon="2.9932">
        <ele>1360</ele>
        <time>2018-05-02T08:38:58Z</time>
      </trkpt>
      <trkpt lat="44.63208" lon="2.99316">
        <ele>1359</ele>
        <time>2018-05-02T08:39:06Z</time>
      </trkpt>
      <trkpt lat="44.63201" lon="2.99306">
        <ele>1360</ele>
        <time>2018-05-02T08:39:14Z</time>
      </trkpt>
      <trkpt lat="44.63196" lon="2.99305">
        <ele>1359</ele>
        <time>2018-05-02T08:39:19Z</time>
      </trkpt>
      <trkpt lat="44.63191" lon="2.99302">
        <ele>1360</ele>
        <time>2018-05-02T08:39:48Z</time>
      </trkpt>
      <trkpt lat="44.6318" lon="2.99297">
        <ele>1359</ele>
        <time>2018-05-02T08:39:56Z</time>
      </trkpt>
      <trkpt lat="44.63176" lon="2.99296">
        <ele>1359</ele>
        <time>2018-05-02T08:40:00Z</time>
      </trkpt>
      <trkpt lat="44.63093" lon="2.99231">
        <ele>1359</ele>
        <time>2018-05-02T08:41:17Z</time>
      </trkpt>
      <trkpt lat="44.63044" lon="2.99158">
        <ele>1359</ele>
        <time>2018-05-02T08:42:25Z</time>
      </trkpt>
      <trkpt lat="44.63034" lon="2.99133">
        <ele>1358</ele>
        <time>2018-05-02T08:42:42Z</time>
      </trkpt>
      <trkpt lat="44.6303" lon="2.99119">
        <ele>1358</ele>
        <time>2018-05-02T08:42:50Z</time>
      </trkpt>
      <trkpt lat="44.63008" lon="2.99065">
        <ele>1356</ele>
        <time>2018-05-02T08:43:26Z</time>
      </trkpt>
      <trkpt lat="44.62995" lon="2.99042">
        <ele>1356</ele>
        <time>2018-05-02T08:43:59Z</time>
      </trkpt>
      <trkpt lat="44.6299" lon="2.99038">
        <ele>1355</ele>
        <time>2018-05-02T08:44:04Z</time>
      </trkpt>
      <trkpt lat="44.62976" lon="2.99018">
        <ele>1353</ele>
        <time>2018-05-02T08:44:20Z</time>
      </trkpt>
      <trkpt lat="44.6297" lon="2.99007">
        <ele>1353</ele>
        <time>2018-05-02T08:44:28Z</time>
      </trkpt>
      <trkpt lat="44.62961" lon="2.98992">
        <ele>1351</ele>
        <time>2018-05-02T08:44:40Z</time>
      </trkpt>
      <trkpt lat="44.62923" lon="2.98947">
        <ele>1349</ele>
        <time>2018-05-02T08:45:20Z</time>
      </trkpt>
      <trkpt lat="44.62859" lon="2.98884">
        <ele>1348</ele>
        <time>2018-05-02T08:46:24Z</time>
      </trkpt>
      <trkpt lat="44.62823" lon="2.98862">
        <ele>1347</ele>
        <time>2018-05-02T08:46:57Z</time>
      </trkpt>
      <trkpt lat="44.62814" lon="2.98858">
        <ele>1346</ele>
        <time>2018-05-02T08:47:05Z</time>
      </trkpt>
      <trkpt lat="44.62783" lon="2.98836">
        <ele>1343</ele>
        <time>2018-05-02T08:47:36Z</time>
      </trkpt>
      <trkpt lat="44.62778" lon="2.98833">
        <ele>1343</ele>
        <time>2018-05-02T08:47:41Z</time>
      </trkpt>
      <trkpt lat="44.62774" lon="2.98829">
        <ele>1343</ele>
        <time>2018-05-02T08:47:46Z</time>
      </trkpt>
      <trkpt lat="44.62772" lon="2.98822">
        <ele>1342</ele>
        <time>2018-05-02T08:47:51Z</time>
      </trkpt>
      <trkpt lat="44.62768" lon="2.98818">
        <ele>1342</ele>
        <time>2018-05-02T08:47:56Z</time>
      </trkpt>
      <trkpt lat="44.62736" lon="2.98799">
        <ele>1337</ele>
        <time>2018-05-02T08:48:32Z</time>
      </trkpt>
      <trkpt lat="44.62733" lon="2.98793">
        <ele>1336</ele>
        <time>2018-05-02T08:48:36Z</time>
      </trkpt>
      <trkpt lat="44.62732" lon="2.98787">
        <ele>1336</ele>
        <time>2018-05-02T08:48:41Z</time>
      </trkpt>
      <trkpt lat="44.6273" lon="2.98781">
        <ele>1335</ele>
        <time>2018-05-02T08:48:46Z</time>
      </trkpt>
      <trkpt lat="44.62725" lon="2.98778">
        <ele>1335</ele>
        <time>2018-05-02T08:48:54Z</time>
      </trkpt>
      <trkpt lat="44.62719" lon="2.98783">
        <ele>1335</ele>
        <time>2018-05-02T08:49:22Z</time>
      </trkpt>
      <trkpt lat="44.62708" lon="2.98786">
        <ele>1333</ele>
        <time>2018-05-02T08:49:30Z</time>
      </trkpt>
      <trkpt lat="44.62693" lon="2.9878">
        <ele>1330</ele>
        <time>2018-05-02T08:49:41Z</time>
      </trkpt>
      <trkpt lat="44.62668" lon="2.98788">
        <ele>1324</ele>
        <time>2018-05-02T08:50:00Z</time>
      </trkpt>
      <trkpt lat="44.62664" lon="2.98787">
        <ele>1323</ele>
        <time>2018-05-02T08:50:04Z</time>
      </trkpt>
      <trkpt lat="44.62659" lon="2.98784">
        <ele>1323</ele>
        <time>2018-05-02T08:50:16Z</time>
      </trkpt>
      <trkpt lat="44.62654" lon="2.9878">
        <ele>1322</ele>
        <time>2018-05-02T08:50:20Z</time>
      </trkpt>
      <trkpt lat="44.62637" lon="2.98776">
        <ele>1319</ele>
        <time>2018-05-02T08:50:54Z</time>
      </trkpt>
      <trkpt lat="44.62633" lon="2.98771">
        <ele>1319</ele>
        <time>2018-05-02T08:50:57Z</time>
      </trkpt>
      <trkpt lat="44.62621" lon="2.98772">
        <ele>1318</ele>
        <time>2018-05-02T08:51:14Z</time>
      </trkpt>
      <trkpt lat="44.62614" lon="2.98772">
        <ele>1316</ele>
        <time>2018-05-02T08:51:32Z</time>
      </trkpt>
      <trkpt lat="44.62606" lon="2.98769">
        <ele>1316</ele>
        <time>2018-05-02T08:52:02Z</time>
      </trkpt>
      <trkpt lat="44.62602" lon="2.98764">
        <ele>1316</ele>
        <time>2018-05-02T08:52:07Z</time>
      </trkpt>
      <trkpt lat="44.62598" lon="2.98756">
        <ele>1316</ele>
        <time>2018-05-02T08:52:15Z</time>
      </trkpt>
      <trkpt lat="44.62594" lon="2.98753">
        <ele>1315</ele>
        <time>2018-05-02T08:52:34Z</time>
      </trkpt>
      <trkpt lat="44.62575" lon="2.98748">
        <ele>1311</ele>
        <time>2018-05-02T08:52:58Z</time>
      </trkpt>
      <trkpt lat="44.62563" lon="2.9875">
        <ele>1309</ele>
        <time>2018-05-02T08:53:08Z</time>
      </trkpt>
      <trkpt lat="44.62544" lon="2.98747">
        <ele>1308</ele>
        <time>2018-05-02T08:53:24Z</time>
      </trkpt>
      <trkpt lat="44.62539" lon="2.98751">
        <ele>1307</ele>
        <time>2018-05-02T08:53:32Z</time>
      </trkpt>
      <trkpt lat="44.62535" lon="2.98744">
        <ele>1307</ele>
        <time>2018-05-02T08:56:05Z</time>
      </trkpt>
      <trkpt lat="44.62519" lon="2.98738">
        <ele>1304</ele>
        <time>2018-05-02T08:56:19Z</time>
      </trkpt>
      <trkpt lat="44.62488" lon="2.98731">
        <ele>1302</ele>
        <time>2018-05-02T08:56:49Z</time>
      </trkpt>
      <trkpt lat="44.62482" lon="2.98731">
        <ele>1302</ele>
        <time>2018-05-02T08:56:54Z</time>
      </trkpt>
      <trkpt lat="44.62451" lon="2.98728">
        <ele>1302</ele>
        <time>2018-05-02T08:57:22Z</time>
      </trkpt>
      <trkpt lat="44.62447" lon="2.98728">
        <ele>1302</ele>
        <time>2018-05-02T08:57:26Z</time>
      </trkpt>
      <trkpt lat="44.62411" lon="2.98722">
        <ele>1302</ele>
        <time>2018-05-02T08:58:00Z</time>
      </trkpt>
      <trkpt lat="44.62406" lon="2.98721">
        <ele>1302</ele>
        <time>2018-05-02T08:58:05Z</time>
      </trkpt>
      <trkpt lat="44.62386" lon="2.98712">
        <ele>1303</ele>
        <time>2018-05-02T08:58:39Z</time>
      </trkpt>
      <trkpt lat="44.62381" lon="2.98709">
        <ele>1303</ele>
        <time>2018-05-02T08:58:43Z</time>
      </trkpt>
      <trkpt lat="44.62362" lon="2.98701">
        <ele>1301</ele>
        <time>2018-05-02T08:59:01Z</time>
      </trkpt>
      <trkpt lat="44.62357" lon="2.987">
        <ele>1300</ele>
        <time>2018-05-02T08:59:06Z</time>
      </trkpt>
      <trkpt lat="44.62348" lon="2.98704">
        <ele>1299</ele>
        <time>2018-05-02T08:59:14Z</time>
      </trkpt>
      <trkpt lat="44.62331" lon="2.98716">
        <ele>1297</ele>
        <time>2018-05-02T08:59:30Z</time>
      </trkpt>
      <trkpt lat="44.62324" lon="2.98726">
        <ele>1296</ele>
        <time>2018-05-02T08:59:40Z</time>
      </trkpt>
      <trkpt lat="44.62319" lon="2.98736">
        <ele>1295</ele>
        <time>2018-05-02T09:00:02Z</time>
      </trkpt>
      <trkpt lat="44.62312" lon="2.98746">
        <ele>1295</ele>
        <time>2018-05-02T09:00:11Z</time>
      </trkpt>
      <trkpt lat="44.62307" lon="2.9875">
        <ele>1294</ele>
        <time>2018-05-02T09:00:16Z</time>
      </trkpt>
      <trkpt lat="44.62303" lon="2.98747">
        <ele>1294</ele>
        <time>2018-05-02T09:00:20Z</time>
      </trkpt>
      <trkpt lat="44.6227" lon="2.98707">
        <ele>1302</ele>
        <time>2018-05-02T09:01:06Z</time>
      </trkpt>
      <trkpt lat="44.62249" lon="2.98692">
        <ele>1306</ele>
        <time>2018-05-02T09:01:42Z</time>
      </trkpt>
      <trkpt lat="44.62242" lon="2.98692">
        <ele>1307</ele>
        <time>2018-05-02T09:02:11Z</time>
      </trkpt>
      <trkpt lat="44.62238" lon="2.98691">
        <ele>1306</ele>
        <time>2018-05-02T09:02:16Z</time>
      </trkpt>
      <trkpt lat="44.62233" lon="2.98691">
        <ele>1306</ele>
        <time>2018-05-02T09:02:25Z</time>
      </trkpt>
      <trkpt lat="44.6223" lon="2.98702">
        <ele>1305</ele>
        <time>2018-05-02T09:02:43Z</time>
      </trkpt>
      <trkpt lat="44.6223" lon="2.98705">
        <ele>1303</ele>
        <time>2018-05-02T09:03:07Z</time>
      </trkpt>
      <trkpt lat="44.62224" lon="2.98714">
        <ele>1301</ele>
        <time>2018-05-02T09:03:20Z</time>
      </trkpt>
      <trkpt lat="44.62227" lon="2.98719">
        <ele>1301</ele>
        <time>2018-05-02T09:03:48Z</time>
      </trkpt>
      <trkpt lat="44.62219" lon="2.98721">
        <ele>1301</ele>
        <time>2018-05-02T09:12:42Z</time>
      </trkpt>
      <trkpt lat="44.62217" lon="2.98716">
        <ele>1301</ele>
        <time>2018-05-02T09:12:47Z</time>
      </trkpt>
      <trkpt lat="44.62214" lon="2.98715">
        <ele>1302</ele>
        <time>2018-05-02T09:13:13Z</time>
      </trkpt>
      <trkpt lat="44.6221" lon="2.98704">
        <ele>1303</ele>
        <time>2018-05-02T09:13:42Z</time>
      </trkpt>
      <trkpt lat="44.62211" lon="2.98697">
        <ele>1303</ele>
        <time>2018-05-02T09:13:46Z</time>
      </trkpt>
      <trkpt lat="44.62209" lon="2.98689">
        <ele>1304</ele>
        <time>2018-05-02T09:13:53Z</time>
      </trkpt>
      <trkpt lat="44.6221" lon="2.9869">
        <ele>1305</ele>
        <time>2018-05-02T09:14:21Z</time>
      </trkpt>
      <trkpt lat="44.62213" lon="2.98695">
        <ele>1305</ele>
        <time>2018-05-02T09:14:35Z</time>
      </trkpt>
      <trkpt lat="44.62213" lon="2.9871">
        <ele>1303</ele>
        <time>2018-05-02T09:14:43Z</time>
      </trkpt>
      <trkpt lat="44.62214" lon="2.9871">
        <ele>1301</ele>
        <time>2018-05-02T09:15:53Z</time>
      </trkpt>
      <trkpt lat="44.62209" lon="2.98697">
        <ele>1302</ele>
        <time>2018-05-02T09:16:01Z</time>
      </trkpt>
      <trkpt lat="44.62206" lon="2.98691">
        <ele>1303</ele>
        <time>2018-05-02T09:16:05Z</time>
      </trkpt>
      <trkpt lat="44.62211" lon="2.98682">
        <ele>1304</ele>
        <time>2018-05-02T09:16:16Z</time>
      </trkpt>
      <trkpt lat="44.62205" lon="2.98672">
        <ele>1304</ele>
        <time>2018-05-02T09:16:33Z</time>
      </trkpt>
      <trkpt lat="44.62201" lon="2.98664">
        <ele>1304</ele>
        <time>2018-05-02T09:16:39Z</time>
      </trkpt>
      <trkpt lat="44.62197" lon="2.9865">
        <ele>1305</ele>
        <time>2018-05-02T09:16:48Z</time>
      </trkpt>
      <trkpt lat="44.62193" lon="2.98647">
        <ele>1305</ele>
        <time>2018-05-02T09:16:52Z</time>
      </trkpt>
      <trkpt lat="44.62181" lon="2.98661">
        <ele>1305</ele>
        <time>2018-05-02T09:17:05Z</time>
      </trkpt>
      <trkpt lat="44.62173" lon="2.98669">
        <ele>1304</ele>
        <time>2018-05-02T09:17:14Z</time>
      </trkpt>
      <trkpt lat="44.62164" lon="2.98685">
        <ele>1302</ele>
        <time>2018-05-02T09:17:29Z</time>
      </trkpt>
      <trkpt lat="44.6216" lon="2.9869">
        <ele>1302</ele>
        <time>2018-05-02T09:17:34Z</time>
      </trkpt>
      <trkpt lat="44.62149" lon="2.98721">
        <ele>1300</ele>
        <time>2018-05-02T09:18:03Z</time>
      </trkpt>
      <trkpt lat="44.62141" lon="2.9875">
        <ele>1298</ele>
        <time>2018-05-02T09:18:43Z</time>
      </trkpt>
      <trkpt lat="44.62141" lon="2.98754">
        <ele>1298</ele>
        <time>2018-05-02T09:19:55Z</time>
      </trkpt>
      <trkpt lat="44.62146" lon="2.9877">
        <ele>1298</ele>
        <time>2018-05-02T09:20:37Z</time>
      </trkpt>
      <trkpt lat="44.62143" lon="2.98775">
        <ele>1301</ele>
        <time>2018-05-02T09:25:22Z</time>
      </trkpt>
      <trkpt lat="44.62143" lon="2.98769">
        <ele>1304</ele>
        <time>2018-05-02T10:28:39Z</time>
      </trkpt>
      <trkpt lat="44.62141" lon="2.9876">
        <ele>1305</ele>
        <time>2018-05-02T10:30:27Z</time>
      </trkpt>
      <trkpt lat="44.62134" lon="2.9876">
        <ele>1304</ele>
        <time>2018-05-02T10:30:50Z</time>
      </trkpt>
      <trkpt lat="44.62138" lon="2.98753">
        <ele>1305</ele>
        <time>2018-05-02T10:31:33Z</time>
      </trkpt>
      <trkpt lat="44.62143" lon="2.98739">
        <ele>1305</ele>
        <time>2018-05-02T10:31:44Z</time>
      </trkpt>
      <trkpt lat="44.6215" lon="2.98725">
        <ele>1307</ele>
        <time>2018-05-02T10:32:02Z</time>
      </trkpt>
      <trkpt lat="44.62149" lon="2.98716">
        <ele>1307</ele>
        <time>2018-05-02T10:32:44Z</time>
      </trkpt>
      <trkpt lat="44.62152" lon="2.98711">
        <ele>1307</ele>
        <time>2018-05-02T10:32:49Z</time>
      </trkpt>
      <trkpt lat="44.62155" lon="2.98687">
        <ele>1308</ele>
        <time>2018-05-02T10:33:08Z</time>
      </trkpt>
      <trkpt lat="44.62168" lon="2.98677">
        <ele>1309</ele>
        <time>2018-05-02T10:33:36Z</time>
      </trkpt>
      <trkpt lat="44.62177" lon="2.9866">
        <ele>1310</ele>
        <time>2018-05-02T10:33:51Z</time>
      </trkpt>
      <trkpt lat="44.6218" lon="2.98651">
        <ele>1311</ele>
        <time>2018-05-02T10:33:59Z</time>
      </trkpt>
      <trkpt lat="44.62186" lon="2.98639">
        <ele>1312</ele>
        <time>2018-05-02T10:34:18Z</time>
      </trkpt>
      <trkpt lat="44.62186" lon="2.98629">
        <ele>1313</ele>
        <time>2018-05-02T10:34:31Z</time>
      </trkpt>
      <trkpt lat="44.62183" lon="2.98622">
        <ele>1312</ele>
        <time>2018-05-02T10:34:55Z</time>
      </trkpt>
      <trkpt lat="44.6218" lon="2.98616">
        <ele>1312</ele>
        <time>2018-05-02T10:35:00Z</time>
      </trkpt>
      <trkpt lat="44.6218" lon="2.98592">
        <ele>1313</ele>
        <time>2018-05-02T10:35:14Z</time>
      </trkpt>
      <trkpt lat="44.62182" lon="2.98585">
        <ele>1313</ele>
        <time>2018-05-02T10:35:18Z</time>
      </trkpt>
      <trkpt lat="44.6218" lon="2.98579">
        <ele>1313</ele>
        <time>2018-05-02T10:35:23Z</time>
      </trkpt>
      <trkpt lat="44.62175" lon="2.98569">
        <ele>1313</ele>
        <time>2018-05-02T10:36:17Z</time>
      </trkpt>
      <trkpt lat="44.62172" lon="2.98564">
        <ele>1313</ele>
        <time>2018-05-02T10:36:21Z</time>
      </trkpt>
      <trkpt lat="44.62171" lon="2.98548">
        <ele>1313</ele>
        <time>2018-05-02T10:36:31Z</time>
      </trkpt>
      <trkpt lat="44.6216" lon="2.98502">
        <ele>1314</ele>
        <time>2018-05-02T10:37:05Z</time>
      </trkpt>
      <trkpt lat="44.6215" lon="2.98474">
        <ele>1315</ele>
        <time>2018-05-02T10:37:27Z</time>
      </trkpt>
      <trkpt lat="44.62143" lon="2.98419">
        <ele>1316</ele>
        <time>2018-05-02T10:38:01Z</time>
      </trkpt>
      <trkpt lat="44.62128" lon="2.98388">
        <ele>1317</ele>
        <time>2018-05-02T10:38:26Z</time>
      </trkpt>
      <trkpt lat="44.62124" lon="2.98383">
        <ele>1317</ele>
        <time>2018-05-02T10:38:31Z</time>
      </trkpt>
      <trkpt lat="44.62117" lon="2.98383">
        <ele>1317</ele>
        <time>2018-05-02T10:38:38Z</time>
      </trkpt>
      <trkpt lat="44.62112" lon="2.98381">
        <ele>1317</ele>
        <time>2018-05-02T10:38:43Z</time>
      </trkpt>
      <trkpt lat="44.62095" lon="2.98355">
        <ele>1318</ele>
        <time>2018-05-02T10:39:06Z</time>
      </trkpt>
      <trkpt lat="44.62065" lon="2.98261">
        <ele>1320</ele>
        <time>2018-05-02T10:40:14Z</time>
      </trkpt>
      <trkpt lat="44.62052" lon="2.98239">
        <ele>1320</ele>
        <time>2018-05-02T10:40:32Z</time>
      </trkpt>
      <trkpt lat="44.62028" lon="2.98217">
        <ele>1319</ele>
        <time>2018-05-02T10:40:57Z</time>
      </trkpt>
      <trkpt lat="44.6202" lon="2.98207">
        <ele>1318</ele>
        <time>2018-05-02T10:41:06Z</time>
      </trkpt>
      <trkpt lat="44.62017" lon="2.98202">
        <ele>1318</ele>
        <time>2018-05-02T10:41:10Z</time>
      </trkpt>
      <trkpt lat="44.6199" lon="2.98171">
        <ele>1317</ele>
        <time>2018-05-02T10:41:41Z</time>
      </trkpt>
      <trkpt lat="44.61986" lon="2.98165">
        <ele>1316</ele>
        <time>2018-05-02T10:41:46Z</time>
      </trkpt>
      <trkpt lat="44.61981" lon="2.98151">
        <ele>1316</ele>
        <time>2018-05-02T10:42:22Z</time>
      </trkpt>
      <trkpt lat="44.6198" lon="2.98145">
        <ele>1316</ele>
        <time>2018-05-02T10:42:26Z</time>
      </trkpt>
      <trkpt lat="44.61917" lon="2.9789">
        <ele>1312</ele>
        <time>2018-05-02T10:45:28Z</time>
      </trkpt>
      <trkpt lat="44.61913" lon="2.97862">
        <ele>1309</ele>
        <time>2018-05-02T10:46:21Z</time>
      </trkpt>
      <trkpt lat="44.61895" lon="2.97809">
        <ele>1306</ele>
        <time>2018-05-02T10:46:47Z</time>
      </trkpt>
      <trkpt lat="44.61892" lon="2.97804">
        <ele>1306</ele>
        <time>2018-05-02T10:46:52Z</time>
      </trkpt>
      <trkpt lat="44.61885" lon="2.97759">
        <ele>1306</ele>
        <time>2018-05-02T10:47:53Z</time>
      </trkpt>
      <trkpt lat="44.61883" lon="2.97753">
        <ele>1305</ele>
        <time>2018-05-02T10:48:02Z</time>
      </trkpt>
      <trkpt lat="44.61878" lon="2.97743">
        <ele>1304</ele>
        <time>2018-05-02T10:48:13Z</time>
      </trkpt>
      <trkpt lat="44.61874" lon="2.97738">
        <ele>1304</ele>
        <time>2018-05-02T10:49:30Z</time>
      </trkpt>
      <trkpt lat="44.61872" lon="2.97733">
        <ele>1303</ele>
        <time>2018-05-02T10:49:33Z</time>
      </trkpt>
      <trkpt lat="44.6187" lon="2.97716">
        <ele>1302</ele>
        <time>2018-05-02T10:49:44Z</time>
      </trkpt>
      <trkpt lat="44.61867" lon="2.9771">
        <ele>1301</ele>
        <time>2018-05-02T10:49:49Z</time>
      </trkpt>
      <trkpt lat="44.61845" lon="2.9763">
        <ele>1300</ele>
        <time>2018-05-02T10:50:44Z</time>
      </trkpt>
      <trkpt lat="44.61811" lon="2.97546">
        <ele>1299</ele>
        <time>2018-05-02T10:51:41Z</time>
      </trkpt>
      <trkpt lat="44.61795" lon="2.97519">
        <ele>1297</ele>
        <time>2018-05-02T10:52:18Z</time>
      </trkpt>
      <trkpt lat="44.61789" lon="2.97514">
        <ele>1297</ele>
        <time>2018-05-02T10:52:25Z</time>
      </trkpt>
      <trkpt lat="44.61784" lon="2.97515">
        <ele>1297</ele>
        <time>2018-05-02T10:52:30Z</time>
      </trkpt>
      <trkpt lat="44.6178" lon="2.97511">
        <ele>1296</ele>
        <time>2018-05-02T10:52:35Z</time>
      </trkpt>
      <trkpt lat="44.61778" lon="2.97503">
        <ele>1295</ele>
        <time>2018-05-02T10:52:41Z</time>
      </trkpt>
      <trkpt lat="44.61777" lon="2.97497">
        <ele>1294</ele>
        <time>2018-05-02T10:52:45Z</time>
      </trkpt>
      <trkpt lat="44.61778" lon="2.97482">
        <ele>1293</ele>
        <time>2018-05-02T10:52:54Z</time>
      </trkpt>
      <trkpt lat="44.61776" lon="2.97454">
        <ele>1291</ele>
        <time>2018-05-02T10:53:11Z</time>
      </trkpt>
      <trkpt lat="44.6178" lon="2.97442">
        <ele>1289</ele>
        <time>2018-05-02T10:53:22Z</time>
      </trkpt>
      <trkpt lat="44.61783" lon="2.97436">
        <ele>1288</ele>
        <time>2018-05-02T10:53:27Z</time>
      </trkpt>
      <trkpt lat="44.61786" lon="2.97416">
        <ele>1287</ele>
        <time>2018-05-02T10:53:42Z</time>
      </trkpt>
      <trkpt lat="44.61792" lon="2.97406">
        <ele>1286</ele>
        <time>2018-05-02T10:54:02Z</time>
      </trkpt>
      <trkpt lat="44.61842" lon="2.97285">
        <ele>1269</ele>
        <time>2018-05-02T10:55:35Z</time>
      </trkpt>
      <trkpt lat="44.61849" lon="2.97251">
        <ele>1265</ele>
        <time>2018-05-02T10:55:57Z</time>
      </trkpt>
      <trkpt lat="44.61848" lon="2.97244">
        <ele>1265</ele>
        <time>2018-05-02T10:56:01Z</time>
      </trkpt>
      <trkpt lat="44.61849" lon="2.97231">
        <ele>1263</ele>
        <time>2018-05-02T10:56:10Z</time>
      </trkpt>
      <trkpt lat="44.61838" lon="2.97198">
        <ele>1260</ele>
        <time>2018-05-02T10:56:32Z</time>
      </trkpt>
      <trkpt lat="44.61825" lon="2.9717">
        <ele>1258</ele>
        <time>2018-05-02T10:56:49Z</time>
      </trkpt>
      <trkpt lat="44.61817" lon="2.97135">
        <ele>1257</ele>
        <time>2018-05-02T10:57:10Z</time>
      </trkpt>
      <trkpt lat="44.61818" lon="2.97124">
        <ele>1257</ele>
        <time>2018-05-02T10:57:17Z</time>
      </trkpt>
      <trkpt lat="44.61816" lon="2.97097">
        <ele>1256</ele>
        <time>2018-05-02T10:57:31Z</time>
      </trkpt>
      <trkpt lat="44.61815" lon="2.9709">
        <ele>1256</ele>
        <time>2018-05-02T10:57:35Z</time>
      </trkpt>
      <trkpt lat="44.6181" lon="2.97047">
        <ele>1255</ele>
        <time>2018-05-02T10:58:01Z</time>
      </trkpt>
      <trkpt lat="44.61802" lon="2.97007">
        <ele>1252</ele>
        <time>2018-05-02T10:58:25Z</time>
      </trkpt>
      <trkpt lat="44.61801" lon="2.96986">
        <ele>1250</ele>
        <time>2018-05-02T10:58:38Z</time>
      </trkpt>
      <trkpt lat="44.61798" lon="2.96973">
        <ele>1249</ele>
        <time>2018-05-02T10:58:47Z</time>
      </trkpt>
      <trkpt lat="44.61782" lon="2.9694">
        <ele>1245</ele>
        <time>2018-05-02T10:59:14Z</time>
      </trkpt>
      <trkpt lat="44.61776" lon="2.96914">
        <ele>1242</ele>
        <time>2018-05-02T10:59:32Z</time>
      </trkpt>
      <trkpt lat="44.61775" lon="2.96907">
        <ele>1241</ele>
        <time>2018-05-02T10:59:36Z</time>
      </trkpt>
      <trkpt lat="44.61777" lon="2.96888">
        <ele>1239</ele>
        <time>2018-05-02T10:59:51Z</time>
      </trkpt>
      <trkpt lat="44.61776" lon="2.96881">
        <ele>1239</ele>
        <time>2018-05-02T11:00:06Z</time>
      </trkpt>
      <trkpt lat="44.61768" lon="2.96856">
        <ele>1241</ele>
        <time>2018-05-02T11:00:30Z</time>
      </trkpt>
      <trkpt lat="44.61762" lon="2.96849">
        <ele>1242</ele>
        <time>2018-05-02T11:00:41Z</time>
      </trkpt>
      <trkpt lat="44.61738" lon="2.96833">
        <ele>1243</ele>
        <time>2018-05-02T11:01:02Z</time>
      </trkpt>
      <trkpt lat="44.61694" lon="2.96792">
        <ele>1242</ele>
        <time>2018-05-02T11:01:50Z</time>
      </trkpt>
      <trkpt lat="44.61684" lon="2.96787">
        <ele>1241</ele>
        <time>2018-05-02T11:01:58Z</time>
      </trkpt>
      <trkpt lat="44.61671" lon="2.96773">
        <ele>1240</ele>
        <time>2018-05-02T11:02:11Z</time>
      </trkpt>
      <trkpt lat="44.61644" lon="2.96755">
        <ele>1238</ele>
        <time>2018-05-02T11:02:32Z</time>
      </trkpt>
      <trkpt lat="44.61632" lon="2.9674">
        <ele>1237</ele>
        <time>2018-05-02T11:02:44Z</time>
      </trkpt>
      <trkpt lat="44.61628" lon="2.96737">
        <ele>1236</ele>
        <time>2018-05-02T11:02:48Z</time>
      </trkpt>
      <trkpt lat="44.6162" lon="2.96727">
        <ele>1236</ele>
        <time>2018-05-02T11:02:56Z</time>
      </trkpt>
      <trkpt lat="44.61604" lon="2.9671">
        <ele>1234</ele>
        <time>2018-05-02T11:03:13Z</time>
      </trkpt>
      <trkpt lat="44.61596" lon="2.96699">
        <ele>1233</ele>
        <time>2018-05-02T11:03:22Z</time>
      </trkpt>
      <trkpt lat="44.61582" lon="2.96688">
        <ele>1232</ele>
        <time>2018-05-02T11:03:34Z</time>
      </trkpt>
      <trkpt lat="44.61573" lon="2.96679">
        <ele>1231</ele>
        <time>2018-05-02T11:03:43Z</time>
      </trkpt>
      <trkpt lat="44.61561" lon="2.9667">
        <ele>1229</ele>
        <time>2018-05-02T11:03:55Z</time>
      </trkpt>
      <trkpt lat="44.61551" lon="2.96666">
        <ele>1228</ele>
        <time>2018-05-02T11:04:08Z</time>
      </trkpt>
      <trkpt lat="44.61506" lon="2.96635">
        <ele>1223</ele>
        <time>2018-05-02T11:04:49Z</time>
      </trkpt>
      <trkpt lat="44.615" lon="2.9663">
        <ele>1222</ele>
        <time>2018-05-02T11:04:56Z</time>
      </trkpt>
      <trkpt lat="44.61495" lon="2.96627">
        <ele>1221</ele>
        <time>2018-05-02T11:05:01Z</time>
      </trkpt>
      <trkpt lat="44.61475" lon="2.96604">
        <ele>1219</ele>
        <time>2018-05-02T11:05:21Z</time>
      </trkpt>
      <trkpt lat="44.61462" lon="2.96595">
        <ele>1218</ele>
        <time>2018-05-02T11:05:37Z</time>
      </trkpt>
      <trkpt lat="44.61448" lon="2.96575">
        <ele>1216</ele>
        <time>2018-05-02T11:05:53Z</time>
      </trkpt>
      <trkpt lat="44.61444" lon="2.96571">
        <ele>1216</ele>
        <time>2018-05-02T11:05:57Z</time>
      </trkpt>
      <trkpt lat="44.61438" lon="2.96559">
        <ele>1215</ele>
        <time>2018-05-02T11:06:06Z</time>
      </trkpt>
      <trkpt lat="44.61429" lon="2.96551">
        <ele>1214</ele>
        <time>2018-05-02T11:06:14Z</time>
      </trkpt>
      <trkpt lat="44.61426" lon="2.96546">
        <ele>1214</ele>
        <time>2018-05-02T11:06:18Z</time>
      </trkpt>
      <trkpt lat="44.61405" lon="2.96533">
        <ele>1212</ele>
        <time>2018-05-02T11:06:36Z</time>
      </trkpt>
      <trkpt lat="44.61371" lon="2.96529">
        <ele>1210</ele>
        <time>2018-05-02T11:07:11Z</time>
      </trkpt>
      <trkpt lat="44.6135" lon="2.96521">
        <ele>1209</ele>
        <time>2018-05-02T11:07:28Z</time>
      </trkpt>
      <trkpt lat="44.61318" lon="2.96517">
        <ele>1208</ele>
        <time>2018-05-02T11:07:51Z</time>
      </trkpt>
      <trkpt lat="44.61313" lon="2.96512">
        <ele>1208</ele>
        <time>2018-05-02T11:07:55Z</time>
      </trkpt>
      <trkpt lat="44.61297" lon="2.96503">
        <ele>1206</ele>
        <time>2018-05-02T11:08:07Z</time>
      </trkpt>
      <trkpt lat="44.61288" lon="2.965">
        <ele>1205</ele>
        <time>2018-05-02T11:08:15Z</time>
      </trkpt>
      <trkpt lat="44.61284" lon="2.96495">
        <ele>1205</ele>
        <time>2018-05-02T11:08:19Z</time>
      </trkpt>
      <trkpt lat="44.61274" lon="2.96494">
        <ele>1204</ele>
        <time>2018-05-02T11:08:28Z</time>
      </trkpt>
      <trkpt lat="44.61269" lon="2.96495">
        <ele>1203</ele>
        <time>2018-05-02T11:08:32Z</time>
      </trkpt>
      <trkpt lat="44.61263" lon="2.96494">
        <ele>1203</ele>
        <time>2018-05-02T11:08:40Z</time>
      </trkpt>
      <trkpt lat="44.61258" lon="2.96497">
        <ele>1203</ele>
        <time>2018-05-02T11:09:17Z</time>
      </trkpt>
      <trkpt lat="44.61253" lon="2.96495">
        <ele>1203</ele>
        <time>2018-05-02T11:09:22Z</time>
      </trkpt>
      <trkpt lat="44.61248" lon="2.96492">
        <ele>1203</ele>
        <time>2018-05-02T11:09:27Z</time>
      </trkpt>
      <trkpt lat="44.6123" lon="2.96485">
        <ele>1201</ele>
        <time>2018-05-02T11:09:48Z</time>
      </trkpt>
      <trkpt lat="44.612" lon="2.96477">
        <ele>1200</ele>
        <time>2018-05-02T11:10:11Z</time>
      </trkpt>
      <trkpt lat="44.61195" lon="2.96474">
        <ele>1200</ele>
        <time>2018-05-02T11:10:16Z</time>
      </trkpt>
      <trkpt lat="44.61185" lon="2.96471">
        <ele>1199</ele>
        <time>2018-05-02T11:10:25Z</time>
      </trkpt>
      <trkpt lat="44.61176" lon="2.96466">
        <ele>1199</ele>
        <time>2018-05-02T11:10:33Z</time>
      </trkpt>
      <trkpt lat="44.61165" lon="2.96468">
        <ele>1198</ele>
        <time>2018-05-02T11:10:40Z</time>
      </trkpt>
      <trkpt lat="44.61155" lon="2.96464">
        <ele>1197</ele>
        <time>2018-05-02T11:10:47Z</time>
      </trkpt>
      <trkpt lat="44.61111" lon="2.96451">
        <ele>1196</ele>
        <time>2018-05-02T11:11:23Z</time>
      </trkpt>
      <trkpt lat="44.61106" lon="2.96448">
        <ele>1197</ele>
        <time>2018-05-02T11:11:27Z</time>
      </trkpt>
      <trkpt lat="44.61096" lon="2.96444">
        <ele>1197</ele>
        <time>2018-05-02T11:11:35Z</time>
      </trkpt>
      <trkpt lat="44.61091" lon="2.96441">
        <ele>1197</ele>
        <time>2018-05-02T11:11:39Z</time>
      </trkpt>
      <trkpt lat="44.61086" lon="2.9644">
        <ele>1197</ele>
        <time>2018-05-02T11:11:44Z</time>
      </trkpt>
      <trkpt lat="44.61076" lon="2.9644">
        <ele>1197</ele>
        <time>2018-05-02T11:11:52Z</time>
      </trkpt>
      <trkpt lat="44.61045" lon="2.96429">
        <ele>1196</ele>
        <time>2018-05-02T11:12:17Z</time>
      </trkpt>
      <trkpt lat="44.61035" lon="2.96422">
        <ele>1196</ele>
        <time>2018-05-02T11:12:24Z</time>
      </trkpt>
      <trkpt lat="44.61032" lon="2.96416">
        <ele>1196</ele>
        <time>2018-05-02T11:12:27Z</time>
      </trkpt>
      <trkpt lat="44.61028" lon="2.96404">
        <ele>1197</ele>
        <time>2018-05-02T11:12:35Z</time>
      </trkpt>
      <trkpt lat="44.61014" lon="2.96302">
        <ele>1199</ele>
        <time>2018-05-02T11:13:57Z</time>
      </trkpt>
      <trkpt lat="44.61003" lon="2.96256">
        <ele>1196</ele>
        <time>2018-05-02T11:14:25Z</time>
      </trkpt>
      <trkpt lat="44.60996" lon="2.96236">
        <ele>1196</ele>
        <time>2018-05-02T11:14:41Z</time>
      </trkpt>
      <trkpt lat="44.60971" lon="2.96134">
        <ele>1194</ele>
        <time>2018-05-02T11:15:43Z</time>
      </trkpt>
      <trkpt lat="44.60953" lon="2.96108">
        <ele>1194</ele>
        <time>2018-05-02T11:16:04Z</time>
      </trkpt>
      <trkpt lat="44.60948" lon="2.96104">
        <ele>1195</ele>
        <time>2018-05-02T11:16:29Z</time>
      </trkpt>
      <trkpt lat="44.60921" lon="2.96087">
        <ele>1195</ele>
        <time>2018-05-02T11:16:53Z</time>
      </trkpt>
      <trkpt lat="44.60911" lon="2.96084">
        <ele>1195</ele>
        <time>2018-05-02T11:17:02Z</time>
      </trkpt>
      <trkpt lat="44.60887" lon="2.96083">
        <ele>1194</ele>
        <time>2018-05-02T11:17:22Z</time>
      </trkpt>
      <trkpt lat="44.60883" lon="2.96081">
        <ele>1194</ele>
        <time>2018-05-02T11:17:26Z</time>
      </trkpt>
      <trkpt lat="44.60875" lon="2.96073">
        <ele>1194</ele>
        <time>2018-05-02T11:17:35Z</time>
      </trkpt>
      <trkpt lat="44.60857" lon="2.9605">
        <ele>1195</ele>
        <time>2018-05-02T11:17:55Z</time>
      </trkpt>
      <trkpt lat="44.60846" lon="2.96027">
        <ele>1197</ele>
        <time>2018-05-02T11:18:13Z</time>
      </trkpt>
      <trkpt lat="44.60844" lon="2.9602">
        <ele>1197</ele>
        <time>2018-05-02T11:18:18Z</time>
      </trkpt>
      <trkpt lat="44.60843" lon="2.96005">
        <ele>1198</ele>
        <time>2018-05-02T11:18:27Z</time>
      </trkpt>
      <trkpt lat="44.60843" lon="2.95998">
        <ele>1198</ele>
        <time>2018-05-02T11:18:32Z</time>
      </trkpt>
      <trkpt lat="44.60842" lon="2.95988">
        <ele>1199</ele>
        <time>2018-05-02T11:18:42Z</time>
      </trkpt>
      <trkpt lat="44.60844" lon="2.95953">
        <ele>1200</ele>
        <time>2018-05-02T11:19:03Z</time>
      </trkpt>
      <trkpt lat="44.60842" lon="2.95946">
        <ele>1200</ele>
        <time>2018-05-02T11:19:08Z</time>
      </trkpt>
      <trkpt lat="44.6084" lon="2.9594">
        <ele>1201</ele>
        <time>2018-05-02T11:19:30Z</time>
      </trkpt>
      <trkpt lat="44.60837" lon="2.95915">
        <ele>1200</ele>
        <time>2018-05-02T11:19:51Z</time>
      </trkpt>
      <trkpt lat="44.6083" lon="2.95894">
        <ele>1199</ele>
        <time>2018-05-02T11:20:03Z</time>
      </trkpt>
      <trkpt lat="44.60828" lon="2.95889">
        <ele>1199</ele>
        <time>2018-05-02T11:20:07Z</time>
      </trkpt>
      <trkpt lat="44.60818" lon="2.95872">
        <ele>1198</ele>
        <time>2018-05-02T11:20:19Z</time>
      </trkpt>
      <trkpt lat="44.60813" lon="2.95859">
        <ele>1196</ele>
        <time>2018-05-02T11:20:28Z</time>
      </trkpt>
      <trkpt lat="44.60785" lon="2.95825">
        <ele>1193</ele>
        <time>2018-05-02T11:20:58Z</time>
      </trkpt>
      <trkpt lat="44.6078" lon="2.95812">
        <ele>1193</ele>
        <time>2018-05-02T11:21:06Z</time>
      </trkpt>
      <trkpt lat="44.6077" lon="2.95771">
        <ele>1191</ele>
        <time>2018-05-02T11:21:30Z</time>
      </trkpt>
      <trkpt lat="44.60754" lon="2.95745">
        <ele>1189</ele>
        <time>2018-05-02T11:21:51Z</time>
      </trkpt>
      <trkpt lat="44.60752" lon="2.95738">
        <ele>1189</ele>
        <time>2018-05-02T11:22:26Z</time>
      </trkpt>
      <trkpt lat="44.60748" lon="2.95734">
        <ele>1190</ele>
        <time>2018-05-02T11:23:38Z</time>
      </trkpt>
      <trkpt lat="44.60729" lon="2.95731">
        <ele>1189</ele>
        <time>2018-05-02T11:23:54Z</time>
      </trkpt>
      <trkpt lat="44.60722" lon="2.95731">
        <ele>1188</ele>
        <time>2018-05-02T11:24:02Z</time>
      </trkpt>
      <trkpt lat="44.60712" lon="2.95728">
        <ele>1187</ele>
        <time>2018-05-02T11:24:12Z</time>
      </trkpt>
      <trkpt lat="44.60681" lon="2.9572">
        <ele>1185</ele>
        <time>2018-05-02T11:24:38Z</time>
      </trkpt>
      <trkpt lat="44.60661" lon="2.95711">
        <ele>1183</ele>
        <time>2018-05-02T11:24:55Z</time>
      </trkpt>
      <trkpt lat="44.60652" lon="2.95704">
        <ele>1182</ele>
        <time>2018-05-02T11:25:04Z</time>
      </trkpt>
      <trkpt lat="44.60638" lon="2.95695">
        <ele>1181</ele>
        <time>2018-05-02T11:25:16Z</time>
      </trkpt>
      <trkpt lat="44.60625" lon="2.95684">
        <ele>1179</ele>
        <time>2018-05-02T11:25:29Z</time>
      </trkpt>
      <trkpt lat="44.60601" lon="2.95669">
        <ele>1176</ele>
        <time>2018-05-02T11:25:51Z</time>
      </trkpt>
      <trkpt lat="44.60596" lon="2.95665">
        <ele>1176</ele>
        <time>2018-05-02T11:25:56Z</time>
      </trkpt>
      <trkpt lat="44.60592" lon="2.95663">
        <ele>1175</ele>
        <time>2018-05-02T11:26:00Z</time>
      </trkpt>
      <trkpt lat="44.60575" lon="2.95649">
        <ele>1173</ele>
        <time>2018-05-02T11:26:17Z</time>
      </trkpt>
      <trkpt lat="44.60565" lon="2.95633">
        <ele>1171</ele>
        <time>2018-05-02T11:26:52Z</time>
      </trkpt>
      <trkpt lat="44.6056" lon="2.9563">
        <ele>1170</ele>
        <time>2018-05-02T11:26:57Z</time>
      </trkpt>
      <trkpt lat="44.60556" lon="2.95626">
        <ele>1169</ele>
        <time>2018-05-02T11:27:02Z</time>
      </trkpt>
      <trkpt lat="44.60553" lon="2.95614">
        <ele>1168</ele>
        <time>2018-05-02T11:27:59Z</time>
      </trkpt>
      <trkpt lat="44.60556" lon="2.95575">
        <ele>1164</ele>
        <time>2018-05-02T11:28:36Z</time>
      </trkpt>
      <trkpt lat="44.60558" lon="2.95567">
        <ele>1164</ele>
        <time>2018-05-02T11:28:41Z</time>
      </trkpt>
      <trkpt lat="44.60552" lon="2.95535">
        <ele>1161</ele>
        <time>2018-05-02T11:29:04Z</time>
      </trkpt>
      <trkpt lat="44.60548" lon="2.95532">
        <ele>1160</ele>
        <time>2018-05-02T11:29:09Z</time>
      </trkpt>
      <trkpt lat="44.60543" lon="2.9553">
        <ele>1159</ele>
        <time>2018-05-02T11:29:14Z</time>
      </trkpt>
      <trkpt lat="44.60537" lon="2.95525">
        <ele>1158</ele>
        <time>2018-05-02T11:29:22Z</time>
      </trkpt>
      <trkpt lat="44.60533" lon="2.95524">
        <ele>1158</ele>
        <time>2018-05-02T11:29:27Z</time>
      </trkpt>
      <trkpt lat="44.60526" lon="2.95525">
        <ele>1157</ele>
        <time>2018-05-02T11:29:35Z</time>
      </trkpt>
      <trkpt lat="44.60493" lon="2.95509">
        <ele>1154</ele>
        <time>2018-05-02T11:30:07Z</time>
      </trkpt>
      <trkpt lat="44.60461" lon="2.95489">
        <ele>1152</ele>
        <time>2018-05-02T11:30:38Z</time>
      </trkpt>
      <trkpt lat="44.60457" lon="2.95483">
        <ele>1151</ele>
        <time>2018-05-02T11:30:43Z</time>
      </trkpt>
      <trkpt lat="44.60454" lon="2.95477">
        <ele>1151</ele>
        <time>2018-05-02T11:30:48Z</time>
      </trkpt>
      <trkpt lat="44.6045" lon="2.95463">
        <ele>1150</ele>
        <time>2018-05-02T11:30:58Z</time>
      </trkpt>
      <trkpt lat="44.60444" lon="2.95461">
        <ele>1150</ele>
        <time>2018-05-02T11:31:16Z</time>
      </trkpt>
      <trkpt lat="44.60436" lon="2.95469">
        <ele>1149</ele>
        <time>2018-05-02T11:31:25Z</time>
      </trkpt>
      <trkpt lat="44.60408" lon="2.95487">
        <ele>1147</ele>
        <time>2018-05-02T11:31:53Z</time>
      </trkpt>
      <trkpt lat="44.60398" lon="2.95495">
        <ele>1145</ele>
        <time>2018-05-02T11:32:13Z</time>
      </trkpt>
      <trkpt lat="44.60396" lon="2.95503">
        <ele>1143</ele>
        <time>2018-05-02T11:32:25Z</time>
      </trkpt>
      <trkpt lat="44.60398" lon="2.95509">
        <ele>1142</ele>
        <time>2018-05-02T11:32:37Z</time>
      </trkpt>
      <trkpt lat="44.60404" lon="2.95525">
        <ele>1139</ele>
        <time>2018-05-02T11:33:01Z</time>
      </trkpt>
      <trkpt lat="44.60415" lon="2.95538">
        <ele>1136</ele>
        <time>2018-05-02T11:33:19Z</time>
      </trkpt>
      <trkpt lat="44.60421" lon="2.95555">
        <ele>1133</ele>
        <time>2018-05-02T11:33:38Z</time>
      </trkpt>
      <trkpt lat="44.60421" lon="2.95565">
        <ele>1132</ele>
        <time>2018-05-02T11:33:50Z</time>
      </trkpt>
      <trkpt lat="44.60418" lon="2.95573">
        <ele>1131</ele>
        <time>2018-05-02T11:34:02Z</time>
      </trkpt>
      <trkpt lat="44.60413" lon="2.95578">
        <ele>1130</ele>
        <time>2018-05-02T11:34:14Z</time>
      </trkpt>
      <trkpt lat="44.60406" lon="2.95574">
        <ele>1129</ele>
        <time>2018-05-02T11:34:26Z</time>
      </trkpt>
      <trkpt lat="44.60402" lon="2.95569">
        <ele>1129</ele>
        <time>2018-05-02T11:34:32Z</time>
      </trkpt>
      <trkpt lat="44.60395" lon="2.95566">
        <ele>1127</ele>
        <time>2018-05-02T11:34:42Z</time>
      </trkpt>
      <trkpt lat="44.60391" lon="2.95563">
        <ele>1126</ele>
        <time>2018-05-02T11:34:54Z</time>
      </trkpt>
      <trkpt lat="44.60385" lon="2.95561">
        <ele>1126</ele>
        <time>2018-05-02T11:35:18Z</time>
      </trkpt>
      <trkpt lat="44.6038" lon="2.9556">
        <ele>1126</ele>
        <time>2018-05-02T11:35:23Z</time>
      </trkpt>
      <trkpt lat="44.60372" lon="2.95559">
        <ele>1125</ele>
        <time>2018-05-02T11:36:08Z</time>
      </trkpt>
      <trkpt lat="44.60344" lon="2.95526">
        <ele>1122</ele>
        <time>2018-05-02T11:36:42Z</time>
      </trkpt>
      <trkpt lat="44.6033" lon="2.95508">
        <ele>1121</ele>
        <time>2018-05-02T11:36:59Z</time>
      </trkpt>
      <trkpt lat="44.6032" lon="2.95482">
        <ele>1120</ele>
        <time>2018-05-02T11:37:18Z</time>
      </trkpt>
      <trkpt lat="44.60319" lon="2.95466">
        <ele>1120</ele>
        <time>2018-05-02T11:37:29Z</time>
      </trkpt>
      <trkpt lat="44.60315" lon="2.95454">
        <ele>1120</ele>
        <time>2018-05-02T11:37:38Z</time>
      </trkpt>
      <trkpt lat="44.60293" lon="2.95416">
        <ele>1120</ele>
        <time>2018-05-02T11:38:07Z</time>
      </trkpt>
      <trkpt lat="44.60284" lon="2.95389">
        <ele>1121</ele>
        <time>2018-05-02T11:39:12Z</time>
      </trkpt>
      <trkpt lat="44.60289" lon="2.95382">
        <ele>1120</ele>
        <time>2018-05-02T11:39:48Z</time>
      </trkpt>
      <trkpt lat="44.60289" lon="2.95372">
        <ele>1121</ele>
        <time>2018-05-02T11:40:01Z</time>
      </trkpt>
      <trkpt lat="44.60287" lon="2.95366">
        <ele>1121</ele>
        <time>2018-05-02T11:40:05Z</time>
      </trkpt>
      <trkpt lat="44.60285" lon="2.95345">
        <ele>1122</ele>
        <time>2018-05-02T11:40:24Z</time>
      </trkpt>
      <trkpt lat="44.60281" lon="2.95335">
        <ele>1122</ele>
        <time>2018-05-02T11:40:50Z</time>
      </trkpt>
      <trkpt lat="44.60279" lon="2.9532">
        <ele>1121</ele>
        <time>2018-05-02T11:41:02Z</time>
      </trkpt>
      <trkpt lat="44.60276" lon="2.95314">
        <ele>1121</ele>
        <time>2018-05-02T11:41:10Z</time>
      </trkpt>
      <trkpt lat="44.60273" lon="2.95287">
        <ele>1116</ele>
        <time>2018-05-02T11:41:46Z</time>
      </trkpt>
      <trkpt lat="44.60265" lon="2.95279">
        <ele>1115</ele>
        <time>2018-05-02T11:42:03Z</time>
      </trkpt>
      <trkpt lat="44.60254" lon="2.95254">
        <ele>1111</ele>
        <time>2018-05-02T11:42:32Z</time>
      </trkpt>
      <trkpt lat="44.60248" lon="2.9525">
        <ele>1110</ele>
        <time>2018-05-02T11:42:53Z</time>
      </trkpt>
      <trkpt lat="44.60243" lon="2.95249">
        <ele>1109</ele>
        <time>2018-05-02T11:42:58Z</time>
      </trkpt>
      <trkpt lat="44.60239" lon="2.95244">
        <ele>1108</ele>
        <time>2018-05-02T11:43:07Z</time>
      </trkpt>
      <trkpt lat="44.60234" lon="2.95241">
        <ele>1107</ele>
        <time>2018-05-02T11:43:12Z</time>
      </trkpt>
      <trkpt lat="44.60228" lon="2.95233">
        <ele>1106</ele>
        <time>2018-05-02T11:43:22Z</time>
      </trkpt>
      <trkpt lat="44.60228" lon="2.95226">
        <ele>1105</ele>
        <time>2018-05-02T11:43:28Z</time>
      </trkpt>
      <trkpt lat="44.6024" lon="2.95204">
        <ele>1102</ele>
        <time>2018-05-02T11:43:51Z</time>
      </trkpt>
      <trkpt lat="44.60244" lon="2.95199">
        <ele>1101</ele>
        <time>2018-05-02T11:43:56Z</time>
      </trkpt>
      <trkpt lat="44.60254" lon="2.95192">
        <ele>1100</ele>
        <time>2018-05-02T11:44:05Z</time>
      </trkpt>
      <trkpt lat="44.60255" lon="2.95184">
        <ele>1099</ele>
        <time>2018-05-02T11:44:10Z</time>
      </trkpt>
      <trkpt lat="44.60253" lon="2.95178">
        <ele>1099</ele>
        <time>2018-05-02T11:44:15Z</time>
      </trkpt>
      <trkpt lat="44.60248" lon="2.95178">
        <ele>1098</ele>
        <time>2018-05-02T11:44:19Z</time>
      </trkpt>
      <trkpt lat="44.60243" lon="2.95178">
        <ele>1097</ele>
        <time>2018-05-02T11:44:24Z</time>
      </trkpt>
      <trkpt lat="44.60233" lon="2.95178">
        <ele>1097</ele>
        <time>2018-05-02T11:44:32Z</time>
      </trkpt>
      <trkpt lat="44.60226" lon="2.95184">
        <ele>1097</ele>
        <time>2018-05-02T11:44:41Z</time>
      </trkpt>
      <trkpt lat="44.60219" lon="2.95202">
        <ele>1098</ele>
        <time>2018-05-02T11:45:00Z</time>
      </trkpt>
      <trkpt lat="44.60217" lon="2.9521">
        <ele>1098</ele>
        <time>2018-05-02T11:45:22Z</time>
      </trkpt>
      <trkpt lat="44.60197" lon="2.95232">
        <ele>1095</ele>
        <time>2018-05-02T11:45:42Z</time>
      </trkpt>
      <trkpt lat="44.6017" lon="2.95249">
        <ele>1093</ele>
        <time>2018-05-02T11:46:08Z</time>
      </trkpt>
      <trkpt lat="44.60165" lon="2.9525">
        <ele>1092</ele>
        <time>2018-05-02T11:46:12Z</time>
      </trkpt>
      <trkpt lat="44.60158" lon="2.95254">
        <ele>1091</ele>
        <time>2018-05-02T11:46:23Z</time>
      </trkpt>
      <trkpt lat="44.60159" lon="2.95246">
        <ele>1091</ele>
        <time>2018-05-02T11:48:59Z</time>
      </trkpt>
      <trkpt lat="44.60159" lon="2.95239">
        <ele>1090</ele>
        <time>2018-05-02T11:50:12Z</time>
      </trkpt>
      <trkpt lat="44.6016" lon="2.95233">
        <ele>1090</ele>
        <time>2018-05-02T11:50:17Z</time>
      </trkpt>
      <trkpt lat="44.60168" lon="2.95207">
        <ele>1087</ele>
        <time>2018-05-02T11:50:41Z</time>
      </trkpt>
      <trkpt lat="44.60169" lon="2.952">
        <ele>1086</ele>
        <time>2018-05-02T11:50:45Z</time>
      </trkpt>
      <trkpt lat="44.60166" lon="2.95194">
        <ele>1085</ele>
        <time>2018-05-02T11:50:50Z</time>
      </trkpt>
      <trkpt lat="44.60162" lon="2.95189">
        <ele>1084</ele>
        <time>2018-05-02T11:50:54Z</time>
      </trkpt>
      <trkpt lat="44.60153" lon="2.95184">
        <ele>1083</ele>
        <time>2018-05-02T11:51:03Z</time>
      </trkpt>
      <trkpt lat="44.60133" lon="2.9518">
        <ele>1081</ele>
        <time>2018-05-02T11:51:22Z</time>
      </trkpt>
      <trkpt lat="44.6013" lon="2.95172">
        <ele>1081</ele>
        <time>2018-05-02T11:51:29Z</time>
      </trkpt>
      <trkpt lat="44.60129" lon="2.95166">
        <ele>1081</ele>
        <time>2018-05-02T11:51:33Z</time>
      </trkpt>
      <trkpt lat="44.6013" lon="2.95159">
        <ele>1081</ele>
        <time>2018-05-02T11:51:37Z</time>
      </trkpt>
      <trkpt lat="44.60131" lon="2.95152">
        <ele>1081</ele>
        <time>2018-05-02T11:51:42Z</time>
      </trkpt>
      <trkpt lat="44.60133" lon="2.95146">
        <ele>1081</ele>
        <time>2018-05-02T11:51:47Z</time>
      </trkpt>
      <trkpt lat="44.60134" lon="2.95132">
        <ele>1080</ele>
        <time>2018-05-02T11:51:56Z</time>
      </trkpt>
      <trkpt lat="44.60132" lon="2.95122">
        <ele>1078</ele>
        <time>2018-05-02T11:52:05Z</time>
      </trkpt>
      <trkpt lat="44.60128" lon="2.95117">
        <ele>1077</ele>
        <time>2018-05-02T11:52:10Z</time>
      </trkpt>
      <trkpt lat="44.60126" lon="2.95109">
        <ele>1076</ele>
        <time>2018-05-02T11:52:24Z</time>
      </trkpt>
      <trkpt lat="44.60121" lon="2.95101">
        <ele>1074</ele>
        <time>2018-05-02T11:52:36Z</time>
      </trkpt>
      <trkpt lat="44.6011" lon="2.95072">
        <ele>1069</ele>
        <time>2018-05-02T11:53:01Z</time>
      </trkpt>
      <trkpt lat="44.60107" lon="2.95067">
        <ele>1069</ele>
        <time>2018-05-02T11:53:06Z</time>
      </trkpt>
      <trkpt lat="44.60103" lon="2.95049">
        <ele>1066</ele>
        <time>2018-05-02T11:53:23Z</time>
      </trkpt>
      <trkpt lat="44.60103" lon="2.9504">
        <ele>1066</ele>
        <time>2018-05-02T11:53:30Z</time>
      </trkpt>
      <trkpt lat="44.60082" lon="2.95014">
        <ele>1064</ele>
        <time>2018-05-02T11:53:59Z</time>
      </trkpt>
      <trkpt lat="44.60077" lon="2.95006">
        <ele>1064</ele>
        <time>2018-05-02T11:54:07Z</time>
      </trkpt>
      <trkpt lat="44.60073" lon="2.95003">
        <ele>1063</ele>
        <time>2018-05-02T11:54:11Z</time>
      </trkpt>
      <trkpt lat="44.60054" lon="2.94991">
        <ele>1061</ele>
        <time>2018-05-02T11:54:37Z</time>
      </trkpt>
      <trkpt lat="44.60046" lon="2.94988">
        <ele>1060</ele>
        <time>2018-05-02T11:54:49Z</time>
      </trkpt>
      <trkpt lat="44.60033" lon="2.94977">
        <ele>1058</ele>
        <time>2018-05-02T11:55:25Z</time>
      </trkpt>
      <trkpt lat="44.60029" lon="2.94972">
        <ele>1057</ele>
        <time>2018-05-02T11:55:31Z</time>
      </trkpt>
      <trkpt lat="44.60017" lon="2.94964">
        <ele>1057</ele>
        <time>2018-05-02T11:55:54Z</time>
      </trkpt>
      <trkpt lat="44.6001" lon="2.94956">
        <ele>1055</ele>
        <time>2018-05-02T11:56:24Z</time>
      </trkpt>
      <trkpt lat="44.60006" lon="2.9495">
        <ele>1055</ele>
        <time>2018-05-02T11:56:30Z</time>
      </trkpt>
      <trkpt lat="44.59995" lon="2.94941">
        <ele>1053</ele>
        <time>2018-05-02T11:56:49Z</time>
      </trkpt>
      <trkpt lat="44.59987" lon="2.94933">
        <ele>1051</ele>
        <time>2018-05-02T11:56:59Z</time>
      </trkpt>
      <trkpt lat="44.59983" lon="2.94926">
        <ele>1051</ele>
        <time>2018-05-02T11:57:07Z</time>
      </trkpt>
      <trkpt lat="44.59983" lon="2.94919">
        <ele>1051</ele>
        <time>2018-05-02T11:57:13Z</time>
      </trkpt>
      <trkpt lat="44.59986" lon="2.9491">
        <ele>1051</ele>
        <time>2018-05-02T11:57:22Z</time>
      </trkpt>
      <trkpt lat="44.59989" lon="2.94891">
        <ele>1052</ele>
        <time>2018-05-02T11:57:38Z</time>
      </trkpt>
      <trkpt lat="44.59995" lon="2.94872">
        <ele>1050</ele>
        <time>2018-05-02T11:57:56Z</time>
      </trkpt>
      <trkpt lat="44.60003" lon="2.94861">
        <ele>1048</ele>
        <time>2018-05-02T11:58:15Z</time>
      </trkpt>
      <trkpt lat="44.60015" lon="2.94857">
        <ele>1047</ele>
        <time>2018-05-02T11:58:45Z</time>
      </trkpt>
      <trkpt lat="44.60018" lon="2.94852">
        <ele>1046</ele>
        <time>2018-05-02T11:58:57Z</time>
      </trkpt>
      <trkpt lat="44.6002" lon="2.94844">
        <ele>1044</ele>
        <time>2018-05-02T11:59:15Z</time>
      </trkpt>
      <trkpt lat="44.60023" lon="2.94837">
        <ele>1043</ele>
        <time>2018-05-02T11:59:27Z</time>
      </trkpt>
      <trkpt lat="44.60034" lon="2.94833">
        <ele>1040</ele>
        <time>2018-05-02T12:00:02Z</time>
      </trkpt>
      <trkpt lat="44.6004" lon="2.94833">
        <ele>1039</ele>
        <time>2018-05-02T12:00:19Z</time>
      </trkpt>
      <trkpt lat="44.60051" lon="2.94823">
        <ele>1037</ele>
        <time>2018-05-02T12:00:41Z</time>
      </trkpt>
      <trkpt lat="44.60057" lon="2.94819">
        <ele>1035</ele>
        <time>2018-05-02T12:00:48Z</time>
      </trkpt>
      <trkpt lat="44.60067" lon="2.9482">
        <ele>1035</ele>
        <time>2018-05-02T12:00:56Z</time>
      </trkpt>
      <trkpt lat="44.60078" lon="2.94813">
        <ele>1033</ele>
        <time>2018-05-02T12:01:15Z</time>
      </trkpt>
      <trkpt lat="44.60098" lon="2.94813">
        <ele>1031</ele>
        <time>2018-05-02T12:01:33Z</time>
      </trkpt>
      <trkpt lat="44.60103" lon="2.94812">
        <ele>1030</ele>
        <time>2018-05-02T12:01:38Z</time>
      </trkpt>
      <trkpt lat="44.60109" lon="2.94812">
        <ele>1029</ele>
        <time>2018-05-02T12:01:42Z</time>
      </trkpt>
      <trkpt lat="44.60134" lon="2.948">
        <ele>1023</ele>
        <time>2018-05-02T12:02:18Z</time>
      </trkpt>
      <trkpt lat="44.60149" lon="2.94797">
        <ele>1020</ele>
        <time>2018-05-02T12:02:36Z</time>
      </trkpt>
      <trkpt lat="44.60154" lon="2.94793">
        <ele>1019</ele>
        <time>2018-05-02T12:02:44Z</time>
      </trkpt>
      <trkpt lat="44.60151" lon="2.94787">
        <ele>1016</ele>
        <time>2018-05-02T12:03:08Z</time>
      </trkpt>
      <trkpt lat="44.6015" lon="2.94772">
        <ele>1014</ele>
        <time>2018-05-02T12:03:50Z</time>
      </trkpt>
      <trkpt lat="44.60154" lon="2.94761">
        <ele>1013</ele>
        <time>2018-05-02T12:03:59Z</time>
      </trkpt>
      <trkpt lat="44.6015" lon="2.94751">
        <ele>1014</ele>
        <time>2018-05-02T12:04:42Z</time>
      </trkpt>
      <trkpt lat="44.60144" lon="2.94752">
        <ele>1014</ele>
        <time>2018-05-02T12:05:18Z</time>
      </trkpt>
      <trkpt lat="44.60138" lon="2.94749">
        <ele>1014</ele>
        <time>2018-05-02T12:05:32Z</time>
      </trkpt>
      <trkpt lat="44.60135" lon="2.94744">
        <ele>1014</ele>
        <time>2018-05-02T12:05:37Z</time>
      </trkpt>
      <trkpt lat="44.6012" lon="2.9473">
        <ele>1011</ele>
        <time>2018-05-02T12:06:02Z</time>
      </trkpt>
      <trkpt lat="44.60112" lon="2.94703">
        <ele>1011</ele>
        <time>2018-05-02T12:06:21Z</time>
      </trkpt>
      <trkpt lat="44.60104" lon="2.94693">
        <ele>1010</ele>
        <time>2018-05-02T12:06:32Z</time>
      </trkpt>
      <trkpt lat="44.60097" lon="2.94688">
        <ele>1010</ele>
        <time>2018-05-02T12:06:40Z</time>
      </trkpt>
      <trkpt lat="44.60093" lon="2.94681">
        <ele>1010</ele>
        <time>2018-05-02T12:06:44Z</time>
      </trkpt>
      <trkpt lat="44.60091" lon="2.94668">
        <ele>1009</ele>
        <time>2018-05-02T12:06:52Z</time>
      </trkpt>
      <trkpt lat="44.60086" lon="2.94661">
        <ele>1009</ele>
        <time>2018-05-02T12:06:59Z</time>
      </trkpt>
      <trkpt lat="44.60076" lon="2.94653">
        <ele>1008</ele>
        <time>2018-05-02T12:07:07Z</time>
      </trkpt>
      <trkpt lat="44.60071" lon="2.94651">
        <ele>1008</ele>
        <time>2018-05-02T12:07:12Z</time>
      </trkpt>
      <trkpt lat="44.60024" lon="2.94597">
        <ele>1001</ele>
        <time>2018-05-02T12:08:12Z</time>
      </trkpt>
      <trkpt lat="44.60017" lon="2.94583">
        <ele>1001</ele>
        <time>2018-05-02T12:08:25Z</time>
      </trkpt>
      <trkpt lat="44.60009" lon="2.94573">
        <ele>1000</ele>
        <time>2018-05-02T12:08:34Z</time>
      </trkpt>
      <trkpt lat="44.60005" lon="2.94559">
        <ele>1000</ele>
        <time>2018-05-02T12:08:44Z</time>
      </trkpt>
      <trkpt lat="44.59993" lon="2.94544">
        <ele>999</ele>
        <time>2018-05-02T12:08:58Z</time>
      </trkpt>
      <trkpt lat="44.59988" lon="2.9454">
        <ele>999</ele>
        <time>2018-05-02T12:09:02Z</time>
      </trkpt>
      <trkpt lat="44.59974" lon="2.94518">
        <ele>999</ele>
        <time>2018-05-02T12:09:21Z</time>
      </trkpt>
      <trkpt lat="44.59965" lon="2.94512">
        <ele>997</ele>
        <time>2018-05-02T12:09:31Z</time>
      </trkpt>
      <trkpt lat="44.5995" lon="2.94491">
        <ele>995</ele>
        <time>2018-05-02T12:09:48Z</time>
      </trkpt>
      <trkpt lat="44.59947" lon="2.94485">
        <ele>995</ele>
        <time>2018-05-02T12:09:56Z</time>
      </trkpt>
      <trkpt lat="44.59943" lon="2.94481">
        <ele>995</ele>
        <time>2018-05-02T12:10:20Z</time>
      </trkpt>
      <trkpt lat="44.59938" lon="2.94478">
        <ele>994</ele>
        <time>2018-05-02T12:10:50Z</time>
      </trkpt>
      <trkpt lat="44.59934" lon="2.94473">
        <ele>994</ele>
        <time>2018-05-02T12:10:58Z</time>
      </trkpt>
      <trkpt lat="44.59928" lon="2.9447">
        <ele>994</ele>
        <time>2018-05-02T12:11:12Z</time>
      </trkpt>
      <trkpt lat="44.59925" lon="2.94465">
        <ele>993</ele>
        <time>2018-05-02T12:11:20Z</time>
      </trkpt>
      <trkpt lat="44.59912" lon="2.94457">
        <ele>990</ele>
        <time>2018-05-02T12:11:34Z</time>
      </trkpt>
      <trkpt lat="44.59872" lon="2.94412">
        <ele>986</ele>
        <time>2018-05-02T12:12:16Z</time>
      </trkpt>
      <trkpt lat="44.59861" lon="2.94395">
        <ele>985</ele>
        <time>2018-05-02T12:12:32Z</time>
      </trkpt>
      <trkpt lat="44.59859" lon="2.94389">
        <ele>984</ele>
        <time>2018-05-02T12:12:36Z</time>
      </trkpt>
      <trkpt lat="44.59843" lon="2.9436">
        <ele>981</ele>
        <time>2018-05-02T12:13:01Z</time>
      </trkpt>
      <trkpt lat="44.59839" lon="2.94356">
        <ele>980</ele>
        <time>2018-05-02T12:13:05Z</time>
      </trkpt>
      <trkpt lat="44.59822" lon="2.94328">
        <ele>978</ele>
        <time>2018-05-02T12:13:29Z</time>
      </trkpt>
      <trkpt lat="44.59804" lon="2.94274">
        <ele>978</ele>
        <time>2018-05-02T12:14:08Z</time>
      </trkpt>
      <trkpt lat="44.59797" lon="2.94213">
        <ele>978</ele>
        <time>2018-05-02T12:15:01Z</time>
      </trkpt>
      <trkpt lat="44.59794" lon="2.94206">
        <ele>979</ele>
        <time>2018-05-02T12:15:06Z</time>
      </trkpt>
      <trkpt lat="44.5979" lon="2.94196">
        <ele>979</ele>
        <time>2018-05-02T12:15:15Z</time>
      </trkpt>
      <trkpt lat="44.59779" lon="2.9416">
        <ele>979</ele>
        <time>2018-05-02T12:15:50Z</time>
      </trkpt>
      <trkpt lat="44.59779" lon="2.94154">
        <ele>979</ele>
        <time>2018-05-02T12:15:54Z</time>
      </trkpt>
      <trkpt lat="44.59777" lon="2.94149">
        <ele>978</ele>
        <time>2018-05-02T12:15:58Z</time>
      </trkpt>
      <trkpt lat="44.59773" lon="2.94143">
        <ele>978</ele>
        <time>2018-05-02T12:16:02Z</time>
      </trkpt>
      <trkpt lat="44.59771" lon="2.94137">
        <ele>978</ele>
        <time>2018-05-02T12:16:06Z</time>
      </trkpt>
      <trkpt lat="44.59769" lon="2.9412">
        <ele>976</ele>
        <time>2018-05-02T12:16:17Z</time>
      </trkpt>
      <trkpt lat="44.59765" lon="2.94105">
        <ele>974</ele>
        <time>2018-05-02T12:16:29Z</time>
      </trkpt>
      <trkpt lat="44.59752" lon="2.94085">
        <ele>970</ele>
        <time>2018-05-02T12:16:49Z</time>
      </trkpt>
      <trkpt lat="44.59745" lon="2.94082">
        <ele>969</ele>
        <time>2018-05-02T12:17:03Z</time>
      </trkpt>
      <trkpt lat="44.59719" lon="2.94026">
        <ele>961</ele>
        <time>2018-05-02T12:18:19Z</time>
      </trkpt>
      <trkpt lat="44.59713" lon="2.94017">
        <ele>960</ele>
        <time>2018-05-02T12:18:28Z</time>
      </trkpt>
      <trkpt lat="44.59709" lon="2.9401">
        <ele>958</ele>
        <time>2018-05-02T12:18:42Z</time>
      </trkpt>
      <trkpt lat="44.59708" lon="2.94001">
        <ele>956</ele>
        <time>2018-05-02T12:18:54Z</time>
      </trkpt>
      <trkpt lat="44.59703" lon="2.93996">
        <ele>954</ele>
        <time>2018-05-02T12:19:06Z</time>
      </trkpt>
      <trkpt lat="44.59696" lon="2.93993">
        <ele>953</ele>
        <time>2018-05-02T12:19:18Z</time>
      </trkpt>
      <trkpt lat="44.59689" lon="2.93994">
        <ele>951</ele>
        <time>2018-05-02T12:19:36Z</time>
      </trkpt>
      <trkpt lat="44.59683" lon="2.93991">
        <ele>949</ele>
        <time>2018-05-02T12:20:06Z</time>
      </trkpt>
      <trkpt lat="44.59673" lon="2.93979">
        <ele>947</ele>
        <time>2018-05-02T12:20:48Z</time>
      </trkpt>
      <trkpt lat="44.59669" lon="2.93976">
        <ele>946</ele>
        <time>2018-05-02T12:20:53Z</time>
      </trkpt>
      <trkpt lat="44.59664" lon="2.93969">
        <ele>945</ele>
        <time>2018-05-02T12:21:01Z</time>
      </trkpt>
      <trkpt lat="44.59649" lon="2.93955">
        <ele>941</ele>
        <time>2018-05-02T12:21:21Z</time>
      </trkpt>
      <trkpt lat="44.59643" lon="2.93949">
        <ele>939</ele>
        <time>2018-05-02T12:21:33Z</time>
      </trkpt>
      <trkpt lat="44.59633" lon="2.93937">
        <ele>935</ele>
        <time>2018-05-02T12:21:58Z</time>
      </trkpt>
      <trkpt lat="44.59629" lon="2.93933">
        <ele>933</ele>
        <time>2018-05-02T12:22:08Z</time>
      </trkpt>
      <trkpt lat="44.59625" lon="2.93927">
        <ele>932</ele>
        <time>2018-05-02T12:22:29Z</time>
      </trkpt>
      <trkpt lat="44.59624" lon="2.9392">
        <ele>931</ele>
        <time>2018-05-02T12:22:35Z</time>
      </trkpt>
      <trkpt lat="44.59605" lon="2.93898">
        <ele>925</ele>
        <time>2018-05-02T12:23:04Z</time>
      </trkpt>
      <trkpt lat="44.59601" lon="2.93896">
        <ele>924</ele>
        <time>2018-05-02T12:23:08Z</time>
      </trkpt>
      <trkpt lat="44.59597" lon="2.9389">
        <ele>923</ele>
        <time>2018-05-02T12:23:16Z</time>
      </trkpt>
      <trkpt lat="44.59592" lon="2.93887">
        <ele>924</ele>
        <time>2018-05-02T12:23:33Z</time>
      </trkpt>
      <trkpt lat="44.59589" lon="2.93873">
        <ele>923</ele>
        <time>2018-05-02T12:23:42Z</time>
      </trkpt>
      <trkpt lat="44.5959" lon="2.93867">
        <ele>923</ele>
        <time>2018-05-02T12:23:46Z</time>
      </trkpt>
      <trkpt lat="44.59582" lon="2.93815">
        <ele>922</ele>
        <time>2018-05-02T12:24:20Z</time>
      </trkpt>
      <trkpt lat="44.59585" lon="2.93789">
        <ele>919</ele>
        <time>2018-05-02T12:24:46Z</time>
      </trkpt>
      <trkpt lat="44.59582" lon="2.9378">
        <ele>917</ele>
        <time>2018-05-02T12:24:58Z</time>
      </trkpt>
      <trkpt lat="44.59575" lon="2.93736">
        <ele>909</ele>
        <time>2018-05-02T12:25:40Z</time>
      </trkpt>
      <trkpt lat="44.59567" lon="2.93726">
        <ele>907</ele>
        <time>2018-05-02T12:25:48Z</time>
      </trkpt>
      <trkpt lat="44.59562" lon="2.93721">
        <ele>907</ele>
        <time>2018-05-02T12:25:53Z</time>
      </trkpt>
      <trkpt lat="44.59555" lon="2.93719">
        <ele>906</ele>
        <time>2018-05-02T12:26:22Z</time>
      </trkpt>
      <trkpt lat="44.59545" lon="2.9372">
        <ele>904</ele>
        <time>2018-05-02T12:26:34Z</time>
      </trkpt>
      <trkpt lat="44.5954" lon="2.9372">
        <ele>903</ele>
        <time>2018-05-02T12:26:40Z</time>
      </trkpt>
      <trkpt lat="44.59543" lon="2.93706">
        <ele>900</ele>
        <time>2018-05-02T12:27:04Z</time>
      </trkpt>
      <trkpt lat="44.59538" lon="2.93704">
        <ele>899</ele>
        <time>2018-05-02T12:27:11Z</time>
      </trkpt>
      <trkpt lat="44.59542" lon="2.93698">
        <ele>897</ele>
        <time>2018-05-02T12:27:19Z</time>
      </trkpt>
      <trkpt lat="44.59543" lon="2.93692">
        <ele>897</ele>
        <time>2018-05-02T12:27:23Z</time>
      </trkpt>
      <trkpt lat="44.59541" lon="2.93686">
        <ele>897</ele>
        <time>2018-05-02T12:27:28Z</time>
      </trkpt>
      <trkpt lat="44.59537" lon="2.93682">
        <ele>897</ele>
        <time>2018-05-02T12:27:31Z</time>
      </trkpt>
      <trkpt lat="44.59527" lon="2.93664">
        <ele>896</ele>
        <time>2018-05-02T12:27:48Z</time>
      </trkpt>
      <trkpt lat="44.59506" lon="2.93635">
        <ele>896</ele>
        <time>2018-05-02T12:28:16Z</time>
      </trkpt>
      <trkpt lat="44.595" lon="2.93623">
        <ele>895</ele>
        <time>2018-05-02T12:28:25Z</time>
      </trkpt>
      <trkpt lat="44.59498" lon="2.93609">
        <ele>895</ele>
        <time>2018-05-02T12:28:35Z</time>
      </trkpt>
      <trkpt lat="44.5949" lon="2.93583">
        <ele>895</ele>
        <time>2018-05-02T12:28:52Z</time>
      </trkpt>
      <trkpt lat="44.59486" lon="2.93575">
        <ele>894</ele>
        <time>2018-05-02T12:28:59Z</time>
      </trkpt>
      <trkpt lat="44.59481" lon="2.93569">
        <ele>893</ele>
        <time>2018-05-02T12:29:06Z</time>
      </trkpt>
      <trkpt lat="44.59478" lon="2.93563">
        <ele>892</ele>
        <time>2018-05-02T12:29:10Z</time>
      </trkpt>
      <trkpt lat="44.59476" lon="2.93551">
        <ele>891</ele>
        <time>2018-05-02T12:29:19Z</time>
      </trkpt>
      <trkpt lat="44.59459" lon="2.93538">
        <ele>890</ele>
        <time>2018-05-02T12:29:35Z</time>
      </trkpt>
      <trkpt lat="44.59453" lon="2.93528">
        <ele>890</ele>
        <time>2018-05-02T12:29:45Z</time>
      </trkpt>
      <trkpt lat="44.59452" lon="2.93522">
        <ele>889</ele>
        <time>2018-05-02T12:29:50Z</time>
      </trkpt>
      <trkpt lat="44.59449" lon="2.93516">
        <ele>889</ele>
        <time>2018-05-02T12:29:55Z</time>
      </trkpt>
      <trkpt lat="44.59446" lon="2.93501">
        <ele>888</ele>
        <time>2018-05-02T12:30:07Z</time>
      </trkpt>
      <trkpt lat="44.59443" lon="2.93493">
        <ele>888</ele>
        <time>2018-05-02T12:30:15Z</time>
      </trkpt>
      <trkpt lat="44.59443" lon="2.93487">
        <ele>888</ele>
        <time>2018-05-02T12:30:20Z</time>
      </trkpt>
      <trkpt lat="44.59449" lon="2.93463">
        <ele>887</ele>
        <time>2018-05-02T12:30:38Z</time>
      </trkpt>
      <trkpt lat="44.5945" lon="2.93455">
        <ele>888</ele>
        <time>2018-05-02T12:30:43Z</time>
      </trkpt>
      <trkpt lat="44.5945" lon="2.93449">
        <ele>888</ele>
        <time>2018-05-02T12:30:47Z</time>
      </trkpt>
      <trkpt lat="44.59444" lon="2.93435">
        <ele>887</ele>
        <time>2018-05-02T12:30:59Z</time>
      </trkpt>
      <trkpt lat="44.5944" lon="2.93429">
        <ele>886</ele>
        <time>2018-05-02T12:31:05Z</time>
      </trkpt>
      <trkpt lat="44.59428" lon="2.93416">
        <ele>885</ele>
        <time>2018-05-02T12:31:19Z</time>
      </trkpt>
      <trkpt lat="44.59421" lon="2.93398">
        <ele>884</ele>
        <time>2018-05-02T12:31:33Z</time>
      </trkpt>
      <trkpt lat="44.59418" lon="2.93394">
        <ele>884</ele>
        <time>2018-05-02T12:31:37Z</time>
      </trkpt>
      <trkpt lat="44.59418" lon="2.93377">
        <ele>885</ele>
        <time>2018-05-02T12:31:49Z</time>
      </trkpt>
      <trkpt lat="44.59421" lon="2.93372">
        <ele>886</ele>
        <time>2018-05-02T12:31:54Z</time>
      </trkpt>
      <trkpt lat="44.59421" lon="2.93312">
        <ele>893</ele>
        <time>2018-05-02T12:32:41Z</time>
      </trkpt>
      <trkpt lat="44.59419" lon="2.93307">
        <ele>893</ele>
        <time>2018-05-02T12:32:45Z</time>
      </trkpt>
      <trkpt lat="44.59418" lon="2.93297">
        <ele>893</ele>
        <time>2018-05-02T12:32:53Z</time>
      </trkpt>
      <trkpt lat="44.59401" lon="2.93231">
        <ele>887</ele>
        <time>2018-05-02T12:33:37Z</time>
      </trkpt>
      <trkpt lat="44.59374" lon="2.93165">
        <ele>881</ele>
        <time>2018-05-02T12:34:28Z</time>
      </trkpt>
      <trkpt lat="44.59374" lon="2.93158">
        <ele>881</ele>
        <time>2018-05-02T12:34:32Z</time>
      </trkpt>
      <trkpt lat="44.59372" lon="2.93152">
        <ele>880</ele>
        <time>2018-05-02T12:34:36Z</time>
      </trkpt>
      <trkpt lat="44.59369" lon="2.93136">
        <ele>879</ele>
        <time>2018-05-02T12:34:47Z</time>
      </trkpt>
      <trkpt lat="44.59364" lon="2.93121">
        <ele>877</ele>
        <time>2018-05-02T12:35:00Z</time>
      </trkpt>
      <trkpt lat="44.59353" lon="2.93096">
        <ele>876</ele>
        <time>2018-05-02T12:35:20Z</time>
      </trkpt>
      <trkpt lat="44.59348" lon="2.93092">
        <ele>875</ele>
        <time>2018-05-02T12:35:25Z</time>
      </trkpt>
      <trkpt lat="44.59344" lon="2.9308">
        <ele>874</ele>
        <time>2018-05-02T12:35:34Z</time>
      </trkpt>
      <trkpt lat="44.5933" lon="2.92975">
        <ele>867</ele>
        <time>2018-05-02T12:36:42Z</time>
      </trkpt>
      <trkpt lat="44.5933" lon="2.92955">
        <ele>866</ele>
        <time>2018-05-02T12:36:54Z</time>
      </trkpt>
      <trkpt lat="44.59324" lon="2.92934">
        <ele>865</ele>
        <time>2018-05-02T12:37:28Z</time>
      </trkpt>
      <trkpt lat="44.59326" lon="2.92925">
        <ele>861</ele>
        <time>2018-05-02T12:37:35Z</time>
      </trkpt>
      <trkpt lat="44.59326" lon="2.92918">
        <ele>861</ele>
        <time>2018-05-02T12:37:40Z</time>
      </trkpt>
      <trkpt lat="44.59325" lon="2.9291">
        <ele>862</ele>
        <time>2018-05-02T12:37:46Z</time>
      </trkpt>
      <trkpt lat="44.59323" lon="2.92903">
        <ele>862</ele>
        <time>2018-05-02T12:37:50Z</time>
      </trkpt>
      <trkpt lat="44.59323" lon="2.92896">
        <ele>862</ele>
        <time>2018-05-02T12:37:55Z</time>
      </trkpt>
      <trkpt lat="44.59325" lon="2.92889">
        <ele>861</ele>
        <time>2018-05-02T12:38:15Z</time>
      </trkpt>
      <trkpt lat="44.59323" lon="2.92883">
        <ele>861</ele>
        <time>2018-05-02T12:38:19Z</time>
      </trkpt>
      <trkpt lat="44.59322" lon="2.92869">
        <ele>860</ele>
        <time>2018-05-02T12:38:28Z</time>
      </trkpt>
      <trkpt lat="44.59323" lon="2.92853">
        <ele>858</ele>
        <time>2018-05-02T12:38:46Z</time>
      </trkpt>
      <trkpt lat="44.5932" lon="2.92826">
        <ele>857</ele>
        <time>2018-05-02T12:39:03Z</time>
      </trkpt>
      <trkpt lat="44.59314" lon="2.92808">
        <ele>855</ele>
        <time>2018-05-02T12:39:16Z</time>
      </trkpt>
      <trkpt lat="44.59311" lon="2.92808">
        <ele>850</ele>
        <time>2018-05-02T12:39:52Z</time>
      </trkpt>
      <trkpt lat="44.59307" lon="2.92812">
        <ele>849</ele>
        <time>2018-05-02T12:39:57Z</time>
      </trkpt>
      <trkpt lat="44.59301" lon="2.92809">
        <ele>847</ele>
        <time>2018-05-02T12:40:05Z</time>
      </trkpt>
      <trkpt lat="44.59291" lon="2.92814">
        <ele>844</ele>
        <time>2018-05-02T12:40:23Z</time>
      </trkpt>
      <trkpt lat="44.59292" lon="2.92821">
        <ele>843</ele>
        <time>2018-05-02T12:40:31Z</time>
      </trkpt>
      <trkpt lat="44.59295" lon="2.92831">
        <ele>843</ele>
        <time>2018-05-02T12:40:43Z</time>
      </trkpt>
      <trkpt lat="44.59299" lon="2.92843">
        <ele>843</ele>
        <time>2018-05-02T12:40:52Z</time>
      </trkpt>
      <trkpt lat="44.593" lon="2.92851">
        <ele>843</ele>
        <time>2018-05-02T12:40:57Z</time>
      </trkpt>
      <trkpt lat="44.59303" lon="2.92865">
        <ele>844</ele>
        <time>2018-05-02T12:41:07Z</time>
      </trkpt>
      <trkpt lat="44.59302" lon="2.92872">
        <ele>844</ele>
        <time>2018-05-02T12:41:12Z</time>
      </trkpt>
      <trkpt lat="44.59305" lon="2.92888">
        <ele>845</ele>
        <time>2018-05-02T12:41:24Z</time>
      </trkpt>
      <trkpt lat="44.59304" lon="2.92895">
        <ele>846</ele>
        <time>2018-05-02T12:41:37Z</time>
      </trkpt>
      <trkpt lat="44.59297" lon="2.92888">
        <ele>845</ele>
        <time>2018-05-02T12:44:16Z</time>
      </trkpt>
      <trkpt lat="44.59293" lon="2.92888">
        <ele>844</ele>
        <time>2018-05-02T12:47:37Z</time>
      </trkpt>
      <trkpt lat="44.5931" lon="2.92865">
        <ele>841</ele>
        <time>2018-05-03T06:02:15Z</time>
      </trkpt>
      <trkpt lat="44.59306" lon="2.9286">
        <ele>839</ele>
        <time>2018-05-03T06:02:32Z</time>
      </trkpt>
      <trkpt lat="44.59304" lon="2.92854">
        <ele>839</ele>
        <time>2018-05-03T06:02:36Z</time>
      </trkpt>
      <trkpt lat="44.593" lon="2.92838">
        <ele>838</ele>
        <time>2018-05-03T06:02:48Z</time>
      </trkpt>
      <trkpt lat="44.59296" lon="2.92832">
        <ele>837</ele>
        <time>2018-05-03T06:02:54Z</time>
      </trkpt>
      <trkpt lat="44.5929" lon="2.92825">
        <ele>836</ele>
        <time>2018-05-03T06:03:03Z</time>
      </trkpt>
      <trkpt lat="44.59286" lon="2.92817">
        <ele>836</ele>
        <time>2018-05-03T06:03:12Z</time>
      </trkpt>
      <trkpt lat="44.59282" lon="2.92804">
        <ele>835</ele>
        <time>2018-05-03T06:03:22Z</time>
      </trkpt>
      <trkpt lat="44.59273" lon="2.9279">
        <ele>832</ele>
        <time>2018-05-03T06:03:39Z</time>
      </trkpt>
      <trkpt lat="44.59256" lon="2.92779">
        <ele>829</ele>
        <time>2018-05-03T06:03:55Z</time>
      </trkpt>
      <trkpt lat="44.59219" lon="2.9271">
        <ele>815</ele>
        <time>2018-05-03T06:04:49Z</time>
      </trkpt>
      <trkpt lat="44.59202" lon="2.92695">
        <ele>813</ele>
        <time>2018-05-03T06:05:03Z</time>
      </trkpt>
      <trkpt lat="44.59196" lon="2.92683">
        <ele>812</ele>
        <time>2018-05-03T06:05:12Z</time>
      </trkpt>
      <trkpt lat="44.59188" lon="2.92679">
        <ele>810</ele>
        <time>2018-05-03T06:05:19Z</time>
      </trkpt>
      <trkpt lat="44.59183" lon="2.92665">
        <ele>808</ele>
        <time>2018-05-03T06:05:28Z</time>
      </trkpt>
      <trkpt lat="44.59173" lon="2.92599">
        <ele>807</ele>
        <time>2018-05-03T06:06:05Z</time>
      </trkpt>
      <trkpt lat="44.59166" lon="2.92582">
        <ele>807</ele>
        <time>2018-05-03T06:06:17Z</time>
      </trkpt>
      <trkpt lat="44.59161" lon="2.9256">
        <ele>808</ele>
        <time>2018-05-03T06:06:31Z</time>
      </trkpt>
      <trkpt lat="44.59161" lon="2.92553">
        <ele>808</ele>
        <time>2018-05-03T06:06:35Z</time>
      </trkpt>
      <trkpt lat="44.59159" lon="2.92546">
        <ele>808</ele>
        <time>2018-05-03T06:06:40Z</time>
      </trkpt>
      <trkpt lat="44.59162" lon="2.92512">
        <ele>810</ele>
        <time>2018-05-03T06:07:00Z</time>
      </trkpt>
      <trkpt lat="44.59163" lon="2.92505">
        <ele>810</ele>
        <time>2018-05-03T06:07:04Z</time>
      </trkpt>
      <trkpt lat="44.59166" lon="2.92479">
        <ele>811</ele>
        <time>2018-05-03T06:07:21Z</time>
      </trkpt>
      <trkpt lat="44.59161" lon="2.92442">
        <ele>812</ele>
        <time>2018-05-03T06:07:46Z</time>
      </trkpt>
      <trkpt lat="44.59159" lon="2.92436">
        <ele>812</ele>
        <time>2018-05-03T06:07:50Z</time>
      </trkpt>
      <trkpt lat="44.5915" lon="2.92419">
        <ele>812</ele>
        <time>2018-05-03T06:08:02Z</time>
      </trkpt>
      <trkpt lat="44.59148" lon="2.92413">
        <ele>812</ele>
        <time>2018-05-03T06:08:06Z</time>
      </trkpt>
      <trkpt lat="44.59134" lon="2.92378">
        <ele>815</ele>
        <time>2018-05-03T06:08:31Z</time>
      </trkpt>
      <trkpt lat="44.59131" lon="2.92372">
        <ele>814</ele>
        <time>2018-05-03T06:08:35Z</time>
      </trkpt>
      <trkpt lat="44.59121" lon="2.92361">
        <ele>816</ele>
        <time>2018-05-03T06:08:51Z</time>
      </trkpt>
      <trkpt lat="44.59116" lon="2.92344">
        <ele>817</ele>
        <time>2018-05-03T06:09:07Z</time>
      </trkpt>
      <trkpt lat="44.59115" lon="2.92337">
        <ele>816</ele>
        <time>2018-05-03T06:09:11Z</time>
      </trkpt>
      <trkpt lat="44.59116" lon="2.92323">
        <ele>816</ele>
        <time>2018-05-03T06:09:19Z</time>
      </trkpt>
      <trkpt lat="44.59115" lon="2.92307">
        <ele>816</ele>
        <time>2018-05-03T06:09:27Z</time>
      </trkpt>
      <trkpt lat="44.59113" lon="2.92301">
        <ele>815</ele>
        <time>2018-05-03T06:09:30Z</time>
      </trkpt>
      <trkpt lat="44.59113" lon="2.92293">
        <ele>817</ele>
        <time>2018-05-03T06:09:34Z</time>
      </trkpt>
      <trkpt lat="44.59113" lon="2.92286">
        <ele>817</ele>
        <time>2018-05-03T06:09:39Z</time>
      </trkpt>
      <trkpt lat="44.59107" lon="2.92235">
        <ele>815</ele>
        <time>2018-05-03T06:10:09Z</time>
      </trkpt>
      <trkpt lat="44.59108" lon="2.92225">
        <ele>814</ele>
        <time>2018-05-03T06:10:19Z</time>
      </trkpt>
      <trkpt lat="44.59093" lon="2.92214">
        <ele>812</ele>
        <time>2018-05-03T06:15:30Z</time>
      </trkpt>
      <trkpt lat="44.59089" lon="2.92212">
        <ele>812</ele>
        <time>2018-05-03T06:15:40Z</time>
      </trkpt>
      <trkpt lat="44.59101" lon="2.92224">
        <ele>812</ele>
        <time>2018-05-03T06:18:29Z</time>
      </trkpt>
      <trkpt lat="44.59103" lon="2.9222">
        <ele>812</ele>
        <time>2018-05-03T06:19:55Z</time>
      </trkpt>
      <trkpt lat="44.59103" lon="2.92212">
        <ele>811</ele>
        <time>2018-05-03T06:19:59Z</time>
      </trkpt>
      <trkpt lat="44.591" lon="2.92198">
        <ele>812</ele>
        <time>2018-05-03T06:20:08Z</time>
      </trkpt>
      <trkpt lat="44.59098" lon="2.92192">
        <ele>812</ele>
        <time>2018-05-03T06:20:12Z</time>
      </trkpt>
      <trkpt lat="44.59097" lon="2.92186">
        <ele>812</ele>
        <time>2018-05-03T06:20:16Z</time>
      </trkpt>
      <trkpt lat="44.59093" lon="2.9218">
        <ele>812</ele>
        <time>2018-05-03T06:20:20Z</time>
      </trkpt>
      <trkpt lat="44.59091" lon="2.92174">
        <ele>812</ele>
        <time>2018-05-03T06:20:24Z</time>
      </trkpt>
      <trkpt lat="44.59086" lon="2.92169">
        <ele>811</ele>
        <time>2018-05-03T06:20:31Z</time>
      </trkpt>
      <trkpt lat="44.59066" lon="2.92172">
        <ele>810</ele>
        <time>2018-05-03T06:20:47Z</time>
      </trkpt>
      <trkpt lat="44.5906" lon="2.92173">
        <ele>809</ele>
        <time>2018-05-03T06:20:52Z</time>
      </trkpt>
      <trkpt lat="44.59056" lon="2.9217">
        <ele>809</ele>
        <time>2018-05-03T06:20:57Z</time>
      </trkpt>
      <trkpt lat="44.59051" lon="2.92161">
        <ele>809</ele>
        <time>2018-05-03T06:21:06Z</time>
      </trkpt>
      <trkpt lat="44.59048" lon="2.92155">
        <ele>808</ele>
        <time>2018-05-03T06:21:14Z</time>
      </trkpt>
      <trkpt lat="44.59044" lon="2.92133">
        <ele>809</ele>
        <time>2018-05-03T06:21:39Z</time>
      </trkpt>
      <trkpt lat="44.59041" lon="2.92127">
        <ele>808</ele>
        <time>2018-05-03T06:21:43Z</time>
      </trkpt>
      <trkpt lat="44.59038" lon="2.92115">
        <ele>807</ele>
        <time>2018-05-03T06:21:51Z</time>
      </trkpt>
      <trkpt lat="44.59034" lon="2.9211">
        <ele>807</ele>
        <time>2018-05-03T06:21:56Z</time>
      </trkpt>
      <trkpt lat="44.59026" lon="2.92111">
        <ele>808</ele>
        <time>2018-05-03T06:22:05Z</time>
      </trkpt>
      <trkpt lat="44.59016" lon="2.92115">
        <ele>806</ele>
        <time>2018-05-03T06:22:13Z</time>
      </trkpt>
      <trkpt lat="44.59008" lon="2.92122">
        <ele>805</ele>
        <time>2018-05-03T06:22:21Z</time>
      </trkpt>
      <trkpt lat="44.59005" lon="2.92126">
        <ele>804</ele>
        <time>2018-05-03T06:22:26Z</time>
      </trkpt>
      <trkpt lat="44.58998" lon="2.92129">
        <ele>804</ele>
        <time>2018-05-03T06:22:43Z</time>
      </trkpt>
      <trkpt lat="44.58986" lon="2.92143">
        <ele>802</ele>
        <time>2018-05-03T06:22:54Z</time>
      </trkpt>
      <trkpt lat="44.58976" lon="2.92141">
        <ele>801</ele>
        <time>2018-05-03T06:23:02Z</time>
      </trkpt>
      <trkpt lat="44.58971" lon="2.9213">
        <ele>799</ele>
        <time>2018-05-03T06:23:10Z</time>
      </trkpt>
      <trkpt lat="44.58962" lon="2.92149">
        <ele>797</ele>
        <time>2018-05-03T06:23:24Z</time>
      </trkpt>
      <trkpt lat="44.58958" lon="2.92153">
        <ele>795</ele>
        <time>2018-05-03T06:23:28Z</time>
      </trkpt>
      <trkpt lat="44.58954" lon="2.92155">
        <ele>794</ele>
        <time>2018-05-03T06:23:32Z</time>
      </trkpt>
      <trkpt lat="44.58914" lon="2.92155">
        <ele>790</ele>
        <time>2018-05-03T06:24:04Z</time>
      </trkpt>
      <trkpt lat="44.58916" lon="2.92147">
        <ele>792</ele>
        <time>2018-05-03T06:25:20Z</time>
      </trkpt>
      <trkpt lat="44.5892" lon="2.92138">
        <ele>791</ele>
        <time>2018-05-03T06:25:27Z</time>
      </trkpt>
      <trkpt lat="44.58914" lon="2.92136">
        <ele>791</ele>
        <time>2018-05-03T06:25:30Z</time>
      </trkpt>
      <trkpt lat="44.58904" lon="2.92142">
        <ele>791</ele>
        <time>2018-05-03T06:25:36Z</time>
      </trkpt>
      <trkpt lat="44.58892" lon="2.92156">
        <ele>792</ele>
        <time>2018-05-03T06:25:47Z</time>
      </trkpt>
      <trkpt lat="44.58887" lon="2.92165">
        <ele>792</ele>
        <time>2018-05-03T06:26:00Z</time>
      </trkpt>
      <trkpt lat="44.58885" lon="2.92174">
        <ele>796</ele>
        <time>2018-05-03T06:26:10Z</time>
      </trkpt>
      <trkpt lat="44.5889" lon="2.92186">
        <ele>795</ele>
        <time>2018-05-03T06:26:20Z</time>
      </trkpt>
      <trkpt lat="44.58894" lon="2.9219">
        <ele>796</ele>
        <time>2018-05-03T06:26:28Z</time>
      </trkpt>
      <trkpt lat="44.58889" lon="2.92197">
        <ele>797</ele>
        <time>2018-05-03T06:26:53Z</time>
      </trkpt>
      <trkpt lat="44.58893" lon="2.9221">
        <ele>799</ele>
        <time>2018-05-03T06:27:03Z</time>
      </trkpt>
      <trkpt lat="44.5889" lon="2.9222">
        <ele>800</ele>
        <time>2018-05-03T06:27:11Z</time>
      </trkpt>
      <trkpt lat="44.58886" lon="2.92221">
        <ele>800</ele>
        <time>2018-05-03T06:27:15Z</time>
      </trkpt>
      <trkpt lat="44.58882" lon="2.92221">
        <ele>801</ele>
        <time>2018-05-03T06:27:20Z</time>
      </trkpt>
      <trkpt lat="44.58875" lon="2.92217">
        <ele>802</ele>
        <time>2018-05-03T06:27:28Z</time>
      </trkpt>
      <trkpt lat="44.58869" lon="2.92206">
        <ele>803</ele>
        <time>2018-05-03T06:27:37Z</time>
      </trkpt>
      <trkpt lat="44.58865" lon="2.92202">
        <ele>803</ele>
        <time>2018-05-03T06:27:41Z</time>
      </trkpt>
      <trkpt lat="44.58859" lon="2.92193">
        <ele>804</ele>
        <time>2018-05-03T06:27:49Z</time>
      </trkpt>
      <trkpt lat="44.58854" lon="2.92195">
        <ele>804</ele>
        <time>2018-05-03T06:28:10Z</time>
      </trkpt>
      <trkpt lat="44.58855" lon="2.92201">
        <ele>804</ele>
        <time>2018-05-03T06:28:14Z</time>
      </trkpt>
      <trkpt lat="44.58867" lon="2.92217">
        <ele>805</ele>
        <time>2018-05-03T06:28:27Z</time>
      </trkpt>
      <trkpt lat="44.5887" lon="2.92223">
        <ele>805</ele>
        <time>2018-05-03T06:28:31Z</time>
      </trkpt>
      <trkpt lat="44.58865" lon="2.92223">
        <ele>805</ele>
        <time>2018-05-03T06:28:39Z</time>
      </trkpt>
      <trkpt lat="44.5886" lon="2.92219">
        <ele>805</ele>
        <time>2018-05-03T06:28:43Z</time>
      </trkpt>
      <trkpt lat="44.58841" lon="2.9221">
        <ele>807</ele>
        <time>2018-05-03T06:29:01Z</time>
      </trkpt>
      <trkpt lat="44.58828" lon="2.92205">
        <ele>809</ele>
        <time>2018-05-03T06:29:13Z</time>
      </trkpt>
      <trkpt lat="44.58824" lon="2.92202">
        <ele>809</ele>
        <time>2018-05-03T06:29:18Z</time>
      </trkpt>
      <trkpt lat="44.58813" lon="2.92197">
        <ele>810</ele>
        <time>2018-05-03T06:29:29Z</time>
      </trkpt>
      <trkpt lat="44.58813" lon="2.9219">
        <ele>812</ele>
        <time>2018-05-03T06:29:55Z</time>
      </trkpt>
      <trkpt lat="44.58804" lon="2.92186">
        <ele>813</ele>
        <time>2018-05-03T06:30:03Z</time>
      </trkpt>
      <trkpt lat="44.58799" lon="2.92183">
        <ele>814</ele>
        <time>2018-05-03T06:30:07Z</time>
      </trkpt>
      <trkpt lat="44.58774" lon="2.92168">
        <ele>815</ele>
        <time>2018-05-03T06:30:32Z</time>
      </trkpt>
      <trkpt lat="44.58768" lon="2.92162">
        <ele>816</ele>
        <time>2018-05-03T06:30:39Z</time>
      </trkpt>
      <trkpt lat="44.58763" lon="2.92159">
        <ele>816</ele>
        <time>2018-05-03T06:30:44Z</time>
      </trkpt>
      <trkpt lat="44.58731" lon="2.92116">
        <ele>822</ele>
        <time>2018-05-03T06:31:27Z</time>
      </trkpt>
      <trkpt lat="44.58709" lon="2.92077">
        <ele>826</ele>
        <time>2018-05-03T06:32:04Z</time>
      </trkpt>
      <trkpt lat="44.58701" lon="2.9207">
        <ele>826</ele>
        <time>2018-05-03T06:32:11Z</time>
      </trkpt>
      <trkpt lat="44.58684" lon="2.92064">
        <ele>828</ele>
        <time>2018-05-03T06:32:28Z</time>
      </trkpt>
      <trkpt lat="44.58682" lon="2.92057">
        <ele>829</ele>
        <time>2018-05-03T06:32:42Z</time>
      </trkpt>
      <trkpt lat="44.58677" lon="2.92054">
        <ele>829</ele>
        <time>2018-05-03T06:33:12Z</time>
      </trkpt>
      <trkpt lat="44.58672" lon="2.92054">
        <ele>829</ele>
        <time>2018-05-03T06:33:16Z</time>
      </trkpt>
      <trkpt lat="44.58669" lon="2.92048">
        <ele>830</ele>
        <time>2018-05-03T06:33:21Z</time>
      </trkpt>
      <trkpt lat="44.58659" lon="2.92036">
        <ele>830</ele>
        <time>2018-05-03T06:33:32Z</time>
      </trkpt>
      <trkpt lat="44.58656" lon="2.92031">
        <ele>832</ele>
        <time>2018-05-03T06:33:37Z</time>
      </trkpt>
      <trkpt lat="44.58649" lon="2.92028">
        <ele>834</ele>
        <time>2018-05-03T06:33:46Z</time>
      </trkpt>
      <trkpt lat="44.58647" lon="2.92034">
        <ele>834</ele>
        <time>2018-05-03T06:33:52Z</time>
      </trkpt>
      <trkpt lat="44.58652" lon="2.92051">
        <ele>837</ele>
        <time>2018-05-03T06:34:10Z</time>
      </trkpt>
      <trkpt lat="44.58662" lon="2.92063">
        <ele>840</ele>
        <time>2018-05-03T06:34:25Z</time>
      </trkpt>
      <trkpt lat="44.58666" lon="2.92072">
        <ele>841</ele>
        <time>2018-05-03T06:34:37Z</time>
      </trkpt>
      <trkpt lat="44.5867" lon="2.92084">
        <ele>842</ele>
        <time>2018-05-03T06:34:49Z</time>
      </trkpt>
      <trkpt lat="44.58673" lon="2.92088">
        <ele>842</ele>
        <time>2018-05-03T06:34:53Z</time>
      </trkpt>
      <trkpt lat="44.58695" lon="2.92111">
        <ele>841</ele>
        <time>2018-05-03T06:35:20Z</time>
      </trkpt>
      <trkpt lat="44.58702" lon="2.92122">
        <ele>840</ele>
        <time>2018-05-03T06:35:30Z</time>
      </trkpt>
      <trkpt lat="44.58699" lon="2.92126">
        <ele>839</ele>
        <time>2018-05-03T06:35:38Z</time>
      </trkpt>
      <trkpt lat="44.58694" lon="2.92124">
        <ele>838</ele>
        <time>2018-05-03T06:35:57Z</time>
      </trkpt>
      <trkpt lat="44.58689" lon="2.92122">
        <ele>840</ele>
        <time>2018-05-03T06:36:02Z</time>
      </trkpt>
      <trkpt lat="44.58686" lon="2.92115">
        <ele>842</ele>
        <time>2018-05-03T06:36:07Z</time>
      </trkpt>
      <trkpt lat="44.58676" lon="2.92105">
        <ele>843</ele>
        <time>2018-05-03T06:36:20Z</time>
      </trkpt>
      <trkpt lat="44.58666" lon="2.92102">
        <ele>845</ele>
        <time>2018-05-03T06:36:34Z</time>
      </trkpt>
      <trkpt lat="44.58625" lon="2.92073">
        <ele>852</ele>
        <time>2018-05-03T06:37:23Z</time>
      </trkpt>
      <trkpt lat="44.58617" lon="2.92065">
        <ele>855</ele>
        <time>2018-05-03T06:37:32Z</time>
      </trkpt>
      <trkpt lat="44.58608" lon="2.92062">
        <ele>854</ele>
        <time>2018-05-03T06:37:38Z</time>
      </trkpt>
      <trkpt lat="44.58595" lon="2.92044">
        <ele>855</ele>
        <time>2018-05-03T06:37:54Z</time>
      </trkpt>
      <trkpt lat="44.5859" lon="2.92032">
        <ele>856</ele>
        <time>2018-05-03T06:38:03Z</time>
      </trkpt>
      <trkpt lat="44.58586" lon="2.92028">
        <ele>858</ele>
        <time>2018-05-03T06:38:09Z</time>
      </trkpt>
      <trkpt lat="44.5858" lon="2.9203">
        <ele>859</ele>
        <time>2018-05-03T06:38:21Z</time>
      </trkpt>
      <trkpt lat="44.58576" lon="2.92029">
        <ele>859</ele>
        <time>2018-05-03T06:38:25Z</time>
      </trkpt>
      <trkpt lat="44.58565" lon="2.92022">
        <ele>860</ele>
        <time>2018-05-03T06:38:37Z</time>
      </trkpt>
      <trkpt lat="44.58561" lon="2.92021">
        <ele>861</ele>
        <time>2018-05-03T06:38:42Z</time>
      </trkpt>
      <trkpt lat="44.58557" lon="2.92017">
        <ele>862</ele>
        <time>2018-05-03T06:38:47Z</time>
      </trkpt>
      <trkpt lat="44.58549" lon="2.92011">
        <ele>862</ele>
        <time>2018-05-03T06:38:56Z</time>
      </trkpt>
      <trkpt lat="44.58544" lon="2.92009">
        <ele>865</ele>
        <time>2018-05-03T06:39:01Z</time>
      </trkpt>
      <trkpt lat="44.58539" lon="2.92006">
        <ele>864</ele>
        <time>2018-05-03T06:39:06Z</time>
      </trkpt>
      <trkpt lat="44.58535" lon="2.92004">
        <ele>864</ele>
        <time>2018-05-03T06:39:11Z</time>
      </trkpt>
      <trkpt lat="44.58522" lon="2.91995">
        <ele>863</ele>
        <time>2018-05-03T06:39:39Z</time>
      </trkpt>
      <trkpt lat="44.58475" lon="2.91976">
        <ele>866</ele>
        <time>2018-05-03T06:40:26Z</time>
      </trkpt>
      <trkpt lat="44.58465" lon="2.91973">
        <ele>868</ele>
        <time>2018-05-03T06:40:34Z</time>
      </trkpt>
      <trkpt lat="44.58447" lon="2.91966">
        <ele>868</ele>
        <time>2018-05-03T06:40:49Z</time>
      </trkpt>
      <trkpt lat="44.58438" lon="2.91965">
        <ele>867</ele>
        <time>2018-05-03T06:40:57Z</time>
      </trkpt>
      <trkpt lat="44.58428" lon="2.91962">
        <ele>869</ele>
        <time>2018-05-03T06:41:05Z</time>
      </trkpt>
      <trkpt lat="44.58417" lon="2.91957">
        <ele>869</ele>
        <time>2018-05-03T06:41:17Z</time>
      </trkpt>
      <trkpt lat="44.58408" lon="2.91954">
        <ele>869</ele>
        <time>2018-05-03T06:41:25Z</time>
      </trkpt>
      <trkpt lat="44.58397" lon="2.91954">
        <ele>870</ele>
        <time>2018-05-03T06:41:37Z</time>
      </trkpt>
      <trkpt lat="44.58382" lon="2.91957">
        <ele>872</ele>
        <time>2018-05-03T06:41:53Z</time>
      </trkpt>
      <trkpt lat="44.58365" lon="2.91946">
        <ele>872</ele>
        <time>2018-05-03T06:42:10Z</time>
      </trkpt>
      <trkpt lat="44.58349" lon="2.91931">
        <ele>872</ele>
        <time>2018-05-03T06:42:27Z</time>
      </trkpt>
      <trkpt lat="44.58341" lon="2.91927">
        <ele>873</ele>
        <time>2018-05-03T06:42:34Z</time>
      </trkpt>
      <trkpt lat="44.58308" lon="2.91896">
        <ele>879</ele>
        <time>2018-05-03T06:43:09Z</time>
      </trkpt>
      <trkpt lat="44.58298" lon="2.91889">
        <ele>879</ele>
        <time>2018-05-03T06:43:20Z</time>
      </trkpt>
      <trkpt lat="44.58291" lon="2.91881">
        <ele>876</ele>
        <time>2018-05-03T06:43:27Z</time>
      </trkpt>
      <trkpt lat="44.58286" lon="2.91873">
        <ele>876</ele>
        <time>2018-05-03T06:43:35Z</time>
      </trkpt>
      <trkpt lat="44.58279" lon="2.91869">
        <ele>876</ele>
        <time>2018-05-03T06:43:44Z</time>
      </trkpt>
      <trkpt lat="44.58273" lon="2.91857">
        <ele>875</ele>
        <time>2018-05-03T06:44:08Z</time>
      </trkpt>
      <trkpt lat="44.58271" lon="2.9185">
        <ele>876</ele>
        <time>2018-05-03T06:44:13Z</time>
      </trkpt>
      <trkpt lat="44.58267" lon="2.91845">
        <ele>876</ele>
        <time>2018-05-03T06:44:18Z</time>
      </trkpt>
      <trkpt lat="44.58262" lon="2.91843">
        <ele>875</ele>
        <time>2018-05-03T06:44:22Z</time>
      </trkpt>
      <trkpt lat="44.58256" lon="2.91843">
        <ele>875</ele>
        <time>2018-05-03T06:44:26Z</time>
      </trkpt>
      <trkpt lat="44.58232" lon="2.91835">
        <ele>880</ele>
        <time>2018-05-03T06:44:48Z</time>
      </trkpt>
      <trkpt lat="44.58223" lon="2.91832">
        <ele>878</ele>
        <time>2018-05-03T06:44:56Z</time>
      </trkpt>
      <trkpt lat="44.58195" lon="2.91826">
        <ele>879</ele>
        <time>2018-05-03T06:45:19Z</time>
      </trkpt>
      <trkpt lat="44.58181" lon="2.9182">
        <ele>880</ele>
        <time>2018-05-03T06:45:33Z</time>
      </trkpt>
      <trkpt lat="44.58172" lon="2.91814">
        <ele>882</ele>
        <time>2018-05-03T06:45:42Z</time>
      </trkpt>
      <trkpt lat="44.58166" lon="2.91813">
        <ele>881</ele>
        <time>2018-05-03T06:45:46Z</time>
      </trkpt>
      <trkpt lat="44.58161" lon="2.91811">
        <ele>880</ele>
        <time>2018-05-03T06:45:54Z</time>
      </trkpt>
      <trkpt lat="44.58151" lon="2.91809">
        <ele>879</ele>
        <time>2018-05-03T06:46:03Z</time>
      </trkpt>
      <trkpt lat="44.58146" lon="2.91806">
        <ele>879</ele>
        <time>2018-05-03T06:46:07Z</time>
      </trkpt>
      <trkpt lat="44.58142" lon="2.91803">
        <ele>879</ele>
        <time>2018-05-03T06:46:11Z</time>
      </trkpt>
      <trkpt lat="44.58137" lon="2.91799">
        <ele>878</ele>
        <time>2018-05-03T06:46:16Z</time>
      </trkpt>
      <trkpt lat="44.58134" lon="2.91794">
        <ele>877</ele>
        <time>2018-05-03T06:46:20Z</time>
      </trkpt>
      <trkpt lat="44.58124" lon="2.91789">
        <ele>876</ele>
        <time>2018-05-03T06:46:29Z</time>
      </trkpt>
      <trkpt lat="44.5812" lon="2.91785">
        <ele>876</ele>
        <time>2018-05-03T06:46:33Z</time>
      </trkpt>
      <trkpt lat="44.58115" lon="2.91783">
        <ele>875</ele>
        <time>2018-05-03T06:46:37Z</time>
      </trkpt>
      <trkpt lat="44.58091" lon="2.9178">
        <ele>872</ele>
        <time>2018-05-03T06:46:59Z</time>
      </trkpt>
      <trkpt lat="44.58062" lon="2.91787">
        <ele>874</ele>
        <time>2018-05-03T06:47:26Z</time>
      </trkpt>
      <trkpt lat="44.58043" lon="2.91788">
        <ele>874</ele>
        <time>2018-05-03T06:47:44Z</time>
      </trkpt>
      <trkpt lat="44.58016" lon="2.91793">
        <ele>875</ele>
        <time>2018-05-03T06:48:08Z</time>
      </trkpt>
      <trkpt lat="44.57998" lon="2.91801">
        <ele>874</ele>
        <time>2018-05-03T06:48:23Z</time>
      </trkpt>
      <trkpt lat="44.57991" lon="2.91806">
        <ele>876</ele>
        <time>2018-05-03T06:48:56Z</time>
      </trkpt>
      <trkpt lat="44.57981" lon="2.91809">
        <ele>877</ele>
        <time>2018-05-03T06:49:06Z</time>
      </trkpt>
      <trkpt lat="44.57975" lon="2.9181">
        <ele>878</ele>
        <time>2018-05-03T06:49:21Z</time>
      </trkpt>
      <trkpt lat="44.57968" lon="2.91811">
        <ele>878</ele>
        <time>2018-05-03T06:49:30Z</time>
      </trkpt>
      <trkpt lat="44.57963" lon="2.91814">
        <ele>877</ele>
        <time>2018-05-03T06:49:34Z</time>
      </trkpt>
      <trkpt lat="44.57958" lon="2.91814">
        <ele>877</ele>
        <time>2018-05-03T06:49:39Z</time>
      </trkpt>
      <trkpt lat="44.57937" lon="2.91818">
        <ele>877</ele>
        <time>2018-05-03T06:50:44Z</time>
      </trkpt>
      <trkpt lat="44.57922" lon="2.91822">
        <ele>875</ele>
        <time>2018-05-03T06:50:58Z</time>
      </trkpt>
      <trkpt lat="44.57918" lon="2.91825">
        <ele>874</ele>
        <time>2018-05-03T06:51:02Z</time>
      </trkpt>
      <trkpt lat="44.57907" lon="2.91827">
        <ele>876</ele>
        <time>2018-05-03T06:51:11Z</time>
      </trkpt>
      <trkpt lat="44.57888" lon="2.91837">
        <ele>875</ele>
        <time>2018-05-03T06:51:27Z</time>
      </trkpt>
      <trkpt lat="44.57875" lon="2.91851">
        <ele>871</ele>
        <time>2018-05-03T06:51:45Z</time>
      </trkpt>
      <trkpt lat="44.57862" lon="2.91856">
        <ele>869</ele>
        <time>2018-05-03T06:51:58Z</time>
      </trkpt>
      <trkpt lat="44.57859" lon="2.9186">
        <ele>868</ele>
        <time>2018-05-03T06:52:03Z</time>
      </trkpt>
      <trkpt lat="44.57854" lon="2.9186">
        <ele>867</ele>
        <time>2018-05-03T06:52:08Z</time>
      </trkpt>
      <trkpt lat="44.57845" lon="2.91863">
        <ele>868</ele>
        <time>2018-05-03T06:52:28Z</time>
      </trkpt>
      <trkpt lat="44.57832" lon="2.91871">
        <ele>865</ele>
        <time>2018-05-03T06:52:45Z</time>
      </trkpt>
      <trkpt lat="44.57804" lon="2.91866">
        <ele>859</ele>
        <time>2018-05-03T06:53:16Z</time>
      </trkpt>
      <trkpt lat="44.57795" lon="2.91861">
        <ele>859</ele>
        <time>2018-05-03T06:53:24Z</time>
      </trkpt>
      <trkpt lat="44.57789" lon="2.9186">
        <ele>860</ele>
        <time>2018-05-03T06:53:50Z</time>
      </trkpt>
      <trkpt lat="44.57791" lon="2.91852">
        <ele>860</ele>
        <time>2018-05-03T06:54:02Z</time>
      </trkpt>
      <trkpt lat="44.57782" lon="2.91849">
        <ele>861</ele>
        <time>2018-05-03T06:54:13Z</time>
      </trkpt>
      <trkpt lat="44.57778" lon="2.91835">
        <ele>862</ele>
        <time>2018-05-03T06:54:27Z</time>
      </trkpt>
      <trkpt lat="44.57778" lon="2.91826">
        <ele>863</ele>
        <time>2018-05-03T06:54:33Z</time>
      </trkpt>
      <trkpt lat="44.57779" lon="2.91813">
        <ele>863</ele>
        <time>2018-05-03T06:54:42Z</time>
      </trkpt>
      <trkpt lat="44.57779" lon="2.91807">
        <ele>863</ele>
        <time>2018-05-03T06:54:46Z</time>
      </trkpt>
      <trkpt lat="44.57783" lon="2.91755">
        <ele>869</ele>
        <time>2018-05-03T06:55:25Z</time>
      </trkpt>
      <trkpt lat="44.57782" lon="2.91736">
        <ele>869</ele>
        <time>2018-05-03T06:55:41Z</time>
      </trkpt>
      <trkpt lat="44.57782" lon="2.91723">
        <ele>869</ele>
        <time>2018-05-03T06:55:50Z</time>
      </trkpt>
      <trkpt lat="44.57798" lon="2.91661">
        <ele>870</ele>
        <time>2018-05-03T06:56:27Z</time>
      </trkpt>
      <trkpt lat="44.57796" lon="2.91647">
        <ele>871</ele>
        <time>2018-05-03T06:56:34Z</time>
      </trkpt>
      <trkpt lat="44.57798" lon="2.91635">
        <ele>871</ele>
        <time>2018-05-03T06:56:42Z</time>
      </trkpt>
      <trkpt lat="44.57797" lon="2.91622">
        <ele>871</ele>
        <time>2018-05-03T06:56:49Z</time>
      </trkpt>
      <trkpt lat="44.57799" lon="2.91608">
        <ele>870</ele>
        <time>2018-05-03T06:56:58Z</time>
      </trkpt>
      <trkpt lat="44.57798" lon="2.91595">
        <ele>870</ele>
        <time>2018-05-03T06:57:07Z</time>
      </trkpt>
      <trkpt lat="44.57808" lon="2.91556">
        <ele>868</ele>
        <time>2018-05-03T06:57:30Z</time>
      </trkpt>
      <trkpt lat="44.57806" lon="2.91536">
        <ele>868</ele>
        <time>2018-05-03T06:57:46Z</time>
      </trkpt>
      <trkpt lat="44.57804" lon="2.9153">
        <ele>869</ele>
        <time>2018-05-03T06:57:52Z</time>
      </trkpt>
      <trkpt lat="44.57806" lon="2.91516">
        <ele>869</ele>
        <time>2018-05-03T06:58:01Z</time>
      </trkpt>
      <trkpt lat="44.57808" lon="2.91511">
        <ele>869</ele>
        <time>2018-05-03T06:58:05Z</time>
      </trkpt>
      <trkpt lat="44.57807" lon="2.91503">
        <ele>869</ele>
        <time>2018-05-03T06:58:09Z</time>
      </trkpt>
      <trkpt lat="44.5781" lon="2.91474">
        <ele>870</ele>
        <time>2018-05-03T06:58:24Z</time>
      </trkpt>
      <trkpt lat="44.57812" lon="2.91468">
        <ele>870</ele>
        <time>2018-05-03T06:58:27Z</time>
      </trkpt>
      <trkpt lat="44.57812" lon="2.91462">
        <ele>870</ele>
        <time>2018-05-03T06:58:32Z</time>
      </trkpt>
      <trkpt lat="44.57816" lon="2.91449">
        <ele>870</ele>
        <time>2018-05-03T06:58:41Z</time>
      </trkpt>
      <trkpt lat="44.57817" lon="2.91422">
        <ele>870</ele>
        <time>2018-05-03T06:58:56Z</time>
      </trkpt>
      <trkpt lat="44.57804" lon="2.91345">
        <ele>869</ele>
        <time>2018-05-03T06:59:49Z</time>
      </trkpt>
      <trkpt lat="44.57801" lon="2.91333">
        <ele>868</ele>
        <time>2018-05-03T06:59:54Z</time>
      </trkpt>
      <trkpt lat="44.57798" lon="2.91328">
        <ele>868</ele>
        <time>2018-05-03T06:59:58Z</time>
      </trkpt>
      <trkpt lat="44.57796" lon="2.91322">
        <ele>869</ele>
        <time>2018-05-03T07:00:01Z</time>
      </trkpt>
      <trkpt lat="44.57793" lon="2.91317">
        <ele>869</ele>
        <time>2018-05-03T07:00:04Z</time>
      </trkpt>
      <trkpt lat="44.57789" lon="2.91313">
        <ele>870</ele>
        <time>2018-05-03T07:00:08Z</time>
      </trkpt>
      <trkpt lat="44.57785" lon="2.91308">
        <ele>870</ele>
        <time>2018-05-03T07:00:12Z</time>
      </trkpt>
      <trkpt lat="44.57781" lon="2.91304">
        <ele>870</ele>
        <time>2018-05-03T07:00:17Z</time>
      </trkpt>
      <trkpt lat="44.57776" lon="2.91304">
        <ele>870</ele>
        <time>2018-05-03T07:00:21Z</time>
      </trkpt>
      <trkpt lat="44.57771" lon="2.91303">
        <ele>869</ele>
        <time>2018-05-03T07:00:25Z</time>
      </trkpt>
      <trkpt lat="44.57762" lon="2.91294">
        <ele>869</ele>
        <time>2018-05-03T07:00:33Z</time>
      </trkpt>
      <trkpt lat="44.57753" lon="2.91274">
        <ele>869</ele>
        <time>2018-05-03T07:00:45Z</time>
      </trkpt>
      <trkpt lat="44.57746" lon="2.9124">
        <ele>869</ele>
        <time>2018-05-03T07:00:59Z</time>
      </trkpt>
      <trkpt lat="44.57745" lon="2.91234">
        <ele>869</ele>
        <time>2018-05-03T07:01:03Z</time>
      </trkpt>
      <trkpt lat="44.57737" lon="2.91217">
        <ele>869</ele>
        <time>2018-05-03T07:01:18Z</time>
      </trkpt>
      <trkpt lat="44.57729" lon="2.91205">
        <ele>869</ele>
        <time>2018-05-03T07:01:30Z</time>
      </trkpt>
      <trkpt lat="44.57703" lon="2.9118">
        <ele>868</ele>
        <time>2018-05-03T07:01:56Z</time>
      </trkpt>
      <trkpt lat="44.57694" lon="2.91177">
        <ele>869</ele>
        <time>2018-05-03T07:02:05Z</time>
      </trkpt>
      <trkpt lat="44.57679" lon="2.91161">
        <ele>870</ele>
        <time>2018-05-03T07:02:21Z</time>
      </trkpt>
      <trkpt lat="44.57672" lon="2.91149">
        <ele>869</ele>
        <time>2018-05-03T07:02:30Z</time>
      </trkpt>
      <trkpt lat="44.57663" lon="2.91126">
        <ele>868</ele>
        <time>2018-05-03T07:02:45Z</time>
      </trkpt>
      <trkpt lat="44.57656" lon="2.91117">
        <ele>869</ele>
        <time>2018-05-03T07:02:51Z</time>
      </trkpt>
      <trkpt lat="44.5764" lon="2.91084">
        <ele>867</ele>
        <time>2018-05-03T07:03:11Z</time>
      </trkpt>
      <trkpt lat="44.57627" lon="2.91064">
        <ele>869</ele>
        <time>2018-05-03T07:03:26Z</time>
      </trkpt>
      <trkpt lat="44.57595" lon="2.9104">
        <ele>869</ele>
        <time>2018-05-03T07:04:03Z</time>
      </trkpt>
      <trkpt lat="44.5758" lon="2.91022">
        <ele>871</ele>
        <time>2018-05-03T07:04:18Z</time>
      </trkpt>
      <trkpt lat="44.57573" lon="2.90989">
        <ele>873</ele>
        <time>2018-05-03T07:05:01Z</time>
      </trkpt>
      <trkpt lat="44.57583" lon="2.90944">
        <ele>877</ele>
        <time>2018-05-03T07:05:50Z</time>
      </trkpt>
      <trkpt lat="44.57589" lon="2.90933">
        <ele>879</ele>
        <time>2018-05-03T07:06:33Z</time>
      </trkpt>
      <trkpt lat="44.57589" lon="2.90918">
        <ele>882</ele>
        <time>2018-05-03T07:06:51Z</time>
      </trkpt>
      <trkpt lat="44.57592" lon="2.90895">
        <ele>882</ele>
        <time>2018-05-03T07:07:15Z</time>
      </trkpt>
      <trkpt lat="44.57596" lon="2.90882">
        <ele>888</ele>
        <time>2018-05-03T07:07:34Z</time>
      </trkpt>
      <trkpt lat="44.57598" lon="2.90868">
        <ele>890</ele>
        <time>2018-05-03T07:07:46Z</time>
      </trkpt>
      <trkpt lat="44.57595" lon="2.90822">
        <ele>897</ele>
        <time>2018-05-03T07:08:26Z</time>
      </trkpt>
      <trkpt lat="44.57597" lon="2.90802">
        <ele>900</ele>
        <time>2018-05-03T07:08:43Z</time>
      </trkpt>
      <trkpt lat="44.57605" lon="2.90784">
        <ele>902</ele>
        <time>2018-05-03T07:08:58Z</time>
      </trkpt>
      <trkpt lat="44.57608" lon="2.90771">
        <ele>903</ele>
        <time>2018-05-03T07:09:07Z</time>
      </trkpt>
      <trkpt lat="44.57611" lon="2.90754">
        <ele>906</ele>
        <time>2018-05-03T07:09:34Z</time>
      </trkpt>
      <trkpt lat="44.57601" lon="2.90705">
        <ele>913</ele>
        <time>2018-05-03T07:10:15Z</time>
      </trkpt>
      <trkpt lat="44.57601" lon="2.90698">
        <ele>913</ele>
        <time>2018-05-03T07:10:24Z</time>
      </trkpt>
      <trkpt lat="44.57601" lon="2.90691">
        <ele>914</ele>
        <time>2018-05-03T07:10:30Z</time>
      </trkpt>
      <trkpt lat="44.57598" lon="2.90684">
        <ele>915</ele>
        <time>2018-05-03T07:10:42Z</time>
      </trkpt>
      <trkpt lat="44.57598" lon="2.90678">
        <ele>915</ele>
        <time>2018-05-03T07:10:47Z</time>
      </trkpt>
      <trkpt lat="44.57594" lon="2.9067">
        <ele>916</ele>
        <time>2018-05-03T07:10:55Z</time>
      </trkpt>
      <trkpt lat="44.57594" lon="2.90663">
        <ele>916</ele>
        <time>2018-05-03T07:11:00Z</time>
      </trkpt>
      <trkpt lat="44.57591" lon="2.90649">
        <ele>917</ele>
        <time>2018-05-03T07:11:09Z</time>
      </trkpt>
      <trkpt lat="44.57589" lon="2.90642">
        <ele>918</ele>
        <time>2018-05-03T07:11:13Z</time>
      </trkpt>
      <trkpt lat="44.57586" lon="2.90636">
        <ele>919</ele>
        <time>2018-05-03T07:11:21Z</time>
      </trkpt>
      <trkpt lat="44.57581" lon="2.90632">
        <ele>919</ele>
        <time>2018-05-03T07:11:26Z</time>
      </trkpt>
      <trkpt lat="44.57574" lon="2.90631">
        <ele>921</ele>
        <time>2018-05-03T07:11:36Z</time>
      </trkpt>
      <trkpt lat="44.57569" lon="2.90631">
        <ele>921</ele>
        <time>2018-05-03T07:11:48Z</time>
      </trkpt>
      <trkpt lat="44.57563" lon="2.90636">
        <ele>923</ele>
        <time>2018-05-03T07:12:00Z</time>
      </trkpt>
      <trkpt lat="44.57558" lon="2.90645">
        <ele>923</ele>
        <time>2018-05-03T07:12:11Z</time>
      </trkpt>
      <trkpt lat="44.57554" lon="2.90648">
        <ele>925</ele>
        <time>2018-05-03T07:12:16Z</time>
      </trkpt>
      <trkpt lat="44.57549" lon="2.90649">
        <ele>925</ele>
        <time>2018-05-03T07:12:20Z</time>
      </trkpt>
      <trkpt lat="44.57543" lon="2.90643">
        <ele>926</ele>
        <time>2018-05-03T07:12:28Z</time>
      </trkpt>
      <trkpt lat="44.57535" lon="2.90619">
        <ele>926</ele>
        <time>2018-05-03T07:12:45Z</time>
      </trkpt>
      <trkpt lat="44.57526" lon="2.90604">
        <ele>927</ele>
        <time>2018-05-03T07:12:57Z</time>
      </trkpt>
      <trkpt lat="44.57515" lon="2.9059">
        <ele>926</ele>
        <time>2018-05-03T07:13:14Z</time>
      </trkpt>
      <trkpt lat="44.57511" lon="2.90586">
        <ele>926</ele>
        <time>2018-05-03T07:13:18Z</time>
      </trkpt>
      <trkpt lat="44.57504" lon="2.90576">
        <ele>925</ele>
        <time>2018-05-03T07:13:26Z</time>
      </trkpt>
      <trkpt lat="44.575" lon="2.90571">
        <ele>926</ele>
        <time>2018-05-03T07:13:31Z</time>
      </trkpt>
      <trkpt lat="44.57491" lon="2.90567">
        <ele>926</ele>
        <time>2018-05-03T07:13:39Z</time>
      </trkpt>
      <trkpt lat="44.57486" lon="2.90563">
        <ele>927</ele>
        <time>2018-05-03T07:13:44Z</time>
      </trkpt>
      <trkpt lat="44.57482" lon="2.90559">
        <ele>926</ele>
        <time>2018-05-03T07:13:48Z</time>
      </trkpt>
      <trkpt lat="44.57473" lon="2.90555">
        <ele>924</ele>
        <time>2018-05-03T07:13:56Z</time>
      </trkpt>
      <trkpt lat="44.57468" lon="2.90553">
        <ele>924</ele>
        <time>2018-05-03T07:14:00Z</time>
      </trkpt>
      <trkpt lat="44.57459" lon="2.90548">
        <ele>922</ele>
        <time>2018-05-03T07:14:09Z</time>
      </trkpt>
      <trkpt lat="44.57454" lon="2.90548">
        <ele>923</ele>
        <time>2018-05-03T07:14:13Z</time>
      </trkpt>
      <trkpt lat="44.57449" lon="2.90546">
        <ele>922</ele>
        <time>2018-05-03T07:14:17Z</time>
      </trkpt>
      <trkpt lat="44.57445" lon="2.90544">
        <ele>922</ele>
        <time>2018-05-03T07:14:21Z</time>
      </trkpt>
      <trkpt lat="44.5744" lon="2.90539">
        <ele>922</ele>
        <time>2018-05-03T07:14:26Z</time>
      </trkpt>
      <trkpt lat="44.57431" lon="2.90538">
        <ele>922</ele>
        <time>2018-05-03T07:14:34Z</time>
      </trkpt>
      <trkpt lat="44.57426" lon="2.90536">
        <ele>922</ele>
        <time>2018-05-03T07:14:38Z</time>
      </trkpt>
      <trkpt lat="44.57413" lon="2.90528">
        <ele>922</ele>
        <time>2018-05-03T07:14:56Z</time>
      </trkpt>
      <trkpt lat="44.57383" lon="2.90497">
        <ele>921</ele>
        <time>2018-05-03T07:15:30Z</time>
      </trkpt>
      <trkpt lat="44.57373" lon="2.90492">
        <ele>923</ele>
        <time>2018-05-03T07:16:01Z</time>
      </trkpt>
      <trkpt lat="44.57364" lon="2.90483">
        <ele>922</ele>
        <time>2018-05-03T07:16:11Z</time>
      </trkpt>
      <trkpt lat="44.57328" lon="2.90459">
        <ele>922</ele>
        <time>2018-05-03T07:16:46Z</time>
      </trkpt>
      <trkpt lat="44.57315" lon="2.90457">
        <ele>920</ele>
        <time>2018-05-03T07:16:59Z</time>
      </trkpt>
      <trkpt lat="44.57305" lon="2.90446">
        <ele>920</ele>
        <time>2018-05-03T07:17:15Z</time>
      </trkpt>
      <trkpt lat="44.57295" lon="2.90442">
        <ele>919</ele>
        <time>2018-05-03T07:17:32Z</time>
      </trkpt>
      <trkpt lat="44.57291" lon="2.90439">
        <ele>918</ele>
        <time>2018-05-03T07:17:37Z</time>
      </trkpt>
      <trkpt lat="44.57287" lon="2.90433">
        <ele>918</ele>
        <time>2018-05-03T07:17:42Z</time>
      </trkpt>
      <trkpt lat="44.57281" lon="2.90429">
        <ele>918</ele>
        <time>2018-05-03T07:17:49Z</time>
      </trkpt>
      <trkpt lat="44.57272" lon="2.90434">
        <ele>917</ele>
        <time>2018-05-03T07:17:59Z</time>
      </trkpt>
      <trkpt lat="44.5726" lon="2.90438">
        <ele>918</ele>
        <time>2018-05-03T07:18:12Z</time>
      </trkpt>
      <trkpt lat="44.57251" lon="2.90444">
        <ele>917</ele>
        <time>2018-05-03T07:18:21Z</time>
      </trkpt>
      <trkpt lat="44.57244" lon="2.90454">
        <ele>916</ele>
        <time>2018-05-03T07:18:30Z</time>
      </trkpt>
      <trkpt lat="44.57233" lon="2.90479">
        <ele>916</ele>
        <time>2018-05-03T07:18:50Z</time>
      </trkpt>
      <trkpt lat="44.57231" lon="2.90484">
        <ele>916</ele>
        <time>2018-05-03T07:18:58Z</time>
      </trkpt>
      <trkpt lat="44.57227" lon="2.90491">
        <ele>915</ele>
        <time>2018-05-03T07:19:16Z</time>
      </trkpt>
      <trkpt lat="44.57221" lon="2.90496">
        <ele>915</ele>
        <time>2018-05-03T07:19:26Z</time>
      </trkpt>
      <trkpt lat="44.57215" lon="2.90496">
        <ele>913</ele>
        <time>2018-05-03T07:19:32Z</time>
      </trkpt>
      <trkpt lat="44.57211" lon="2.90494">
        <ele>913</ele>
        <time>2018-05-03T07:19:36Z</time>
      </trkpt>
      <trkpt lat="44.57206" lon="2.90494">
        <ele>913</ele>
        <time>2018-05-03T07:19:41Z</time>
      </trkpt>
      <trkpt lat="44.57202" lon="2.90491">
        <ele>912</ele>
        <time>2018-05-03T07:19:45Z</time>
      </trkpt>
      <trkpt lat="44.57196" lon="2.90491">
        <ele>910</ele>
        <time>2018-05-03T07:19:52Z</time>
      </trkpt>
      <trkpt lat="44.5718" lon="2.90487">
        <ele>910</ele>
        <time>2018-05-03T07:20:06Z</time>
      </trkpt>
      <trkpt lat="44.57159" lon="2.90468">
        <ele>909</ele>
        <time>2018-05-03T07:20:30Z</time>
      </trkpt>
      <trkpt lat="44.57148" lon="2.90457">
        <ele>909</ele>
        <time>2018-05-03T07:20:41Z</time>
      </trkpt>
      <trkpt lat="44.57145" lon="2.90452">
        <ele>909</ele>
        <time>2018-05-03T07:20:45Z</time>
      </trkpt>
      <trkpt lat="44.5714" lon="2.9044">
        <ele>909</ele>
        <time>2018-05-03T07:20:53Z</time>
      </trkpt>
      <trkpt lat="44.57136" lon="2.90436">
        <ele>909</ele>
        <time>2018-05-03T07:20:57Z</time>
      </trkpt>
      <trkpt lat="44.57128" lon="2.90423">
        <ele>909</ele>
        <time>2018-05-03T07:21:16Z</time>
      </trkpt>
      <trkpt lat="44.57125" lon="2.90417">
        <ele>909</ele>
        <time>2018-05-03T07:21:20Z</time>
      </trkpt>
      <trkpt lat="44.57123" lon="2.9041">
        <ele>910</ele>
        <time>2018-05-03T07:21:25Z</time>
      </trkpt>
      <trkpt lat="44.57116" lon="2.904">
        <ele>909</ele>
        <time>2018-05-03T07:21:33Z</time>
      </trkpt>
      <trkpt lat="44.57112" lon="2.90396">
        <ele>908</ele>
        <time>2018-05-03T07:21:38Z</time>
      </trkpt>
      <trkpt lat="44.57109" lon="2.90371">
        <ele>908</ele>
        <time>2018-05-03T07:21:52Z</time>
      </trkpt>
      <trkpt lat="44.57105" lon="2.9035">
        <ele>907</ele>
        <time>2018-05-03T07:22:03Z</time>
      </trkpt>
      <trkpt lat="44.571" lon="2.90335">
        <ele>907</ele>
        <time>2018-05-03T07:22:14Z</time>
      </trkpt>
      <trkpt lat="44.57093" lon="2.90322">
        <ele>907</ele>
        <time>2018-05-03T07:22:25Z</time>
      </trkpt>
      <trkpt lat="44.57078" lon="2.9029">
        <ele>904</ele>
        <time>2018-05-03T07:22:47Z</time>
      </trkpt>
      <trkpt lat="44.57072" lon="2.9028">
        <ele>904</ele>
        <time>2018-05-03T07:22:56Z</time>
      </trkpt>
      <trkpt lat="44.5707" lon="2.90272">
        <ele>904</ele>
        <time>2018-05-03T07:23:01Z</time>
      </trkpt>
      <trkpt lat="44.57063" lon="2.90261">
        <ele>902</ele>
        <time>2018-05-03T07:23:09Z</time>
      </trkpt>
      <trkpt lat="44.57055" lon="2.90252">
        <ele>900</ele>
        <time>2018-05-03T07:23:19Z</time>
      </trkpt>
      <trkpt lat="44.57047" lon="2.90245">
        <ele>900</ele>
        <time>2018-05-03T07:23:27Z</time>
      </trkpt>
      <trkpt lat="44.57044" lon="2.90238">
        <ele>901</ele>
        <time>2018-05-03T07:23:31Z</time>
      </trkpt>
      <trkpt lat="44.5704" lon="2.90233">
        <ele>902</ele>
        <time>2018-05-03T07:23:35Z</time>
      </trkpt>
      <trkpt lat="44.57028" lon="2.9021">
        <ele>898</ele>
        <time>2018-05-03T07:23:51Z</time>
      </trkpt>
      <trkpt lat="44.57025" lon="2.90189">
        <ele>899</ele>
        <time>2018-05-03T07:24:05Z</time>
      </trkpt>
      <trkpt lat="44.57025" lon="2.90169">
        <ele>897</ele>
        <time>2018-05-03T07:24:25Z</time>
      </trkpt>
      <trkpt lat="44.57024" lon="2.90161">
        <ele>897</ele>
        <time>2018-05-03T07:24:32Z</time>
      </trkpt>
      <trkpt lat="44.57001" lon="2.90092">
        <ele>899</ele>
        <time>2018-05-03T07:25:14Z</time>
      </trkpt>
      <trkpt lat="44.56995" lon="2.90082">
        <ele>901</ele>
        <time>2018-05-03T07:25:22Z</time>
      </trkpt>
      <trkpt lat="44.56991" lon="2.90069">
        <ele>901</ele>
        <time>2018-05-03T07:25:31Z</time>
      </trkpt>
      <trkpt lat="44.56989" lon="2.90062">
        <ele>900</ele>
        <time>2018-05-03T07:25:36Z</time>
      </trkpt>
      <trkpt lat="44.56986" lon="2.90058">
        <ele>900</ele>
        <time>2018-05-03T07:25:41Z</time>
      </trkpt>
      <trkpt lat="44.56966" lon="2.90061">
        <ele>903</ele>
        <time>2018-05-03T07:26:02Z</time>
      </trkpt>
      <trkpt lat="44.56963" lon="2.90055">
        <ele>902</ele>
        <time>2018-05-03T07:26:15Z</time>
      </trkpt>
      <trkpt lat="44.56956" lon="2.90055">
        <ele>902</ele>
        <time>2018-05-03T07:27:08Z</time>
      </trkpt>
      <trkpt lat="44.56938" lon="2.90062">
        <ele>906</ele>
        <time>2018-05-03T07:27:23Z</time>
      </trkpt>
      <trkpt lat="44.56922" lon="2.90061">
        <ele>907</ele>
        <time>2018-05-03T07:27:41Z</time>
      </trkpt>
      <trkpt lat="44.56912" lon="2.90059">
        <ele>909</ele>
        <time>2018-05-03T07:27:48Z</time>
      </trkpt>
      <trkpt lat="44.56894" lon="2.90051">
        <ele>910</ele>
        <time>2018-05-03T07:28:04Z</time>
      </trkpt>
      <trkpt lat="44.56886" lon="2.90049">
        <ele>911</ele>
        <time>2018-05-03T07:28:14Z</time>
      </trkpt>
      <trkpt lat="44.56882" lon="2.90046">
        <ele>912</ele>
        <time>2018-05-03T07:28:19Z</time>
      </trkpt>
      <trkpt lat="44.56879" lon="2.9004">
        <ele>913</ele>
        <time>2018-05-03T07:28:23Z</time>
      </trkpt>
      <trkpt lat="44.56874" lon="2.90038">
        <ele>911</ele>
        <time>2018-05-03T07:28:28Z</time>
      </trkpt>
      <trkpt lat="44.5687" lon="2.90032">
        <ele>910</ele>
        <time>2018-05-03T07:28:33Z</time>
      </trkpt>
      <trkpt lat="44.56864" lon="2.90014">
        <ele>911</ele>
        <time>2018-05-03T07:28:42Z</time>
      </trkpt>
      <trkpt lat="44.56857" lon="2.90003">
        <ele>909</ele>
        <time>2018-05-03T07:28:50Z</time>
      </trkpt>
      <trkpt lat="44.56846" lon="2.89989">
        <ele>908</ele>
        <time>2018-05-03T07:29:02Z</time>
      </trkpt>
      <trkpt lat="44.56834" lon="2.89979">
        <ele>907</ele>
        <time>2018-05-03T07:29:14Z</time>
      </trkpt>
      <trkpt lat="44.5683" lon="2.89975">
        <ele>906</ele>
        <time>2018-05-03T07:29:19Z</time>
      </trkpt>
      <trkpt lat="44.56827" lon="2.8997">
        <ele>907</ele>
        <time>2018-05-03T07:29:23Z</time>
      </trkpt>
      <trkpt lat="44.56813" lon="2.8996">
        <ele>904</ele>
        <time>2018-05-03T07:29:37Z</time>
      </trkpt>
      <trkpt lat="44.56809" lon="2.89956">
        <ele>903</ele>
        <time>2018-05-03T07:29:41Z</time>
      </trkpt>
      <trkpt lat="44.56804" lon="2.89953">
        <ele>903</ele>
        <time>2018-05-03T07:29:46Z</time>
      </trkpt>
      <trkpt lat="44.56801" lon="2.89949">
        <ele>903</ele>
        <time>2018-05-03T07:29:50Z</time>
      </trkpt>
      <trkpt lat="44.56793" lon="2.89939">
        <ele>901</ele>
        <time>2018-05-03T07:30:00Z</time>
      </trkpt>
      <trkpt lat="44.56785" lon="2.8993">
        <ele>900</ele>
        <time>2018-05-03T07:30:09Z</time>
      </trkpt>
      <trkpt lat="44.56768" lon="2.89879">
        <ele>903</ele>
        <time>2018-05-03T07:30:58Z</time>
      </trkpt>
      <trkpt lat="44.56756" lon="2.89858">
        <ele>904</ele>
        <time>2018-05-03T07:31:15Z</time>
      </trkpt>
      <trkpt lat="44.56754" lon="2.89851">
        <ele>905</ele>
        <time>2018-05-03T07:31:19Z</time>
      </trkpt>
      <trkpt lat="44.56734" lon="2.89827">
        <ele>907</ele>
        <time>2018-05-03T07:31:44Z</time>
      </trkpt>
      <trkpt lat="44.56725" lon="2.89808">
        <ele>907</ele>
        <time>2018-05-03T07:31:57Z</time>
      </trkpt>
      <trkpt lat="44.56699" lon="2.89773">
        <ele>910</ele>
        <time>2018-05-03T07:32:26Z</time>
      </trkpt>
      <trkpt lat="44.56686" lon="2.89763">
        <ele>910</ele>
        <time>2018-05-03T07:32:39Z</time>
      </trkpt>
      <trkpt lat="44.56682" lon="2.89743">
        <ele>909</ele>
        <time>2018-05-03T07:32:51Z</time>
      </trkpt>
      <trkpt lat="44.56674" lon="2.89719">
        <ele>909</ele>
        <time>2018-05-03T07:33:07Z</time>
      </trkpt>
      <trkpt lat="44.5667" lon="2.89708">
        <ele>907</ele>
        <time>2018-05-03T07:33:41Z</time>
      </trkpt>
      <trkpt lat="44.56625" lon="2.89642">
        <ele>900</ele>
        <time>2018-05-03T07:34:58Z</time>
      </trkpt>
      <trkpt lat="44.56609" lon="2.89626">
        <ele>897</ele>
        <time>2018-05-03T07:35:15Z</time>
      </trkpt>
      <trkpt lat="44.56565" lon="2.89568">
        <ele>891</ele>
        <time>2018-05-03T07:36:04Z</time>
      </trkpt>
      <trkpt lat="44.56561" lon="2.89565">
        <ele>890</ele>
        <time>2018-05-03T07:36:08Z</time>
      </trkpt>
      <trkpt lat="44.56533" lon="2.89527">
        <ele>888</ele>
        <time>2018-05-03T07:36:41Z</time>
      </trkpt>
      <trkpt lat="44.5653" lon="2.89521">
        <ele>888</ele>
        <time>2018-05-03T07:36:45Z</time>
      </trkpt>
      <trkpt lat="44.56504" lon="2.89489">
        <ele>886</ele>
        <time>2018-05-03T07:37:13Z</time>
      </trkpt>
      <trkpt lat="44.56498" lon="2.89477">
        <ele>886</ele>
        <time>2018-05-03T07:37:21Z</time>
      </trkpt>
      <trkpt lat="44.56492" lon="2.89471">
        <ele>886</ele>
        <time>2018-05-03T07:37:28Z</time>
      </trkpt>
      <trkpt lat="44.56443" lon="2.89387">
        <ele>886</ele>
        <time>2018-05-03T07:39:04Z</time>
      </trkpt>
      <trkpt lat="44.56441" lon="2.89381">
        <ele>886</ele>
        <time>2018-05-03T07:39:09Z</time>
      </trkpt>
      <trkpt lat="44.56436" lon="2.8936">
        <ele>886</ele>
        <time>2018-05-03T07:39:23Z</time>
      </trkpt>
      <trkpt lat="44.56424" lon="2.89328">
        <ele>885</ele>
        <time>2018-05-03T07:39:43Z</time>
      </trkpt>
      <trkpt lat="44.56422" lon="2.89314">
        <ele>886</ele>
        <time>2018-05-03T07:40:28Z</time>
      </trkpt>
      <trkpt lat="44.56386" lon="2.89188">
        <ele>881</ele>
        <time>2018-05-03T07:41:47Z</time>
      </trkpt>
      <trkpt lat="44.5636" lon="2.89119">
        <ele>877</ele>
        <time>2018-05-03T07:42:32Z</time>
      </trkpt>
      <trkpt lat="44.56357" lon="2.89105">
        <ele>877</ele>
        <time>2018-05-03T07:42:40Z</time>
      </trkpt>
      <trkpt lat="44.56297" lon="2.88963">
        <ele>873</ele>
        <time>2018-05-03T07:44:10Z</time>
      </trkpt>
      <trkpt lat="44.56242" lon="2.88871">
        <ele>866</ele>
        <time>2018-05-03T07:45:18Z</time>
      </trkpt>
      <trkpt lat="44.56211" lon="2.88828">
        <ele>862</ele>
        <time>2018-05-03T07:45:54Z</time>
      </trkpt>
      <trkpt lat="44.56172" lon="2.8879">
        <ele>860</ele>
        <time>2018-05-03T07:46:31Z</time>
      </trkpt>
      <trkpt lat="44.5615" lon="2.88774">
        <ele>859</ele>
        <time>2018-05-03T07:46:51Z</time>
      </trkpt>
      <trkpt lat="44.56137" lon="2.88762">
        <ele>858</ele>
        <time>2018-05-03T07:47:04Z</time>
      </trkpt>
      <trkpt lat="44.55987" lon="2.88674">
        <ele>858</ele>
        <time>2018-05-03T07:49:13Z</time>
      </trkpt>
      <trkpt lat="44.55979" lon="2.88663">
        <ele>858</ele>
        <time>2018-05-03T07:49:22Z</time>
      </trkpt>
      <trkpt lat="44.55974" lon="2.88654">
        <ele>858</ele>
        <time>2018-05-03T07:49:52Z</time>
      </trkpt>
      <trkpt lat="44.55966" lon="2.88645">
        <ele>858</ele>
        <time>2018-05-03T07:50:00Z</time>
      </trkpt>
      <trkpt lat="44.55947" lon="2.88585">
        <ele>860</ele>
        <time>2018-05-03T07:50:40Z</time>
      </trkpt>
      <trkpt lat="44.55944" lon="2.88548">
        <ele>862</ele>
        <time>2018-05-03T07:51:01Z</time>
      </trkpt>
      <trkpt lat="44.55946" lon="2.88526">
        <ele>862</ele>
        <time>2018-05-03T07:51:13Z</time>
      </trkpt>
      <trkpt lat="44.55999" lon="2.88357">
        <ele>864</ele>
        <time>2018-05-03T07:52:56Z</time>
      </trkpt>
      <trkpt lat="44.56009" lon="2.88304">
        <ele>862</ele>
        <time>2018-05-03T07:53:28Z</time>
      </trkpt>
      <trkpt lat="44.56013" lon="2.88291">
        <ele>861</ele>
        <time>2018-05-03T07:53:36Z</time>
      </trkpt>
      <trkpt lat="44.56054" lon="2.8806">
        <ele>857</ele>
        <time>2018-05-03T07:55:54Z</time>
      </trkpt>
      <trkpt lat="44.56059" lon="2.88051">
        <ele>858</ele>
        <time>2018-05-03T07:57:11Z</time>
      </trkpt>
      <trkpt lat="44.56061" lon="2.8803">
        <ele>858</ele>
        <time>2018-05-03T07:57:23Z</time>
      </trkpt>
      <trkpt lat="44.56064" lon="2.88017">
        <ele>857</ele>
        <time>2018-05-03T07:57:32Z</time>
      </trkpt>
      <trkpt lat="44.56068" lon="2.87986">
        <ele>858</ele>
        <time>2018-05-03T07:58:04Z</time>
      </trkpt>
      <trkpt lat="44.56071" lon="2.87979">
        <ele>858</ele>
        <time>2018-05-03T07:58:17Z</time>
      </trkpt>
      <trkpt lat="44.56082" lon="2.87892">
        <ele>853</ele>
        <time>2018-05-03T07:59:37Z</time>
      </trkpt>
      <trkpt lat="44.56078" lon="2.87879">
        <ele>851</ele>
        <time>2018-05-03T07:59:46Z</time>
      </trkpt>
      <trkpt lat="44.5608" lon="2.87741">
        <ele>848</ele>
        <time>2018-05-03T08:01:07Z</time>
      </trkpt>
      <trkpt lat="44.56085" lon="2.877">
        <ele>848</ele>
        <time>2018-05-03T08:01:32Z</time>
      </trkpt>
      <trkpt lat="44.56075" lon="2.87579">
        <ele>844</ele>
        <time>2018-05-03T08:02:42Z</time>
      </trkpt>
      <trkpt lat="44.56059" lon="2.87523">
        <ele>842</ele>
        <time>2018-05-03T08:03:19Z</time>
      </trkpt>
      <trkpt lat="44.56011" lon="2.87421">
        <ele>836</ele>
        <time>2018-05-03T08:04:46Z</time>
      </trkpt>
      <trkpt lat="44.55963" lon="2.8734">
        <ele>831</ele>
        <time>2018-05-03T08:05:49Z</time>
      </trkpt>
      <trkpt lat="44.55958" lon="2.87336">
        <ele>831</ele>
        <time>2018-05-03T08:05:53Z</time>
      </trkpt>
      <trkpt lat="44.55948" lon="2.87331">
        <ele>831</ele>
        <time>2018-05-03T08:06:02Z</time>
      </trkpt>
      <trkpt lat="44.55943" lon="2.87331">
        <ele>830</ele>
        <time>2018-05-03T08:06:06Z</time>
      </trkpt>
      <trkpt lat="44.55938" lon="2.87333">
        <ele>830</ele>
        <time>2018-05-03T08:06:11Z</time>
      </trkpt>
      <trkpt lat="44.55926" lon="2.87337">
        <ele>830</ele>
        <time>2018-05-03T08:06:22Z</time>
      </trkpt>
      <trkpt lat="44.5589" lon="2.87356">
        <ele>827</ele>
        <time>2018-05-03T08:06:54Z</time>
      </trkpt>
      <trkpt lat="44.55885" lon="2.87359">
        <ele>827</ele>
        <time>2018-05-03T08:06:59Z</time>
      </trkpt>
      <trkpt lat="44.55881" lon="2.87363">
        <ele>827</ele>
        <time>2018-05-03T08:07:03Z</time>
      </trkpt>
      <trkpt lat="44.55878" lon="2.87369">
        <ele>826</ele>
        <time>2018-05-03T08:07:08Z</time>
      </trkpt>
      <trkpt lat="44.55874" lon="2.87371">
        <ele>825</ele>
        <time>2018-05-03T08:07:13Z</time>
      </trkpt>
      <trkpt lat="44.55871" lon="2.87365">
        <ele>825</ele>
        <time>2018-05-03T08:07:17Z</time>
      </trkpt>
      <trkpt lat="44.55877" lon="2.87361">
        <ele>825</ele>
        <time>2018-05-03T08:07:49Z</time>
      </trkpt>
      <trkpt lat="44.55871" lon="2.87357">
        <ele>825</ele>
        <time>2018-05-03T08:09:46Z</time>
      </trkpt>
      <trkpt lat="44.55881" lon="2.87357">
        <ele>825</ele>
        <time>2018-05-03T08:13:09Z</time>
      </trkpt>
      <trkpt lat="44.55876" lon="2.87358">
        <ele>826</ele>
        <time>2018-05-03T08:17:22Z</time>
      </trkpt>
      <trkpt lat="44.55872" lon="2.87361">
        <ele>827</ele>
        <time>2018-05-03T08:17:52Z</time>
      </trkpt>
      <trkpt lat="44.55869" lon="2.87354">
        <ele>826</ele>
        <time>2018-05-03T08:21:07Z</time>
      </trkpt>
      <trkpt lat="44.55863" lon="2.87355">
        <ele>826</ele>
        <time>2018-05-03T08:21:19Z</time>
      </trkpt>
      <trkpt lat="44.55865" lon="2.87338">
        <ele>826</ele>
        <time>2018-05-03T08:21:57Z</time>
      </trkpt>
      <trkpt lat="44.55862" lon="2.87333">
        <ele>826</ele>
        <time>2018-05-03T08:22:01Z</time>
      </trkpt>
      <trkpt lat="44.55869" lon="2.87278">
        <ele>825</ele>
        <time>2018-05-03T08:22:36Z</time>
      </trkpt>
      <trkpt lat="44.55873" lon="2.87266">
        <ele>825</ele>
        <time>2018-05-03T08:22:44Z</time>
      </trkpt>
      <trkpt lat="44.55872" lon="2.87251">
        <ele>825</ele>
        <time>2018-05-03T08:22:52Z</time>
      </trkpt>
      <trkpt lat="44.55873" lon="2.87238">
        <ele>825</ele>
        <time>2018-05-03T08:23:00Z</time>
      </trkpt>
      <trkpt lat="44.55869" lon="2.8718">
        <ele>825</ele>
        <time>2018-05-03T08:23:33Z</time>
      </trkpt>
      <trkpt lat="44.5587" lon="2.87152">
        <ele>826</ele>
        <time>2018-05-03T08:23:53Z</time>
      </trkpt>
      <trkpt lat="44.55854" lon="2.87088">
        <ele>827</ele>
        <time>2018-05-03T08:24:37Z</time>
      </trkpt>
      <trkpt lat="44.5583" lon="2.87028">
        <ele>827</ele>
        <time>2018-05-03T08:25:20Z</time>
      </trkpt>
      <trkpt lat="44.55826" lon="2.87022">
        <ele>828</ele>
        <time>2018-05-03T08:25:25Z</time>
      </trkpt>
      <trkpt lat="44.55823" lon="2.87012">
        <ele>828</ele>
        <time>2018-05-03T08:25:32Z</time>
      </trkpt>
      <trkpt lat="44.55735" lon="2.86844">
        <ele>828</ele>
        <time>2018-05-03T08:27:36Z</time>
      </trkpt>
      <trkpt lat="44.55722" lon="2.86831">
        <ele>826</ele>
        <time>2018-05-03T08:27:48Z</time>
      </trkpt>
      <trkpt lat="44.55716" lon="2.86817">
        <ele>826</ele>
        <time>2018-05-03T08:28:00Z</time>
      </trkpt>
      <trkpt lat="44.55712" lon="2.86815">
        <ele>826</ele>
        <time>2018-05-03T08:28:04Z</time>
      </trkpt>
      <trkpt lat="44.55707" lon="2.86811">
        <ele>825</ele>
        <time>2018-05-03T08:28:09Z</time>
      </trkpt>
      <trkpt lat="44.55682" lon="2.86773">
        <ele>823</ele>
        <time>2018-05-03T08:28:39Z</time>
      </trkpt>
      <trkpt lat="44.55681" lon="2.86767">
        <ele>823</ele>
        <time>2018-05-03T08:28:43Z</time>
      </trkpt>
      <trkpt lat="44.55678" lon="2.86762">
        <ele>823</ele>
        <time>2018-05-03T08:28:47Z</time>
      </trkpt>
      <trkpt lat="44.55676" lon="2.86754">
        <ele>823</ele>
        <time>2018-05-03T08:28:52Z</time>
      </trkpt>
      <trkpt lat="44.55665" lon="2.86738">
        <ele>822</ele>
        <time>2018-05-03T08:29:06Z</time>
      </trkpt>
      <trkpt lat="44.55629" lon="2.86709">
        <ele>819</ele>
        <time>2018-05-03T08:29:38Z</time>
      </trkpt>
      <trkpt lat="44.55614" lon="2.86699">
        <ele>818</ele>
        <time>2018-05-03T08:29:50Z</time>
      </trkpt>
      <trkpt lat="44.55608" lon="2.86697">
        <ele>818</ele>
        <time>2018-05-03T08:29:54Z</time>
      </trkpt>
      <trkpt lat="44.55602" lon="2.86688">
        <ele>817</ele>
        <time>2018-05-03T08:30:03Z</time>
      </trkpt>
      <trkpt lat="44.55577" lon="2.86669">
        <ele>814</ele>
        <time>2018-05-03T08:30:29Z</time>
      </trkpt>
      <trkpt lat="44.55569" lon="2.86661">
        <ele>813</ele>
        <time>2018-05-03T08:30:39Z</time>
      </trkpt>
      <trkpt lat="44.55566" lon="2.86656">
        <ele>812</ele>
        <time>2018-05-03T08:31:02Z</time>
      </trkpt>
      <trkpt lat="44.55516" lon="2.86594">
        <ele>806</ele>
        <time>2018-05-03T08:32:19Z</time>
      </trkpt>
      <trkpt lat="44.55497" lon="2.86582">
        <ele>804</ele>
        <time>2018-05-03T08:32:35Z</time>
      </trkpt>
      <trkpt lat="44.55469" lon="2.86561">
        <ele>802</ele>
        <time>2018-05-03T08:33:10Z</time>
      </trkpt>
      <trkpt lat="44.55458" lon="2.86545">
        <ele>801</ele>
        <time>2018-05-03T08:33:24Z</time>
      </trkpt>
      <trkpt lat="44.55457" lon="2.86538">
        <ele>801</ele>
        <time>2018-05-03T08:33:31Z</time>
      </trkpt>
      <trkpt lat="44.55455" lon="2.86524">
        <ele>800</ele>
        <time>2018-05-03T08:33:40Z</time>
      </trkpt>
      <trkpt lat="44.55447" lon="2.86515">
        <ele>799</ele>
        <time>2018-05-03T08:33:48Z</time>
      </trkpt>
      <trkpt lat="44.55441" lon="2.86519">
        <ele>798</ele>
        <time>2018-05-03T08:34:54Z</time>
      </trkpt>
      <trkpt lat="44.55437" lon="2.86524">
        <ele>797</ele>
        <time>2018-05-03T08:35:00Z</time>
      </trkpt>
      <trkpt lat="44.55434" lon="2.86529">
        <ele>796</ele>
        <time>2018-05-03T08:35:05Z</time>
      </trkpt>
      <trkpt lat="44.55431" lon="2.86543">
        <ele>795</ele>
        <time>2018-05-03T08:35:13Z</time>
      </trkpt>
      <trkpt lat="44.55424" lon="2.86552">
        <ele>794</ele>
        <time>2018-05-03T08:35:21Z</time>
      </trkpt>
      <trkpt lat="44.55419" lon="2.86553">
        <ele>793</ele>
        <time>2018-05-03T08:35:25Z</time>
      </trkpt>
      <trkpt lat="44.55379" lon="2.86552">
        <ele>789</ele>
        <time>2018-05-03T08:35:59Z</time>
      </trkpt>
      <trkpt lat="44.55363" lon="2.86551">
        <ele>787</ele>
        <time>2018-05-03T08:36:11Z</time>
      </trkpt>
      <trkpt lat="44.55283" lon="2.86533">
        <ele>779</ele>
        <time>2018-05-03T08:37:18Z</time>
      </trkpt>
      <trkpt lat="44.55275" lon="2.86526">
        <ele>778</ele>
        <time>2018-05-03T08:37:27Z</time>
      </trkpt>
      <trkpt lat="44.55243" lon="2.86492">
        <ele>773</ele>
        <time>2018-05-03T08:37:59Z</time>
      </trkpt>
      <trkpt lat="44.55228" lon="2.86486">
        <ele>772</ele>
        <time>2018-05-03T08:38:10Z</time>
      </trkpt>
      <trkpt lat="44.55203" lon="2.86482">
        <ele>771</ele>
        <time>2018-05-03T08:38:31Z</time>
      </trkpt>
      <trkpt lat="44.55198" lon="2.86479">
        <ele>770</ele>
        <time>2018-05-03T08:38:35Z</time>
      </trkpt>
      <trkpt lat="44.55169" lon="2.86472">
        <ele>769</ele>
        <time>2018-05-03T08:39:00Z</time>
      </trkpt>
      <trkpt lat="44.5516" lon="2.86468">
        <ele>768</ele>
        <time>2018-05-03T08:39:08Z</time>
      </trkpt>
      <trkpt lat="44.55144" lon="2.86469">
        <ele>768</ele>
        <time>2018-05-03T08:39:20Z</time>
      </trkpt>
      <trkpt lat="44.55125" lon="2.86464">
        <ele>768</ele>
        <time>2018-05-03T08:39:35Z</time>
      </trkpt>
      <trkpt lat="44.55109" lon="2.86462">
        <ele>768</ele>
        <time>2018-05-03T08:39:47Z</time>
      </trkpt>
      <trkpt lat="44.55069" lon="2.86439">
        <ele>766</ele>
        <time>2018-05-03T08:40:20Z</time>
      </trkpt>
      <trkpt lat="44.5506" lon="2.86432">
        <ele>765</ele>
        <time>2018-05-03T08:40:27Z</time>
      </trkpt>
      <trkpt lat="44.55055" lon="2.86425">
        <ele>765</ele>
        <time>2018-05-03T08:40:34Z</time>
      </trkpt>
      <trkpt lat="44.55026" lon="2.86397">
        <ele>760</ele>
        <time>2018-05-03T08:41:03Z</time>
      </trkpt>
      <trkpt lat="44.55008" lon="2.8637">
        <ele>758</ele>
        <time>2018-05-03T08:41:25Z</time>
      </trkpt>
      <trkpt lat="44.54996" lon="2.86358">
        <ele>758</ele>
        <time>2018-05-03T08:41:35Z</time>
      </trkpt>
      <trkpt lat="44.54991" lon="2.86351">
        <ele>758</ele>
        <time>2018-05-03T08:41:42Z</time>
      </trkpt>
      <trkpt lat="44.54984" lon="2.86345">
        <ele>757</ele>
        <time>2018-05-03T08:41:51Z</time>
      </trkpt>
      <trkpt lat="44.54948" lon="2.86333">
        <ele>752</ele>
        <time>2018-05-03T08:42:34Z</time>
      </trkpt>
      <trkpt lat="44.54944" lon="2.86334">
        <ele>752</ele>
        <time>2018-05-03T08:42:38Z</time>
      </trkpt>
      <trkpt lat="44.54938" lon="2.86331">
        <ele>751</ele>
        <time>2018-05-03T08:42:46Z</time>
      </trkpt>
      <trkpt lat="44.54934" lon="2.86328">
        <ele>751</ele>
        <time>2018-05-03T08:42:50Z</time>
      </trkpt>
      <trkpt lat="44.54929" lon="2.86327">
        <ele>750</ele>
        <time>2018-05-03T08:42:54Z</time>
      </trkpt>
      <trkpt lat="44.54921" lon="2.86321">
        <ele>749</ele>
        <time>2018-05-03T08:43:09Z</time>
      </trkpt>
      <trkpt lat="44.54907" lon="2.86314">
        <ele>747</ele>
        <time>2018-05-03T08:43:23Z</time>
      </trkpt>
      <trkpt lat="44.54893" lon="2.86305">
        <ele>746</ele>
        <time>2018-05-03T08:43:34Z</time>
      </trkpt>
      <trkpt lat="44.54889" lon="2.86301">
        <ele>746</ele>
        <time>2018-05-03T08:43:45Z</time>
      </trkpt>
      <trkpt lat="44.54884" lon="2.86296">
        <ele>747</ele>
        <time>2018-05-03T08:44:03Z</time>
      </trkpt>
      <trkpt lat="44.54861" lon="2.86283">
        <ele>742</ele>
        <time>2018-05-03T08:44:27Z</time>
      </trkpt>
      <trkpt lat="44.54836" lon="2.86263">
        <ele>738</ele>
        <time>2018-05-03T08:44:47Z</time>
      </trkpt>
      <trkpt lat="44.54802" lon="2.8622">
        <ele>731</ele>
        <time>2018-05-03T08:45:25Z</time>
      </trkpt>
      <trkpt lat="44.54799" lon="2.86214">
        <ele>730</ele>
        <time>2018-05-03T08:45:30Z</time>
      </trkpt>
      <trkpt lat="44.54795" lon="2.8621">
        <ele>730</ele>
        <time>2018-05-03T08:45:34Z</time>
      </trkpt>
      <trkpt lat="44.54755" lon="2.86128">
        <ele>719</ele>
        <time>2018-05-03T08:46:39Z</time>
      </trkpt>
      <trkpt lat="44.54743" lon="2.86082">
        <ele>717</ele>
        <time>2018-05-03T08:47:05Z</time>
      </trkpt>
      <trkpt lat="44.5474" lon="2.8606">
        <ele>717</ele>
        <time>2018-05-03T08:47:19Z</time>
      </trkpt>
      <trkpt lat="44.5473" lon="2.86031">
        <ele>717</ele>
        <time>2018-05-03T08:47:55Z</time>
      </trkpt>
      <trkpt lat="44.54726" lon="2.86026">
        <ele>717</ele>
        <time>2018-05-03T08:47:59Z</time>
      </trkpt>
      <trkpt lat="44.54719" lon="2.86014">
        <ele>717</ele>
        <time>2018-05-03T08:48:09Z</time>
      </trkpt>
      <trkpt lat="44.54716" lon="2.8601">
        <ele>716</ele>
        <time>2018-05-03T08:48:13Z</time>
      </trkpt>
      <trkpt lat="44.54711" lon="2.86006">
        <ele>715</ele>
        <time>2018-05-03T08:48:23Z</time>
      </trkpt>
      <trkpt lat="44.54706" lon="2.85997">
        <ele>715</ele>
        <time>2018-05-03T08:48:33Z</time>
      </trkpt>
      <trkpt lat="44.54694" lon="2.85995">
        <ele>716</ele>
        <time>2018-05-03T08:48:40Z</time>
      </trkpt>
      <trkpt lat="44.54675" lon="2.85981">
        <ele>715</ele>
        <time>2018-05-03T08:48:56Z</time>
      </trkpt>
      <trkpt lat="44.5467" lon="2.85978">
        <ele>716</ele>
        <time>2018-05-03T08:49:01Z</time>
      </trkpt>
      <trkpt lat="44.5466" lon="2.85977">
        <ele>716</ele>
        <time>2018-05-03T08:49:09Z</time>
      </trkpt>
      <trkpt lat="44.54634" lon="2.85968">
        <ele>713</ele>
        <time>2018-05-03T08:49:34Z</time>
      </trkpt>
      <trkpt lat="44.54609" lon="2.85962">
        <ele>712</ele>
        <time>2018-05-03T08:49:52Z</time>
      </trkpt>
      <trkpt lat="44.54599" lon="2.85958">
        <ele>711</ele>
        <time>2018-05-03T08:50:00Z</time>
      </trkpt>
      <trkpt lat="44.54562" lon="2.85948">
        <ele>710</ele>
        <time>2018-05-03T08:50:33Z</time>
      </trkpt>
      <trkpt lat="44.54547" lon="2.85943">
        <ele>710</ele>
        <time>2018-05-03T08:50:43Z</time>
      </trkpt>
      <trkpt lat="44.54533" lon="2.8594">
        <ele>708</ele>
        <time>2018-05-03T08:50:55Z</time>
      </trkpt>
      <trkpt lat="44.54507" lon="2.85945">
        <ele>705</ele>
        <time>2018-05-03T08:51:16Z</time>
      </trkpt>
      <trkpt lat="44.54496" lon="2.85951">
        <ele>704</ele>
        <time>2018-05-03T08:51:27Z</time>
      </trkpt>
      <trkpt lat="44.5447" lon="2.85952">
        <ele>702</ele>
        <time>2018-05-03T08:51:47Z</time>
      </trkpt>
      <trkpt lat="44.54439" lon="2.85943">
        <ele>700</ele>
        <time>2018-05-03T08:52:13Z</time>
      </trkpt>
      <trkpt lat="44.54428" lon="2.85932">
        <ele>699</ele>
        <time>2018-05-03T08:52:25Z</time>
      </trkpt>
      <trkpt lat="44.54401" lon="2.85913">
        <ele>697</ele>
        <time>2018-05-03T08:52:46Z</time>
      </trkpt>
      <trkpt lat="44.54356" lon="2.85873">
        <ele>691</ele>
        <time>2018-05-03T08:53:29Z</time>
      </trkpt>
      <trkpt lat="44.54345" lon="2.8587">
        <ele>689</ele>
        <time>2018-05-03T08:53:37Z</time>
      </trkpt>
      <trkpt lat="44.54331" lon="2.85841">
        <ele>686</ele>
        <time>2018-05-03T08:53:58Z</time>
      </trkpt>
      <trkpt lat="44.54326" lon="2.85835">
        <ele>686</ele>
        <time>2018-05-03T08:54:30Z</time>
      </trkpt>
      <trkpt lat="44.5432" lon="2.85824">
        <ele>685</ele>
        <time>2018-05-03T08:54:37Z</time>
      </trkpt>
      <trkpt lat="44.54297" lon="2.85788">
        <ele>684</ele>
        <time>2018-05-03T08:55:01Z</time>
      </trkpt>
      <trkpt lat="44.54291" lon="2.85777">
        <ele>684</ele>
        <time>2018-05-03T08:55:09Z</time>
      </trkpt>
      <trkpt lat="44.54287" lon="2.85764">
        <ele>684</ele>
        <time>2018-05-03T08:55:17Z</time>
      </trkpt>
      <trkpt lat="44.54252" lon="2.857">
        <ele>680</ele>
        <time>2018-05-03T08:56:06Z</time>
      </trkpt>
      <trkpt lat="44.54243" lon="2.85681">
        <ele>679</ele>
        <time>2018-05-03T08:56:18Z</time>
      </trkpt>
      <trkpt lat="44.54239" lon="2.85678">
        <ele>679</ele>
        <time>2018-05-03T08:56:21Z</time>
      </trkpt>
      <trkpt lat="44.54225" lon="2.85658">
        <ele>676</ele>
        <time>2018-05-03T08:56:37Z</time>
      </trkpt>
      <trkpt lat="44.54216" lon="2.8565">
        <ele>675</ele>
        <time>2018-05-03T08:56:50Z</time>
      </trkpt>
      <trkpt lat="44.54206" lon="2.85632">
        <ele>675</ele>
        <time>2018-05-03T08:57:14Z</time>
      </trkpt>
      <trkpt lat="44.54204" lon="2.85626">
        <ele>675</ele>
        <time>2018-05-03T08:57:20Z</time>
      </trkpt>
      <trkpt lat="44.542" lon="2.85622">
        <ele>675</ele>
        <time>2018-05-03T08:57:24Z</time>
      </trkpt>
      <trkpt lat="44.54193" lon="2.85603">
        <ele>675</ele>
        <time>2018-05-03T08:57:38Z</time>
      </trkpt>
      <trkpt lat="44.54187" lon="2.85592">
        <ele>674</ele>
        <time>2018-05-03T08:57:46Z</time>
      </trkpt>
      <trkpt lat="44.54115" lon="2.85495">
        <ele>665</ele>
        <time>2018-05-03T08:59:05Z</time>
      </trkpt>
      <trkpt lat="44.54109" lon="2.85483">
        <ele>664</ele>
        <time>2018-05-03T08:59:14Z</time>
      </trkpt>
      <trkpt lat="44.54084" lon="2.8546">
        <ele>659</ele>
        <time>2018-05-03T08:59:49Z</time>
      </trkpt>
      <trkpt lat="44.54071" lon="2.8545">
        <ele>657</ele>
        <time>2018-05-03T09:00:05Z</time>
      </trkpt>
      <trkpt lat="44.54068" lon="2.85445">
        <ele>656</ele>
        <time>2018-05-03T09:00:09Z</time>
      </trkpt>
      <trkpt lat="44.54041" lon="2.85424">
        <ele>651</ele>
        <time>2018-05-03T09:00:37Z</time>
      </trkpt>
      <trkpt lat="44.54027" lon="2.85416">
        <ele>649</ele>
        <time>2018-05-03T09:00:51Z</time>
      </trkpt>
      <trkpt lat="44.54025" lon="2.8541">
        <ele>649</ele>
        <time>2018-05-03T09:01:31Z</time>
      </trkpt>
      <trkpt lat="44.54012" lon="2.85385">
        <ele>648</ele>
        <time>2018-05-03T09:02:20Z</time>
      </trkpt>
      <trkpt lat="44.54004" lon="2.85376">
        <ele>647</ele>
        <time>2018-05-03T09:02:29Z</time>
      </trkpt>
      <trkpt lat="44.53999" lon="2.85373">
        <ele>646</ele>
        <time>2018-05-03T09:02:34Z</time>
      </trkpt>
      <trkpt lat="44.5399" lon="2.85364">
        <ele>644</ele>
        <time>2018-05-03T09:02:44Z</time>
      </trkpt>
      <trkpt lat="44.53966" lon="2.85344">
        <ele>640</ele>
        <time>2018-05-03T09:03:12Z</time>
      </trkpt>
      <trkpt lat="44.53962" lon="2.8534">
        <ele>639</ele>
        <time>2018-05-03T09:03:17Z</time>
      </trkpt>
      <trkpt lat="44.53935" lon="2.85324">
        <ele>636</ele>
        <time>2018-05-03T09:03:45Z</time>
      </trkpt>
      <trkpt lat="44.53916" lon="2.85319">
        <ele>633</ele>
        <time>2018-05-03T09:04:05Z</time>
      </trkpt>
      <trkpt lat="44.53911" lon="2.8532">
        <ele>632</ele>
        <time>2018-05-03T09:04:09Z</time>
      </trkpt>
      <trkpt lat="44.53829" lon="2.85296">
        <ele>625</ele>
        <time>2018-05-03T09:05:25Z</time>
      </trkpt>
      <trkpt lat="44.53814" lon="2.8528">
        <ele>623</ele>
        <time>2018-05-03T09:05:43Z</time>
      </trkpt>
      <trkpt lat="44.53809" lon="2.85273">
        <ele>622</ele>
        <time>2018-05-03T09:05:49Z</time>
      </trkpt>
      <trkpt lat="44.53805" lon="2.85269">
        <ele>621</ele>
        <time>2018-05-03T09:05:53Z</time>
      </trkpt>
      <trkpt lat="44.53796" lon="2.85263">
        <ele>621</ele>
        <time>2018-05-03T09:06:01Z</time>
      </trkpt>
      <trkpt lat="44.53735" lon="2.85208">
        <ele>609</ele>
        <time>2018-05-03T09:07:05Z</time>
      </trkpt>
      <trkpt lat="44.53701" lon="2.85165">
        <ele>603</ele>
        <time>2018-05-03T09:07:43Z</time>
      </trkpt>
      <trkpt lat="44.53675" lon="2.85144">
        <ele>598</ele>
        <time>2018-05-03T09:08:17Z</time>
      </trkpt>
      <trkpt lat="44.53667" lon="2.85139">
        <ele>596</ele>
        <time>2018-05-03T09:08:26Z</time>
      </trkpt>
      <trkpt lat="44.53661" lon="2.85135">
        <ele>594</ele>
        <time>2018-05-03T09:08:37Z</time>
      </trkpt>
      <trkpt lat="44.53655" lon="2.85133">
        <ele>594</ele>
        <time>2018-05-03T09:08:53Z</time>
      </trkpt>
      <trkpt lat="44.53646" lon="2.85127">
        <ele>592</ele>
        <time>2018-05-03T09:09:01Z</time>
      </trkpt>
      <trkpt lat="44.53637" lon="2.85126">
        <ele>590</ele>
        <time>2018-05-03T09:09:09Z</time>
      </trkpt>
      <trkpt lat="44.53627" lon="2.85129">
        <ele>588</ele>
        <time>2018-05-03T09:09:18Z</time>
      </trkpt>
      <trkpt lat="44.53623" lon="2.85134">
        <ele>587</ele>
        <time>2018-05-03T09:09:23Z</time>
      </trkpt>
      <trkpt lat="44.53613" lon="2.85153">
        <ele>584</ele>
        <time>2018-05-03T09:09:37Z</time>
      </trkpt>
      <trkpt lat="44.53606" lon="2.85162">
        <ele>583</ele>
        <time>2018-05-03T09:09:46Z</time>
      </trkpt>
      <trkpt lat="44.53603" lon="2.85168">
        <ele>583</ele>
        <time>2018-05-03T09:10:09Z</time>
      </trkpt>
      <trkpt lat="44.53598" lon="2.85165">
        <ele>582</ele>
        <time>2018-05-03T09:10:15Z</time>
      </trkpt>
      <trkpt lat="44.5359" lon="2.85148">
        <ele>580</ele>
        <time>2018-05-03T09:10:27Z</time>
      </trkpt>
      <trkpt lat="44.53586" lon="2.85143">
        <ele>579</ele>
        <time>2018-05-03T09:10:32Z</time>
      </trkpt>
      <trkpt lat="44.53581" lon="2.8514">
        <ele>578</ele>
        <time>2018-05-03T09:10:36Z</time>
      </trkpt>
      <trkpt lat="44.53576" lon="2.8513">
        <ele>577</ele>
        <time>2018-05-03T09:10:43Z</time>
      </trkpt>
      <trkpt lat="44.53573" lon="2.85122">
        <ele>576</ele>
        <time>2018-05-03T09:10:47Z</time>
      </trkpt>
      <trkpt lat="44.53568" lon="2.85111">
        <ele>575</ele>
        <time>2018-05-03T09:10:54Z</time>
      </trkpt>
      <trkpt lat="44.53567" lon="2.85104">
        <ele>575</ele>
        <time>2018-05-03T09:10:59Z</time>
      </trkpt>
      <trkpt lat="44.53561" lon="2.85092">
        <ele>574</ele>
        <time>2018-05-03T09:11:07Z</time>
      </trkpt>
      <trkpt lat="44.53559" lon="2.85076">
        <ele>572</ele>
        <time>2018-05-03T09:11:15Z</time>
      </trkpt>
      <trkpt lat="44.53557" lon="2.85037">
        <ele>570</ele>
        <time>2018-05-03T09:12:02Z</time>
      </trkpt>
      <trkpt lat="44.53561" lon="2.85031">
        <ele>569</ele>
        <time>2018-05-03T09:12:06Z</time>
      </trkpt>
      <trkpt lat="44.53563" lon="2.85016">
        <ele>567</ele>
        <time>2018-05-03T09:12:14Z</time>
      </trkpt>
      <trkpt lat="44.5355" lon="2.85003">
        <ele>563</ele>
        <time>2018-05-03T09:12:36Z</time>
      </trkpt>
      <trkpt lat="44.53541" lon="2.85">
        <ele>562</ele>
        <time>2018-05-03T09:12:44Z</time>
      </trkpt>
      <trkpt lat="44.5353" lon="2.84998">
        <ele>559</ele>
        <time>2018-05-03T09:12:58Z</time>
      </trkpt>
      <trkpt lat="44.53514" lon="2.85001">
        <ele>557</ele>
        <time>2018-05-03T09:13:13Z</time>
      </trkpt>
      <trkpt lat="44.53495" lon="2.85001">
        <ele>554</ele>
        <time>2018-05-03T09:13:32Z</time>
      </trkpt>
      <trkpt lat="44.53476" lon="2.84993">
        <ele>551</ele>
        <time>2018-05-03T09:13:51Z</time>
      </trkpt>
      <trkpt lat="44.5347" lon="2.84986">
        <ele>550</ele>
        <time>2018-05-03T09:14:02Z</time>
      </trkpt>
      <trkpt lat="44.53451" lon="2.84976">
        <ele>548</ele>
        <time>2018-05-03T09:14:19Z</time>
      </trkpt>
      <trkpt lat="44.53447" lon="2.84972">
        <ele>547</ele>
        <time>2018-05-03T09:14:28Z</time>
      </trkpt>
      <trkpt lat="44.53447" lon="2.84965">
        <ele>547</ele>
        <time>2018-05-03T09:14:33Z</time>
      </trkpt>
      <trkpt lat="44.53435" lon="2.84925">
        <ele>541</ele>
        <time>2018-05-03T09:15:07Z</time>
      </trkpt>
      <trkpt lat="44.53427" lon="2.8492">
        <ele>539</ele>
        <time>2018-05-03T09:15:19Z</time>
      </trkpt>
      <trkpt lat="44.53405" lon="2.84935">
        <ele>535</ele>
        <time>2018-05-03T09:15:46Z</time>
      </trkpt>
      <trkpt lat="44.53382" lon="2.84965">
        <ele>528</ele>
        <time>2018-05-03T09:16:20Z</time>
      </trkpt>
      <trkpt lat="44.53373" lon="2.84975">
        <ele>526</ele>
        <time>2018-05-03T09:16:32Z</time>
      </trkpt>
      <trkpt lat="44.53369" lon="2.84969">
        <ele>525</ele>
        <time>2018-05-03T09:16:39Z</time>
      </trkpt>
      <trkpt lat="44.53368" lon="2.84924">
        <ele>521</ele>
        <time>2018-05-03T09:17:09Z</time>
      </trkpt>
      <trkpt lat="44.53369" lon="2.84917">
        <ele>520</ele>
        <time>2018-05-03T09:17:14Z</time>
      </trkpt>
      <trkpt lat="44.53361" lon="2.84911">
        <ele>518</ele>
        <time>2018-05-03T09:17:25Z</time>
      </trkpt>
      <trkpt lat="44.53358" lon="2.84918">
        <ele>517</ele>
        <time>2018-05-03T09:17:37Z</time>
      </trkpt>
      <trkpt lat="44.53359" lon="2.84925">
        <ele>516</ele>
        <time>2018-05-03T09:17:44Z</time>
      </trkpt>
      <trkpt lat="44.53355" lon="2.84929">
        <ele>515</ele>
        <time>2018-05-03T09:17:50Z</time>
      </trkpt>
      <trkpt lat="44.53346" lon="2.84944">
        <ele>513</ele>
        <time>2018-05-03T09:18:06Z</time>
      </trkpt>
      <trkpt lat="44.53342" lon="2.84954">
        <ele>512</ele>
        <time>2018-05-03T09:18:17Z</time>
      </trkpt>
      <trkpt lat="44.53339" lon="2.84958">
        <ele>511</ele>
        <time>2018-05-03T09:18:22Z</time>
      </trkpt>
      <trkpt lat="44.53338" lon="2.84965">
        <ele>511</ele>
        <time>2018-05-03T09:18:36Z</time>
      </trkpt>
      <trkpt lat="44.53326" lon="2.85001">
        <ele>507</ele>
        <time>2018-05-03T09:19:08Z</time>
      </trkpt>
      <trkpt lat="44.53327" lon="2.85008">
        <ele>506</ele>
        <time>2018-05-03T09:19:12Z</time>
      </trkpt>
      <trkpt lat="44.53325" lon="2.85021">
        <ele>505</ele>
        <time>2018-05-03T09:19:20Z</time>
      </trkpt>
      <trkpt lat="44.53321" lon="2.85024">
        <ele>505</ele>
        <time>2018-05-03T09:19:40Z</time>
      </trkpt>
      <trkpt lat="44.53323" lon="2.85046">
        <ele>504</ele>
        <time>2018-05-03T09:20:04Z</time>
      </trkpt>
      <trkpt lat="44.53326" lon="2.85055">
        <ele>503</ele>
        <time>2018-05-03T09:20:27Z</time>
      </trkpt>
      <trkpt lat="44.5333" lon="2.85058">
        <ele>502</ele>
        <time>2018-05-03T09:20:29Z</time>
      </trkpt>
      <trkpt lat="44.53335" lon="2.85059">
        <ele>502</ele>
        <time>2018-05-03T09:20:32Z</time>
      </trkpt>
      <trkpt lat="44.53336" lon="2.85067">
        <ele>500</ele>
        <time>2018-05-03T09:20:54Z</time>
      </trkpt>
      <trkpt lat="44.5334" lon="2.85073">
        <ele>498</ele>
        <time>2018-05-03T09:21:06Z</time>
      </trkpt>
      <trkpt lat="44.53341" lon="2.85102">
        <ele>495</ele>
        <time>2018-05-03T09:21:28Z</time>
      </trkpt>
      <trkpt lat="44.53344" lon="2.85108">
        <ele>494</ele>
        <time>2018-05-03T09:21:32Z</time>
      </trkpt>
      <trkpt lat="44.53348" lon="2.85116">
        <ele>493</ele>
        <time>2018-05-03T09:22:03Z</time>
      </trkpt>
      <trkpt lat="44.5335" lon="2.85125">
        <ele>493</ele>
        <time>2018-05-03T09:22:09Z</time>
      </trkpt>
      <trkpt lat="44.53359" lon="2.85149">
        <ele>491</ele>
        <time>2018-05-03T09:22:26Z</time>
      </trkpt>
      <trkpt lat="44.53363" lon="2.85154">
        <ele>490</ele>
        <time>2018-05-03T09:22:30Z</time>
      </trkpt>
      <trkpt lat="44.53366" lon="2.85159">
        <ele>490</ele>
        <time>2018-05-03T09:22:35Z</time>
      </trkpt>
      <trkpt lat="44.53372" lon="2.85164">
        <ele>489</ele>
        <time>2018-05-03T09:22:44Z</time>
      </trkpt>
      <trkpt lat="44.53376" lon="2.85169">
        <ele>488</ele>
        <time>2018-05-03T09:22:49Z</time>
      </trkpt>
      <trkpt lat="44.53372" lon="2.85178">
        <ele>488</ele>
        <time>2018-05-03T09:23:27Z</time>
      </trkpt>
      <trkpt lat="44.53367" lon="2.85181">
        <ele>487</ele>
        <time>2018-05-03T09:23:32Z</time>
      </trkpt>
      <trkpt lat="44.53355" lon="2.85175">
        <ele>484</ele>
        <time>2018-05-03T09:23:46Z</time>
      </trkpt>
      <trkpt lat="44.5333" lon="2.85152">
        <ele>481</ele>
        <time>2018-05-03T09:24:15Z</time>
      </trkpt>
      <trkpt lat="44.53328" lon="2.8516">
        <ele>481</ele>
        <time>2018-05-03T09:24:29Z</time>
      </trkpt>
      <trkpt lat="44.53329" lon="2.85172">
        <ele>479</ele>
        <time>2018-05-03T09:24:41Z</time>
      </trkpt>
      <trkpt lat="44.53338" lon="2.85206">
        <ele>474</ele>
        <time>2018-05-03T09:25:06Z</time>
      </trkpt>
      <trkpt lat="44.53346" lon="2.85227">
        <ele>471</ele>
        <time>2018-05-03T09:25:23Z</time>
      </trkpt>
      <trkpt lat="44.53351" lon="2.85229">
        <ele>471</ele>
        <time>2018-05-03T09:25:28Z</time>
      </trkpt>
      <trkpt lat="44.53356" lon="2.85234">
        <ele>469</ele>
        <time>2018-05-03T09:25:38Z</time>
      </trkpt>
      <trkpt lat="44.53366" lon="2.85255">
        <ele>465</ele>
        <time>2018-05-03T09:26:00Z</time>
      </trkpt>
      <trkpt lat="44.53367" lon="2.85263">
        <ele>464</ele>
        <time>2018-05-03T09:26:14Z</time>
      </trkpt>
      <trkpt lat="44.53369" lon="2.85268">
        <ele>462</ele>
        <time>2018-05-03T09:26:38Z</time>
      </trkpt>
      <trkpt lat="44.53357" lon="2.85306">
        <ele>457</ele>
        <time>2018-05-03T09:27:22Z</time>
      </trkpt>
      <trkpt lat="44.53354" lon="2.85314">
        <ele>457</ele>
        <time>2018-05-03T09:27:46Z</time>
      </trkpt>
      <trkpt lat="44.53359" lon="2.8533">
        <ele>456</ele>
        <time>2018-05-03T09:28:16Z</time>
      </trkpt>
      <trkpt lat="44.53364" lon="2.85331">
        <ele>455</ele>
        <time>2018-05-03T09:28:19Z</time>
      </trkpt>
      <trkpt lat="44.53362" lon="2.85339">
        <ele>454</ele>
        <time>2018-05-03T09:28:27Z</time>
      </trkpt>
      <trkpt lat="44.53372" lon="2.85362">
        <ele>452</ele>
        <time>2018-05-03T09:28:56Z</time>
      </trkpt>
      <trkpt lat="44.53379" lon="2.85367">
        <ele>451</ele>
        <time>2018-05-03T09:29:07Z</time>
      </trkpt>
      <trkpt lat="44.53383" lon="2.85371">
        <ele>450</ele>
        <time>2018-05-03T09:29:15Z</time>
      </trkpt>
      <trkpt lat="44.53377" lon="2.85381">
        <ele>448</ele>
        <time>2018-05-03T09:29:26Z</time>
      </trkpt>
      <trkpt lat="44.53367" lon="2.85385">
        <ele>447</ele>
        <time>2018-05-03T09:29:34Z</time>
      </trkpt>
      <trkpt lat="44.53359" lon="2.85385">
        <ele>447</ele>
        <time>2018-05-03T09:29:47Z</time>
      </trkpt>
      <trkpt lat="44.53347" lon="2.85381">
        <ele>447</ele>
        <time>2018-05-03T09:30:00Z</time>
      </trkpt>
      <trkpt lat="44.53339" lon="2.85383">
        <ele>447</ele>
        <time>2018-05-03T09:30:13Z</time>
      </trkpt>
      <trkpt lat="44.53333" lon="2.85384">
        <ele>448</ele>
        <time>2018-05-03T09:30:50Z</time>
      </trkpt>
      <trkpt lat="44.53328" lon="2.85383">
        <ele>448</ele>
        <time>2018-05-03T09:30:54Z</time>
      </trkpt>
      <trkpt lat="44.53324" lon="2.85387">
        <ele>449</ele>
        <time>2018-05-03T09:30:59Z</time>
      </trkpt>
      <trkpt lat="44.53315" lon="2.85397">
        <ele>451</ele>
        <time>2018-05-03T09:31:17Z</time>
      </trkpt>
      <trkpt lat="44.53306" lon="2.85391">
        <ele>453</ele>
        <time>2018-05-03T09:31:38Z</time>
      </trkpt>
      <trkpt lat="44.53287" lon="2.85361">
        <ele>457</ele>
        <time>2018-05-03T09:32:11Z</time>
      </trkpt>
      <trkpt lat="44.53282" lon="2.85356">
        <ele>458</ele>
        <time>2018-05-03T09:32:23Z</time>
      </trkpt>
      <trkpt lat="44.53278" lon="2.85336">
        <ele>458</ele>
        <time>2018-05-03T09:33:00Z</time>
      </trkpt>
      <trkpt lat="44.53274" lon="2.85326">
        <ele>457</ele>
        <time>2018-05-03T09:33:12Z</time>
      </trkpt>
      <trkpt lat="44.53271" lon="2.85294">
        <ele>453</ele>
        <time>2018-05-03T09:33:36Z</time>
      </trkpt>
      <trkpt lat="44.53272" lon="2.85287">
        <ele>452</ele>
        <time>2018-05-03T09:33:41Z</time>
      </trkpt>
      <trkpt lat="44.53268" lon="2.85267">
        <ele>450</ele>
        <time>2018-05-03T09:33:54Z</time>
      </trkpt>
      <trkpt lat="44.53267" lon="2.85237">
        <ele>447</ele>
        <time>2018-05-03T09:34:10Z</time>
      </trkpt>
      <trkpt lat="44.53265" lon="2.85231">
        <ele>447</ele>
        <time>2018-05-03T09:34:14Z</time>
      </trkpt>
      <trkpt lat="44.53265" lon="2.85224">
        <ele>446</ele>
        <time>2018-05-03T09:34:18Z</time>
      </trkpt>
      <trkpt lat="44.53261" lon="2.85211">
        <ele>445</ele>
        <time>2018-05-03T09:34:26Z</time>
      </trkpt>
      <trkpt lat="44.53251" lon="2.85193">
        <ele>442</ele>
        <time>2018-05-03T09:34:42Z</time>
      </trkpt>
      <trkpt lat="44.53246" lon="2.8519">
        <ele>442</ele>
        <time>2018-05-03T09:34:47Z</time>
      </trkpt>
      <trkpt lat="44.53249" lon="2.85181">
        <ele>442</ele>
        <time>2018-05-03T09:35:35Z</time>
      </trkpt>
      <trkpt lat="44.53253" lon="2.85176">
        <ele>442</ele>
        <time>2018-05-03T09:35:38Z</time>
      </trkpt>
      <trkpt lat="44.53257" lon="2.85173">
        <ele>442</ele>
        <time>2018-05-03T09:35:43Z</time>
      </trkpt>
      <trkpt lat="44.53259" lon="2.85165">
        <ele>442</ele>
        <time>2018-05-03T09:35:50Z</time>
      </trkpt>
      <trkpt lat="44.53253" lon="2.85158">
        <ele>441</ele>
        <time>2018-05-03T09:35:57Z</time>
      </trkpt>
      <trkpt lat="44.53252" lon="2.85152">
        <ele>441</ele>
        <time>2018-05-03T09:36:01Z</time>
      </trkpt>
      <trkpt lat="44.53246" lon="2.8514">
        <ele>440</ele>
        <time>2018-05-03T09:36:10Z</time>
      </trkpt>
      <trkpt lat="44.53245" lon="2.85133">
        <ele>440</ele>
        <time>2018-05-03T09:36:14Z</time>
      </trkpt>
      <trkpt lat="44.53244" lon="2.85126">
        <ele>440</ele>
        <time>2018-05-03T09:36:19Z</time>
      </trkpt>
      <trkpt lat="44.53238" lon="2.85107">
        <ele>439</ele>
        <time>2018-05-03T09:36:32Z</time>
      </trkpt>
      <trkpt lat="44.53234" lon="2.85102">
        <ele>438</ele>
        <time>2018-05-03T09:36:37Z</time>
      </trkpt>
      <trkpt lat="44.53223" lon="2.85095">
        <ele>437</ele>
        <time>2018-05-03T09:36:47Z</time>
      </trkpt>
      <trkpt lat="44.53214" lon="2.85091">
        <ele>436</ele>
        <time>2018-05-03T09:36:55Z</time>
      </trkpt>
      <trkpt lat="44.53203" lon="2.85077">
        <ele>435</ele>
        <time>2018-05-03T09:37:08Z</time>
      </trkpt>
      <trkpt lat="44.53197" lon="2.85048">
        <ele>432</ele>
        <time>2018-05-03T09:37:25Z</time>
      </trkpt>
      <trkpt lat="44.53184" lon="2.85018">
        <ele>430</ele>
        <time>2018-05-03T09:37:46Z</time>
      </trkpt>
      <trkpt lat="44.53183" lon="2.85004">
        <ele>430</ele>
        <time>2018-05-03T09:37:54Z</time>
      </trkpt>
      <trkpt lat="44.5318" lon="2.84998">
        <ele>429</ele>
        <time>2018-05-03T09:37:58Z</time>
      </trkpt>
      <trkpt lat="44.53165" lon="2.84979">
        <ele>428</ele>
        <time>2018-05-03T09:38:13Z</time>
      </trkpt>
      <trkpt lat="44.5316" lon="2.84974">
        <ele>427</ele>
        <time>2018-05-03T09:38:30Z</time>
      </trkpt>
      <trkpt lat="44.53166" lon="2.84947">
        <ele>426</ele>
        <time>2018-05-03T09:38:47Z</time>
      </trkpt>
      <trkpt lat="44.53193" lon="2.84895">
        <ele>422</ele>
        <time>2018-05-03T09:39:28Z</time>
      </trkpt>
      <trkpt lat="44.53198" lon="2.84884">
        <ele>421</ele>
        <time>2018-05-03T09:39:36Z</time>
      </trkpt>
      <trkpt lat="44.532" lon="2.84871">
        <ele>420</ele>
        <time>2018-05-03T09:39:44Z</time>
      </trkpt>
      <trkpt lat="44.53199" lon="2.84865">
        <ele>420</ele>
        <time>2018-05-03T09:39:48Z</time>
      </trkpt>
      <trkpt lat="44.53194" lon="2.84852">
        <ele>419</ele>
        <time>2018-05-03T09:39:56Z</time>
      </trkpt>
      <trkpt lat="44.53191" lon="2.84847">
        <ele>419</ele>
        <time>2018-05-03T09:40:01Z</time>
      </trkpt>
      <trkpt lat="44.53187" lon="2.84843">
        <ele>418</ele>
        <time>2018-05-03T09:40:06Z</time>
      </trkpt>
      <trkpt lat="44.53175" lon="2.84837">
        <ele>418</ele>
        <time>2018-05-03T09:40:19Z</time>
      </trkpt>
      <trkpt lat="44.53165" lon="2.84836">
        <ele>418</ele>
        <time>2018-05-03T09:40:28Z</time>
      </trkpt>
      <trkpt lat="44.5316" lon="2.84835">
        <ele>419</ele>
        <time>2018-05-03T09:40:41Z</time>
      </trkpt>
      <trkpt lat="44.53153" lon="2.84831">
        <ele>419</ele>
        <time>2018-05-03T09:40:53Z</time>
      </trkpt>
      <trkpt lat="44.53139" lon="2.84829">
        <ele>419</ele>
        <time>2018-05-03T09:41:06Z</time>
      </trkpt>
      <trkpt lat="44.53126" lon="2.84819">
        <ele>420</ele>
        <time>2018-05-03T09:41:19Z</time>
      </trkpt>
      <trkpt lat="44.53117" lon="2.84804">
        <ele>421</ele>
        <time>2018-05-03T09:41:30Z</time>
      </trkpt>
      <trkpt lat="44.53107" lon="2.8478">
        <ele>423</ele>
        <time>2018-05-03T09:41:46Z</time>
      </trkpt>
      <trkpt lat="44.5304" lon="2.84682">
        <ele>430</ele>
        <time>2018-05-03T09:43:23Z</time>
      </trkpt>
      <trkpt lat="44.53024" lon="2.84663">
        <ele>431</ele>
        <time>2018-05-03T09:43:41Z</time>
      </trkpt>
      <trkpt lat="44.53007" lon="2.84647">
        <ele>433</ele>
        <time>2018-05-03T09:44:15Z</time>
      </trkpt>
      <trkpt lat="44.53" lon="2.84636">
        <ele>434</ele>
        <time>2018-05-03T09:44:24Z</time>
      </trkpt>
      <trkpt lat="44.52993" lon="2.84618">
        <ele>434</ele>
        <time>2018-05-03T09:44:35Z</time>
      </trkpt>
      <trkpt lat="44.52994" lon="2.84604">
        <ele>435</ele>
        <time>2018-05-03T09:44:44Z</time>
      </trkpt>
      <trkpt lat="44.52998" lon="2.8459">
        <ele>435</ele>
        <time>2018-05-03T09:44:54Z</time>
      </trkpt>
      <trkpt lat="44.53003" lon="2.84577">
        <ele>435</ele>
        <time>2018-05-03T09:45:04Z</time>
      </trkpt>
      <trkpt lat="44.53002" lon="2.8457">
        <ele>435</ele>
        <time>2018-05-03T09:45:08Z</time>
      </trkpt>
      <trkpt lat="44.52999" lon="2.84564">
        <ele>435</ele>
        <time>2018-05-03T09:45:13Z</time>
      </trkpt>
      <trkpt lat="44.52995" lon="2.84562">
        <ele>435</ele>
        <time>2018-05-03T09:45:18Z</time>
      </trkpt>
      <trkpt lat="44.52985" lon="2.84563">
        <ele>435</ele>
        <time>2018-05-03T09:45:27Z</time>
      </trkpt>
      <trkpt lat="44.52962" lon="2.84576">
        <ele>436</ele>
        <time>2018-05-03T09:45:47Z</time>
      </trkpt>
      <trkpt lat="44.52918" lon="2.84624">
        <ele>438</ele>
        <time>2018-05-03T09:46:52Z</time>
      </trkpt>
      <trkpt lat="44.52913" lon="2.84623">
        <ele>437</ele>
        <time>2018-05-03T09:47:16Z</time>
      </trkpt>
      <trkpt lat="44.5289" lon="2.84632">
        <ele>443</ele>
        <time>2018-05-03T09:47:48Z</time>
      </trkpt>
      <trkpt lat="44.52881" lon="2.84632">
        <ele>445</ele>
        <time>2018-05-03T09:48:00Z</time>
      </trkpt>
      <trkpt lat="44.52872" lon="2.84627">
        <ele>447</ele>
        <time>2018-05-03T09:48:11Z</time>
      </trkpt>
      <trkpt lat="44.52874" lon="2.84624">
        <ele>450</ele>
        <time>2018-05-03T09:49:01Z</time>
      </trkpt>
      <trkpt lat="44.52878" lon="2.84619">
        <ele>451</ele>
        <time>2018-05-03T09:49:07Z</time>
      </trkpt>
      <trkpt lat="44.52879" lon="2.84613">
        <ele>451</ele>
        <time>2018-05-03T09:49:12Z</time>
      </trkpt>
      <trkpt lat="44.52882" lon="2.84606">
        <ele>452</ele>
        <time>2018-05-03T09:49:20Z</time>
      </trkpt>
      <trkpt lat="44.52891" lon="2.84597">
        <ele>455</ele>
        <time>2018-05-03T09:49:38Z</time>
      </trkpt>
      <trkpt lat="44.52897" lon="2.84591">
        <ele>455</ele>
        <time>2018-05-03T09:50:18Z</time>
      </trkpt>
      <trkpt lat="44.52901" lon="2.84585">
        <ele>456</ele>
        <time>2018-05-03T09:50:23Z</time>
      </trkpt>
      <trkpt lat="44.52906" lon="2.84575">
        <ele>457</ele>
        <time>2018-05-03T09:50:30Z</time>
      </trkpt>
      <trkpt lat="44.5291" lon="2.8457">
        <ele>457</ele>
        <time>2018-05-03T09:50:35Z</time>
      </trkpt>
      <trkpt lat="44.52912" lon="2.84565">
        <ele>458</ele>
        <time>2018-05-03T09:50:40Z</time>
      </trkpt>
      <trkpt lat="44.52916" lon="2.84551">
        <ele>459</ele>
        <time>2018-05-03T09:50:50Z</time>
      </trkpt>
      <trkpt lat="44.52926" lon="2.84527">
        <ele>463</ele>
        <time>2018-05-03T09:51:10Z</time>
      </trkpt>
      <trkpt lat="44.52942" lon="2.84504">
        <ele>466</ele>
        <time>2018-05-03T09:51:41Z</time>
      </trkpt>
      <trkpt lat="44.52943" lon="2.84495">
        <ele>466</ele>
        <time>2018-05-03T09:52:09Z</time>
      </trkpt>
      <trkpt lat="44.52948" lon="2.84491">
        <ele>468</ele>
        <time>2018-05-03T09:52:18Z</time>
      </trkpt>
      <trkpt lat="44.52949" lon="2.84482">
        <ele>470</ele>
        <time>2018-05-03T09:52:29Z</time>
      </trkpt>
      <trkpt lat="44.5296" lon="2.84468">
        <ele>471</ele>
        <time>2018-05-03T09:53:10Z</time>
      </trkpt>
      <trkpt lat="44.52964" lon="2.84457">
        <ele>472</ele>
        <time>2018-05-03T09:53:17Z</time>
      </trkpt>
      <trkpt lat="44.52974" lon="2.84445">
        <ele>475</ele>
        <time>2018-05-03T09:53:30Z</time>
      </trkpt>
      <trkpt lat="44.52991" lon="2.84436">
        <ele>479</ele>
        <time>2018-05-03T09:53:56Z</time>
      </trkpt>
      <trkpt lat="44.53" lon="2.84438">
        <ele>481</ele>
        <time>2018-05-03T09:54:08Z</time>
      </trkpt>
      <trkpt lat="44.53017" lon="2.84436">
        <ele>483</ele>
        <time>2018-05-03T09:54:48Z</time>
      </trkpt>
      <trkpt lat="44.53026" lon="2.84423">
        <ele>486</ele>
        <time>2018-05-03T09:55:10Z</time>
      </trkpt>
      <trkpt lat="44.5303" lon="2.8442">
        <ele>486</ele>
        <time>2018-05-03T09:55:15Z</time>
      </trkpt>
      <trkpt lat="44.5303" lon="2.84413">
        <ele>487</ele>
        <time>2018-05-03T09:55:23Z</time>
      </trkpt>
      <trkpt lat="44.53047" lon="2.8439">
        <ele>491</ele>
        <time>2018-05-03T09:56:06Z</time>
      </trkpt>
      <trkpt lat="44.53055" lon="2.84381">
        <ele>492</ele>
        <time>2018-05-03T09:56:19Z</time>
      </trkpt>
      <trkpt lat="44.53064" lon="2.84365">
        <ele>494</ele>
        <time>2018-05-03T09:56:37Z</time>
      </trkpt>
      <trkpt lat="44.53076" lon="2.84349">
        <ele>496</ele>
        <time>2018-05-03T09:56:55Z</time>
      </trkpt>
      <trkpt lat="44.53082" lon="2.84337">
        <ele>497</ele>
        <time>2018-05-03T09:57:11Z</time>
      </trkpt>
      <trkpt lat="44.53089" lon="2.84327">
        <ele>498</ele>
        <time>2018-05-03T09:57:20Z</time>
      </trkpt>
      <trkpt lat="44.5309" lon="2.84305">
        <ele>499</ele>
        <time>2018-05-03T09:57:33Z</time>
      </trkpt>
      <trkpt lat="44.53093" lon="2.84297">
        <ele>500</ele>
        <time>2018-05-03T09:57:41Z</time>
      </trkpt>
      <trkpt lat="44.53096" lon="2.84292">
        <ele>501</ele>
        <time>2018-05-03T09:57:47Z</time>
      </trkpt>
      <trkpt lat="44.53101" lon="2.84272">
        <ele>502</ele>
        <time>2018-05-03T09:58:02Z</time>
      </trkpt>
      <trkpt lat="44.53117" lon="2.84244">
        <ele>506</ele>
        <time>2018-05-03T09:58:37Z</time>
      </trkpt>
      <trkpt lat="44.5312" lon="2.8424">
        <ele>506</ele>
        <time>2018-05-03T09:58:43Z</time>
      </trkpt>
      <trkpt lat="44.53127" lon="2.84229">
        <ele>508</ele>
        <time>2018-05-03T09:58:57Z</time>
      </trkpt>
      <trkpt lat="44.53128" lon="2.84222">
        <ele>509</ele>
        <time>2018-05-03T09:59:02Z</time>
      </trkpt>
      <trkpt lat="44.53127" lon="2.84208">
        <ele>509</ele>
        <time>2018-05-03T09:59:12Z</time>
      </trkpt>
      <trkpt lat="44.53124" lon="2.84201">
        <ele>510</ele>
        <time>2018-05-03T09:59:21Z</time>
      </trkpt>
      <trkpt lat="44.53121" lon="2.84188">
        <ele>510</ele>
        <time>2018-05-03T09:59:32Z</time>
      </trkpt>
      <trkpt lat="44.53112" lon="2.84166">
        <ele>511</ele>
        <time>2018-05-03T09:59:50Z</time>
      </trkpt>
      <trkpt lat="44.53111" lon="2.84122">
        <ele>513</ele>
        <time>2018-05-03T10:00:22Z</time>
      </trkpt>
      <trkpt lat="44.53113" lon="2.84114">
        <ele>514</ele>
        <time>2018-05-03T10:00:30Z</time>
      </trkpt>
      <trkpt lat="44.53112" lon="2.84094">
        <ele>515</ele>
        <time>2018-05-03T10:00:44Z</time>
      </trkpt>
      <trkpt lat="44.53109" lon="2.84076">
        <ele>514</ele>
        <time>2018-05-03T10:00:58Z</time>
      </trkpt>
      <trkpt lat="44.53097" lon="2.8404">
        <ele>512</ele>
        <time>2018-05-03T10:01:34Z</time>
      </trkpt>
      <trkpt lat="44.53063" lon="2.83981">
        <ele>509</ele>
        <time>2018-05-03T10:02:21Z</time>
      </trkpt>
      <trkpt lat="44.53047" lon="2.83965">
        <ele>507</ele>
        <time>2018-05-03T10:02:37Z</time>
      </trkpt>
      <trkpt lat="44.53032" lon="2.83958">
        <ele>505</ele>
        <time>2018-05-03T10:03:13Z</time>
      </trkpt>
      <trkpt lat="44.53015" lon="2.83953">
        <ele>504</ele>
        <time>2018-05-03T10:03:28Z</time>
      </trkpt>
      <trkpt lat="44.52995" lon="2.83942">
        <ele>502</ele>
        <time>2018-05-03T10:03:46Z</time>
      </trkpt>
      <trkpt lat="44.52982" lon="2.83938">
        <ele>501</ele>
        <time>2018-05-03T10:03:59Z</time>
      </trkpt>
      <trkpt lat="44.52974" lon="2.83934">
        <ele>500</ele>
        <time>2018-05-03T10:04:07Z</time>
      </trkpt>
      <trkpt lat="44.52963" lon="2.83931">
        <ele>499</ele>
        <time>2018-05-03T10:04:16Z</time>
      </trkpt>
      <trkpt lat="44.52955" lon="2.83924">
        <ele>498</ele>
        <time>2018-05-03T10:04:24Z</time>
      </trkpt>
      <trkpt lat="44.52951" lon="2.83918">
        <ele>498</ele>
        <time>2018-05-03T10:04:28Z</time>
      </trkpt>
      <trkpt lat="44.52945" lon="2.83906">
        <ele>497</ele>
        <time>2018-05-03T10:04:37Z</time>
      </trkpt>
      <trkpt lat="44.52944" lon="2.839">
        <ele>497</ele>
        <time>2018-05-03T10:04:41Z</time>
      </trkpt>
      <trkpt lat="44.52944" lon="2.83885">
        <ele>496</ele>
        <time>2018-05-03T10:04:53Z</time>
      </trkpt>
      <trkpt lat="44.52947" lon="2.8387">
        <ele>495</ele>
        <time>2018-05-03T10:05:03Z</time>
      </trkpt>
      <trkpt lat="44.52946" lon="2.83856">
        <ele>494</ele>
        <time>2018-05-03T10:05:13Z</time>
      </trkpt>
      <trkpt lat="44.52944" lon="2.83849">
        <ele>493</ele>
        <time>2018-05-03T10:05:21Z</time>
      </trkpt>
      <trkpt lat="44.52943" lon="2.83836">
        <ele>493</ele>
        <time>2018-05-03T10:05:29Z</time>
      </trkpt>
      <trkpt lat="44.52939" lon="2.83824">
        <ele>492</ele>
        <time>2018-05-03T10:05:37Z</time>
      </trkpt>
      <trkpt lat="44.52936" lon="2.83818">
        <ele>491</ele>
        <time>2018-05-03T10:05:42Z</time>
      </trkpt>
      <trkpt lat="44.52931" lon="2.83802">
        <ele>491</ele>
        <time>2018-05-03T10:05:54Z</time>
      </trkpt>
      <trkpt lat="44.52925" lon="2.83789">
        <ele>490</ele>
        <time>2018-05-03T10:06:04Z</time>
      </trkpt>
      <trkpt lat="44.52923" lon="2.83781">
        <ele>489</ele>
        <time>2018-05-03T10:06:09Z</time>
      </trkpt>
      <trkpt lat="44.52922" lon="2.83774">
        <ele>489</ele>
        <time>2018-05-03T10:06:14Z</time>
      </trkpt>
      <trkpt lat="44.52923" lon="2.83767">
        <ele>488</ele>
        <time>2018-05-03T10:06:19Z</time>
      </trkpt>
      <trkpt lat="44.52925" lon="2.83761">
        <ele>487</ele>
        <time>2018-05-03T10:06:24Z</time>
      </trkpt>
      <trkpt lat="44.52934" lon="2.83756">
        <ele>486</ele>
        <time>2018-05-03T10:06:54Z</time>
      </trkpt>
      <trkpt lat="44.52955" lon="2.83755">
        <ele>482</ele>
        <time>2018-05-03T10:07:11Z</time>
      </trkpt>
      <trkpt lat="44.5296" lon="2.83753">
        <ele>482</ele>
        <time>2018-05-03T10:07:16Z</time>
      </trkpt>
      <trkpt lat="44.52966" lon="2.83753">
        <ele>481</ele>
        <time>2018-05-03T10:07:24Z</time>
      </trkpt>
      <trkpt lat="44.52971" lon="2.83753">
        <ele>480</ele>
        <time>2018-05-03T10:07:28Z</time>
      </trkpt>
      <trkpt lat="44.52992" lon="2.83764">
        <ele>476</ele>
        <time>2018-05-03T10:07:47Z</time>
      </trkpt>
      <trkpt lat="44.52997" lon="2.83764">
        <ele>476</ele>
        <time>2018-05-03T10:07:50Z</time>
      </trkpt>
      <trkpt lat="44.53002" lon="2.83763">
        <ele>475</ele>
        <time>2018-05-03T10:07:54Z</time>
      </trkpt>
      <trkpt lat="44.53007" lon="2.83761">
        <ele>475</ele>
        <time>2018-05-03T10:07:58Z</time>
      </trkpt>
      <trkpt lat="44.5301" lon="2.83755">
        <ele>474</ele>
        <time>2018-05-03T10:08:03Z</time>
      </trkpt>
      <trkpt lat="44.53005" lon="2.83747">
        <ele>474</ele>
        <time>2018-05-03T10:08:17Z</time>
      </trkpt>
      <trkpt lat="44.53" lon="2.83746">
        <ele>474</ele>
        <time>2018-05-03T10:08:21Z</time>
      </trkpt>
      <trkpt lat="44.52995" lon="2.83743">
        <ele>475</ele>
        <time>2018-05-03T10:08:26Z</time>
      </trkpt>
      <trkpt lat="44.52989" lon="2.8373">
        <ele>476</ele>
        <time>2018-05-03T10:08:37Z</time>
      </trkpt>
      <trkpt lat="44.52983" lon="2.83722">
        <ele>477</ele>
        <time>2018-05-03T10:08:47Z</time>
      </trkpt>
      <trkpt lat="44.52976" lon="2.83712">
        <ele>479</ele>
        <time>2018-05-03T10:09:01Z</time>
      </trkpt>
      <trkpt lat="44.52969" lon="2.83683">
        <ele>483</ele>
        <time>2018-05-03T10:09:29Z</time>
      </trkpt>
      <trkpt lat="44.52969" lon="2.83676">
        <ele>484</ele>
        <time>2018-05-03T10:09:34Z</time>
      </trkpt>
      <trkpt lat="44.52967" lon="2.83663">
        <ele>485</ele>
        <time>2018-05-03T10:09:44Z</time>
      </trkpt>
      <trkpt lat="44.52967" lon="2.83654">
        <ele>486</ele>
        <time>2018-05-03T10:09:54Z</time>
      </trkpt>
      <trkpt lat="44.5297" lon="2.83622">
        <ele>490</ele>
        <time>2018-05-03T10:10:25Z</time>
      </trkpt>
      <trkpt lat="44.52969" lon="2.83615">
        <ele>490</ele>
        <time>2018-05-03T10:10:30Z</time>
      </trkpt>
      <trkpt lat="44.52969" lon="2.83596">
        <ele>492</ele>
        <time>2018-05-03T10:10:46Z</time>
      </trkpt>
      <trkpt lat="44.52968" lon="2.83589">
        <ele>493</ele>
        <time>2018-05-03T10:10:51Z</time>
      </trkpt>
      <trkpt lat="44.52971" lon="2.83578">
        <ele>493</ele>
        <time>2018-05-03T10:11:00Z</time>
      </trkpt>
      <trkpt lat="44.52971" lon="2.83571">
        <ele>493</ele>
        <time>2018-05-03T10:11:05Z</time>
      </trkpt>
      <trkpt lat="44.52972" lon="2.83565">
        <ele>494</ele>
        <time>2018-05-03T10:11:10Z</time>
      </trkpt>
      <trkpt lat="44.52971" lon="2.83555">
        <ele>494</ele>
        <time>2018-05-03T10:11:22Z</time>
      </trkpt>
      <trkpt lat="44.52953" lon="2.83511">
        <ele>499</ele>
        <time>2018-05-03T10:11:56Z</time>
      </trkpt>
      <trkpt lat="44.52949" lon="2.8349">
        <ele>499</ele>
        <time>2018-05-03T10:12:13Z</time>
      </trkpt>
      <trkpt lat="44.52946" lon="2.83459">
        <ele>500</ele>
        <time>2018-05-03T10:12:32Z</time>
      </trkpt>
      <trkpt lat="44.52938" lon="2.83414">
        <ele>502</ele>
        <time>2018-05-03T10:13:05Z</time>
      </trkpt>
      <trkpt lat="44.52931" lon="2.83401">
        <ele>503</ele>
        <time>2018-05-03T10:13:16Z</time>
      </trkpt>
      <trkpt lat="44.52927" lon="2.83394">
        <ele>503</ele>
        <time>2018-05-03T10:13:33Z</time>
      </trkpt>
      <trkpt lat="44.52921" lon="2.83389">
        <ele>504</ele>
        <time>2018-05-03T10:13:45Z</time>
      </trkpt>
      <trkpt lat="44.52918" lon="2.83382">
        <ele>504</ele>
        <time>2018-05-03T10:13:51Z</time>
      </trkpt>
      <trkpt lat="44.52914" lon="2.83377">
        <ele>505</ele>
        <time>2018-05-03T10:13:59Z</time>
      </trkpt>
      <trkpt lat="44.529" lon="2.83364">
        <ele>506</ele>
        <time>2018-05-03T10:14:18Z</time>
      </trkpt>
      <trkpt lat="44.52884" lon="2.83346">
        <ele>510</ele>
        <time>2018-05-03T10:14:45Z</time>
      </trkpt>
      <trkpt lat="44.52882" lon="2.8334">
        <ele>510</ele>
        <time>2018-05-03T10:14:51Z</time>
      </trkpt>
      <trkpt lat="44.52878" lon="2.83328">
        <ele>511</ele>
        <time>2018-05-03T10:15:04Z</time>
      </trkpt>
      <trkpt lat="44.52875" lon="2.83321">
        <ele>512</ele>
        <time>2018-05-03T10:15:15Z</time>
      </trkpt>
      <trkpt lat="44.52872" lon="2.8331">
        <ele>513</ele>
        <time>2018-05-03T10:15:26Z</time>
      </trkpt>
      <trkpt lat="44.52869" lon="2.83304">
        <ele>513</ele>
        <time>2018-05-03T10:15:38Z</time>
      </trkpt>
      <trkpt lat="44.52868" lon="2.83315">
        <ele>512</ele>
        <time>2018-05-03T10:16:20Z</time>
      </trkpt>
      <trkpt lat="44.52865" lon="2.83322">
        <ele>510</ele>
        <time>2018-05-03T10:16:28Z</time>
      </trkpt>
      <trkpt lat="44.52862" lon="2.83317">
        <ele>510</ele>
        <time>2018-05-03T10:16:48Z</time>
      </trkpt>
      <trkpt lat="44.5287" lon="2.83323">
        <ele>509</ele>
        <time>2018-05-03T10:17:30Z</time>
      </trkpt>
      <trkpt lat="44.52868" lon="2.83327">
        <ele>509</ele>
        <time>2018-05-03T11:02:40Z</time>
      </trkpt>
      <trkpt lat="44.52864" lon="2.83327">
        <ele>509</ele>
        <time>2018-05-03T11:03:06Z</time>
      </trkpt>
      <trkpt lat="44.52864" lon="2.8332">
        <ele>509</ele>
        <time>2018-05-03T11:03:54Z</time>
      </trkpt>
      <trkpt lat="44.52867" lon="2.83314">
        <ele>509</ele>
        <time>2018-05-03T11:04:06Z</time>
      </trkpt>
      <trkpt lat="44.52872" lon="2.833">
        <ele>511</ele>
        <time>2018-05-03T11:04:22Z</time>
      </trkpt>
      <trkpt lat="44.52872" lon="2.83293">
        <ele>511</ele>
        <time>2018-05-03T11:04:27Z</time>
      </trkpt>
      <trkpt lat="44.52871" lon="2.83287">
        <ele>512</ele>
        <time>2018-05-03T11:04:34Z</time>
      </trkpt>
      <trkpt lat="44.52867" lon="2.83279">
        <ele>513</ele>
        <time>2018-05-03T11:04:44Z</time>
      </trkpt>
      <trkpt lat="44.52863" lon="2.83275">
        <ele>513</ele>
        <time>2018-05-03T11:04:50Z</time>
      </trkpt>
      <trkpt lat="44.52855" lon="2.83257">
        <ele>514</ele>
        <time>2018-05-03T11:05:05Z</time>
      </trkpt>
      <trkpt lat="44.52853" lon="2.83251">
        <ele>515</ele>
        <time>2018-05-03T11:05:09Z</time>
      </trkpt>
      <trkpt lat="44.5285" lon="2.83246">
        <ele>515</ele>
        <time>2018-05-03T11:05:14Z</time>
      </trkpt>
      <trkpt lat="44.52847" lon="2.83237">
        <ele>515</ele>
        <time>2018-05-03T11:05:22Z</time>
      </trkpt>
      <trkpt lat="44.52865" lon="2.8318">
        <ele>516</ele>
        <time>2018-05-03T11:06:05Z</time>
      </trkpt>
      <trkpt lat="44.52825" lon="2.83145">
        <ele>513</ele>
        <time>2018-05-03T11:06:51Z</time>
      </trkpt>
      <trkpt lat="44.52816" lon="2.83141">
        <ele>512</ele>
        <time>2018-05-03T11:07:01Z</time>
      </trkpt>
      <trkpt lat="44.52811" lon="2.83142">
        <ele>512</ele>
        <time>2018-05-03T11:07:07Z</time>
      </trkpt>
      <trkpt lat="44.52766" lon="2.83173">
        <ele>515</ele>
        <time>2018-05-03T11:08:10Z</time>
      </trkpt>
      <trkpt lat="44.52729" lon="2.83206">
        <ele>516</ele>
        <time>2018-05-03T11:08:52Z</time>
      </trkpt>
      <trkpt lat="44.52719" lon="2.83224">
        <ele>517</ele>
        <time>2018-05-03T11:09:07Z</time>
      </trkpt>
      <trkpt lat="44.52714" lon="2.83245">
        <ele>517</ele>
        <time>2018-05-03T11:09:22Z</time>
      </trkpt>
      <trkpt lat="44.52713" lon="2.83251">
        <ele>517</ele>
        <time>2018-05-03T11:09:26Z</time>
      </trkpt>
      <trkpt lat="44.52707" lon="2.83264">
        <ele>516</ele>
        <time>2018-05-03T11:09:36Z</time>
      </trkpt>
      <trkpt lat="44.527" lon="2.83275">
        <ele>516</ele>
        <time>2018-05-03T11:09:46Z</time>
      </trkpt>
      <trkpt lat="44.52657" lon="2.83326">
        <ele>516</ele>
        <time>2018-05-03T11:10:38Z</time>
      </trkpt>
      <trkpt lat="44.52653" lon="2.83334">
        <ele>516</ele>
        <time>2018-05-03T11:10:46Z</time>
      </trkpt>
      <trkpt lat="44.5265" lon="2.83338">
        <ele>516</ele>
        <time>2018-05-03T11:10:52Z</time>
      </trkpt>
      <trkpt lat="44.52594" lon="2.83353">
        <ele>515</ele>
        <time>2018-05-03T11:12:11Z</time>
      </trkpt>
      <trkpt lat="44.52589" lon="2.83354">
        <ele>515</ele>
        <time>2018-05-03T11:12:16Z</time>
      </trkpt>
      <trkpt lat="44.52584" lon="2.83352">
        <ele>515</ele>
        <time>2018-05-03T11:12:21Z</time>
      </trkpt>
      <trkpt lat="44.5258" lon="2.83345">
        <ele>514</ele>
        <time>2018-05-03T11:12:26Z</time>
      </trkpt>
      <trkpt lat="44.52576" lon="2.83311">
        <ele>514</ele>
        <time>2018-05-03T11:12:46Z</time>
      </trkpt>
      <trkpt lat="44.52561" lon="2.83262">
        <ele>510</ele>
        <time>2018-05-03T11:13:22Z</time>
      </trkpt>
      <trkpt lat="44.52561" lon="2.83251">
        <ele>512</ele>
        <time>2018-05-03T11:14:54Z</time>
      </trkpt>
      <trkpt lat="44.52552" lon="2.83206">
        <ele>508</ele>
        <time>2018-05-03T11:15:22Z</time>
      </trkpt>
      <trkpt lat="44.52541" lon="2.8319">
        <ele>508</ele>
        <time>2018-05-03T11:15:35Z</time>
      </trkpt>
      <trkpt lat="44.52537" lon="2.83185">
        <ele>507</ele>
        <time>2018-05-03T11:15:40Z</time>
      </trkpt>
      <trkpt lat="44.52528" lon="2.83153">
        <ele>505</ele>
        <time>2018-05-03T11:16:00Z</time>
      </trkpt>
      <trkpt lat="44.52525" lon="2.83133">
        <ele>503</ele>
        <time>2018-05-03T11:16:12Z</time>
      </trkpt>
      <trkpt lat="44.52512" lon="2.83097">
        <ele>499</ele>
        <time>2018-05-03T11:16:37Z</time>
      </trkpt>
      <trkpt lat="44.52506" lon="2.83086">
        <ele>498</ele>
        <time>2018-05-03T11:16:45Z</time>
      </trkpt>
      <trkpt lat="44.52502" lon="2.83081">
        <ele>497</ele>
        <time>2018-05-03T11:16:50Z</time>
      </trkpt>
      <trkpt lat="44.52497" lon="2.83081">
        <ele>496</ele>
        <time>2018-05-03T11:16:54Z</time>
      </trkpt>
      <trkpt lat="44.52492" lon="2.83078">
        <ele>495</ele>
        <time>2018-05-03T11:16:58Z</time>
      </trkpt>
      <trkpt lat="44.52477" lon="2.83073">
        <ele>492</ele>
        <time>2018-05-03T11:17:11Z</time>
      </trkpt>
      <trkpt lat="44.52473" lon="2.8307">
        <ele>491</ele>
        <time>2018-05-03T11:17:15Z</time>
      </trkpt>
      <trkpt lat="44.52464" lon="2.83052">
        <ele>489</ele>
        <time>2018-05-03T11:17:29Z</time>
      </trkpt>
      <trkpt lat="44.52459" lon="2.8303">
        <ele>488</ele>
        <time>2018-05-03T11:17:51Z</time>
      </trkpt>
      <trkpt lat="44.5245" lon="2.83013">
        <ele>485</ele>
        <time>2018-05-03T11:18:04Z</time>
      </trkpt>
      <trkpt lat="44.52427" lon="2.82892">
        <ele>477</ele>
        <time>2018-05-03T11:19:58Z</time>
      </trkpt>
      <trkpt lat="44.52425" lon="2.82871">
        <ele>474</ele>
        <time>2018-05-03T11:20:11Z</time>
      </trkpt>
      <trkpt lat="44.52425" lon="2.82858">
        <ele>473</ele>
        <time>2018-05-03T11:20:19Z</time>
      </trkpt>
      <trkpt lat="44.5241" lon="2.82844">
        <ele>469</ele>
        <time>2018-05-03T11:20:38Z</time>
      </trkpt>
      <trkpt lat="44.52397" lon="2.82834">
        <ele>466</ele>
        <time>2018-05-03T11:20:54Z</time>
      </trkpt>
      <trkpt lat="44.52397" lon="2.82824">
        <ele>465</ele>
        <time>2018-05-03T11:21:12Z</time>
      </trkpt>
      <trkpt lat="44.52403" lon="2.82813">
        <ele>465</ele>
        <time>2018-05-03T11:21:19Z</time>
      </trkpt>
      <trkpt lat="44.52407" lon="2.82793">
        <ele>464</ele>
        <time>2018-05-03T11:21:32Z</time>
      </trkpt>
      <trkpt lat="44.52407" lon="2.82779">
        <ele>463</ele>
        <time>2018-05-03T11:21:40Z</time>
      </trkpt>
      <trkpt lat="44.52409" lon="2.82771">
        <ele>462</ele>
        <time>2018-05-03T11:21:45Z</time>
      </trkpt>
      <trkpt lat="44.52411" lon="2.82765">
        <ele>461</ele>
        <time>2018-05-03T11:21:49Z</time>
      </trkpt>
      <trkpt lat="44.52413" lon="2.82757">
        <ele>460</ele>
        <time>2018-05-03T11:22:05Z</time>
      </trkpt>
      <trkpt lat="44.52408" lon="2.82744">
        <ele>457</ele>
        <time>2018-05-03T11:22:13Z</time>
      </trkpt>
      <trkpt lat="44.52402" lon="2.82735">
        <ele>456</ele>
        <time>2018-05-03T11:22:30Z</time>
      </trkpt>
      <trkpt lat="44.524" lon="2.82729">
        <ele>455</ele>
        <time>2018-05-03T11:22:33Z</time>
      </trkpt>
      <trkpt lat="44.524" lon="2.82722">
        <ele>454</ele>
        <time>2018-05-03T11:22:37Z</time>
      </trkpt>
      <trkpt lat="44.52383" lon="2.8268">
        <ele>448</ele>
        <time>2018-05-03T11:23:07Z</time>
      </trkpt>
      <trkpt lat="44.52347" lon="2.82633">
        <ele>440</ele>
        <time>2018-05-03T11:23:48Z</time>
      </trkpt>
      <trkpt lat="44.52341" lon="2.82636">
        <ele>441</ele>
        <time>2018-05-03T11:24:03Z</time>
      </trkpt>
      <trkpt lat="44.52323" lon="2.82619">
        <ele>437</ele>
        <time>2018-05-03T11:24:24Z</time>
      </trkpt>
      <trkpt lat="44.52313" lon="2.82603">
        <ele>436</ele>
        <time>2018-05-03T11:24:36Z</time>
      </trkpt>
      <trkpt lat="44.52309" lon="2.826">
        <ele>435</ele>
        <time>2018-05-03T11:24:40Z</time>
      </trkpt>
      <trkpt lat="44.52299" lon="2.82597">
        <ele>434</ele>
        <time>2018-05-03T11:24:48Z</time>
      </trkpt>
      <trkpt lat="44.5229" lon="2.82595">
        <ele>434</ele>
        <time>2018-05-03T11:24:56Z</time>
      </trkpt>
      <trkpt lat="44.52279" lon="2.82591">
        <ele>433</ele>
        <time>2018-05-03T11:25:05Z</time>
      </trkpt>
      <trkpt lat="44.52249" lon="2.82568">
        <ele>430</ele>
        <time>2018-05-03T11:25:35Z</time>
      </trkpt>
      <trkpt lat="44.52234" lon="2.82565">
        <ele>428</ele>
        <time>2018-05-03T11:25:48Z</time>
      </trkpt>
      <trkpt lat="44.52219" lon="2.82567">
        <ele>427</ele>
        <time>2018-05-03T11:26:01Z</time>
      </trkpt>
      <trkpt lat="44.52159" lon="2.82554">
        <ele>424</ele>
        <time>2018-05-03T11:27:02Z</time>
      </trkpt>
      <trkpt lat="44.52155" lon="2.82553">
        <ele>424</ele>
        <time>2018-05-03T11:27:06Z</time>
      </trkpt>
      <trkpt lat="44.52111" lon="2.82541">
        <ele>421</ele>
        <time>2018-05-03T11:27:44Z</time>
      </trkpt>
      <trkpt lat="44.52109" lon="2.82534">
        <ele>421</ele>
        <time>2018-05-03T11:27:49Z</time>
      </trkpt>
      <trkpt lat="44.52112" lon="2.82521">
        <ele>421</ele>
        <time>2018-05-03T11:27:57Z</time>
      </trkpt>
      <trkpt lat="44.52121" lon="2.82433">
        <ele>421</ele>
        <time>2018-05-03T11:29:02Z</time>
      </trkpt>
      <trkpt lat="44.52125" lon="2.82429">
        <ele>421</ele>
        <time>2018-05-03T11:29:06Z</time>
      </trkpt>
      <trkpt lat="44.52129" lon="2.82416">
        <ele>421</ele>
        <time>2018-05-03T11:29:15Z</time>
      </trkpt>
      <trkpt lat="44.52129" lon="2.82409">
        <ele>420</ele>
        <time>2018-05-03T11:29:20Z</time>
      </trkpt>
      <trkpt lat="44.52084" lon="2.82349">
        <ele>416</ele>
        <time>2018-05-03T11:30:13Z</time>
      </trkpt>
      <trkpt lat="44.52089" lon="2.8235">
        <ele>416</ele>
        <time>2018-05-03T11:30:28Z</time>
      </trkpt>
      <trkpt lat="44.52121" lon="2.82398">
        <ele>418</ele>
        <time>2018-05-03T11:31:09Z</time>
      </trkpt>
      <trkpt lat="44.52126" lon="2.82402">
        <ele>418</ele>
        <time>2018-05-03T11:31:14Z</time>
      </trkpt>
      <trkpt lat="44.52132" lon="2.824">
        <ele>419</ele>
        <time>2018-05-03T11:31:18Z</time>
      </trkpt>
      <trkpt lat="44.52136" lon="2.82396">
        <ele>419</ele>
        <time>2018-05-03T11:31:22Z</time>
      </trkpt>
      <trkpt lat="44.52143" lon="2.82378">
        <ele>419</ele>
        <time>2018-05-03T11:31:34Z</time>
      </trkpt>
      <trkpt lat="44.52156" lon="2.82358">
        <ele>417</ele>
        <time>2018-05-03T11:31:52Z</time>
      </trkpt>
      <trkpt lat="44.5216" lon="2.82346">
        <ele>416</ele>
        <time>2018-05-03T11:32:07Z</time>
      </trkpt>
      <trkpt lat="44.52158" lon="2.82338">
        <ele>416</ele>
        <time>2018-05-03T11:32:13Z</time>
      </trkpt>
      <trkpt lat="44.52121" lon="2.82261">
        <ele>411</ele>
        <time>2018-05-03T11:33:08Z</time>
      </trkpt>
      <trkpt lat="44.52122" lon="2.82246">
        <ele>411</ele>
        <time>2018-05-03T11:33:18Z</time>
      </trkpt>
      <trkpt lat="44.52117" lon="2.82244">
        <ele>411</ele>
        <time>2018-05-03T11:33:27Z</time>
      </trkpt>
      <trkpt lat="44.52113" lon="2.82239">
        <ele>410</ele>
        <time>2018-05-03T11:33:32Z</time>
      </trkpt>
      <trkpt lat="44.5209" lon="2.82196">
        <ele>407</ele>
        <time>2018-05-03T11:34:03Z</time>
      </trkpt>
      <trkpt lat="44.52086" lon="2.82191">
        <ele>407</ele>
        <time>2018-05-03T11:34:07Z</time>
      </trkpt>
      <trkpt lat="44.52082" lon="2.82178">
        <ele>406</ele>
        <time>2018-05-03T11:34:16Z</time>
      </trkpt>
      <trkpt lat="44.5206" lon="2.8213">
        <ele>404</ele>
        <time>2018-05-03T11:34:51Z</time>
      </trkpt>
      <trkpt lat="44.52058" lon="2.82124">
        <ele>403</ele>
        <time>2018-05-03T11:34:55Z</time>
      </trkpt>
      <trkpt lat="44.52045" lon="2.82104">
        <ele>402</ele>
        <time>2018-05-03T11:35:11Z</time>
      </trkpt>
      <trkpt lat="44.52038" lon="2.82086">
        <ele>401</ele>
        <time>2018-05-03T11:35:28Z</time>
      </trkpt>
      <trkpt lat="44.52038" lon="2.82072">
        <ele>401</ele>
        <time>2018-05-03T11:35:37Z</time>
      </trkpt>
      <trkpt lat="44.52013" lon="2.82027">
        <ele>399</ele>
        <time>2018-05-03T11:36:13Z</time>
      </trkpt>
      <trkpt lat="44.52011" lon="2.82021">
        <ele>399</ele>
        <time>2018-05-03T11:36:17Z</time>
      </trkpt>
      <trkpt lat="44.52008" lon="2.82017">
        <ele>398</ele>
        <time>2018-05-03T11:36:38Z</time>
      </trkpt>
      <trkpt lat="44.52" lon="2.82007">
        <ele>398</ele>
        <time>2018-05-03T11:36:53Z</time>
      </trkpt>
      <trkpt lat="44.51994" lon="2.82004">
        <ele>397</ele>
        <time>2018-05-03T11:36:58Z</time>
      </trkpt>
      <trkpt lat="44.51983" lon="2.8199">
        <ele>396</ele>
        <time>2018-05-03T11:37:12Z</time>
      </trkpt>
      <trkpt lat="44.5198" lon="2.81984">
        <ele>396</ele>
        <time>2018-05-03T11:37:18Z</time>
      </trkpt>
      <trkpt lat="44.51969" lon="2.81971">
        <ele>395</ele>
        <time>2018-05-03T11:37:31Z</time>
      </trkpt>
      <trkpt lat="44.5195" lon="2.81958">
        <ele>393</ele>
        <time>2018-05-03T11:37:56Z</time>
      </trkpt>
      <trkpt lat="44.51946" lon="2.81953">
        <ele>393</ele>
        <time>2018-05-03T11:38:01Z</time>
      </trkpt>
      <trkpt lat="44.51937" lon="2.81947">
        <ele>392</ele>
        <time>2018-05-03T11:38:16Z</time>
      </trkpt>
      <trkpt lat="44.51943" lon="2.81946">
        <ele>391</ele>
        <time>2018-05-03T11:38:29Z</time>
      </trkpt>
      <trkpt lat="44.51952" lon="2.81945">
        <ele>391</ele>
        <time>2018-05-03T11:38:40Z</time>
      </trkpt>
      <trkpt lat="44.51956" lon="2.81947">
        <ele>389</ele>
        <time>2018-05-03T11:40:57Z</time>
      </trkpt>
      <trkpt lat="44.51966" lon="2.81945">
        <ele>389</ele>
        <time>2018-05-03T11:41:03Z</time>
      </trkpt>
      <trkpt lat="44.51976" lon="2.8194">
        <ele>387</ele>
        <time>2018-05-03T11:41:10Z</time>
      </trkpt>
      <trkpt lat="44.51982" lon="2.8194">
        <ele>387</ele>
        <time>2018-05-03T11:41:14Z</time>
      </trkpt>
      <trkpt lat="44.51986" lon="2.81938">
        <ele>386</ele>
        <time>2018-05-03T11:41:18Z</time>
      </trkpt>
      <trkpt lat="44.52001" lon="2.81928">
        <ele>385</ele>
        <time>2018-05-03T11:41:29Z</time>
      </trkpt>
      <trkpt lat="44.52013" lon="2.8191">
        <ele>385</ele>
        <time>2018-05-03T11:42:05Z</time>
      </trkpt>
      <trkpt lat="44.52015" lon="2.81929">
        <ele>386</ele>
        <time>2018-05-03T11:42:23Z</time>
      </trkpt>
      <trkpt lat="44.51985" lon="2.81929">
        <ele>401</ele>
        <time>2018-05-04T05:40:30Z</time>
      </trkpt>
      <trkpt lat="44.51985" lon="2.81942">
        <ele>401</ele>
        <time>2018-05-04T05:40:32Z</time>
      </trkpt>
      <trkpt lat="44.51976" lon="2.81952">
        <ele>401</ele>
        <time>2018-05-04T05:40:57Z</time>
      </trkpt>
      <trkpt lat="44.5197" lon="2.81952">
        <ele>402</ele>
        <time>2018-05-04T05:41:09Z</time>
      </trkpt>
      <trkpt lat="44.51968" lon="2.81946">
        <ele>403</ele>
        <time>2018-05-04T05:41:18Z</time>
      </trkpt>
      <trkpt lat="44.51965" lon="2.8194">
        <ele>403</ele>
        <time>2018-05-04T05:41:23Z</time>
      </trkpt>
      <trkpt lat="44.51954" lon="2.81933">
        <ele>403</ele>
        <time>2018-05-04T05:41:36Z</time>
      </trkpt>
      <trkpt lat="44.5196" lon="2.81933">
        <ele>403</ele>
        <time>2018-05-04T05:41:46Z</time>
      </trkpt>
      <trkpt lat="44.51966" lon="2.81935">
        <ele>403</ele>
        <time>2018-05-04T05:42:04Z</time>
      </trkpt>
      <trkpt lat="44.51962" lon="2.8194">
        <ele>403</ele>
        <time>2018-05-04T05:42:17Z</time>
      </trkpt>
      <trkpt lat="44.51957" lon="2.81942">
        <ele>403</ele>
        <time>2018-05-04T05:42:21Z</time>
      </trkpt>
      <trkpt lat="44.51938" lon="2.81942">
        <ele>405</ele>
        <time>2018-05-04T05:42:38Z</time>
      </trkpt>
      <trkpt lat="44.51934" lon="2.81938">
        <ele>405</ele>
        <time>2018-05-04T05:42:42Z</time>
      </trkpt>
      <trkpt lat="44.51899" lon="2.81931">
        <ele>402</ele>
        <time>2018-05-04T05:43:27Z</time>
      </trkpt>
      <trkpt lat="44.51895" lon="2.81929">
        <ele>401</ele>
        <time>2018-05-04T05:43:29Z</time>
      </trkpt>
      <trkpt lat="44.51855" lon="2.81926">
        <ele>397</ele>
        <time>2018-05-04T05:44:00Z</time>
      </trkpt>
      <trkpt lat="44.51839" lon="2.81928">
        <ele>397</ele>
        <time>2018-05-04T05:44:14Z</time>
      </trkpt>
      <trkpt lat="44.51784" lon="2.81941">
        <ele>391</ele>
        <time>2018-05-04T05:45:00Z</time>
      </trkpt>
      <trkpt lat="44.5178" lon="2.81939">
        <ele>391</ele>
        <time>2018-05-04T05:45:05Z</time>
      </trkpt>
      <trkpt lat="44.51778" lon="2.81931">
        <ele>391</ele>
        <time>2018-05-04T05:45:09Z</time>
      </trkpt>
      <trkpt lat="44.51777" lon="2.81917">
        <ele>390</ele>
        <time>2018-05-04T05:45:17Z</time>
      </trkpt>
      <trkpt lat="44.51769" lon="2.81891">
        <ele>389</ele>
        <time>2018-05-04T05:45:35Z</time>
      </trkpt>
      <trkpt lat="44.51766" lon="2.81885">
        <ele>388</ele>
        <time>2018-05-04T05:45:40Z</time>
      </trkpt>
      <trkpt lat="44.51761" lon="2.81853">
        <ele>387</ele>
        <time>2018-05-04T05:45:59Z</time>
      </trkpt>
      <trkpt lat="44.51758" lon="2.81847">
        <ele>387</ele>
        <time>2018-05-04T05:46:03Z</time>
      </trkpt>
      <trkpt lat="44.51751" lon="2.81835">
        <ele>386</ele>
        <time>2018-05-04T05:46:12Z</time>
      </trkpt>
      <trkpt lat="44.51746" lon="2.81815">
        <ele>386</ele>
        <time>2018-05-04T05:46:25Z</time>
      </trkpt>
      <trkpt lat="44.51745" lon="2.81802">
        <ele>385</ele>
        <time>2018-05-04T05:46:33Z</time>
      </trkpt>
      <trkpt lat="44.51742" lon="2.81795">
        <ele>385</ele>
        <time>2018-05-04T05:46:38Z</time>
      </trkpt>
      <trkpt lat="44.51692" lon="2.81729">
        <ele>374</ele>
        <time>2018-05-04T05:47:42Z</time>
      </trkpt>
      <trkpt lat="44.51687" lon="2.81725">
        <ele>373</ele>
        <time>2018-05-04T05:47:47Z</time>
      </trkpt>
      <trkpt lat="44.51652" lon="2.81717">
        <ele>371</ele>
        <time>2018-05-04T05:48:18Z</time>
      </trkpt>
      <trkpt lat="44.51649" lon="2.81711">
        <ele>371</ele>
        <time>2018-05-04T05:48:23Z</time>
      </trkpt>
      <trkpt lat="44.51652" lon="2.81671">
        <ele>370</ele>
        <time>2018-05-04T05:49:02Z</time>
      </trkpt>
      <trkpt lat="44.51648" lon="2.81665">
        <ele>370</ele>
        <time>2018-05-04T05:49:11Z</time>
      </trkpt>
      <trkpt lat="44.51641" lon="2.81661">
        <ele>373</ele>
        <time>2018-05-04T05:49:40Z</time>
      </trkpt>
      <trkpt lat="44.51637" lon="2.81655">
        <ele>375</ele>
        <time>2018-05-04T05:49:48Z</time>
      </trkpt>
      <trkpt lat="44.51637" lon="2.81647">
        <ele>375</ele>
        <time>2018-05-04T05:49:54Z</time>
      </trkpt>
      <trkpt lat="44.51634" lon="2.81638">
        <ele>374</ele>
        <time>2018-05-04T05:50:01Z</time>
      </trkpt>
      <trkpt lat="44.51615" lon="2.81596">
        <ele>375</ele>
        <time>2018-05-04T05:50:32Z</time>
      </trkpt>
      <trkpt lat="44.51608" lon="2.81586">
        <ele>376</ele>
        <time>2018-05-04T05:50:41Z</time>
      </trkpt>
      <trkpt lat="44.51596" lon="2.8156">
        <ele>376</ele>
        <time>2018-05-04T05:51:00Z</time>
      </trkpt>
      <trkpt lat="44.51592" lon="2.81554">
        <ele>376</ele>
        <time>2018-05-04T05:51:04Z</time>
      </trkpt>
      <trkpt lat="44.51591" lon="2.81547">
        <ele>376</ele>
        <time>2018-05-04T05:51:09Z</time>
      </trkpt>
      <trkpt lat="44.51585" lon="2.81549">
        <ele>376</ele>
        <time>2018-05-04T05:51:16Z</time>
      </trkpt>
      <trkpt lat="44.51575" lon="2.81556">
        <ele>376</ele>
        <time>2018-05-04T05:51:28Z</time>
      </trkpt>
      <trkpt lat="44.5157" lon="2.81558">
        <ele>376</ele>
        <time>2018-05-04T05:51:32Z</time>
      </trkpt>
      <trkpt lat="44.51565" lon="2.81558">
        <ele>376</ele>
        <time>2018-05-04T05:51:36Z</time>
      </trkpt>
      <trkpt lat="44.51561" lon="2.81557">
        <ele>376</ele>
        <time>2018-05-04T05:51:40Z</time>
      </trkpt>
      <trkpt lat="44.51555" lon="2.81553">
        <ele>376</ele>
        <time>2018-05-04T05:51:45Z</time>
      </trkpt>
      <trkpt lat="44.51549" lon="2.81543">
        <ele>376</ele>
        <time>2018-05-04T05:51:53Z</time>
      </trkpt>
      <trkpt lat="44.51537" lon="2.81539">
        <ele>376</ele>
        <time>2018-05-04T05:52:27Z</time>
      </trkpt>
      <trkpt lat="44.51532" lon="2.81526">
        <ele>376</ele>
        <time>2018-05-04T05:52:40Z</time>
      </trkpt>
      <trkpt lat="44.51523" lon="2.8152">
        <ele>377</ele>
        <time>2018-05-04T05:52:50Z</time>
      </trkpt>
      <trkpt lat="44.51522" lon="2.81507">
        <ele>377</ele>
        <time>2018-05-04T05:53:00Z</time>
      </trkpt>
      <trkpt lat="44.51513" lon="2.815">
        <ele>377</ele>
        <time>2018-05-04T05:53:09Z</time>
      </trkpt>
      <trkpt lat="44.51502" lon="2.8149">
        <ele>377</ele>
        <time>2018-05-04T05:53:44Z</time>
      </trkpt>
      <trkpt lat="44.51492" lon="2.8151">
        <ele>375</ele>
        <time>2018-05-04T05:54:31Z</time>
      </trkpt>
      <trkpt lat="44.51493" lon="2.81501">
        <ele>375</ele>
        <time>2018-05-04T05:55:29Z</time>
      </trkpt>
      <trkpt lat="44.51498" lon="2.81495">
        <ele>375</ele>
        <time>2018-05-04T05:55:33Z</time>
      </trkpt>
      <trkpt lat="44.51502" lon="2.81492">
        <ele>377</ele>
        <time>2018-05-04T05:55:53Z</time>
      </trkpt>
      <trkpt lat="44.51507" lon="2.8149">
        <ele>376</ele>
        <time>2018-05-04T05:55:58Z</time>
      </trkpt>
      <trkpt lat="44.51512" lon="2.81487">
        <ele>376</ele>
        <time>2018-05-04T05:56:02Z</time>
      </trkpt>
      <trkpt lat="44.51515" lon="2.81483">
        <ele>376</ele>
        <time>2018-05-04T05:56:05Z</time>
      </trkpt>
      <trkpt lat="44.51516" lon="2.81476">
        <ele>375</ele>
        <time>2018-05-04T05:56:09Z</time>
      </trkpt>
      <trkpt lat="44.51519" lon="2.81469">
        <ele>375</ele>
        <time>2018-05-04T05:56:13Z</time>
      </trkpt>
      <trkpt lat="44.51521" lon="2.81424">
        <ele>373</ele>
        <time>2018-05-04T05:56:43Z</time>
      </trkpt>
      <trkpt lat="44.5153" lon="2.8142">
        <ele>372</ele>
        <time>2018-05-04T05:56:51Z</time>
      </trkpt>
      <trkpt lat="44.51544" lon="2.81421">
        <ele>373</ele>
        <time>2018-05-04T05:57:18Z</time>
      </trkpt>
      <trkpt lat="44.51552" lon="2.81418">
        <ele>373</ele>
        <time>2018-05-04T05:57:33Z</time>
      </trkpt>
      <trkpt lat="44.51534" lon="2.81415">
        <ele>373</ele>
        <time>2018-05-04T05:58:37Z</time>
      </trkpt>
      <trkpt lat="44.51528" lon="2.81412">
        <ele>372</ele>
        <time>2018-05-04T05:58:42Z</time>
      </trkpt>
      <trkpt lat="44.51523" lon="2.81412">
        <ele>373</ele>
        <time>2018-05-04T05:58:47Z</time>
      </trkpt>
      <trkpt lat="44.51502" lon="2.81418">
        <ele>374</ele>
        <time>2018-05-04T05:59:28Z</time>
      </trkpt>
      <trkpt lat="44.51493" lon="2.81423">
        <ele>373</ele>
        <time>2018-05-04T05:59:36Z</time>
      </trkpt>
      <trkpt lat="44.51482" lon="2.81426">
        <ele>373</ele>
        <time>2018-05-04T05:59:48Z</time>
      </trkpt>
      <trkpt lat="44.51469" lon="2.81447">
        <ele>373</ele>
        <time>2018-05-04T06:00:12Z</time>
      </trkpt>
      <trkpt lat="44.51455" lon="2.81497">
        <ele>371</ele>
        <time>2018-05-04T06:00:45Z</time>
      </trkpt>
      <trkpt lat="44.51454" lon="2.81504">
        <ele>371</ele>
        <time>2018-05-04T06:00:49Z</time>
      </trkpt>
      <trkpt lat="44.51454" lon="2.81511">
        <ele>371</ele>
        <time>2018-05-04T06:00:54Z</time>
      </trkpt>
      <trkpt lat="44.51453" lon="2.81517">
        <ele>371</ele>
        <time>2018-05-04T06:00:58Z</time>
      </trkpt>
      <trkpt lat="44.51448" lon="2.81529">
        <ele>371</ele>
        <time>2018-05-04T06:01:06Z</time>
      </trkpt>
      <trkpt lat="44.51429" lon="2.81566">
        <ele>369</ele>
        <time>2018-05-04T06:01:35Z</time>
      </trkpt>
      <trkpt lat="44.51419" lon="2.81606">
        <ele>366</ele>
        <time>2018-05-04T06:02:00Z</time>
      </trkpt>
      <trkpt lat="44.51415" lon="2.81617">
        <ele>365</ele>
        <time>2018-05-04T06:02:14Z</time>
      </trkpt>
      <trkpt lat="44.51407" lon="2.81644">
        <ele>365</ele>
        <time>2018-05-04T06:02:39Z</time>
      </trkpt>
      <trkpt lat="44.51402" lon="2.81652">
        <ele>363</ele>
        <time>2018-05-04T06:02:46Z</time>
      </trkpt>
      <trkpt lat="44.51398" lon="2.81655">
        <ele>362</ele>
        <time>2018-05-04T06:02:50Z</time>
      </trkpt>
      <trkpt lat="44.51388" lon="2.81654">
        <ele>360</ele>
        <time>2018-05-04T06:02:59Z</time>
      </trkpt>
      <trkpt lat="44.51384" lon="2.8165">
        <ele>359</ele>
        <time>2018-05-04T06:03:03Z</time>
      </trkpt>
      <trkpt lat="44.51377" lon="2.81656">
        <ele>359</ele>
        <time>2018-05-04T06:03:29Z</time>
      </trkpt>
      <trkpt lat="44.51369" lon="2.81664">
        <ele>358</ele>
        <time>2018-05-04T06:03:39Z</time>
      </trkpt>
      <trkpt lat="44.51355" lon="2.81668">
        <ele>357</ele>
        <time>2018-05-04T06:04:03Z</time>
      </trkpt>
      <trkpt lat="44.51349" lon="2.81661">
        <ele>358</ele>
        <time>2018-05-04T06:04:19Z</time>
      </trkpt>
      <trkpt lat="44.51339" lon="2.81656">
        <ele>358</ele>
        <time>2018-05-04T06:04:27Z</time>
      </trkpt>
      <trkpt lat="44.51332" lon="2.81655">
        <ele>358</ele>
        <time>2018-05-04T06:04:50Z</time>
      </trkpt>
      <trkpt lat="44.51326" lon="2.81654">
        <ele>358</ele>
        <time>2018-05-04T06:04:54Z</time>
      </trkpt>
      <trkpt lat="44.51322" lon="2.81653">
        <ele>358</ele>
        <time>2018-05-04T06:04:58Z</time>
      </trkpt>
      <trkpt lat="44.51317" lon="2.8165">
        <ele>358</ele>
        <time>2018-05-04T06:05:02Z</time>
      </trkpt>
      <trkpt lat="44.51303" lon="2.81646">
        <ele>358</ele>
        <time>2018-05-04T06:05:15Z</time>
      </trkpt>
      <trkpt lat="44.51298" lon="2.81649">
        <ele>358</ele>
        <time>2018-05-04T06:05:56Z</time>
      </trkpt>
      <trkpt lat="44.51293" lon="2.81642">
        <ele>357</ele>
        <time>2018-05-04T06:06:12Z</time>
      </trkpt>
      <trkpt lat="44.51264" lon="2.81631">
        <ele>355</ele>
        <time>2018-05-04T06:06:40Z</time>
      </trkpt>
      <trkpt lat="44.51248" lon="2.81622">
        <ele>354</ele>
        <time>2018-05-04T06:06:57Z</time>
      </trkpt>
      <trkpt lat="44.51224" lon="2.81614">
        <ele>352</ele>
        <time>2018-05-04T06:07:19Z</time>
      </trkpt>
      <trkpt lat="44.51228" lon="2.81606">
        <ele>351</ele>
        <time>2018-05-04T06:07:27Z</time>
      </trkpt>
      <trkpt lat="44.51232" lon="2.81606">
        <ele>351</ele>
        <time>2018-05-04T06:07:30Z</time>
      </trkpt>
      <trkpt lat="44.5127" lon="2.81617">
        <ele>349</ele>
        <time>2018-05-04T06:07:56Z</time>
      </trkpt>
      <trkpt lat="44.51275" lon="2.81614">
        <ele>348</ele>
        <time>2018-05-04T06:08:00Z</time>
      </trkpt>
      <trkpt lat="44.51282" lon="2.81602">
        <ele>349</ele>
        <time>2018-05-04T06:08:08Z</time>
      </trkpt>
      <trkpt lat="44.51278" lon="2.81606">
        <ele>348</ele>
        <time>2018-05-04T06:08:49Z</time>
      </trkpt>
      <trkpt lat="44.51271" lon="2.81615">
        <ele>349</ele>
        <time>2018-05-04T06:08:57Z</time>
      </trkpt>
      <trkpt lat="44.51267" lon="2.81618">
        <ele>349</ele>
        <time>2018-05-04T06:09:01Z</time>
      </trkpt>
      <trkpt lat="44.51236" lon="2.81612">
        <ele>349</ele>
        <time>2018-05-04T06:09:25Z</time>
      </trkpt>
      <trkpt lat="44.51227" lon="2.81607">
        <ele>350</ele>
        <time>2018-05-04T06:09:35Z</time>
      </trkpt>
      <trkpt lat="44.51223" lon="2.81601">
        <ele>350</ele>
        <time>2018-05-04T06:09:40Z</time>
      </trkpt>
      <trkpt lat="44.51208" lon="2.81556">
        <ele>350</ele>
        <time>2018-05-04T06:10:16Z</time>
      </trkpt>
      <trkpt lat="44.51207" lon="2.81549">
        <ele>350</ele>
        <time>2018-05-04T06:10:20Z</time>
      </trkpt>
      <trkpt lat="44.51206" lon="2.81542">
        <ele>349</ele>
        <time>2018-05-04T06:10:24Z</time>
      </trkpt>
      <trkpt lat="44.51199" lon="2.81515">
        <ele>350</ele>
        <time>2018-05-04T06:10:40Z</time>
      </trkpt>
      <trkpt lat="44.51194" lon="2.81503">
        <ele>350</ele>
        <time>2018-05-04T06:10:48Z</time>
      </trkpt>
      <trkpt lat="44.51126" lon="2.81284">
        <ele>350</ele>
        <time>2018-05-04T06:13:07Z</time>
      </trkpt>
      <trkpt lat="44.51124" lon="2.81271">
        <ele>350</ele>
        <time>2018-05-04T06:13:15Z</time>
      </trkpt>
      <trkpt lat="44.51085" lon="2.81163">
        <ele>350</ele>
        <time>2018-05-04T06:14:23Z</time>
      </trkpt>
      <trkpt lat="44.51082" lon="2.81157">
        <ele>350</ele>
        <time>2018-05-04T06:14:28Z</time>
      </trkpt>
      <trkpt lat="44.51027" lon="2.80984">
        <ele>348</ele>
        <time>2018-05-04T06:16:18Z</time>
      </trkpt>
      <trkpt lat="44.51024" lon="2.80979">
        <ele>348</ele>
        <time>2018-05-04T06:16:22Z</time>
      </trkpt>
      <trkpt lat="44.50957" lon="2.80908">
        <ele>348</ele>
        <time>2018-05-04T06:17:32Z</time>
      </trkpt>
      <trkpt lat="44.50948" lon="2.809">
        <ele>348</ele>
        <time>2018-05-04T06:17:42Z</time>
      </trkpt>
      <trkpt lat="44.50943" lon="2.80898">
        <ele>348</ele>
        <time>2018-05-04T06:17:46Z</time>
      </trkpt>
      <trkpt lat="44.50938" lon="2.80884">
        <ele>349</ele>
        <time>2018-05-04T06:18:04Z</time>
      </trkpt>
      <trkpt lat="44.50922" lon="2.80875">
        <ele>349</ele>
        <time>2018-05-04T06:18:21Z</time>
      </trkpt>
      <trkpt lat="44.50917" lon="2.80873">
        <ele>349</ele>
        <time>2018-05-04T06:18:25Z</time>
      </trkpt>
      <trkpt lat="44.50907" lon="2.80862">
        <ele>349</ele>
        <time>2018-05-04T06:18:36Z</time>
      </trkpt>
      <trkpt lat="44.50899" lon="2.80856">
        <ele>349</ele>
        <time>2018-05-04T06:18:44Z</time>
      </trkpt>
      <trkpt lat="44.50894" lon="2.8085">
        <ele>350</ele>
        <time>2018-05-04T06:18:57Z</time>
      </trkpt>
      <trkpt lat="44.50873" lon="2.80838">
        <ele>350</ele>
        <time>2018-05-04T06:19:18Z</time>
      </trkpt>
      <trkpt lat="44.50856" lon="2.80824">
        <ele>350</ele>
        <time>2018-05-04T06:19:33Z</time>
      </trkpt>
      <trkpt lat="44.50845" lon="2.80808">
        <ele>350</ele>
        <time>2018-05-04T06:19:45Z</time>
      </trkpt>
      <trkpt lat="44.50822" lon="2.80754">
        <ele>350</ele>
        <time>2018-05-04T06:20:21Z</time>
      </trkpt>
      <trkpt lat="44.50817" lon="2.8075">
        <ele>350</ele>
        <time>2018-05-04T06:20:27Z</time>
      </trkpt>
      <trkpt lat="44.5081" lon="2.80739">
        <ele>350</ele>
        <time>2018-05-04T06:20:36Z</time>
      </trkpt>
      <trkpt lat="44.50805" lon="2.80727">
        <ele>350</ele>
        <time>2018-05-04T06:20:44Z</time>
      </trkpt>
      <trkpt lat="44.50775" lon="2.80675">
        <ele>349</ele>
        <time>2018-05-04T06:21:24Z</time>
      </trkpt>
      <trkpt lat="44.50765" lon="2.80652">
        <ele>349</ele>
        <time>2018-05-04T06:21:40Z</time>
      </trkpt>
      <trkpt lat="44.50763" lon="2.80645">
        <ele>349</ele>
        <time>2018-05-04T06:21:44Z</time>
      </trkpt>
      <trkpt lat="44.50762" lon="2.80638">
        <ele>349</ele>
        <time>2018-05-04T06:21:49Z</time>
      </trkpt>
      <trkpt lat="44.50761" lon="2.80631">
        <ele>350</ele>
        <time>2018-05-04T06:21:54Z</time>
      </trkpt>
      <trkpt lat="44.50748" lon="2.80614">
        <ele>351</ele>
        <time>2018-05-04T06:22:09Z</time>
      </trkpt>
      <trkpt lat="44.50745" lon="2.80609">
        <ele>351</ele>
        <time>2018-05-04T06:22:13Z</time>
      </trkpt>
      <trkpt lat="44.50744" lon="2.80602">
        <ele>351</ele>
        <time>2018-05-04T06:22:17Z</time>
      </trkpt>
      <trkpt lat="44.50734" lon="2.8057">
        <ele>351</ele>
        <time>2018-05-04T06:22:40Z</time>
      </trkpt>
      <trkpt lat="44.50733" lon="2.80555">
        <ele>352</ele>
        <time>2018-05-04T06:22:48Z</time>
      </trkpt>
      <trkpt lat="44.50723" lon="2.80511">
        <ele>353</ele>
        <time>2018-05-04T06:23:16Z</time>
      </trkpt>
      <trkpt lat="44.50723" lon="2.80505">
        <ele>353</ele>
        <time>2018-05-04T06:23:20Z</time>
      </trkpt>
      <trkpt lat="44.50722" lon="2.8049">
        <ele>353</ele>
        <time>2018-05-04T06:23:29Z</time>
      </trkpt>
      <trkpt lat="44.50723" lon="2.80477">
        <ele>353</ele>
        <time>2018-05-04T06:23:36Z</time>
      </trkpt>
      <trkpt lat="44.5072" lon="2.80456">
        <ele>353</ele>
        <time>2018-05-04T06:23:48Z</time>
      </trkpt>
      <trkpt lat="44.50721" lon="2.80449">
        <ele>352</ele>
        <time>2018-05-04T06:23:52Z</time>
      </trkpt>
      <trkpt lat="44.50724" lon="2.80443">
        <ele>352</ele>
        <time>2018-05-04T06:23:56Z</time>
      </trkpt>
      <trkpt lat="44.50726" lon="2.80435">
        <ele>352</ele>
        <time>2018-05-04T06:24:00Z</time>
      </trkpt>
      <trkpt lat="44.50727" lon="2.80428">
        <ele>352</ele>
        <time>2018-05-04T06:24:04Z</time>
      </trkpt>
      <trkpt lat="44.50726" lon="2.80421">
        <ele>352</ele>
        <time>2018-05-04T06:24:09Z</time>
      </trkpt>
      <trkpt lat="44.50729" lon="2.804">
        <ele>351</ele>
        <time>2018-05-04T06:24:20Z</time>
      </trkpt>
      <trkpt lat="44.50719" lon="2.80342">
        <ele>352</ele>
        <time>2018-05-04T06:25:14Z</time>
      </trkpt>
      <trkpt lat="44.50716" lon="2.80335">
        <ele>352</ele>
        <time>2018-05-04T06:25:19Z</time>
      </trkpt>
      <trkpt lat="44.50709" lon="2.80328">
        <ele>353</ele>
        <time>2018-05-04T06:25:27Z</time>
      </trkpt>
      <trkpt lat="44.50706" lon="2.80314">
        <ele>353</ele>
        <time>2018-05-04T06:25:37Z</time>
      </trkpt>
      <trkpt lat="44.50681" lon="2.80278">
        <ele>354</ele>
        <time>2018-05-04T06:26:07Z</time>
      </trkpt>
      <trkpt lat="44.50679" lon="2.80265">
        <ele>354</ele>
        <time>2018-05-04T06:26:15Z</time>
      </trkpt>
      <trkpt lat="44.50671" lon="2.80255">
        <ele>354</ele>
        <time>2018-05-04T06:26:23Z</time>
      </trkpt>
      <trkpt lat="44.5067" lon="2.80223">
        <ele>354</ele>
        <time>2018-05-04T06:26:43Z</time>
      </trkpt>
      <trkpt lat="44.50674" lon="2.80216">
        <ele>355</ele>
        <time>2018-05-04T06:26:51Z</time>
      </trkpt>
      <trkpt lat="44.50684" lon="2.80209">
        <ele>355</ele>
        <time>2018-05-04T06:27:24Z</time>
      </trkpt>
      <trkpt lat="44.50699" lon="2.80187">
        <ele>356</ele>
        <time>2018-05-04T06:27:43Z</time>
      </trkpt>
      <trkpt lat="44.50702" lon="2.80181">
        <ele>356</ele>
        <time>2018-05-04T06:27:47Z</time>
      </trkpt>
      <trkpt lat="44.50712" lon="2.80157">
        <ele>356</ele>
        <time>2018-05-04T06:28:03Z</time>
      </trkpt>
      <trkpt lat="44.50721" lon="2.80109">
        <ele>356</ele>
        <time>2018-05-04T06:28:30Z</time>
      </trkpt>
      <trkpt lat="44.5072" lon="2.80094">
        <ele>356</ele>
        <time>2018-05-04T06:28:39Z</time>
      </trkpt>
      <trkpt lat="44.50721" lon="2.80086">
        <ele>356</ele>
        <time>2018-05-04T06:28:43Z</time>
      </trkpt>
      <trkpt lat="44.5073" lon="2.8004">
        <ele>356</ele>
        <time>2018-05-04T06:29:12Z</time>
      </trkpt>
      <trkpt lat="44.50726" lon="2.79998">
        <ele>356</ele>
        <time>2018-05-04T06:29:38Z</time>
      </trkpt>
      <trkpt lat="44.50729" lon="2.79985">
        <ele>356</ele>
        <time>2018-05-04T06:29:46Z</time>
      </trkpt>
      <trkpt lat="44.50726" lon="2.7994">
        <ele>359</ele>
        <time>2018-05-04T06:30:14Z</time>
      </trkpt>
      <trkpt lat="44.50722" lon="2.79935">
        <ele>359</ele>
        <time>2018-05-04T06:30:25Z</time>
      </trkpt>
      <trkpt lat="44.50724" lon="2.79921">
        <ele>360</ele>
        <time>2018-05-04T06:30:58Z</time>
      </trkpt>
      <trkpt lat="44.50723" lon="2.79915">
        <ele>360</ele>
        <time>2018-05-04T06:31:03Z</time>
      </trkpt>
      <trkpt lat="44.50725" lon="2.79904">
        <ele>360</ele>
        <time>2018-05-04T06:31:32Z</time>
      </trkpt>
      <trkpt lat="44.50722" lon="2.79877">
        <ele>360</ele>
        <time>2018-05-04T06:31:53Z</time>
      </trkpt>
      <trkpt lat="44.50722" lon="2.79871">
        <ele>360</ele>
        <time>2018-05-04T06:31:57Z</time>
      </trkpt>
      <trkpt lat="44.5072" lon="2.79865">
        <ele>360</ele>
        <time>2018-05-04T06:32:01Z</time>
      </trkpt>
      <trkpt lat="44.5072" lon="2.79858">
        <ele>360</ele>
        <time>2018-05-04T06:32:06Z</time>
      </trkpt>
      <trkpt lat="44.50729" lon="2.79817">
        <ele>361</ele>
        <time>2018-05-04T06:32:32Z</time>
      </trkpt>
      <trkpt lat="44.5073" lon="2.79804">
        <ele>361</ele>
        <time>2018-05-04T06:32:39Z</time>
      </trkpt>
      <trkpt lat="44.50742" lon="2.79761">
        <ele>362</ele>
        <time>2018-05-04T06:33:04Z</time>
      </trkpt>
      <trkpt lat="44.50746" lon="2.79708">
        <ele>362</ele>
        <time>2018-05-04T06:33:36Z</time>
      </trkpt>
      <trkpt lat="44.50748" lon="2.79702">
        <ele>362</ele>
        <time>2018-05-04T06:33:40Z</time>
      </trkpt>
      <trkpt lat="44.5075" lon="2.79696">
        <ele>362</ele>
        <time>2018-05-04T06:33:44Z</time>
      </trkpt>
      <trkpt lat="44.50754" lon="2.79692">
        <ele>362</ele>
        <time>2018-05-04T06:33:48Z</time>
      </trkpt>
      <trkpt lat="44.50773" lon="2.79658">
        <ele>360</ele>
        <time>2018-05-04T06:34:12Z</time>
      </trkpt>
      <trkpt lat="44.50777" lon="2.79654">
        <ele>360</ele>
        <time>2018-05-04T06:34:16Z</time>
      </trkpt>
      <trkpt lat="44.5078" lon="2.79647">
        <ele>359</ele>
        <time>2018-05-04T06:34:21Z</time>
      </trkpt>
      <trkpt lat="44.50783" lon="2.79642">
        <ele>359</ele>
        <time>2018-05-04T06:34:24Z</time>
      </trkpt>
      <trkpt lat="44.50797" lon="2.79626">
        <ele>359</ele>
        <time>2018-05-04T06:34:39Z</time>
      </trkpt>
      <trkpt lat="44.50801" lon="2.79618">
        <ele>359</ele>
        <time>2018-05-04T06:34:47Z</time>
      </trkpt>
      <trkpt lat="44.50803" lon="2.79607">
        <ele>359</ele>
        <time>2018-05-04T06:35:56Z</time>
      </trkpt>
      <trkpt lat="44.50808" lon="2.79596">
        <ele>359</ele>
        <time>2018-05-04T06:36:36Z</time>
      </trkpt>
      <trkpt lat="44.50833" lon="2.79529">
        <ele>358</ele>
        <time>2018-05-04T06:37:20Z</time>
      </trkpt>
      <trkpt lat="44.50839" lon="2.79516">
        <ele>358</ele>
        <time>2018-05-04T06:37:30Z</time>
      </trkpt>
      <trkpt lat="44.50847" lon="2.79473">
        <ele>359</ele>
        <time>2018-05-04T06:37:58Z</time>
      </trkpt>
      <trkpt lat="44.50849" lon="2.79466">
        <ele>359</ele>
        <time>2018-05-04T06:38:03Z</time>
      </trkpt>
      <trkpt lat="44.50855" lon="2.79432">
        <ele>361</ele>
        <time>2018-05-04T06:38:25Z</time>
      </trkpt>
      <trkpt lat="44.5086" lon="2.79374">
        <ele>364</ele>
        <time>2018-05-04T06:39:08Z</time>
      </trkpt>
      <trkpt lat="44.5087" lon="2.79325">
        <ele>365</ele>
        <time>2018-05-04T06:39:37Z</time>
      </trkpt>
      <trkpt lat="44.50872" lon="2.79319">
        <ele>365</ele>
        <time>2018-05-04T06:39:41Z</time>
      </trkpt>
      <trkpt lat="44.50879" lon="2.79309">
        <ele>364</ele>
        <time>2018-05-04T06:39:50Z</time>
      </trkpt>
      <trkpt lat="44.50891" lon="2.79298">
        <ele>364</ele>
        <time>2018-05-04T06:40:02Z</time>
      </trkpt>
      <trkpt lat="44.50897" lon="2.79288">
        <ele>363</ele>
        <time>2018-05-04T06:40:10Z</time>
      </trkpt>
      <trkpt lat="44.50906" lon="2.79282">
        <ele>363</ele>
        <time>2018-05-04T06:40:18Z</time>
      </trkpt>
      <trkpt lat="44.5091" lon="2.79277">
        <ele>363</ele>
        <time>2018-05-04T06:40:22Z</time>
      </trkpt>
      <trkpt lat="44.50948" lon="2.79244">
        <ele>362</ele>
        <time>2018-05-04T06:40:54Z</time>
      </trkpt>
      <trkpt lat="44.50977" lon="2.79206">
        <ele>360</ele>
        <time>2018-05-04T06:41:28Z</time>
      </trkpt>
      <trkpt lat="44.50986" lon="2.79202">
        <ele>360</ele>
        <time>2018-05-04T06:41:35Z</time>
      </trkpt>
      <trkpt lat="44.51006" lon="2.79173">
        <ele>358</ele>
        <time>2018-05-04T06:42:00Z</time>
      </trkpt>
      <trkpt lat="44.51045" lon="2.79147">
        <ele>358</ele>
        <time>2018-05-04T06:42:37Z</time>
      </trkpt>
      <trkpt lat="44.5106" lon="2.7913">
        <ele>358</ele>
        <time>2018-05-04T06:42:53Z</time>
      </trkpt>
      <trkpt lat="44.51066" lon="2.79118">
        <ele>358</ele>
        <time>2018-05-04T06:43:01Z</time>
      </trkpt>
      <trkpt lat="44.51068" lon="2.79111">
        <ele>358</ele>
        <time>2018-05-04T06:43:05Z</time>
      </trkpt>
      <trkpt lat="44.51102" lon="2.79036">
        <ele>353</ele>
        <time>2018-05-04T06:44:26Z</time>
      </trkpt>
      <trkpt lat="44.51104" lon="2.79023">
        <ele>352</ele>
        <time>2018-05-04T06:44:33Z</time>
      </trkpt>
      <trkpt lat="44.51115" lon="2.79001">
        <ele>351</ele>
        <time>2018-05-04T06:44:50Z</time>
      </trkpt>
      <trkpt lat="44.51124" lon="2.78964">
        <ele>349</ele>
        <time>2018-05-04T06:45:14Z</time>
      </trkpt>
      <trkpt lat="44.51136" lon="2.78946">
        <ele>348</ele>
        <time>2018-05-04T06:45:27Z</time>
      </trkpt>
      <trkpt lat="44.5114" lon="2.78942">
        <ele>348</ele>
        <time>2018-05-04T06:45:31Z</time>
      </trkpt>
      <trkpt lat="44.51154" lon="2.78935">
        <ele>347</ele>
        <time>2018-05-04T06:45:43Z</time>
      </trkpt>
      <trkpt lat="44.51196" lon="2.78934">
        <ele>346</ele>
        <time>2018-05-04T06:46:15Z</time>
      </trkpt>
      <trkpt lat="44.51234" lon="2.78922">
        <ele>346</ele>
        <time>2018-05-04T06:46:47Z</time>
      </trkpt>
      <trkpt lat="44.51266" lon="2.78889">
        <ele>346</ele>
        <time>2018-05-04T06:47:19Z</time>
      </trkpt>
      <trkpt lat="44.51273" lon="2.78877">
        <ele>347</ele>
        <time>2018-05-04T06:47:41Z</time>
      </trkpt>
      <trkpt lat="44.51302" lon="2.78841">
        <ele>346</ele>
        <time>2018-05-04T06:48:15Z</time>
      </trkpt>
      <trkpt lat="44.51305" lon="2.78836">
        <ele>346</ele>
        <time>2018-05-04T06:48:19Z</time>
      </trkpt>
      <trkpt lat="44.51312" lon="2.78827">
        <ele>346</ele>
        <time>2018-05-04T06:48:27Z</time>
      </trkpt>
      <trkpt lat="44.51319" lon="2.78817">
        <ele>346</ele>
        <time>2018-05-04T06:48:35Z</time>
      </trkpt>
      <trkpt lat="44.51336" lon="2.78802">
        <ele>345</ele>
        <time>2018-05-04T06:48:55Z</time>
      </trkpt>
      <trkpt lat="44.51339" lon="2.78795">
        <ele>345</ele>
        <time>2018-05-04T06:49:00Z</time>
      </trkpt>
      <trkpt lat="44.5135" lon="2.78792">
        <ele>345</ele>
        <time>2018-05-04T06:49:13Z</time>
      </trkpt>
      <trkpt lat="44.5136" lon="2.78786">
        <ele>345</ele>
        <time>2018-05-04T06:49:21Z</time>
      </trkpt>
      <trkpt lat="44.51371" lon="2.78785">
        <ele>344</ele>
        <time>2018-05-04T06:49:29Z</time>
      </trkpt>
      <trkpt lat="44.51393" lon="2.78775">
        <ele>344</ele>
        <time>2018-05-04T06:49:45Z</time>
      </trkpt>
      <trkpt lat="44.51415" lon="2.78773">
        <ele>343</ele>
        <time>2018-05-04T06:50:02Z</time>
      </trkpt>
      <trkpt lat="44.51426" lon="2.78773">
        <ele>343</ele>
        <time>2018-05-04T06:50:11Z</time>
      </trkpt>
      <trkpt lat="44.51473" lon="2.7876">
        <ele>344</ele>
        <time>2018-05-04T06:50:51Z</time>
      </trkpt>
      <trkpt lat="44.51538" lon="2.78735">
        <ele>343</ele>
        <time>2018-05-04T06:51:47Z</time>
      </trkpt>
      <trkpt lat="44.51545" lon="2.78729">
        <ele>343</ele>
        <time>2018-05-04T06:52:20Z</time>
      </trkpt>
      <trkpt lat="44.51547" lon="2.78724">
        <ele>343</ele>
        <time>2018-05-04T06:52:53Z</time>
      </trkpt>
      <trkpt lat="44.51558" lon="2.78721">
        <ele>344</ele>
        <time>2018-05-04T06:53:27Z</time>
      </trkpt>
      <trkpt lat="44.51563" lon="2.78721">
        <ele>344</ele>
        <time>2018-05-04T06:53:31Z</time>
      </trkpt>
      <trkpt lat="44.51569" lon="2.78715">
        <ele>344</ele>
        <time>2018-05-04T06:53:38Z</time>
      </trkpt>
      <trkpt lat="44.51604" lon="2.78693">
        <ele>344</ele>
        <time>2018-05-04T06:54:07Z</time>
      </trkpt>
      <trkpt lat="44.51608" lon="2.78688">
        <ele>344</ele>
        <time>2018-05-04T06:54:12Z</time>
      </trkpt>
      <trkpt lat="44.5164" lon="2.78665">
        <ele>344</ele>
        <time>2018-05-04T06:54:41Z</time>
      </trkpt>
      <trkpt lat="44.51648" lon="2.78657">
        <ele>343</ele>
        <time>2018-05-04T06:54:49Z</time>
      </trkpt>
      <trkpt lat="44.51662" lon="2.78647">
        <ele>343</ele>
        <time>2018-05-04T06:55:01Z</time>
      </trkpt>
      <trkpt lat="44.51666" lon="2.78642">
        <ele>343</ele>
        <time>2018-05-04T06:55:06Z</time>
      </trkpt>
      <trkpt lat="44.51674" lon="2.78625">
        <ele>343</ele>
        <time>2018-05-04T06:55:18Z</time>
      </trkpt>
      <trkpt lat="44.51691" lon="2.7855">
        <ele>342</ele>
        <time>2018-05-04T06:56:03Z</time>
      </trkpt>
      <trkpt lat="44.51694" lon="2.78515">
        <ele>342</ele>
        <time>2018-05-04T06:56:22Z</time>
      </trkpt>
      <trkpt lat="44.5171" lon="2.78447">
        <ele>342</ele>
        <time>2018-05-04T06:57:02Z</time>
      </trkpt>
      <trkpt lat="44.51718" lon="2.78422">
        <ele>341</ele>
        <time>2018-05-04T06:57:18Z</time>
      </trkpt>
      <trkpt lat="44.51722" lon="2.78396">
        <ele>341</ele>
        <time>2018-05-04T06:57:33Z</time>
      </trkpt>
      <trkpt lat="44.5173" lon="2.78368">
        <ele>341</ele>
        <time>2018-05-04T06:57:51Z</time>
      </trkpt>
      <trkpt lat="44.5173" lon="2.78361">
        <ele>341</ele>
        <time>2018-05-04T06:57:55Z</time>
      </trkpt>
      <trkpt lat="44.51737" lon="2.78333">
        <ele>341</ele>
        <time>2018-05-04T06:58:10Z</time>
      </trkpt>
      <trkpt lat="44.5174" lon="2.78327">
        <ele>341</ele>
        <time>2018-05-04T06:58:14Z</time>
      </trkpt>
      <trkpt lat="44.51748" lon="2.78301">
        <ele>342</ele>
        <time>2018-05-04T06:58:32Z</time>
      </trkpt>
      <trkpt lat="44.51747" lon="2.78294">
        <ele>342</ele>
        <time>2018-05-04T06:58:36Z</time>
      </trkpt>
      <trkpt lat="44.51752" lon="2.78286">
        <ele>342</ele>
        <time>2018-05-04T06:58:42Z</time>
      </trkpt>
      <trkpt lat="44.51763" lon="2.78259">
        <ele>342</ele>
        <time>2018-05-04T06:58:56Z</time>
      </trkpt>
      <trkpt lat="44.51765" lon="2.78253">
        <ele>342</ele>
        <time>2018-05-04T06:58:59Z</time>
      </trkpt>
      <trkpt lat="44.51765" lon="2.78246">
        <ele>342</ele>
        <time>2018-05-04T06:59:03Z</time>
      </trkpt>
      <trkpt lat="44.51773" lon="2.78214">
        <ele>341</ele>
        <time>2018-05-04T06:59:24Z</time>
      </trkpt>
      <trkpt lat="44.51786" lon="2.78193">
        <ele>341</ele>
        <time>2018-05-04T06:59:42Z</time>
      </trkpt>
      <trkpt lat="44.51795" lon="2.78169">
        <ele>341</ele>
        <time>2018-05-04T06:59:58Z</time>
      </trkpt>
      <trkpt lat="44.51801" lon="2.78158">
        <ele>341</ele>
        <time>2018-05-04T07:00:05Z</time>
      </trkpt>
      <trkpt lat="44.51819" lon="2.78095">
        <ele>341</ele>
        <time>2018-05-04T07:00:52Z</time>
      </trkpt>
      <trkpt lat="44.51822" lon="2.78089">
        <ele>341</ele>
        <time>2018-05-04T07:00:57Z</time>
      </trkpt>
      <trkpt lat="44.51841" lon="2.78034">
        <ele>341</ele>
        <time>2018-05-04T07:01:51Z</time>
      </trkpt>
      <trkpt lat="44.51844" lon="2.78028">
        <ele>340</ele>
        <time>2018-05-04T07:01:55Z</time>
      </trkpt>
      <trkpt lat="44.51849" lon="2.78014">
        <ele>340</ele>
        <time>2018-05-04T07:02:03Z</time>
      </trkpt>
      <trkpt lat="44.5185" lon="2.78008">
        <ele>340</ele>
        <time>2018-05-04T07:02:07Z</time>
      </trkpt>
      <trkpt lat="44.51856" lon="2.77989">
        <ele>339</ele>
        <time>2018-05-04T07:02:21Z</time>
      </trkpt>
      <trkpt lat="44.51857" lon="2.77981">
        <ele>339</ele>
        <time>2018-05-04T07:02:30Z</time>
      </trkpt>
      <trkpt lat="44.51862" lon="2.7798">
        <ele>339</ele>
        <time>2018-05-04T07:02:42Z</time>
      </trkpt>
      <trkpt lat="44.51855" lon="2.77975">
        <ele>339</ele>
        <time>2018-05-04T07:02:58Z</time>
      </trkpt>
      <trkpt lat="44.51852" lon="2.77968">
        <ele>339</ele>
        <time>2018-05-04T07:04:05Z</time>
      </trkpt>
      <trkpt lat="44.51843" lon="2.77964">
        <ele>340</ele>
        <time>2018-05-04T07:04:35Z</time>
      </trkpt>
      <trkpt lat="44.51834" lon="2.77958">
        <ele>341</ele>
        <time>2018-05-04T07:04:43Z</time>
      </trkpt>
      <trkpt lat="44.51832" lon="2.7795">
        <ele>341</ele>
        <time>2018-05-04T07:04:47Z</time>
      </trkpt>
      <trkpt lat="44.51834" lon="2.77931">
        <ele>342</ele>
        <time>2018-05-04T07:04:59Z</time>
      </trkpt>
      <trkpt lat="44.51833" lon="2.7791">
        <ele>342</ele>
        <time>2018-05-04T07:05:12Z</time>
      </trkpt>
      <trkpt lat="44.51833" lon="2.77903">
        <ele>342</ele>
        <time>2018-05-04T07:05:17Z</time>
      </trkpt>
      <trkpt lat="44.51833" lon="2.77783">
        <ele>341</ele>
        <time>2018-05-04T07:06:47Z</time>
      </trkpt>
      <trkpt lat="44.51824" lon="2.77737">
        <ele>342</ele>
        <time>2018-05-04T07:07:16Z</time>
      </trkpt>
      <trkpt lat="44.51822" lon="2.77732">
        <ele>342</ele>
        <time>2018-05-04T07:07:20Z</time>
      </trkpt>
      <trkpt lat="44.5182" lon="2.77709">
        <ele>343</ele>
        <time>2018-05-04T07:07:52Z</time>
      </trkpt>
      <trkpt lat="44.51821" lon="2.77638">
        <ele>341</ele>
        <time>2018-05-04T07:08:31Z</time>
      </trkpt>
      <trkpt lat="44.51818" lon="2.77592">
        <ele>339</ele>
        <time>2018-05-04T07:08:56Z</time>
      </trkpt>
      <trkpt lat="44.51814" lon="2.77578">
        <ele>339</ele>
        <time>2018-05-04T07:09:32Z</time>
      </trkpt>
      <trkpt lat="44.51815" lon="2.77571">
        <ele>341</ele>
        <time>2018-05-04T07:09:49Z</time>
      </trkpt>
      <trkpt lat="44.51813" lon="2.77557">
        <ele>340</ele>
        <time>2018-05-04T07:09:57Z</time>
      </trkpt>
      <trkpt lat="44.51806" lon="2.77537">
        <ele>340</ele>
        <time>2018-05-04T07:10:09Z</time>
      </trkpt>
      <trkpt lat="44.51797" lon="2.77523">
        <ele>340</ele>
        <time>2018-05-04T07:10:21Z</time>
      </trkpt>
      <trkpt lat="44.51785" lon="2.77485">
        <ele>340</ele>
        <time>2018-05-04T07:10:43Z</time>
      </trkpt>
      <trkpt lat="44.51783" lon="2.77459">
        <ele>340</ele>
        <time>2018-05-04T07:10:58Z</time>
      </trkpt>
      <trkpt lat="44.51784" lon="2.77452">
        <ele>340</ele>
        <time>2018-05-04T07:11:02Z</time>
      </trkpt>
      <trkpt lat="44.51794" lon="2.77427">
        <ele>339</ele>
        <time>2018-05-04T07:11:19Z</time>
      </trkpt>
      <trkpt lat="44.51799" lon="2.77392">
        <ele>340</ele>
        <time>2018-05-04T07:11:40Z</time>
      </trkpt>
      <trkpt lat="44.51798" lon="2.77385">
        <ele>340</ele>
        <time>2018-05-04T07:11:45Z</time>
      </trkpt>
      <trkpt lat="44.51792" lon="2.77367">
        <ele>341</ele>
        <time>2018-05-04T07:11:58Z</time>
      </trkpt>
      <trkpt lat="44.51786" lon="2.77347">
        <ele>341</ele>
        <time>2018-05-04T07:12:10Z</time>
      </trkpt>
      <trkpt lat="44.51786" lon="2.7729">
        <ele>341</ele>
        <time>2018-05-04T07:12:42Z</time>
      </trkpt>
      <trkpt lat="44.51785" lon="2.77281">
        <ele>342</ele>
        <time>2018-05-04T07:13:05Z</time>
      </trkpt>
      <trkpt lat="44.51788" lon="2.77243">
        <ele>342</ele>
        <time>2018-05-04T07:13:25Z</time>
      </trkpt>
      <trkpt lat="44.51792" lon="2.77229">
        <ele>342</ele>
        <time>2018-05-04T07:13:34Z</time>
      </trkpt>
      <trkpt lat="44.51791" lon="2.77222">
        <ele>342</ele>
        <time>2018-05-04T07:13:38Z</time>
      </trkpt>
      <trkpt lat="44.51782" lon="2.77203">
        <ele>342</ele>
        <time>2018-05-04T07:13:50Z</time>
      </trkpt>
      <trkpt lat="44.51777" lon="2.77198">
        <ele>342</ele>
        <time>2018-05-04T07:13:55Z</time>
      </trkpt>
      <trkpt lat="44.51775" lon="2.77191">
        <ele>342</ele>
        <time>2018-05-04T07:14:18Z</time>
      </trkpt>
      <trkpt lat="44.5178" lon="2.77179">
        <ele>343</ele>
        <time>2018-05-04T07:14:27Z</time>
      </trkpt>
      <trkpt lat="44.51781" lon="2.77165">
        <ele>342</ele>
        <time>2018-05-04T07:14:37Z</time>
      </trkpt>
      <trkpt lat="44.51777" lon="2.7717">
        <ele>343</ele>
        <time>2018-05-04T07:15:21Z</time>
      </trkpt>
      <trkpt lat="44.5177" lon="2.77166">
        <ele>342</ele>
        <time>2018-05-04T07:16:00Z</time>
      </trkpt>
      <trkpt lat="44.51756" lon="2.77164">
        <ele>344</ele>
        <time>2018-05-04T07:16:13Z</time>
      </trkpt>
      <trkpt lat="44.51748" lon="2.77153">
        <ele>346</ele>
        <time>2018-05-04T07:16:25Z</time>
      </trkpt>
      <trkpt lat="44.51742" lon="2.77149">
        <ele>348</ele>
        <time>2018-05-04T07:16:32Z</time>
      </trkpt>
      <trkpt lat="44.51739" lon="2.7714">
        <ele>349</ele>
        <time>2018-05-04T07:16:40Z</time>
      </trkpt>
      <trkpt lat="44.5173" lon="2.77119">
        <ele>355</ele>
        <time>2018-05-04T07:17:12Z</time>
      </trkpt>
      <trkpt lat="44.51733" lon="2.7711">
        <ele>355</ele>
        <time>2018-05-04T07:17:24Z</time>
      </trkpt>
      <trkpt lat="44.51739" lon="2.77117">
        <ele>355</ele>
        <time>2018-05-04T07:17:48Z</time>
      </trkpt>
      <trkpt lat="44.51744" lon="2.77117">
        <ele>355</ele>
        <time>2018-05-04T07:18:00Z</time>
      </trkpt>
      <trkpt lat="44.5175" lon="2.77119">
        <ele>355</ele>
        <time>2018-05-04T07:18:12Z</time>
      </trkpt>
      <trkpt lat="44.51755" lon="2.77122">
        <ele>355</ele>
        <time>2018-05-04T07:18:21Z</time>
      </trkpt>
      <trkpt lat="44.51756" lon="2.77126">
        <ele>352</ele>
        <time>2018-05-04T07:20:43Z</time>
      </trkpt>
      <trkpt lat="44.51756" lon="2.77133">
        <ele>352</ele>
        <time>2018-05-04T07:20:48Z</time>
      </trkpt>
      <trkpt lat="44.51767" lon="2.77133">
        <ele>352</ele>
        <time>2018-05-04T07:21:36Z</time>
      </trkpt>
      <trkpt lat="44.51764" lon="2.77242">
        <ele>351</ele>
        <time>2018-05-04T07:24:04Z</time>
      </trkpt>
      <trkpt lat="44.51772" lon="2.77157">
        <ele>351</ele>
        <time>2018-05-04T07:24:36Z</time>
      </trkpt>
      <trkpt lat="44.51762" lon="2.77132">
        <ele>350</ele>
        <time>2018-05-04T07:28:25Z</time>
      </trkpt>
      <trkpt lat="44.51758" lon="2.77127">
        <ele>350</ele>
        <time>2018-05-04T07:28:28Z</time>
      </trkpt>
      <trkpt lat="44.51756" lon="2.77117">
        <ele>351</ele>
        <time>2018-05-04T07:28:50Z</time>
      </trkpt>
      <trkpt lat="44.51748" lon="2.77112">
        <ele>352</ele>
        <time>2018-05-04T07:29:01Z</time>
      </trkpt>
      <trkpt lat="44.51738" lon="2.77109">
        <ele>352</ele>
        <time>2018-05-04T07:29:11Z</time>
      </trkpt>
      <trkpt lat="44.51732" lon="2.77114">
        <ele>353</ele>
        <time>2018-05-04T07:29:47Z</time>
      </trkpt>
      <trkpt lat="44.51732" lon="2.77125">
        <ele>351</ele>
        <time>2018-05-04T07:30:01Z</time>
      </trkpt>
      <trkpt lat="44.51737" lon="2.77141">
        <ele>348</ele>
        <time>2018-05-04T07:30:14Z</time>
      </trkpt>
      <trkpt lat="44.51745" lon="2.77148">
        <ele>346</ele>
        <time>2018-05-04T07:30:24Z</time>
      </trkpt>
      <trkpt lat="44.5175" lon="2.7715">
        <ele>345</ele>
        <time>2018-05-04T07:30:28Z</time>
      </trkpt>
      <trkpt lat="44.51754" lon="2.77157">
        <ele>343</ele>
        <time>2018-05-04T07:30:36Z</time>
      </trkpt>
      <trkpt lat="44.51758" lon="2.77161">
        <ele>342</ele>
        <time>2018-05-04T07:30:41Z</time>
      </trkpt>
      <trkpt lat="44.51778" lon="2.77172">
        <ele>339</ele>
        <time>2018-05-04T07:30:57Z</time>
      </trkpt>
      <trkpt lat="44.5178" lon="2.77172">
        <ele>338</ele>
        <time>2018-05-04T07:32:18Z</time>
      </trkpt>
      <trkpt lat="44.51788" lon="2.77171">
        <ele>338</ele>
        <time>2018-05-04T07:32:39Z</time>
      </trkpt>
      <trkpt lat="44.51793" lon="2.77169">
        <ele>338</ele>
        <time>2018-05-04T07:32:44Z</time>
      </trkpt>
      <trkpt lat="44.51796" lon="2.77164">
        <ele>338</ele>
        <time>2018-05-04T07:32:49Z</time>
      </trkpt>
      <trkpt lat="44.51812" lon="2.77151">
        <ele>337</ele>
        <time>2018-05-04T07:33:17Z</time>
      </trkpt>
      <trkpt lat="44.51835" lon="2.77124">
        <ele>337</ele>
        <time>2018-05-04T07:33:42Z</time>
      </trkpt>
      <trkpt lat="44.51846" lon="2.771">
        <ele>337</ele>
        <time>2018-05-04T07:33:59Z</time>
      </trkpt>
      <trkpt lat="44.51869" lon="2.7698">
        <ele>338</ele>
        <time>2018-05-04T07:35:08Z</time>
      </trkpt>
      <trkpt lat="44.51869" lon="2.76908">
        <ele>338</ele>
        <time>2018-05-04T07:35:46Z</time>
      </trkpt>
      <trkpt lat="44.51876" lon="2.76874">
        <ele>338</ele>
        <time>2018-05-04T07:36:08Z</time>
      </trkpt>
      <trkpt lat="44.51887" lon="2.76849">
        <ele>338</ele>
        <time>2018-05-04T07:36:26Z</time>
      </trkpt>
      <trkpt lat="44.51888" lon="2.76842">
        <ele>338</ele>
        <time>2018-05-04T07:36:30Z</time>
      </trkpt>
      <trkpt lat="44.51889" lon="2.76836">
        <ele>338</ele>
        <time>2018-05-04T07:36:33Z</time>
      </trkpt>
      <trkpt lat="44.51882" lon="2.76758">
        <ele>338</ele>
        <time>2018-05-04T07:37:37Z</time>
      </trkpt>
      <trkpt lat="44.51881" lon="2.7675">
        <ele>338</ele>
        <time>2018-05-04T07:37:42Z</time>
      </trkpt>
      <trkpt lat="44.51883" lon="2.76714">
        <ele>338</ele>
        <time>2018-05-04T07:38:04Z</time>
      </trkpt>
      <trkpt lat="44.51887" lon="2.76694">
        <ele>337</ele>
        <time>2018-05-04T07:38:17Z</time>
      </trkpt>
      <trkpt lat="44.51893" lon="2.76683">
        <ele>337</ele>
        <time>2018-05-04T07:38:26Z</time>
      </trkpt>
      <trkpt lat="44.51896" lon="2.76678">
        <ele>338</ele>
        <time>2018-05-04T07:38:30Z</time>
      </trkpt>
      <trkpt lat="44.519" lon="2.76674">
        <ele>338</ele>
        <time>2018-05-04T07:38:34Z</time>
      </trkpt>
      <trkpt lat="44.51928" lon="2.76651">
        <ele>337</ele>
        <time>2018-05-04T07:38:57Z</time>
      </trkpt>
      <trkpt lat="44.51959" lon="2.766">
        <ele>337</ele>
        <time>2018-05-04T07:39:39Z</time>
      </trkpt>
      <trkpt lat="44.51968" lon="2.76593">
        <ele>337</ele>
        <time>2018-05-04T07:39:49Z</time>
      </trkpt>
      <trkpt lat="44.51975" lon="2.76585">
        <ele>337</ele>
        <time>2018-05-04T07:39:57Z</time>
      </trkpt>
      <trkpt lat="44.51982" lon="2.76573">
        <ele>337</ele>
        <time>2018-05-04T07:40:05Z</time>
      </trkpt>
      <trkpt lat="44.51985" lon="2.76567">
        <ele>337</ele>
        <time>2018-05-04T07:40:09Z</time>
      </trkpt>
      <trkpt lat="44.51998" lon="2.76545">
        <ele>338</ele>
        <time>2018-05-04T07:40:25Z</time>
      </trkpt>
      <trkpt lat="44.52003" lon="2.7654">
        <ele>337</ele>
        <time>2018-05-04T07:40:30Z</time>
      </trkpt>
      <trkpt lat="44.52006" lon="2.76535">
        <ele>338</ele>
        <time>2018-05-04T07:40:34Z</time>
      </trkpt>
      <trkpt lat="44.52009" lon="2.76529">
        <ele>338</ele>
        <time>2018-05-04T07:40:39Z</time>
      </trkpt>
      <trkpt lat="44.52016" lon="2.76519">
        <ele>338</ele>
        <time>2018-05-04T07:40:48Z</time>
      </trkpt>
      <trkpt lat="44.52021" lon="2.76507">
        <ele>338</ele>
        <time>2018-05-04T07:40:57Z</time>
      </trkpt>
      <trkpt lat="44.52031" lon="2.765">
        <ele>338</ele>
        <time>2018-05-04T07:41:07Z</time>
      </trkpt>
      <trkpt lat="44.52036" lon="2.7649">
        <ele>338</ele>
        <time>2018-05-04T07:41:18Z</time>
      </trkpt>
      <trkpt lat="44.52041" lon="2.76486">
        <ele>338</ele>
        <time>2018-05-04T07:41:23Z</time>
      </trkpt>
      <trkpt lat="44.52046" lon="2.76485">
        <ele>338</ele>
        <time>2018-05-04T07:41:28Z</time>
      </trkpt>
      <trkpt lat="44.5205" lon="2.76482">
        <ele>338</ele>
        <time>2018-05-04T07:41:33Z</time>
      </trkpt>
      <trkpt lat="44.52058" lon="2.76483">
        <ele>338</ele>
        <time>2018-05-04T07:41:41Z</time>
      </trkpt>
      <trkpt lat="44.52062" lon="2.76479">
        <ele>339</ele>
        <time>2018-05-04T07:41:45Z</time>
      </trkpt>
      <trkpt lat="44.52067" lon="2.7648">
        <ele>338</ele>
        <time>2018-05-04T07:41:56Z</time>
      </trkpt>
      <trkpt lat="44.52073" lon="2.76476">
        <ele>339</ele>
        <time>2018-05-04T07:42:08Z</time>
      </trkpt>
      <trkpt lat="44.52078" lon="2.76476">
        <ele>339</ele>
        <time>2018-05-04T07:42:12Z</time>
      </trkpt>
      <trkpt lat="44.52091" lon="2.76465">
        <ele>338</ele>
        <time>2018-05-04T07:42:24Z</time>
      </trkpt>
      <trkpt lat="44.52096" lon="2.76462">
        <ele>339</ele>
        <time>2018-05-04T07:42:28Z</time>
      </trkpt>
      <trkpt lat="44.52101" lon="2.76463">
        <ele>339</ele>
        <time>2018-05-04T07:42:32Z</time>
      </trkpt>
      <trkpt lat="44.52105" lon="2.76465">
        <ele>339</ele>
        <time>2018-05-04T07:42:42Z</time>
      </trkpt>
      <trkpt lat="44.5211" lon="2.7646">
        <ele>339</ele>
        <time>2018-05-04T07:42:57Z</time>
      </trkpt>
      <trkpt lat="44.52119" lon="2.76467">
        <ele>338</ele>
        <time>2018-05-04T07:43:07Z</time>
      </trkpt>
      <trkpt lat="44.52121" lon="2.7646">
        <ele>338</ele>
        <time>2018-05-04T07:43:30Z</time>
      </trkpt>
      <trkpt lat="44.5212" lon="2.76453">
        <ele>337</ele>
        <time>2018-05-04T07:43:40Z</time>
      </trkpt>
      <trkpt lat="44.52117" lon="2.76446">
        <ele>336</ele>
        <time>2018-05-04T07:44:22Z</time>
      </trkpt>
      <trkpt lat="44.52116" lon="2.76422">
        <ele>337</ele>
        <time>2018-05-04T07:44:36Z</time>
      </trkpt>
      <trkpt lat="44.5212" lon="2.76414">
        <ele>338</ele>
        <time>2018-05-04T07:44:44Z</time>
      </trkpt>
      <trkpt lat="44.52125" lon="2.7641">
        <ele>338</ele>
        <time>2018-05-04T07:44:49Z</time>
      </trkpt>
      <trkpt lat="44.52132" lon="2.76401">
        <ele>338</ele>
        <time>2018-05-04T07:44:57Z</time>
      </trkpt>
      <trkpt lat="44.52135" lon="2.76395">
        <ele>339</ele>
        <time>2018-05-04T07:45:01Z</time>
      </trkpt>
      <trkpt lat="44.52145" lon="2.76407">
        <ele>340</ele>
        <time>2018-05-04T07:46:01Z</time>
      </trkpt>
      <trkpt lat="44.5215" lon="2.76407">
        <ele>340</ele>
        <time>2018-05-04T07:46:06Z</time>
      </trkpt>
      <trkpt lat="44.52158" lon="2.76412">
        <ele>340</ele>
        <time>2018-05-04T07:46:12Z</time>
      </trkpt>
      <trkpt lat="44.52156" lon="2.76408">
        <ele>340</ele>
        <time>2018-05-04T07:46:53Z</time>
      </trkpt>
      <trkpt lat="44.52154" lon="2.76399">
        <ele>339</ele>
        <time>2018-05-04T07:47:00Z</time>
      </trkpt>
      <trkpt lat="44.52151" lon="2.76394">
        <ele>339</ele>
        <time>2018-05-04T07:47:03Z</time>
      </trkpt>
      <trkpt lat="44.52149" lon="2.76386">
        <ele>339</ele>
        <time>2018-05-04T07:47:08Z</time>
      </trkpt>
      <trkpt lat="44.52149" lon="2.76379">
        <ele>338</ele>
        <time>2018-05-04T07:47:14Z</time>
      </trkpt>
      <trkpt lat="44.52149" lon="2.76372">
        <ele>338</ele>
        <time>2018-05-04T07:47:39Z</time>
      </trkpt>
      <trkpt lat="44.52141" lon="2.76358">
        <ele>336</ele>
        <time>2018-05-04T07:50:47Z</time>
      </trkpt>
      <trkpt lat="44.52137" lon="2.76365">
        <ele>336</ele>
        <time>2018-05-04T07:51:00Z</time>
      </trkpt>
      <trkpt lat="44.5214" lon="2.76371">
        <ele>336</ele>
        <time>2018-05-04T07:51:06Z</time>
      </trkpt>
      <trkpt lat="44.52125" lon="2.76373">
        <ele>337</ele>
        <time>2018-05-04T07:51:44Z</time>
      </trkpt>
      <trkpt lat="44.52123" lon="2.76366">
        <ele>338</ele>
        <time>2018-05-04T07:51:52Z</time>
      </trkpt>
      <trkpt lat="44.52119" lon="2.76361">
        <ele>337</ele>
        <time>2018-05-04T07:51:58Z</time>
      </trkpt>
      <trkpt lat="44.52099" lon="2.76329">
        <ele>338</ele>
        <time>2018-05-04T07:52:26Z</time>
      </trkpt>
      <trkpt lat="44.52094" lon="2.76323">
        <ele>338</ele>
        <time>2018-05-04T07:52:46Z</time>
      </trkpt>
      <trkpt lat="44.52099" lon="2.76325">
        <ele>338</ele>
        <time>2018-05-04T07:54:59Z</time>
      </trkpt>
      <trkpt lat="44.52114" lon="2.76342">
        <ele>337</ele>
        <time>2018-05-04T07:55:15Z</time>
      </trkpt>
      <trkpt lat="44.52122" lon="2.76349">
        <ele>337</ele>
        <time>2018-05-04T07:55:23Z</time>
      </trkpt>
      <trkpt lat="44.52133" lon="2.76351">
        <ele>337</ele>
        <time>2018-05-04T07:55:33Z</time>
      </trkpt>
      <trkpt lat="44.52135" lon="2.76344">
        <ele>337</ele>
        <time>2018-05-04T07:55:41Z</time>
      </trkpt>
      <trkpt lat="44.52144" lon="2.76327">
        <ele>337</ele>
        <time>2018-05-04T07:55:55Z</time>
      </trkpt>
      <trkpt lat="44.52142" lon="2.76318">
        <ele>337</ele>
        <time>2018-05-04T07:56:15Z</time>
      </trkpt>
      <trkpt lat="44.52145" lon="2.76303">
        <ele>337</ele>
        <time>2018-05-04T07:56:27Z</time>
      </trkpt>
      <trkpt lat="44.52149" lon="2.76296">
        <ele>337</ele>
        <time>2018-05-04T07:56:39Z</time>
      </trkpt>
      <trkpt lat="44.52152" lon="2.7629">
        <ele>337</ele>
        <time>2018-05-04T07:56:51Z</time>
      </trkpt>
      <trkpt lat="44.52157" lon="2.76293">
        <ele>337</ele>
        <time>2018-05-04T07:56:55Z</time>
      </trkpt>
      <trkpt lat="44.52163" lon="2.76299">
        <ele>337</ele>
        <time>2018-05-04T07:57:02Z</time>
      </trkpt>
      <trkpt lat="44.5217" lon="2.76309">
        <ele>337</ele>
        <time>2018-05-04T07:57:12Z</time>
      </trkpt>
      <trkpt lat="44.52181" lon="2.76316">
        <ele>336</ele>
        <time>2018-05-04T07:57:24Z</time>
      </trkpt>
      <trkpt lat="44.52196" lon="2.76319">
        <ele>335</ele>
        <time>2018-05-04T07:57:36Z</time>
      </trkpt>
      <trkpt lat="44.52202" lon="2.76331">
        <ele>335</ele>
        <time>2018-05-04T07:57:47Z</time>
      </trkpt>
      <trkpt lat="44.52213" lon="2.76334">
        <ele>335</ele>
        <time>2018-05-04T07:58:01Z</time>
      </trkpt>
      <trkpt lat="44.52218" lon="2.7634">
        <ele>336</ele>
        <time>2018-05-04T07:58:13Z</time>
      </trkpt>
      <trkpt lat="44.52223" lon="2.76339">
        <ele>336</ele>
        <time>2018-05-04T07:58:19Z</time>
      </trkpt>
      <trkpt lat="44.5222" lon="2.76329">
        <ele>337</ele>
        <time>2018-05-04T07:58:56Z</time>
      </trkpt>
      <trkpt lat="44.52225" lon="2.7632">
        <ele>337</ele>
        <time>2018-05-04T07:59:00Z</time>
      </trkpt>
      <trkpt lat="44.52224" lon="2.76319">
        <ele>336</ele>
        <time>2018-05-04T07:59:23Z</time>
      </trkpt>
      <trkpt lat="44.52226" lon="2.76311">
        <ele>335</ele>
        <time>2018-05-04T08:00:59Z</time>
      </trkpt>
      <trkpt lat="44.52232" lon="2.76303">
        <ele>335</ele>
        <time>2018-05-04T08:02:41Z</time>
      </trkpt>
      <trkpt lat="44.52234" lon="2.76293">
        <ele>335</ele>
        <time>2018-05-04T08:02:53Z</time>
      </trkpt>
      <trkpt lat="44.52237" lon="2.76287">
        <ele>334</ele>
        <time>2018-05-04T08:03:05Z</time>
      </trkpt>
      <trkpt lat="44.52244" lon="2.76281">
        <ele>334</ele>
        <time>2018-05-04T08:03:24Z</time>
      </trkpt>
      <trkpt lat="44.52242" lon="2.76276">
        <ele>334</ele>
        <time>2018-05-04T08:03:28Z</time>
      </trkpt>
      <trkpt lat="44.52234" lon="2.76267">
        <ele>334</ele>
        <time>2018-05-04T08:03:37Z</time>
      </trkpt>
      <trkpt lat="44.5223" lon="2.76262">
        <ele>334</ele>
        <time>2018-05-04T08:03:42Z</time>
      </trkpt>
      <trkpt lat="44.52224" lon="2.76248">
        <ele>334</ele>
        <time>2018-05-04T08:03:53Z</time>
      </trkpt>
      <trkpt lat="44.52219" lon="2.76247">
        <ele>334</ele>
        <time>2018-05-04T08:03:57Z</time>
      </trkpt>
      <trkpt lat="44.52205" lon="2.7624">
        <ele>334</ele>
        <time>2018-05-04T08:04:11Z</time>
      </trkpt>
      <trkpt lat="44.522" lon="2.7623">
        <ele>334</ele>
        <time>2018-05-04T08:04:18Z</time>
      </trkpt>
      <trkpt lat="44.52193" lon="2.76226">
        <ele>334</ele>
        <time>2018-05-04T08:04:24Z</time>
      </trkpt>
      <trkpt lat="44.52189" lon="2.76222">
        <ele>334</ele>
        <time>2018-05-04T08:04:29Z</time>
      </trkpt>
      <trkpt lat="44.52189" lon="2.76209">
        <ele>334</ele>
        <time>2018-05-04T08:04:45Z</time>
      </trkpt>
      <trkpt lat="44.52182" lon="2.7621">
        <ele>334</ele>
        <time>2018-05-04T08:04:55Z</time>
      </trkpt>
      <trkpt lat="44.52177" lon="2.76207">
        <ele>334</ele>
        <time>2018-05-04T08:05:01Z</time>
      </trkpt>
      <trkpt lat="44.52172" lon="2.76206">
        <ele>334</ele>
        <time>2018-05-04T08:05:06Z</time>
      </trkpt>
      <trkpt lat="44.52158" lon="2.76196">
        <ele>335</ele>
        <time>2018-05-04T08:05:31Z</time>
      </trkpt>
      <trkpt lat="44.5216" lon="2.76204">
        <ele>335</ele>
        <time>2018-05-04T08:05:45Z</time>
      </trkpt>
      <trkpt lat="44.52156" lon="2.76208">
        <ele>335</ele>
        <time>2018-05-04T08:06:11Z</time>
      </trkpt>
      <trkpt lat="44.52152" lon="2.76207">
        <ele>335</ele>
        <time>2018-05-04T08:06:15Z</time>
      </trkpt>
      <trkpt lat="44.52133" lon="2.76195">
        <ele>335</ele>
        <time>2018-05-04T08:06:36Z</time>
      </trkpt>
      <trkpt lat="44.52131" lon="2.76201">
        <ele>336</ele>
        <time>2018-05-04T08:06:56Z</time>
      </trkpt>
      <trkpt lat="44.52124" lon="2.76212">
        <ele>336</ele>
        <time>2018-05-04T08:07:07Z</time>
      </trkpt>
      <trkpt lat="44.5212" lon="2.76215">
        <ele>336</ele>
        <time>2018-05-04T08:07:10Z</time>
      </trkpt>
      <trkpt lat="44.52114" lon="2.76215">
        <ele>336</ele>
        <time>2018-05-04T08:07:12Z</time>
      </trkpt>
      <trkpt lat="44.52115" lon="2.76235">
        <ele>336</ele>
        <time>2018-05-04T08:07:25Z</time>
      </trkpt>
      <trkpt lat="44.52108" lon="2.76239">
        <ele>336</ele>
        <time>2018-05-04T08:07:31Z</time>
      </trkpt>
      <trkpt lat="44.52111" lon="2.76254">
        <ele>336</ele>
        <time>2018-05-04T08:07:50Z</time>
      </trkpt>
      <trkpt lat="44.52117" lon="2.76256">
        <ele>336</ele>
        <time>2018-05-04T08:07:54Z</time>
      </trkpt>
      <trkpt lat="44.52127" lon="2.76262">
        <ele>335</ele>
        <time>2018-05-04T08:08:30Z</time>
      </trkpt>
      <trkpt lat="44.52144" lon="2.76281">
        <ele>335</ele>
        <time>2018-05-04T08:08:54Z</time>
      </trkpt>
      <trkpt lat="44.52154" lon="2.76285">
        <ele>334</ele>
        <time>2018-05-04T08:09:02Z</time>
      </trkpt>
      <trkpt lat="44.5216" lon="2.76267">
        <ele>334</ele>
        <time>2018-05-04T08:09:20Z</time>
      </trkpt>
      <trkpt lat="44.52167" lon="2.76259">
        <ele>334</ele>
        <time>2018-05-04T08:09:29Z</time>
      </trkpt>
      <trkpt lat="44.5217" lon="2.76249">
        <ele>335</ele>
        <time>2018-05-04T08:09:36Z</time>
      </trkpt>
      <trkpt lat="44.52176" lon="2.76247">
        <ele>335</ele>
        <time>2018-05-04T08:09:44Z</time>
      </trkpt>
      <trkpt lat="44.5218" lon="2.76251">
        <ele>335</ele>
        <time>2018-05-04T08:09:49Z</time>
      </trkpt>
      <trkpt lat="44.52193" lon="2.76256">
        <ele>334</ele>
        <time>2018-05-04T08:10:00Z</time>
      </trkpt>
      <trkpt lat="44.52198" lon="2.76258">
        <ele>335</ele>
        <time>2018-05-04T08:10:04Z</time>
      </trkpt>
      <trkpt lat="44.52206" lon="2.76265">
        <ele>334</ele>
        <time>2018-05-04T08:10:13Z</time>
      </trkpt>
      <trkpt lat="44.52212" lon="2.76265">
        <ele>335</ele>
        <time>2018-05-04T08:10:18Z</time>
      </trkpt>
      <trkpt lat="44.52224" lon="2.76277">
        <ele>335</ele>
        <time>2018-05-04T08:10:31Z</time>
      </trkpt>
      <trkpt lat="44.52239" lon="2.76284">
        <ele>335</ele>
        <time>2018-05-04T08:10:45Z</time>
      </trkpt>
      <trkpt lat="44.52251" lon="2.7628">
        <ele>336</ele>
        <time>2018-05-04T08:11:02Z</time>
      </trkpt>
      <trkpt lat="44.52254" lon="2.76272">
        <ele>336</ele>
        <time>2018-05-04T08:11:12Z</time>
      </trkpt>
      <trkpt lat="44.52292" lon="2.76222">
        <ele>330</ele>
        <time>2018-05-04T08:12:02Z</time>
      </trkpt>
      <trkpt lat="44.52302" lon="2.76196">
        <ele>329</ele>
        <time>2018-05-04T08:12:21Z</time>
      </trkpt>
      <trkpt lat="44.52317" lon="2.76176">
        <ele>329</ele>
        <time>2018-05-04T08:12:39Z</time>
      </trkpt>
      <trkpt lat="44.5232" lon="2.76171">
        <ele>329</ele>
        <time>2018-05-04T08:12:43Z</time>
      </trkpt>
      <trkpt lat="44.52327" lon="2.76161">
        <ele>329</ele>
        <time>2018-05-04T08:12:51Z</time>
      </trkpt>
      <trkpt lat="44.5233" lon="2.76153">
        <ele>329</ele>
        <time>2018-05-04T08:13:01Z</time>
      </trkpt>
      <trkpt lat="44.52347" lon="2.76131">
        <ele>329</ele>
        <time>2018-05-04T08:13:21Z</time>
      </trkpt>
      <trkpt lat="44.52354" lon="2.76118">
        <ele>329</ele>
        <time>2018-05-04T08:13:31Z</time>
      </trkpt>
      <trkpt lat="44.52358" lon="2.76105">
        <ele>329</ele>
        <time>2018-05-04T08:13:41Z</time>
      </trkpt>
      <trkpt lat="44.52361" lon="2.761">
        <ele>329</ele>
        <time>2018-05-04T08:13:45Z</time>
      </trkpt>
      <trkpt lat="44.52365" lon="2.76095">
        <ele>329</ele>
        <time>2018-05-04T08:13:49Z</time>
      </trkpt>
      <trkpt lat="44.5237" lon="2.76092">
        <ele>329</ele>
        <time>2018-05-04T08:13:52Z</time>
      </trkpt>
      <trkpt lat="44.52373" lon="2.76087">
        <ele>329</ele>
        <time>2018-05-04T08:13:57Z</time>
      </trkpt>
      <trkpt lat="44.52377" lon="2.76066">
        <ele>330</ele>
        <time>2018-05-04T08:14:09Z</time>
      </trkpt>
      <trkpt lat="44.52387" lon="2.76044">
        <ele>330</ele>
        <time>2018-05-04T08:14:25Z</time>
      </trkpt>
      <trkpt lat="44.52392" lon="2.7604">
        <ele>330</ele>
        <time>2018-05-04T08:14:29Z</time>
      </trkpt>
      <trkpt lat="44.52392" lon="2.76033">
        <ele>331</ele>
        <time>2018-05-04T08:14:34Z</time>
      </trkpt>
      <trkpt lat="44.52396" lon="2.76027">
        <ele>331</ele>
        <time>2018-05-04T08:14:39Z</time>
      </trkpt>
      <trkpt lat="44.524" lon="2.76023">
        <ele>331</ele>
        <time>2018-05-04T08:14:43Z</time>
      </trkpt>
      <trkpt lat="44.52411" lon="2.76016">
        <ele>331</ele>
        <time>2018-05-04T08:14:55Z</time>
      </trkpt>
      <trkpt lat="44.52422" lon="2.76001">
        <ele>331</ele>
        <time>2018-05-04T08:15:09Z</time>
      </trkpt>
      <trkpt lat="44.52428" lon="2.75996">
        <ele>330</ele>
        <time>2018-05-04T08:15:18Z</time>
      </trkpt>
      <trkpt lat="44.52432" lon="2.75991">
        <ele>331</ele>
        <time>2018-05-04T08:15:23Z</time>
      </trkpt>
      <trkpt lat="44.52435" lon="2.75985">
        <ele>331</ele>
        <time>2018-05-04T08:15:55Z</time>
      </trkpt>
      <trkpt lat="44.52438" lon="2.75982">
        <ele>331</ele>
        <time>2018-05-04T08:16:01Z</time>
      </trkpt>
      <trkpt lat="44.52443" lon="2.75976">
        <ele>332</ele>
        <time>2018-05-04T08:16:43Z</time>
      </trkpt>
      <trkpt lat="44.52444" lon="2.75969">
        <ele>332</ele>
        <time>2018-05-04T08:16:54Z</time>
      </trkpt>
      <trkpt lat="44.52449" lon="2.75965">
        <ele>332</ele>
        <time>2018-05-04T08:16:57Z</time>
      </trkpt>
      <trkpt lat="44.52453" lon="2.75957">
        <ele>332</ele>
        <time>2018-05-04T08:17:06Z</time>
      </trkpt>
      <trkpt lat="44.52457" lon="2.75953">
        <ele>332</ele>
        <time>2018-05-04T08:17:10Z</time>
      </trkpt>
      <trkpt lat="44.52462" lon="2.75941">
        <ele>332</ele>
        <time>2018-05-04T08:17:20Z</time>
      </trkpt>
      <trkpt lat="44.52466" lon="2.75936">
        <ele>332</ele>
        <time>2018-05-04T08:17:24Z</time>
      </trkpt>
      <trkpt lat="44.5247" lon="2.75932">
        <ele>332</ele>
        <time>2018-05-04T08:17:28Z</time>
      </trkpt>
      <trkpt lat="44.52476" lon="2.7592">
        <ele>332</ele>
        <time>2018-05-04T08:17:37Z</time>
      </trkpt>
      <trkpt lat="44.52484" lon="2.75913">
        <ele>332</ele>
        <time>2018-05-04T08:17:45Z</time>
      </trkpt>
      <trkpt lat="44.5249" lon="2.75902">
        <ele>333</ele>
        <time>2018-05-04T08:17:54Z</time>
      </trkpt>
      <trkpt lat="44.5249" lon="2.75895">
        <ele>332</ele>
        <time>2018-05-04T08:17:59Z</time>
      </trkpt>
      <trkpt lat="44.52494" lon="2.7589">
        <ele>332</ele>
        <time>2018-05-04T08:18:04Z</time>
      </trkpt>
      <trkpt lat="44.52508" lon="2.75878">
        <ele>333</ele>
        <time>2018-05-04T08:18:16Z</time>
      </trkpt>
      <trkpt lat="44.52511" lon="2.75873">
        <ele>333</ele>
        <time>2018-05-04T08:18:21Z</time>
      </trkpt>
      <trkpt lat="44.52527" lon="2.75856">
        <ele>333</ele>
        <time>2018-05-04T08:18:38Z</time>
      </trkpt>
      <trkpt lat="44.52533" lon="2.75846">
        <ele>333</ele>
        <time>2018-05-04T08:18:46Z</time>
      </trkpt>
      <trkpt lat="44.52536" lon="2.75842">
        <ele>333</ele>
        <time>2018-05-04T08:18:50Z</time>
      </trkpt>
      <trkpt lat="44.52541" lon="2.75829">
        <ele>333</ele>
        <time>2018-05-04T08:18:59Z</time>
      </trkpt>
      <trkpt lat="44.52545" lon="2.75824">
        <ele>333</ele>
        <time>2018-05-04T08:19:03Z</time>
      </trkpt>
      <trkpt lat="44.52547" lon="2.75818">
        <ele>333</ele>
        <time>2018-05-04T08:19:08Z</time>
      </trkpt>
      <trkpt lat="44.52554" lon="2.75809">
        <ele>333</ele>
        <time>2018-05-04T08:19:17Z</time>
      </trkpt>
      <trkpt lat="44.52557" lon="2.75803">
        <ele>333</ele>
        <time>2018-05-04T08:19:22Z</time>
      </trkpt>
      <trkpt lat="44.52561" lon="2.758">
        <ele>333</ele>
        <time>2018-05-04T08:19:26Z</time>
      </trkpt>
      <trkpt lat="44.52569" lon="2.75794">
        <ele>334</ele>
        <time>2018-05-04T08:19:34Z</time>
      </trkpt>
      <trkpt lat="44.52576" lon="2.75782">
        <ele>335</ele>
        <time>2018-05-04T08:19:43Z</time>
      </trkpt>
      <trkpt lat="44.52566" lon="2.75769">
        <ele>336</ele>
        <time>2018-05-04T08:20:05Z</time>
      </trkpt>
      <trkpt lat="44.52528" lon="2.75738">
        <ele>335</ele>
        <time>2018-05-04T08:20:43Z</time>
      </trkpt>
      <trkpt lat="44.52503" lon="2.75709">
        <ele>336</ele>
        <time>2018-05-04T08:21:13Z</time>
      </trkpt>
      <trkpt lat="44.52503" lon="2.75701">
        <ele>336</ele>
        <time>2018-05-04T08:21:34Z</time>
      </trkpt>
      <trkpt lat="44.52526" lon="2.75686">
        <ele>335</ele>
        <time>2018-05-04T08:21:54Z</time>
      </trkpt>
      <trkpt lat="44.52528" lon="2.7568">
        <ele>335</ele>
        <time>2018-05-04T08:21:58Z</time>
      </trkpt>
      <trkpt lat="44.52537" lon="2.75665">
        <ele>335</ele>
        <time>2018-05-04T08:22:10Z</time>
      </trkpt>
      <trkpt lat="44.52539" lon="2.75658">
        <ele>335</ele>
        <time>2018-05-04T08:22:15Z</time>
      </trkpt>
      <trkpt lat="44.52558" lon="2.75609">
        <ele>334</ele>
        <time>2018-05-04T08:22:50Z</time>
      </trkpt>
      <trkpt lat="44.52562" lon="2.75604">
        <ele>334</ele>
        <time>2018-05-04T08:22:54Z</time>
      </trkpt>
      <trkpt lat="44.5257" lon="2.75586">
        <ele>334</ele>
        <time>2018-05-04T08:23:06Z</time>
      </trkpt>
      <trkpt lat="44.52571" lon="2.75579">
        <ele>334</ele>
        <time>2018-05-04T08:23:24Z</time>
      </trkpt>
      <trkpt lat="44.52596" lon="2.75511">
        <ele>333</ele>
        <time>2018-05-04T08:24:10Z</time>
      </trkpt>
      <trkpt lat="44.52597" lon="2.75504">
        <ele>333</ele>
        <time>2018-05-04T08:24:14Z</time>
      </trkpt>
      <trkpt lat="44.52655" lon="2.75297">
        <ele>332</ele>
        <time>2018-05-04T08:26:23Z</time>
      </trkpt>
      <trkpt lat="44.52664" lon="2.75243">
        <ele>332</ele>
        <time>2018-05-04T08:26:56Z</time>
      </trkpt>
      <trkpt lat="44.52665" lon="2.75237">
        <ele>332</ele>
        <time>2018-05-04T08:27:00Z</time>
      </trkpt>
      <trkpt lat="44.52664" lon="2.7523">
        <ele>332</ele>
        <time>2018-05-04T08:27:05Z</time>
      </trkpt>
      <trkpt lat="44.5266" lon="2.75225">
        <ele>332</ele>
        <time>2018-05-04T08:27:09Z</time>
      </trkpt>
      <trkpt lat="44.52584" lon="2.75181">
        <ele>336</ele>
        <time>2018-05-04T08:28:21Z</time>
      </trkpt>
      <trkpt lat="44.52579" lon="2.75175">
        <ele>337</ele>
        <time>2018-05-04T08:28:27Z</time>
      </trkpt>
      <trkpt lat="44.52578" lon="2.75169">
        <ele>337</ele>
        <time>2018-05-04T08:28:32Z</time>
      </trkpt>
      <trkpt lat="44.5258" lon="2.7516">
        <ele>338</ele>
        <time>2018-05-04T08:28:39Z</time>
      </trkpt>
      <trkpt lat="44.52584" lon="2.75154">
        <ele>338</ele>
        <time>2018-05-04T08:28:43Z</time>
      </trkpt>
      <trkpt lat="44.52586" lon="2.75148">
        <ele>338</ele>
        <time>2018-05-04T08:28:47Z</time>
      </trkpt>
      <trkpt lat="44.52585" lon="2.75142">
        <ele>338</ele>
        <time>2018-05-04T08:28:51Z</time>
      </trkpt>
      <trkpt lat="44.52586" lon="2.75134">
        <ele>337</ele>
        <time>2018-05-04T08:28:55Z</time>
      </trkpt>
      <trkpt lat="44.52592" lon="2.75123">
        <ele>337</ele>
        <time>2018-05-04T08:29:03Z</time>
      </trkpt>
      <trkpt lat="44.52597" lon="2.75119">
        <ele>337</ele>
        <time>2018-05-04T08:29:07Z</time>
      </trkpt>
      <trkpt lat="44.52608" lon="2.75104">
        <ele>336</ele>
        <time>2018-05-04T08:29:20Z</time>
      </trkpt>
      <trkpt lat="44.5261" lon="2.75099">
        <ele>337</ele>
        <time>2018-05-04T08:29:25Z</time>
      </trkpt>
      <trkpt lat="44.52615" lon="2.75091">
        <ele>337</ele>
        <time>2018-05-04T08:29:42Z</time>
      </trkpt>
      <trkpt lat="44.52619" lon="2.75087">
        <ele>338</ele>
        <time>2018-05-04T08:29:45Z</time>
      </trkpt>
      <trkpt lat="44.52622" lon="2.75083">
        <ele>338</ele>
        <time>2018-05-04T08:29:50Z</time>
      </trkpt>
      <trkpt lat="44.52624" lon="2.75075">
        <ele>339</ele>
        <time>2018-05-04T08:29:58Z</time>
      </trkpt>
      <trkpt lat="44.52626" lon="2.75061">
        <ele>341</ele>
        <time>2018-05-04T08:30:08Z</time>
      </trkpt>
      <trkpt lat="44.52645" lon="2.75013">
        <ele>348</ele>
        <time>2018-05-04T08:31:01Z</time>
      </trkpt>
      <trkpt lat="44.52632" lon="2.74991">
        <ele>350</ele>
        <time>2018-05-04T08:31:21Z</time>
      </trkpt>
      <trkpt lat="44.5262" lon="2.74985">
        <ele>351</ele>
        <time>2018-05-04T08:31:33Z</time>
      </trkpt>
      <trkpt lat="44.52608" lon="2.74972">
        <ele>352</ele>
        <time>2018-05-04T08:31:48Z</time>
      </trkpt>
      <trkpt lat="44.52598" lon="2.74966">
        <ele>352</ele>
        <time>2018-05-04T08:31:58Z</time>
      </trkpt>
      <trkpt lat="44.52566" lon="2.74939">
        <ele>353</ele>
        <time>2018-05-04T08:32:31Z</time>
      </trkpt>
      <trkpt lat="44.5256" lon="2.74932">
        <ele>354</ele>
        <time>2018-05-04T08:33:35Z</time>
      </trkpt>
      <trkpt lat="44.52549" lon="2.74928">
        <ele>354</ele>
        <time>2018-05-04T08:33:43Z</time>
      </trkpt>
      <trkpt lat="44.52545" lon="2.74928">
        <ele>354</ele>
        <time>2018-05-04T08:33:47Z</time>
      </trkpt>
      <trkpt lat="44.52537" lon="2.74919">
        <ele>355</ele>
        <time>2018-05-04T08:33:57Z</time>
      </trkpt>
      <trkpt lat="44.52506" lon="2.74894">
        <ele>356</ele>
        <time>2018-05-04T08:34:28Z</time>
      </trkpt>
      <trkpt lat="44.52446" lon="2.74876">
        <ele>357</ele>
        <time>2018-05-04T08:35:18Z</time>
      </trkpt>
      <trkpt lat="44.52436" lon="2.74874">
        <ele>357</ele>
        <time>2018-05-04T08:35:26Z</time>
      </trkpt>
      <trkpt lat="44.52402" lon="2.74863">
        <ele>358</ele>
        <time>2018-05-04T08:35:58Z</time>
      </trkpt>
      <trkpt lat="44.524" lon="2.74853">
        <ele>358</ele>
        <time>2018-05-04T08:36:17Z</time>
      </trkpt>
      <trkpt lat="44.52407" lon="2.74825">
        <ele>357</ele>
        <time>2018-05-04T08:36:36Z</time>
      </trkpt>
      <trkpt lat="44.52417" lon="2.748">
        <ele>357</ele>
        <time>2018-05-04T08:36:53Z</time>
      </trkpt>
      <trkpt lat="44.52447" lon="2.74675">
        <ele>356</ele>
        <time>2018-05-04T08:38:12Z</time>
      </trkpt>
      <trkpt lat="44.52446" lon="2.74639">
        <ele>357</ele>
        <time>2018-05-04T08:38:33Z</time>
      </trkpt>
      <trkpt lat="44.52449" lon="2.74611">
        <ele>356</ele>
        <time>2018-05-04T08:38:50Z</time>
      </trkpt>
      <trkpt lat="44.52451" lon="2.74605">
        <ele>356</ele>
        <time>2018-05-04T08:38:54Z</time>
      </trkpt>
      <trkpt lat="44.52474" lon="2.74435">
        <ele>354</ele>
        <time>2018-05-04T08:40:34Z</time>
      </trkpt>
      <trkpt lat="44.52476" lon="2.74428">
        <ele>353</ele>
        <time>2018-05-04T08:40:39Z</time>
      </trkpt>
      <trkpt lat="44.52477" lon="2.74421">
        <ele>353</ele>
        <time>2018-05-04T08:40:43Z</time>
      </trkpt>
      <trkpt lat="44.52479" lon="2.74414">
        <ele>353</ele>
        <time>2018-05-04T08:40:47Z</time>
      </trkpt>
      <trkpt lat="44.52483" lon="2.74387">
        <ele>354</ele>
        <time>2018-05-04T08:41:05Z</time>
      </trkpt>
      <trkpt lat="44.52491" lon="2.74362">
        <ele>354</ele>
        <time>2018-05-04T08:41:22Z</time>
      </trkpt>
      <trkpt lat="44.52504" lon="2.74337">
        <ele>354</ele>
        <time>2018-05-04T08:41:43Z</time>
      </trkpt>
      <trkpt lat="44.52535" lon="2.74293">
        <ele>354</ele>
        <time>2018-05-04T08:42:19Z</time>
      </trkpt>
      <trkpt lat="44.52543" lon="2.74284">
        <ele>354</ele>
        <time>2018-05-04T08:42:27Z</time>
      </trkpt>
      <trkpt lat="44.52546" lon="2.74279">
        <ele>354</ele>
        <time>2018-05-04T08:42:31Z</time>
      </trkpt>
      <trkpt lat="44.52617" lon="2.7419">
        <ele>351</ele>
        <time>2018-05-04T08:43:51Z</time>
      </trkpt>
      <trkpt lat="44.52622" lon="2.74177">
        <ele>351</ele>
        <time>2018-05-04T08:43:59Z</time>
      </trkpt>
      <trkpt lat="44.52625" lon="2.74174">
        <ele>350</ele>
        <time>2018-05-04T08:44:03Z</time>
      </trkpt>
      <trkpt lat="44.52638" lon="2.74159">
        <ele>350</ele>
        <time>2018-05-04T08:44:15Z</time>
      </trkpt>
      <trkpt lat="44.52646" lon="2.74151">
        <ele>350</ele>
        <time>2018-05-04T08:44:23Z</time>
      </trkpt>
      <trkpt lat="44.52662" lon="2.74108">
        <ele>349</ele>
        <time>2018-05-04T08:44:55Z</time>
      </trkpt>
      <trkpt lat="44.52663" lon="2.74102">
        <ele>349</ele>
        <time>2018-05-04T08:44:59Z</time>
      </trkpt>
      <trkpt lat="44.52682" lon="2.74055">
        <ele>347</ele>
        <time>2018-05-04T08:45:31Z</time>
      </trkpt>
      <trkpt lat="44.52683" lon="2.7404">
        <ele>346</ele>
        <time>2018-05-04T08:45:39Z</time>
      </trkpt>
      <trkpt lat="44.52694" lon="2.74016">
        <ele>345</ele>
        <time>2018-05-04T08:45:56Z</time>
      </trkpt>
      <trkpt lat="44.52705" lon="2.74003">
        <ele>344</ele>
        <time>2018-05-04T08:46:08Z</time>
      </trkpt>
      <trkpt lat="44.52709" lon="2.74">
        <ele>344</ele>
        <time>2018-05-04T08:46:16Z</time>
      </trkpt>
      <trkpt lat="44.52714" lon="2.73998">
        <ele>344</ele>
        <time>2018-05-04T08:46:21Z</time>
      </trkpt>
      <trkpt lat="44.52718" lon="2.73994">
        <ele>344</ele>
        <time>2018-05-04T08:46:25Z</time>
      </trkpt>
      <trkpt lat="44.52721" lon="2.73988">
        <ele>344</ele>
        <time>2018-05-04T08:46:29Z</time>
      </trkpt>
      <trkpt lat="44.52735" lon="2.73944">
        <ele>341</ele>
        <time>2018-05-04T08:46:59Z</time>
      </trkpt>
      <trkpt lat="44.52737" lon="2.73937">
        <ele>341</ele>
        <time>2018-05-04T08:47:04Z</time>
      </trkpt>
      <trkpt lat="44.52734" lon="2.73931">
        <ele>342</ele>
        <time>2018-05-04T08:47:08Z</time>
      </trkpt>
      <trkpt lat="44.52734" lon="2.73924">
        <ele>341</ele>
        <time>2018-05-04T08:47:13Z</time>
      </trkpt>
      <trkpt lat="44.52732" lon="2.73918">
        <ele>341</ele>
        <time>2018-05-04T08:47:17Z</time>
      </trkpt>
      <trkpt lat="44.52732" lon="2.7391">
        <ele>341</ele>
        <time>2018-05-04T08:47:22Z</time>
      </trkpt>
      <trkpt lat="44.52741" lon="2.73884">
        <ele>340</ele>
        <time>2018-05-04T08:47:38Z</time>
      </trkpt>
      <trkpt lat="44.52744" lon="2.73864">
        <ele>340</ele>
        <time>2018-05-04T08:47:50Z</time>
      </trkpt>
      <trkpt lat="44.52759" lon="2.73821">
        <ele>338</ele>
        <time>2018-05-04T08:48:18Z</time>
      </trkpt>
      <trkpt lat="44.52763" lon="2.73816">
        <ele>338</ele>
        <time>2018-05-04T08:48:23Z</time>
      </trkpt>
      <trkpt lat="44.52768" lon="2.73812">
        <ele>337</ele>
        <time>2018-05-04T08:48:27Z</time>
      </trkpt>
      <trkpt lat="44.52771" lon="2.73806">
        <ele>337</ele>
        <time>2018-05-04T08:48:31Z</time>
      </trkpt>
      <trkpt lat="44.52773" lon="2.73799">
        <ele>337</ele>
        <time>2018-05-04T08:48:35Z</time>
      </trkpt>
      <trkpt lat="44.52776" lon="2.73793">
        <ele>336</ele>
        <time>2018-05-04T08:48:39Z</time>
      </trkpt>
      <trkpt lat="44.52786" lon="2.73783">
        <ele>336</ele>
        <time>2018-05-04T08:48:46Z</time>
      </trkpt>
      <trkpt lat="44.52795" lon="2.73763">
        <ele>335</ele>
        <time>2018-05-04T08:48:57Z</time>
      </trkpt>
      <trkpt lat="44.52793" lon="2.73757">
        <ele>335</ele>
        <time>2018-05-04T08:49:00Z</time>
      </trkpt>
      <trkpt lat="44.52784" lon="2.73741">
        <ele>335</ele>
        <time>2018-05-04T08:49:11Z</time>
      </trkpt>
      <trkpt lat="44.52783" lon="2.73734">
        <ele>335</ele>
        <time>2018-05-04T08:49:16Z</time>
      </trkpt>
      <trkpt lat="44.52786" lon="2.7372">
        <ele>335</ele>
        <time>2018-05-04T08:49:25Z</time>
      </trkpt>
      <trkpt lat="44.52821" lon="2.73571">
        <ele>334</ele>
        <time>2018-05-04T08:50:58Z</time>
      </trkpt>
      <trkpt lat="44.52822" lon="2.73563">
        <ele>334</ele>
        <time>2018-05-04T08:51:03Z</time>
      </trkpt>
      <trkpt lat="44.52819" lon="2.73546">
        <ele>334</ele>
        <time>2018-05-04T08:51:14Z</time>
      </trkpt>
      <trkpt lat="44.5282" lon="2.73532">
        <ele>334</ele>
        <time>2018-05-04T08:51:23Z</time>
      </trkpt>
      <trkpt lat="44.52818" lon="2.73526">
        <ele>334</ele>
        <time>2018-05-04T08:51:27Z</time>
      </trkpt>
      <trkpt lat="44.52803" lon="2.73491">
        <ele>335</ele>
        <time>2018-05-04T08:51:51Z</time>
      </trkpt>
      <trkpt lat="44.52772" lon="2.73439">
        <ele>336</ele>
        <time>2018-05-04T08:52:32Z</time>
      </trkpt>
      <trkpt lat="44.52744" lon="2.73308">
        <ele>340</ele>
        <time>2018-05-04T08:53:58Z</time>
      </trkpt>
      <trkpt lat="44.52743" lon="2.73301">
        <ele>341</ele>
        <time>2018-05-04T08:54:14Z</time>
      </trkpt>
      <trkpt lat="44.52742" lon="2.73295">
        <ele>341</ele>
        <time>2018-05-04T08:54:19Z</time>
      </trkpt>
      <trkpt lat="44.52739" lon="2.7328">
        <ele>341</ele>
        <time>2018-05-04T08:54:29Z</time>
      </trkpt>
      <trkpt lat="44.52736" lon="2.73274">
        <ele>342</ele>
        <time>2018-05-04T08:54:33Z</time>
      </trkpt>
      <trkpt lat="44.52736" lon="2.73264">
        <ele>341</ele>
        <time>2018-05-04T08:54:40Z</time>
      </trkpt>
      <trkpt lat="44.52734" lon="2.73258">
        <ele>341</ele>
        <time>2018-05-04T08:54:44Z</time>
      </trkpt>
      <trkpt lat="44.52721" lon="2.73235">
        <ele>341</ele>
        <time>2018-05-04T08:54:59Z</time>
      </trkpt>
      <trkpt lat="44.52718" lon="2.73227">
        <ele>342</ele>
        <time>2018-05-04T08:55:03Z</time>
      </trkpt>
      <trkpt lat="44.52694" lon="2.73176">
        <ele>343</ele>
        <time>2018-05-04T08:55:35Z</time>
      </trkpt>
      <trkpt lat="44.52688" lon="2.73157">
        <ele>342</ele>
        <time>2018-05-04T08:55:47Z</time>
      </trkpt>
      <trkpt lat="44.52665" lon="2.73117">
        <ele>340</ele>
        <time>2018-05-04T08:56:19Z</time>
      </trkpt>
      <trkpt lat="44.52625" lon="2.7306">
        <ele>337</ele>
        <time>2018-05-04T08:57:24Z</time>
      </trkpt>
      <trkpt lat="44.5262" lon="2.73048">
        <ele>337</ele>
        <time>2018-05-04T08:57:32Z</time>
      </trkpt>
      <trkpt lat="44.52618" lon="2.73026">
        <ele>335</ele>
        <time>2018-05-04T08:57:45Z</time>
      </trkpt>
      <trkpt lat="44.52618" lon="2.73019">
        <ele>335</ele>
        <time>2018-05-04T08:57:49Z</time>
      </trkpt>
      <trkpt lat="44.52619" lon="2.73012">
        <ele>335</ele>
        <time>2018-05-04T08:57:54Z</time>
      </trkpt>
      <trkpt lat="44.52625" lon="2.73009">
        <ele>336</ele>
        <time>2018-05-04T08:58:08Z</time>
      </trkpt>
      <trkpt lat="44.52635" lon="2.73008">
        <ele>336</ele>
        <time>2018-05-04T08:58:17Z</time>
      </trkpt>
      <trkpt lat="44.52639" lon="2.73005">
        <ele>336</ele>
        <time>2018-05-04T08:58:26Z</time>
      </trkpt>
      <trkpt lat="44.5264" lon="2.73008">
        <ele>338</ele>
        <time>2018-05-04T09:00:03Z</time>
      </trkpt>
      <trkpt lat="44.52646" lon="2.73002">
        <ele>338</ele>
        <time>2018-05-04T09:01:09Z</time>
      </trkpt>
      <trkpt lat="44.52619" lon="2.73012">
        <ele>342</ele>
        <time>2018-05-04T09:02:25Z</time>
      </trkpt>
      <trkpt lat="44.52631" lon="2.73009">
        <ele>343</ele>
        <time>2018-05-04T09:02:29Z</time>
      </trkpt>
      <trkpt lat="44.5264" lon="2.73011">
        <ele>344</ele>
        <time>2018-05-04T09:02:35Z</time>
      </trkpt>
      <trkpt lat="44.5265" lon="2.73007">
        <ele>344</ele>
        <time>2018-05-04T09:02:42Z</time>
      </trkpt>
      <trkpt lat="44.52651" lon="2.72994">
        <ele>345</ele>
        <time>2018-05-04T09:02:50Z</time>
      </trkpt>
      <trkpt lat="44.52641" lon="2.72997">
        <ele>345</ele>
        <time>2018-05-04T09:03:11Z</time>
      </trkpt>
      <trkpt lat="44.52639" lon="2.73">
        <ele>345</ele>
        <time>2018-05-04T09:04:49Z</time>
      </trkpt>
      <trkpt lat="44.52634" lon="2.73009">
        <ele>337</ele>
        <time>2018-05-04T09:07:32Z</time>
      </trkpt>
      <trkpt lat="44.5263" lon="2.73005">
        <ele>337</ele>
        <time>2018-05-04T09:07:36Z</time>
      </trkpt>
      <trkpt lat="44.52632" lon="2.72996">
        <ele>338</ele>
        <time>2018-05-04T09:07:44Z</time>
      </trkpt>
      <trkpt lat="44.52624" lon="2.73001">
        <ele>337</ele>
        <time>2018-05-04T09:07:56Z</time>
      </trkpt>
      <trkpt lat="44.52619" lon="2.72998">
        <ele>337</ele>
        <time>2018-05-04T09:08:18Z</time>
      </trkpt>
      <trkpt lat="44.52617" lon="2.72989">
        <ele>335</ele>
        <time>2018-05-04T09:08:38Z</time>
      </trkpt>
      <trkpt lat="44.52613" lon="2.73001">
        <ele>336</ele>
        <time>2018-05-04T09:09:12Z</time>
      </trkpt>
      <trkpt lat="44.5261" lon="2.7299">
        <ele>335</ele>
        <time>2018-05-04T09:09:31Z</time>
      </trkpt>
      <trkpt lat="44.52613" lon="2.72977">
        <ele>334</ele>
        <time>2018-05-04T09:09:39Z</time>
      </trkpt>
      <trkpt lat="44.52603" lon="2.72916">
        <ele>334</ele>
        <time>2018-05-04T09:10:18Z</time>
      </trkpt>
      <trkpt lat="44.52596" lon="2.72889">
        <ele>334</ele>
        <time>2018-05-04T09:10:34Z</time>
      </trkpt>
      <trkpt lat="44.52597" lon="2.72877">
        <ele>335</ele>
        <time>2018-05-04T09:10:50Z</time>
      </trkpt>
      <trkpt lat="44.52591" lon="2.72851">
        <ele>335</ele>
        <time>2018-05-04T09:11:06Z</time>
      </trkpt>
      <trkpt lat="44.52591" lon="2.72844">
        <ele>335</ele>
        <time>2018-05-04T09:11:17Z</time>
      </trkpt>
      <trkpt lat="44.5259" lon="2.72837">
        <ele>335</ele>
        <time>2018-05-04T09:11:49Z</time>
      </trkpt>
      <trkpt lat="44.52589" lon="2.7283">
        <ele>335</ele>
        <time>2018-05-04T09:11:53Z</time>
      </trkpt>
      <trkpt lat="44.52588" lon="2.72823">
        <ele>335</ele>
        <time>2018-05-04T09:11:58Z</time>
      </trkpt>
      <trkpt lat="44.52589" lon="2.72816">
        <ele>336</ele>
        <time>2018-05-04T09:12:03Z</time>
      </trkpt>
      <trkpt lat="44.52593" lon="2.72813">
        <ele>336</ele>
        <time>2018-05-04T09:12:07Z</time>
      </trkpt>
      <trkpt lat="44.52597" lon="2.72816">
        <ele>337</ele>
        <time>2018-05-04T09:12:16Z</time>
      </trkpt>
      <trkpt lat="44.52602" lon="2.72823">
        <ele>336</ele>
        <time>2018-05-04T09:12:33Z</time>
      </trkpt>
      <trkpt lat="44.52607" lon="2.72834">
        <ele>336</ele>
        <time>2018-05-04T09:12:42Z</time>
      </trkpt>
      <trkpt lat="44.5261" lon="2.72839">
        <ele>337</ele>
        <time>2018-05-04T09:12:46Z</time>
      </trkpt>
      <trkpt lat="44.52614" lon="2.72841">
        <ele>337</ele>
        <time>2018-05-04T09:12:51Z</time>
      </trkpt>
      <trkpt lat="44.52618" lon="2.72844">
        <ele>337</ele>
        <time>2018-05-04T09:12:55Z</time>
      </trkpt>
      <trkpt lat="44.5262" lon="2.72845">
        <ele>338</ele>
        <time>2018-05-04T09:13:34Z</time>
      </trkpt>
      <trkpt lat="44.52605" lon="2.72831">
        <ele>335</ele>
        <time>2018-05-04T09:13:53Z</time>
      </trkpt>
      <trkpt lat="44.52602" lon="2.72825">
        <ele>335</ele>
        <time>2018-05-04T09:13:58Z</time>
      </trkpt>
      <trkpt lat="44.52599" lon="2.72817">
        <ele>335</ele>
        <time>2018-05-04T09:14:07Z</time>
      </trkpt>
      <trkpt lat="44.52597" lon="2.72824">
        <ele>337</ele>
        <time>2018-05-04T09:27:26Z</time>
      </trkpt>
      <trkpt lat="44.52594" lon="2.72818">
        <ele>337</ele>
        <time>2018-05-04T09:27:32Z</time>
      </trkpt>
      <trkpt lat="44.52595" lon="2.72813">
        <ele>336</ele>
        <time>2018-05-04T09:27:38Z</time>
      </trkpt>
      <trkpt lat="44.526" lon="2.72809">
        <ele>337</ele>
        <time>2018-05-04T09:27:50Z</time>
      </trkpt>
      <trkpt lat="44.52607" lon="2.7281">
        <ele>336</ele>
        <time>2018-05-04T09:28:56Z</time>
      </trkpt>
      <trkpt lat="44.5261" lon="2.72815">
        <ele>337</ele>
        <time>2018-05-04T09:29:01Z</time>
      </trkpt>
      <trkpt lat="44.52632" lon="2.72827">
        <ele>338</ele>
        <time>2018-05-04T09:29:25Z</time>
      </trkpt>
      <trkpt lat="44.52641" lon="2.7283">
        <ele>339</ele>
        <time>2018-05-04T09:29:36Z</time>
      </trkpt>
      <trkpt lat="44.52647" lon="2.72829">
        <ele>339</ele>
        <time>2018-05-04T09:29:48Z</time>
      </trkpt>
      <trkpt lat="44.52663" lon="2.72817">
        <ele>342</ele>
        <time>2018-05-04T09:30:21Z</time>
      </trkpt>
      <trkpt lat="44.5267" lon="2.72818">
        <ele>342</ele>
        <time>2018-05-04T09:30:29Z</time>
      </trkpt>
      <trkpt lat="44.52677" lon="2.72821">
        <ele>343</ele>
        <time>2018-05-04T09:30:41Z</time>
      </trkpt>
      <trkpt lat="44.52684" lon="2.7283">
        <ele>343</ele>
        <time>2018-05-04T09:30:52Z</time>
      </trkpt>
      <trkpt lat="44.52688" lon="2.72824">
        <ele>345</ele>
        <time>2018-05-04T09:31:06Z</time>
      </trkpt>
      <trkpt lat="44.52691" lon="2.72797">
        <ele>350</ele>
        <time>2018-05-04T09:32:06Z</time>
      </trkpt>
      <trkpt lat="44.52696" lon="2.728">
        <ele>352</ele>
        <time>2018-05-04T09:32:24Z</time>
      </trkpt>
      <trkpt lat="44.52693" lon="2.72768">
        <ele>355</ele>
        <time>2018-05-04T09:33:01Z</time>
      </trkpt>
      <trkpt lat="44.52696" lon="2.72759">
        <ele>356</ele>
        <time>2018-05-04T09:33:13Z</time>
      </trkpt>
      <trkpt lat="44.52693" lon="2.72753">
        <ele>357</ele>
        <time>2018-05-04T09:33:25Z</time>
      </trkpt>
      <trkpt lat="44.52685" lon="2.72748">
        <ele>359</ele>
        <time>2018-05-04T09:33:36Z</time>
      </trkpt>
      <trkpt lat="44.5268" lon="2.72742">
        <ele>359</ele>
        <time>2018-05-04T09:33:41Z</time>
      </trkpt>
      <trkpt lat="44.52664" lon="2.72701">
        <ele>365</ele>
        <time>2018-05-04T09:34:24Z</time>
      </trkpt>
      <trkpt lat="44.52663" lon="2.72695">
        <ele>365</ele>
        <time>2018-05-04T09:34:29Z</time>
      </trkpt>
      <trkpt lat="44.52659" lon="2.7269">
        <ele>365</ele>
        <time>2018-05-04T09:34:34Z</time>
      </trkpt>
      <trkpt lat="44.52657" lon="2.72685">
        <ele>365</ele>
        <time>2018-05-04T09:34:39Z</time>
      </trkpt>
      <trkpt lat="44.52657" lon="2.72678">
        <ele>366</ele>
        <time>2018-05-04T09:34:47Z</time>
      </trkpt>
      <trkpt lat="44.52654" lon="2.72669">
        <ele>369</ele>
        <time>2018-05-04T09:34:59Z</time>
      </trkpt>
      <trkpt lat="44.5265" lon="2.72663">
        <ele>371</ele>
        <time>2018-05-04T09:35:11Z</time>
      </trkpt>
      <trkpt lat="44.52655" lon="2.72658">
        <ele>374</ele>
        <time>2018-05-04T09:35:31Z</time>
      </trkpt>
      <trkpt lat="44.52656" lon="2.72651">
        <ele>375</ele>
        <time>2018-05-04T09:35:41Z</time>
      </trkpt>
      <trkpt lat="44.52654" lon="2.72637">
        <ele>378</ele>
        <time>2018-05-04T09:35:56Z</time>
      </trkpt>
      <trkpt lat="44.52652" lon="2.72617">
        <ele>382</ele>
        <time>2018-05-04T09:36:16Z</time>
      </trkpt>
      <trkpt lat="44.52653" lon="2.7261">
        <ele>383</ele>
        <time>2018-05-04T09:36:22Z</time>
      </trkpt>
      <trkpt lat="44.5266" lon="2.72607">
        <ele>384</ele>
        <time>2018-05-04T09:36:33Z</time>
      </trkpt>
      <trkpt lat="44.52665" lon="2.72606">
        <ele>386</ele>
        <time>2018-05-04T09:36:42Z</time>
      </trkpt>
      <trkpt lat="44.5267" lon="2.72599">
        <ele>389</ele>
        <time>2018-05-04T09:36:54Z</time>
      </trkpt>
      <trkpt lat="44.52674" lon="2.72594">
        <ele>391</ele>
        <time>2018-05-04T09:37:12Z</time>
      </trkpt>
      <trkpt lat="44.52687" lon="2.7259">
        <ele>397</ele>
        <time>2018-05-04T09:37:42Z</time>
      </trkpt>
      <trkpt lat="44.52691" lon="2.72584">
        <ele>397</ele>
        <time>2018-05-04T09:38:00Z</time>
      </trkpt>
      <trkpt lat="44.52699" lon="2.72585">
        <ele>401</ele>
        <time>2018-05-04T09:38:18Z</time>
      </trkpt>
      <trkpt lat="44.52719" lon="2.72574">
        <ele>408</ele>
        <time>2018-05-04T09:39:00Z</time>
      </trkpt>
      <trkpt lat="44.52729" lon="2.72572">
        <ele>409</ele>
        <time>2018-05-04T09:39:12Z</time>
      </trkpt>
      <trkpt lat="44.52734" lon="2.72577">
        <ele>410</ele>
        <time>2018-05-04T09:39:20Z</time>
      </trkpt>
      <trkpt lat="44.52741" lon="2.7257">
        <ele>410</ele>
        <time>2018-05-04T09:40:56Z</time>
      </trkpt>
      <trkpt lat="44.5275" lon="2.72565">
        <ele>411</ele>
        <time>2018-05-04T09:41:05Z</time>
      </trkpt>
      <trkpt lat="44.52773" lon="2.72544">
        <ele>415</ele>
        <time>2018-05-04T09:41:30Z</time>
      </trkpt>
      <trkpt lat="44.52784" lon="2.72546">
        <ele>417</ele>
        <time>2018-05-04T09:41:43Z</time>
      </trkpt>
      <trkpt lat="44.5279" lon="2.72543">
        <ele>419</ele>
        <time>2018-05-04T09:42:24Z</time>
      </trkpt>
      <trkpt lat="44.52794" lon="2.72547">
        <ele>421</ele>
        <time>2018-05-04T09:42:34Z</time>
      </trkpt>
      <trkpt lat="44.528" lon="2.72549">
        <ele>423</ele>
        <time>2018-05-04T09:42:44Z</time>
      </trkpt>
      <trkpt lat="44.52804" lon="2.72545">
        <ele>424</ele>
        <time>2018-05-04T09:42:54Z</time>
      </trkpt>
      <trkpt lat="44.52805" lon="2.72537">
        <ele>427</ele>
        <time>2018-05-04T09:43:09Z</time>
      </trkpt>
      <trkpt lat="44.5281" lon="2.7253">
        <ele>430</ele>
        <time>2018-05-04T09:43:39Z</time>
      </trkpt>
      <trkpt lat="44.52817" lon="2.7254">
        <ele>433</ele>
        <time>2018-05-04T09:44:03Z</time>
      </trkpt>
      <trkpt lat="44.52821" lon="2.72543">
        <ele>434</ele>
        <time>2018-05-04T09:44:09Z</time>
      </trkpt>
      <trkpt lat="44.52829" lon="2.72544">
        <ele>437</ele>
        <time>2018-05-04T09:44:21Z</time>
      </trkpt>
      <trkpt lat="44.52838" lon="2.72558">
        <ele>440</ele>
        <time>2018-05-04T09:44:51Z</time>
      </trkpt>
      <trkpt lat="44.52851" lon="2.72561">
        <ele>441</ele>
        <time>2018-05-04T09:45:30Z</time>
      </trkpt>
      <trkpt lat="44.52856" lon="2.7256">
        <ele>442</ele>
        <time>2018-05-04T09:45:35Z</time>
      </trkpt>
      <trkpt lat="44.52862" lon="2.72555">
        <ele>443</ele>
        <time>2018-05-04T09:45:43Z</time>
      </trkpt>
      <trkpt lat="44.52863" lon="2.72545">
        <ele>445</ele>
        <time>2018-05-04T09:45:55Z</time>
      </trkpt>
      <trkpt lat="44.5287" lon="2.72538">
        <ele>447</ele>
        <time>2018-05-04T09:46:07Z</time>
      </trkpt>
      <trkpt lat="44.52873" lon="2.72531">
        <ele>449</ele>
        <time>2018-05-04T09:46:16Z</time>
      </trkpt>
      <trkpt lat="44.52874" lon="2.72511">
        <ele>451</ele>
        <time>2018-05-04T09:46:46Z</time>
      </trkpt>
      <trkpt lat="44.52876" lon="2.72505">
        <ele>453</ele>
        <time>2018-05-04T09:46:58Z</time>
      </trkpt>
      <trkpt lat="44.52883" lon="2.725">
        <ele>454</ele>
        <time>2018-05-04T09:47:23Z</time>
      </trkpt>
      <trkpt lat="44.52888" lon="2.72493">
        <ele>455</ele>
        <time>2018-05-04T09:47:35Z</time>
      </trkpt>
      <trkpt lat="44.52889" lon="2.72486">
        <ele>457</ele>
        <time>2018-05-04T09:47:47Z</time>
      </trkpt>
      <trkpt lat="44.52894" lon="2.72482">
        <ele>457</ele>
        <time>2018-05-04T09:47:59Z</time>
      </trkpt>
      <trkpt lat="44.52898" lon="2.72475">
        <ele>459</ele>
        <time>2018-05-04T09:48:07Z</time>
      </trkpt>
      <trkpt lat="44.52898" lon="2.72466">
        <ele>460</ele>
        <time>2018-05-04T09:48:25Z</time>
      </trkpt>
      <trkpt lat="44.52905" lon="2.72445">
        <ele>463</ele>
        <time>2018-05-04T09:48:43Z</time>
      </trkpt>
      <trkpt lat="44.52914" lon="2.72434">
        <ele>465</ele>
        <time>2018-05-04T09:49:01Z</time>
      </trkpt>
      <trkpt lat="44.52917" lon="2.7242">
        <ele>468</ele>
        <time>2018-05-04T09:49:19Z</time>
      </trkpt>
      <trkpt lat="44.5292" lon="2.72412">
        <ele>469</ele>
        <time>2018-05-04T09:49:41Z</time>
      </trkpt>
      <trkpt lat="44.52923" lon="2.72406">
        <ele>470</ele>
        <time>2018-05-04T09:49:56Z</time>
      </trkpt>
      <trkpt lat="44.52934" lon="2.72382">
        <ele>474</ele>
        <time>2018-05-04T09:50:57Z</time>
      </trkpt>
      <trkpt lat="44.52936" lon="2.72377">
        <ele>475</ele>
        <time>2018-05-04T09:51:05Z</time>
      </trkpt>
      <trkpt lat="44.52935" lon="2.72352">
        <ele>476</ele>
        <time>2018-05-04T09:51:28Z</time>
      </trkpt>
      <trkpt lat="44.52938" lon="2.72328">
        <ele>477</ele>
        <time>2018-05-04T09:51:59Z</time>
      </trkpt>
      <trkpt lat="44.52938" lon="2.72318">
        <ele>478</ele>
        <time>2018-05-04T09:52:06Z</time>
      </trkpt>
      <trkpt lat="44.5295" lon="2.72245">
        <ele>481</ele>
        <time>2018-05-04T09:52:56Z</time>
      </trkpt>
      <trkpt lat="44.52948" lon="2.72222">
        <ele>483</ele>
        <time>2018-05-04T09:53:12Z</time>
      </trkpt>
      <trkpt lat="44.52933" lon="2.72183">
        <ele>485</ele>
        <time>2018-05-04T09:53:46Z</time>
      </trkpt>
      <trkpt lat="44.52922" lon="2.72164">
        <ele>487</ele>
        <time>2018-05-04T09:54:10Z</time>
      </trkpt>
      <trkpt lat="44.52917" lon="2.72159">
        <ele>487</ele>
        <time>2018-05-04T09:54:18Z</time>
      </trkpt>
      <trkpt lat="44.52914" lon="2.72144">
        <ele>486</ele>
        <time>2018-05-04T09:54:48Z</time>
      </trkpt>
      <trkpt lat="44.52909" lon="2.72131">
        <ele>486</ele>
        <time>2018-05-04T09:54:56Z</time>
      </trkpt>
      <trkpt lat="44.529" lon="2.72057">
        <ele>489</ele>
        <time>2018-05-04T09:57:02Z</time>
      </trkpt>
      <trkpt lat="44.52881" lon="2.72001">
        <ele>491</ele>
        <time>2018-05-04T09:57:40Z</time>
      </trkpt>
      <trkpt lat="44.52875" lon="2.71908">
        <ele>493</ele>
        <time>2018-05-04T09:58:41Z</time>
      </trkpt>
      <trkpt lat="44.52876" lon="2.71893">
        <ele>493</ele>
        <time>2018-05-04T09:58:51Z</time>
      </trkpt>
      <trkpt lat="44.52878" lon="2.71886">
        <ele>493</ele>
        <time>2018-05-04T09:58:55Z</time>
      </trkpt>
      <trkpt lat="44.52881" lon="2.71881">
        <ele>493</ele>
        <time>2018-05-04T09:58:59Z</time>
      </trkpt>
      <trkpt lat="44.52883" lon="2.71875">
        <ele>492</ele>
        <time>2018-05-04T09:59:03Z</time>
      </trkpt>
      <trkpt lat="44.52942" lon="2.71782">
        <ele>488</ele>
        <time>2018-05-04T10:00:30Z</time>
      </trkpt>
      <trkpt lat="44.52979" lon="2.71698">
        <ele>487</ele>
        <time>2018-05-04T10:01:27Z</time>
      </trkpt>
      <trkpt lat="44.52995" lon="2.71639">
        <ele>487</ele>
        <time>2018-05-04T10:02:04Z</time>
      </trkpt>
      <trkpt lat="44.53001" lon="2.71577">
        <ele>484</ele>
        <time>2018-05-04T10:02:40Z</time>
      </trkpt>
      <trkpt lat="44.53002" lon="2.71527">
        <ele>484</ele>
        <time>2018-05-04T10:03:09Z</time>
      </trkpt>
      <trkpt lat="44.5301" lon="2.71487">
        <ele>485</ele>
        <time>2018-05-04T10:03:33Z</time>
      </trkpt>
      <trkpt lat="44.53018" lon="2.71467">
        <ele>485</ele>
        <time>2018-05-04T10:03:47Z</time>
      </trkpt>
      <trkpt lat="44.5304" lon="2.71432">
        <ele>486</ele>
        <time>2018-05-04T10:04:15Z</time>
      </trkpt>
      <trkpt lat="44.53043" lon="2.71426">
        <ele>486</ele>
        <time>2018-05-04T10:04:20Z</time>
      </trkpt>
      <trkpt lat="44.53062" lon="2.71367">
        <ele>486</ele>
        <time>2018-05-04T10:05:00Z</time>
      </trkpt>
      <trkpt lat="44.53066" lon="2.71354">
        <ele>485</ele>
        <time>2018-05-04T10:05:08Z</time>
      </trkpt>
      <trkpt lat="44.5307" lon="2.71334">
        <ele>485</ele>
        <time>2018-05-04T10:05:20Z</time>
      </trkpt>
      <trkpt lat="44.53085" lon="2.71283">
        <ele>484</ele>
        <time>2018-05-04T10:05:53Z</time>
      </trkpt>
      <trkpt lat="44.53092" lon="2.71272">
        <ele>484</ele>
        <time>2018-05-04T10:06:02Z</time>
      </trkpt>
      <trkpt lat="44.531" lon="2.71265">
        <ele>483</ele>
        <time>2018-05-04T10:06:11Z</time>
      </trkpt>
      <trkpt lat="44.53137" lon="2.71245">
        <ele>479</ele>
        <time>2018-05-04T10:06:44Z</time>
      </trkpt>
      <trkpt lat="44.53143" lon="2.71233">
        <ele>478</ele>
        <time>2018-05-04T10:06:53Z</time>
      </trkpt>
      <trkpt lat="44.53145" lon="2.71227">
        <ele>477</ele>
        <time>2018-05-04T10:06:57Z</time>
      </trkpt>
      <trkpt lat="44.53146" lon="2.71221">
        <ele>477</ele>
        <time>2018-05-04T10:07:01Z</time>
      </trkpt>
      <trkpt lat="44.53147" lon="2.71215">
        <ele>477</ele>
        <time>2018-05-04T10:07:05Z</time>
      </trkpt>
      <trkpt lat="44.53156" lon="2.71191">
        <ele>476</ele>
        <time>2018-05-04T10:07:21Z</time>
      </trkpt>
      <trkpt lat="44.5316" lon="2.71187">
        <ele>476</ele>
        <time>2018-05-04T10:07:25Z</time>
      </trkpt>
      <trkpt lat="44.53164" lon="2.71184">
        <ele>477</ele>
        <time>2018-05-04T10:07:29Z</time>
      </trkpt>
      <trkpt lat="44.53179" lon="2.71179">
        <ele>476</ele>
        <time>2018-05-04T10:07:41Z</time>
      </trkpt>
      <trkpt lat="44.53183" lon="2.71176">
        <ele>476</ele>
        <time>2018-05-04T10:07:45Z</time>
      </trkpt>
      <trkpt lat="44.53192" lon="2.71169">
        <ele>477</ele>
        <time>2018-05-04T10:07:55Z</time>
      </trkpt>
      <trkpt lat="44.53199" lon="2.71158">
        <ele>478</ele>
        <time>2018-05-04T10:08:05Z</time>
      </trkpt>
      <trkpt lat="44.53208" lon="2.71152">
        <ele>478</ele>
        <time>2018-05-04T10:08:15Z</time>
      </trkpt>
      <trkpt lat="44.53213" lon="2.71152">
        <ele>479</ele>
        <time>2018-05-04T10:08:20Z</time>
      </trkpt>
      <trkpt lat="44.53219" lon="2.71153">
        <ele>480</ele>
        <time>2018-05-04T10:08:27Z</time>
      </trkpt>
      <trkpt lat="44.53235" lon="2.71155">
        <ele>481</ele>
        <time>2018-05-04T10:08:42Z</time>
      </trkpt>
      <trkpt lat="44.53231" lon="2.71148">
        <ele>481</ele>
        <time>2018-05-04T10:10:12Z</time>
      </trkpt>
      <trkpt lat="44.53235" lon="2.71144">
        <ele>482</ele>
        <time>2018-05-04T10:10:42Z</time>
      </trkpt>
      <trkpt lat="44.53246" lon="2.71096">
        <ele>485</ele>
        <time>2018-05-04T10:11:13Z</time>
      </trkpt>
      <trkpt lat="44.5327" lon="2.71029">
        <ele>489</ele>
        <time>2018-05-04T10:12:13Z</time>
      </trkpt>
      <trkpt lat="44.53278" lon="2.70986">
        <ele>489</ele>
        <time>2018-05-04T10:12:38Z</time>
      </trkpt>
      <trkpt lat="44.53279" lon="2.70972">
        <ele>489</ele>
        <time>2018-05-04T10:12:46Z</time>
      </trkpt>
      <trkpt lat="44.53285" lon="2.70968">
        <ele>489</ele>
        <time>2018-05-04T10:12:52Z</time>
      </trkpt>
      <trkpt lat="44.53303" lon="2.7097">
        <ele>489</ele>
        <time>2018-05-04T10:13:12Z</time>
      </trkpt>
      <trkpt lat="44.53316" lon="2.70979">
        <ele>489</ele>
        <time>2018-05-04T10:13:25Z</time>
      </trkpt>
      <trkpt lat="44.53324" lon="2.70988">
        <ele>489</ele>
        <time>2018-05-04T10:13:33Z</time>
      </trkpt>
      <trkpt lat="44.53332" lon="2.71005">
        <ele>489</ele>
        <time>2018-05-04T10:13:45Z</time>
      </trkpt>
      <trkpt lat="44.53344" lon="2.7102">
        <ele>489</ele>
        <time>2018-05-04T10:13:58Z</time>
      </trkpt>
      <trkpt lat="44.53409" lon="2.71061">
        <ele>492</ele>
        <time>2018-05-04T10:14:58Z</time>
      </trkpt>
      <trkpt lat="44.53425" lon="2.71068">
        <ele>493</ele>
        <time>2018-05-04T10:15:14Z</time>
      </trkpt>
      <trkpt lat="44.53434" lon="2.71077">
        <ele>493</ele>
        <time>2018-05-04T10:15:25Z</time>
      </trkpt>
      <trkpt lat="44.53463" lon="2.71088">
        <ele>490</ele>
        <time>2018-05-04T10:15:52Z</time>
      </trkpt>
      <trkpt lat="44.53472" lon="2.7109">
        <ele>489</ele>
        <time>2018-05-04T10:16:00Z</time>
      </trkpt>
      <trkpt lat="44.53502" lon="2.71085">
        <ele>488</ele>
        <time>2018-05-04T10:16:24Z</time>
      </trkpt>
      <trkpt lat="44.53543" lon="2.71088">
        <ele>485</ele>
        <time>2018-05-04T10:16:58Z</time>
      </trkpt>
      <trkpt lat="44.53564" lon="2.71085">
        <ele>484</ele>
        <time>2018-05-04T10:17:18Z</time>
      </trkpt>
      <trkpt lat="44.53572" lon="2.71087">
        <ele>484</ele>
        <time>2018-05-04T10:17:46Z</time>
      </trkpt>
      <trkpt lat="44.53577" lon="2.71089">
        <ele>483</ele>
        <time>2018-05-04T10:18:04Z</time>
      </trkpt>
      <trkpt lat="44.53582" lon="2.71089">
        <ele>482</ele>
        <time>2018-05-04T10:19:18Z</time>
      </trkpt>
      <trkpt lat="44.53583" lon="2.71082">
        <ele>482</ele>
        <time>2018-05-04T10:19:30Z</time>
      </trkpt>
      <trkpt lat="44.53588" lon="2.71089">
        <ele>483</ele>
        <time>2018-05-04T10:20:48Z</time>
      </trkpt>
      <trkpt lat="44.53592" lon="2.71091">
        <ele>483</ele>
        <time>2018-05-04T10:20:52Z</time>
      </trkpt>
      <trkpt lat="44.53597" lon="2.71089">
        <ele>483</ele>
        <time>2018-05-04T10:20:56Z</time>
      </trkpt>
      <trkpt lat="44.53602" lon="2.71088">
        <ele>483</ele>
        <time>2018-05-04T10:20:59Z</time>
      </trkpt>
      <trkpt lat="44.53607" lon="2.71088">
        <ele>482</ele>
        <time>2018-05-04T10:21:03Z</time>
      </trkpt>
      <trkpt lat="44.53612" lon="2.7109">
        <ele>482</ele>
        <time>2018-05-04T10:21:08Z</time>
      </trkpt>
      <trkpt lat="44.53642" lon="2.71093">
        <ele>483</ele>
        <time>2018-05-04T10:21:35Z</time>
      </trkpt>
      <trkpt lat="44.53647" lon="2.71092">
        <ele>483</ele>
        <time>2018-05-04T10:21:40Z</time>
      </trkpt>
      <trkpt lat="44.53657" lon="2.71091">
        <ele>484</ele>
        <time>2018-05-04T10:21:48Z</time>
      </trkpt>
      <trkpt lat="44.53668" lon="2.71092">
        <ele>485</ele>
        <time>2018-05-04T10:21:56Z</time>
      </trkpt>
      <trkpt lat="44.53673" lon="2.7109">
        <ele>485</ele>
        <time>2018-05-04T10:22:01Z</time>
      </trkpt>
      <trkpt lat="44.5368" lon="2.71093">
        <ele>486</ele>
        <time>2018-05-04T10:22:07Z</time>
      </trkpt>
      <trkpt lat="44.53684" lon="2.71098">
        <ele>486</ele>
        <time>2018-05-04T10:22:11Z</time>
      </trkpt>
      <trkpt lat="44.53706" lon="2.71114">
        <ele>488</ele>
        <time>2018-05-04T10:22:34Z</time>
      </trkpt>
      <trkpt lat="44.53726" lon="2.71123">
        <ele>491</ele>
        <time>2018-05-04T10:22:55Z</time>
      </trkpt>
      <trkpt lat="44.53737" lon="2.71124">
        <ele>492</ele>
        <time>2018-05-04T10:23:14Z</time>
      </trkpt>
      <trkpt lat="44.53742" lon="2.71127">
        <ele>492</ele>
        <time>2018-05-04T10:23:18Z</time>
      </trkpt>
      <trkpt lat="44.53757" lon="2.71126">
        <ele>493</ele>
        <time>2018-05-04T10:23:32Z</time>
      </trkpt>
      <trkpt lat="44.53767" lon="2.71124">
        <ele>494</ele>
        <time>2018-05-04T10:23:42Z</time>
      </trkpt>
      <trkpt lat="44.53774" lon="2.71119">
        <ele>494</ele>
        <time>2018-05-04T10:24:12Z</time>
      </trkpt>
      <trkpt lat="44.53784" lon="2.71115">
        <ele>495</ele>
        <time>2018-05-04T10:24:21Z</time>
      </trkpt>
      <trkpt lat="44.53799" lon="2.71105">
        <ele>494</ele>
        <time>2018-05-04T10:24:34Z</time>
      </trkpt>
      <trkpt lat="44.53828" lon="2.71068">
        <ele>492</ele>
        <time>2018-05-04T10:25:06Z</time>
      </trkpt>
      <trkpt lat="44.53833" lon="2.71064">
        <ele>492</ele>
        <time>2018-05-04T10:25:10Z</time>
      </trkpt>
      <trkpt lat="44.53836" lon="2.7106">
        <ele>491</ele>
        <time>2018-05-04T10:25:14Z</time>
      </trkpt>
      <trkpt lat="44.53845" lon="2.71053">
        <ele>491</ele>
        <time>2018-05-04T10:25:22Z</time>
      </trkpt>
      <trkpt lat="44.53856" lon="2.71034">
        <ele>490</ele>
        <time>2018-05-04T10:25:39Z</time>
      </trkpt>
      <trkpt lat="44.53908" lon="2.70986">
        <ele>485</ele>
        <time>2018-05-04T10:26:36Z</time>
      </trkpt>
      <trkpt lat="44.53911" lon="2.7098">
        <ele>485</ele>
        <time>2018-05-04T10:26:40Z</time>
      </trkpt>
      <trkpt lat="44.53923" lon="2.70963">
        <ele>483</ele>
        <time>2018-05-04T10:26:54Z</time>
      </trkpt>
      <trkpt lat="44.53941" lon="2.70927">
        <ele>481</ele>
        <time>2018-05-04T10:27:19Z</time>
      </trkpt>
      <trkpt lat="44.5395" lon="2.709">
        <ele>479</ele>
        <time>2018-05-04T10:27:37Z</time>
      </trkpt>
      <trkpt lat="44.5395" lon="2.70864">
        <ele>476</ele>
        <time>2018-05-04T10:27:59Z</time>
      </trkpt>
      <trkpt lat="44.53958" lon="2.70824">
        <ele>471</ele>
        <time>2018-05-04T10:28:30Z</time>
      </trkpt>
      <trkpt lat="44.53958" lon="2.70809">
        <ele>469</ele>
        <time>2018-05-04T10:28:38Z</time>
      </trkpt>
      <trkpt lat="44.53958" lon="2.70797">
        <ele>467</ele>
        <time>2018-05-04T10:28:48Z</time>
      </trkpt>
      <trkpt lat="44.53961" lon="2.70791">
        <ele>466</ele>
        <time>2018-05-04T10:28:53Z</time>
      </trkpt>
      <trkpt lat="44.53972" lon="2.70791">
        <ele>463</ele>
        <time>2018-05-04T10:29:05Z</time>
      </trkpt>
      <trkpt lat="44.53998" lon="2.70803">
        <ele>459</ele>
        <time>2018-05-04T10:29:39Z</time>
      </trkpt>
      <trkpt lat="44.54029" lon="2.70844">
        <ele>451</ele>
        <time>2018-05-04T10:30:19Z</time>
      </trkpt>
      <trkpt lat="44.54033" lon="2.70853">
        <ele>450</ele>
        <time>2018-05-04T10:30:27Z</time>
      </trkpt>
      <trkpt lat="44.5405" lon="2.70879">
        <ele>442</ele>
        <time>2018-05-04T10:31:00Z</time>
      </trkpt>
      <trkpt lat="44.54052" lon="2.70885">
        <ele>441</ele>
        <time>2018-05-04T10:31:05Z</time>
      </trkpt>
      <trkpt lat="44.54055" lon="2.7089">
        <ele>440</ele>
        <time>2018-05-04T10:31:09Z</time>
      </trkpt>
      <trkpt lat="44.54057" lon="2.70897">
        <ele>439</ele>
        <time>2018-05-04T10:31:14Z</time>
      </trkpt>
      <trkpt lat="44.54067" lon="2.70924">
        <ele>436</ele>
        <time>2018-05-04T10:31:32Z</time>
      </trkpt>
      <trkpt lat="44.54072" lon="2.70953">
        <ele>434</ele>
        <time>2018-05-04T10:31:52Z</time>
      </trkpt>
      <trkpt lat="44.5407" lon="2.70965">
        <ele>434</ele>
        <time>2018-05-04T10:32:01Z</time>
      </trkpt>
      <trkpt lat="44.54073" lon="2.70981">
        <ele>433</ele>
        <time>2018-05-04T10:32:11Z</time>
      </trkpt>
      <trkpt lat="44.54067" lon="2.7098">
        <ele>433</ele>
        <time>2018-05-04T10:32:34Z</time>
      </trkpt>
      <trkpt lat="44.54066" lon="2.70971">
        <ele>432</ele>
        <time>2018-05-04T10:32:42Z</time>
      </trkpt>
      <trkpt lat="44.54067" lon="2.70963">
        <ele>432</ele>
        <time>2018-05-04T10:32:47Z</time>
      </trkpt>
      <trkpt lat="44.54064" lon="2.70957">
        <ele>432</ele>
        <time>2018-05-04T10:32:52Z</time>
      </trkpt>
      <trkpt lat="44.54063" lon="2.70947">
        <ele>431</ele>
        <time>2018-05-04T10:32:59Z</time>
      </trkpt>
      <trkpt lat="44.54066" lon="2.70918">
        <ele>431</ele>
        <time>2018-05-04T10:33:16Z</time>
      </trkpt>
      <trkpt lat="44.54069" lon="2.70912">
        <ele>431</ele>
        <time>2018-05-04T10:33:20Z</time>
      </trkpt>
      <trkpt lat="44.54071" lon="2.70905">
        <ele>431</ele>
        <time>2018-05-04T10:33:27Z</time>
      </trkpt>
      <trkpt lat="44.54093" lon="2.70868">
        <ele>426</ele>
        <time>2018-05-04T10:33:50Z</time>
      </trkpt>
      <trkpt lat="44.541" lon="2.70829">
        <ele>422</ele>
        <time>2018-05-04T10:34:11Z</time>
      </trkpt>
      <trkpt lat="44.54097" lon="2.70801">
        <ele>418</ele>
        <time>2018-05-04T10:34:54Z</time>
      </trkpt>
      <trkpt lat="44.54093" lon="2.70788">
        <ele>417</ele>
        <time>2018-05-04T10:35:30Z</time>
      </trkpt>
      <trkpt lat="44.54092" lon="2.70773">
        <ele>415</ele>
        <time>2018-05-04T10:35:54Z</time>
      </trkpt>
      <trkpt lat="44.54087" lon="2.70761">
        <ele>414</ele>
        <time>2018-05-04T10:36:30Z</time>
      </trkpt>
      <trkpt lat="44.54084" lon="2.70748">
        <ele>413</ele>
        <time>2018-05-04T10:37:24Z</time>
      </trkpt>
      <trkpt lat="44.54075" lon="2.70739">
        <ele>411</ele>
        <time>2018-05-04T10:38:00Z</time>
      </trkpt>
      <trkpt lat="44.54071" lon="2.70726">
        <ele>410</ele>
        <time>2018-05-04T10:38:24Z</time>
      </trkpt>
      <trkpt lat="44.54069" lon="2.70702">
        <ele>408</ele>
        <time>2018-05-04T10:38:45Z</time>
      </trkpt>
      <trkpt lat="44.54071" lon="2.70695">
        <ele>408</ele>
        <time>2018-05-04T10:38:49Z</time>
      </trkpt>
      <trkpt lat="44.54071" lon="2.70688">
        <ele>407</ele>
        <time>2018-05-04T10:38:54Z</time>
      </trkpt>
      <trkpt lat="44.54061" lon="2.70611">
        <ele>399</ele>
        <time>2018-05-04T10:39:41Z</time>
      </trkpt>
      <trkpt lat="44.54062" lon="2.70599">
        <ele>397</ele>
        <time>2018-05-04T10:39:52Z</time>
      </trkpt>
      <trkpt lat="44.5406" lon="2.70593">
        <ele>396</ele>
        <time>2018-05-04T10:39:57Z</time>
      </trkpt>
      <trkpt lat="44.54058" lon="2.70586">
        <ele>396</ele>
        <time>2018-05-04T10:40:05Z</time>
      </trkpt>
      <trkpt lat="44.54064" lon="2.70586">
        <ele>395</ele>
        <time>2018-05-04T10:40:15Z</time>
      </trkpt>
      <trkpt lat="44.54071" lon="2.70589">
        <ele>394</ele>
        <time>2018-05-04T10:40:42Z</time>
      </trkpt>
      <trkpt lat="44.54077" lon="2.70586">
        <ele>394</ele>
        <time>2018-05-04T10:40:46Z</time>
      </trkpt>
      <trkpt lat="44.54081" lon="2.70583">
        <ele>393</ele>
        <time>2018-05-04T10:40:49Z</time>
      </trkpt>
      <trkpt lat="44.54086" lon="2.70571">
        <ele>392</ele>
        <time>2018-05-04T10:40:56Z</time>
      </trkpt>
      <trkpt lat="44.5409" lon="2.70558">
        <ele>390</ele>
        <time>2018-05-04T10:41:04Z</time>
      </trkpt>
      <trkpt lat="44.54096" lon="2.70555">
        <ele>390</ele>
        <time>2018-05-04T10:41:24Z</time>
      </trkpt>
      <trkpt lat="44.54115" lon="2.70555">
        <ele>387</ele>
        <time>2018-05-04T10:41:48Z</time>
      </trkpt>
      <trkpt lat="44.54121" lon="2.70552">
        <ele>387</ele>
        <time>2018-05-04T10:42:08Z</time>
      </trkpt>
      <trkpt lat="44.5413" lon="2.70511">
        <ele>382</ele>
        <time>2018-05-04T10:42:35Z</time>
      </trkpt>
      <trkpt lat="44.5413" lon="2.70494">
        <ele>381</ele>
        <time>2018-05-04T10:42:53Z</time>
      </trkpt>
      <trkpt lat="44.5414" lon="2.70438">
        <ele>378</ele>
        <time>2018-05-04T10:43:25Z</time>
      </trkpt>
      <trkpt lat="44.5414" lon="2.70431">
        <ele>377</ele>
        <time>2018-05-04T10:43:29Z</time>
      </trkpt>
      <trkpt lat="44.54153" lon="2.70379">
        <ele>376</ele>
        <time>2018-05-04T10:44:01Z</time>
      </trkpt>
      <trkpt lat="44.5416" lon="2.70369">
        <ele>376</ele>
        <time>2018-05-04T10:44:11Z</time>
      </trkpt>
      <trkpt lat="44.54154" lon="2.70366">
        <ele>376</ele>
        <time>2018-05-04T10:44:47Z</time>
      </trkpt>
      <trkpt lat="44.54163" lon="2.70348">
        <ele>375</ele>
        <time>2018-05-04T10:45:21Z</time>
      </trkpt>
      <trkpt lat="44.54164" lon="2.70342">
        <ele>375</ele>
        <time>2018-05-04T10:45:25Z</time>
      </trkpt>
      <trkpt lat="44.54172" lon="2.70326">
        <ele>374</ele>
        <time>2018-05-04T10:45:38Z</time>
      </trkpt>
      <trkpt lat="44.54177" lon="2.70326">
        <ele>373</ele>
        <time>2018-05-04T10:46:05Z</time>
      </trkpt>
      <trkpt lat="44.54184" lon="2.70331">
        <ele>374</ele>
        <time>2018-05-04T10:46:27Z</time>
      </trkpt>
      <trkpt lat="44.54187" lon="2.70337">
        <ele>374</ele>
        <time>2018-05-04T10:46:33Z</time>
      </trkpt>
      <trkpt lat="44.54179" lon="2.70333">
        <ele>372</ele>
        <time>2018-05-04T10:48:17Z</time>
      </trkpt>
      <trkpt lat="44.54174" lon="2.70333">
        <ele>372</ele>
        <time>2018-05-04T10:48:21Z</time>
      </trkpt>
      <trkpt lat="44.54171" lon="2.70338">
        <ele>372</ele>
        <time>2018-05-04T10:48:25Z</time>
      </trkpt>
      <trkpt lat="44.5417" lon="2.70344">
        <ele>372</ele>
        <time>2018-05-04T10:48:29Z</time>
      </trkpt>
      <trkpt lat="44.54164" lon="2.70356">
        <ele>373</ele>
        <time>2018-05-04T10:48:39Z</time>
      </trkpt>
      <trkpt lat="44.54155" lon="2.70372">
        <ele>373</ele>
        <time>2018-05-04T10:48:51Z</time>
      </trkpt>
      <trkpt lat="44.5415" lon="2.70375">
        <ele>373</ele>
        <time>2018-05-04T10:48:55Z</time>
      </trkpt>
      <trkpt lat="44.54145" lon="2.70375">
        <ele>373</ele>
        <time>2018-05-04T10:48:59Z</time>
      </trkpt>
      <trkpt lat="44.5413" lon="2.70373">
        <ele>372</ele>
        <time>2018-05-04T10:49:10Z</time>
      </trkpt>
      <trkpt lat="44.54125" lon="2.70375">
        <ele>372</ele>
        <time>2018-05-04T10:49:14Z</time>
      </trkpt>
      <trkpt lat="44.54085" lon="2.70375">
        <ele>370</ele>
        <time>2018-05-04T10:49:46Z</time>
      </trkpt>
      <trkpt lat="44.54065" lon="2.70372">
        <ele>370</ele>
        <time>2018-05-04T10:50:02Z</time>
      </trkpt>
      <trkpt lat="44.5406" lon="2.70372">
        <ele>369</ele>
        <time>2018-05-04T10:50:06Z</time>
      </trkpt>
      <trkpt lat="44.54055" lon="2.70372">
        <ele>369</ele>
        <time>2018-05-04T10:50:10Z</time>
      </trkpt>
      <trkpt lat="44.5402" lon="2.7037">
        <ele>366</ele>
        <time>2018-05-04T10:50:39Z</time>
      </trkpt>
      <trkpt lat="44.53982" lon="2.70356">
        <ele>362</ele>
        <time>2018-05-04T10:51:10Z</time>
      </trkpt>
      <trkpt lat="44.53958" lon="2.70334">
        <ele>359</ele>
        <time>2018-05-04T10:51:36Z</time>
      </trkpt>
      <trkpt lat="44.53942" lon="2.70313">
        <ele>357</ele>
        <time>2018-05-04T10:51:54Z</time>
      </trkpt>
      <trkpt lat="44.53939" lon="2.70307">
        <ele>357</ele>
        <time>2018-05-04T10:51:59Z</time>
      </trkpt>
      <trkpt lat="44.53949" lon="2.70248">
        <ele>358</ele>
        <time>2018-05-04T10:52:41Z</time>
      </trkpt>
      <trkpt lat="44.53948" lon="2.70241">
        <ele>359</ele>
        <time>2018-05-04T10:52:45Z</time>
      </trkpt>
      <trkpt lat="44.53934" lon="2.70209">
        <ele>361</ele>
        <time>2018-05-04T10:53:06Z</time>
      </trkpt>
      <trkpt lat="44.53909" lon="2.70169">
        <ele>364</ele>
        <time>2018-05-04T10:53:39Z</time>
      </trkpt>
      <trkpt lat="44.53903" lon="2.70164">
        <ele>364</ele>
        <time>2018-05-04T10:53:47Z</time>
      </trkpt>
      <trkpt lat="44.53887" lon="2.70145">
        <ele>364</ele>
        <time>2018-05-04T10:54:03Z</time>
      </trkpt>
      <trkpt lat="44.53867" lon="2.70125">
        <ele>363</ele>
        <time>2018-05-04T10:54:23Z</time>
      </trkpt>
      <trkpt lat="44.53863" lon="2.70122">
        <ele>363</ele>
        <time>2018-05-04T10:54:27Z</time>
      </trkpt>
      <trkpt lat="44.53859" lon="2.70118">
        <ele>363</ele>
        <time>2018-05-04T10:54:31Z</time>
      </trkpt>
      <trkpt lat="44.53856" lon="2.70109">
        <ele>362</ele>
        <time>2018-05-04T10:54:37Z</time>
      </trkpt>
      <trkpt lat="44.53846" lon="2.70094">
        <ele>362</ele>
        <time>2018-05-04T10:54:48Z</time>
      </trkpt>
      <trkpt lat="44.53833" lon="2.70081">
        <ele>362</ele>
        <time>2018-05-04T10:55:00Z</time>
      </trkpt>
      <trkpt lat="44.5383" lon="2.70076">
        <ele>362</ele>
        <time>2018-05-04T10:55:04Z</time>
      </trkpt>
      <trkpt lat="44.53826" lon="2.70071">
        <ele>362</ele>
        <time>2018-05-04T10:55:09Z</time>
      </trkpt>
      <trkpt lat="44.53824" lon="2.70065">
        <ele>362</ele>
        <time>2018-05-04T10:55:13Z</time>
      </trkpt>
      <trkpt lat="44.53824" lon="2.70058">
        <ele>361</ele>
        <time>2018-05-04T10:55:17Z</time>
      </trkpt>
      <trkpt lat="44.53828" lon="2.70044">
        <ele>361</ele>
        <time>2018-05-04T10:55:26Z</time>
      </trkpt>
      <trkpt lat="44.54025" lon="2.69532">
        <ele>352</ele>
        <time>2018-05-04T11:02:05Z</time>
      </trkpt>
      <trkpt lat="44.5403" lon="2.69521">
        <ele>352</ele>
        <time>2018-05-04T11:02:13Z</time>
      </trkpt>
      <trkpt lat="44.54034" lon="2.69509">
        <ele>351</ele>
        <time>2018-05-04T11:02:21Z</time>
      </trkpt>
      <trkpt lat="44.54037" lon="2.69503">
        <ele>351</ele>
        <time>2018-05-04T11:02:26Z</time>
      </trkpt>
      <trkpt lat="44.54073" lon="2.69187">
        <ele>344</ele>
        <time>2018-05-04T11:05:33Z</time>
      </trkpt>
      <trkpt lat="44.5407" lon="2.69173">
        <ele>344</ele>
        <time>2018-05-04T11:05:41Z</time>
      </trkpt>
      <trkpt lat="44.54067" lon="2.69168">
        <ele>344</ele>
        <time>2018-05-04T11:05:45Z</time>
      </trkpt>
      <trkpt lat="44.54039" lon="2.69131">
        <ele>344</ele>
        <time>2018-05-04T11:06:17Z</time>
      </trkpt>
      <trkpt lat="44.54005" lon="2.69098">
        <ele>343</ele>
        <time>2018-05-04T11:06:49Z</time>
      </trkpt>
      <trkpt lat="44.53967" lon="2.69073">
        <ele>342</ele>
        <time>2018-05-04T11:07:21Z</time>
      </trkpt>
      <trkpt lat="44.53877" lon="2.69023">
        <ele>343</ele>
        <time>2018-05-04T11:08:38Z</time>
      </trkpt>
      <trkpt lat="44.53873" lon="2.6902">
        <ele>343</ele>
        <time>2018-05-04T11:08:42Z</time>
      </trkpt>
      <trkpt lat="44.53835" lon="2.68995">
        <ele>345</ele>
        <time>2018-05-04T11:09:21Z</time>
      </trkpt>
      <trkpt lat="44.53825" lon="2.68991">
        <ele>345</ele>
        <time>2018-05-04T11:09:29Z</time>
      </trkpt>
      <trkpt lat="44.5379" lon="2.68971">
        <ele>345</ele>
        <time>2018-05-04T11:10:02Z</time>
      </trkpt>
      <trkpt lat="44.53773" lon="2.6896">
        <ele>346</ele>
        <time>2018-05-04T11:10:18Z</time>
      </trkpt>
      <trkpt lat="44.53762" lon="2.68948">
        <ele>346</ele>
        <time>2018-05-04T11:10:30Z</time>
      </trkpt>
      <trkpt lat="44.5376" lon="2.68942">
        <ele>346</ele>
        <time>2018-05-04T11:10:34Z</time>
      </trkpt>
      <trkpt lat="44.53761" lon="2.68935">
        <ele>347</ele>
        <time>2018-05-04T11:10:38Z</time>
      </trkpt>
      <trkpt lat="44.5386" lon="2.68761">
        <ele>345</ele>
        <time>2018-05-04T11:12:46Z</time>
      </trkpt>
      <trkpt lat="44.53872" lon="2.68749">
        <ele>345</ele>
        <time>2018-05-04T11:12:59Z</time>
      </trkpt>
      <trkpt lat="44.54018" lon="2.68639">
        <ele>343</ele>
        <time>2018-05-04T11:15:08Z</time>
      </trkpt>
      <trkpt lat="44.54041" lon="2.68611">
        <ele>344</ele>
        <time>2018-05-04T11:15:34Z</time>
      </trkpt>
      <trkpt lat="44.54082" lon="2.68543">
        <ele>344</ele>
        <time>2018-05-04T11:16:26Z</time>
      </trkpt>
      <trkpt lat="44.54089" lon="2.68535">
        <ele>344</ele>
        <time>2018-05-04T11:16:34Z</time>
      </trkpt>
      <trkpt lat="44.54097" lon="2.68526">
        <ele>343</ele>
        <time>2018-05-04T11:16:43Z</time>
      </trkpt>
      <trkpt lat="44.54123" lon="2.68474">
        <ele>341</ele>
        <time>2018-05-04T11:17:20Z</time>
      </trkpt>
      <trkpt lat="44.54189" lon="2.68408">
        <ele>339</ele>
        <time>2018-05-04T11:18:28Z</time>
      </trkpt>
      <trkpt lat="44.54194" lon="2.68406">
        <ele>338</ele>
        <time>2018-05-04T11:18:33Z</time>
      </trkpt>
      <trkpt lat="44.54223" lon="2.68367">
        <ele>337</ele>
        <time>2018-05-04T11:19:36Z</time>
      </trkpt>
      <trkpt lat="44.5424" lon="2.6834">
        <ele>337</ele>
        <time>2018-05-04T11:19:59Z</time>
      </trkpt>
      <trkpt lat="44.54242" lon="2.68335">
        <ele>338</ele>
        <time>2018-05-04T11:20:03Z</time>
      </trkpt>
      <trkpt lat="44.54245" lon="2.68321">
        <ele>338</ele>
        <time>2018-05-04T11:20:11Z</time>
      </trkpt>
      <trkpt lat="44.54245" lon="2.68313">
        <ele>338</ele>
        <time>2018-05-04T11:20:15Z</time>
      </trkpt>
      <trkpt lat="44.54247" lon="2.68308">
        <ele>338</ele>
        <time>2018-05-04T11:20:20Z</time>
      </trkpt>
      <trkpt lat="44.54256" lon="2.68301">
        <ele>338</ele>
        <time>2018-05-04T11:20:37Z</time>
      </trkpt>
      <trkpt lat="44.5431" lon="2.68313">
        <ele>334</ele>
        <time>2018-05-04T11:21:26Z</time>
      </trkpt>
      <trkpt lat="44.54311" lon="2.68322">
        <ele>333</ele>
        <time>2018-05-04T11:22:37Z</time>
      </trkpt>
      <trkpt lat="44.54309" lon="2.68329">
        <ele>334</ele>
        <time>2018-05-04T11:22:41Z</time>
      </trkpt>
      <trkpt lat="44.54303" lon="2.68347">
        <ele>333</ele>
        <time>2018-05-04T11:22:53Z</time>
      </trkpt>
      <trkpt lat="44.54306" lon="2.68342">
        <ele>333</ele>
        <time>2018-05-04T11:23:19Z</time>
      </trkpt>
      <trkpt lat="44.54312" lon="2.68316">
        <ele>333</ele>
        <time>2018-05-04T11:23:36Z</time>
      </trkpt>
      <trkpt lat="44.54314" lon="2.68302">
        <ele>333</ele>
        <time>2018-05-04T11:23:45Z</time>
      </trkpt>
      <trkpt lat="44.54325" lon="2.68263">
        <ele>331</ele>
        <time>2018-05-04T11:24:11Z</time>
      </trkpt>
      <trkpt lat="44.54325" lon="2.68231">
        <ele>328</ele>
        <time>2018-05-04T11:24:39Z</time>
      </trkpt>
      <trkpt lat="44.54321" lon="2.68203">
        <ele>326</ele>
        <time>2018-05-04T11:24:56Z</time>
      </trkpt>
      <trkpt lat="44.54321" lon="2.6819">
        <ele>324</ele>
        <time>2018-05-04T11:25:04Z</time>
      </trkpt>
      <trkpt lat="44.54322" lon="2.68176">
        <ele>323</ele>
        <time>2018-05-04T11:25:12Z</time>
      </trkpt>
      <trkpt lat="44.54325" lon="2.6817">
        <ele>323</ele>
        <time>2018-05-04T11:25:16Z</time>
      </trkpt>
      <trkpt lat="44.54328" lon="2.6815">
        <ele>321</ele>
        <time>2018-05-04T11:25:34Z</time>
      </trkpt>
      <trkpt lat="44.54323" lon="2.68144">
        <ele>320</ele>
        <time>2018-05-04T11:25:42Z</time>
      </trkpt>
      <trkpt lat="44.54314" lon="2.68139">
        <ele>320</ele>
        <time>2018-05-04T11:25:49Z</time>
      </trkpt>
      <trkpt lat="44.5431" lon="2.68134">
        <ele>320</ele>
        <time>2018-05-04T11:25:53Z</time>
      </trkpt>
      <trkpt lat="44.54308" lon="2.68128">
        <ele>320</ele>
        <time>2018-05-04T11:25:57Z</time>
      </trkpt>
      <trkpt lat="44.54307" lon="2.68122">
        <ele>320</ele>
        <time>2018-05-04T11:26:12Z</time>
      </trkpt>
      <trkpt lat="44.54313" lon="2.68135">
        <ele>321</ele>
        <time>2018-05-04T11:36:17Z</time>
      </trkpt>
      <trkpt lat="44.54314" lon="2.68128">
        <ele>322</ele>
        <time>2018-05-04T11:51:22Z</time>
      </trkpt>
      <trkpt lat="44.54309" lon="2.68127">
        <ele>322</ele>
        <time>2018-05-04T11:51:47Z</time>
      </trkpt>
      <trkpt lat="44.54295" lon="2.68121">
        <ele>322</ele>
        <time>2018-05-04T11:52:00Z</time>
      </trkpt>
      <trkpt lat="44.5429" lon="2.68117">
        <ele>321</ele>
        <time>2018-05-04T11:52:07Z</time>
      </trkpt>
      <trkpt lat="44.54281" lon="2.68117">
        <ele>323</ele>
        <time>2018-05-04T11:52:48Z</time>
      </trkpt>
      <trkpt lat="44.54276" lon="2.68122">
        <ele>323</ele>
        <time>2018-05-04T11:53:00Z</time>
      </trkpt>
      <trkpt lat="44.54271" lon="2.68122">
        <ele>326</ele>
        <time>2018-05-04T11:53:18Z</time>
      </trkpt>
      <trkpt lat="44.54265" lon="2.68124">
        <ele>322</ele>
        <time>2018-05-04T11:55:23Z</time>
      </trkpt>
      <trkpt lat="44.54266" lon="2.68113">
        <ele>322</ele>
        <time>2018-05-04T11:55:58Z</time>
      </trkpt>
      <trkpt lat="44.54267" lon="2.68107">
        <ele>321</ele>
        <time>2018-05-04T11:56:02Z</time>
      </trkpt>
      <trkpt lat="44.54272" lon="2.68063">
        <ele>322</ele>
        <time>2018-05-04T11:56:56Z</time>
      </trkpt>
      <trkpt lat="44.54271" lon="2.68053">
        <ele>322</ele>
        <time>2018-05-04T11:57:08Z</time>
      </trkpt>
      <trkpt lat="44.54272" lon="2.68047">
        <ele>322</ele>
        <time>2018-05-04T11:57:26Z</time>
      </trkpt>
      <trkpt lat="44.54268" lon="2.68043">
        <ele>323</ele>
        <time>2018-05-04T11:57:50Z</time>
      </trkpt>
      <trkpt lat="44.54263" lon="2.68045">
        <ele>322</ele>
        <time>2018-05-04T11:58:02Z</time>
      </trkpt>
      <trkpt lat="44.54263" lon="2.68052">
        <ele>322</ele>
        <time>2018-05-04T11:58:09Z</time>
      </trkpt>
      <trkpt lat="44.5427" lon="2.68054">
        <ele>322</ele>
        <time>2018-05-04T11:58:21Z</time>
      </trkpt>
      <trkpt lat="44.54275" lon="2.68056">
        <ele>321</ele>
        <time>2018-05-04T11:58:26Z</time>
      </trkpt>
      <trkpt lat="44.54273" lon="2.68069">
        <ele>322</ele>
        <time>2018-05-04T11:58:46Z</time>
      </trkpt>
      <trkpt lat="44.54272" lon="2.68078">
        <ele>321</ele>
        <time>2018-05-04T11:58:56Z</time>
      </trkpt>
      <trkpt lat="44.54278" lon="2.68084">
        <ele>321</ele>
        <time>2018-05-04T11:59:22Z</time>
      </trkpt>
      <trkpt lat="44.54288" lon="2.68099">
        <ele>320</ele>
        <time>2018-05-04T11:59:46Z</time>
      </trkpt>
      <trkpt lat="44.54291" lon="2.68107">
        <ele>320</ele>
        <time>2018-05-04T11:59:54Z</time>
      </trkpt>
      <trkpt lat="44.54298" lon="2.6811">
        <ele>321</ele>
        <time>2018-05-04T12:00:18Z</time>
      </trkpt>
      <trkpt lat="44.54302" lon="2.68113">
        <ele>321</ele>
        <time>2018-05-04T12:00:22Z</time>
      </trkpt>
      <trkpt lat="44.5431" lon="2.68123">
        <ele>322</ele>
        <time>2018-05-04T12:00:46Z</time>
      </trkpt>
      <trkpt lat="44.54305" lon="2.68124">
        <ele>322</ele>
        <time>2018-05-04T12:02:28Z</time>
      </trkpt>
      <trkpt lat="44.54291" lon="2.68116">
        <ele>321</ele>
        <time>2018-05-04T12:04:09Z</time>
      </trkpt>
      <trkpt lat="44.54289" lon="2.68109">
        <ele>321</ele>
        <time>2018-05-04T12:04:22Z</time>
      </trkpt>
      <trkpt lat="44.54274" lon="2.68082">
        <ele>321</ele>
        <time>2018-05-04T12:04:42Z</time>
      </trkpt>
      <trkpt lat="44.54272" lon="2.68076">
        <ele>321</ele>
        <time>2018-05-04T12:04:46Z</time>
      </trkpt>
      <trkpt lat="44.54274" lon="2.68059">
        <ele>322</ele>
        <time>2018-05-04T12:05:10Z</time>
      </trkpt>
      <trkpt lat="44.54274" lon="2.68053">
        <ele>322</ele>
        <time>2018-05-04T12:05:36Z</time>
      </trkpt>
      <trkpt lat="44.54277" lon="2.6805">
        <ele>320</ele>
        <time>2018-05-04T12:07:20Z</time>
      </trkpt>
      <trkpt lat="44.54285" lon="2.68047">
        <ele>320</ele>
        <time>2018-05-04T12:08:01Z</time>
      </trkpt>
      <trkpt lat="44.54289" lon="2.68046">
        <ele>320</ele>
        <time>2018-05-04T12:08:06Z</time>
      </trkpt>
      <trkpt lat="44.543" lon="2.68049">
        <ele>320</ele>
        <time>2018-05-04T12:08:21Z</time>
      </trkpt>
      <trkpt lat="44.54316" lon="2.68046">
        <ele>319</ele>
        <time>2018-05-04T12:08:35Z</time>
      </trkpt>
      <trkpt lat="44.54326" lon="2.68049">
        <ele>320</ele>
        <time>2018-05-04T12:08:43Z</time>
      </trkpt>
      <trkpt lat="44.54346" lon="2.68064">
        <ele>320</ele>
        <time>2018-05-04T12:09:01Z</time>
      </trkpt>
      <trkpt lat="44.5435" lon="2.6807">
        <ele>320</ele>
        <time>2018-05-04T12:09:05Z</time>
      </trkpt>
      <trkpt lat="44.54359" lon="2.68088">
        <ele>320</ele>
        <time>2018-05-04T12:09:17Z</time>
      </trkpt>
      <trkpt lat="44.54413" lon="2.68155">
        <ele>322</ele>
        <time>2018-05-04T12:10:18Z</time>
      </trkpt>
      <trkpt lat="44.54431" lon="2.68166">
        <ele>322</ele>
        <time>2018-05-04T12:10:36Z</time>
      </trkpt>
      <trkpt lat="44.54464" lon="2.68168">
        <ele>323</ele>
        <time>2018-05-04T12:11:05Z</time>
      </trkpt>
      <trkpt lat="44.54499" lon="2.6816">
        <ele>324</ele>
        <time>2018-05-04T12:11:36Z</time>
      </trkpt>
      <trkpt lat="44.54513" lon="2.68155">
        <ele>325</ele>
        <time>2018-05-04T12:11:49Z</time>
      </trkpt>
      <trkpt lat="44.54529" lon="2.68152">
        <ele>326</ele>
        <time>2018-05-04T12:12:06Z</time>
      </trkpt>
      <trkpt lat="44.54553" lon="2.68157">
        <ele>327</ele>
        <time>2018-05-04T12:12:27Z</time>
      </trkpt>
      <trkpt lat="44.54559" lon="2.68156">
        <ele>327</ele>
        <time>2018-05-04T12:12:36Z</time>
      </trkpt>
      <trkpt lat="44.5459" lon="2.68166">
        <ele>328</ele>
        <time>2018-05-04T12:13:05Z</time>
      </trkpt>
      <trkpt lat="44.54599" lon="2.68166">
        <ele>328</ele>
        <time>2018-05-04T12:13:13Z</time>
      </trkpt>
      <trkpt lat="44.54609" lon="2.68169">
        <ele>328</ele>
        <time>2018-05-04T12:13:21Z</time>
      </trkpt>
      <trkpt lat="44.54613" lon="2.68173">
        <ele>328</ele>
        <time>2018-05-04T12:13:25Z</time>
      </trkpt>
      <trkpt lat="44.5466" lon="2.68288">
        <ele>330</ele>
        <time>2018-05-04T12:14:43Z</time>
      </trkpt>
      <trkpt lat="44.54682" lon="2.68327">
        <ele>329</ele>
        <time>2018-05-04T12:15:14Z</time>
      </trkpt>
      <trkpt lat="44.5469" lon="2.68336">
        <ele>328</ele>
        <time>2018-05-04T12:15:23Z</time>
      </trkpt>
      <trkpt lat="44.54709" lon="2.68383">
        <ele>328</ele>
        <time>2018-05-04T12:15:57Z</time>
      </trkpt>
      <trkpt lat="44.5472" lon="2.68427">
        <ele>328</ele>
        <time>2018-05-04T12:16:28Z</time>
      </trkpt>
      <trkpt lat="44.54726" lon="2.6843">
        <ele>328</ele>
        <time>2018-05-04T12:16:37Z</time>
      </trkpt>
      <trkpt lat="44.54729" lon="2.68434">
        <ele>328</ele>
        <time>2018-05-04T12:16:42Z</time>
      </trkpt>
      <trkpt lat="44.54739" lon="2.6846">
        <ele>334</ele>
        <time>2018-05-04T12:17:39Z</time>
      </trkpt>
      <trkpt lat="44.54746" lon="2.68472">
        <ele>338</ele>
        <time>2018-05-04T12:17:56Z</time>
      </trkpt>
      <trkpt lat="44.54748" lon="2.6848">
        <ele>339</ele>
        <time>2018-05-04T12:18:07Z</time>
      </trkpt>
      <trkpt lat="44.54752" lon="2.68485">
        <ele>339</ele>
        <time>2018-05-04T12:18:13Z</time>
      </trkpt>
      <trkpt lat="44.54753" lon="2.68499">
        <ele>339</ele>
        <time>2018-05-04T12:18:22Z</time>
      </trkpt>
      <trkpt lat="44.54759" lon="2.6851">
        <ele>339</ele>
        <time>2018-05-04T12:18:30Z</time>
      </trkpt>
      <trkpt lat="44.5476" lon="2.68519">
        <ele>340</ele>
        <time>2018-05-04T12:18:36Z</time>
      </trkpt>
      <trkpt lat="44.54764" lon="2.68523">
        <ele>340</ele>
        <time>2018-05-04T12:18:40Z</time>
      </trkpt>
      <trkpt lat="44.54769" lon="2.68535">
        <ele>341</ele>
        <time>2018-05-04T12:18:48Z</time>
      </trkpt>
      <trkpt lat="44.54777" lon="2.68541">
        <ele>342</ele>
        <time>2018-05-04T12:19:05Z</time>
      </trkpt>
      <trkpt lat="44.54786" lon="2.68555">
        <ele>344</ele>
        <time>2018-05-04T12:19:21Z</time>
      </trkpt>
      <trkpt lat="44.54796" lon="2.68581">
        <ele>347</ele>
        <time>2018-05-04T12:19:43Z</time>
      </trkpt>
      <trkpt lat="44.54833" lon="2.68629">
        <ele>354</ele>
        <time>2018-05-04T12:20:36Z</time>
      </trkpt>
      <trkpt lat="44.54842" lon="2.68637">
        <ele>355</ele>
        <time>2018-05-04T12:20:51Z</time>
      </trkpt>
      <trkpt lat="44.54847" lon="2.6864">
        <ele>357</ele>
        <time>2018-05-04T12:21:02Z</time>
      </trkpt>
      <trkpt lat="44.54874" lon="2.68635">
        <ele>361</ele>
        <time>2018-05-04T12:21:37Z</time>
      </trkpt>
      <trkpt lat="44.54884" lon="2.68627">
        <ele>362</ele>
        <time>2018-05-04T12:21:49Z</time>
      </trkpt>
      <trkpt lat="44.54886" lon="2.6862">
        <ele>362</ele>
        <time>2018-05-04T12:21:54Z</time>
      </trkpt>
      <trkpt lat="44.54887" lon="2.68614">
        <ele>362</ele>
        <time>2018-05-04T12:21:58Z</time>
      </trkpt>
      <trkpt lat="44.54887" lon="2.68599">
        <ele>363</ele>
        <time>2018-05-04T12:22:08Z</time>
      </trkpt>
      <trkpt lat="44.54889" lon="2.68584">
        <ele>363</ele>
        <time>2018-05-04T12:22:20Z</time>
      </trkpt>
      <trkpt lat="44.5489" lon="2.68568">
        <ele>362</ele>
        <time>2018-05-04T12:22:29Z</time>
      </trkpt>
      <trkpt lat="44.54886" lon="2.6854">
        <ele>361</ele>
        <time>2018-05-04T12:22:47Z</time>
      </trkpt>
      <trkpt lat="44.5489" lon="2.68506">
        <ele>358</ele>
        <time>2018-05-04T12:23:07Z</time>
      </trkpt>
      <trkpt lat="44.5489" lon="2.68491">
        <ele>356</ele>
        <time>2018-05-04T12:23:17Z</time>
      </trkpt>
      <trkpt lat="44.54896" lon="2.68435">
        <ele>353</ele>
        <time>2018-05-04T12:23:50Z</time>
      </trkpt>
      <trkpt lat="44.54899" lon="2.68429">
        <ele>353</ele>
        <time>2018-05-04T12:23:54Z</time>
      </trkpt>
      <trkpt lat="44.54891" lon="2.68316">
        <ele>348</ele>
        <time>2018-05-04T12:25:02Z</time>
      </trkpt>
      <trkpt lat="44.54888" lon="2.68307">
        <ele>347</ele>
        <time>2018-05-04T12:25:09Z</time>
      </trkpt>
      <trkpt lat="44.54884" lon="2.68271">
        <ele>344</ele>
        <time>2018-05-04T12:25:32Z</time>
      </trkpt>
      <trkpt lat="44.54868" lon="2.68213">
        <ele>341</ele>
        <time>2018-05-04T12:26:07Z</time>
      </trkpt>
      <trkpt lat="44.54865" lon="2.68186">
        <ele>339</ele>
        <time>2018-05-04T12:26:23Z</time>
      </trkpt>
      <trkpt lat="44.54865" lon="2.68178">
        <ele>339</ele>
        <time>2018-05-04T12:26:27Z</time>
      </trkpt>
      <trkpt lat="44.54864" lon="2.68172">
        <ele>339</ele>
        <time>2018-05-04T12:26:31Z</time>
      </trkpt>
      <trkpt lat="44.54851" lon="2.68134">
        <ele>337</ele>
        <time>2018-05-04T12:26:57Z</time>
      </trkpt>
      <trkpt lat="44.5485" lon="2.68127">
        <ele>337</ele>
        <time>2018-05-04T12:27:41Z</time>
      </trkpt>
      <trkpt lat="44.54849" lon="2.6812">
        <ele>336</ele>
        <time>2018-05-04T12:27:46Z</time>
      </trkpt>
      <trkpt lat="44.54847" lon="2.68098">
        <ele>336</ele>
        <time>2018-05-04T12:28:00Z</time>
      </trkpt>
      <trkpt lat="44.54847" lon="2.68092">
        <ele>335</ele>
        <time>2018-05-04T12:28:04Z</time>
      </trkpt>
      <trkpt lat="44.54847" lon="2.68085">
        <ele>335</ele>
        <time>2018-05-04T12:28:08Z</time>
      </trkpt>
      <trkpt lat="44.54848" lon="2.68065">
        <ele>334</ele>
        <time>2018-05-04T12:28:20Z</time>
      </trkpt>
      <trkpt lat="44.5485" lon="2.68059">
        <ele>334</ele>
        <time>2018-05-04T12:28:24Z</time>
      </trkpt>
      <trkpt lat="44.54853" lon="2.68055">
        <ele>333</ele>
        <time>2018-05-04T12:28:29Z</time>
      </trkpt>
      <trkpt lat="44.54856" lon="2.68048">
        <ele>332</ele>
        <time>2018-05-04T12:28:34Z</time>
      </trkpt>
      <trkpt lat="44.54858" lon="2.68035">
        <ele>331</ele>
        <time>2018-05-04T12:28:42Z</time>
      </trkpt>
      <trkpt lat="44.54863" lon="2.68017">
        <ele>329</ele>
        <time>2018-05-04T12:28:56Z</time>
      </trkpt>
      <trkpt lat="44.54865" lon="2.68003">
        <ele>327</ele>
        <time>2018-05-04T12:29:06Z</time>
      </trkpt>
      <trkpt lat="44.54876" lon="2.67974">
        <ele>324</ele>
        <time>2018-05-04T12:29:31Z</time>
      </trkpt>
      <trkpt lat="44.54879" lon="2.67969">
        <ele>323</ele>
        <time>2018-05-04T12:29:36Z</time>
      </trkpt>
      <trkpt lat="44.54884" lon="2.67966">
        <ele>323</ele>
        <time>2018-05-04T12:29:40Z</time>
      </trkpt>
      <trkpt lat="44.54887" lon="2.67961">
        <ele>322</ele>
        <time>2018-05-04T12:29:44Z</time>
      </trkpt>
      <trkpt lat="44.5489" lon="2.67948">
        <ele>322</ele>
        <time>2018-05-04T12:29:52Z</time>
      </trkpt>
      <trkpt lat="44.54892" lon="2.67935">
        <ele>323</ele>
        <time>2018-05-04T12:30:00Z</time>
      </trkpt>
      <trkpt lat="44.54895" lon="2.67922">
        <ele>323</ele>
        <time>2018-05-04T12:30:09Z</time>
      </trkpt>
      <trkpt lat="44.54899" lon="2.67916">
        <ele>323</ele>
        <time>2018-05-04T12:30:13Z</time>
      </trkpt>
      <trkpt lat="44.54902" lon="2.67903">
        <ele>323</ele>
        <time>2018-05-04T12:30:20Z</time>
      </trkpt>
      <trkpt lat="44.54914" lon="2.67885">
        <ele>323</ele>
        <time>2018-05-04T12:30:37Z</time>
      </trkpt>
      <trkpt lat="44.54917" lon="2.67879">
        <ele>322</ele>
        <time>2018-05-04T12:30:42Z</time>
      </trkpt>
      <trkpt lat="44.54931" lon="2.67859">
        <ele>322</ele>
        <time>2018-05-04T12:31:00Z</time>
      </trkpt>
      <trkpt lat="44.54935" lon="2.67855">
        <ele>322</ele>
        <time>2018-05-04T12:31:05Z</time>
      </trkpt>
      <trkpt lat="44.54963" lon="2.67823">
        <ele>322</ele>
        <time>2018-05-04T12:31:36Z</time>
      </trkpt>
      <trkpt lat="44.5502" lon="2.67768">
        <ele>321</ele>
        <time>2018-05-04T12:32:34Z</time>
      </trkpt>
      <trkpt lat="44.55071" lon="2.6769">
        <ele>320</ele>
        <time>2018-05-04T12:33:38Z</time>
      </trkpt>
      <trkpt lat="44.55079" lon="2.67681">
        <ele>320</ele>
        <time>2018-05-04T12:33:46Z</time>
      </trkpt>
      <trkpt lat="44.55083" lon="2.67679">
        <ele>320</ele>
        <time>2018-05-04T12:33:50Z</time>
      </trkpt>
      <trkpt lat="44.55086" lon="2.67671">
        <ele>320</ele>
        <time>2018-05-04T12:34:05Z</time>
      </trkpt>
      <trkpt lat="44.55091" lon="2.67659">
        <ele>320</ele>
        <time>2018-05-04T12:34:13Z</time>
      </trkpt>
      <trkpt lat="44.55097" lon="2.67632">
        <ele>320</ele>
        <time>2018-05-04T12:34:31Z</time>
      </trkpt>
      <trkpt lat="44.55098" lon="2.67612">
        <ele>320</ele>
        <time>2018-05-04T12:34:43Z</time>
      </trkpt>
      <trkpt lat="44.55121" lon="2.67541">
        <ele>320</ele>
        <time>2018-05-04T12:35:29Z</time>
      </trkpt>
      <trkpt lat="44.5516" lon="2.67486">
        <ele>319</ele>
        <time>2018-05-04T12:36:15Z</time>
      </trkpt>
      <trkpt lat="44.55187" lon="2.67457">
        <ele>318</ele>
        <time>2018-05-04T12:36:44Z</time>
      </trkpt>
      <trkpt lat="44.55221" lon="2.6741">
        <ele>318</ele>
        <time>2018-05-04T12:37:27Z</time>
      </trkpt>
      <trkpt lat="44.55224" lon="2.67402">
        <ele>318</ele>
        <time>2018-05-04T12:37:43Z</time>
      </trkpt>
      <trkpt lat="44.55228" lon="2.67396">
        <ele>318</ele>
        <time>2018-05-04T12:37:48Z</time>
      </trkpt>
      <trkpt lat="44.55231" lon="2.67387">
        <ele>318</ele>
        <time>2018-05-04T12:38:05Z</time>
      </trkpt>
      <trkpt lat="44.5524" lon="2.67371">
        <ele>318</ele>
        <time>2018-05-04T12:38:17Z</time>
      </trkpt>
      <trkpt lat="44.55242" lon="2.67358">
        <ele>318</ele>
        <time>2018-05-04T12:38:37Z</time>
      </trkpt>
      <trkpt lat="44.55241" lon="2.6735">
        <ele>319</ele>
        <time>2018-05-04T12:38:54Z</time>
      </trkpt>
      <trkpt lat="44.55242" lon="2.67343">
        <ele>318</ele>
        <time>2018-05-04T12:38:57Z</time>
      </trkpt>
      <trkpt lat="44.55245" lon="2.6733">
        <ele>318</ele>
        <time>2018-05-04T12:39:05Z</time>
      </trkpt>
      <trkpt lat="44.55245" lon="2.67315">
        <ele>318</ele>
        <time>2018-05-04T12:39:16Z</time>
      </trkpt>
      <trkpt lat="44.55248" lon="2.6731">
        <ele>319</ele>
        <time>2018-05-04T12:39:31Z</time>
      </trkpt>
      <trkpt lat="44.55242" lon="2.67222">
        <ele>319</ele>
        <time>2018-05-04T12:42:03Z</time>
      </trkpt>
      <trkpt lat="44.55245" lon="2.67215">
        <ele>319</ele>
        <time>2018-05-04T12:42:08Z</time>
      </trkpt>
      <trkpt lat="44.55249" lon="2.6721">
        <ele>319</ele>
        <time>2018-05-04T12:42:13Z</time>
      </trkpt>
      <trkpt lat="44.55249" lon="2.67203">
        <ele>319</ele>
        <time>2018-05-04T12:42:18Z</time>
      </trkpt>
      <trkpt lat="44.55266" lon="2.67198">
        <ele>319</ele>
        <time>2018-05-04T12:42:39Z</time>
      </trkpt>
      <trkpt lat="44.5527" lon="2.67199">
        <ele>319</ele>
        <time>2018-05-04T12:42:43Z</time>
      </trkpt>
      <trkpt lat="44.55276" lon="2.672">
        <ele>319</ele>
        <time>2018-05-04T12:42:48Z</time>
      </trkpt>
      <trkpt lat="44.55282" lon="2.67199">
        <ele>319</ele>
        <time>2018-05-04T12:43:03Z</time>
      </trkpt>
      <trkpt lat="44.55287" lon="2.67197">
        <ele>319</ele>
        <time>2018-05-04T12:43:08Z</time>
      </trkpt>
      <trkpt lat="44.55292" lon="2.67194">
        <ele>320</ele>
        <time>2018-05-04T12:43:22Z</time>
      </trkpt>
      <trkpt lat="44.55297" lon="2.67194">
        <ele>317</ele>
        <time>2018-05-04T12:46:28Z</time>
      </trkpt>
      <trkpt lat="44.55323" lon="2.67189">
        <ele>317</ele>
        <time>2018-05-04T12:46:53Z</time>
      </trkpt>
      <trkpt lat="44.55332" lon="2.67186">
        <ele>316</ele>
        <time>2018-05-04T12:47:03Z</time>
      </trkpt>
      <trkpt lat="44.55338" lon="2.67187">
        <ele>315</ele>
        <time>2018-05-04T12:47:08Z</time>
      </trkpt>
      <trkpt lat="44.55339" lon="2.67195">
        <ele>315</ele>
        <time>2018-05-04T12:47:17Z</time>
      </trkpt>
      <trkpt lat="44.55342" lon="2.67199">
        <ele>315</ele>
        <time>2018-05-04T12:47:29Z</time>
      </trkpt>
      <trkpt lat="44.55348" lon="2.67207">
        <ele>314</ele>
        <time>2018-05-04T12:47:47Z</time>
      </trkpt>
      <trkpt lat="44.55355" lon="2.67213">
        <ele>314</ele>
        <time>2018-05-04T12:47:58Z</time>
      </trkpt>
      <trkpt lat="44.55361" lon="2.67214">
        <ele>315</ele>
        <time>2018-05-04T12:48:03Z</time>
      </trkpt>
      <trkpt lat="44.55366" lon="2.67212">
        <ele>316</ele>
        <time>2018-05-04T12:48:10Z</time>
      </trkpt>
      <trkpt lat="44.55368" lon="2.67221">
        <ele>316</ele>
        <time>2018-05-04T12:48:32Z</time>
      </trkpt>
      <trkpt lat="44.55373" lon="2.67215">
        <ele>317</ele>
        <time>2018-05-04T12:51:02Z</time>
      </trkpt>
      <trkpt lat="44.5538" lon="2.67215">
        <ele>317</ele>
        <time>2018-05-04T12:52:17Z</time>
      </trkpt>
      <trkpt lat="44.55389" lon="2.67218">
        <ele>317</ele>
        <time>2018-05-04T12:52:26Z</time>
      </trkpt>
      <trkpt lat="44.55399" lon="2.67213">
        <ele>317</ele>
        <time>2018-05-04T12:52:36Z</time>
      </trkpt>
      <trkpt lat="44.55403" lon="2.67204">
        <ele>318</ele>
        <time>2018-05-04T12:52:53Z</time>
      </trkpt>
      <trkpt lat="44.5541" lon="2.67206">
        <ele>319</ele>
        <time>2018-05-04T12:53:12Z</time>
      </trkpt>
      <trkpt lat="44.5542" lon="2.67203">
        <ele>319</ele>
        <time>2018-05-04T12:53:18Z</time>
      </trkpt>
      <trkpt lat="44.55427" lon="2.67206">
        <ele>319</ele>
        <time>2018-05-04T12:53:28Z</time>
      </trkpt>
      <trkpt lat="44.5545" lon="2.67203">
        <ele>320</ele>
        <time>2018-05-04T12:53:50Z</time>
      </trkpt>
      <trkpt lat="44.55455" lon="2.67199">
        <ele>320</ele>
        <time>2018-05-04T12:53:54Z</time>
      </trkpt>
      <trkpt lat="44.55458" lon="2.67195">
        <ele>320</ele>
        <time>2018-05-04T12:53:58Z</time>
      </trkpt>
      <trkpt lat="44.55467" lon="2.67188">
        <ele>320</ele>
        <time>2018-05-04T12:54:07Z</time>
      </trkpt>
      <trkpt lat="44.55474" lon="2.67185">
        <ele>320</ele>
        <time>2018-05-04T12:54:18Z</time>
      </trkpt>
      <trkpt lat="44.55477" lon="2.67191">
        <ele>320</ele>
        <time>2018-05-04T12:54:30Z</time>
      </trkpt>
      <trkpt lat="44.55475" lon="2.672">
        <ele>321</ele>
        <time>2018-05-04T12:54:43Z</time>
      </trkpt>
      <trkpt lat="44.55479" lon="2.67205">
        <ele>321</ele>
        <time>2018-05-04T12:54:54Z</time>
      </trkpt>
      <trkpt lat="44.55479" lon="2.67217">
        <ele>322</ele>
        <time>2018-05-04T12:57:43Z</time>
      </trkpt>
      <trkpt lat="44.55487" lon="2.67216">
        <ele>323</ele>
        <time>2018-05-04T12:58:11Z</time>
      </trkpt>
      <trkpt lat="44.55504" lon="2.67235">
        <ele>323</ele>
        <time>2018-05-04T12:58:24Z</time>
      </trkpt>
      <trkpt lat="44.55515" lon="2.67237">
        <ele>323</ele>
        <time>2018-05-04T12:58:31Z</time>
      </trkpt>
      <trkpt lat="44.55498" lon="2.67224">
        <ele>324</ele>
        <time>2018-05-04T12:59:37Z</time>
      </trkpt>
      <trkpt lat="44.55486" lon="2.6723">
        <ele>323</ele>
        <time>2018-05-04T13:00:00Z</time>
      </trkpt>
      <trkpt lat="44.55479" lon="2.67238">
        <ele>324</ele>
        <time>2018-05-04T13:00:28Z</time>
      </trkpt>
      <trkpt lat="44.55458" lon="2.6725">
        <ele>328</ele>
        <time>2018-05-04T13:00:56Z</time>
      </trkpt>
      <trkpt lat="44.55444" lon="2.67251">
        <ele>326</ele>
        <time>2018-05-04T13:01:12Z</time>
      </trkpt>
      <trkpt lat="44.55424" lon="2.67265">
        <ele>321</ele>
        <time>2018-05-04T13:01:39Z</time>
      </trkpt>
      <trkpt lat="44.55424" lon="2.67248">
        <ele>321</ele>
        <time>2018-05-04T13:01:45Z</time>
      </trkpt>
      <trkpt lat="44.5543" lon="2.6725">
        <ele>323</ele>
        <time>2018-05-04T13:02:07Z</time>
      </trkpt>
      <trkpt lat="44.55433" lon="2.67254">
        <ele>326</ele>
        <time>2018-05-04T13:03:07Z</time>
      </trkpt>
      <trkpt lat="44.55438" lon="2.67251">
        <ele>328</ele>
        <time>2018-05-04T13:03:19Z</time>
      </trkpt>
      <trkpt lat="44.5544" lon="2.6727">
        <ele>328</ele>
        <time>2018-05-04T13:04:55Z</time>
      </trkpt>
      <trkpt lat="44.55448" lon="2.6727">
        <ele>328</ele>
        <time>2018-05-04T13:05:09Z</time>
      </trkpt>
      <trkpt lat="44.55442" lon="2.67252">
        <ele>327</ele>
        <time>2018-05-04T13:07:56Z</time>
      </trkpt>
      <trkpt lat="44.55432" lon="2.67255">
        <ele>327</ele>
        <time>2018-05-04T13:08:01Z</time>
      </trkpt>
      <trkpt lat="44.55432" lon="2.67239">
        <ele>328</ele>
        <time>2018-05-04T13:09:23Z</time>
      </trkpt>
      <trkpt lat="44.55441" lon="2.67248">
        <ele>327</ele>
        <time>2018-05-04T13:09:36Z</time>
      </trkpt>
      <trkpt lat="44.55442" lon="2.6726">
        <ele>327</ele>
        <time>2018-05-04T13:09:44Z</time>
      </trkpt>
      <trkpt lat="44.55435" lon="2.67257">
        <ele>327</ele>
        <time>2018-05-04T13:11:13Z</time>
      </trkpt>
      <trkpt lat="44.55431" lon="2.67254">
        <ele>325</ele>
        <time>2018-05-04T13:13:00Z</time>
      </trkpt>
      <trkpt lat="44.55427" lon="2.67251">
        <ele>323</ele>
        <time>2018-05-04T13:13:24Z</time>
      </trkpt>
      <trkpt lat="44.55421" lon="2.67252">
        <ele>322</ele>
        <time>2018-05-04T13:13:29Z</time>
      </trkpt>
      <trkpt lat="44.5542" lon="2.67259">
        <ele>323</ele>
        <time>2018-05-04T13:15:15Z</time>
      </trkpt>
      <trkpt lat="44.55423" lon="2.67257">
        <ele>323</ele>
        <time>2018-05-04T13:15:56Z</time>
      </trkpt>
      <trkpt lat="44.55423" lon="2.67248">
        <ele>323</ele>
        <time>2018-05-04T13:16:04Z</time>
      </trkpt>
      <trkpt lat="44.55426" lon="2.67243">
        <ele>322</ele>
        <time>2018-05-04T13:16:10Z</time>
      </trkpt>
      <trkpt lat="44.55423" lon="2.67224">
        <ele>320</ele>
        <time>2018-05-04T13:16:29Z</time>
      </trkpt>
      <trkpt lat="44.5542" lon="2.67216">
        <ele>319</ele>
        <time>2018-05-04T13:16:36Z</time>
      </trkpt>
      <trkpt lat="44.55416" lon="2.67213">
        <ele>319</ele>
        <time>2018-05-04T13:16:40Z</time>
      </trkpt>
      <trkpt lat="44.55411" lon="2.67212">
        <ele>319</ele>
        <time>2018-05-04T13:16:45Z</time>
      </trkpt>
      <trkpt lat="44.55406" lon="2.67209">
        <ele>319</ele>
        <time>2018-05-04T13:16:59Z</time>
      </trkpt>
      <trkpt lat="44.55399" lon="2.67209">
        <ele>319</ele>
        <time>2018-05-04T13:17:11Z</time>
      </trkpt>
      <trkpt lat="44.55385" lon="2.67206">
        <ele>318</ele>
        <time>2018-05-04T13:17:25Z</time>
      </trkpt>
      <trkpt lat="44.55378" lon="2.67201">
        <ele>318</ele>
        <time>2018-05-04T13:17:31Z</time>
      </trkpt>
      <trkpt lat="44.55371" lon="2.67208">
        <ele>318</ele>
        <time>2018-05-04T13:17:50Z</time>
      </trkpt>
      <trkpt lat="44.55362" lon="2.67213">
        <ele>317</ele>
        <time>2018-05-04T13:17:55Z</time>
      </trkpt>
      <trkpt lat="44.55352" lon="2.67213">
        <ele>317</ele>
        <time>2018-05-04T13:18:02Z</time>
      </trkpt>
      <trkpt lat="44.55342" lon="2.67208">
        <ele>316</ele>
        <time>2018-05-04T13:18:13Z</time>
      </trkpt>
      <trkpt lat="44.55338" lon="2.6721">
        <ele>317</ele>
        <time>2018-05-04T13:18:18Z</time>
      </trkpt>
      <trkpt lat="44.55336" lon="2.67197">
        <ele>318</ele>
        <time>2018-05-04T13:19:42Z</time>
      </trkpt>
      <trkpt lat="44.55328" lon="2.67188">
        <ele>319</ele>
        <time>2018-05-04T13:19:51Z</time>
      </trkpt>
      <trkpt lat="44.55308" lon="2.67191">
        <ele>320</ele>
        <time>2018-05-04T13:20:44Z</time>
      </trkpt>
      <trkpt lat="44.55262" lon="2.67204">
        <ele>320</ele>
        <time>2018-05-04T13:21:20Z</time>
      </trkpt>
      <trkpt lat="44.55257" lon="2.67204">
        <ele>320</ele>
        <time>2018-05-04T13:21:24Z</time>
      </trkpt>
      <trkpt lat="44.55252" lon="2.67206">
        <ele>320</ele>
        <time>2018-05-04T13:21:29Z</time>
      </trkpt>
      <trkpt lat="44.55249" lon="2.6721">
        <ele>321</ele>
        <time>2018-05-04T13:21:34Z</time>
      </trkpt>
      <trkpt lat="44.55238" lon="2.67218">
        <ele>321</ele>
        <time>2018-05-04T13:21:59Z</time>
      </trkpt>
      <trkpt lat="44.55234" lon="2.67216">
        <ele>321</ele>
        <time>2018-05-04T13:22:23Z</time>
      </trkpt>
      <trkpt lat="44.55228" lon="2.67216">
        <ele>319</ele>
        <time>2018-05-04T13:24:08Z</time>
      </trkpt>
      <trkpt lat="44.55231" lon="2.67209">
        <ele>319</ele>
        <time>2018-05-04T13:30:49Z</time>
      </trkpt>
      <trkpt lat="44.5522" lon="2.67206">
        <ele>320</ele>
        <time>2018-05-04T13:31:27Z</time>
      </trkpt>
      <trkpt lat="44.55215" lon="2.67205">
        <ele>320</ele>
        <time>2018-05-04T13:31:32Z</time>
      </trkpt>
      <trkpt lat="44.55212" lon="2.67199">
        <ele>320</ele>
        <time>2018-05-04T13:31:37Z</time>
      </trkpt>
      <trkpt lat="44.55209" lon="2.67187">
        <ele>320</ele>
        <time>2018-05-04T13:31:44Z</time>
      </trkpt>
      <trkpt lat="44.55201" lon="2.67176">
        <ele>319</ele>
        <time>2018-05-04T13:31:53Z</time>
      </trkpt>
      <trkpt lat="44.55196" lon="2.67163">
        <ele>319</ele>
        <time>2018-05-04T13:32:05Z</time>
      </trkpt>
      <trkpt lat="44.55193" lon="2.67158">
        <ele>319</ele>
        <time>2018-05-04T13:32:10Z</time>
      </trkpt>
      <trkpt lat="44.55132" lon="2.6713">
        <ele>318</ele>
        <time>2018-05-04T13:33:12Z</time>
      </trkpt>
      <trkpt lat="44.55121" lon="2.67128">
        <ele>317</ele>
        <time>2018-05-04T13:33:30Z</time>
      </trkpt>
      <trkpt lat="44.55104" lon="2.67131">
        <ele>317</ele>
        <time>2018-05-04T13:33:52Z</time>
      </trkpt>
      <trkpt lat="44.55099" lon="2.67136">
        <ele>317</ele>
        <time>2018-05-04T13:34:04Z</time>
      </trkpt>
      <trkpt lat="44.55084" lon="2.67135">
        <ele>316</ele>
        <time>2018-05-04T13:34:18Z</time>
      </trkpt>
      <trkpt lat="44.5508" lon="2.67139">
        <ele>316</ele>
        <time>2018-05-04T13:34:22Z</time>
      </trkpt>
      <trkpt lat="44.55059" lon="2.67142">
        <ele>316</ele>
        <time>2018-05-04T13:34:40Z</time>
      </trkpt>
      <trkpt lat="44.55054" lon="2.67142">
        <ele>316</ele>
        <time>2018-05-04T13:34:45Z</time>
      </trkpt>
      <trkpt lat="44.55037" lon="2.67138">
        <ele>315</ele>
        <time>2018-05-04T13:35:12Z</time>
      </trkpt>
      <trkpt lat="44.55024" lon="2.67131">
        <ele>316</ele>
        <time>2018-05-04T13:35:25Z</time>
      </trkpt>
      <trkpt lat="44.54985" lon="2.67141">
        <ele>317</ele>
        <time>2018-05-04T13:35:55Z</time>
      </trkpt>
      <trkpt lat="44.54967" lon="2.67127">
        <ele>320</ele>
        <time>2018-05-04T13:36:22Z</time>
      </trkpt>
      <trkpt lat="44.54959" lon="2.67135">
        <ele>321</ele>
        <time>2018-05-04T13:36:32Z</time>
      </trkpt>
      <trkpt lat="44.54953" lon="2.67146">
        <ele>322</ele>
        <time>2018-05-04T13:36:45Z</time>
      </trkpt>
      <trkpt lat="44.54945" lon="2.67144">
        <ele>323</ele>
        <time>2018-05-04T13:36:52Z</time>
      </trkpt>
      <trkpt lat="44.54937" lon="2.67158">
        <ele>324</ele>
        <time>2018-05-04T13:37:02Z</time>
      </trkpt>
      <trkpt lat="44.54927" lon="2.67157">
        <ele>324</ele>
        <time>2018-05-04T13:37:09Z</time>
      </trkpt>
      <trkpt lat="44.54864" lon="2.67195">
        <ele>324</ele>
        <time>2018-05-04T13:37:28Z</time>
      </trkpt>
      <trkpt lat="44.54834" lon="2.67199">
        <ele>322</ele>
        <time>2018-05-04T13:38:14Z</time>
      </trkpt>
      <trkpt lat="44.54823" lon="2.67189">
        <ele>321</ele>
        <time>2018-05-04T13:38:35Z</time>
      </trkpt>
      <trkpt lat="44.54795" lon="2.67188">
        <ele>321</ele>
        <time>2018-05-04T13:38:56Z</time>
      </trkpt>
      <trkpt lat="44.54779" lon="2.67173">
        <ele>322</ele>
        <time>2018-05-04T13:39:09Z</time>
      </trkpt>
      <trkpt lat="44.54772" lon="2.67161">
        <ele>323</ele>
        <time>2018-05-04T13:39:19Z</time>
      </trkpt>
      <trkpt lat="44.54743" lon="2.67131">
        <ele>327</ele>
        <time>2018-05-04T13:39:58Z</time>
      </trkpt>
      <trkpt lat="44.5473" lon="2.6712">
        <ele>329</ele>
        <time>2018-05-04T13:40:09Z</time>
      </trkpt>
      <trkpt lat="44.54707" lon="2.67086">
        <ele>332</ele>
        <time>2018-05-04T13:40:36Z</time>
      </trkpt>
      <trkpt lat="44.54706" lon="2.67077">
        <ele>332</ele>
        <time>2018-05-04T13:40:42Z</time>
      </trkpt>
      <trkpt lat="44.54702" lon="2.67071">
        <ele>332</ele>
        <time>2018-05-04T13:40:46Z</time>
      </trkpt>
      <trkpt lat="44.54701" lon="2.67064">
        <ele>332</ele>
        <time>2018-05-04T13:40:50Z</time>
      </trkpt>
      <trkpt lat="44.547" lon="2.6705">
        <ele>333</ele>
        <time>2018-05-04T13:41:01Z</time>
      </trkpt>
      <trkpt lat="44.54696" lon="2.67044">
        <ele>333</ele>
        <time>2018-05-04T13:41:06Z</time>
      </trkpt>
      <trkpt lat="44.54703" lon="2.67026">
        <ele>333</ele>
        <time>2018-05-04T13:41:16Z</time>
      </trkpt>
      <trkpt lat="44.54704" lon="2.67019">
        <ele>333</ele>
        <time>2018-05-04T13:41:20Z</time>
      </trkpt>
      <trkpt lat="44.54708" lon="2.67008">
        <ele>333</ele>
        <time>2018-05-04T13:41:26Z</time>
      </trkpt>
      <trkpt lat="44.54708" lon="2.67">
        <ele>333</ele>
        <time>2018-05-04T13:41:30Z</time>
      </trkpt>
      <trkpt lat="44.54706" lon="2.66994">
        <ele>333</ele>
        <time>2018-05-04T13:41:33Z</time>
      </trkpt>
      <trkpt lat="44.54706" lon="2.66985">
        <ele>333</ele>
        <time>2018-05-04T13:41:37Z</time>
      </trkpt>
      <trkpt lat="44.54703" lon="2.66979">
        <ele>332</ele>
        <time>2018-05-04T13:41:42Z</time>
      </trkpt>
      <trkpt lat="44.54701" lon="2.66972">
        <ele>331</ele>
        <time>2018-05-04T13:41:53Z</time>
      </trkpt>
      <trkpt lat="44.54703" lon="2.66953">
        <ele>330</ele>
        <time>2018-05-04T13:42:03Z</time>
      </trkpt>
      <trkpt lat="44.54702" lon="2.66946">
        <ele>329</ele>
        <time>2018-05-04T13:42:07Z</time>
      </trkpt>
      <trkpt lat="44.54704" lon="2.66939">
        <ele>329</ele>
        <time>2018-05-04T13:42:11Z</time>
      </trkpt>
      <trkpt lat="44.54706" lon="2.66899">
        <ele>325</ele>
        <time>2018-05-04T13:42:34Z</time>
      </trkpt>
      <trkpt lat="44.54703" lon="2.66873">
        <ele>323</ele>
        <time>2018-05-04T13:42:48Z</time>
      </trkpt>
      <trkpt lat="44.54705" lon="2.66859">
        <ele>322</ele>
        <time>2018-05-04T13:42:57Z</time>
      </trkpt>
      <trkpt lat="44.54698" lon="2.66846">
        <ele>320</ele>
        <time>2018-05-04T13:43:08Z</time>
      </trkpt>
      <trkpt lat="44.54697" lon="2.66833">
        <ele>319</ele>
        <time>2018-05-04T13:43:16Z</time>
      </trkpt>
      <trkpt lat="44.54692" lon="2.66821">
        <ele>318</ele>
        <time>2018-05-04T13:43:23Z</time>
      </trkpt>
      <trkpt lat="44.54688" lon="2.66779">
        <ele>315</ele>
        <time>2018-05-04T13:43:49Z</time>
      </trkpt>
      <trkpt lat="44.54684" lon="2.66765">
        <ele>314</ele>
        <time>2018-05-04T13:43:58Z</time>
      </trkpt>
      <trkpt lat="44.54681" lon="2.66739">
        <ele>314</ele>
        <time>2018-05-04T13:44:14Z</time>
      </trkpt>
      <trkpt lat="44.5469" lon="2.66713">
        <ele>314</ele>
        <time>2018-05-04T13:44:32Z</time>
      </trkpt>
      <trkpt lat="44.54697" lon="2.66668">
        <ele>315</ele>
        <time>2018-05-04T13:44:58Z</time>
      </trkpt>
      <trkpt lat="44.54695" lon="2.66655">
        <ele>315</ele>
        <time>2018-05-04T13:45:05Z</time>
      </trkpt>
      <trkpt lat="44.54725" lon="2.6664">
        <ele>315</ele>
        <time>2018-05-04T13:45:18Z</time>
      </trkpt>
      <trkpt lat="44.54753" lon="2.666">
        <ele>316</ele>
        <time>2018-05-04T13:45:48Z</time>
      </trkpt>
      <trkpt lat="44.5476" lon="2.66594">
        <ele>316</ele>
        <time>2018-05-04T13:45:58Z</time>
      </trkpt>
      <trkpt lat="44.54779" lon="2.66588">
        <ele>316</ele>
        <time>2018-05-04T13:46:11Z</time>
      </trkpt>
      <trkpt lat="44.54821" lon="2.66596">
        <ele>315</ele>
        <time>2018-05-04T13:46:47Z</time>
      </trkpt>
      <trkpt lat="44.54861" lon="2.66598">
        <ele>314</ele>
        <time>2018-05-04T13:47:21Z</time>
      </trkpt>
      <trkpt lat="44.54881" lon="2.6661">
        <ele>314</ele>
        <time>2018-05-04T13:47:34Z</time>
      </trkpt>
      <trkpt lat="44.54924" lon="2.66606">
        <ele>312</ele>
        <time>2018-05-04T13:48:14Z</time>
      </trkpt>
      <trkpt lat="44.54951" lon="2.66594">
        <ele>312</ele>
        <time>2018-05-04T13:48:41Z</time>
      </trkpt>
      <trkpt lat="44.54961" lon="2.66594">
        <ele>312</ele>
        <time>2018-05-04T13:48:47Z</time>
      </trkpt>
      <trkpt lat="44.54967" lon="2.66584">
        <ele>312</ele>
        <time>2018-05-04T13:48:54Z</time>
      </trkpt>
      <trkpt lat="44.54976" lon="2.66579">
        <ele>312</ele>
        <time>2018-05-04T13:49:00Z</time>
      </trkpt>
      <trkpt lat="44.54986" lon="2.66581">
        <ele>312</ele>
        <time>2018-05-04T13:49:07Z</time>
      </trkpt>
      <trkpt lat="44.54991" lon="2.66569">
        <ele>312</ele>
        <time>2018-05-04T13:49:13Z</time>
      </trkpt>
      <trkpt lat="44.55001" lon="2.66566">
        <ele>312</ele>
        <time>2018-05-04T13:49:20Z</time>
      </trkpt>
      <trkpt lat="44.54998" lon="2.66553">
        <ele>312</ele>
        <time>2018-05-04T13:49:25Z</time>
      </trkpt>
      <trkpt lat="44.55009" lon="2.6655">
        <ele>312</ele>
        <time>2018-05-04T13:49:32Z</time>
      </trkpt>
      <trkpt lat="44.55016" lon="2.66543">
        <ele>311</ele>
        <time>2018-05-04T13:49:41Z</time>
      </trkpt>
      <trkpt lat="44.55027" lon="2.66542">
        <ele>312</ele>
        <time>2018-05-04T13:49:52Z</time>
      </trkpt>
      <trkpt lat="44.55046" lon="2.66536">
        <ele>312</ele>
        <time>2018-05-04T13:50:11Z</time>
      </trkpt>
      <trkpt lat="44.55065" lon="2.66523">
        <ele>312</ele>
        <time>2018-05-04T13:51:04Z</time>
      </trkpt>
      <trkpt lat="44.55071" lon="2.66517">
        <ele>312</ele>
        <time>2018-05-04T13:51:11Z</time>
      </trkpt>
      <trkpt lat="44.55096" lon="2.66507">
        <ele>312</ele>
        <time>2018-05-04T13:51:41Z</time>
      </trkpt>
      <trkpt lat="44.55115" lon="2.66496">
        <ele>313</ele>
        <time>2018-05-04T13:51:53Z</time>
      </trkpt>
      <trkpt lat="44.55123" lon="2.66497">
        <ele>313</ele>
        <time>2018-05-04T13:51:59Z</time>
      </trkpt>
      <trkpt lat="44.55144" lon="2.66489">
        <ele>313</ele>
        <time>2018-05-04T13:52:17Z</time>
      </trkpt>
      <trkpt lat="44.55154" lon="2.66489">
        <ele>313</ele>
        <time>2018-05-04T13:52:25Z</time>
      </trkpt>
      <trkpt lat="44.55172" lon="2.66481">
        <ele>313</ele>
        <time>2018-05-04T13:52:39Z</time>
      </trkpt>
      <trkpt lat="44.55186" lon="2.66464">
        <ele>313</ele>
        <time>2018-05-04T13:52:54Z</time>
      </trkpt>
      <trkpt lat="44.55191" lon="2.6645">
        <ele>313</ele>
        <time>2018-05-04T13:53:04Z</time>
      </trkpt>
      <trkpt lat="44.55197" lon="2.66443">
        <ele>313</ele>
        <time>2018-05-04T13:53:13Z</time>
      </trkpt>
      <trkpt lat="44.55232" lon="2.66419">
        <ele>313</ele>
        <time>2018-05-04T13:53:39Z</time>
      </trkpt>
      <trkpt lat="44.55255" lon="2.66395">
        <ele>313</ele>
        <time>2018-05-04T13:54:02Z</time>
      </trkpt>
      <trkpt lat="44.55273" lon="2.6639">
        <ele>313</ele>
        <time>2018-05-04T13:54:16Z</time>
      </trkpt>
      <trkpt lat="44.55314" lon="2.66355">
        <ele>313</ele>
        <time>2018-05-04T13:54:49Z</time>
      </trkpt>
      <trkpt lat="44.55343" lon="2.66322">
        <ele>313</ele>
        <time>2018-05-04T13:55:18Z</time>
      </trkpt>
      <trkpt lat="44.55353" lon="2.66316">
        <ele>314</ele>
        <time>2018-05-04T13:55:26Z</time>
      </trkpt>
      <trkpt lat="44.55403" lon="2.66276">
        <ele>315</ele>
        <time>2018-05-04T13:56:13Z</time>
      </trkpt>
      <trkpt lat="44.55418" lon="2.66261">
        <ele>316</ele>
        <time>2018-05-04T13:56:30Z</time>
      </trkpt>
      <trkpt lat="44.55436" lon="2.66254">
        <ele>315</ele>
        <time>2018-05-04T13:56:46Z</time>
      </trkpt>
      <trkpt lat="44.55467" lon="2.66246">
        <ele>318</ele>
        <time>2018-05-04T13:57:12Z</time>
      </trkpt>
      <trkpt lat="44.55477" lon="2.66239">
        <ele>318</ele>
        <time>2018-05-04T13:57:22Z</time>
      </trkpt>
      <trkpt lat="44.5548" lon="2.66235">
        <ele>319</ele>
        <time>2018-05-04T13:57:26Z</time>
      </trkpt>
      <trkpt lat="44.5549" lon="2.6623">
        <ele>319</ele>
        <time>2018-05-04T13:57:35Z</time>
      </trkpt>
      <trkpt lat="44.55533" lon="2.66193">
        <ele>321</ele>
        <time>2018-05-04T13:58:25Z</time>
      </trkpt>
      <trkpt lat="44.55542" lon="2.66182">
        <ele>321</ele>
        <time>2018-05-04T13:58:37Z</time>
      </trkpt>
      <trkpt lat="44.55547" lon="2.66178">
        <ele>321</ele>
        <time>2018-05-04T13:58:41Z</time>
      </trkpt>
      <trkpt lat="44.55582" lon="2.66156">
        <ele>318</ele>
        <time>2018-05-04T13:59:12Z</time>
      </trkpt>
      <trkpt lat="44.55589" lon="2.66154">
        <ele>317</ele>
        <time>2018-05-04T13:59:17Z</time>
      </trkpt>
      <trkpt lat="44.55598" lon="2.66145">
        <ele>316</ele>
        <time>2018-05-04T13:59:23Z</time>
      </trkpt>
      <trkpt lat="44.55647" lon="2.66139">
        <ele>313</ele>
        <time>2018-05-04T13:59:58Z</time>
      </trkpt>
      <trkpt lat="44.55657" lon="2.66136">
        <ele>313</ele>
        <time>2018-05-04T14:00:07Z</time>
      </trkpt>
      <trkpt lat="44.55675" lon="2.66122">
        <ele>312</ele>
        <time>2018-05-04T14:00:26Z</time>
      </trkpt>
      <trkpt lat="44.55694" lon="2.66117">
        <ele>311</ele>
        <time>2018-05-04T14:00:41Z</time>
      </trkpt>
      <trkpt lat="44.55701" lon="2.66106">
        <ele>311</ele>
        <time>2018-05-04T14:00:50Z</time>
      </trkpt>
      <trkpt lat="44.55749" lon="2.66094">
        <ele>310</ele>
        <time>2018-05-04T14:01:26Z</time>
      </trkpt>
      <trkpt lat="44.55759" lon="2.66096">
        <ele>310</ele>
        <time>2018-05-04T14:01:33Z</time>
      </trkpt>
      <trkpt lat="44.55769" lon="2.66092">
        <ele>310</ele>
        <time>2018-05-04T14:01:43Z</time>
      </trkpt>
      <trkpt lat="44.55777" lon="2.66084">
        <ele>310</ele>
        <time>2018-05-04T14:01:52Z</time>
      </trkpt>
      <trkpt lat="44.55807" lon="2.66082">
        <ele>309</ele>
        <time>2018-05-04T14:02:13Z</time>
      </trkpt>
      <trkpt lat="44.55814" lon="2.66072">
        <ele>309</ele>
        <time>2018-05-04T14:02:22Z</time>
      </trkpt>
      <trkpt lat="44.55824" lon="2.66066">
        <ele>309</ele>
        <time>2018-05-04T14:02:30Z</time>
      </trkpt>
      <trkpt lat="44.55868" lon="2.66046">
        <ele>309</ele>
        <time>2018-05-04T14:03:03Z</time>
      </trkpt>
      <trkpt lat="44.55878" lon="2.66047">
        <ele>309</ele>
        <time>2018-05-04T14:03:10Z</time>
      </trkpt>
      <trkpt lat="44.55888" lon="2.66044">
        <ele>309</ele>
        <time>2018-05-04T14:03:18Z</time>
      </trkpt>
      <trkpt lat="44.55898" lon="2.66046">
        <ele>309</ele>
        <time>2018-05-04T14:03:24Z</time>
      </trkpt>
      <trkpt lat="44.55907" lon="2.66034">
        <ele>309</ele>
        <time>2018-05-04T14:03:33Z</time>
      </trkpt>
      <trkpt lat="44.5594" lon="2.6602">
        <ele>310</ele>
        <time>2018-05-04T14:04:07Z</time>
      </trkpt>
      <trkpt lat="44.55967" lon="2.66012">
        <ele>311</ele>
        <time>2018-05-04T14:04:28Z</time>
      </trkpt>
      <trkpt lat="44.55987" lon="2.6599">
        <ele>313</ele>
        <time>2018-05-04T14:04:59Z</time>
      </trkpt>
      <trkpt lat="44.56007" lon="2.65996">
        <ele>313</ele>
        <time>2018-05-04T14:05:10Z</time>
      </trkpt>
      <trkpt lat="44.56017" lon="2.65994">
        <ele>314</ele>
        <time>2018-05-04T14:05:17Z</time>
      </trkpt>
      <trkpt lat="44.56061" lon="2.65976">
        <ele>314</ele>
        <time>2018-05-04T14:05:56Z</time>
      </trkpt>
      <trkpt lat="44.5608" lon="2.65948">
        <ele>314</ele>
        <time>2018-05-04T14:06:56Z</time>
      </trkpt>
      <trkpt lat="44.561" lon="2.65942">
        <ele>314</ele>
        <time>2018-05-04T14:07:12Z</time>
      </trkpt>
      <trkpt lat="44.56107" lon="2.65933">
        <ele>314</ele>
        <time>2018-05-04T14:07:20Z</time>
      </trkpt>
      <trkpt lat="44.56125" lon="2.65923">
        <ele>314</ele>
        <time>2018-05-04T14:07:35Z</time>
      </trkpt>
      <trkpt lat="44.56133" lon="2.65916">
        <ele>314</ele>
        <time>2018-05-04T14:07:44Z</time>
      </trkpt>
      <trkpt lat="44.56189" lon="2.6591">
        <ele>313</ele>
        <time>2018-05-04T14:08:32Z</time>
      </trkpt>
      <trkpt lat="44.56198" lon="2.65904">
        <ele>313</ele>
        <time>2018-05-04T14:08:41Z</time>
      </trkpt>
      <trkpt lat="44.56208" lon="2.65903">
        <ele>313</ele>
        <time>2018-05-04T14:08:49Z</time>
      </trkpt>
      <trkpt lat="44.56217" lon="2.65905">
        <ele>312</ele>
        <time>2018-05-04T14:08:57Z</time>
      </trkpt>
      <trkpt lat="44.56225" lon="2.65915">
        <ele>311</ele>
        <time>2018-05-04T14:11:35Z</time>
      </trkpt>
      <trkpt lat="44.5626" lon="2.65908">
        <ele>312</ele>
        <time>2018-05-04T14:12:41Z</time>
      </trkpt>
      <trkpt lat="44.56266" lon="2.65908">
        <ele>312</ele>
        <time>2018-05-04T14:12:46Z</time>
      </trkpt>
      <trkpt lat="44.56279" lon="2.65903">
        <ele>312</ele>
        <time>2018-05-04T14:13:00Z</time>
      </trkpt>
      <trkpt lat="44.56285" lon="2.65903">
        <ele>312</ele>
        <time>2018-05-04T14:13:04Z</time>
      </trkpt>
      <trkpt lat="44.5629" lon="2.65905">
        <ele>312</ele>
        <time>2018-05-04T14:13:07Z</time>
      </trkpt>
      <trkpt lat="44.56295" lon="2.65904">
        <ele>312</ele>
        <time>2018-05-04T14:13:11Z</time>
      </trkpt>
      <trkpt lat="44.56309" lon="2.65897">
        <ele>313</ele>
        <time>2018-05-04T14:13:24Z</time>
      </trkpt>
      <trkpt lat="44.56352" lon="2.65887">
        <ele>315</ele>
        <time>2018-05-04T14:14:04Z</time>
      </trkpt>
      <trkpt lat="44.56362" lon="2.65883">
        <ele>316</ele>
        <time>2018-05-04T14:14:13Z</time>
      </trkpt>
      <trkpt lat="44.56391" lon="2.6588">
        <ele>319</ele>
        <time>2018-05-04T14:14:39Z</time>
      </trkpt>
      <trkpt lat="44.56401" lon="2.6588">
        <ele>321</ele>
        <time>2018-05-04T14:14:48Z</time>
      </trkpt>
      <trkpt lat="44.56406" lon="2.65884">
        <ele>322</ele>
        <time>2018-05-04T14:15:10Z</time>
      </trkpt>
      <trkpt lat="44.56411" lon="2.65881">
        <ele>322</ele>
        <time>2018-05-04T14:15:15Z</time>
      </trkpt>
      <trkpt lat="44.56415" lon="2.65877">
        <ele>323</ele>
        <time>2018-05-04T14:15:20Z</time>
      </trkpt>
      <trkpt lat="44.56418" lon="2.65872">
        <ele>323</ele>
        <time>2018-05-04T14:15:25Z</time>
      </trkpt>
      <trkpt lat="44.56412" lon="2.6585">
        <ele>324</ele>
        <time>2018-05-04T14:16:01Z</time>
      </trkpt>
      <trkpt lat="44.56394" lon="2.65819">
        <ele>325</ele>
        <time>2018-05-04T14:16:27Z</time>
      </trkpt>
      <trkpt lat="44.56391" lon="2.65805">
        <ele>325</ele>
        <time>2018-05-04T14:16:36Z</time>
      </trkpt>
      <trkpt lat="44.56384" lon="2.65787">
        <ele>326</ele>
        <time>2018-05-04T14:17:07Z</time>
      </trkpt>
      <trkpt lat="44.56381" lon="2.65757">
        <ele>328</ele>
        <time>2018-05-04T14:17:23Z</time>
      </trkpt>
      <trkpt lat="44.56382" lon="2.6575">
        <ele>328</ele>
        <time>2018-05-04T14:17:27Z</time>
      </trkpt>
      <trkpt lat="44.56382" lon="2.65743">
        <ele>328</ele>
        <time>2018-05-04T14:17:31Z</time>
      </trkpt>
      <trkpt lat="44.5638" lon="2.65728">
        <ele>329</ele>
        <time>2018-05-04T14:17:39Z</time>
      </trkpt>
      <trkpt lat="44.56375" lon="2.65714">
        <ele>329</ele>
        <time>2018-05-04T14:17:47Z</time>
      </trkpt>
      <trkpt lat="44.56371" lon="2.65693">
        <ele>330</ele>
        <time>2018-05-04T14:17:58Z</time>
      </trkpt>
      <trkpt lat="44.56363" lon="2.65674">
        <ele>330</ele>
        <time>2018-05-04T14:18:08Z</time>
      </trkpt>
      <trkpt lat="44.56361" lon="2.65625">
        <ele>332</ele>
        <time>2018-05-04T14:18:35Z</time>
      </trkpt>
      <trkpt lat="44.56362" lon="2.6561">
        <ele>332</ele>
        <time>2018-05-04T14:18:43Z</time>
      </trkpt>
      <trkpt lat="44.5636" lon="2.65598">
        <ele>333</ele>
        <time>2018-05-04T14:18:50Z</time>
      </trkpt>
      <trkpt lat="44.56364" lon="2.65585">
        <ele>332</ele>
        <time>2018-05-04T14:18:58Z</time>
      </trkpt>
      <trkpt lat="44.56356" lon="2.6556">
        <ele>332</ele>
        <time>2018-05-04T14:19:11Z</time>
      </trkpt>
      <trkpt lat="44.56354" lon="2.65537">
        <ele>332</ele>
        <time>2018-05-04T14:19:30Z</time>
      </trkpt>
      <trkpt lat="44.56355" lon="2.65523">
        <ele>332</ele>
        <time>2018-05-04T14:19:38Z</time>
      </trkpt>
      <trkpt lat="44.56358" lon="2.6551">
        <ele>332</ele>
        <time>2018-05-04T14:19:46Z</time>
      </trkpt>
      <trkpt lat="44.56409" lon="2.65449">
        <ele>331</ele>
        <time>2018-05-04T14:20:34Z</time>
      </trkpt>
      <trkpt lat="44.56413" lon="2.65436">
        <ele>330</ele>
        <time>2018-05-04T14:20:41Z</time>
      </trkpt>
      <trkpt lat="44.56411" lon="2.65409">
        <ele>328</ele>
        <time>2018-05-04T14:20:58Z</time>
      </trkpt>
      <trkpt lat="44.56423" lon="2.65386">
        <ele>327</ele>
        <time>2018-05-04T14:21:13Z</time>
      </trkpt>
      <trkpt lat="44.56423" lon="2.65367">
        <ele>326</ele>
        <time>2018-05-04T14:21:24Z</time>
      </trkpt>
      <trkpt lat="44.5642" lon="2.65362">
        <ele>326</ele>
        <time>2018-05-04T14:21:28Z</time>
      </trkpt>
      <trkpt lat="44.56397" lon="2.65346">
        <ele>324</ele>
        <time>2018-05-04T14:21:50Z</time>
      </trkpt>
      <trkpt lat="44.56381" lon="2.65329">
        <ele>321</ele>
        <time>2018-05-04T14:22:09Z</time>
      </trkpt>
      <trkpt lat="44.56355" lon="2.65309">
        <ele>318</ele>
        <time>2018-05-04T14:22:34Z</time>
      </trkpt>
      <trkpt lat="44.5635" lon="2.65298">
        <ele>318</ele>
        <time>2018-05-04T14:22:40Z</time>
      </trkpt>
      <trkpt lat="44.5635" lon="2.65284">
        <ele>317</ele>
        <time>2018-05-04T14:22:47Z</time>
      </trkpt>
      <trkpt lat="44.56353" lon="2.65271">
        <ele>317</ele>
        <time>2018-05-04T14:22:54Z</time>
      </trkpt>
      <trkpt lat="44.56349" lon="2.65261">
        <ele>316</ele>
        <time>2018-05-04T14:23:03Z</time>
      </trkpt>
      <trkpt lat="44.5635" lon="2.65241">
        <ele>315</ele>
        <time>2018-05-04T14:23:35Z</time>
      </trkpt>
      <trkpt lat="44.56347" lon="2.65228">
        <ele>315</ele>
        <time>2018-05-04T14:23:45Z</time>
      </trkpt>
      <trkpt lat="44.56348" lon="2.65203">
        <ele>314</ele>
        <time>2018-05-04T14:24:00Z</time>
      </trkpt>
      <trkpt lat="44.56346" lon="2.65189">
        <ele>313</ele>
        <time>2018-05-04T14:24:06Z</time>
      </trkpt>
      <trkpt lat="44.56346" lon="2.65175">
        <ele>313</ele>
        <time>2018-05-04T14:24:12Z</time>
      </trkpt>
      <trkpt lat="44.56354" lon="2.65151">
        <ele>312</ele>
        <time>2018-05-04T14:24:23Z</time>
      </trkpt>
      <trkpt lat="44.56358" lon="2.65125">
        <ele>311</ele>
        <time>2018-05-04T14:24:36Z</time>
      </trkpt>
      <trkpt lat="44.56368" lon="2.65099">
        <ele>310</ele>
        <time>2018-05-04T14:24:51Z</time>
      </trkpt>
      <trkpt lat="44.56372" lon="2.65047">
        <ele>310</ele>
        <time>2018-05-04T14:25:18Z</time>
      </trkpt>
      <trkpt lat="44.56366" lon="2.65038">
        <ele>310</ele>
        <time>2018-05-04T14:25:23Z</time>
      </trkpt>
      <trkpt lat="44.5636" lon="2.65016">
        <ele>310</ele>
        <time>2018-05-04T14:25:36Z</time>
      </trkpt>
      <trkpt lat="44.56342" lon="2.64971">
        <ele>310</ele>
        <time>2018-05-04T14:26:04Z</time>
      </trkpt>
      <trkpt lat="44.56335" lon="2.64962">
        <ele>309</ele>
        <time>2018-05-04T14:26:13Z</time>
      </trkpt>
      <trkpt lat="44.56342" lon="2.64953">
        <ele>309</ele>
        <time>2018-05-04T14:26:29Z</time>
      </trkpt>
      <trkpt lat="44.56351" lon="2.64948">
        <ele>310</ele>
        <time>2018-05-04T14:27:37Z</time>
      </trkpt>
      <trkpt lat="44.5637" lon="2.64963">
        <ele>311</ele>
        <time>2018-05-04T14:27:54Z</time>
      </trkpt>
      <trkpt lat="44.56382" lon="2.6498">
        <ele>314</ele>
        <time>2018-05-04T14:28:11Z</time>
      </trkpt>
      <trkpt lat="44.56389" lon="2.65006">
        <ele>316</ele>
        <time>2018-05-04T14:28:31Z</time>
      </trkpt>
      <trkpt lat="44.5639" lon="2.6502">
        <ele>317</ele>
        <time>2018-05-04T14:28:40Z</time>
      </trkpt>
      <trkpt lat="44.56394" lon="2.65032">
        <ele>317</ele>
        <time>2018-05-04T14:28:48Z</time>
      </trkpt>
      <trkpt lat="44.56398" lon="2.65028">
        <ele>320</ele>
        <time>2018-05-04T14:29:19Z</time>
      </trkpt>
      <trkpt lat="44.56395" lon="2.65012">
        <ele>323</ele>
        <time>2018-05-04T14:29:37Z</time>
      </trkpt>
      <trkpt lat="44.56389" lon="2.64998">
        <ele>326</ele>
        <time>2018-05-04T14:29:53Z</time>
      </trkpt>
      <trkpt lat="44.56389" lon="2.64979">
        <ele>328</ele>
        <time>2018-05-04T14:30:09Z</time>
      </trkpt>
      <trkpt lat="44.56386" lon="2.64967">
        <ele>333</ele>
        <time>2018-05-04T14:30:29Z</time>
      </trkpt>
      <trkpt lat="44.56386" lon="2.64949">
        <ele>335</ele>
        <time>2018-05-04T14:31:05Z</time>
      </trkpt>
      <trkpt lat="44.56388" lon="2.64937">
        <ele>339</ele>
        <time>2018-05-04T14:31:23Z</time>
      </trkpt>
      <trkpt lat="44.56397" lon="2.6494">
        <ele>343</ele>
        <time>2018-05-04T14:32:35Z</time>
      </trkpt>
      <trkpt lat="44.56402" lon="2.64916">
        <ele>349</ele>
        <time>2018-05-04T14:33:14Z</time>
      </trkpt>
      <trkpt lat="44.56394" lon="2.64887">
        <ele>353</ele>
        <time>2018-05-04T14:33:38Z</time>
      </trkpt>
      <trkpt lat="44.56392" lon="2.64874">
        <ele>354</ele>
        <time>2018-05-04T14:33:47Z</time>
      </trkpt>
      <trkpt lat="44.56401" lon="2.64803">
        <ele>360</ele>
        <time>2018-05-04T14:34:53Z</time>
      </trkpt>
      <trkpt lat="44.56395" lon="2.64748">
        <ele>366</ele>
        <time>2018-05-04T14:35:39Z</time>
      </trkpt>
      <trkpt lat="44.56393" lon="2.64741">
        <ele>367</ele>
        <time>2018-05-04T14:35:44Z</time>
      </trkpt>
      <trkpt lat="44.56393" lon="2.64734">
        <ele>368</ele>
        <time>2018-05-04T14:35:49Z</time>
      </trkpt>
      <trkpt lat="44.56389" lon="2.64721">
        <ele>369</ele>
        <time>2018-05-04T14:35:59Z</time>
      </trkpt>
      <trkpt lat="44.5639" lon="2.64656">
        <ele>374</ele>
        <time>2018-05-04T14:36:46Z</time>
      </trkpt>
      <trkpt lat="44.56392" lon="2.64648">
        <ele>376</ele>
        <time>2018-05-04T14:37:04Z</time>
      </trkpt>
      <trkpt lat="44.56391" lon="2.64641">
        <ele>376</ele>
        <time>2018-05-04T14:37:09Z</time>
      </trkpt>
      <trkpt lat="44.56385" lon="2.64609">
        <ele>379</ele>
        <time>2018-05-04T14:37:32Z</time>
      </trkpt>
      <trkpt lat="44.56366" lon="2.64545">
        <ele>385</ele>
        <time>2018-05-04T14:38:27Z</time>
      </trkpt>
      <trkpt lat="44.56368" lon="2.64536">
        <ele>386</ele>
        <time>2018-05-04T14:38:36Z</time>
      </trkpt>
      <trkpt lat="44.56365" lon="2.64531">
        <ele>387</ele>
        <time>2018-05-04T14:38:55Z</time>
      </trkpt>
      <trkpt lat="44.56363" lon="2.64518">
        <ele>388</ele>
        <time>2018-05-04T14:39:03Z</time>
      </trkpt>
      <trkpt lat="44.56368" lon="2.64521">
        <ele>388</ele>
        <time>2018-05-04T14:39:10Z</time>
      </trkpt>
      <trkpt lat="44.56381" lon="2.64533">
        <ele>391</ele>
        <time>2018-05-04T14:39:25Z</time>
      </trkpt>
      <trkpt lat="44.56389" lon="2.6454">
        <ele>392</ele>
        <time>2018-05-04T14:39:35Z</time>
      </trkpt>
      <trkpt lat="44.56399" lon="2.64551">
        <ele>395</ele>
        <time>2018-05-04T14:39:52Z</time>
      </trkpt>
      <trkpt lat="44.56396" lon="2.64541">
        <ele>398</ele>
        <time>2018-05-04T14:40:27Z</time>
      </trkpt>
      <trkpt lat="44.56388" lon="2.64525">
        <ele>400</ele>
        <time>2018-05-04T14:40:42Z</time>
      </trkpt>
      <trkpt lat="44.56384" lon="2.64521">
        <ele>400</ele>
        <time>2018-05-04T14:40:48Z</time>
      </trkpt>
      <trkpt lat="44.56381" lon="2.64515">
        <ele>401</ele>
        <time>2018-05-04T14:40:56Z</time>
      </trkpt>
      <trkpt lat="44.56389" lon="2.64514">
        <ele>403</ele>
        <time>2018-05-04T14:41:09Z</time>
      </trkpt>
      <trkpt lat="44.56398" lon="2.64503">
        <ele>406</ele>
        <time>2018-05-04T14:41:24Z</time>
      </trkpt>
      <trkpt lat="44.564" lon="2.6449">
        <ele>408</ele>
        <time>2018-05-04T14:41:42Z</time>
      </trkpt>
      <trkpt lat="44.56403" lon="2.64483">
        <ele>410</ele>
        <time>2018-05-04T14:41:54Z</time>
      </trkpt>
      <trkpt lat="44.56403" lon="2.64476">
        <ele>411</ele>
        <time>2018-05-04T14:42:06Z</time>
      </trkpt>
      <trkpt lat="44.56403" lon="2.64467">
        <ele>412</ele>
        <time>2018-05-04T14:42:40Z</time>
      </trkpt>
      <trkpt lat="44.56405" lon="2.6446">
        <ele>413</ele>
        <time>2018-05-04T14:42:45Z</time>
      </trkpt>
      <trkpt lat="44.56401" lon="2.64382">
        <ele>421</ele>
        <time>2018-05-04T14:43:41Z</time>
      </trkpt>
      <trkpt lat="44.56402" lon="2.64375">
        <ele>422</ele>
        <time>2018-05-04T14:43:47Z</time>
      </trkpt>
      <trkpt lat="44.56409" lon="2.64367">
        <ele>424</ele>
        <time>2018-05-04T14:43:59Z</time>
      </trkpt>
      <trkpt lat="44.56424" lon="2.64369">
        <ele>426</ele>
        <time>2018-05-04T14:44:13Z</time>
      </trkpt>
      <trkpt lat="44.5645" lon="2.64387">
        <ele>430</ele>
        <time>2018-05-04T14:44:46Z</time>
      </trkpt>
      <trkpt lat="44.56457" lon="2.644">
        <ele>432</ele>
        <time>2018-05-04T14:45:24Z</time>
      </trkpt>
      <trkpt lat="44.56479" lon="2.64427">
        <ele>438</ele>
        <time>2018-05-04T14:46:29Z</time>
      </trkpt>
      <trkpt lat="44.56487" lon="2.64435">
        <ele>439</ele>
        <time>2018-05-04T14:46:39Z</time>
      </trkpt>
      <trkpt lat="44.56498" lon="2.64456">
        <ele>443</ele>
        <time>2018-05-04T14:47:02Z</time>
      </trkpt>
      <trkpt lat="44.56488" lon="2.64414">
        <ele>451</ele>
        <time>2018-05-04T14:48:03Z</time>
      </trkpt>
      <trkpt lat="44.56489" lon="2.64396">
        <ele>452</ele>
        <time>2018-05-04T14:48:21Z</time>
      </trkpt>
      <trkpt lat="44.56496" lon="2.64406">
        <ele>454</ele>
        <time>2018-05-04T14:48:36Z</time>
      </trkpt>
      <trkpt lat="44.56507" lon="2.64415">
        <ele>457</ele>
        <time>2018-05-04T14:48:51Z</time>
      </trkpt>
      <trkpt lat="44.56519" lon="2.64453">
        <ele>460</ele>
        <time>2018-05-04T14:49:19Z</time>
      </trkpt>
      <trkpt lat="44.56519" lon="2.64461">
        <ele>461</ele>
        <time>2018-05-04T14:49:35Z</time>
      </trkpt>
      <trkpt lat="44.56522" lon="2.64466">
        <ele>461</ele>
        <time>2018-05-04T14:49:41Z</time>
      </trkpt>
      <trkpt lat="44.56532" lon="2.64518">
        <ele>464</ele>
        <time>2018-05-04T14:50:26Z</time>
      </trkpt>
      <trkpt lat="44.56538" lon="2.64533">
        <ele>466</ele>
        <time>2018-05-04T14:50:43Z</time>
      </trkpt>
      <trkpt lat="44.56539" lon="2.64531">
        <ele>466</ele>
        <time>2018-05-04T14:52:16Z</time>
      </trkpt>
      <trkpt lat="44.56534" lon="2.64511">
        <ele>467</ele>
        <time>2018-05-04T14:52:52Z</time>
      </trkpt>
      <trkpt lat="44.56516" lon="2.6438">
        <ele>473</ele>
        <time>2018-05-04T14:54:15Z</time>
      </trkpt>
      <trkpt lat="44.56509" lon="2.64361">
        <ele>475</ele>
        <time>2018-05-04T14:54:29Z</time>
      </trkpt>
      <trkpt lat="44.56497" lon="2.64339">
        <ele>478</ele>
        <time>2018-05-04T14:55:12Z</time>
      </trkpt>
      <trkpt lat="44.56486" lon="2.64323">
        <ele>480</ele>
        <time>2018-05-04T14:55:28Z</time>
      </trkpt>
      <trkpt lat="44.56481" lon="2.6432">
        <ele>481</ele>
        <time>2018-05-04T14:55:33Z</time>
      </trkpt>
      <trkpt lat="44.56476" lon="2.64318">
        <ele>481</ele>
        <time>2018-05-04T14:55:37Z</time>
      </trkpt>
      <trkpt lat="44.5646" lon="2.643">
        <ele>484</ele>
        <time>2018-05-04T14:55:56Z</time>
      </trkpt>
      <trkpt lat="44.56438" lon="2.64259">
        <ele>487</ele>
        <time>2018-05-04T14:56:29Z</time>
      </trkpt>
      <trkpt lat="44.56435" lon="2.64248">
        <ele>488</ele>
        <time>2018-05-04T14:56:39Z</time>
      </trkpt>
      <trkpt lat="44.56431" lon="2.64241">
        <ele>489</ele>
        <time>2018-05-04T14:56:59Z</time>
      </trkpt>
      <trkpt lat="44.56419" lon="2.64201">
        <ele>493</ele>
        <time>2018-05-04T14:57:31Z</time>
      </trkpt>
      <trkpt lat="44.56417" lon="2.64194">
        <ele>493</ele>
        <time>2018-05-04T14:57:35Z</time>
      </trkpt>
      <trkpt lat="44.5642" lon="2.64163">
        <ele>495</ele>
        <time>2018-05-04T14:58:06Z</time>
      </trkpt>
      <trkpt lat="44.56423" lon="2.6415">
        <ele>496</ele>
        <time>2018-05-04T14:58:15Z</time>
      </trkpt>
      <trkpt lat="44.56432" lon="2.64101">
        <ele>499</ele>
        <time>2018-05-04T15:02:07Z</time>
      </trkpt>
      <trkpt lat="44.56439" lon="2.64074">
        <ele>504</ele>
        <time>2018-05-04T15:02:59Z</time>
      </trkpt>
      <trkpt lat="44.56443" lon="2.64068">
        <ele>504</ele>
        <time>2018-05-04T15:03:07Z</time>
      </trkpt>
      <trkpt lat="44.56447" lon="2.64057">
        <ele>505</ele>
        <time>2018-05-04T15:03:25Z</time>
      </trkpt>
      <trkpt lat="44.56477" lon="2.64009">
        <ele>511</ele>
        <time>2018-05-04T15:04:28Z</time>
      </trkpt>
      <trkpt lat="44.56486" lon="2.63987">
        <ele>513</ele>
        <time>2018-05-04T15:04:54Z</time>
      </trkpt>
      <trkpt lat="44.5651" lon="2.6394">
        <ele>515</ele>
        <time>2018-05-04T15:05:58Z</time>
      </trkpt>
      <trkpt lat="44.56513" lon="2.63917">
        <ele>516</ele>
        <time>2018-05-04T15:06:13Z</time>
      </trkpt>
      <trkpt lat="44.56518" lon="2.63752">
        <ele>526</ele>
        <time>2018-05-04T15:08:26Z</time>
      </trkpt>
      <trkpt lat="44.56523" lon="2.63754">
        <ele>527</ele>
        <time>2018-05-04T15:08:40Z</time>
      </trkpt>
      <trkpt lat="44.56521" lon="2.63733">
        <ele>528</ele>
        <time>2018-05-04T15:08:57Z</time>
      </trkpt>
      <trkpt lat="44.56519" lon="2.63727">
        <ele>529</ele>
        <time>2018-05-04T15:09:01Z</time>
      </trkpt>
      <trkpt lat="44.56521" lon="2.63701">
        <ele>531</ele>
        <time>2018-05-04T15:09:24Z</time>
      </trkpt>
      <trkpt lat="44.56519" lon="2.63694">
        <ele>532</ele>
        <time>2018-05-04T15:09:29Z</time>
      </trkpt>
      <trkpt lat="44.56519" lon="2.63651">
        <ele>536</ele>
        <time>2018-05-04T15:10:02Z</time>
      </trkpt>
      <trkpt lat="44.56523" lon="2.63633">
        <ele>537</ele>
        <time>2018-05-04T15:10:29Z</time>
      </trkpt>
      <trkpt lat="44.56523" lon="2.63619">
        <ele>538</ele>
        <time>2018-05-04T15:10:39Z</time>
      </trkpt>
      <trkpt lat="44.56514" lon="2.6358">
        <ele>542</ele>
        <time>2018-05-04T15:11:07Z</time>
      </trkpt>
      <trkpt lat="44.56508" lon="2.63566">
        <ele>544</ele>
        <time>2018-05-04T15:11:24Z</time>
      </trkpt>
      <trkpt lat="44.56477" lon="2.63479">
        <ele>552</ele>
        <time>2018-05-04T15:12:33Z</time>
      </trkpt>
      <trkpt lat="44.56475" lon="2.63468">
        <ele>553</ele>
        <time>2018-05-04T15:12:42Z</time>
      </trkpt>
      <trkpt lat="44.56472" lon="2.63463">
        <ele>553</ele>
        <time>2018-05-04T15:12:47Z</time>
      </trkpt>
      <trkpt lat="44.56471" lon="2.63449">
        <ele>554</ele>
        <time>2018-05-04T15:12:57Z</time>
      </trkpt>
      <trkpt lat="44.56456" lon="2.63418">
        <ele>557</ele>
        <time>2018-05-04T15:14:39Z</time>
      </trkpt>
      <trkpt lat="44.56454" lon="2.63411">
        <ele>557</ele>
        <time>2018-05-04T15:14:44Z</time>
      </trkpt>
      <trkpt lat="44.56451" lon="2.63403">
        <ele>558</ele>
        <time>2018-05-04T15:14:50Z</time>
      </trkpt>
      <trkpt lat="44.56438" lon="2.63357">
        <ele>562</ele>
        <time>2018-05-04T15:15:25Z</time>
      </trkpt>
      <trkpt lat="44.56427" lon="2.63286">
        <ele>568</ele>
        <time>2018-05-04T15:16:29Z</time>
      </trkpt>
      <trkpt lat="44.56431" lon="2.63238">
        <ele>572</ele>
        <time>2018-05-04T15:17:12Z</time>
      </trkpt>
      <trkpt lat="44.56436" lon="2.63226">
        <ele>573</ele>
        <time>2018-05-04T15:17:22Z</time>
      </trkpt>
      <trkpt lat="44.5644" lon="2.63221">
        <ele>573</ele>
        <time>2018-05-04T15:17:27Z</time>
      </trkpt>
      <trkpt lat="44.56445" lon="2.63218">
        <ele>574</ele>
        <time>2018-05-04T15:17:32Z</time>
      </trkpt>
      <trkpt lat="44.56457" lon="2.63222">
        <ele>575</ele>
        <time>2018-05-04T15:17:47Z</time>
      </trkpt>
      <trkpt lat="44.56461" lon="2.63226">
        <ele>575</ele>
        <time>2018-05-04T15:17:52Z</time>
      </trkpt>
      <trkpt lat="44.56463" lon="2.63233">
        <ele>576</ele>
        <time>2018-05-04T15:17:57Z</time>
      </trkpt>
      <trkpt lat="44.56463" lon="2.6324">
        <ele>577</ele>
        <time>2018-05-04T15:18:02Z</time>
      </trkpt>
      <trkpt lat="44.56462" lon="2.63258">
        <ele>578</ele>
        <time>2018-05-04T15:18:16Z</time>
      </trkpt>
      <trkpt lat="44.56471" lon="2.63254">
        <ele>579</ele>
        <time>2018-05-04T15:19:05Z</time>
      </trkpt>
      <trkpt lat="44.56475" lon="2.63251">
        <ele>579</ele>
        <time>2018-05-04T15:19:10Z</time>
      </trkpt>
      <trkpt lat="44.56479" lon="2.63242">
        <ele>581</ele>
        <time>2018-05-04T15:19:19Z</time>
      </trkpt>
      <trkpt lat="44.56553" lon="2.63204">
        <ele>588</ele>
        <time>2018-05-04T15:20:25Z</time>
      </trkpt>
      <trkpt lat="44.56603" lon="2.63169">
        <ele>590</ele>
        <time>2018-05-04T15:21:09Z</time>
      </trkpt>
      <trkpt lat="44.56607" lon="2.63164">
        <ele>590</ele>
        <time>2018-05-04T15:21:13Z</time>
      </trkpt>
      <trkpt lat="44.56615" lon="2.63157">
        <ele>590</ele>
        <time>2018-05-04T15:21:23Z</time>
      </trkpt>
      <trkpt lat="44.56641" lon="2.63106">
        <ele>592</ele>
        <time>2018-05-04T15:22:06Z</time>
      </trkpt>
      <trkpt lat="44.56651" lon="2.63098">
        <ele>593</ele>
        <time>2018-05-04T15:22:21Z</time>
      </trkpt>
      <trkpt lat="44.56665" lon="2.63074">
        <ele>594</ele>
        <time>2018-05-04T15:22:37Z</time>
      </trkpt>
      <trkpt lat="44.56668" lon="2.63068">
        <ele>594</ele>
        <time>2018-05-04T15:22:41Z</time>
      </trkpt>
      <trkpt lat="44.56699" lon="2.63016">
        <ele>594</ele>
        <time>2018-05-04T15:23:35Z</time>
      </trkpt>
      <trkpt lat="44.56709" lon="2.62991">
        <ele>594</ele>
        <time>2018-05-04T15:23:51Z</time>
      </trkpt>
      <trkpt lat="44.56715" lon="2.62971">
        <ele>594</ele>
        <time>2018-05-04T15:24:04Z</time>
      </trkpt>
      <trkpt lat="44.56723" lon="2.62954">
        <ele>595</ele>
        <time>2018-05-04T15:24:18Z</time>
      </trkpt>
      <trkpt lat="44.56732" lon="2.62912">
        <ele>596</ele>
        <time>2018-05-04T15:24:44Z</time>
      </trkpt>
      <trkpt lat="44.56735" lon="2.62892">
        <ele>598</ele>
        <time>2018-05-04T15:24:57Z</time>
      </trkpt>
      <trkpt lat="44.56736" lon="2.62887">
        <ele>599</ele>
        <time>2018-05-04T15:25:06Z</time>
      </trkpt>
      <trkpt lat="44.56735" lon="2.6288">
        <ele>599</ele>
        <time>2018-05-04T15:25:13Z</time>
      </trkpt>
      <trkpt lat="44.56742" lon="2.62799">
        <ele>607</ele>
        <time>2018-05-04T15:26:22Z</time>
      </trkpt>
      <trkpt lat="44.56745" lon="2.62792">
        <ele>607</ele>
        <time>2018-05-04T15:26:27Z</time>
      </trkpt>
      <trkpt lat="44.56756" lon="2.62785">
        <ele>608</ele>
        <time>2018-05-04T15:26:53Z</time>
      </trkpt>
      <trkpt lat="44.56767" lon="2.62784">
        <ele>609</ele>
        <time>2018-05-04T15:27:02Z</time>
      </trkpt>
      <trkpt lat="44.56778" lon="2.6278">
        <ele>610</ele>
        <time>2018-05-04T15:27:15Z</time>
      </trkpt>
      <trkpt lat="44.56814" lon="2.62755">
        <ele>614</ele>
        <time>2018-05-04T15:27:56Z</time>
      </trkpt>
      <trkpt lat="44.56818" lon="2.62755">
        <ele>615</ele>
        <time>2018-05-04T15:28:00Z</time>
      </trkpt>
      <trkpt lat="44.56841" lon="2.62742">
        <ele>616</ele>
        <time>2018-05-04T15:28:23Z</time>
      </trkpt>
      <trkpt lat="44.56842" lon="2.62736">
        <ele>617</ele>
        <time>2018-05-04T15:28:43Z</time>
      </trkpt>
      <trkpt lat="44.56848" lon="2.62733">
        <ele>617</ele>
        <time>2018-05-04T15:29:00Z</time>
      </trkpt>
      <trkpt lat="44.56915" lon="2.62717">
        <ele>620</ele>
        <time>2018-05-04T15:30:01Z</time>
      </trkpt>
      <trkpt lat="44.56959" lon="2.62696">
        <ele>622</ele>
        <time>2018-05-04T15:30:44Z</time>
      </trkpt>
      <trkpt lat="44.56987" lon="2.62676">
        <ele>626</ele>
        <time>2018-05-04T15:31:26Z</time>
      </trkpt>
      <trkpt lat="44.56995" lon="2.62668">
        <ele>627</ele>
        <time>2018-05-04T15:31:39Z</time>
      </trkpt>
      <trkpt lat="44.57007" lon="2.62648">
        <ele>628</ele>
        <time>2018-05-04T15:32:10Z</time>
      </trkpt>
      <trkpt lat="44.57022" lon="2.62632">
        <ele>631</ele>
        <time>2018-05-04T15:32:27Z</time>
      </trkpt>
      <trkpt lat="44.57039" lon="2.62617">
        <ele>633</ele>
        <time>2018-05-04T15:32:43Z</time>
      </trkpt>
      <trkpt lat="44.57042" lon="2.62612">
        <ele>634</ele>
        <time>2018-05-04T15:32:48Z</time>
      </trkpt>
      <trkpt lat="44.57074" lon="2.62588">
        <ele>637</ele>
        <time>2018-05-04T15:33:22Z</time>
      </trkpt>
      <trkpt lat="44.57094" lon="2.62576">
        <ele>638</ele>
        <time>2018-05-04T15:33:42Z</time>
      </trkpt>
      <trkpt lat="44.57103" lon="2.62573">
        <ele>638</ele>
        <time>2018-05-04T15:33:51Z</time>
      </trkpt>
      <trkpt lat="44.57118" lon="2.62563">
        <ele>639</ele>
        <time>2018-05-04T15:34:04Z</time>
      </trkpt>
      <trkpt lat="44.57127" lon="2.62561">
        <ele>640</ele>
        <time>2018-05-04T15:34:12Z</time>
      </trkpt>
      <trkpt lat="44.57131" lon="2.62558">
        <ele>640</ele>
        <time>2018-05-04T15:34:29Z</time>
      </trkpt>
      <trkpt lat="44.5715" lon="2.6255">
        <ele>641</ele>
        <time>2018-05-04T15:34:54Z</time>
      </trkpt>
      <trkpt lat="44.57155" lon="2.62546">
        <ele>641</ele>
        <time>2018-05-04T15:34:58Z</time>
      </trkpt>
      <trkpt lat="44.57161" lon="2.62545">
        <ele>642</ele>
        <time>2018-05-04T15:35:03Z</time>
      </trkpt>
      <trkpt lat="44.57165" lon="2.62542">
        <ele>642</ele>
        <time>2018-05-04T15:35:09Z</time>
      </trkpt>
      <trkpt lat="44.57178" lon="2.62538">
        <ele>642</ele>
        <time>2018-05-04T15:35:20Z</time>
      </trkpt>
      <trkpt lat="44.57187" lon="2.62533">
        <ele>643</ele>
        <time>2018-05-04T15:35:28Z</time>
      </trkpt>
      <trkpt lat="44.57194" lon="2.62527">
        <ele>643</ele>
        <time>2018-05-04T15:35:37Z</time>
      </trkpt>
      <trkpt lat="44.57213" lon="2.62521">
        <ele>644</ele>
        <time>2018-05-04T15:35:54Z</time>
      </trkpt>
      <trkpt lat="44.57244" lon="2.62504">
        <ele>645</ele>
        <time>2018-05-04T15:36:28Z</time>
      </trkpt>
      <trkpt lat="44.57249" lon="2.625">
        <ele>646</ele>
        <time>2018-05-04T15:36:33Z</time>
      </trkpt>
      <trkpt lat="44.57255" lon="2.62499">
        <ele>645</ele>
        <time>2018-05-04T15:36:37Z</time>
      </trkpt>
      <trkpt lat="44.57264" lon="2.62499">
        <ele>646</ele>
        <time>2018-05-04T15:36:45Z</time>
      </trkpt>
      <trkpt lat="44.57269" lon="2.625">
        <ele>646</ele>
        <time>2018-05-04T15:36:49Z</time>
      </trkpt>
      <trkpt lat="44.57281" lon="2.62495">
        <ele>646</ele>
        <time>2018-05-04T15:36:58Z</time>
      </trkpt>
      <trkpt lat="44.57286" lon="2.62495">
        <ele>647</ele>
        <time>2018-05-04T15:37:02Z</time>
      </trkpt>
      <trkpt lat="44.57296" lon="2.62488">
        <ele>647</ele>
        <time>2018-05-04T15:37:11Z</time>
      </trkpt>
      <trkpt lat="44.573" lon="2.62485">
        <ele>647</ele>
        <time>2018-05-04T15:37:15Z</time>
      </trkpt>
      <trkpt lat="44.57312" lon="2.62464">
        <ele>648</ele>
        <time>2018-05-04T15:37:35Z</time>
      </trkpt>
      <trkpt lat="44.57324" lon="2.62432">
        <ele>650</ele>
        <time>2018-05-04T15:38:00Z</time>
      </trkpt>
      <trkpt lat="44.57343" lon="2.62399">
        <ele>652</ele>
        <time>2018-05-04T15:38:29Z</time>
      </trkpt>
      <trkpt lat="44.57365" lon="2.62371">
        <ele>650</ele>
        <time>2018-05-04T15:38:57Z</time>
      </trkpt>
      <trkpt lat="44.57409" lon="2.62345">
        <ele>649</ele>
        <time>2018-05-04T15:39:35Z</time>
      </trkpt>
      <trkpt lat="44.57417" lon="2.62332">
        <ele>649</ele>
        <time>2018-05-04T15:39:46Z</time>
      </trkpt>
      <trkpt lat="44.5742" lon="2.62324">
        <ele>649</ele>
        <time>2018-05-04T15:39:55Z</time>
      </trkpt>
      <trkpt lat="44.57422" lon="2.62294">
        <ele>649</ele>
        <time>2018-05-04T15:40:15Z</time>
      </trkpt>
      <trkpt lat="44.57421" lon="2.62288">
        <ele>649</ele>
        <time>2018-05-04T15:40:19Z</time>
      </trkpt>
      <trkpt lat="44.57423" lon="2.62265">
        <ele>649</ele>
        <time>2018-05-04T15:40:33Z</time>
      </trkpt>
      <trkpt lat="44.57423" lon="2.62257">
        <ele>649</ele>
        <time>2018-05-04T15:40:37Z</time>
      </trkpt>
      <trkpt lat="44.57425" lon="2.62237">
        <ele>648</ele>
        <time>2018-05-04T15:40:50Z</time>
      </trkpt>
      <trkpt lat="44.57426" lon="2.62187">
        <ele>648</ele>
        <time>2018-05-04T15:41:20Z</time>
      </trkpt>
      <trkpt lat="44.57422" lon="2.62159">
        <ele>649</ele>
        <time>2018-05-04T15:41:38Z</time>
      </trkpt>
      <trkpt lat="44.57419" lon="2.62153">
        <ele>649</ele>
        <time>2018-05-04T15:41:42Z</time>
      </trkpt>
      <trkpt lat="44.57418" lon="2.62147">
        <ele>649</ele>
        <time>2018-05-04T15:41:49Z</time>
      </trkpt>
      <trkpt lat="44.57413" lon="2.62139">
        <ele>650</ele>
        <time>2018-05-04T15:44:01Z</time>
      </trkpt>
      <trkpt lat="44.574" lon="2.62132">
        <ele>650</ele>
        <time>2018-05-04T15:44:16Z</time>
      </trkpt>
      <trkpt lat="44.57373" lon="2.62124">
        <ele>651</ele>
        <time>2018-05-04T15:44:52Z</time>
      </trkpt>
      <trkpt lat="44.57347" lon="2.62121">
        <ele>651</ele>
        <time>2018-05-04T15:45:24Z</time>
      </trkpt>
      <trkpt lat="44.57315" lon="2.62111">
        <ele>652</ele>
        <time>2018-05-04T15:45:55Z</time>
      </trkpt>
      <trkpt lat="44.57301" lon="2.62103">
        <ele>652</ele>
        <time>2018-05-04T15:46:09Z</time>
      </trkpt>
      <trkpt lat="44.5729" lon="2.62089">
        <ele>653</ele>
        <time>2018-05-04T15:46:23Z</time>
      </trkpt>
      <trkpt lat="44.57287" lon="2.6208">
        <ele>653</ele>
        <time>2018-05-04T15:46:52Z</time>
      </trkpt>
      <trkpt lat="44.57286" lon="2.62074">
        <ele>653</ele>
        <time>2018-05-04T15:46:57Z</time>
      </trkpt>
      <trkpt lat="44.57289" lon="2.62069">
        <ele>653</ele>
        <time>2018-05-04T15:47:11Z</time>
      </trkpt>
      <trkpt lat="44.57299" lon="2.62058">
        <ele>654</ele>
        <time>2018-05-04T15:47:32Z</time>
      </trkpt>
      <trkpt lat="44.57298" lon="2.62062">
        <ele>654</ele>
        <time>2018-05-04T15:47:54Z</time>
      </trkpt>
      <trkpt lat="44.57288" lon="2.62063">
        <ele>654</ele>
        <time>2018-05-04T15:48:47Z</time>
      </trkpt>
      <trkpt lat="44.57267" lon="2.62038">
        <ele>662</ele>
        <time>2018-05-05T06:18:51Z</time>
      </trkpt>
      <trkpt lat="44.57269" lon="2.6203">
        <ele>662</ele>
        <time>2018-05-05T06:18:56Z</time>
      </trkpt>
      <trkpt lat="44.57269" lon="2.62023">
        <ele>662</ele>
        <time>2018-05-05T06:18:58Z</time>
      </trkpt>
      <trkpt lat="44.57266" lon="2.62007">
        <ele>661</ele>
        <time>2018-05-05T06:19:10Z</time>
      </trkpt>
      <trkpt lat="44.57194" lon="2.61837">
        <ele>657</ele>
        <time>2018-05-05T06:21:12Z</time>
      </trkpt>
      <trkpt lat="44.5719" lon="2.61816">
        <ele>656</ele>
        <time>2018-05-05T06:21:26Z</time>
      </trkpt>
      <trkpt lat="44.57187" lon="2.61762">
        <ele>654</ele>
        <time>2018-05-05T06:21:58Z</time>
      </trkpt>
      <trkpt lat="44.57186" lon="2.61755">
        <ele>654</ele>
        <time>2018-05-05T06:22:03Z</time>
      </trkpt>
      <trkpt lat="44.57183" lon="2.61718">
        <ele>654</ele>
        <time>2018-05-05T06:22:32Z</time>
      </trkpt>
      <trkpt lat="44.57179" lon="2.61689">
        <ele>653</ele>
        <time>2018-05-05T06:22:50Z</time>
      </trkpt>
      <trkpt lat="44.57179" lon="2.61675">
        <ele>654</ele>
        <time>2018-05-05T06:22:59Z</time>
      </trkpt>
      <trkpt lat="44.57192" lon="2.616">
        <ele>654</ele>
        <time>2018-05-05T06:23:44Z</time>
      </trkpt>
      <trkpt lat="44.57199" lon="2.61582">
        <ele>653</ele>
        <time>2018-05-05T06:23:57Z</time>
      </trkpt>
      <trkpt lat="44.57202" lon="2.61577">
        <ele>654</ele>
        <time>2018-05-05T06:24:01Z</time>
      </trkpt>
      <trkpt lat="44.57222" lon="2.61556">
        <ele>653</ele>
        <time>2018-05-05T06:24:22Z</time>
      </trkpt>
      <trkpt lat="44.57258" lon="2.6151">
        <ele>654</ele>
        <time>2018-05-05T06:25:05Z</time>
      </trkpt>
      <trkpt lat="44.57264" lon="2.61498">
        <ele>655</ele>
        <time>2018-05-05T06:25:14Z</time>
      </trkpt>
      <trkpt lat="44.57267" lon="2.61477">
        <ele>656</ele>
        <time>2018-05-05T06:25:27Z</time>
      </trkpt>
      <trkpt lat="44.57269" lon="2.61435">
        <ele>658</ele>
        <time>2018-05-05T06:25:53Z</time>
      </trkpt>
      <trkpt lat="44.5727" lon="2.61428">
        <ele>658</ele>
        <time>2018-05-05T06:25:57Z</time>
      </trkpt>
      <trkpt lat="44.57272" lon="2.61409">
        <ele>659</ele>
        <time>2018-05-05T06:26:10Z</time>
      </trkpt>
      <trkpt lat="44.57287" lon="2.61356">
        <ele>661</ele>
        <time>2018-05-05T06:26:48Z</time>
      </trkpt>
      <trkpt lat="44.5729" lon="2.6135">
        <ele>662</ele>
        <time>2018-05-05T06:26:52Z</time>
      </trkpt>
      <trkpt lat="44.57293" lon="2.61338">
        <ele>662</ele>
        <time>2018-05-05T06:27:01Z</time>
      </trkpt>
      <trkpt lat="44.57296" lon="2.61332">
        <ele>663</ele>
        <time>2018-05-05T06:27:06Z</time>
      </trkpt>
      <trkpt lat="44.57309" lon="2.61278">
        <ele>665</ele>
        <time>2018-05-05T06:27:40Z</time>
      </trkpt>
      <trkpt lat="44.57305" lon="2.61222">
        <ele>667</ele>
        <time>2018-05-05T06:28:15Z</time>
      </trkpt>
      <trkpt lat="44.573" lon="2.61202">
        <ele>668</ele>
        <time>2018-05-05T06:28:28Z</time>
      </trkpt>
      <trkpt lat="44.57278" lon="2.61155">
        <ele>670</ele>
        <time>2018-05-05T06:29:02Z</time>
      </trkpt>
      <trkpt lat="44.57269" lon="2.61129">
        <ele>671</ele>
        <time>2018-05-05T06:29:19Z</time>
      </trkpt>
      <trkpt lat="44.57253" lon="2.61103">
        <ele>672</ele>
        <time>2018-05-05T06:29:39Z</time>
      </trkpt>
      <trkpt lat="44.57247" lon="2.61091">
        <ele>672</ele>
        <time>2018-05-05T06:29:47Z</time>
      </trkpt>
      <trkpt lat="44.57207" lon="2.61038">
        <ele>671</ele>
        <time>2018-05-05T06:30:32Z</time>
      </trkpt>
      <trkpt lat="44.57195" lon="2.61016">
        <ele>671</ele>
        <time>2018-05-05T06:30:48Z</time>
      </trkpt>
      <trkpt lat="44.57185" lon="2.61009">
        <ele>671</ele>
        <time>2018-05-05T06:30:56Z</time>
      </trkpt>
      <trkpt lat="44.57182" lon="2.61003">
        <ele>672</ele>
        <time>2018-05-05T06:31:01Z</time>
      </trkpt>
      <trkpt lat="44.57152" lon="2.6098">
        <ele>670</ele>
        <time>2018-05-05T06:31:29Z</time>
      </trkpt>
      <trkpt lat="44.57148" lon="2.60975">
        <ele>670</ele>
        <time>2018-05-05T06:31:33Z</time>
      </trkpt>
      <trkpt lat="44.57143" lon="2.60973">
        <ele>670</ele>
        <time>2018-05-05T06:31:37Z</time>
      </trkpt>
      <trkpt lat="44.57099" lon="2.60947">
        <ele>669</ele>
        <time>2018-05-05T06:32:13Z</time>
      </trkpt>
      <trkpt lat="44.5709" lon="2.60939">
        <ele>668</ele>
        <time>2018-05-05T06:32:22Z</time>
      </trkpt>
      <trkpt lat="44.57076" lon="2.60932">
        <ele>667</ele>
        <time>2018-05-05T06:32:33Z</time>
      </trkpt>
      <trkpt lat="44.57072" lon="2.60928">
        <ele>666</ele>
        <time>2018-05-05T06:32:37Z</time>
      </trkpt>
      <trkpt lat="44.5707" lon="2.60921">
        <ele>666</ele>
        <time>2018-05-05T06:32:41Z</time>
      </trkpt>
      <trkpt lat="44.5707" lon="2.60914">
        <ele>666</ele>
        <time>2018-05-05T06:32:45Z</time>
      </trkpt>
      <trkpt lat="44.57068" lon="2.60908">
        <ele>666</ele>
        <time>2018-05-05T06:32:49Z</time>
      </trkpt>
      <trkpt lat="44.57067" lon="2.60901">
        <ele>665</ele>
        <time>2018-05-05T06:32:53Z</time>
      </trkpt>
      <trkpt lat="44.5707" lon="2.60889">
        <ele>665</ele>
        <time>2018-05-05T06:33:03Z</time>
      </trkpt>
      <trkpt lat="44.57072" lon="2.60867">
        <ele>664</ele>
        <time>2018-05-05T06:33:13Z</time>
      </trkpt>
      <trkpt lat="44.57102" lon="2.6076">
        <ele>659</ele>
        <time>2018-05-05T06:34:18Z</time>
      </trkpt>
      <trkpt lat="44.57119" lon="2.60616">
        <ele>654</ele>
        <time>2018-05-05T06:35:44Z</time>
      </trkpt>
      <trkpt lat="44.57126" lon="2.60589">
        <ele>652</ele>
        <time>2018-05-05T06:36:00Z</time>
      </trkpt>
      <trkpt lat="44.57128" lon="2.60583">
        <ele>651</ele>
        <time>2018-05-05T06:36:04Z</time>
      </trkpt>
      <trkpt lat="44.57136" lon="2.60546">
        <ele>647</ele>
        <time>2018-05-05T06:36:25Z</time>
      </trkpt>
      <trkpt lat="44.57136" lon="2.60518">
        <ele>645</ele>
        <time>2018-05-05T06:36:43Z</time>
      </trkpt>
      <trkpt lat="44.57135" lon="2.60504">
        <ele>644</ele>
        <time>2018-05-05T06:36:52Z</time>
      </trkpt>
      <trkpt lat="44.5713" lon="2.60491">
        <ele>644</ele>
        <time>2018-05-05T06:37:00Z</time>
      </trkpt>
      <trkpt lat="44.57122" lon="2.60459">
        <ele>644</ele>
        <time>2018-05-05T06:37:19Z</time>
      </trkpt>
      <trkpt lat="44.57117" lon="2.60446">
        <ele>644</ele>
        <time>2018-05-05T06:37:27Z</time>
      </trkpt>
      <trkpt lat="44.57094" lon="2.60323">
        <ele>648</ele>
        <time>2018-05-05T06:38:43Z</time>
      </trkpt>
      <trkpt lat="44.57092" lon="2.60317">
        <ele>648</ele>
        <time>2018-05-05T06:38:47Z</time>
      </trkpt>
      <trkpt lat="44.57088" lon="2.60241">
        <ele>650</ele>
        <time>2018-05-05T06:39:32Z</time>
      </trkpt>
      <trkpt lat="44.57075" lon="2.60209">
        <ele>652</ele>
        <time>2018-05-05T06:39:54Z</time>
      </trkpt>
      <trkpt lat="44.5706" lon="2.6019">
        <ele>654</ele>
        <time>2018-05-05T06:40:11Z</time>
      </trkpt>
      <trkpt lat="44.57053" lon="2.60171">
        <ele>655</ele>
        <time>2018-05-05T06:40:24Z</time>
      </trkpt>
      <trkpt lat="44.57043" lon="2.60165">
        <ele>655</ele>
        <time>2018-05-05T06:40:33Z</time>
      </trkpt>
      <trkpt lat="44.57039" lon="2.60153">
        <ele>656</ele>
        <time>2018-05-05T06:40:42Z</time>
      </trkpt>
      <trkpt lat="44.57035" lon="2.60148">
        <ele>656</ele>
        <time>2018-05-05T06:40:46Z</time>
      </trkpt>
      <trkpt lat="44.57031" lon="2.60128">
        <ele>657</ele>
        <time>2018-05-05T06:40:59Z</time>
      </trkpt>
      <trkpt lat="44.57035" lon="2.60016">
        <ele>659</ele>
        <time>2018-05-05T06:42:06Z</time>
      </trkpt>
      <trkpt lat="44.57038" lon="2.60005">
        <ele>659</ele>
        <time>2018-05-05T06:42:15Z</time>
      </trkpt>
      <trkpt lat="44.57045" lon="2.59887">
        <ele>656</ele>
        <time>2018-05-05T06:43:19Z</time>
      </trkpt>
      <trkpt lat="44.57051" lon="2.59858">
        <ele>657</ele>
        <time>2018-05-05T06:43:39Z</time>
      </trkpt>
      <trkpt lat="44.57059" lon="2.59772">
        <ele>660</ele>
        <time>2018-05-05T06:44:29Z</time>
      </trkpt>
      <trkpt lat="44.57057" lon="2.59759">
        <ele>660</ele>
        <time>2018-05-05T06:44:37Z</time>
      </trkpt>
      <trkpt lat="44.5706" lon="2.59702">
        <ele>661</ele>
        <time>2018-05-05T06:45:09Z</time>
      </trkpt>
      <trkpt lat="44.57055" lon="2.59665">
        <ele>661</ele>
        <time>2018-05-05T06:45:29Z</time>
      </trkpt>
      <trkpt lat="44.56989" lon="2.59522">
        <ele>656</ele>
        <time>2018-05-05T06:47:09Z</time>
      </trkpt>
      <trkpt lat="44.5696" lon="2.59472">
        <ele>657</ele>
        <time>2018-05-05T06:47:45Z</time>
      </trkpt>
      <trkpt lat="44.5693" lon="2.59406">
        <ele>657</ele>
        <time>2018-05-05T06:48:31Z</time>
      </trkpt>
      <trkpt lat="44.56929" lon="2.594">
        <ele>657</ele>
        <time>2018-05-05T06:48:35Z</time>
      </trkpt>
      <trkpt lat="44.56914" lon="2.59214">
        <ele>653</ele>
        <time>2018-05-05T06:50:21Z</time>
      </trkpt>
      <trkpt lat="44.56908" lon="2.59195">
        <ele>653</ele>
        <time>2018-05-05T06:50:33Z</time>
      </trkpt>
      <trkpt lat="44.56899" lon="2.59148">
        <ele>653</ele>
        <time>2018-05-05T06:51:01Z</time>
      </trkpt>
      <trkpt lat="44.56897" lon="2.59143">
        <ele>653</ele>
        <time>2018-05-05T06:51:05Z</time>
      </trkpt>
      <trkpt lat="44.56891" lon="2.59115">
        <ele>653</ele>
        <time>2018-05-05T06:51:22Z</time>
      </trkpt>
      <trkpt lat="44.56891" lon="2.59108">
        <ele>654</ele>
        <time>2018-05-05T06:51:27Z</time>
      </trkpt>
      <trkpt lat="44.56885" lon="2.59096">
        <ele>654</ele>
        <time>2018-05-05T06:51:36Z</time>
      </trkpt>
      <trkpt lat="44.56877" lon="2.59054">
        <ele>655</ele>
        <time>2018-05-05T06:52:03Z</time>
      </trkpt>
      <trkpt lat="44.56878" lon="2.59047">
        <ele>655</ele>
        <time>2018-05-05T06:52:07Z</time>
      </trkpt>
      <trkpt lat="44.56878" lon="2.59034">
        <ele>655</ele>
        <time>2018-05-05T06:52:15Z</time>
      </trkpt>
      <trkpt lat="44.5688" lon="2.59028">
        <ele>655</ele>
        <time>2018-05-05T06:52:19Z</time>
      </trkpt>
      <trkpt lat="44.56882" lon="2.59022">
        <ele>655</ele>
        <time>2018-05-05T06:52:23Z</time>
      </trkpt>
      <trkpt lat="44.56883" lon="2.59016">
        <ele>655</ele>
        <time>2018-05-05T06:52:28Z</time>
      </trkpt>
      <trkpt lat="44.56882" lon="2.59017">
        <ele>654</ele>
        <time>2018-05-05T07:06:17Z</time>
      </trkpt>
      <trkpt lat="44.56876" lon="2.59011">
        <ele>655</ele>
        <time>2018-05-05T07:06:28Z</time>
      </trkpt>
      <trkpt lat="44.56895" lon="2.5902">
        <ele>654</ele>
        <time>2018-05-05T07:08:30Z</time>
      </trkpt>
      <trkpt lat="44.56897" lon="2.59015">
        <ele>654</ele>
        <time>2018-05-05T07:09:12Z</time>
      </trkpt>
      <trkpt lat="44.56888" lon="2.5902">
        <ele>654</ele>
        <time>2018-05-05T07:10:25Z</time>
      </trkpt>
      <trkpt lat="44.56886" lon="2.59015">
        <ele>654</ele>
        <time>2018-05-05T07:10:29Z</time>
      </trkpt>
      <trkpt lat="44.56892" lon="2.59005">
        <ele>654</ele>
        <time>2018-05-05T07:10:47Z</time>
      </trkpt>
      <trkpt lat="44.56897" lon="2.59005">
        <ele>654</ele>
        <time>2018-05-05T07:11:36Z</time>
      </trkpt>
      <trkpt lat="44.56901" lon="2.58999">
        <ele>654</ele>
        <time>2018-05-05T07:11:42Z</time>
      </trkpt>
      <trkpt lat="44.56896" lon="2.59001">
        <ele>654</ele>
        <time>2018-05-05T07:12:02Z</time>
      </trkpt>
      <trkpt lat="44.56892" lon="2.59014">
        <ele>654</ele>
        <time>2018-05-05T07:12:10Z</time>
      </trkpt>
      <trkpt lat="44.56884" lon="2.59007">
        <ele>653</ele>
        <time>2018-05-05T07:14:33Z</time>
      </trkpt>
      <trkpt lat="44.56877" lon="2.58998">
        <ele>654</ele>
        <time>2018-05-05T07:14:41Z</time>
      </trkpt>
      <trkpt lat="44.56876" lon="2.58992">
        <ele>654</ele>
        <time>2018-05-05T07:14:45Z</time>
      </trkpt>
      <trkpt lat="44.56875" lon="2.58977">
        <ele>654</ele>
        <time>2018-05-05T07:14:54Z</time>
      </trkpt>
      <trkpt lat="44.56877" lon="2.58976">
        <ele>653</ele>
        <time>2018-05-05T07:15:23Z</time>
      </trkpt>
      <trkpt lat="44.5688" lon="2.58991">
        <ele>654</ele>
        <time>2018-05-05T07:15:34Z</time>
      </trkpt>
      <trkpt lat="44.5689" lon="2.58983">
        <ele>654</ele>
        <time>2018-05-05T07:15:44Z</time>
      </trkpt>
      <trkpt lat="44.56894" lon="2.5897">
        <ele>654</ele>
        <time>2018-05-05T07:15:52Z</time>
      </trkpt>
      <trkpt lat="44.56886" lon="2.58967">
        <ele>655</ele>
        <time>2018-05-05T07:18:14Z</time>
      </trkpt>
      <trkpt lat="44.56893" lon="2.58958">
        <ele>654</ele>
        <time>2018-05-05T07:20:05Z</time>
      </trkpt>
      <trkpt lat="44.5689" lon="2.58954">
        <ele>654</ele>
        <time>2018-05-05T07:20:29Z</time>
      </trkpt>
      <trkpt lat="44.56886" lon="2.58966">
        <ele>654</ele>
        <time>2018-05-05T07:21:23Z</time>
      </trkpt>
      <trkpt lat="44.56899" lon="2.58962">
        <ele>653</ele>
        <time>2018-05-05T07:24:42Z</time>
      </trkpt>
      <trkpt lat="44.56902" lon="2.58956">
        <ele>654</ele>
        <time>2018-05-05T07:25:09Z</time>
      </trkpt>
      <trkpt lat="44.5692" lon="2.58948">
        <ele>653</ele>
        <time>2018-05-05T07:25:38Z</time>
      </trkpt>
      <trkpt lat="44.56921" lon="2.58941">
        <ele>653</ele>
        <time>2018-05-05T07:25:43Z</time>
      </trkpt>
      <trkpt lat="44.5692" lon="2.58935">
        <ele>653</ele>
        <time>2018-05-05T07:25:48Z</time>
      </trkpt>
      <trkpt lat="44.56919" lon="2.58913">
        <ele>653</ele>
        <time>2018-05-05T07:26:01Z</time>
      </trkpt>
      <trkpt lat="44.56929" lon="2.58895">
        <ele>652</ele>
        <time>2018-05-05T07:26:14Z</time>
      </trkpt>
      <trkpt lat="44.56946" lon="2.58876">
        <ele>652</ele>
        <time>2018-05-05T07:26:35Z</time>
      </trkpt>
      <trkpt lat="44.56956" lon="2.58859">
        <ele>651</ele>
        <time>2018-05-05T07:26:51Z</time>
      </trkpt>
      <trkpt lat="44.56961" lon="2.58856">
        <ele>651</ele>
        <time>2018-05-05T07:26:55Z</time>
      </trkpt>
      <trkpt lat="44.56973" lon="2.58845">
        <ele>651</ele>
        <time>2018-05-05T07:27:07Z</time>
      </trkpt>
      <trkpt lat="44.56988" lon="2.58836">
        <ele>649</ele>
        <time>2018-05-05T07:27:20Z</time>
      </trkpt>
      <trkpt lat="44.56993" lon="2.58835">
        <ele>649</ele>
        <time>2018-05-05T07:27:24Z</time>
      </trkpt>
      <trkpt lat="44.57029" lon="2.58806">
        <ele>647</ele>
        <time>2018-05-05T07:27:58Z</time>
      </trkpt>
      <trkpt lat="44.57035" lon="2.58805">
        <ele>647</ele>
        <time>2018-05-05T07:28:02Z</time>
      </trkpt>
      <trkpt lat="44.5704" lon="2.58801">
        <ele>647</ele>
        <time>2018-05-05T07:28:06Z</time>
      </trkpt>
      <trkpt lat="44.5705" lon="2.58782">
        <ele>647</ele>
        <time>2018-05-05T07:28:20Z</time>
      </trkpt>
      <trkpt lat="44.57057" lon="2.58775">
        <ele>647</ele>
        <time>2018-05-05T07:28:26Z</time>
      </trkpt>
      <trkpt lat="44.57064" lon="2.58764">
        <ele>647</ele>
        <time>2018-05-05T07:28:34Z</time>
      </trkpt>
      <trkpt lat="44.57069" lon="2.58743">
        <ele>647</ele>
        <time>2018-05-05T07:28:46Z</time>
      </trkpt>
      <trkpt lat="44.57068" lon="2.58729">
        <ele>647</ele>
        <time>2018-05-05T07:28:53Z</time>
      </trkpt>
      <trkpt lat="44.57075" lon="2.58664">
        <ele>649</ele>
        <time>2018-05-05T07:29:33Z</time>
      </trkpt>
      <trkpt lat="44.57079" lon="2.58658">
        <ele>649</ele>
        <time>2018-05-05T07:29:47Z</time>
      </trkpt>
      <trkpt lat="44.57088" lon="2.58617">
        <ele>650</ele>
        <time>2018-05-05T07:30:14Z</time>
      </trkpt>
      <trkpt lat="44.57121" lon="2.58538">
        <ele>655</ele>
        <time>2018-05-05T07:31:13Z</time>
      </trkpt>
      <trkpt lat="44.57125" lon="2.58533">
        <ele>656</ele>
        <time>2018-05-05T07:31:17Z</time>
      </trkpt>
      <trkpt lat="44.5716" lon="2.58451">
        <ele>657</ele>
        <time>2018-05-05T07:32:13Z</time>
      </trkpt>
      <trkpt lat="44.5717" lon="2.58408">
        <ele>657</ele>
        <time>2018-05-05T07:32:38Z</time>
      </trkpt>
      <trkpt lat="44.57184" lon="2.58273">
        <ele>654</ele>
        <time>2018-05-05T07:33:54Z</time>
      </trkpt>
      <trkpt lat="44.57295" lon="2.57934">
        <ele>656</ele>
        <time>2018-05-05T07:37:28Z</time>
      </trkpt>
      <trkpt lat="44.57297" lon="2.57925">
        <ele>656</ele>
        <time>2018-05-05T07:37:47Z</time>
      </trkpt>
      <trkpt lat="44.57301" lon="2.57918">
        <ele>656</ele>
        <time>2018-05-05T07:38:04Z</time>
      </trkpt>
      <trkpt lat="44.57328" lon="2.57851">
        <ele>657</ele>
        <time>2018-05-05T07:38:48Z</time>
      </trkpt>
      <trkpt lat="44.57329" lon="2.57844">
        <ele>657</ele>
        <time>2018-05-05T07:38:52Z</time>
      </trkpt>
      <trkpt lat="44.57372" lon="2.5774">
        <ele>659</ele>
        <time>2018-05-05T07:40:39Z</time>
      </trkpt>
      <trkpt lat="44.57375" lon="2.57728">
        <ele>659</ele>
        <time>2018-05-05T07:40:48Z</time>
      </trkpt>
      <trkpt lat="44.57395" lon="2.57687">
        <ele>660</ele>
        <time>2018-05-05T07:41:18Z</time>
      </trkpt>
      <trkpt lat="44.57401" lon="2.57667">
        <ele>661</ele>
        <time>2018-05-05T07:41:30Z</time>
      </trkpt>
      <trkpt lat="44.57402" lon="2.57661">
        <ele>661</ele>
        <time>2018-05-05T07:41:34Z</time>
      </trkpt>
      <trkpt lat="44.57401" lon="2.57639">
        <ele>661</ele>
        <time>2018-05-05T07:41:47Z</time>
      </trkpt>
      <trkpt lat="44.5739" lon="2.57612">
        <ele>661</ele>
        <time>2018-05-05T07:42:03Z</time>
      </trkpt>
      <trkpt lat="44.57293" lon="2.57416">
        <ele>659</ele>
        <time>2018-05-05T07:44:15Z</time>
      </trkpt>
      <trkpt lat="44.57272" lon="2.57363">
        <ele>659</ele>
        <time>2018-05-05T07:44:47Z</time>
      </trkpt>
      <trkpt lat="44.57222" lon="2.57267">
        <ele>658</ele>
        <time>2018-05-05T07:45:51Z</time>
      </trkpt>
      <trkpt lat="44.57196" lon="2.57166">
        <ele>657</ele>
        <time>2018-05-05T07:46:51Z</time>
      </trkpt>
      <trkpt lat="44.57189" lon="2.57157">
        <ele>658</ele>
        <time>2018-05-05T07:46:59Z</time>
      </trkpt>
      <trkpt lat="44.57162" lon="2.57135">
        <ele>659</ele>
        <time>2018-05-05T07:47:24Z</time>
      </trkpt>
      <trkpt lat="44.57155" lon="2.57126">
        <ele>659</ele>
        <time>2018-05-05T07:47:32Z</time>
      </trkpt>
      <trkpt lat="44.57093" lon="2.57067">
        <ele>655</ele>
        <time>2018-05-05T07:48:28Z</time>
      </trkpt>
      <trkpt lat="44.57063" lon="2.57022">
        <ele>653</ele>
        <time>2018-05-05T07:49:00Z</time>
      </trkpt>
      <trkpt lat="44.57051" lon="2.56998">
        <ele>652</ele>
        <time>2018-05-05T07:49:16Z</time>
      </trkpt>
      <trkpt lat="44.57039" lon="2.56965">
        <ele>652</ele>
        <time>2018-05-05T07:49:37Z</time>
      </trkpt>
      <trkpt lat="44.57037" lon="2.56958">
        <ele>651</ele>
        <time>2018-05-05T07:49:41Z</time>
      </trkpt>
      <trkpt lat="44.57038" lon="2.56951">
        <ele>651</ele>
        <time>2018-05-05T07:49:45Z</time>
      </trkpt>
      <trkpt lat="44.5704" lon="2.56944">
        <ele>651</ele>
        <time>2018-05-05T07:49:49Z</time>
      </trkpt>
      <trkpt lat="44.57086" lon="2.56869">
        <ele>651</ele>
        <time>2018-05-05T07:50:45Z</time>
      </trkpt>
      <trkpt lat="44.57096" lon="2.56849">
        <ele>651</ele>
        <time>2018-05-05T07:50:57Z</time>
      </trkpt>
      <trkpt lat="44.57099" lon="2.56829">
        <ele>650</ele>
        <time>2018-05-05T07:51:07Z</time>
      </trkpt>
      <trkpt lat="44.57103" lon="2.56816">
        <ele>649</ele>
        <time>2018-05-05T07:51:16Z</time>
      </trkpt>
      <trkpt lat="44.57104" lon="2.56809">
        <ele>649</ele>
        <time>2018-05-05T07:51:19Z</time>
      </trkpt>
      <trkpt lat="44.57106" lon="2.56802">
        <ele>649</ele>
        <time>2018-05-05T07:51:23Z</time>
      </trkpt>
      <trkpt lat="44.5711" lon="2.56796">
        <ele>648</ele>
        <time>2018-05-05T07:51:28Z</time>
      </trkpt>
      <trkpt lat="44.57119" lon="2.56741">
        <ele>646</ele>
        <time>2018-05-05T07:51:59Z</time>
      </trkpt>
      <trkpt lat="44.57119" lon="2.56725">
        <ele>646</ele>
        <time>2018-05-05T07:52:07Z</time>
      </trkpt>
      <trkpt lat="44.57122" lon="2.56718">
        <ele>646</ele>
        <time>2018-05-05T07:52:12Z</time>
      </trkpt>
      <trkpt lat="44.57124" lon="2.56696">
        <ele>645</ele>
        <time>2018-05-05T07:52:24Z</time>
      </trkpt>
      <trkpt lat="44.57123" lon="2.56631">
        <ele>644</ele>
        <time>2018-05-05T07:52:59Z</time>
      </trkpt>
      <trkpt lat="44.57125" lon="2.56638">
        <ele>645</ele>
        <time>2018-05-05T07:53:42Z</time>
      </trkpt>
      <trkpt lat="44.57126" lon="2.56652">
        <ele>645</ele>
        <time>2018-05-05T07:53:50Z</time>
      </trkpt>
      <trkpt lat="44.57129" lon="2.56658">
        <ele>644</ele>
        <time>2018-05-05T07:53:54Z</time>
      </trkpt>
      <trkpt lat="44.57131" lon="2.56665">
        <ele>643</ele>
        <time>2018-05-05T07:53:59Z</time>
      </trkpt>
      <trkpt lat="44.57146" lon="2.56691">
        <ele>641</ele>
        <time>2018-05-05T07:54:21Z</time>
      </trkpt>
      <trkpt lat="44.57161" lon="2.56697">
        <ele>640</ele>
        <time>2018-05-05T07:54:33Z</time>
      </trkpt>
      <trkpt lat="44.57167" lon="2.56697">
        <ele>639</ele>
        <time>2018-05-05T07:54:37Z</time>
      </trkpt>
      <trkpt lat="44.572" lon="2.56685">
        <ele>639</ele>
        <time>2018-05-05T07:55:09Z</time>
      </trkpt>
      <trkpt lat="44.57213" lon="2.56682">
        <ele>638</ele>
        <time>2018-05-05T07:55:21Z</time>
      </trkpt>
      <trkpt lat="44.57218" lon="2.56682">
        <ele>638</ele>
        <time>2018-05-05T07:55:25Z</time>
      </trkpt>
      <trkpt lat="44.57254" lon="2.56663">
        <ele>634</ele>
        <time>2018-05-05T07:56:18Z</time>
      </trkpt>
      <trkpt lat="44.57263" lon="2.56657">
        <ele>633</ele>
        <time>2018-05-05T07:56:27Z</time>
      </trkpt>
      <trkpt lat="44.57273" lon="2.56642">
        <ele>632</ele>
        <time>2018-05-05T07:56:39Z</time>
      </trkpt>
      <trkpt lat="44.57288" lon="2.56633">
        <ele>631</ele>
        <time>2018-05-05T07:56:53Z</time>
      </trkpt>
      <trkpt lat="44.57292" lon="2.56628">
        <ele>631</ele>
        <time>2018-05-05T07:56:58Z</time>
      </trkpt>
      <trkpt lat="44.57302" lon="2.56622">
        <ele>630</ele>
        <time>2018-05-05T07:57:06Z</time>
      </trkpt>
      <trkpt lat="44.57307" lon="2.56621">
        <ele>629</ele>
        <time>2018-05-05T07:57:10Z</time>
      </trkpt>
      <trkpt lat="44.57312" lon="2.56622">
        <ele>629</ele>
        <time>2018-05-05T07:57:14Z</time>
      </trkpt>
      <trkpt lat="44.57329" lon="2.56633">
        <ele>628</ele>
        <time>2018-05-05T07:57:27Z</time>
      </trkpt>
      <trkpt lat="44.57334" lon="2.56633">
        <ele>627</ele>
        <time>2018-05-05T07:57:31Z</time>
      </trkpt>
      <trkpt lat="44.57338" lon="2.56629">
        <ele>627</ele>
        <time>2018-05-05T07:57:36Z</time>
      </trkpt>
      <trkpt lat="44.57352" lon="2.56592">
        <ele>628</ele>
        <time>2018-05-05T07:57:59Z</time>
      </trkpt>
      <trkpt lat="44.57355" lon="2.56586">
        <ele>628</ele>
        <time>2018-05-05T07:58:04Z</time>
      </trkpt>
      <trkpt lat="44.57361" lon="2.56566">
        <ele>629</ele>
        <time>2018-05-05T07:58:18Z</time>
      </trkpt>
      <trkpt lat="44.57367" lon="2.56548">
        <ele>631</ele>
        <time>2018-05-05T07:58:30Z</time>
      </trkpt>
      <trkpt lat="44.57368" lon="2.56542">
        <ele>631</ele>
        <time>2018-05-05T07:58:34Z</time>
      </trkpt>
      <trkpt lat="44.57371" lon="2.56535">
        <ele>632</ele>
        <time>2018-05-05T07:58:39Z</time>
      </trkpt>
      <trkpt lat="44.57371" lon="2.56528">
        <ele>632</ele>
        <time>2018-05-05T07:58:44Z</time>
      </trkpt>
      <trkpt lat="44.57374" lon="2.56521">
        <ele>632</ele>
        <time>2018-05-05T07:58:49Z</time>
      </trkpt>
      <trkpt lat="44.57382" lon="2.56479">
        <ele>630</ele>
        <time>2018-05-05T07:59:13Z</time>
      </trkpt>
      <trkpt lat="44.57382" lon="2.56441">
        <ele>628</ele>
        <time>2018-05-05T07:59:31Z</time>
      </trkpt>
      <trkpt lat="44.57386" lon="2.56396">
        <ele>625</ele>
        <time>2018-05-05T07:59:54Z</time>
      </trkpt>
      <trkpt lat="44.57392" lon="2.56384">
        <ele>625</ele>
        <time>2018-05-05T08:00:02Z</time>
      </trkpt>
      <trkpt lat="44.57395" lon="2.56379">
        <ele>624</ele>
        <time>2018-05-05T08:00:06Z</time>
      </trkpt>
      <trkpt lat="44.57406" lon="2.56372">
        <ele>623</ele>
        <time>2018-05-05T08:00:20Z</time>
      </trkpt>
      <trkpt lat="44.57443" lon="2.56334">
        <ele>620</ele>
        <time>2018-05-05T08:00:54Z</time>
      </trkpt>
      <trkpt lat="44.57447" lon="2.56328">
        <ele>619</ele>
        <time>2018-05-05T08:00:58Z</time>
      </trkpt>
      <trkpt lat="44.57455" lon="2.56308">
        <ele>618</ele>
        <time>2018-05-05T08:01:10Z</time>
      </trkpt>
      <trkpt lat="44.57456" lon="2.563">
        <ele>617</ele>
        <time>2018-05-05T08:01:14Z</time>
      </trkpt>
      <trkpt lat="44.57464" lon="2.5628">
        <ele>616</ele>
        <time>2018-05-05T08:01:30Z</time>
      </trkpt>
      <trkpt lat="44.57466" lon="2.56265">
        <ele>615</ele>
        <time>2018-05-05T08:01:38Z</time>
      </trkpt>
      <trkpt lat="44.57491" lon="2.5624">
        <ele>612</ele>
        <time>2018-05-05T08:02:01Z</time>
      </trkpt>
      <trkpt lat="44.5751" lon="2.56187">
        <ele>609</ele>
        <time>2018-05-05T08:02:34Z</time>
      </trkpt>
      <trkpt lat="44.57515" lon="2.5618">
        <ele>608</ele>
        <time>2018-05-05T08:02:41Z</time>
      </trkpt>
      <trkpt lat="44.5753" lon="2.56142">
        <ele>606</ele>
        <time>2018-05-05T08:03:04Z</time>
      </trkpt>
      <trkpt lat="44.57534" lon="2.56149">
        <ele>607</ele>
        <time>2018-05-05T08:03:17Z</time>
      </trkpt>
      <trkpt lat="44.57539" lon="2.56144">
        <ele>606</ele>
        <time>2018-05-05T08:03:22Z</time>
      </trkpt>
      <trkpt lat="44.57538" lon="2.56136">
        <ele>607</ele>
        <time>2018-05-05T08:03:27Z</time>
      </trkpt>
      <trkpt lat="44.57539" lon="2.56129">
        <ele>607</ele>
        <time>2018-05-05T08:03:31Z</time>
      </trkpt>
      <trkpt lat="44.57543" lon="2.56123">
        <ele>607</ele>
        <time>2018-05-05T08:03:35Z</time>
      </trkpt>
      <trkpt lat="44.57555" lon="2.56075">
        <ele>611</ele>
        <time>2018-05-05T08:04:08Z</time>
      </trkpt>
      <trkpt lat="44.57559" lon="2.5607">
        <ele>611</ele>
        <time>2018-05-05T08:04:12Z</time>
      </trkpt>
      <trkpt lat="44.57567" lon="2.56065">
        <ele>613</ele>
        <time>2018-05-05T08:04:21Z</time>
      </trkpt>
      <trkpt lat="44.57571" lon="2.56061">
        <ele>613</ele>
        <time>2018-05-05T08:04:26Z</time>
      </trkpt>
      <trkpt lat="44.57586" lon="2.56051">
        <ele>614</ele>
        <time>2018-05-05T08:04:41Z</time>
      </trkpt>
      <trkpt lat="44.5759" lon="2.56046">
        <ele>615</ele>
        <time>2018-05-05T08:04:45Z</time>
      </trkpt>
      <trkpt lat="44.57594" lon="2.56042">
        <ele>615</ele>
        <time>2018-05-05T08:04:50Z</time>
      </trkpt>
      <trkpt lat="44.57598" lon="2.56037">
        <ele>615</ele>
        <time>2018-05-05T08:04:54Z</time>
      </trkpt>
      <trkpt lat="44.57614" lon="2.5602">
        <ele>616</ele>
        <time>2018-05-05T08:05:09Z</time>
      </trkpt>
      <trkpt lat="44.57632" lon="2.55994">
        <ele>617</ele>
        <time>2018-05-05T08:05:32Z</time>
      </trkpt>
      <trkpt lat="44.57644" lon="2.55948">
        <ele>620</ele>
        <time>2018-05-05T08:06:03Z</time>
      </trkpt>
      <trkpt lat="44.57648" lon="2.55943">
        <ele>620</ele>
        <time>2018-05-05T08:06:06Z</time>
      </trkpt>
      <trkpt lat="44.57648" lon="2.55936">
        <ele>620</ele>
        <time>2018-05-05T08:06:10Z</time>
      </trkpt>
      <trkpt lat="44.57652" lon="2.55931">
        <ele>620</ele>
        <time>2018-05-05T08:06:15Z</time>
      </trkpt>
      <trkpt lat="44.57664" lon="2.55925">
        <ele>622</ele>
        <time>2018-05-05T08:06:29Z</time>
      </trkpt>
      <trkpt lat="44.57657" lon="2.55924">
        <ele>621</ele>
        <time>2018-05-05T08:06:47Z</time>
      </trkpt>
      <trkpt lat="44.57652" lon="2.5592">
        <ele>621</ele>
        <time>2018-05-05T08:06:51Z</time>
      </trkpt>
      <trkpt lat="44.57652" lon="2.55912">
        <ele>621</ele>
        <time>2018-05-05T08:06:56Z</time>
      </trkpt>
      <trkpt lat="44.57652" lon="2.55905">
        <ele>621</ele>
        <time>2018-05-05T08:07:01Z</time>
      </trkpt>
      <trkpt lat="44.57648" lon="2.55901">
        <ele>621</ele>
        <time>2018-05-05T08:07:05Z</time>
      </trkpt>
      <trkpt lat="44.57643" lon="2.55898">
        <ele>621</ele>
        <time>2018-05-05T08:07:09Z</time>
      </trkpt>
      <trkpt lat="44.57634" lon="2.55894">
        <ele>622</ele>
        <time>2018-05-05T08:07:45Z</time>
      </trkpt>
      <trkpt lat="44.57616" lon="2.55879">
        <ele>623</ele>
        <time>2018-05-05T08:08:01Z</time>
      </trkpt>
      <trkpt lat="44.57611" lon="2.55873">
        <ele>623</ele>
        <time>2018-05-05T08:08:08Z</time>
      </trkpt>
      <trkpt lat="44.57602" lon="2.55864">
        <ele>624</ele>
        <time>2018-05-05T08:08:16Z</time>
      </trkpt>
      <trkpt lat="44.57596" lon="2.55853">
        <ele>624</ele>
        <time>2018-05-05T08:08:24Z</time>
      </trkpt>
      <trkpt lat="44.57594" lon="2.55847">
        <ele>624</ele>
        <time>2018-05-05T08:08:28Z</time>
      </trkpt>
      <trkpt lat="44.57592" lon="2.55833">
        <ele>624</ele>
        <time>2018-05-05T08:08:36Z</time>
      </trkpt>
      <trkpt lat="44.57593" lon="2.55811">
        <ele>622</ele>
        <time>2018-05-05T08:08:48Z</time>
      </trkpt>
      <trkpt lat="44.57597" lon="2.55798">
        <ele>622</ele>
        <time>2018-05-05T08:08:56Z</time>
      </trkpt>
      <trkpt lat="44.57599" lon="2.55792">
        <ele>621</ele>
        <time>2018-05-05T08:09:00Z</time>
      </trkpt>
      <trkpt lat="44.57608" lon="2.55784">
        <ele>621</ele>
        <time>2018-05-05T08:09:08Z</time>
      </trkpt>
      <trkpt lat="44.57632" lon="2.55769">
        <ele>619</ele>
        <time>2018-05-05T08:09:28Z</time>
      </trkpt>
      <trkpt lat="44.5764" lon="2.5576">
        <ele>619</ele>
        <time>2018-05-05T08:09:36Z</time>
      </trkpt>
      <trkpt lat="44.57643" lon="2.55754">
        <ele>619</ele>
        <time>2018-05-05T08:09:40Z</time>
      </trkpt>
      <trkpt lat="44.5765" lon="2.55743">
        <ele>619</ele>
        <time>2018-05-05T08:09:48Z</time>
      </trkpt>
      <trkpt lat="44.57654" lon="2.55729">
        <ele>619</ele>
        <time>2018-05-05T08:09:56Z</time>
      </trkpt>
      <trkpt lat="44.57676" lon="2.5568">
        <ele>619</ele>
        <time>2018-05-05T08:10:27Z</time>
      </trkpt>
      <trkpt lat="44.57682" lon="2.55652">
        <ele>619</ele>
        <time>2018-05-05T08:10:43Z</time>
      </trkpt>
      <trkpt lat="44.57682" lon="2.55631">
        <ele>619</ele>
        <time>2018-05-05T08:10:55Z</time>
      </trkpt>
      <trkpt lat="44.57671" lon="2.55574">
        <ele>618</ele>
        <time>2018-05-05T08:11:27Z</time>
      </trkpt>
      <trkpt lat="44.57667" lon="2.55517">
        <ele>616</ele>
        <time>2018-05-05T08:11:58Z</time>
      </trkpt>
      <trkpt lat="44.57654" lon="2.55462">
        <ele>616</ele>
        <time>2018-05-05T08:12:30Z</time>
      </trkpt>
      <trkpt lat="44.57655" lon="2.55435">
        <ele>616</ele>
        <time>2018-05-05T08:12:46Z</time>
      </trkpt>
      <trkpt lat="44.57677" lon="2.55322">
        <ele>619</ele>
        <time>2018-05-05T08:14:17Z</time>
      </trkpt>
      <trkpt lat="44.57683" lon="2.55309">
        <ele>619</ele>
        <time>2018-05-05T08:14:25Z</time>
      </trkpt>
      <trkpt lat="44.57698" lon="2.55294">
        <ele>620</ele>
        <time>2018-05-05T08:14:44Z</time>
      </trkpt>
      <trkpt lat="44.57701" lon="2.55289">
        <ele>621</ele>
        <time>2018-05-05T08:14:48Z</time>
      </trkpt>
      <trkpt lat="44.57714" lon="2.55251">
        <ele>624</ele>
        <time>2018-05-05T08:15:16Z</time>
      </trkpt>
      <trkpt lat="44.57722" lon="2.55211">
        <ele>624</ele>
        <time>2018-05-05T08:15:40Z</time>
      </trkpt>
      <trkpt lat="44.57738" lon="2.55162">
        <ele>623</ele>
        <time>2018-05-05T08:16:12Z</time>
      </trkpt>
      <trkpt lat="44.57742" lon="2.55158">
        <ele>623</ele>
        <time>2018-05-05T08:16:16Z</time>
      </trkpt>
      <trkpt lat="44.57747" lon="2.5516">
        <ele>623</ele>
        <time>2018-05-05T08:16:20Z</time>
      </trkpt>
      <trkpt lat="44.5777" lon="2.55176">
        <ele>621</ele>
        <time>2018-05-05T08:17:15Z</time>
      </trkpt>
      <trkpt lat="44.57815" lon="2.55189">
        <ele>617</ele>
        <time>2018-05-05T08:17:50Z</time>
      </trkpt>
      <trkpt lat="44.57825" lon="2.55189">
        <ele>616</ele>
        <time>2018-05-05T08:17:58Z</time>
      </trkpt>
      <trkpt lat="44.5783" lon="2.55189">
        <ele>616</ele>
        <time>2018-05-05T08:18:02Z</time>
      </trkpt>
      <trkpt lat="44.5784" lon="2.55186">
        <ele>616</ele>
        <time>2018-05-05T08:18:10Z</time>
      </trkpt>
      <trkpt lat="44.57875" lon="2.55171">
        <ele>615</ele>
        <time>2018-05-05T08:18:38Z</time>
      </trkpt>
      <trkpt lat="44.57894" lon="2.55168">
        <ele>615</ele>
        <time>2018-05-05T08:18:55Z</time>
      </trkpt>
      <trkpt lat="44.57905" lon="2.55164">
        <ele>615</ele>
        <time>2018-05-05T08:19:04Z</time>
      </trkpt>
      <trkpt lat="44.57915" lon="2.55166">
        <ele>615</ele>
        <time>2018-05-05T08:19:11Z</time>
      </trkpt>
      <trkpt lat="44.57922" lon="2.55163">
        <ele>615</ele>
        <time>2018-05-05T08:19:19Z</time>
      </trkpt>
      <trkpt lat="44.57943" lon="2.55159">
        <ele>616</ele>
        <time>2018-05-05T08:19:36Z</time>
      </trkpt>
      <trkpt lat="44.57947" lon="2.5516">
        <ele>616</ele>
        <time>2018-05-05T08:19:39Z</time>
      </trkpt>
      <trkpt lat="44.57959" lon="2.55159">
        <ele>616</ele>
        <time>2018-05-05T08:19:47Z</time>
      </trkpt>
      <trkpt lat="44.57969" lon="2.55162">
        <ele>616</ele>
        <time>2018-05-05T08:19:55Z</time>
      </trkpt>
      <trkpt lat="44.58" lon="2.55178">
        <ele>614</ele>
        <time>2018-05-05T08:20:19Z</time>
      </trkpt>
      <trkpt lat="44.58004" lon="2.55183">
        <ele>614</ele>
        <time>2018-05-05T08:20:23Z</time>
      </trkpt>
      <trkpt lat="44.5802" lon="2.5519">
        <ele>613</ele>
        <time>2018-05-05T08:20:34Z</time>
      </trkpt>
      <trkpt lat="44.58059" lon="2.55221">
        <ele>612</ele>
        <time>2018-05-05T08:21:09Z</time>
      </trkpt>
      <trkpt lat="44.58064" lon="2.55223">
        <ele>612</ele>
        <time>2018-05-05T08:21:13Z</time>
      </trkpt>
      <trkpt lat="44.58069" lon="2.55221">
        <ele>612</ele>
        <time>2018-05-05T08:21:18Z</time>
      </trkpt>
      <trkpt lat="44.58104" lon="2.55196">
        <ele>613</ele>
        <time>2018-05-05T08:21:49Z</time>
      </trkpt>
      <trkpt lat="44.58108" lon="2.55194">
        <ele>613</ele>
        <time>2018-05-05T08:21:53Z</time>
      </trkpt>
      <trkpt lat="44.58143" lon="2.55166">
        <ele>614</ele>
        <time>2018-05-05T08:22:26Z</time>
      </trkpt>
      <trkpt lat="44.58166" lon="2.55153">
        <ele>615</ele>
        <time>2018-05-05T08:22:47Z</time>
      </trkpt>
      <trkpt lat="44.58178" lon="2.5515">
        <ele>615</ele>
        <time>2018-05-05T08:23:01Z</time>
      </trkpt>
      <trkpt lat="44.58199" lon="2.55151">
        <ele>616</ele>
        <time>2018-05-05T08:23:16Z</time>
      </trkpt>
      <trkpt lat="44.58229" lon="2.55162">
        <ele>618</ele>
        <time>2018-05-05T08:23:43Z</time>
      </trkpt>
      <trkpt lat="44.58257" lon="2.5518">
        <ele>616</ele>
        <time>2018-05-05T08:24:07Z</time>
      </trkpt>
      <trkpt lat="44.58283" lon="2.55201">
        <ele>616</ele>
        <time>2018-05-05T08:24:31Z</time>
      </trkpt>
      <trkpt lat="44.58293" lon="2.55206">
        <ele>615</ele>
        <time>2018-05-05T08:24:39Z</time>
      </trkpt>
      <trkpt lat="44.58298" lon="2.55207">
        <ele>615</ele>
        <time>2018-05-05T08:24:43Z</time>
      </trkpt>
      <trkpt lat="44.58307" lon="2.55202">
        <ele>614</ele>
        <time>2018-05-05T08:24:51Z</time>
      </trkpt>
      <trkpt lat="44.58321" lon="2.5519">
        <ele>612</ele>
        <time>2018-05-05T08:25:03Z</time>
      </trkpt>
      <trkpt lat="44.58342" lon="2.55184">
        <ele>611</ele>
        <time>2018-05-05T08:25:19Z</time>
      </trkpt>
      <trkpt lat="44.58351" lon="2.55176">
        <ele>610</ele>
        <time>2018-05-05T08:25:28Z</time>
      </trkpt>
      <trkpt lat="44.58379" lon="2.55113">
        <ele>613</ele>
        <time>2018-05-05T08:26:40Z</time>
      </trkpt>
      <trkpt lat="44.58398" lon="2.55089">
        <ele>614</ele>
        <time>2018-05-05T08:27:06Z</time>
      </trkpt>
      <trkpt lat="44.58406" lon="2.55078">
        <ele>615</ele>
        <time>2018-05-05T08:27:15Z</time>
      </trkpt>
      <trkpt lat="44.58412" lon="2.55062">
        <ele>615</ele>
        <time>2018-05-05T08:27:48Z</time>
      </trkpt>
      <trkpt lat="44.58419" lon="2.55055">
        <ele>615</ele>
        <time>2018-05-05T08:28:00Z</time>
      </trkpt>
      <trkpt lat="44.5842" lon="2.55047">
        <ele>614</ele>
        <time>2018-05-05T08:28:05Z</time>
      </trkpt>
      <trkpt lat="44.58428" lon="2.55028">
        <ele>613</ele>
        <time>2018-05-05T08:28:16Z</time>
      </trkpt>
      <trkpt lat="44.58433" lon="2.55005">
        <ele>612</ele>
        <time>2018-05-05T08:28:29Z</time>
      </trkpt>
      <trkpt lat="44.58435" lon="2.54985">
        <ele>611</ele>
        <time>2018-05-05T08:28:40Z</time>
      </trkpt>
      <trkpt lat="44.58438" lon="2.54979">
        <ele>611</ele>
        <time>2018-05-05T08:28:44Z</time>
      </trkpt>
      <trkpt lat="44.58463" lon="2.54953">
        <ele>609</ele>
        <time>2018-05-05T08:29:07Z</time>
      </trkpt>
      <trkpt lat="44.58467" lon="2.5495">
        <ele>609</ele>
        <time>2018-05-05T08:29:12Z</time>
      </trkpt>
      <trkpt lat="44.58472" lon="2.54948">
        <ele>609</ele>
        <time>2018-05-05T08:29:31Z</time>
      </trkpt>
      <trkpt lat="44.5848" lon="2.54942">
        <ele>609</ele>
        <time>2018-05-05T08:29:39Z</time>
      </trkpt>
      <trkpt lat="44.58512" lon="2.54942">
        <ele>609</ele>
        <time>2018-05-05T08:30:03Z</time>
      </trkpt>
      <trkpt lat="44.58527" lon="2.54946">
        <ele>609</ele>
        <time>2018-05-05T08:30:15Z</time>
      </trkpt>
      <trkpt lat="44.58549" lon="2.54972">
        <ele>610</ele>
        <time>2018-05-05T08:30:39Z</time>
      </trkpt>
      <trkpt lat="44.58559" lon="2.54977">
        <ele>611</ele>
        <time>2018-05-05T08:30:48Z</time>
      </trkpt>
      <trkpt lat="44.58609" lon="2.54988">
        <ele>612</ele>
        <time>2018-05-05T08:31:32Z</time>
      </trkpt>
      <trkpt lat="44.58614" lon="2.54986">
        <ele>613</ele>
        <time>2018-05-05T08:31:36Z</time>
      </trkpt>
      <trkpt lat="44.58618" lon="2.54981">
        <ele>613</ele>
        <time>2018-05-05T08:31:40Z</time>
      </trkpt>
      <trkpt lat="44.58623" lon="2.5498">
        <ele>613</ele>
        <time>2018-05-05T08:31:44Z</time>
      </trkpt>
      <trkpt lat="44.58628" lon="2.5498">
        <ele>613</ele>
        <time>2018-05-05T08:31:49Z</time>
      </trkpt>
      <trkpt lat="44.58631" lon="2.54973">
        <ele>613</ele>
        <time>2018-05-05T08:31:55Z</time>
      </trkpt>
      <trkpt lat="44.58635" lon="2.5496">
        <ele>612</ele>
        <time>2018-05-05T08:32:03Z</time>
      </trkpt>
      <trkpt lat="44.58639" lon="2.54956">
        <ele>612</ele>
        <time>2018-05-05T08:32:08Z</time>
      </trkpt>
      <trkpt lat="44.58672" lon="2.54941">
        <ele>611</ele>
        <time>2018-05-05T08:32:35Z</time>
      </trkpt>
      <trkpt lat="44.58676" lon="2.54937">
        <ele>611</ele>
        <time>2018-05-05T08:32:39Z</time>
      </trkpt>
      <trkpt lat="44.58681" lon="2.54934">
        <ele>611</ele>
        <time>2018-05-05T08:32:42Z</time>
      </trkpt>
      <trkpt lat="44.58685" lon="2.5493">
        <ele>611</ele>
        <time>2018-05-05T08:32:45Z</time>
      </trkpt>
      <trkpt lat="44.58693" lon="2.54912">
        <ele>611</ele>
        <time>2018-05-05T08:32:56Z</time>
      </trkpt>
      <trkpt lat="44.58704" lon="2.54903">
        <ele>611</ele>
        <time>2018-05-05T08:33:19Z</time>
      </trkpt>
      <trkpt lat="44.58756" lon="2.54876">
        <ele>612</ele>
        <time>2018-05-05T08:34:08Z</time>
      </trkpt>
      <trkpt lat="44.58759" lon="2.5487">
        <ele>613</ele>
        <time>2018-05-05T08:34:19Z</time>
      </trkpt>
      <trkpt lat="44.58924" lon="2.54801">
        <ele>625</ele>
        <time>2018-05-05T08:36:57Z</time>
      </trkpt>
      <trkpt lat="44.58949" lon="2.54794">
        <ele>624</ele>
        <time>2018-05-05T08:37:19Z</time>
      </trkpt>
      <trkpt lat="44.58953" lon="2.5479">
        <ele>623</ele>
        <time>2018-05-05T08:37:29Z</time>
      </trkpt>
      <trkpt lat="44.58955" lon="2.54783">
        <ele>623</ele>
        <time>2018-05-05T08:38:13Z</time>
      </trkpt>
      <trkpt lat="44.58951" lon="2.54749">
        <ele>620</ele>
        <time>2018-05-05T08:38:33Z</time>
      </trkpt>
      <trkpt lat="44.58951" lon="2.54727">
        <ele>617</ele>
        <time>2018-05-05T08:38:48Z</time>
      </trkpt>
      <trkpt lat="44.5896" lon="2.54665">
        <ele>611</ele>
        <time>2018-05-05T08:39:26Z</time>
      </trkpt>
      <trkpt lat="44.58972" lon="2.5464">
        <ele>608</ele>
        <time>2018-05-05T08:39:42Z</time>
      </trkpt>
      <trkpt lat="44.58981" lon="2.54632">
        <ele>607</ele>
        <time>2018-05-05T08:39:50Z</time>
      </trkpt>
      <trkpt lat="44.58991" lon="2.54627">
        <ele>607</ele>
        <time>2018-05-05T08:39:58Z</time>
      </trkpt>
      <trkpt lat="44.59059" lon="2.54549">
        <ele>603</ele>
        <time>2018-05-05T08:41:11Z</time>
      </trkpt>
      <trkpt lat="44.59068" lon="2.54541">
        <ele>602</ele>
        <time>2018-05-05T08:41:20Z</time>
      </trkpt>
      <trkpt lat="44.59108" lon="2.54521">
        <ele>599</ele>
        <time>2018-05-05T08:41:53Z</time>
      </trkpt>
      <trkpt lat="44.59113" lon="2.5452">
        <ele>599</ele>
        <time>2018-05-05T08:41:57Z</time>
      </trkpt>
      <trkpt lat="44.59122" lon="2.54516">
        <ele>598</ele>
        <time>2018-05-05T08:42:05Z</time>
      </trkpt>
      <trkpt lat="44.59131" lon="2.54508">
        <ele>597</ele>
        <time>2018-05-05T08:42:13Z</time>
      </trkpt>
      <trkpt lat="44.5915" lon="2.54477">
        <ele>595</ele>
        <time>2018-05-05T08:42:38Z</time>
      </trkpt>
      <trkpt lat="44.59158" lon="2.5446">
        <ele>594</ele>
        <time>2018-05-05T08:42:50Z</time>
      </trkpt>
      <trkpt lat="44.59176" lon="2.54436">
        <ele>591</ele>
        <time>2018-05-05T08:43:11Z</time>
      </trkpt>
      <trkpt lat="44.59177" lon="2.54429">
        <ele>590</ele>
        <time>2018-05-05T08:43:15Z</time>
      </trkpt>
      <trkpt lat="44.59176" lon="2.54423">
        <ele>590</ele>
        <time>2018-05-05T08:43:19Z</time>
      </trkpt>
      <trkpt lat="44.59173" lon="2.54418">
        <ele>589</ele>
        <time>2018-05-05T08:43:24Z</time>
      </trkpt>
      <trkpt lat="44.59157" lon="2.54413">
        <ele>587</ele>
        <time>2018-05-05T08:43:39Z</time>
      </trkpt>
      <trkpt lat="44.59152" lon="2.5441">
        <ele>586</ele>
        <time>2018-05-05T08:43:43Z</time>
      </trkpt>
      <trkpt lat="44.59149" lon="2.54404">
        <ele>585</ele>
        <time>2018-05-05T08:43:47Z</time>
      </trkpt>
      <trkpt lat="44.59121" lon="2.54284">
        <ele>575</ele>
        <time>2018-05-05T08:45:14Z</time>
      </trkpt>
      <trkpt lat="44.59118" lon="2.54256">
        <ele>571</ele>
        <time>2018-05-05T08:45:29Z</time>
      </trkpt>
      <trkpt lat="44.59115" lon="2.54252">
        <ele>570</ele>
        <time>2018-05-05T08:45:33Z</time>
      </trkpt>
      <trkpt lat="44.59106" lon="2.54253">
        <ele>569</ele>
        <time>2018-05-05T08:45:42Z</time>
      </trkpt>
      <trkpt lat="44.59102" lon="2.54256">
        <ele>569</ele>
        <time>2018-05-05T08:45:46Z</time>
      </trkpt>
      <trkpt lat="44.59098" lon="2.54257">
        <ele>568</ele>
        <time>2018-05-05T08:45:50Z</time>
      </trkpt>
      <trkpt lat="44.59096" lon="2.54251">
        <ele>568</ele>
        <time>2018-05-05T08:45:54Z</time>
      </trkpt>
      <trkpt lat="44.59096" lon="2.54244">
        <ele>567</ele>
        <time>2018-05-05T08:45:58Z</time>
      </trkpt>
      <trkpt lat="44.59094" lon="2.54238">
        <ele>566</ele>
        <time>2018-05-05T08:46:02Z</time>
      </trkpt>
      <trkpt lat="44.59088" lon="2.54222">
        <ele>564</ele>
        <time>2018-05-05T08:46:20Z</time>
      </trkpt>
      <trkpt lat="44.59089" lon="2.54214">
        <ele>563</ele>
        <time>2018-05-05T08:46:25Z</time>
      </trkpt>
      <trkpt lat="44.59097" lon="2.54189">
        <ele>560</ele>
        <time>2018-05-05T08:46:41Z</time>
      </trkpt>
      <trkpt lat="44.59104" lon="2.54179">
        <ele>559</ele>
        <time>2018-05-05T08:46:49Z</time>
      </trkpt>
      <trkpt lat="44.59113" lon="2.54171">
        <ele>558</ele>
        <time>2018-05-05T08:46:58Z</time>
      </trkpt>
      <trkpt lat="44.59118" lon="2.54168">
        <ele>558</ele>
        <time>2018-05-05T08:47:03Z</time>
      </trkpt>
      <trkpt lat="44.59129" lon="2.54167">
        <ele>557</ele>
        <time>2018-05-05T08:47:11Z</time>
      </trkpt>
      <trkpt lat="44.59138" lon="2.54164">
        <ele>556</ele>
        <time>2018-05-05T08:47:19Z</time>
      </trkpt>
      <trkpt lat="44.59144" lon="2.54153">
        <ele>555</ele>
        <time>2018-05-05T08:47:27Z</time>
      </trkpt>
      <trkpt lat="44.59148" lon="2.5415">
        <ele>555</ele>
        <time>2018-05-05T08:47:31Z</time>
      </trkpt>
      <trkpt lat="44.5915" lon="2.54143">
        <ele>555</ele>
        <time>2018-05-05T08:47:36Z</time>
      </trkpt>
      <trkpt lat="44.59145" lon="2.54129">
        <ele>555</ele>
        <time>2018-05-05T08:47:47Z</time>
      </trkpt>
      <trkpt lat="44.59136" lon="2.54112">
        <ele>555</ele>
        <time>2018-05-05T08:48:01Z</time>
      </trkpt>
      <trkpt lat="44.59128" lon="2.54102">
        <ele>555</ele>
        <time>2018-05-05T08:48:10Z</time>
      </trkpt>
      <trkpt lat="44.5911" lon="2.54092">
        <ele>556</ele>
        <time>2018-05-05T08:48:27Z</time>
      </trkpt>
      <trkpt lat="44.59106" lon="2.54086">
        <ele>556</ele>
        <time>2018-05-05T08:48:31Z</time>
      </trkpt>
      <trkpt lat="44.59103" lon="2.54072">
        <ele>556</ele>
        <time>2018-05-05T08:48:39Z</time>
      </trkpt>
      <trkpt lat="44.59103" lon="2.53998">
        <ele>553</ele>
        <time>2018-05-05T08:49:19Z</time>
      </trkpt>
      <trkpt lat="44.59107" lon="2.53976">
        <ele>551</ele>
        <time>2018-05-05T08:49:31Z</time>
      </trkpt>
      <trkpt lat="44.59114" lon="2.53966">
        <ele>551</ele>
        <time>2018-05-05T08:49:39Z</time>
      </trkpt>
      <trkpt lat="44.59133" lon="2.53943">
        <ele>549</ele>
        <time>2018-05-05T08:49:59Z</time>
      </trkpt>
      <trkpt lat="44.59211" lon="2.53879">
        <ele>542</ele>
        <time>2018-05-05T08:51:12Z</time>
      </trkpt>
      <trkpt lat="44.59217" lon="2.53878">
        <ele>543</ele>
        <time>2018-05-05T08:51:23Z</time>
      </trkpt>
      <trkpt lat="44.59226" lon="2.53873">
        <ele>543</ele>
        <time>2018-05-05T08:51:50Z</time>
      </trkpt>
      <trkpt lat="44.59251" lon="2.53869">
        <ele>543</ele>
        <time>2018-05-05T08:52:10Z</time>
      </trkpt>
      <trkpt lat="44.59267" lon="2.53873">
        <ele>542</ele>
        <time>2018-05-05T08:52:24Z</time>
      </trkpt>
      <trkpt lat="44.59282" lon="2.5388">
        <ele>541</ele>
        <time>2018-05-05T08:52:38Z</time>
      </trkpt>
      <trkpt lat="44.59291" lon="2.53881">
        <ele>540</ele>
        <time>2018-05-05T08:52:45Z</time>
      </trkpt>
      <trkpt lat="44.59297" lon="2.53876">
        <ele>539</ele>
        <time>2018-05-05T08:52:53Z</time>
      </trkpt>
      <trkpt lat="44.59308" lon="2.53876">
        <ele>538</ele>
        <time>2018-05-05T08:53:02Z</time>
      </trkpt>
      <trkpt lat="44.59313" lon="2.53871">
        <ele>538</ele>
        <time>2018-05-05T08:53:05Z</time>
      </trkpt>
      <trkpt lat="44.59318" lon="2.53869">
        <ele>538</ele>
        <time>2018-05-05T08:53:09Z</time>
      </trkpt>
      <trkpt lat="44.59335" lon="2.53875">
        <ele>536</ele>
        <time>2018-05-05T08:53:27Z</time>
      </trkpt>
      <trkpt lat="44.59342" lon="2.53871">
        <ele>535</ele>
        <time>2018-05-05T08:53:32Z</time>
      </trkpt>
      <trkpt lat="44.59346" lon="2.53871">
        <ele>534</ele>
        <time>2018-05-05T08:53:35Z</time>
      </trkpt>
      <trkpt lat="44.59352" lon="2.53868">
        <ele>534</ele>
        <time>2018-05-05T08:53:39Z</time>
      </trkpt>
      <trkpt lat="44.59355" lon="2.53864">
        <ele>533</ele>
        <time>2018-05-05T08:53:43Z</time>
      </trkpt>
      <trkpt lat="44.5936" lon="2.53851">
        <ele>533</ele>
        <time>2018-05-05T08:53:51Z</time>
      </trkpt>
      <trkpt lat="44.59362" lon="2.5384">
        <ele>532</ele>
        <time>2018-05-05T08:54:02Z</time>
      </trkpt>
      <trkpt lat="44.59362" lon="2.53833">
        <ele>532</ele>
        <time>2018-05-05T08:54:07Z</time>
      </trkpt>
      <trkpt lat="44.59352" lon="2.53824">
        <ele>533</ele>
        <time>2018-05-05T08:54:18Z</time>
      </trkpt>
      <trkpt lat="44.59349" lon="2.53819">
        <ele>532</ele>
        <time>2018-05-05T08:54:22Z</time>
      </trkpt>
      <trkpt lat="44.59347" lon="2.53812">
        <ele>532</ele>
        <time>2018-05-05T08:54:26Z</time>
      </trkpt>
      <trkpt lat="44.59348" lon="2.53805">
        <ele>532</ele>
        <time>2018-05-05T08:54:29Z</time>
      </trkpt>
      <trkpt lat="44.5936" lon="2.53783">
        <ele>531</ele>
        <time>2018-05-05T08:54:42Z</time>
      </trkpt>
      <trkpt lat="44.59362" lon="2.53777">
        <ele>530</ele>
        <time>2018-05-05T08:54:45Z</time>
      </trkpt>
      <trkpt lat="44.59363" lon="2.5377">
        <ele>530</ele>
        <time>2018-05-05T08:54:49Z</time>
      </trkpt>
      <trkpt lat="44.59358" lon="2.53756">
        <ele>530</ele>
        <time>2018-05-05T08:55:02Z</time>
      </trkpt>
      <trkpt lat="44.59356" lon="2.53748">
        <ele>530</ele>
        <time>2018-05-05T08:55:07Z</time>
      </trkpt>
      <trkpt lat="44.59319" lon="2.537">
        <ele>533</ele>
        <time>2018-05-05T08:55:53Z</time>
      </trkpt>
      <trkpt lat="44.59293" lon="2.53676">
        <ele>533</ele>
        <time>2018-05-05T08:56:17Z</time>
      </trkpt>
      <trkpt lat="44.59288" lon="2.53663">
        <ele>534</ele>
        <time>2018-05-05T08:56:25Z</time>
      </trkpt>
      <trkpt lat="44.59282" lon="2.53636">
        <ele>535</ele>
        <time>2018-05-05T08:56:42Z</time>
      </trkpt>
      <trkpt lat="44.59281" lon="2.53628">
        <ele>536</ele>
        <time>2018-05-05T08:56:46Z</time>
      </trkpt>
      <trkpt lat="44.59282" lon="2.53614">
        <ele>537</ele>
        <time>2018-05-05T08:56:56Z</time>
      </trkpt>
      <trkpt lat="44.59281" lon="2.53606">
        <ele>538</ele>
        <time>2018-05-05T08:57:04Z</time>
      </trkpt>
      <trkpt lat="44.59287" lon="2.53579">
        <ele>541</ele>
        <time>2018-05-05T08:57:26Z</time>
      </trkpt>
      <trkpt lat="44.59285" lon="2.5357">
        <ele>542</ele>
        <time>2018-05-05T08:57:33Z</time>
      </trkpt>
      <trkpt lat="44.59287" lon="2.53556">
        <ele>543</ele>
        <time>2018-05-05T08:57:54Z</time>
      </trkpt>
      <trkpt lat="44.59297" lon="2.53535">
        <ele>547</ele>
        <time>2018-05-05T08:58:24Z</time>
      </trkpt>
      <trkpt lat="44.5933" lon="2.53515">
        <ele>552</ele>
        <time>2018-05-05T08:59:13Z</time>
      </trkpt>
      <trkpt lat="44.59353" lon="2.53512">
        <ele>555</ele>
        <time>2018-05-05T08:59:38Z</time>
      </trkpt>
      <trkpt lat="44.59376" lon="2.53504">
        <ele>558</ele>
        <time>2018-05-05T09:00:01Z</time>
      </trkpt>
      <trkpt lat="44.59381" lon="2.53503">
        <ele>558</ele>
        <time>2018-05-05T09:00:05Z</time>
      </trkpt>
      <trkpt lat="44.59385" lon="2.53502">
        <ele>559</ele>
        <time>2018-05-05T09:00:09Z</time>
      </trkpt>
      <trkpt lat="44.594" lon="2.535">
        <ele>559</ele>
        <time>2018-05-05T09:00:22Z</time>
      </trkpt>
      <trkpt lat="44.59405" lon="2.53497">
        <ele>560</ele>
        <time>2018-05-05T09:00:27Z</time>
      </trkpt>
      <trkpt lat="44.59421" lon="2.53492">
        <ele>560</ele>
        <time>2018-05-05T09:00:43Z</time>
      </trkpt>
      <trkpt lat="44.59441" lon="2.53495">
        <ele>560</ele>
        <time>2018-05-05T09:00:59Z</time>
      </trkpt>
      <trkpt lat="44.59446" lon="2.53494">
        <ele>560</ele>
        <time>2018-05-05T09:01:03Z</time>
      </trkpt>
      <trkpt lat="44.59485" lon="2.53529">
        <ele>560</ele>
        <time>2018-05-05T09:01:41Z</time>
      </trkpt>
      <trkpt lat="44.59497" lon="2.53534">
        <ele>560</ele>
        <time>2018-05-05T09:01:53Z</time>
      </trkpt>
      <trkpt lat="44.59502" lon="2.53539">
        <ele>561</ele>
        <time>2018-05-05T09:02:02Z</time>
      </trkpt>
      <trkpt lat="44.59509" lon="2.53549">
        <ele>563</ele>
        <time>2018-05-05T09:02:13Z</time>
      </trkpt>
      <trkpt lat="44.59521" lon="2.53556">
        <ele>565</ele>
        <time>2018-05-05T09:02:29Z</time>
      </trkpt>
      <trkpt lat="44.59556" lon="2.53545">
        <ele>567</ele>
        <time>2018-05-05T09:03:02Z</time>
      </trkpt>
      <trkpt lat="44.5957" lon="2.53537">
        <ele>567</ele>
        <time>2018-05-05T09:03:14Z</time>
      </trkpt>
      <trkpt lat="44.59585" lon="2.53531">
        <ele>566</ele>
        <time>2018-05-05T09:03:27Z</time>
      </trkpt>
      <trkpt lat="44.59603" lon="2.5352">
        <ele>566</ele>
        <time>2018-05-05T09:03:44Z</time>
      </trkpt>
      <trkpt lat="44.59607" lon="2.53515">
        <ele>566</ele>
        <time>2018-05-05T09:03:49Z</time>
      </trkpt>
      <trkpt lat="44.59613" lon="2.53489">
        <ele>566</ele>
        <time>2018-05-05T09:04:09Z</time>
      </trkpt>
      <trkpt lat="44.59621" lon="2.53481">
        <ele>567</ele>
        <time>2018-05-05T09:05:11Z</time>
      </trkpt>
      <trkpt lat="44.59643" lon="2.53472">
        <ele>570</ele>
        <time>2018-05-05T09:05:45Z</time>
      </trkpt>
      <trkpt lat="44.59683" lon="2.53468">
        <ele>575</ele>
        <time>2018-05-05T09:06:24Z</time>
      </trkpt>
      <trkpt lat="44.59695" lon="2.53469">
        <ele>576</ele>
        <time>2018-05-05T09:06:38Z</time>
      </trkpt>
      <trkpt lat="44.59712" lon="2.53477">
        <ele>578</ele>
        <time>2018-05-05T09:06:56Z</time>
      </trkpt>
      <trkpt lat="44.59748" lon="2.53485">
        <ele>583</ele>
        <time>2018-05-05T09:07:45Z</time>
      </trkpt>
      <trkpt lat="44.59764" lon="2.53482">
        <ele>585</ele>
        <time>2018-05-05T09:08:04Z</time>
      </trkpt>
      <trkpt lat="44.59802" lon="2.53457">
        <ele>590</ele>
        <time>2018-05-05T09:08:46Z</time>
      </trkpt>
      <trkpt lat="44.59811" lon="2.53449">
        <ele>590</ele>
        <time>2018-05-05T09:08:55Z</time>
      </trkpt>
      <trkpt lat="44.59834" lon="2.53435">
        <ele>591</ele>
        <time>2018-05-05T09:09:17Z</time>
      </trkpt>
      <trkpt lat="44.59838" lon="2.5343">
        <ele>591</ele>
        <time>2018-05-05T09:09:21Z</time>
      </trkpt>
      <trkpt lat="44.59842" lon="2.53427">
        <ele>591</ele>
        <time>2018-05-05T09:09:26Z</time>
      </trkpt>
      <trkpt lat="44.59852" lon="2.53407">
        <ele>592</ele>
        <time>2018-05-05T09:09:43Z</time>
      </trkpt>
      <trkpt lat="44.59864" lon="2.53377">
        <ele>593</ele>
        <time>2018-05-05T09:10:02Z</time>
      </trkpt>
      <trkpt lat="44.59872" lon="2.5337">
        <ele>595</ele>
        <time>2018-05-05T09:10:11Z</time>
      </trkpt>
      <trkpt lat="44.59883" lon="2.53364">
        <ele>595</ele>
        <time>2018-05-05T09:10:24Z</time>
      </trkpt>
      <trkpt lat="44.59887" lon="2.53359">
        <ele>595</ele>
        <time>2018-05-05T09:10:35Z</time>
      </trkpt>
      <trkpt lat="44.599" lon="2.5335">
        <ele>593</ele>
        <time>2018-05-05T09:11:10Z</time>
      </trkpt>
      <trkpt lat="44.5991" lon="2.53346">
        <ele>592</ele>
        <time>2018-05-05T09:11:18Z</time>
      </trkpt>
      <trkpt lat="44.59931" lon="2.53325">
        <ele>592</ele>
        <time>2018-05-05T09:11:38Z</time>
      </trkpt>
      <trkpt lat="44.59935" lon="2.53322">
        <ele>592</ele>
        <time>2018-05-05T09:11:42Z</time>
      </trkpt>
      <trkpt lat="44.59943" lon="2.53319">
        <ele>593</ele>
        <time>2018-05-05T09:11:51Z</time>
      </trkpt>
      <trkpt lat="44.59949" lon="2.53321">
        <ele>593</ele>
        <time>2018-05-05T09:11:59Z</time>
      </trkpt>
      <trkpt lat="44.59958" lon="2.53314">
        <ele>594</ele>
        <time>2018-05-05T09:12:09Z</time>
      </trkpt>
      <trkpt lat="44.5997" lon="2.53299">
        <ele>595</ele>
        <time>2018-05-05T09:12:27Z</time>
      </trkpt>
      <trkpt lat="44.59975" lon="2.53292">
        <ele>595</ele>
        <time>2018-05-05T09:12:38Z</time>
      </trkpt>
      <trkpt lat="44.59976" lon="2.53286">
        <ele>594</ele>
        <time>2018-05-05T09:12:43Z</time>
      </trkpt>
      <trkpt lat="44.60001" lon="2.53075">
        <ele>575</ele>
        <time>2018-05-05T09:15:06Z</time>
      </trkpt>
      <trkpt lat="44.60006" lon="2.53065">
        <ele>577</ele>
        <time>2018-05-05T09:25:55Z</time>
      </trkpt>
      <trkpt lat="44.60013" lon="2.53026">
        <ele>574</ele>
        <time>2018-05-05T09:26:29Z</time>
      </trkpt>
      <trkpt lat="44.60026" lon="2.52995">
        <ele>572</ele>
        <time>2018-05-05T09:26:50Z</time>
      </trkpt>
      <trkpt lat="44.60046" lon="2.52969">
        <ele>569</ele>
        <time>2018-05-05T09:27:11Z</time>
      </trkpt>
      <trkpt lat="44.60046" lon="2.52963">
        <ele>569</ele>
        <time>2018-05-05T09:27:32Z</time>
      </trkpt>
      <trkpt lat="44.60074" lon="2.52933">
        <ele>566</ele>
        <time>2018-05-05T09:28:03Z</time>
      </trkpt>
      <trkpt lat="44.60091" lon="2.52922">
        <ele>563</ele>
        <time>2018-05-05T09:28:20Z</time>
      </trkpt>
      <trkpt lat="44.60124" lon="2.52886">
        <ele>559</ele>
        <time>2018-05-05T09:28:49Z</time>
      </trkpt>
      <trkpt lat="44.60179" lon="2.52842">
        <ele>553</ele>
        <time>2018-05-05T09:29:37Z</time>
      </trkpt>
      <trkpt lat="44.60205" lon="2.52837">
        <ele>550</ele>
        <time>2018-05-05T09:29:57Z</time>
      </trkpt>
      <trkpt lat="44.60215" lon="2.5283">
        <ele>549</ele>
        <time>2018-05-05T09:30:05Z</time>
      </trkpt>
      <trkpt lat="44.60217" lon="2.52824">
        <ele>549</ele>
        <time>2018-05-05T09:30:09Z</time>
      </trkpt>
      <trkpt lat="44.60212" lon="2.52819">
        <ele>547</ele>
        <time>2018-05-05T09:30:14Z</time>
      </trkpt>
      <trkpt lat="44.60197" lon="2.52819">
        <ele>546</ele>
        <time>2018-05-05T09:30:26Z</time>
      </trkpt>
      <trkpt lat="44.60186" lon="2.52819">
        <ele>544</ele>
        <time>2018-05-05T09:30:35Z</time>
      </trkpt>
      <trkpt lat="44.60147" lon="2.52808">
        <ele>539</ele>
        <time>2018-05-05T09:31:07Z</time>
      </trkpt>
      <trkpt lat="44.60115" lon="2.52804">
        <ele>537</ele>
        <time>2018-05-05T09:31:31Z</time>
      </trkpt>
      <trkpt lat="44.601" lon="2.52807">
        <ele>535</ele>
        <time>2018-05-05T09:31:44Z</time>
      </trkpt>
      <trkpt lat="44.60026" lon="2.5285">
        <ele>528</ele>
        <time>2018-05-05T09:32:47Z</time>
      </trkpt>
      <trkpt lat="44.60021" lon="2.52849">
        <ele>528</ele>
        <time>2018-05-05T09:32:51Z</time>
      </trkpt>
      <trkpt lat="44.60016" lon="2.52847">
        <ele>527</ele>
        <time>2018-05-05T09:32:55Z</time>
      </trkpt>
      <trkpt lat="44.59991" lon="2.52824">
        <ele>523</ele>
        <time>2018-05-05T09:33:19Z</time>
      </trkpt>
      <trkpt lat="44.5998" lon="2.52822">
        <ele>522</ele>
        <time>2018-05-05T09:33:28Z</time>
      </trkpt>
      <trkpt lat="44.59976" lon="2.52817">
        <ele>521</ele>
        <time>2018-05-05T09:33:32Z</time>
      </trkpt>
      <trkpt lat="44.59973" lon="2.52811">
        <ele>521</ele>
        <time>2018-05-05T09:33:36Z</time>
      </trkpt>
      <trkpt lat="44.59972" lon="2.52804">
        <ele>520</ele>
        <time>2018-05-05T09:33:40Z</time>
      </trkpt>
      <trkpt lat="44.59974" lon="2.52798">
        <ele>520</ele>
        <time>2018-05-05T09:33:44Z</time>
      </trkpt>
      <trkpt lat="44.59996" lon="2.52782">
        <ele>517</ele>
        <time>2018-05-05T09:34:04Z</time>
      </trkpt>
      <trkpt lat="44.60012" lon="2.52777">
        <ele>515</ele>
        <time>2018-05-05T09:34:16Z</time>
      </trkpt>
      <trkpt lat="44.60016" lon="2.52777">
        <ele>514</ele>
        <time>2018-05-05T09:34:21Z</time>
      </trkpt>
      <trkpt lat="44.60028" lon="2.5277">
        <ele>513</ele>
        <time>2018-05-05T09:34:33Z</time>
      </trkpt>
      <trkpt lat="44.60061" lon="2.52731">
        <ele>510</ele>
        <time>2018-05-05T09:35:05Z</time>
      </trkpt>
      <trkpt lat="44.60087" lon="2.5269">
        <ele>507</ele>
        <time>2018-05-05T09:35:39Z</time>
      </trkpt>
      <trkpt lat="44.60104" lon="2.52676">
        <ele>506</ele>
        <time>2018-05-05T09:35:55Z</time>
      </trkpt>
      <trkpt lat="44.60109" lon="2.52678">
        <ele>506</ele>
        <time>2018-05-05T09:36:17Z</time>
      </trkpt>
      <trkpt lat="44.60119" lon="2.5268">
        <ele>506</ele>
        <time>2018-05-05T09:37:03Z</time>
      </trkpt>
      <trkpt lat="44.60128" lon="2.52687">
        <ele>506</ele>
        <time>2018-05-05T09:37:16Z</time>
      </trkpt>
      <trkpt lat="44.60127" lon="2.52694">
        <ele>507</ele>
        <time>2018-05-05T09:37:28Z</time>
      </trkpt>
      <trkpt lat="44.60116" lon="2.52683">
        <ele>506</ele>
        <time>2018-05-05T09:38:48Z</time>
      </trkpt>
      <trkpt lat="44.60112" lon="2.5268">
        <ele>506</ele>
        <time>2018-05-05T09:38:53Z</time>
      </trkpt>
      <trkpt lat="44.60106" lon="2.52675">
        <ele>498</ele>
        <time>2018-05-05T09:49:14Z</time>
      </trkpt>
      <trkpt lat="44.60109" lon="2.52669">
        <ele>498</ele>
        <time>2018-05-05T09:49:18Z</time>
      </trkpt>
      <trkpt lat="44.60118" lon="2.52667">
        <ele>497</ele>
        <time>2018-05-05T09:49:25Z</time>
      </trkpt>
      <trkpt lat="44.60139" lon="2.52669">
        <ele>494</ele>
        <time>2018-05-05T09:49:44Z</time>
      </trkpt>
      <trkpt lat="44.60154" lon="2.52663">
        <ele>493</ele>
        <time>2018-05-05T09:49:56Z</time>
      </trkpt>
      <trkpt lat="44.60163" lon="2.52656">
        <ele>493</ele>
        <time>2018-05-05T09:50:04Z</time>
      </trkpt>
      <trkpt lat="44.60173" lon="2.5264">
        <ele>491</ele>
        <time>2018-05-05T09:50:16Z</time>
      </trkpt>
      <trkpt lat="44.60191" lon="2.52588">
        <ele>489</ele>
        <time>2018-05-05T09:50:48Z</time>
      </trkpt>
      <trkpt lat="44.60197" lon="2.52575">
        <ele>489</ele>
        <time>2018-05-05T09:50:56Z</time>
      </trkpt>
      <trkpt lat="44.60219" lon="2.52546">
        <ele>489</ele>
        <time>2018-05-05T09:51:20Z</time>
      </trkpt>
      <trkpt lat="44.60248" lon="2.5253">
        <ele>490</ele>
        <time>2018-05-05T09:51:46Z</time>
      </trkpt>
      <trkpt lat="44.60257" lon="2.52521">
        <ele>489</ele>
        <time>2018-05-05T09:51:54Z</time>
      </trkpt>
      <trkpt lat="44.60276" lon="2.52509">
        <ele>489</ele>
        <time>2018-05-05T09:52:10Z</time>
      </trkpt>
      <trkpt lat="44.60284" lon="2.52505">
        <ele>490</ele>
        <time>2018-05-05T09:52:18Z</time>
      </trkpt>
      <trkpt lat="44.60315" lon="2.52478">
        <ele>491</ele>
        <time>2018-05-05T09:52:46Z</time>
      </trkpt>
      <trkpt lat="44.60323" lon="2.52471">
        <ele>492</ele>
        <time>2018-05-05T09:53:08Z</time>
      </trkpt>
      <trkpt lat="44.6036" lon="2.52454">
        <ele>488</ele>
        <time>2018-05-05T09:53:40Z</time>
      </trkpt>
      <trkpt lat="44.60382" lon="2.52436">
        <ele>486</ele>
        <time>2018-05-05T09:54:00Z</time>
      </trkpt>
      <trkpt lat="44.60386" lon="2.52431">
        <ele>486</ele>
        <time>2018-05-05T09:54:04Z</time>
      </trkpt>
      <trkpt lat="44.60401" lon="2.52388">
        <ele>484</ele>
        <time>2018-05-05T09:54:32Z</time>
      </trkpt>
      <trkpt lat="44.60408" lon="2.52379">
        <ele>483</ele>
        <time>2018-05-05T09:54:40Z</time>
      </trkpt>
      <trkpt lat="44.60413" lon="2.52377">
        <ele>482</ele>
        <time>2018-05-05T09:54:44Z</time>
      </trkpt>
      <trkpt lat="44.60423" lon="2.52369">
        <ele>481</ele>
        <time>2018-05-05T09:54:52Z</time>
      </trkpt>
      <trkpt lat="44.60427" lon="2.52364">
        <ele>481</ele>
        <time>2018-05-05T09:54:56Z</time>
      </trkpt>
      <trkpt lat="44.6043" lon="2.52351">
        <ele>480</ele>
        <time>2018-05-05T09:55:05Z</time>
      </trkpt>
      <trkpt lat="44.60428" lon="2.52343">
        <ele>479</ele>
        <time>2018-05-05T09:55:10Z</time>
      </trkpt>
      <trkpt lat="44.60424" lon="2.52338">
        <ele>479</ele>
        <time>2018-05-05T09:55:14Z</time>
      </trkpt>
      <trkpt lat="44.60416" lon="2.5233">
        <ele>479</ele>
        <time>2018-05-05T09:55:22Z</time>
      </trkpt>
      <trkpt lat="44.6041" lon="2.5232">
        <ele>478</ele>
        <time>2018-05-05T09:55:30Z</time>
      </trkpt>
      <trkpt lat="44.60374" lon="2.52237">
        <ele>479</ele>
        <time>2018-05-05T09:56:26Z</time>
      </trkpt>
      <trkpt lat="44.60369" lon="2.52211">
        <ele>479</ele>
        <time>2018-05-05T09:56:42Z</time>
      </trkpt>
      <trkpt lat="44.60341" lon="2.52153">
        <ele>481</ele>
        <time>2018-05-05T09:57:22Z</time>
      </trkpt>
      <trkpt lat="44.60341" lon="2.52139">
        <ele>481</ele>
        <time>2018-05-05T09:57:30Z</time>
      </trkpt>
      <trkpt lat="44.60343" lon="2.52133">
        <ele>481</ele>
        <time>2018-05-05T09:57:35Z</time>
      </trkpt>
      <trkpt lat="44.60358" lon="2.52108">
        <ele>481</ele>
        <time>2018-05-05T09:57:59Z</time>
      </trkpt>
      <trkpt lat="44.60366" lon="2.52099">
        <ele>481</ele>
        <time>2018-05-05T09:58:08Z</time>
      </trkpt>
      <trkpt lat="44.60369" lon="2.52093">
        <ele>480</ele>
        <time>2018-05-05T09:58:12Z</time>
      </trkpt>
      <trkpt lat="44.60407" lon="2.52066">
        <ele>479</ele>
        <time>2018-05-05T09:58:45Z</time>
      </trkpt>
      <trkpt lat="44.60415" lon="2.52057">
        <ele>478</ele>
        <time>2018-05-05T09:58:53Z</time>
      </trkpt>
      <trkpt lat="44.60429" lon="2.52036">
        <ele>476</ele>
        <time>2018-05-05T09:59:09Z</time>
      </trkpt>
      <trkpt lat="44.60462" lon="2.52001">
        <ele>473</ele>
        <time>2018-05-05T09:59:41Z</time>
      </trkpt>
      <trkpt lat="44.60491" lon="2.51953">
        <ele>470</ele>
        <time>2018-05-05T10:00:20Z</time>
      </trkpt>
      <trkpt lat="44.60495" lon="2.5195">
        <ele>469</ele>
        <time>2018-05-05T10:00:24Z</time>
      </trkpt>
      <trkpt lat="44.60509" lon="2.51942">
        <ele>468</ele>
        <time>2018-05-05T10:00:36Z</time>
      </trkpt>
      <trkpt lat="44.60517" lon="2.51944">
        <ele>468</ele>
        <time>2018-05-05T10:01:08Z</time>
      </trkpt>
      <trkpt lat="44.60527" lon="2.51943">
        <ele>467</ele>
        <time>2018-05-05T10:01:17Z</time>
      </trkpt>
      <trkpt lat="44.60533" lon="2.5194">
        <ele>467</ele>
        <time>2018-05-05T10:01:25Z</time>
      </trkpt>
      <trkpt lat="44.60543" lon="2.51936">
        <ele>466</ele>
        <time>2018-05-05T10:01:36Z</time>
      </trkpt>
      <trkpt lat="44.60548" lon="2.51932">
        <ele>466</ele>
        <time>2018-05-05T10:01:41Z</time>
      </trkpt>
      <trkpt lat="44.6055" lon="2.51924">
        <ele>466</ele>
        <time>2018-05-05T10:01:48Z</time>
      </trkpt>
      <trkpt lat="44.60576" lon="2.5189">
        <ele>464</ele>
        <time>2018-05-05T10:02:19Z</time>
      </trkpt>
      <trkpt lat="44.60581" lon="2.51886">
        <ele>464</ele>
        <time>2018-05-05T10:02:23Z</time>
      </trkpt>
      <trkpt lat="44.60586" lon="2.51885">
        <ele>463</ele>
        <time>2018-05-05T10:02:27Z</time>
      </trkpt>
      <trkpt lat="44.6059" lon="2.51881">
        <ele>463</ele>
        <time>2018-05-05T10:02:31Z</time>
      </trkpt>
      <trkpt lat="44.60593" lon="2.51876">
        <ele>462</ele>
        <time>2018-05-05T10:02:35Z</time>
      </trkpt>
      <trkpt lat="44.60594" lon="2.51869">
        <ele>461</ele>
        <time>2018-05-05T10:02:40Z</time>
      </trkpt>
      <trkpt lat="44.60591" lon="2.51862">
        <ele>460</ele>
        <time>2018-05-05T10:02:45Z</time>
      </trkpt>
      <trkpt lat="44.60587" lon="2.51858">
        <ele>460</ele>
        <time>2018-05-05T10:02:49Z</time>
      </trkpt>
      <trkpt lat="44.6056" lon="2.51843">
        <ele>457</ele>
        <time>2018-05-05T10:03:20Z</time>
      </trkpt>
      <trkpt lat="44.60546" lon="2.51831">
        <ele>455</ele>
        <time>2018-05-05T10:03:32Z</time>
      </trkpt>
      <trkpt lat="44.6054" lon="2.51821">
        <ele>454</ele>
        <time>2018-05-05T10:03:39Z</time>
      </trkpt>
      <trkpt lat="44.6054" lon="2.51814">
        <ele>454</ele>
        <time>2018-05-05T10:03:43Z</time>
      </trkpt>
      <trkpt lat="44.6054" lon="2.51807">
        <ele>453</ele>
        <time>2018-05-05T10:03:47Z</time>
      </trkpt>
      <trkpt lat="44.60548" lon="2.51789">
        <ele>453</ele>
        <time>2018-05-05T10:03:59Z</time>
      </trkpt>
      <trkpt lat="44.60558" lon="2.51775">
        <ele>454</ele>
        <time>2018-05-05T10:04:11Z</time>
      </trkpt>
      <trkpt lat="44.60566" lon="2.51768">
        <ele>454</ele>
        <time>2018-05-05T10:05:10Z</time>
      </trkpt>
      <trkpt lat="44.60627" lon="2.51693">
        <ele>447</ele>
        <time>2018-05-05T10:06:14Z</time>
      </trkpt>
      <trkpt lat="44.60629" lon="2.51686">
        <ele>446</ele>
        <time>2018-05-05T10:06:18Z</time>
      </trkpt>
      <trkpt lat="44.6063" lon="2.51679">
        <ele>446</ele>
        <time>2018-05-05T10:06:22Z</time>
      </trkpt>
      <trkpt lat="44.60628" lon="2.51665">
        <ele>445</ele>
        <time>2018-05-05T10:06:30Z</time>
      </trkpt>
      <trkpt lat="44.6062" lon="2.51648">
        <ele>445</ele>
        <time>2018-05-05T10:06:42Z</time>
      </trkpt>
      <trkpt lat="44.60619" lon="2.51641">
        <ele>445</ele>
        <time>2018-05-05T10:06:46Z</time>
      </trkpt>
      <trkpt lat="44.6062" lon="2.51634">
        <ele>444</ele>
        <time>2018-05-05T10:06:51Z</time>
      </trkpt>
      <trkpt lat="44.60629" lon="2.51629">
        <ele>444</ele>
        <time>2018-05-05T10:07:06Z</time>
      </trkpt>
      <trkpt lat="44.60638" lon="2.51628">
        <ele>446</ele>
        <time>2018-05-05T10:07:15Z</time>
      </trkpt>
      <trkpt lat="44.60643" lon="2.51625">
        <ele>447</ele>
        <time>2018-05-05T10:07:20Z</time>
      </trkpt>
      <trkpt lat="44.60655" lon="2.51612">
        <ele>447</ele>
        <time>2018-05-05T10:07:34Z</time>
      </trkpt>
      <trkpt lat="44.6066" lon="2.51611">
        <ele>447</ele>
        <time>2018-05-05T10:07:39Z</time>
      </trkpt>
      <trkpt lat="44.60669" lon="2.51608">
        <ele>448</ele>
        <time>2018-05-05T10:07:49Z</time>
      </trkpt>
      <trkpt lat="44.60673" lon="2.51604">
        <ele>449</ele>
        <time>2018-05-05T10:07:53Z</time>
      </trkpt>
      <trkpt lat="44.60685" lon="2.5159">
        <ele>448</ele>
        <time>2018-05-05T10:08:06Z</time>
      </trkpt>
      <trkpt lat="44.60728" lon="2.51567">
        <ele>449</ele>
        <time>2018-05-05T10:08:46Z</time>
      </trkpt>
      <trkpt lat="44.60753" lon="2.51564">
        <ele>449</ele>
        <time>2018-05-05T10:09:08Z</time>
      </trkpt>
      <trkpt lat="44.60764" lon="2.51565">
        <ele>449</ele>
        <time>2018-05-05T10:09:16Z</time>
      </trkpt>
      <trkpt lat="44.60779" lon="2.51573">
        <ele>449</ele>
        <time>2018-05-05T10:09:30Z</time>
      </trkpt>
      <trkpt lat="44.60787" lon="2.51582">
        <ele>450</ele>
        <time>2018-05-05T10:09:38Z</time>
      </trkpt>
      <trkpt lat="44.60791" lon="2.51594">
        <ele>449</ele>
        <time>2018-05-05T10:09:47Z</time>
      </trkpt>
      <trkpt lat="44.60799" lon="2.51601">
        <ele>448</ele>
        <time>2018-05-05T10:09:53Z</time>
      </trkpt>
      <trkpt lat="44.60802" lon="2.51606">
        <ele>448</ele>
        <time>2018-05-05T10:09:57Z</time>
      </trkpt>
      <trkpt lat="44.60807" lon="2.51611">
        <ele>449</ele>
        <time>2018-05-05T10:10:08Z</time>
      </trkpt>
      <trkpt lat="44.60817" lon="2.51616">
        <ele>449</ele>
        <time>2018-05-05T10:10:17Z</time>
      </trkpt>
      <trkpt lat="44.60828" lon="2.51623">
        <ele>449</ele>
        <time>2018-05-05T10:10:28Z</time>
      </trkpt>
      <trkpt lat="44.60837" lon="2.51625">
        <ele>449</ele>
        <time>2018-05-05T10:10:37Z</time>
      </trkpt>
      <trkpt lat="44.6087" lon="2.51626">
        <ele>449</ele>
        <time>2018-05-05T10:11:02Z</time>
      </trkpt>
      <trkpt lat="44.60885" lon="2.51634">
        <ele>449</ele>
        <time>2018-05-05T10:11:13Z</time>
      </trkpt>
      <trkpt lat="44.60893" lon="2.51645">
        <ele>449</ele>
        <time>2018-05-05T10:11:23Z</time>
      </trkpt>
      <trkpt lat="44.60899" lon="2.51649">
        <ele>449</ele>
        <time>2018-05-05T10:11:31Z</time>
      </trkpt>
      <trkpt lat="44.60904" lon="2.51649">
        <ele>448</ele>
        <time>2018-05-05T10:11:36Z</time>
      </trkpt>
      <trkpt lat="44.6091" lon="2.51647">
        <ele>448</ele>
        <time>2018-05-05T10:11:43Z</time>
      </trkpt>
      <trkpt lat="44.60914" lon="2.51642">
        <ele>448</ele>
        <time>2018-05-05T10:11:47Z</time>
      </trkpt>
      <trkpt lat="44.60918" lon="2.51621">
        <ele>448</ele>
        <time>2018-05-05T10:12:00Z</time>
      </trkpt>
      <trkpt lat="44.60918" lon="2.5158">
        <ele>448</ele>
        <time>2018-05-05T10:12:22Z</time>
      </trkpt>
      <trkpt lat="44.60922" lon="2.51574">
        <ele>447</ele>
        <time>2018-05-05T10:12:26Z</time>
      </trkpt>
      <trkpt lat="44.60932" lon="2.51567">
        <ele>447</ele>
        <time>2018-05-05T10:12:34Z</time>
      </trkpt>
      <trkpt lat="44.60937" lon="2.51567">
        <ele>446</ele>
        <time>2018-05-05T10:12:42Z</time>
      </trkpt>
      <trkpt lat="44.60942" lon="2.51568">
        <ele>446</ele>
        <time>2018-05-05T10:12:59Z</time>
      </trkpt>
      <trkpt lat="44.60964" lon="2.51564">
        <ele>443</ele>
        <time>2018-05-05T10:13:19Z</time>
      </trkpt>
      <trkpt lat="44.6097" lon="2.51559">
        <ele>441</ele>
        <time>2018-05-05T10:13:27Z</time>
      </trkpt>
      <trkpt lat="44.6098" lon="2.51542">
        <ele>441</ele>
        <time>2018-05-05T10:13:42Z</time>
      </trkpt>
      <trkpt lat="44.60985" lon="2.51538">
        <ele>441</ele>
        <time>2018-05-05T10:13:47Z</time>
      </trkpt>
      <trkpt lat="44.61032" lon="2.5152">
        <ele>441</ele>
        <time>2018-05-05T10:14:43Z</time>
      </trkpt>
      <trkpt lat="44.61037" lon="2.51515">
        <ele>440</ele>
        <time>2018-05-05T10:14:51Z</time>
      </trkpt>
      <trkpt lat="44.61039" lon="2.51508">
        <ele>439</ele>
        <time>2018-05-05T10:14:55Z</time>
      </trkpt>
      <trkpt lat="44.61039" lon="2.51502">
        <ele>438</ele>
        <time>2018-05-05T10:14:58Z</time>
      </trkpt>
      <trkpt lat="44.61032" lon="2.51465">
        <ele>434</ele>
        <time>2018-05-05T10:15:20Z</time>
      </trkpt>
      <trkpt lat="44.61033" lon="2.51443">
        <ele>430</ele>
        <time>2018-05-05T10:15:31Z</time>
      </trkpt>
      <trkpt lat="44.6104" lon="2.51416">
        <ele>426</ele>
        <time>2018-05-05T10:15:44Z</time>
      </trkpt>
      <trkpt lat="44.61049" lon="2.51407">
        <ele>424</ele>
        <time>2018-05-05T10:15:50Z</time>
      </trkpt>
      <trkpt lat="44.61051" lon="2.51399">
        <ele>423</ele>
        <time>2018-05-05T10:15:54Z</time>
      </trkpt>
      <trkpt lat="44.61053" lon="2.51392">
        <ele>422</ele>
        <time>2018-05-05T10:15:59Z</time>
      </trkpt>
      <trkpt lat="44.6105" lon="2.51377">
        <ele>420</ele>
        <time>2018-05-05T10:16:07Z</time>
      </trkpt>
      <trkpt lat="44.61051" lon="2.5137">
        <ele>418</ele>
        <time>2018-05-05T10:16:12Z</time>
      </trkpt>
      <trkpt lat="44.61054" lon="2.51363">
        <ele>417</ele>
        <time>2018-05-05T10:16:16Z</time>
      </trkpt>
      <trkpt lat="44.61063" lon="2.51355">
        <ele>416</ele>
        <time>2018-05-05T10:16:23Z</time>
      </trkpt>
      <trkpt lat="44.61067" lon="2.51353">
        <ele>415</ele>
        <time>2018-05-05T10:16:27Z</time>
      </trkpt>
      <trkpt lat="44.61079" lon="2.51351">
        <ele>414</ele>
        <time>2018-05-05T10:16:35Z</time>
      </trkpt>
      <trkpt lat="44.61088" lon="2.51352">
        <ele>413</ele>
        <time>2018-05-05T10:16:42Z</time>
      </trkpt>
      <trkpt lat="44.61114" lon="2.51345">
        <ele>411</ele>
        <time>2018-05-05T10:17:31Z</time>
      </trkpt>
      <trkpt lat="44.61119" lon="2.51346">
        <ele>411</ele>
        <time>2018-05-05T10:17:35Z</time>
      </trkpt>
      <trkpt lat="44.61123" lon="2.5135">
        <ele>411</ele>
        <time>2018-05-05T10:17:39Z</time>
      </trkpt>
      <trkpt lat="44.61129" lon="2.51362">
        <ele>410</ele>
        <time>2018-05-05T10:17:47Z</time>
      </trkpt>
      <trkpt lat="44.61137" lon="2.51371">
        <ele>408</ele>
        <time>2018-05-05T10:17:55Z</time>
      </trkpt>
      <trkpt lat="44.6114" lon="2.51386">
        <ele>407</ele>
        <time>2018-05-05T10:18:04Z</time>
      </trkpt>
      <trkpt lat="44.61142" lon="2.514">
        <ele>406</ele>
        <time>2018-05-05T10:18:13Z</time>
      </trkpt>
      <trkpt lat="44.61143" lon="2.51406">
        <ele>406</ele>
        <time>2018-05-05T10:18:17Z</time>
      </trkpt>
      <trkpt lat="44.61143" lon="2.51413">
        <ele>405</ele>
        <time>2018-05-05T10:18:22Z</time>
      </trkpt>
      <trkpt lat="44.6115" lon="2.51425">
        <ele>403</ele>
        <time>2018-05-05T10:18:31Z</time>
      </trkpt>
      <trkpt lat="44.61161" lon="2.51425">
        <ele>402</ele>
        <time>2018-05-05T10:18:41Z</time>
      </trkpt>
      <trkpt lat="44.61176" lon="2.51441">
        <ele>399</ele>
        <time>2018-05-05T10:18:59Z</time>
      </trkpt>
      <trkpt lat="44.61184" lon="2.51447">
        <ele>397</ele>
        <time>2018-05-05T10:19:07Z</time>
      </trkpt>
      <trkpt lat="44.61192" lon="2.51456">
        <ele>395</ele>
        <time>2018-05-05T10:19:15Z</time>
      </trkpt>
      <trkpt lat="44.61198" lon="2.51462">
        <ele>394</ele>
        <time>2018-05-05T10:19:23Z</time>
      </trkpt>
      <trkpt lat="44.61201" lon="2.51467">
        <ele>394</ele>
        <time>2018-05-05T10:19:27Z</time>
      </trkpt>
      <trkpt lat="44.6121" lon="2.51474">
        <ele>393</ele>
        <time>2018-05-05T10:19:34Z</time>
      </trkpt>
      <trkpt lat="44.61213" lon="2.5148">
        <ele>392</ele>
        <time>2018-05-05T10:19:38Z</time>
      </trkpt>
      <trkpt lat="44.61215" lon="2.51486">
        <ele>392</ele>
        <time>2018-05-05T10:19:42Z</time>
      </trkpt>
      <trkpt lat="44.61214" lon="2.51508">
        <ele>392</ele>
        <time>2018-05-05T10:19:55Z</time>
      </trkpt>
      <trkpt lat="44.61213" lon="2.51516">
        <ele>392</ele>
        <time>2018-05-05T10:19:59Z</time>
      </trkpt>
      <trkpt lat="44.61215" lon="2.51529">
        <ele>392</ele>
        <time>2018-05-05T10:20:06Z</time>
      </trkpt>
      <trkpt lat="44.61223" lon="2.51533">
        <ele>395</ele>
        <time>2018-05-05T10:21:16Z</time>
      </trkpt>
      <trkpt lat="44.61228" lon="2.51519">
        <ele>396</ele>
        <time>2018-05-05T10:21:29Z</time>
      </trkpt>
      <trkpt lat="44.61229" lon="2.51512">
        <ele>396</ele>
        <time>2018-05-05T10:21:34Z</time>
      </trkpt>
      <trkpt lat="44.61225" lon="2.51475">
        <ele>394</ele>
        <time>2018-05-05T10:21:54Z</time>
      </trkpt>
      <trkpt lat="44.61232" lon="2.51433">
        <ele>395</ele>
        <time>2018-05-05T10:22:14Z</time>
      </trkpt>
      <trkpt lat="44.6123" lon="2.51423">
        <ele>395</ele>
        <time>2018-05-05T10:22:21Z</time>
      </trkpt>
      <trkpt lat="44.61217" lon="2.51405">
        <ele>395</ele>
        <time>2018-05-05T10:22:40Z</time>
      </trkpt>
      <trkpt lat="44.61216" lon="2.51398">
        <ele>396</ele>
        <time>2018-05-05T10:22:44Z</time>
      </trkpt>
      <trkpt lat="44.61219" lon="2.51383">
        <ele>396</ele>
        <time>2018-05-05T10:22:51Z</time>
      </trkpt>
      <trkpt lat="44.61224" lon="2.51371">
        <ele>397</ele>
        <time>2018-05-05T10:23:00Z</time>
      </trkpt>
      <trkpt lat="44.61229" lon="2.51365">
        <ele>398</ele>
        <time>2018-05-05T10:23:05Z</time>
      </trkpt>
      <trkpt lat="44.61245" lon="2.51331">
        <ele>401</ele>
        <time>2018-05-05T10:23:32Z</time>
      </trkpt>
      <trkpt lat="44.6125" lon="2.51326">
        <ele>401</ele>
        <time>2018-05-05T10:23:37Z</time>
      </trkpt>
      <trkpt lat="44.61256" lon="2.51314">
        <ele>401</ele>
        <time>2018-05-05T10:23:50Z</time>
      </trkpt>
      <trkpt lat="44.61262" lon="2.51309">
        <ele>401</ele>
        <time>2018-05-05T10:24:02Z</time>
      </trkpt>
      <trkpt lat="44.61247" lon="2.51262">
        <ele>402</ele>
        <time>2018-05-05T10:24:37Z</time>
      </trkpt>
      <trkpt lat="44.6124" lon="2.51183">
        <ele>403</ele>
        <time>2018-05-05T10:25:25Z</time>
      </trkpt>
      <trkpt lat="44.61254" lon="2.51128">
        <ele>404</ele>
        <time>2018-05-05T10:25:58Z</time>
      </trkpt>
      <trkpt lat="44.61269" lon="2.51085">
        <ele>404</ele>
        <time>2018-05-05T10:26:28Z</time>
      </trkpt>
      <trkpt lat="44.61272" lon="2.51079">
        <ele>405</ele>
        <time>2018-05-05T10:26:33Z</time>
      </trkpt>
      <trkpt lat="44.61276" lon="2.51077">
        <ele>405</ele>
        <time>2018-05-05T10:26:37Z</time>
      </trkpt>
      <trkpt lat="44.61277" lon="2.51068">
        <ele>405</ele>
        <time>2018-05-05T10:26:46Z</time>
      </trkpt>
      <trkpt lat="44.61274" lon="2.51063">
        <ele>404</ele>
        <time>2018-05-05T10:26:50Z</time>
      </trkpt>
      <trkpt lat="44.61271" lon="2.51056">
        <ele>404</ele>
        <time>2018-05-05T10:26:55Z</time>
      </trkpt>
      <trkpt lat="44.61264" lon="2.51046">
        <ele>402</ele>
        <time>2018-05-05T10:27:04Z</time>
      </trkpt>
      <trkpt lat="44.61253" lon="2.51013">
        <ele>400</ele>
        <time>2018-05-05T10:27:26Z</time>
      </trkpt>
      <trkpt lat="44.61248" lon="2.51004">
        <ele>400</ele>
        <time>2018-05-05T10:27:47Z</time>
      </trkpt>
      <trkpt lat="44.61238" lon="2.50953">
        <ele>396</ele>
        <time>2018-05-05T10:29:06Z</time>
      </trkpt>
      <trkpt lat="44.61235" lon="2.50947">
        <ele>396</ele>
        <time>2018-05-05T10:29:10Z</time>
      </trkpt>
      <trkpt lat="44.6123" lon="2.50944">
        <ele>396</ele>
        <time>2018-05-05T10:29:14Z</time>
      </trkpt>
      <trkpt lat="44.61225" lon="2.50943">
        <ele>395</ele>
        <time>2018-05-05T10:29:18Z</time>
      </trkpt>
      <trkpt lat="44.61212" lon="2.50933">
        <ele>395</ele>
        <time>2018-05-05T10:29:30Z</time>
      </trkpt>
      <trkpt lat="44.61209" lon="2.50928">
        <ele>395</ele>
        <time>2018-05-05T10:29:34Z</time>
      </trkpt>
      <trkpt lat="44.61204" lon="2.50926">
        <ele>395</ele>
        <time>2018-05-05T10:29:38Z</time>
      </trkpt>
      <trkpt lat="44.61204" lon="2.50931">
        <ele>396</ele>
        <time>2018-05-05T10:30:14Z</time>
      </trkpt>
      <trkpt lat="44.61201" lon="2.50925">
        <ele>394</ele>
        <time>2018-05-05T10:32:21Z</time>
      </trkpt>
      <trkpt lat="44.61206" lon="2.50921">
        <ele>393</ele>
        <time>2018-05-05T10:32:25Z</time>
      </trkpt>
      <trkpt lat="44.61203" lon="2.5092">
        <ele>392</ele>
        <time>2018-05-05T10:34:49Z</time>
      </trkpt>
      <trkpt lat="44.61198" lon="2.50924">
        <ele>391</ele>
        <time>2018-05-05T10:34:54Z</time>
      </trkpt>
      <trkpt lat="44.61188" lon="2.50927">
        <ele>391</ele>
        <time>2018-05-05T10:35:04Z</time>
      </trkpt>
      <trkpt lat="44.61187" lon="2.50938">
        <ele>390</ele>
        <time>2018-05-05T10:35:52Z</time>
      </trkpt>
      <trkpt lat="44.61183" lon="2.50943">
        <ele>389</ele>
        <time>2018-05-05T10:35:55Z</time>
      </trkpt>
      <trkpt lat="44.6118" lon="2.50951">
        <ele>389</ele>
        <time>2018-05-05T10:36:00Z</time>
      </trkpt>
      <trkpt lat="44.61179" lon="2.50959">
        <ele>389</ele>
        <time>2018-05-05T10:36:04Z</time>
      </trkpt>
      <trkpt lat="44.61183" lon="2.50973">
        <ele>388</ele>
        <time>2018-05-05T10:36:12Z</time>
      </trkpt>
      <trkpt lat="44.61194" lon="2.5099">
        <ele>386</ele>
        <time>2018-05-05T10:36:25Z</time>
      </trkpt>
      <trkpt lat="44.61189" lon="2.50996">
        <ele>386</ele>
        <time>2018-05-05T10:36:29Z</time>
      </trkpt>
      <trkpt lat="44.61174" lon="2.50999">
        <ele>384</ele>
        <time>2018-05-05T10:38:19Z</time>
      </trkpt>
      <trkpt lat="44.6116" lon="2.50982">
        <ele>382</ele>
        <time>2018-05-05T10:38:36Z</time>
      </trkpt>
      <trkpt lat="44.61153" lon="2.5097">
        <ele>382</ele>
        <time>2018-05-05T10:38:44Z</time>
      </trkpt>
      <trkpt lat="44.61128" lon="2.50949">
        <ele>380</ele>
        <time>2018-05-05T10:39:24Z</time>
      </trkpt>
      <trkpt lat="44.61117" lon="2.50935">
        <ele>379</ele>
        <time>2018-05-05T10:39:37Z</time>
      </trkpt>
      <trkpt lat="44.61105" lon="2.50921">
        <ele>378</ele>
        <time>2018-05-05T10:39:53Z</time>
      </trkpt>
      <trkpt lat="44.61095" lon="2.50914">
        <ele>377</ele>
        <time>2018-05-05T10:40:01Z</time>
      </trkpt>
      <trkpt lat="44.61066" lon="2.5088">
        <ele>372</ele>
        <time>2018-05-05T10:40:29Z</time>
      </trkpt>
      <trkpt lat="44.61056" lon="2.50866">
        <ele>370</ele>
        <time>2018-05-05T10:40:39Z</time>
      </trkpt>
      <trkpt lat="44.61035" lon="2.50845">
        <ele>367</ele>
        <time>2018-05-05T10:40:59Z</time>
      </trkpt>
      <trkpt lat="44.6103" lon="2.50843">
        <ele>366</ele>
        <time>2018-05-05T10:41:03Z</time>
      </trkpt>
      <trkpt lat="44.61019" lon="2.50842">
        <ele>364</ele>
        <time>2018-05-05T10:41:11Z</time>
      </trkpt>
      <trkpt lat="44.61015" lon="2.50841">
        <ele>364</ele>
        <time>2018-05-05T10:41:15Z</time>
      </trkpt>
      <trkpt lat="44.61006" lon="2.50835">
        <ele>363</ele>
        <time>2018-05-05T10:41:26Z</time>
      </trkpt>
      <trkpt lat="44.61002" lon="2.50832">
        <ele>363</ele>
        <time>2018-05-05T10:41:32Z</time>
      </trkpt>
      <trkpt lat="44.60998" lon="2.50829">
        <ele>363</ele>
        <time>2018-05-05T10:41:38Z</time>
      </trkpt>
      <trkpt lat="44.60993" lon="2.50826">
        <ele>363</ele>
        <time>2018-05-05T10:41:43Z</time>
      </trkpt>
      <trkpt lat="44.60989" lon="2.5083">
        <ele>363</ele>
        <time>2018-05-05T10:41:47Z</time>
      </trkpt>
      <trkpt lat="44.60982" lon="2.50844">
        <ele>364</ele>
        <time>2018-05-05T10:41:59Z</time>
      </trkpt>
      <trkpt lat="44.60975" lon="2.50852">
        <ele>365</ele>
        <time>2018-05-05T10:42:07Z</time>
      </trkpt>
      <trkpt lat="44.60972" lon="2.50866">
        <ele>367</ele>
        <time>2018-05-05T10:42:17Z</time>
      </trkpt>
      <trkpt lat="44.60959" lon="2.50882">
        <ele>373</ele>
        <time>2018-05-05T10:43:03Z</time>
      </trkpt>
      <trkpt lat="44.60949" lon="2.50904">
        <ele>377</ele>
        <time>2018-05-05T10:43:23Z</time>
      </trkpt>
      <trkpt lat="44.60939" lon="2.50919">
        <ele>381</ele>
        <time>2018-05-05T10:43:37Z</time>
      </trkpt>
      <trkpt lat="44.60935" lon="2.50931">
        <ele>382</ele>
        <time>2018-05-05T10:43:46Z</time>
      </trkpt>
      <trkpt lat="44.60926" lon="2.50942">
        <ele>384</ele>
        <time>2018-05-05T10:43:57Z</time>
      </trkpt>
      <trkpt lat="44.60925" lon="2.50951">
        <ele>386</ele>
        <time>2018-05-05T10:44:05Z</time>
      </trkpt>
      <trkpt lat="44.60923" lon="2.50958">
        <ele>386</ele>
        <time>2018-05-05T10:44:10Z</time>
      </trkpt>
      <trkpt lat="44.60916" lon="2.5096">
        <ele>387</ele>
        <time>2018-05-05T10:44:21Z</time>
      </trkpt>
      <trkpt lat="44.6091" lon="2.50955">
        <ele>389</ele>
        <time>2018-05-05T10:44:33Z</time>
      </trkpt>
      <trkpt lat="44.60909" lon="2.50947">
        <ele>389</ele>
        <time>2018-05-05T10:44:39Z</time>
      </trkpt>
      <trkpt lat="44.6091" lon="2.50941">
        <ele>390</ele>
        <time>2018-05-05T10:44:44Z</time>
      </trkpt>
      <trkpt lat="44.60911" lon="2.50935">
        <ele>390</ele>
        <time>2018-05-05T10:44:49Z</time>
      </trkpt>
      <trkpt lat="44.60912" lon="2.50922">
        <ele>390</ele>
        <time>2018-05-05T10:45:00Z</time>
      </trkpt>
      <trkpt lat="44.60905" lon="2.50898">
        <ele>393</ele>
        <time>2018-05-05T10:45:19Z</time>
      </trkpt>
      <trkpt lat="44.60902" lon="2.50877">
        <ele>395</ele>
        <time>2018-05-05T10:45:33Z</time>
      </trkpt>
      <trkpt lat="44.60891" lon="2.50841">
        <ele>396</ele>
        <time>2018-05-05T10:46:18Z</time>
      </trkpt>
      <trkpt lat="44.60889" lon="2.50835">
        <ele>396</ele>
        <time>2018-05-05T10:46:22Z</time>
      </trkpt>
      <trkpt lat="44.60876" lon="2.50775">
        <ele>400</ele>
        <time>2018-05-05T10:47:08Z</time>
      </trkpt>
      <trkpt lat="44.60873" lon="2.50767">
        <ele>400</ele>
        <time>2018-05-05T10:47:20Z</time>
      </trkpt>
      <trkpt lat="44.60871" lon="2.5076">
        <ele>400</ele>
        <time>2018-05-05T10:47:24Z</time>
      </trkpt>
      <trkpt lat="44.60869" lon="2.50741">
        <ele>401</ele>
        <time>2018-05-05T10:47:50Z</time>
      </trkpt>
      <trkpt lat="44.60872" lon="2.50709">
        <ele>404</ele>
        <time>2018-05-05T10:48:14Z</time>
      </trkpt>
      <trkpt lat="44.60872" lon="2.50697">
        <ele>406</ele>
        <time>2018-05-05T10:48:25Z</time>
      </trkpt>
      <trkpt lat="44.60874" lon="2.5069">
        <ele>407</ele>
        <time>2018-05-05T10:48:37Z</time>
      </trkpt>
      <trkpt lat="44.60876" lon="2.50683">
        <ele>407</ele>
        <time>2018-05-05T10:48:49Z</time>
      </trkpt>
      <trkpt lat="44.60876" lon="2.50676">
        <ele>408</ele>
        <time>2018-05-05T10:48:53Z</time>
      </trkpt>
      <trkpt lat="44.60841" lon="2.50496">
        <ele>412</ele>
        <time>2018-05-05T10:51:01Z</time>
      </trkpt>
      <trkpt lat="44.60841" lon="2.50489">
        <ele>412</ele>
        <time>2018-05-05T10:51:06Z</time>
      </trkpt>
      <trkpt lat="44.6083" lon="2.50454">
        <ele>415</ele>
        <time>2018-05-05T10:51:30Z</time>
      </trkpt>
      <trkpt lat="44.60816" lon="2.50433">
        <ele>415</ele>
        <time>2018-05-05T10:51:47Z</time>
      </trkpt>
      <trkpt lat="44.60812" lon="2.50428">
        <ele>416</ele>
        <time>2018-05-05T10:51:52Z</time>
      </trkpt>
      <trkpt lat="44.60802" lon="2.50421">
        <ele>416</ele>
        <time>2018-05-05T10:52:01Z</time>
      </trkpt>
      <trkpt lat="44.60746" lon="2.50367">
        <ele>420</ele>
        <time>2018-05-05T10:52:54Z</time>
      </trkpt>
      <trkpt lat="44.60741" lon="2.50365">
        <ele>420</ele>
        <time>2018-05-05T10:52:59Z</time>
      </trkpt>
      <trkpt lat="44.60734" lon="2.50363">
        <ele>420</ele>
        <time>2018-05-05T10:53:14Z</time>
      </trkpt>
      <trkpt lat="44.60727" lon="2.50359">
        <ele>419</ele>
        <time>2018-05-05T10:53:21Z</time>
      </trkpt>
      <trkpt lat="44.60712" lon="2.50355">
        <ele>418</ele>
        <time>2018-05-05T10:53:33Z</time>
      </trkpt>
      <trkpt lat="44.60704" lon="2.5035">
        <ele>417</ele>
        <time>2018-05-05T10:53:41Z</time>
      </trkpt>
      <trkpt lat="44.60699" lon="2.50349">
        <ele>417</ele>
        <time>2018-05-05T10:53:45Z</time>
      </trkpt>
      <trkpt lat="44.60694" lon="2.50345">
        <ele>417</ele>
        <time>2018-05-05T10:53:50Z</time>
      </trkpt>
      <trkpt lat="44.60693" lon="2.50338">
        <ele>416</ele>
        <time>2018-05-05T10:53:54Z</time>
      </trkpt>
      <trkpt lat="44.60695" lon="2.50331">
        <ele>415</ele>
        <time>2018-05-05T10:53:59Z</time>
      </trkpt>
      <trkpt lat="44.60692" lon="2.50316">
        <ele>413</ele>
        <time>2018-05-05T10:54:12Z</time>
      </trkpt>
      <trkpt lat="44.6069" lon="2.5031">
        <ele>413</ele>
        <time>2018-05-05T10:54:16Z</time>
      </trkpt>
      <trkpt lat="44.6069" lon="2.50303">
        <ele>412</ele>
        <time>2018-05-05T10:54:20Z</time>
      </trkpt>
      <trkpt lat="44.60695" lon="2.5029">
        <ele>411</ele>
        <time>2018-05-05T10:54:28Z</time>
      </trkpt>
      <trkpt lat="44.60697" lon="2.50269">
        <ele>409</ele>
        <time>2018-05-05T10:54:41Z</time>
      </trkpt>
      <trkpt lat="44.60697" lon="2.50262">
        <ele>409</ele>
        <time>2018-05-05T10:54:45Z</time>
      </trkpt>
      <trkpt lat="44.60694" lon="2.50256">
        <ele>408</ele>
        <time>2018-05-05T10:54:50Z</time>
      </trkpt>
      <trkpt lat="44.60688" lon="2.50251">
        <ele>408</ele>
        <time>2018-05-05T10:54:56Z</time>
      </trkpt>
      <trkpt lat="44.60678" lon="2.5025">
        <ele>407</ele>
        <time>2018-05-05T10:55:05Z</time>
      </trkpt>
      <trkpt lat="44.60667" lon="2.50244">
        <ele>407</ele>
        <time>2018-05-05T10:55:16Z</time>
      </trkpt>
      <trkpt lat="44.60664" lon="2.50239">
        <ele>407</ele>
        <time>2018-05-05T10:55:20Z</time>
      </trkpt>
      <trkpt lat="44.6066" lon="2.50235">
        <ele>407</ele>
        <time>2018-05-05T10:55:24Z</time>
      </trkpt>
      <trkpt lat="44.60656" lon="2.50233">
        <ele>406</ele>
        <time>2018-05-05T10:55:28Z</time>
      </trkpt>
      <trkpt lat="44.60651" lon="2.50231">
        <ele>407</ele>
        <time>2018-05-05T10:55:32Z</time>
      </trkpt>
      <trkpt lat="44.60646" lon="2.50228">
        <ele>408</ele>
        <time>2018-05-05T10:55:36Z</time>
      </trkpt>
      <trkpt lat="44.60641" lon="2.5023">
        <ele>409</ele>
        <time>2018-05-05T10:55:40Z</time>
      </trkpt>
      <trkpt lat="44.60635" lon="2.50234">
        <ele>411</ele>
        <time>2018-05-05T10:57:06Z</time>
      </trkpt>
      <trkpt lat="44.60628" lon="2.50224">
        <ele>412</ele>
        <time>2018-05-05T10:57:14Z</time>
      </trkpt>
      <trkpt lat="44.60624" lon="2.5021">
        <ele>412</ele>
        <time>2018-05-05T10:57:23Z</time>
      </trkpt>
      <trkpt lat="44.60627" lon="2.50147">
        <ele>415</ele>
        <time>2018-05-05T10:58:04Z</time>
      </trkpt>
      <trkpt lat="44.60626" lon="2.50139">
        <ele>415</ele>
        <time>2018-05-05T10:58:19Z</time>
      </trkpt>
      <trkpt lat="44.60628" lon="2.50097">
        <ele>416</ele>
        <time>2018-05-05T10:58:45Z</time>
      </trkpt>
      <trkpt lat="44.60619" lon="2.5007">
        <ele>417</ele>
        <time>2018-05-05T10:59:04Z</time>
      </trkpt>
      <trkpt lat="44.60612" lon="2.50059">
        <ele>418</ele>
        <time>2018-05-05T10:59:12Z</time>
      </trkpt>
      <trkpt lat="44.6059" lon="2.50041">
        <ele>419</ele>
        <time>2018-05-05T10:59:32Z</time>
      </trkpt>
      <trkpt lat="44.60543" lon="2.50017">
        <ele>420</ele>
        <time>2018-05-05T11:00:13Z</time>
      </trkpt>
      <trkpt lat="44.60533" lon="2.50013">
        <ele>421</ele>
        <time>2018-05-05T11:00:21Z</time>
      </trkpt>
      <trkpt lat="44.60515" lon="2.49999">
        <ele>422</ele>
        <time>2018-05-05T11:00:38Z</time>
      </trkpt>
      <trkpt lat="44.6049" lon="2.49961">
        <ele>422</ele>
        <time>2018-05-05T11:01:05Z</time>
      </trkpt>
      <trkpt lat="44.60483" lon="2.49942">
        <ele>422</ele>
        <time>2018-05-05T11:01:16Z</time>
      </trkpt>
      <trkpt lat="44.60477" lon="2.4989">
        <ele>423</ele>
        <time>2018-05-05T11:01:45Z</time>
      </trkpt>
      <trkpt lat="44.6048" lon="2.49855">
        <ele>424</ele>
        <time>2018-05-05T11:02:06Z</time>
      </trkpt>
      <trkpt lat="44.60479" lon="2.49848">
        <ele>424</ele>
        <time>2018-05-05T11:02:10Z</time>
      </trkpt>
      <trkpt lat="44.60475" lon="2.4983">
        <ele>424</ele>
        <time>2018-05-05T11:02:22Z</time>
      </trkpt>
      <trkpt lat="44.60475" lon="2.49823">
        <ele>424</ele>
        <time>2018-05-05T11:02:26Z</time>
      </trkpt>
      <trkpt lat="44.60476" lon="2.49815">
        <ele>424</ele>
        <time>2018-05-05T11:02:30Z</time>
      </trkpt>
      <trkpt lat="44.60476" lon="2.49794">
        <ele>423</ele>
        <time>2018-05-05T11:02:42Z</time>
      </trkpt>
      <trkpt lat="44.60485" lon="2.49739">
        <ele>423</ele>
        <time>2018-05-05T11:03:16Z</time>
      </trkpt>
      <trkpt lat="44.60512" lon="2.49654">
        <ele>421</ele>
        <time>2018-05-05T11:04:13Z</time>
      </trkpt>
      <trkpt lat="44.60512" lon="2.49647">
        <ele>421</ele>
        <time>2018-05-05T11:04:17Z</time>
      </trkpt>
      <trkpt lat="44.60523" lon="2.496">
        <ele>421</ele>
        <time>2018-05-05T11:04:47Z</time>
      </trkpt>
      <trkpt lat="44.60516" lon="2.49599">
        <ele>422</ele>
        <time>2018-05-05T11:05:12Z</time>
      </trkpt>
      <trkpt lat="44.60513" lon="2.49594">
        <ele>422</ele>
        <time>2018-05-05T11:05:16Z</time>
      </trkpt>
      <trkpt lat="44.60509" lon="2.49564">
        <ele>424</ele>
        <time>2018-05-05T11:05:35Z</time>
      </trkpt>
      <trkpt lat="44.60513" lon="2.49544">
        <ele>428</ele>
        <time>2018-05-05T11:05:50Z</time>
      </trkpt>
      <trkpt lat="44.60511" lon="2.49517">
        <ele>432</ele>
        <time>2018-05-05T11:06:08Z</time>
      </trkpt>
      <trkpt lat="44.60513" lon="2.49502">
        <ele>434</ele>
        <time>2018-05-05T11:06:18Z</time>
      </trkpt>
      <trkpt lat="44.60511" lon="2.49495">
        <ele>435</ele>
        <time>2018-05-05T11:06:30Z</time>
      </trkpt>
      <trkpt lat="44.60512" lon="2.49481">
        <ele>436</ele>
        <time>2018-05-05T11:06:39Z</time>
      </trkpt>
      <trkpt lat="44.60507" lon="2.49456">
        <ele>440</ele>
        <time>2018-05-05T11:06:57Z</time>
      </trkpt>
      <trkpt lat="44.60498" lon="2.49438">
        <ele>442</ele>
        <time>2018-05-05T11:07:11Z</time>
      </trkpt>
      <trkpt lat="44.60499" lon="2.49429">
        <ele>444</ele>
        <time>2018-05-05T11:07:19Z</time>
      </trkpt>
      <trkpt lat="44.60502" lon="2.49416">
        <ele>445</ele>
        <time>2018-05-05T11:07:30Z</time>
      </trkpt>
      <trkpt lat="44.60504" lon="2.49372">
        <ele>451</ele>
        <time>2018-05-05T11:08:04Z</time>
      </trkpt>
      <trkpt lat="44.60495" lon="2.49337">
        <ele>456</ele>
        <time>2018-05-05T11:08:27Z</time>
      </trkpt>
      <trkpt lat="44.60465" lon="2.49269">
        <ele>462</ele>
        <time>2018-05-05T11:09:13Z</time>
      </trkpt>
      <trkpt lat="44.60457" lon="2.49242">
        <ele>464</ele>
        <time>2018-05-05T11:09:29Z</time>
      </trkpt>
      <trkpt lat="44.60456" lon="2.49235">
        <ele>464</ele>
        <time>2018-05-05T11:09:33Z</time>
      </trkpt>
      <trkpt lat="44.60459" lon="2.49226">
        <ele>465</ele>
        <time>2018-05-05T11:09:41Z</time>
      </trkpt>
      <trkpt lat="44.60458" lon="2.49218">
        <ele>466</ele>
        <time>2018-05-05T11:09:46Z</time>
      </trkpt>
      <trkpt lat="44.60453" lon="2.49212">
        <ele>467</ele>
        <time>2018-05-05T11:09:53Z</time>
      </trkpt>
      <trkpt lat="44.60432" lon="2.492">
        <ele>471</ele>
        <time>2018-05-05T11:10:18Z</time>
      </trkpt>
      <trkpt lat="44.60425" lon="2.49189">
        <ele>473</ele>
        <time>2018-05-05T11:10:28Z</time>
      </trkpt>
      <trkpt lat="44.60416" lon="2.49151">
        <ele>477</ele>
        <time>2018-05-05T11:11:04Z</time>
      </trkpt>
      <trkpt lat="44.60416" lon="2.49141">
        <ele>478</ele>
        <time>2018-05-05T11:11:11Z</time>
      </trkpt>
      <trkpt lat="44.60434" lon="2.49082">
        <ele>484</ele>
        <time>2018-05-05T11:12:08Z</time>
      </trkpt>
      <trkpt lat="44.6044" lon="2.4907">
        <ele>485</ele>
        <time>2018-05-05T11:12:17Z</time>
      </trkpt>
      <trkpt lat="44.60441" lon="2.49064">
        <ele>485</ele>
        <time>2018-05-05T11:12:21Z</time>
      </trkpt>
      <trkpt lat="44.6045" lon="2.49048">
        <ele>487</ele>
        <time>2018-05-05T11:12:34Z</time>
      </trkpt>
      <trkpt lat="44.60473" lon="2.48965">
        <ele>493</ele>
        <time>2018-05-05T11:13:52Z</time>
      </trkpt>
      <trkpt lat="44.60476" lon="2.4896">
        <ele>494</ele>
        <time>2018-05-05T11:13:57Z</time>
      </trkpt>
      <trkpt lat="44.60517" lon="2.4884">
        <ele>503</ele>
        <time>2018-05-05T11:15:31Z</time>
      </trkpt>
      <trkpt lat="44.6052" lon="2.48805">
        <ele>503</ele>
        <time>2018-05-05T11:15:52Z</time>
      </trkpt>
      <trkpt lat="44.60519" lon="2.48791">
        <ele>504</ele>
        <time>2018-05-05T11:16:23Z</time>
      </trkpt>
      <trkpt lat="44.60523" lon="2.48774">
        <ele>504</ele>
        <time>2018-05-05T11:16:42Z</time>
      </trkpt>
      <trkpt lat="44.60524" lon="2.4876">
        <ele>505</ele>
        <time>2018-05-05T11:16:50Z</time>
      </trkpt>
      <trkpt lat="44.60525" lon="2.48747">
        <ele>505</ele>
        <time>2018-05-05T11:16:58Z</time>
      </trkpt>
      <trkpt lat="44.60526" lon="2.48727">
        <ele>505</ele>
        <time>2018-05-05T11:17:10Z</time>
      </trkpt>
      <trkpt lat="44.60525" lon="2.4872">
        <ele>505</ele>
        <time>2018-05-05T11:17:15Z</time>
      </trkpt>
      <trkpt lat="44.60513" lon="2.48698">
        <ele>507</ele>
        <time>2018-05-05T11:17:32Z</time>
      </trkpt>
      <trkpt lat="44.60503" lon="2.48682">
        <ele>508</ele>
        <time>2018-05-05T11:17:47Z</time>
      </trkpt>
      <trkpt lat="44.60498" lon="2.48672">
        <ele>508</ele>
        <time>2018-05-05T11:17:57Z</time>
      </trkpt>
      <trkpt lat="44.60494" lon="2.48666">
        <ele>508</ele>
        <time>2018-05-05T11:18:02Z</time>
      </trkpt>
      <trkpt lat="44.60491" lon="2.48661">
        <ele>508</ele>
        <time>2018-05-05T11:18:06Z</time>
      </trkpt>
      <trkpt lat="44.60491" lon="2.48654">
        <ele>508</ele>
        <time>2018-05-05T11:18:10Z</time>
      </trkpt>
      <trkpt lat="44.60494" lon="2.48649">
        <ele>508</ele>
        <time>2018-05-05T11:18:14Z</time>
      </trkpt>
      <trkpt lat="44.60499" lon="2.48645">
        <ele>509</ele>
        <time>2018-05-05T11:18:18Z</time>
      </trkpt>
      <trkpt lat="44.60503" lon="2.4864">
        <ele>509</ele>
        <time>2018-05-05T11:18:23Z</time>
      </trkpt>
      <trkpt lat="44.60505" lon="2.48624">
        <ele>510</ele>
        <time>2018-05-05T11:18:33Z</time>
      </trkpt>
      <trkpt lat="44.60509" lon="2.48617">
        <ele>511</ele>
        <time>2018-05-05T11:18:49Z</time>
      </trkpt>
      <trkpt lat="44.60511" lon="2.48602">
        <ele>512</ele>
        <time>2018-05-05T11:18:59Z</time>
      </trkpt>
      <trkpt lat="44.60508" lon="2.48598">
        <ele>511</ele>
        <time>2018-05-05T11:19:49Z</time>
      </trkpt>
      <trkpt lat="44.60502" lon="2.486">
        <ele>511</ele>
        <time>2018-05-05T11:20:06Z</time>
      </trkpt>
      <trkpt lat="44.60497" lon="2.486">
        <ele>511</ele>
        <time>2018-05-05T11:20:11Z</time>
      </trkpt>
      <trkpt lat="44.60497" lon="2.48598">
        <ele>511</ele>
        <time>2018-05-05T11:20:38Z</time>
      </trkpt>
      <trkpt lat="44.60506" lon="2.48603">
        <ele>512</ele>
        <time>2018-05-05T11:22:28Z</time>
      </trkpt>
      <trkpt lat="44.60507" lon="2.48614">
        <ele>512</ele>
        <time>2018-05-05T11:23:53Z</time>
      </trkpt>
      <trkpt lat="44.60515" lon="2.48603">
        <ele>512</ele>
        <time>2018-05-05T11:24:05Z</time>
      </trkpt>
      <trkpt lat="44.60512" lon="2.48614">
        <ele>512</ele>
        <time>2018-05-05T11:24:28Z</time>
      </trkpt>
      <trkpt lat="44.60508" lon="2.48611">
        <ele>512</ele>
        <time>2018-05-05T11:24:35Z</time>
      </trkpt>
      <trkpt lat="44.60508" lon="2.48603">
        <ele>512</ele>
        <time>2018-05-05T11:24:46Z</time>
      </trkpt>
      <trkpt lat="44.6051" lon="2.48593">
        <ele>514</ele>
        <time>2018-05-05T11:45:36Z</time>
      </trkpt>
      <trkpt lat="44.60514" lon="2.48603">
        <ele>513</ele>
        <time>2018-05-05T11:45:46Z</time>
      </trkpt>
      <trkpt lat="44.60509" lon="2.48607">
        <ele>514</ele>
        <time>2018-05-05T11:46:47Z</time>
      </trkpt>
      <trkpt lat="44.60511" lon="2.48593">
        <ele>513</ele>
        <time>2018-05-05T11:47:03Z</time>
      </trkpt>
      <trkpt lat="44.60519" lon="2.48575">
        <ele>514</ele>
        <time>2018-05-05T11:47:26Z</time>
      </trkpt>
      <trkpt lat="44.60529" lon="2.48558">
        <ele>510</ele>
        <time>2018-05-05T11:47:57Z</time>
      </trkpt>
      <trkpt lat="44.60535" lon="2.48564">
        <ele>511</ele>
        <time>2018-05-05T11:48:15Z</time>
      </trkpt>
      <trkpt lat="44.60534" lon="2.48564">
        <ele>513</ele>
        <time>2018-05-05T11:48:50Z</time>
      </trkpt>
      <trkpt lat="44.60537" lon="2.48574">
        <ele>512</ele>
        <time>2018-05-05T11:49:05Z</time>
      </trkpt>
      <trkpt lat="44.60527" lon="2.48581">
        <ele>512</ele>
        <time>2018-05-05T11:49:36Z</time>
      </trkpt>
      <trkpt lat="44.60533" lon="2.48585">
        <ele>513</ele>
        <time>2018-05-05T11:55:30Z</time>
      </trkpt>
      <trkpt lat="44.60534" lon="2.48592">
        <ele>513</ele>
        <time>2018-05-05T11:55:35Z</time>
      </trkpt>
      <trkpt lat="44.6054" lon="2.48598">
        <ele>513</ele>
        <time>2018-05-05T11:55:49Z</time>
      </trkpt>
      <trkpt lat="44.60535" lon="2.486">
        <ele>513</ele>
        <time>2018-05-05T11:56:07Z</time>
      </trkpt>
      <trkpt lat="44.60534" lon="2.48586">
        <ele>512</ele>
        <time>2018-05-05T11:56:49Z</time>
      </trkpt>
      <trkpt lat="44.60535" lon="2.48591">
        <ele>512</ele>
        <time>2018-05-05T11:57:09Z</time>
      </trkpt>
      <trkpt lat="44.60535" lon="2.48597">
        <ele>512</ele>
        <time>2018-05-05T11:57:13Z</time>
      </trkpt>
      <trkpt lat="44.60533" lon="2.48604">
        <ele>512</ele>
        <time>2018-05-05T11:57:18Z</time>
      </trkpt>
      <trkpt lat="44.60528" lon="2.48608">
        <ele>512</ele>
        <time>2018-05-05T11:58:16Z</time>
      </trkpt>
      <trkpt lat="44.60528" lon="2.48596">
        <ele>513</ele>
        <time>2018-05-05T11:58:44Z</time>
      </trkpt>
      <trkpt lat="44.60532" lon="2.48597">
        <ele>513</ele>
        <time>2018-05-05T11:58:58Z</time>
      </trkpt>
      <trkpt lat="44.60532" lon="2.48588">
        <ele>513</ele>
        <time>2018-05-05T11:59:32Z</time>
      </trkpt>
      <trkpt lat="44.60534" lon="2.48576">
        <ele>513</ele>
        <time>2018-05-05T11:59:42Z</time>
      </trkpt>
      <trkpt lat="44.60529" lon="2.48572">
        <ele>512</ele>
        <time>2018-05-05T12:00:00Z</time>
      </trkpt>
      <trkpt lat="44.60524" lon="2.48574">
        <ele>512</ele>
        <time>2018-05-05T12:00:06Z</time>
      </trkpt>
      <trkpt lat="44.60517" lon="2.48593">
        <ele>514</ele>
        <time>2018-05-05T12:00:18Z</time>
      </trkpt>
      <trkpt lat="44.60514" lon="2.48597">
        <ele>514</ele>
        <time>2018-05-05T12:00:22Z</time>
      </trkpt>
      <trkpt lat="44.60509" lon="2.48598">
        <ele>514</ele>
        <time>2018-05-05T12:00:26Z</time>
      </trkpt>
      <trkpt lat="44.60508" lon="2.48595">
        <ele>511</ele>
        <time>2018-05-05T12:05:51Z</time>
      </trkpt>
      <trkpt lat="44.60519" lon="2.48574">
        <ele>510</ele>
        <time>2018-05-05T12:06:12Z</time>
      </trkpt>
      <trkpt lat="44.6053" lon="2.48563">
        <ele>508</ele>
        <time>2018-05-05T12:06:26Z</time>
      </trkpt>
      <trkpt lat="44.60532" lon="2.48557">
        <ele>507</ele>
        <time>2018-05-05T12:06:31Z</time>
      </trkpt>
      <trkpt lat="44.60531" lon="2.48542">
        <ele>506</ele>
        <time>2018-05-05T12:06:41Z</time>
      </trkpt>
      <trkpt lat="44.60532" lon="2.48528">
        <ele>506</ele>
        <time>2018-05-05T12:07:03Z</time>
      </trkpt>
      <trkpt lat="44.60529" lon="2.48516">
        <ele>505</ele>
        <time>2018-05-05T12:07:13Z</time>
      </trkpt>
      <trkpt lat="44.60526" lon="2.48511">
        <ele>505</ele>
        <time>2018-05-05T12:07:17Z</time>
      </trkpt>
      <trkpt lat="44.6052" lon="2.48492">
        <ele>505</ele>
        <time>2018-05-05T12:07:32Z</time>
      </trkpt>
      <trkpt lat="44.60516" lon="2.48487">
        <ele>505</ele>
        <time>2018-05-05T12:07:36Z</time>
      </trkpt>
      <trkpt lat="44.60515" lon="2.48481">
        <ele>504</ele>
        <time>2018-05-05T12:07:41Z</time>
      </trkpt>
      <trkpt lat="44.60512" lon="2.48474">
        <ele>504</ele>
        <time>2018-05-05T12:07:46Z</time>
      </trkpt>
      <trkpt lat="44.60505" lon="2.48464">
        <ele>504</ele>
        <time>2018-05-05T12:07:55Z</time>
      </trkpt>
      <trkpt lat="44.60495" lon="2.48441">
        <ele>504</ele>
        <time>2018-05-05T12:08:13Z</time>
      </trkpt>
      <trkpt lat="44.60489" lon="2.48431">
        <ele>504</ele>
        <time>2018-05-05T12:08:22Z</time>
      </trkpt>
      <trkpt lat="44.60459" lon="2.48404">
        <ele>507</ele>
        <time>2018-05-05T12:08:54Z</time>
      </trkpt>
      <trkpt lat="44.60455" lon="2.48399">
        <ele>507</ele>
        <time>2018-05-05T12:08:58Z</time>
      </trkpt>
      <trkpt lat="44.60452" lon="2.48393">
        <ele>507</ele>
        <time>2018-05-05T12:09:02Z</time>
      </trkpt>
      <trkpt lat="44.60449" lon="2.48374">
        <ele>508</ele>
        <time>2018-05-05T12:09:15Z</time>
      </trkpt>
      <trkpt lat="44.60448" lon="2.48332">
        <ele>509</ele>
        <time>2018-05-05T12:09:41Z</time>
      </trkpt>
      <trkpt lat="44.60454" lon="2.4829">
        <ele>511</ele>
        <time>2018-05-05T12:10:10Z</time>
      </trkpt>
      <trkpt lat="44.60461" lon="2.48268">
        <ele>514</ele>
        <time>2018-05-05T12:10:28Z</time>
      </trkpt>
      <trkpt lat="44.6047" lon="2.48255">
        <ele>515</ele>
        <time>2018-05-05T12:11:11Z</time>
      </trkpt>
      <trkpt lat="44.60484" lon="2.48239">
        <ele>519</ele>
        <time>2018-05-05T12:11:40Z</time>
      </trkpt>
      <trkpt lat="44.60486" lon="2.48231">
        <ele>522</ele>
        <time>2018-05-05T12:11:52Z</time>
      </trkpt>
      <trkpt lat="44.6049" lon="2.48227">
        <ele>523</ele>
        <time>2018-05-05T12:11:58Z</time>
      </trkpt>
      <trkpt lat="44.60495" lon="2.48224">
        <ele>523</ele>
        <time>2018-05-05T12:12:03Z</time>
      </trkpt>
      <trkpt lat="44.60498" lon="2.48215">
        <ele>523</ele>
        <time>2018-05-05T12:12:11Z</time>
      </trkpt>
      <trkpt lat="44.60503" lon="2.48209">
        <ele>524</ele>
        <time>2018-05-05T12:12:18Z</time>
      </trkpt>
      <trkpt lat="44.60511" lon="2.48181">
        <ele>526</ele>
        <time>2018-05-05T12:12:48Z</time>
      </trkpt>
      <trkpt lat="44.60514" lon="2.48176">
        <ele>528</ele>
        <time>2018-05-05T12:13:03Z</time>
      </trkpt>
      <trkpt lat="44.60516" lon="2.4817">
        <ele>528</ele>
        <time>2018-05-05T12:13:09Z</time>
      </trkpt>
      <trkpt lat="44.60517" lon="2.48164">
        <ele>529</ele>
        <time>2018-05-05T12:13:15Z</time>
      </trkpt>
      <trkpt lat="44.60517" lon="2.48146">
        <ele>532</ele>
        <time>2018-05-05T12:13:39Z</time>
      </trkpt>
      <trkpt lat="44.60533" lon="2.48122">
        <ele>536</ele>
        <time>2018-05-05T12:14:05Z</time>
      </trkpt>
      <trkpt lat="44.60536" lon="2.48117">
        <ele>536</ele>
        <time>2018-05-05T12:14:10Z</time>
      </trkpt>
      <trkpt lat="44.60555" lon="2.48056">
        <ele>543</ele>
        <time>2018-05-05T12:15:14Z</time>
      </trkpt>
      <trkpt lat="44.60557" lon="2.48046">
        <ele>544</ele>
        <time>2018-05-05T12:15:23Z</time>
      </trkpt>
      <trkpt lat="44.60552" lon="2.48026">
        <ele>546</ele>
        <time>2018-05-05T12:15:41Z</time>
      </trkpt>
      <trkpt lat="44.60554" lon="2.48014">
        <ele>547</ele>
        <time>2018-05-05T12:15:53Z</time>
      </trkpt>
      <trkpt lat="44.60555" lon="2.4799">
        <ele>548</ele>
        <time>2018-05-05T12:18:47Z</time>
      </trkpt>
      <trkpt lat="44.6056" lon="2.47955">
        <ele>551</ele>
        <time>2018-05-05T12:19:11Z</time>
      </trkpt>
      <trkpt lat="44.60564" lon="2.47943">
        <ele>553</ele>
        <time>2018-05-05T12:19:21Z</time>
      </trkpt>
      <trkpt lat="44.60584" lon="2.47935">
        <ele>555</ele>
        <time>2018-05-05T12:19:39Z</time>
      </trkpt>
      <trkpt lat="44.6059" lon="2.47926">
        <ele>556</ele>
        <time>2018-05-05T12:19:49Z</time>
      </trkpt>
      <trkpt lat="44.60594" lon="2.4792">
        <ele>556</ele>
        <time>2018-05-05T12:19:54Z</time>
      </trkpt>
      <trkpt lat="44.60595" lon="2.47915">
        <ele>558</ele>
        <time>2018-05-05T12:20:05Z</time>
      </trkpt>
      <trkpt lat="44.606" lon="2.47912">
        <ele>558</ele>
        <time>2018-05-05T12:20:41Z</time>
      </trkpt>
      <trkpt lat="44.60605" lon="2.47898">
        <ele>560</ele>
        <time>2018-05-05T12:20:52Z</time>
      </trkpt>
      <trkpt lat="44.60608" lon="2.47892">
        <ele>561</ele>
        <time>2018-05-05T12:20:57Z</time>
      </trkpt>
      <trkpt lat="44.60611" lon="2.47877">
        <ele>563</ele>
        <time>2018-05-05T12:21:06Z</time>
      </trkpt>
      <trkpt lat="44.6061" lon="2.47871">
        <ele>564</ele>
        <time>2018-05-05T12:21:10Z</time>
      </trkpt>
      <trkpt lat="44.60611" lon="2.47864">
        <ele>564</ele>
        <time>2018-05-05T12:21:15Z</time>
      </trkpt>
      <trkpt lat="44.60618" lon="2.47844">
        <ele>567</ele>
        <time>2018-05-05T12:21:28Z</time>
      </trkpt>
      <trkpt lat="44.6062" lon="2.47828">
        <ele>568</ele>
        <time>2018-05-05T12:21:35Z</time>
      </trkpt>
      <trkpt lat="44.60623" lon="2.47822">
        <ele>569</ele>
        <time>2018-05-05T12:21:39Z</time>
      </trkpt>
      <trkpt lat="44.60622" lon="2.47815">
        <ele>569</ele>
        <time>2018-05-05T12:21:41Z</time>
      </trkpt>
      <trkpt lat="44.60624" lon="2.47802">
        <ele>571</ele>
        <time>2018-05-05T12:21:50Z</time>
      </trkpt>
      <trkpt lat="44.60599" lon="2.47736">
        <ele>579</ele>
        <time>2018-05-05T12:23:19Z</time>
      </trkpt>
      <trkpt lat="44.60558" lon="2.47658">
        <ele>577</ele>
        <time>2018-05-05T12:24:15Z</time>
      </trkpt>
      <trkpt lat="44.60544" lon="2.47588">
        <ele>578</ele>
        <time>2018-05-05T12:24:58Z</time>
      </trkpt>
      <trkpt lat="44.60537" lon="2.47541">
        <ele>580</ele>
        <time>2018-05-05T12:25:26Z</time>
      </trkpt>
      <trkpt lat="44.60536" lon="2.47514">
        <ele>581</ele>
        <time>2018-05-05T12:25:43Z</time>
      </trkpt>
      <trkpt lat="44.60527" lon="2.47473">
        <ele>585</ele>
        <time>2018-05-05T12:26:10Z</time>
      </trkpt>
      <trkpt lat="44.60529" lon="2.47451">
        <ele>587</ele>
        <time>2018-05-05T12:26:29Z</time>
      </trkpt>
      <trkpt lat="44.60543" lon="2.47407">
        <ele>592</ele>
        <time>2018-05-05T12:27:04Z</time>
      </trkpt>
      <trkpt lat="44.60544" lon="2.47379">
        <ele>593</ele>
        <time>2018-05-05T12:27:21Z</time>
      </trkpt>
      <trkpt lat="44.60534" lon="2.4731">
        <ele>597</ele>
        <time>2018-05-05T12:28:10Z</time>
      </trkpt>
      <trkpt lat="44.60535" lon="2.47303">
        <ele>598</ele>
        <time>2018-05-05T12:28:15Z</time>
      </trkpt>
      <trkpt lat="44.60534" lon="2.47289">
        <ele>598</ele>
        <time>2018-05-05T12:28:25Z</time>
      </trkpt>
      <trkpt lat="44.60535" lon="2.47268">
        <ele>599</ele>
        <time>2018-05-05T12:28:38Z</time>
      </trkpt>
      <trkpt lat="44.60534" lon="2.47261">
        <ele>599</ele>
        <time>2018-05-05T12:28:42Z</time>
      </trkpt>
      <trkpt lat="44.60533" lon="2.47253">
        <ele>599</ele>
        <time>2018-05-05T12:28:47Z</time>
      </trkpt>
      <trkpt lat="44.60525" lon="2.47221">
        <ele>600</ele>
        <time>2018-05-05T12:29:23Z</time>
      </trkpt>
      <trkpt lat="44.6052" lon="2.47208">
        <ele>600</ele>
        <time>2018-05-05T12:29:31Z</time>
      </trkpt>
      <trkpt lat="44.60518" lon="2.47188">
        <ele>600</ele>
        <time>2018-05-05T12:29:45Z</time>
      </trkpt>
      <trkpt lat="44.60519" lon="2.47134">
        <ele>600</ele>
        <time>2018-05-05T12:30:13Z</time>
      </trkpt>
      <trkpt lat="44.6052" lon="2.47128">
        <ele>600</ele>
        <time>2018-05-05T12:30:16Z</time>
      </trkpt>
      <trkpt lat="44.6052" lon="2.47121">
        <ele>600</ele>
        <time>2018-05-05T12:30:20Z</time>
      </trkpt>
      <trkpt lat="44.60532" lon="2.47076">
        <ele>600</ele>
        <time>2018-05-05T12:30:44Z</time>
      </trkpt>
      <trkpt lat="44.60533" lon="2.47062">
        <ele>600</ele>
        <time>2018-05-05T12:30:52Z</time>
      </trkpt>
      <trkpt lat="44.6057" lon="2.4693">
        <ele>599</ele>
        <time>2018-05-05T12:32:12Z</time>
      </trkpt>
      <trkpt lat="44.60577" lon="2.46913">
        <ele>598</ele>
        <time>2018-05-05T12:32:24Z</time>
      </trkpt>
      <trkpt lat="44.6059" lon="2.46867">
        <ele>598</ele>
        <time>2018-05-05T12:32:54Z</time>
      </trkpt>
      <trkpt lat="44.6059" lon="2.46854">
        <ele>599</ele>
        <time>2018-05-05T12:33:02Z</time>
      </trkpt>
      <trkpt lat="44.60587" lon="2.46827">
        <ele>600</ele>
        <time>2018-05-05T12:33:18Z</time>
      </trkpt>
      <trkpt lat="44.60596" lon="2.4676">
        <ele>602</ele>
        <time>2018-05-05T12:33:58Z</time>
      </trkpt>
      <trkpt lat="44.60658" lon="2.46559">
        <ele>607</ele>
        <time>2018-05-05T12:36:10Z</time>
      </trkpt>
      <trkpt lat="44.60663" lon="2.46507">
        <ele>606</ele>
        <time>2018-05-05T12:36:37Z</time>
      </trkpt>
      <trkpt lat="44.6066" lon="2.46444">
        <ele>607</ele>
        <time>2018-05-05T12:37:13Z</time>
      </trkpt>
      <trkpt lat="44.60665" lon="2.46391">
        <ele>609</ele>
        <time>2018-05-05T12:37:47Z</time>
      </trkpt>
      <trkpt lat="44.60701" lon="2.46213">
        <ele>622</ele>
        <time>2018-05-05T12:39:53Z</time>
      </trkpt>
      <trkpt lat="44.607" lon="2.46163">
        <ele>623</ele>
        <time>2018-05-05T12:40:23Z</time>
      </trkpt>
      <trkpt lat="44.60701" lon="2.46157">
        <ele>623</ele>
        <time>2018-05-05T12:40:27Z</time>
      </trkpt>
      <trkpt lat="44.60712" lon="2.46142">
        <ele>624</ele>
        <time>2018-05-05T12:40:41Z</time>
      </trkpt>
      <trkpt lat="44.60715" lon="2.46134">
        <ele>624</ele>
        <time>2018-05-05T12:40:48Z</time>
      </trkpt>
      <trkpt lat="44.60721" lon="2.4613">
        <ele>625</ele>
        <time>2018-05-05T12:41:50Z</time>
      </trkpt>
      <trkpt lat="44.60726" lon="2.46129">
        <ele>625</ele>
        <time>2018-05-05T12:41:55Z</time>
      </trkpt>
      <trkpt lat="44.60732" lon="2.46126">
        <ele>625</ele>
        <time>2018-05-05T12:42:11Z</time>
      </trkpt>
      <trkpt lat="44.60823" lon="2.46098">
        <ele>625</ele>
        <time>2018-05-05T12:43:25Z</time>
      </trkpt>
      <trkpt lat="44.61095" lon="2.45982">
        <ele>623</ele>
        <time>2018-05-05T12:47:08Z</time>
      </trkpt>
      <trkpt lat="44.61099" lon="2.45978">
        <ele>623</ele>
        <time>2018-05-05T12:47:12Z</time>
      </trkpt>
      <trkpt lat="44.61099" lon="2.45959">
        <ele>623</ele>
        <time>2018-05-05T12:47:28Z</time>
      </trkpt>
      <trkpt lat="44.61146" lon="2.45824">
        <ele>625</ele>
        <time>2018-05-05T12:49:13Z</time>
      </trkpt>
      <trkpt lat="44.61158" lon="2.45764">
        <ele>624</ele>
        <time>2018-05-05T12:49:44Z</time>
      </trkpt>
      <trkpt lat="44.61172" lon="2.4573">
        <ele>623</ele>
        <time>2018-05-05T12:50:04Z</time>
      </trkpt>
      <trkpt lat="44.6119" lon="2.45701">
        <ele>621</ele>
        <time>2018-05-05T12:50:24Z</time>
      </trkpt>
      <trkpt lat="44.61219" lon="2.45665">
        <ele>617</ele>
        <time>2018-05-05T12:50:57Z</time>
      </trkpt>
      <trkpt lat="44.61223" lon="2.45659">
        <ele>617</ele>
        <time>2018-05-05T12:51:01Z</time>
      </trkpt>
      <trkpt lat="44.61239" lon="2.45638">
        <ele>614</ele>
        <time>2018-05-05T12:51:17Z</time>
      </trkpt>
      <trkpt lat="44.61243" lon="2.45634">
        <ele>613</ele>
        <time>2018-05-05T12:51:21Z</time>
      </trkpt>
      <trkpt lat="44.61249" lon="2.45633">
        <ele>613</ele>
        <time>2018-05-05T12:51:25Z</time>
      </trkpt>
      <trkpt lat="44.61261" lon="2.4562">
        <ele>612</ele>
        <time>2018-05-05T12:51:38Z</time>
      </trkpt>
      <trkpt lat="44.61268" lon="2.45608">
        <ele>611</ele>
        <time>2018-05-05T12:51:47Z</time>
      </trkpt>
      <trkpt lat="44.61272" lon="2.45603">
        <ele>611</ele>
        <time>2018-05-05T12:51:51Z</time>
      </trkpt>
      <trkpt lat="44.61274" lon="2.45596">
        <ele>611</ele>
        <time>2018-05-05T12:51:56Z</time>
      </trkpt>
      <trkpt lat="44.61298" lon="2.45552">
        <ele>611</ele>
        <time>2018-05-05T12:52:28Z</time>
      </trkpt>
      <trkpt lat="44.61302" lon="2.45524">
        <ele>612</ele>
        <time>2018-05-05T12:52:45Z</time>
      </trkpt>
      <trkpt lat="44.613" lon="2.45518">
        <ele>611</ele>
        <time>2018-05-05T12:52:50Z</time>
      </trkpt>
      <trkpt lat="44.61272" lon="2.45468">
        <ele>611</ele>
        <time>2018-05-05T12:53:27Z</time>
      </trkpt>
      <trkpt lat="44.61237" lon="2.45374">
        <ele>613</ele>
        <time>2018-05-05T12:54:28Z</time>
      </trkpt>
      <trkpt lat="44.61212" lon="2.45331">
        <ele>615</ele>
        <time>2018-05-05T12:54:59Z</time>
      </trkpt>
      <trkpt lat="44.61204" lon="2.45323">
        <ele>615</ele>
        <time>2018-05-05T12:55:07Z</time>
      </trkpt>
      <trkpt lat="44.61199" lon="2.45319">
        <ele>615</ele>
        <time>2018-05-05T12:55:11Z</time>
      </trkpt>
      <trkpt lat="44.61183" lon="2.45294">
        <ele>616</ele>
        <time>2018-05-05T12:55:31Z</time>
      </trkpt>
      <trkpt lat="44.61098" lon="2.45192">
        <ele>614</ele>
        <time>2018-05-05T12:56:56Z</time>
      </trkpt>
      <trkpt lat="44.61092" lon="2.4518">
        <ele>614</ele>
        <time>2018-05-05T12:57:04Z</time>
      </trkpt>
      <trkpt lat="44.61048" lon="2.45066">
        <ele>617</ele>
        <time>2018-05-05T12:58:21Z</time>
      </trkpt>
      <trkpt lat="44.61037" lon="2.45012">
        <ele>615</ele>
        <time>2018-05-05T12:58:55Z</time>
      </trkpt>
      <trkpt lat="44.61026" lon="2.44979">
        <ele>615</ele>
        <time>2018-05-05T12:59:16Z</time>
      </trkpt>
      <trkpt lat="44.61011" lon="2.44951">
        <ele>616</ele>
        <time>2018-05-05T12:59:36Z</time>
      </trkpt>
      <trkpt lat="44.61007" lon="2.44946">
        <ele>616</ele>
        <time>2018-05-05T12:59:40Z</time>
      </trkpt>
      <trkpt lat="44.60935" lon="2.44894">
        <ele>615</ele>
        <time>2018-05-05T13:00:44Z</time>
      </trkpt>
      <trkpt lat="44.60928" lon="2.44883">
        <ele>614</ele>
        <time>2018-05-05T13:00:52Z</time>
      </trkpt>
      <trkpt lat="44.60926" lon="2.44876">
        <ele>614</ele>
        <time>2018-05-05T13:00:57Z</time>
      </trkpt>
      <trkpt lat="44.60915" lon="2.44849">
        <ele>612</ele>
        <time>2018-05-05T13:01:33Z</time>
      </trkpt>
      <trkpt lat="44.6091" lon="2.44846">
        <ele>612</ele>
        <time>2018-05-05T13:01:38Z</time>
      </trkpt>
      <trkpt lat="44.60899" lon="2.44849">
        <ele>611</ele>
        <time>2018-05-05T13:01:46Z</time>
      </trkpt>
      <trkpt lat="44.60895" lon="2.44853">
        <ele>611</ele>
        <time>2018-05-05T13:01:50Z</time>
      </trkpt>
      <trkpt lat="44.6089" lon="2.44855">
        <ele>611</ele>
        <time>2018-05-05T13:01:54Z</time>
      </trkpt>
      <trkpt lat="44.6087" lon="2.44846">
        <ele>609</ele>
        <time>2018-05-05T13:02:11Z</time>
      </trkpt>
      <trkpt lat="44.60866" lon="2.44842">
        <ele>609</ele>
        <time>2018-05-05T13:02:15Z</time>
      </trkpt>
      <trkpt lat="44.60863" lon="2.44837">
        <ele>609</ele>
        <time>2018-05-05T13:02:19Z</time>
      </trkpt>
      <trkpt lat="44.60861" lon="2.44831">
        <ele>609</ele>
        <time>2018-05-05T13:02:23Z</time>
      </trkpt>
      <trkpt lat="44.60861" lon="2.44823">
        <ele>609</ele>
        <time>2018-05-05T13:02:27Z</time>
      </trkpt>
      <trkpt lat="44.60866" lon="2.44799">
        <ele>610</ele>
        <time>2018-05-05T13:02:51Z</time>
      </trkpt>
      <trkpt lat="44.6088" lon="2.44759">
        <ele>609</ele>
        <time>2018-05-05T13:03:15Z</time>
      </trkpt>
      <trkpt lat="44.60936" lon="2.44634">
        <ele>606</ele>
        <time>2018-05-05T13:04:35Z</time>
      </trkpt>
      <trkpt lat="44.60942" lon="2.44586">
        <ele>605</ele>
        <time>2018-05-05T13:05:03Z</time>
      </trkpt>
      <trkpt lat="44.60964" lon="2.44507">
        <ele>603</ele>
        <time>2018-05-05T13:05:51Z</time>
      </trkpt>
      <trkpt lat="44.60966" lon="2.44487">
        <ele>602</ele>
        <time>2018-05-05T13:06:03Z</time>
      </trkpt>
      <trkpt lat="44.60964" lon="2.44473">
        <ele>602</ele>
        <time>2018-05-05T13:06:11Z</time>
      </trkpt>
      <trkpt lat="44.60958" lon="2.44462">
        <ele>602</ele>
        <time>2018-05-05T13:06:19Z</time>
      </trkpt>
      <trkpt lat="44.60955" lon="2.44456">
        <ele>601</ele>
        <time>2018-05-05T13:06:23Z</time>
      </trkpt>
      <trkpt lat="44.60921" lon="2.4443">
        <ele>601</ele>
        <time>2018-05-05T13:06:51Z</time>
      </trkpt>
      <trkpt lat="44.60915" lon="2.44418">
        <ele>601</ele>
        <time>2018-05-05T13:06:59Z</time>
      </trkpt>
      <trkpt lat="44.60913" lon="2.44411">
        <ele>601</ele>
        <time>2018-05-05T13:07:03Z</time>
      </trkpt>
      <trkpt lat="44.60912" lon="2.44404">
        <ele>600</ele>
        <time>2018-05-05T13:07:07Z</time>
      </trkpt>
      <trkpt lat="44.60912" lon="2.44397">
        <ele>600</ele>
        <time>2018-05-05T13:07:11Z</time>
      </trkpt>
      <trkpt lat="44.60924" lon="2.44313">
        <ele>599</ele>
        <time>2018-05-05T13:07:55Z</time>
      </trkpt>
      <trkpt lat="44.60964" lon="2.44209">
        <ele>595</ele>
        <time>2018-05-05T13:08:59Z</time>
      </trkpt>
      <trkpt lat="44.60969" lon="2.4418">
        <ele>595</ele>
        <time>2018-05-05T13:09:15Z</time>
      </trkpt>
      <trkpt lat="44.60968" lon="2.44173">
        <ele>594</ele>
        <time>2018-05-05T13:09:19Z</time>
      </trkpt>
      <trkpt lat="44.60963" lon="2.4416">
        <ele>594</ele>
        <time>2018-05-05T13:09:27Z</time>
      </trkpt>
      <trkpt lat="44.60939" lon="2.44115">
        <ele>592</ele>
        <time>2018-05-05T13:09:59Z</time>
      </trkpt>
      <trkpt lat="44.60935" lon="2.44102">
        <ele>592</ele>
        <time>2018-05-05T13:10:07Z</time>
      </trkpt>
      <trkpt lat="44.60934" lon="2.44087">
        <ele>592</ele>
        <time>2018-05-05T13:10:15Z</time>
      </trkpt>
      <trkpt lat="44.60936" lon="2.44062">
        <ele>591</ele>
        <time>2018-05-05T13:10:27Z</time>
      </trkpt>
      <trkpt lat="44.60945" lon="2.44027">
        <ele>590</ele>
        <time>2018-05-05T13:10:46Z</time>
      </trkpt>
      <trkpt lat="44.60957" lon="2.43992">
        <ele>590</ele>
        <time>2018-05-05T13:11:06Z</time>
      </trkpt>
      <trkpt lat="44.60963" lon="2.43956">
        <ele>589</ele>
        <time>2018-05-05T13:11:26Z</time>
      </trkpt>
      <trkpt lat="44.60963" lon="2.43943">
        <ele>589</ele>
        <time>2018-05-05T13:11:36Z</time>
      </trkpt>
      <trkpt lat="44.60949" lon="2.4388">
        <ele>589</ele>
        <time>2018-05-05T13:12:16Z</time>
      </trkpt>
      <trkpt lat="44.60949" lon="2.43873">
        <ele>588</ele>
        <time>2018-05-05T13:12:20Z</time>
      </trkpt>
      <trkpt lat="44.60951" lon="2.43866">
        <ele>588</ele>
        <time>2018-05-05T13:12:24Z</time>
      </trkpt>
      <trkpt lat="44.60956" lon="2.43854">
        <ele>588</ele>
        <time>2018-05-05T13:12:32Z</time>
      </trkpt>
      <trkpt lat="44.60983" lon="2.43811">
        <ele>587</ele>
        <time>2018-05-05T13:13:04Z</time>
      </trkpt>
      <trkpt lat="44.60988" lon="2.43797">
        <ele>587</ele>
        <time>2018-05-05T13:13:12Z</time>
      </trkpt>
      <trkpt lat="44.60989" lon="2.43791">
        <ele>586</ele>
        <time>2018-05-05T13:13:16Z</time>
      </trkpt>
      <trkpt lat="44.6099" lon="2.43755">
        <ele>586</ele>
        <time>2018-05-05T13:13:36Z</time>
      </trkpt>
      <trkpt lat="44.60995" lon="2.43734">
        <ele>585</ele>
        <time>2018-05-05T13:13:48Z</time>
      </trkpt>
      <trkpt lat="44.60999" lon="2.43722">
        <ele>585</ele>
        <time>2018-05-05T13:13:56Z</time>
      </trkpt>
      <trkpt lat="44.61006" lon="2.4371">
        <ele>584</ele>
        <time>2018-05-05T13:14:04Z</time>
      </trkpt>
      <trkpt lat="44.61018" lon="2.43698">
        <ele>584</ele>
        <time>2018-05-05T13:14:16Z</time>
      </trkpt>
      <trkpt lat="44.61056" lon="2.43681">
        <ele>583</ele>
        <time>2018-05-05T13:14:48Z</time>
      </trkpt>
      <trkpt lat="44.6107" lon="2.43673">
        <ele>582</ele>
        <time>2018-05-05T13:15:00Z</time>
      </trkpt>
      <trkpt lat="44.61082" lon="2.43661">
        <ele>582</ele>
        <time>2018-05-05T13:15:13Z</time>
      </trkpt>
      <trkpt lat="44.61086" lon="2.43666">
        <ele>581</ele>
        <time>2018-05-05T13:15:26Z</time>
      </trkpt>
      <trkpt lat="44.61092" lon="2.43668">
        <ele>583</ele>
        <time>2018-05-05T13:15:34Z</time>
      </trkpt>
      <trkpt lat="44.61096" lon="2.43663">
        <ele>583</ele>
        <time>2018-05-05T13:16:22Z</time>
      </trkpt>
      <trkpt lat="44.61113" lon="2.43622">
        <ele>583</ele>
        <time>2018-05-05T13:17:43Z</time>
      </trkpt>
      <trkpt lat="44.61117" lon="2.436">
        <ele>583</ele>
        <time>2018-05-05T13:17:56Z</time>
      </trkpt>
      <trkpt lat="44.61111" lon="2.43498">
        <ele>578</ele>
        <time>2018-05-05T13:18:53Z</time>
      </trkpt>
      <trkpt lat="44.61103" lon="2.43438">
        <ele>576</ele>
        <time>2018-05-05T13:19:25Z</time>
      </trkpt>
      <trkpt lat="44.61095" lon="2.43406">
        <ele>575</ele>
        <time>2018-05-05T13:19:45Z</time>
      </trkpt>
      <trkpt lat="44.61078" lon="2.4337">
        <ele>576</ele>
        <time>2018-05-05T13:20:09Z</time>
      </trkpt>
      <trkpt lat="44.6107" lon="2.43337">
        <ele>576</ele>
        <time>2018-05-05T13:20:29Z</time>
      </trkpt>
      <trkpt lat="44.61069" lon="2.43314">
        <ele>576</ele>
        <time>2018-05-05T13:20:41Z</time>
      </trkpt>
      <trkpt lat="44.61074" lon="2.43259">
        <ele>576</ele>
        <time>2018-05-05T13:21:13Z</time>
      </trkpt>
      <trkpt lat="44.61081" lon="2.43225">
        <ele>575</ele>
        <time>2018-05-05T13:21:33Z</time>
      </trkpt>
      <trkpt lat="44.61095" lon="2.43188">
        <ele>575</ele>
        <time>2018-05-05T13:21:57Z</time>
      </trkpt>
      <trkpt lat="44.61153" lon="2.43106">
        <ele>574</ele>
        <time>2018-05-05T13:23:01Z</time>
      </trkpt>
      <trkpt lat="44.61167" lon="2.43088">
        <ele>574</ele>
        <time>2018-05-05T13:23:17Z</time>
      </trkpt>
      <trkpt lat="44.61177" lon="2.43071">
        <ele>573</ele>
        <time>2018-05-05T13:23:29Z</time>
      </trkpt>
      <trkpt lat="44.61178" lon="2.43065">
        <ele>573</ele>
        <time>2018-05-05T13:23:33Z</time>
      </trkpt>
      <trkpt lat="44.61182" lon="2.43039">
        <ele>572</ele>
        <time>2018-05-05T13:23:49Z</time>
      </trkpt>
      <trkpt lat="44.61181" lon="2.43026">
        <ele>572</ele>
        <time>2018-05-05T13:23:57Z</time>
      </trkpt>
      <trkpt lat="44.61178" lon="2.43013">
        <ele>572</ele>
        <time>2018-05-05T13:24:05Z</time>
      </trkpt>
      <trkpt lat="44.61173" lon="2.43001">
        <ele>571</ele>
        <time>2018-05-05T13:24:13Z</time>
      </trkpt>
      <trkpt lat="44.61163" lon="2.42986">
        <ele>571</ele>
        <time>2018-05-05T13:24:25Z</time>
      </trkpt>
      <trkpt lat="44.61154" lon="2.42978">
        <ele>571</ele>
        <time>2018-05-05T13:24:33Z</time>
      </trkpt>
      <trkpt lat="44.61115" lon="2.42959">
        <ele>572</ele>
        <time>2018-05-05T13:25:05Z</time>
      </trkpt>
      <trkpt lat="44.61106" lon="2.4295">
        <ele>572</ele>
        <time>2018-05-05T13:25:13Z</time>
      </trkpt>
      <trkpt lat="44.61103" lon="2.42945">
        <ele>573</ele>
        <time>2018-05-05T13:25:18Z</time>
      </trkpt>
      <trkpt lat="44.61098" lon="2.42942">
        <ele>573</ele>
        <time>2018-05-05T13:25:23Z</time>
      </trkpt>
      <trkpt lat="44.61093" lon="2.42942">
        <ele>573</ele>
        <time>2018-05-05T13:25:29Z</time>
      </trkpt>
      <trkpt lat="44.61088" lon="2.42944">
        <ele>573</ele>
        <time>2018-05-05T13:25:33Z</time>
      </trkpt>
      <trkpt lat="44.61083" lon="2.42943">
        <ele>572</ele>
        <time>2018-05-05T13:25:37Z</time>
      </trkpt>
      <trkpt lat="44.61054" lon="2.42928">
        <ele>571</ele>
        <time>2018-05-05T13:26:02Z</time>
      </trkpt>
      <trkpt lat="44.61051" lon="2.42921">
        <ele>572</ele>
        <time>2018-05-05T13:26:07Z</time>
      </trkpt>
      <trkpt lat="44.61039" lon="2.42912">
        <ele>574</ele>
        <time>2018-05-05T13:26:21Z</time>
      </trkpt>
      <trkpt lat="44.61033" lon="2.42905">
        <ele>575</ele>
        <time>2018-05-05T13:26:29Z</time>
      </trkpt>
      <trkpt lat="44.61015" lon="2.42893">
        <ele>576</ele>
        <time>2018-05-05T13:26:43Z</time>
      </trkpt>
      <trkpt lat="44.61012" lon="2.42889">
        <ele>577</ele>
        <time>2018-05-05T13:26:47Z</time>
      </trkpt>
      <trkpt lat="44.60992" lon="2.42844">
        <ele>573</ele>
        <time>2018-05-05T13:27:18Z</time>
      </trkpt>
      <trkpt lat="44.60985" lon="2.42833">
        <ele>573</ele>
        <time>2018-05-05T13:27:26Z</time>
      </trkpt>
      <trkpt lat="44.6097" lon="2.42783">
        <ele>573</ele>
        <time>2018-05-05T13:28:06Z</time>
      </trkpt>
      <trkpt lat="44.60968" lon="2.42777">
        <ele>572</ele>
        <time>2018-05-05T13:28:16Z</time>
      </trkpt>
      <trkpt lat="44.60963" lon="2.42767">
        <ele>571</ele>
        <time>2018-05-05T13:28:31Z</time>
      </trkpt>
      <trkpt lat="44.60954" lon="2.42762">
        <ele>569</ele>
        <time>2018-05-05T13:28:57Z</time>
      </trkpt>
      <trkpt lat="44.6095" lon="2.42749">
        <ele>568</ele>
        <time>2018-05-05T13:29:04Z</time>
      </trkpt>
      <trkpt lat="44.60941" lon="2.42632">
        <ele>564</ele>
        <time>2018-05-05T13:30:05Z</time>
      </trkpt>
      <trkpt lat="44.60946" lon="2.42529">
        <ele>563</ele>
        <time>2018-05-05T13:31:10Z</time>
      </trkpt>
      <trkpt lat="44.6094" lon="2.42492">
        <ele>563</ele>
        <time>2018-05-05T13:31:31Z</time>
      </trkpt>
      <trkpt lat="44.60928" lon="2.42452">
        <ele>563</ele>
        <time>2018-05-05T13:31:57Z</time>
      </trkpt>
      <trkpt lat="44.60919" lon="2.42437">
        <ele>563</ele>
        <time>2018-05-05T13:32:09Z</time>
      </trkpt>
      <trkpt lat="44.60889" lon="2.424">
        <ele>564</ele>
        <time>2018-05-05T13:32:41Z</time>
      </trkpt>
      <trkpt lat="44.60876" lon="2.42377">
        <ele>565</ele>
        <time>2018-05-05T13:32:57Z</time>
      </trkpt>
      <trkpt lat="44.60853" lon="2.42353">
        <ele>566</ele>
        <time>2018-05-05T13:33:21Z</time>
      </trkpt>
      <trkpt lat="44.60848" lon="2.42355">
        <ele>566</ele>
        <time>2018-05-05T13:33:28Z</time>
      </trkpt>
      <trkpt lat="44.60845" lon="2.42345">
        <ele>566</ele>
        <time>2018-05-05T13:33:42Z</time>
      </trkpt>
      <trkpt lat="44.60806" lon="2.42289">
        <ele>569</ele>
        <time>2018-05-05T13:34:25Z</time>
      </trkpt>
      <trkpt lat="44.60801" lon="2.42285">
        <ele>569</ele>
        <time>2018-05-05T13:34:29Z</time>
      </trkpt>
      <trkpt lat="44.6077" lon="2.42248">
        <ele>573</ele>
        <time>2018-05-05T13:35:01Z</time>
      </trkpt>
      <trkpt lat="44.60747" lon="2.42212">
        <ele>576</ele>
        <time>2018-05-05T13:35:30Z</time>
      </trkpt>
      <trkpt lat="44.60744" lon="2.42192">
        <ele>575</ele>
        <time>2018-05-05T13:35:41Z</time>
      </trkpt>
      <trkpt lat="44.60747" lon="2.42153">
        <ele>574</ele>
        <time>2018-05-05T13:36:02Z</time>
      </trkpt>
      <trkpt lat="44.60751" lon="2.4214">
        <ele>574</ele>
        <time>2018-05-05T13:36:10Z</time>
      </trkpt>
      <trkpt lat="44.60753" lon="2.42126">
        <ele>574</ele>
        <time>2018-05-05T13:36:19Z</time>
      </trkpt>
      <trkpt lat="44.60753" lon="2.42119">
        <ele>574</ele>
        <time>2018-05-05T13:36:23Z</time>
      </trkpt>
      <trkpt lat="44.60747" lon="2.42109">
        <ele>574</ele>
        <time>2018-05-05T13:36:36Z</time>
      </trkpt>
      <trkpt lat="44.60741" lon="2.42102">
        <ele>573</ele>
        <time>2018-05-05T13:37:08Z</time>
      </trkpt>
      <trkpt lat="44.60733" lon="2.42096">
        <ele>573</ele>
        <time>2018-05-05T13:37:16Z</time>
      </trkpt>
      <trkpt lat="44.60728" lon="2.42095">
        <ele>573</ele>
        <time>2018-05-05T13:37:20Z</time>
      </trkpt>
      <trkpt lat="44.60703" lon="2.42094">
        <ele>572</ele>
        <time>2018-05-05T13:37:39Z</time>
      </trkpt>
      <trkpt lat="44.60688" lon="2.42089">
        <ele>572</ele>
        <time>2018-05-05T13:37:52Z</time>
      </trkpt>
      <trkpt lat="44.60679" lon="2.42084">
        <ele>572</ele>
        <time>2018-05-05T13:38:01Z</time>
      </trkpt>
      <trkpt lat="44.60674" lon="2.4208">
        <ele>573</ele>
        <time>2018-05-05T13:38:06Z</time>
      </trkpt>
      <trkpt lat="44.60668" lon="2.42069">
        <ele>573</ele>
        <time>2018-05-05T13:38:14Z</time>
      </trkpt>
      <trkpt lat="44.60618" lon="2.41964">
        <ele>569</ele>
        <time>2018-05-05T13:39:27Z</time>
      </trkpt>
      <trkpt lat="44.60607" lon="2.41962">
        <ele>568</ele>
        <time>2018-05-05T13:39:51Z</time>
      </trkpt>
      <trkpt lat="44.60603" lon="2.41964">
        <ele>569</ele>
        <time>2018-05-05T13:40:35Z</time>
      </trkpt>
      <trkpt lat="44.60603" lon="2.41956">
        <ele>569</ele>
        <time>2018-05-05T13:41:04Z</time>
      </trkpt>
      <trkpt lat="44.6061" lon="2.41946">
        <ele>569</ele>
        <time>2018-05-05T13:41:23Z</time>
      </trkpt>
      <trkpt lat="44.60609" lon="2.41931">
        <ele>567</ele>
        <time>2018-05-05T13:41:35Z</time>
      </trkpt>
      <trkpt lat="44.60609" lon="2.41924">
        <ele>567</ele>
        <time>2018-05-05T13:41:38Z</time>
      </trkpt>
      <trkpt lat="44.60606" lon="2.41919">
        <ele>567</ele>
        <time>2018-05-05T13:41:41Z</time>
      </trkpt>
      <trkpt lat="44.60605" lon="2.41912">
        <ele>567</ele>
        <time>2018-05-05T13:41:45Z</time>
      </trkpt>
      <trkpt lat="44.60601" lon="2.41906">
        <ele>566</ele>
        <time>2018-05-05T13:41:49Z</time>
      </trkpt>
      <trkpt lat="44.60599" lon="2.41899">
        <ele>566</ele>
        <time>2018-05-05T13:41:53Z</time>
      </trkpt>
      <trkpt lat="44.60596" lon="2.41885">
        <ele>565</ele>
        <time>2018-05-05T13:42:01Z</time>
      </trkpt>
      <trkpt lat="44.60586" lon="2.4186">
        <ele>563</ele>
        <time>2018-05-05T13:42:34Z</time>
      </trkpt>
      <trkpt lat="44.60579" lon="2.41849">
        <ele>562</ele>
        <time>2018-05-05T13:42:42Z</time>
      </trkpt>
      <trkpt lat="44.60569" lon="2.4184">
        <ele>561</ele>
        <time>2018-05-05T13:42:52Z</time>
      </trkpt>
      <trkpt lat="44.60566" lon="2.41834">
        <ele>562</ele>
        <time>2018-05-05T13:43:00Z</time>
      </trkpt>
      <trkpt lat="44.6056" lon="2.41836">
        <ele>562</ele>
        <time>2018-05-05T13:43:13Z</time>
      </trkpt>
      <trkpt lat="44.60519" lon="2.41832">
        <ele>562</ele>
        <time>2018-05-05T13:43:48Z</time>
      </trkpt>
      <trkpt lat="44.60515" lon="2.4183">
        <ele>562</ele>
        <time>2018-05-05T13:43:52Z</time>
      </trkpt>
      <trkpt lat="44.60505" lon="2.41822">
        <ele>562</ele>
        <time>2018-05-05T13:44:00Z</time>
      </trkpt>
      <trkpt lat="44.60493" lon="2.41799">
        <ele>562</ele>
        <time>2018-05-05T13:44:16Z</time>
      </trkpt>
      <trkpt lat="44.60442" lon="2.41649">
        <ele>563</ele>
        <time>2018-05-05T13:45:51Z</time>
      </trkpt>
      <trkpt lat="44.6044" lon="2.41614">
        <ele>563</ele>
        <time>2018-05-05T13:46:12Z</time>
      </trkpt>
      <trkpt lat="44.60442" lon="2.416">
        <ele>562</ele>
        <time>2018-05-05T13:46:20Z</time>
      </trkpt>
      <trkpt lat="44.60446" lon="2.41581">
        <ele>563</ele>
        <time>2018-05-05T13:46:32Z</time>
      </trkpt>
      <trkpt lat="44.60451" lon="2.4157">
        <ele>563</ele>
        <time>2018-05-05T13:46:40Z</time>
      </trkpt>
      <trkpt lat="44.60453" lon="2.41557">
        <ele>563</ele>
        <time>2018-05-05T13:46:55Z</time>
      </trkpt>
      <trkpt lat="44.60462" lon="2.41539">
        <ele>562</ele>
        <time>2018-05-05T13:47:07Z</time>
      </trkpt>
      <trkpt lat="44.60476" lon="2.41518">
        <ele>562</ele>
        <time>2018-05-05T13:47:24Z</time>
      </trkpt>
      <trkpt lat="44.60484" lon="2.41501">
        <ele>561</ele>
        <time>2018-05-05T13:47:36Z</time>
      </trkpt>
      <trkpt lat="44.60488" lon="2.41496">
        <ele>561</ele>
        <time>2018-05-05T13:47:40Z</time>
      </trkpt>
      <trkpt lat="44.60494" lon="2.41483">
        <ele>561</ele>
        <time>2018-05-05T13:47:49Z</time>
      </trkpt>
      <trkpt lat="44.60584" lon="2.41384">
        <ele>559</ele>
        <time>2018-05-05T13:49:16Z</time>
      </trkpt>
      <trkpt lat="44.60629" lon="2.41321">
        <ele>556</ele>
        <time>2018-05-05T13:50:05Z</time>
      </trkpt>
      <trkpt lat="44.60643" lon="2.41286">
        <ele>555</ele>
        <time>2018-05-05T13:50:29Z</time>
      </trkpt>
      <trkpt lat="44.60644" lon="2.41271">
        <ele>555</ele>
        <time>2018-05-05T13:50:38Z</time>
      </trkpt>
      <trkpt lat="44.60644" lon="2.41263">
        <ele>555</ele>
        <time>2018-05-05T13:50:43Z</time>
      </trkpt>
      <trkpt lat="44.60635" lon="2.41236">
        <ele>554</ele>
        <time>2018-05-05T13:50:59Z</time>
      </trkpt>
      <trkpt lat="44.60621" lon="2.41205">
        <ele>553</ele>
        <time>2018-05-05T13:51:19Z</time>
      </trkpt>
      <trkpt lat="44.60602" lon="2.41182">
        <ele>551</ele>
        <time>2018-05-05T13:51:39Z</time>
      </trkpt>
      <trkpt lat="44.60574" lon="2.4116">
        <ele>550</ele>
        <time>2018-05-05T13:52:03Z</time>
      </trkpt>
      <trkpt lat="44.60564" lon="2.41145">
        <ele>549</ele>
        <time>2018-05-05T13:52:15Z</time>
      </trkpt>
      <trkpt lat="44.60559" lon="2.41133">
        <ele>548</ele>
        <time>2018-05-05T13:52:23Z</time>
      </trkpt>
      <trkpt lat="44.60529" lon="2.40902">
        <ele>544</ele>
        <time>2018-05-05T13:54:37Z</time>
      </trkpt>
      <trkpt lat="44.60511" lon="2.40836">
        <ele>543</ele>
        <time>2018-05-05T13:55:16Z</time>
      </trkpt>
      <trkpt lat="44.60495" lon="2.40807">
        <ele>543</ele>
        <time>2018-05-05T13:55:40Z</time>
      </trkpt>
      <trkpt lat="44.60489" lon="2.40803">
        <ele>543</ele>
        <time>2018-05-05T13:55:48Z</time>
      </trkpt>
      <trkpt lat="44.60483" lon="2.40804">
        <ele>542</ele>
        <time>2018-05-05T13:56:19Z</time>
      </trkpt>
      <trkpt lat="44.60473" lon="2.40802">
        <ele>541</ele>
        <time>2018-05-05T13:56:27Z</time>
      </trkpt>
      <trkpt lat="44.60469" lon="2.40798">
        <ele>540</ele>
        <time>2018-05-05T13:56:31Z</time>
      </trkpt>
      <trkpt lat="44.60467" lon="2.40791">
        <ele>538</ele>
        <time>2018-05-05T13:56:35Z</time>
      </trkpt>
      <trkpt lat="44.60469" lon="2.4076">
        <ele>534</ele>
        <time>2018-05-05T13:56:51Z</time>
      </trkpt>
      <trkpt lat="44.60469" lon="2.40754">
        <ele>533</ele>
        <time>2018-05-05T13:56:56Z</time>
      </trkpt>
      <trkpt lat="44.60463" lon="2.40752">
        <ele>532</ele>
        <time>2018-05-05T13:57:58Z</time>
      </trkpt>
      <trkpt lat="44.60468" lon="2.40744">
        <ele>532</ele>
        <time>2018-05-05T13:59:22Z</time>
      </trkpt>
      <trkpt lat="44.60465" lon="2.40737">
        <ele>531</ele>
        <time>2018-05-05T13:59:27Z</time>
      </trkpt>
      <trkpt lat="44.6044" lon="2.40689">
        <ele>523</ele>
        <time>2018-05-05T13:59:59Z</time>
      </trkpt>
      <trkpt lat="44.60415" lon="2.40656">
        <ele>515</ele>
        <time>2018-05-05T14:00:31Z</time>
      </trkpt>
      <trkpt lat="44.60405" lon="2.40636">
        <ele>512</ele>
        <time>2018-05-05T14:00:45Z</time>
      </trkpt>
      <trkpt lat="44.60401" lon="2.40623">
        <ele>510</ele>
        <time>2018-05-05T14:00:53Z</time>
      </trkpt>
      <trkpt lat="44.60395" lon="2.40612">
        <ele>508</ele>
        <time>2018-05-05T14:01:01Z</time>
      </trkpt>
      <trkpt lat="44.60374" lon="2.40563">
        <ele>501</ele>
        <time>2018-05-05T14:01:32Z</time>
      </trkpt>
      <trkpt lat="44.60371" lon="2.4055">
        <ele>499</ele>
        <time>2018-05-05T14:01:42Z</time>
      </trkpt>
      <trkpt lat="44.60368" lon="2.40546">
        <ele>498</ele>
        <time>2018-05-05T14:01:46Z</time>
      </trkpt>
      <trkpt lat="44.60363" lon="2.40542">
        <ele>497</ele>
        <time>2018-05-05T14:02:19Z</time>
      </trkpt>
      <trkpt lat="44.6036" lon="2.40528">
        <ele>494</ele>
        <time>2018-05-05T14:02:30Z</time>
      </trkpt>
      <trkpt lat="44.60321" lon="2.40466">
        <ele>482</ele>
        <time>2018-05-05T14:03:22Z</time>
      </trkpt>
      <trkpt lat="44.60313" lon="2.40458">
        <ele>481</ele>
        <time>2018-05-05T14:03:31Z</time>
      </trkpt>
      <trkpt lat="44.60302" lon="2.40434">
        <ele>478</ele>
        <time>2018-05-05T14:03:46Z</time>
      </trkpt>
      <trkpt lat="44.6024" lon="2.4037">
        <ele>464</ele>
        <time>2018-05-05T14:05:01Z</time>
      </trkpt>
      <trkpt lat="44.60227" lon="2.40351">
        <ele>461</ele>
        <time>2018-05-05T14:05:18Z</time>
      </trkpt>
      <trkpt lat="44.60206" lon="2.40345">
        <ele>458</ele>
        <time>2018-05-05T14:05:38Z</time>
      </trkpt>
      <trkpt lat="44.60199" lon="2.40335">
        <ele>456</ele>
        <time>2018-05-05T14:05:48Z</time>
      </trkpt>
      <trkpt lat="44.60196" lon="2.40328">
        <ele>455</ele>
        <time>2018-05-05T14:05:53Z</time>
      </trkpt>
      <trkpt lat="44.60186" lon="2.40297">
        <ele>451</ele>
        <time>2018-05-05T14:06:21Z</time>
      </trkpt>
      <trkpt lat="44.60187" lon="2.40281">
        <ele>449</ele>
        <time>2018-05-05T14:06:40Z</time>
      </trkpt>
      <trkpt lat="44.60188" lon="2.40274">
        <ele>449</ele>
        <time>2018-05-05T14:06:45Z</time>
      </trkpt>
      <trkpt lat="44.60187" lon="2.40268">
        <ele>447</ele>
        <time>2018-05-05T14:06:52Z</time>
      </trkpt>
      <trkpt lat="44.60177" lon="2.4026">
        <ele>443</ele>
        <time>2018-05-05T14:07:15Z</time>
      </trkpt>
      <trkpt lat="44.60172" lon="2.40262">
        <ele>442</ele>
        <time>2018-05-05T14:07:20Z</time>
      </trkpt>
      <trkpt lat="44.60167" lon="2.40268">
        <ele>441</ele>
        <time>2018-05-05T14:07:33Z</time>
      </trkpt>
      <trkpt lat="44.60159" lon="2.40282">
        <ele>439</ele>
        <time>2018-05-05T14:07:45Z</time>
      </trkpt>
      <trkpt lat="44.60158" lon="2.40288">
        <ele>439</ele>
        <time>2018-05-05T14:07:49Z</time>
      </trkpt>
      <trkpt lat="44.60159" lon="2.40295">
        <ele>438</ele>
        <time>2018-05-05T14:07:54Z</time>
      </trkpt>
      <trkpt lat="44.60135" lon="2.40341">
        <ele>434</ele>
        <time>2018-05-05T14:08:23Z</time>
      </trkpt>
      <trkpt lat="44.60131" lon="2.40355">
        <ele>433</ele>
        <time>2018-05-05T14:08:31Z</time>
      </trkpt>
      <trkpt lat="44.60132" lon="2.40369">
        <ele>432</ele>
        <time>2018-05-05T14:08:39Z</time>
      </trkpt>
      <trkpt lat="44.60134" lon="2.40374">
        <ele>432</ele>
        <time>2018-05-05T14:08:42Z</time>
      </trkpt>
      <trkpt lat="44.60149" lon="2.40394">
        <ele>431</ele>
        <time>2018-05-05T14:08:54Z</time>
      </trkpt>
      <trkpt lat="44.60153" lon="2.40408">
        <ele>430</ele>
        <time>2018-05-05T14:09:02Z</time>
      </trkpt>
      <trkpt lat="44.6016" lon="2.4042">
        <ele>429</ele>
        <time>2018-05-05T14:09:10Z</time>
      </trkpt>
      <trkpt lat="44.60164" lon="2.40432">
        <ele>428</ele>
        <time>2018-05-05T14:09:16Z</time>
      </trkpt>
      <trkpt lat="44.60167" lon="2.40446">
        <ele>428</ele>
        <time>2018-05-05T14:09:24Z</time>
      </trkpt>
      <trkpt lat="44.60168" lon="2.40453">
        <ele>428</ele>
        <time>2018-05-05T14:09:28Z</time>
      </trkpt>
      <trkpt lat="44.60165" lon="2.40467">
        <ele>427</ele>
        <time>2018-05-05T14:09:36Z</time>
      </trkpt>
      <trkpt lat="44.60169" lon="2.40475">
        <ele>426</ele>
        <time>2018-05-05T14:09:40Z</time>
      </trkpt>
      <trkpt lat="44.60172" lon="2.40489">
        <ele>425</ele>
        <time>2018-05-05T14:09:48Z</time>
      </trkpt>
      <trkpt lat="44.60176" lon="2.405">
        <ele>425</ele>
        <time>2018-05-05T14:09:56Z</time>
      </trkpt>
      <trkpt lat="44.60176" lon="2.40513">
        <ele>423</ele>
        <time>2018-05-05T14:10:03Z</time>
      </trkpt>
      <trkpt lat="44.60169" lon="2.40522">
        <ele>422</ele>
        <time>2018-05-05T14:10:09Z</time>
      </trkpt>
      <trkpt lat="44.60168" lon="2.40534">
        <ele>419</ele>
        <time>2018-05-05T14:10:17Z</time>
      </trkpt>
      <trkpt lat="44.60165" lon="2.40547">
        <ele>416</ele>
        <time>2018-05-05T14:10:33Z</time>
      </trkpt>
      <trkpt lat="44.60153" lon="2.40554">
        <ele>414</ele>
        <time>2018-05-05T14:11:04Z</time>
      </trkpt>
      <trkpt lat="44.60139" lon="2.40571">
        <ele>410</ele>
        <time>2018-05-05T14:11:18Z</time>
      </trkpt>
      <trkpt lat="44.60128" lon="2.406">
        <ele>403</ele>
        <time>2018-05-05T14:11:55Z</time>
      </trkpt>
      <trkpt lat="44.60118" lon="2.40607">
        <ele>400</ele>
        <time>2018-05-05T14:12:05Z</time>
      </trkpt>
      <trkpt lat="44.60105" lon="2.40607">
        <ele>398</ele>
        <time>2018-05-05T14:12:22Z</time>
      </trkpt>
      <trkpt lat="44.60094" lon="2.40602">
        <ele>395</ele>
        <time>2018-05-05T14:12:35Z</time>
      </trkpt>
      <trkpt lat="44.60085" lon="2.406">
        <ele>393</ele>
        <time>2018-05-05T14:12:45Z</time>
      </trkpt>
      <trkpt lat="44.60072" lon="2.4059">
        <ele>387</ele>
        <time>2018-05-05T14:14:08Z</time>
      </trkpt>
      <trkpt lat="44.60067" lon="2.4059">
        <ele>386</ele>
        <time>2018-05-05T14:14:13Z</time>
      </trkpt>
      <trkpt lat="44.60061" lon="2.40585">
        <ele>384</ele>
        <time>2018-05-05T14:14:20Z</time>
      </trkpt>
      <trkpt lat="44.60051" lon="2.4058">
        <ele>382</ele>
        <time>2018-05-05T14:14:31Z</time>
      </trkpt>
      <trkpt lat="44.60045" lon="2.40575">
        <ele>380</ele>
        <time>2018-05-05T14:14:39Z</time>
      </trkpt>
      <trkpt lat="44.60026" lon="2.40531">
        <ele>374</ele>
        <time>2018-05-05T14:15:11Z</time>
      </trkpt>
      <trkpt lat="44.60019" lon="2.40519">
        <ele>372</ele>
        <time>2018-05-05T14:15:20Z</time>
      </trkpt>
      <trkpt lat="44.6001" lon="2.40495">
        <ele>368</ele>
        <time>2018-05-05T14:15:37Z</time>
      </trkpt>
      <trkpt lat="44.60009" lon="2.40482">
        <ele>367</ele>
        <time>2018-05-05T14:15:50Z</time>
      </trkpt>
      <trkpt lat="44.59986" lon="2.40418">
        <ele>359</ele>
        <time>2018-05-05T14:16:34Z</time>
      </trkpt>
      <trkpt lat="44.59978" lon="2.404">
        <ele>357</ele>
        <time>2018-05-05T14:16:46Z</time>
      </trkpt>
      <trkpt lat="44.59974" lon="2.40385">
        <ele>356</ele>
        <time>2018-05-05T14:16:54Z</time>
      </trkpt>
      <trkpt lat="44.59973" lon="2.4037">
        <ele>354</ele>
        <time>2018-05-05T14:17:02Z</time>
      </trkpt>
      <trkpt lat="44.59973" lon="2.40363">
        <ele>353</ele>
        <time>2018-05-05T14:17:06Z</time>
      </trkpt>
      <trkpt lat="44.59969" lon="2.40344">
        <ele>351</ele>
        <time>2018-05-05T14:17:20Z</time>
      </trkpt>
      <trkpt lat="44.59967" lon="2.40338">
        <ele>350</ele>
        <time>2018-05-05T14:17:24Z</time>
      </trkpt>
      <trkpt lat="44.59963" lon="2.40319">
        <ele>348</ele>
        <time>2018-05-05T14:17:36Z</time>
      </trkpt>
      <trkpt lat="44.59963" lon="2.4029">
        <ele>345</ele>
        <time>2018-05-05T14:17:52Z</time>
      </trkpt>
      <trkpt lat="44.59958" lon="2.40283">
        <ele>343</ele>
        <time>2018-05-05T14:18:01Z</time>
      </trkpt>
      <trkpt lat="44.59954" lon="2.40278">
        <ele>343</ele>
        <time>2018-05-05T14:18:06Z</time>
      </trkpt>
      <trkpt lat="44.59955" lon="2.4027">
        <ele>342</ele>
        <time>2018-05-05T14:18:11Z</time>
      </trkpt>
      <trkpt lat="44.59959" lon="2.40267">
        <ele>343</ele>
        <time>2018-05-05T14:18:25Z</time>
      </trkpt>
      <trkpt lat="44.59957" lon="2.4026">
        <ele>342</ele>
        <time>2018-05-05T14:18:30Z</time>
      </trkpt>
      <trkpt lat="44.59958" lon="2.40253">
        <ele>341</ele>
        <time>2018-05-05T14:18:34Z</time>
      </trkpt>
      <trkpt lat="44.59961" lon="2.4024">
        <ele>340</ele>
        <time>2018-05-05T14:18:42Z</time>
      </trkpt>
      <trkpt lat="44.59962" lon="2.40218">
        <ele>339</ele>
        <time>2018-05-05T14:18:54Z</time>
      </trkpt>
      <trkpt lat="44.59957" lon="2.40167">
        <ele>337</ele>
        <time>2018-05-05T14:19:22Z</time>
      </trkpt>
      <trkpt lat="44.59957" lon="2.40153">
        <ele>336</ele>
        <time>2018-05-05T14:19:30Z</time>
      </trkpt>
      <trkpt lat="44.5995" lon="2.40043">
        <ele>331</ele>
        <time>2018-05-05T14:21:36Z</time>
      </trkpt>
      <trkpt lat="44.59949" lon="2.40036">
        <ele>331</ele>
        <time>2018-05-05T14:21:40Z</time>
      </trkpt>
      <trkpt lat="44.59951" lon="2.40015">
        <ele>331</ele>
        <time>2018-05-05T14:21:53Z</time>
      </trkpt>
      <trkpt lat="44.59933" lon="2.39957">
        <ele>328</ele>
        <time>2018-05-05T14:22:33Z</time>
      </trkpt>
      <trkpt lat="44.59932" lon="2.39944">
        <ele>327</ele>
        <time>2018-05-05T14:22:42Z</time>
      </trkpt>
      <trkpt lat="44.59936" lon="2.3994">
        <ele>327</ele>
        <time>2018-05-05T14:22:57Z</time>
      </trkpt>
      <trkpt lat="44.5994" lon="2.39927">
        <ele>324</ele>
        <time>2018-05-05T14:23:16Z</time>
      </trkpt>
      <trkpt lat="44.59942" lon="2.39921">
        <ele>323</ele>
        <time>2018-05-05T14:23:31Z</time>
      </trkpt>
      <trkpt lat="44.5994" lon="2.39912">
        <ele>321</ele>
        <time>2018-05-05T14:23:46Z</time>
      </trkpt>
      <trkpt lat="44.59939" lon="2.39905">
        <ele>319</ele>
        <time>2018-05-05T14:23:57Z</time>
      </trkpt>
      <trkpt lat="44.59941" lon="2.39897">
        <ele>318</ele>
        <time>2018-05-05T14:24:02Z</time>
      </trkpt>
      <trkpt lat="44.59941" lon="2.39891">
        <ele>317</ele>
        <time>2018-05-05T14:24:07Z</time>
      </trkpt>
      <trkpt lat="44.59943" lon="2.39883">
        <ele>315</ele>
        <time>2018-05-05T14:24:15Z</time>
      </trkpt>
      <trkpt lat="44.59944" lon="2.39876">
        <ele>314</ele>
        <time>2018-05-05T14:24:22Z</time>
      </trkpt>
      <trkpt lat="44.59949" lon="2.39859">
        <ele>310</ele>
        <time>2018-05-05T14:24:59Z</time>
      </trkpt>
      <trkpt lat="44.59948" lon="2.39856">
        <ele>306</ele>
        <time>2018-05-05T14:25:25Z</time>
      </trkpt>
      <trkpt lat="44.59944" lon="2.39855">
        <ele>306</ele>
        <time>2018-05-05T14:25:33Z</time>
      </trkpt>
      <trkpt lat="44.59945" lon="2.39841">
        <ele>305</ele>
        <time>2018-05-05T14:29:17Z</time>
      </trkpt>
      <trkpt lat="44.59951" lon="2.39815">
        <ele>302</ele>
        <time>2018-05-05T14:29:33Z</time>
      </trkpt>
      <trkpt lat="44.59952" lon="2.39801">
        <ele>301</ele>
        <time>2018-05-05T14:29:41Z</time>
      </trkpt>
      <trkpt lat="44.59951" lon="2.39794">
        <ele>300</ele>
        <time>2018-05-05T14:29:45Z</time>
      </trkpt>
      <trkpt lat="44.59946" lon="2.39782">
        <ele>299</ele>
        <time>2018-05-05T14:29:53Z</time>
      </trkpt>
      <trkpt lat="44.59944" lon="2.39774">
        <ele>298</ele>
        <time>2018-05-05T14:30:01Z</time>
      </trkpt>
      <trkpt lat="44.59949" lon="2.3976">
        <ele>297</ele>
        <time>2018-05-05T14:31:33Z</time>
      </trkpt>
      <trkpt lat="44.59941" lon="2.3974">
        <ele>297</ele>
        <time>2018-05-05T14:32:59Z</time>
      </trkpt>
      <trkpt lat="44.59922" lon="2.39732">
        <ele>295</ele>
        <time>2018-05-05T14:33:17Z</time>
      </trkpt>
      <trkpt lat="44.59921" lon="2.3973">
        <ele>293</ele>
        <time>2018-05-05T14:33:59Z</time>
      </trkpt>
      <trkpt lat="44.59918" lon="2.39702">
        <ele>288</ele>
        <time>2018-05-06T07:16:05Z</time>
      </trkpt>
      <trkpt lat="44.59924" lon="2.39715">
        <ele>286</ele>
        <time>2018-05-06T07:16:20Z</time>
      </trkpt>
      <trkpt lat="44.59918" lon="2.39717">
        <ele>286</ele>
        <time>2018-05-06T07:16:30Z</time>
      </trkpt>
      <trkpt lat="44.59914" lon="2.39718">
        <ele>285</ele>
        <time>2018-05-06T07:16:50Z</time>
      </trkpt>
      <trkpt lat="44.59897" lon="2.39712">
        <ele>283</ele>
        <time>2018-05-06T07:17:02Z</time>
      </trkpt>
      <trkpt lat="44.59895" lon="2.39695">
        <ele>283</ele>
        <time>2018-05-06T07:17:13Z</time>
      </trkpt>
      <trkpt lat="44.599" lon="2.39673">
        <ele>280</ele>
        <time>2018-05-06T07:17:35Z</time>
      </trkpt>
      <trkpt lat="44.59903" lon="2.39662">
        <ele>279</ele>
        <time>2018-05-06T07:17:42Z</time>
      </trkpt>
      <trkpt lat="44.59888" lon="2.39628">
        <ele>277</ele>
        <time>2018-05-06T07:18:03Z</time>
      </trkpt>
      <trkpt lat="44.59891" lon="2.39608">
        <ele>274</ele>
        <time>2018-05-06T07:18:21Z</time>
      </trkpt>
      <trkpt lat="44.59885" lon="2.39576">
        <ele>270</ele>
        <time>2018-05-06T07:18:48Z</time>
      </trkpt>
      <trkpt lat="44.59855" lon="2.39528">
        <ele>263</ele>
        <time>2018-05-06T07:19:23Z</time>
      </trkpt>
      <trkpt lat="44.59847" lon="2.39511">
        <ele>261</ele>
        <time>2018-05-06T07:19:45Z</time>
      </trkpt>
      <trkpt lat="44.59842" lon="2.39498">
        <ele>260</ele>
        <time>2018-05-06T07:19:54Z</time>
      </trkpt>
      <trkpt lat="44.5983" lon="2.39476">
        <ele>256</ele>
        <time>2018-05-06T07:20:11Z</time>
      </trkpt>
      <trkpt lat="44.59825" lon="2.39474">
        <ele>255</ele>
        <time>2018-05-06T07:20:14Z</time>
      </trkpt>
      <trkpt lat="44.59822" lon="2.39467">
        <ele>254</ele>
        <time>2018-05-06T07:20:18Z</time>
      </trkpt>
      <trkpt lat="44.59808" lon="2.39406">
        <ele>245</ele>
        <time>2018-05-06T07:21:00Z</time>
      </trkpt>
      <trkpt lat="44.59809" lon="2.394">
        <ele>243</ele>
        <time>2018-05-06T07:21:05Z</time>
      </trkpt>
      <trkpt lat="44.59812" lon="2.39395">
        <ele>242</ele>
        <time>2018-05-06T07:21:10Z</time>
      </trkpt>
      <trkpt lat="44.5981" lon="2.39382">
        <ele>239</ele>
        <time>2018-05-06T07:21:22Z</time>
      </trkpt>
      <trkpt lat="44.59815" lon="2.3937">
        <ele>236</ele>
        <time>2018-05-06T07:21:31Z</time>
      </trkpt>
      <trkpt lat="44.59817" lon="2.39364">
        <ele>236</ele>
        <time>2018-05-06T07:21:36Z</time>
      </trkpt>
      <trkpt lat="44.59818" lon="2.39352">
        <ele>233</ele>
        <time>2018-05-06T07:21:48Z</time>
      </trkpt>
      <trkpt lat="44.59803" lon="2.39306">
        <ele>223</ele>
        <time>2018-05-06T07:22:30Z</time>
      </trkpt>
      <trkpt lat="44.59814" lon="2.39253">
        <ele>220</ele>
        <time>2018-05-06T07:23:23Z</time>
      </trkpt>
      <trkpt lat="44.59817" lon="2.39247">
        <ele>220</ele>
        <time>2018-05-06T07:24:03Z</time>
      </trkpt>
      <trkpt lat="44.59819" lon="2.39233">
        <ele>219</ele>
        <time>2018-05-06T07:24:13Z</time>
      </trkpt>
      <trkpt lat="44.59812" lon="2.39227">
        <ele>217</ele>
        <time>2018-05-06T07:24:52Z</time>
      </trkpt>
      <trkpt lat="44.59819" lon="2.39221">
        <ele>220</ele>
        <time>2018-05-06T07:25:18Z</time>
      </trkpt>
      <trkpt lat="44.59807" lon="2.39155">
        <ele>224</ele>
        <time>2018-05-06T07:26:09Z</time>
      </trkpt>
      <trkpt lat="44.59804" lon="2.39148">
        <ele>224</ele>
        <time>2018-05-06T07:26:15Z</time>
      </trkpt>
      <trkpt lat="44.59802" lon="2.39143">
        <ele>225</ele>
        <time>2018-05-06T07:26:20Z</time>
      </trkpt>
      <trkpt lat="44.59797" lon="2.3914">
        <ele>225</ele>
        <time>2018-05-06T07:26:24Z</time>
      </trkpt>
      <trkpt lat="44.59792" lon="2.39139">
        <ele>225</ele>
        <time>2018-05-06T07:26:27Z</time>
      </trkpt>
      <trkpt lat="44.59786" lon="2.39127">
        <ele>227</ele>
        <time>2018-05-06T07:27:01Z</time>
      </trkpt>
      <trkpt lat="44.59763" lon="2.39104">
        <ele>229</ele>
        <time>2018-05-06T07:27:26Z</time>
      </trkpt>
      <trkpt lat="44.59759" lon="2.39092">
        <ele>232</ele>
        <time>2018-05-06T07:27:46Z</time>
      </trkpt>
      <trkpt lat="44.5975" lon="2.39096">
        <ele>234</ele>
        <time>2018-05-06T07:27:55Z</time>
      </trkpt>
      <trkpt lat="44.59745" lon="2.39084">
        <ele>236</ele>
        <time>2018-05-06T07:28:07Z</time>
      </trkpt>
      <trkpt lat="44.59741" lon="2.39067">
        <ele>242</ele>
        <time>2018-05-06T07:28:28Z</time>
      </trkpt>
      <trkpt lat="44.59731" lon="2.39074">
        <ele>244</ele>
        <time>2018-05-06T07:28:42Z</time>
      </trkpt>
      <trkpt lat="44.59703" lon="2.39049">
        <ele>259</ele>
        <time>2018-05-06T07:30:06Z</time>
      </trkpt>
      <trkpt lat="44.59711" lon="2.39041">
        <ele>261</ele>
        <time>2018-05-06T07:30:14Z</time>
      </trkpt>
      <trkpt lat="44.5971" lon="2.39028">
        <ele>262</ele>
        <time>2018-05-06T07:30:26Z</time>
      </trkpt>
      <trkpt lat="44.59689" lon="2.39039">
        <ele>273</ele>
        <time>2018-05-06T07:31:24Z</time>
      </trkpt>
      <trkpt lat="44.59681" lon="2.3903">
        <ele>277</ele>
        <time>2018-05-06T07:31:54Z</time>
      </trkpt>
      <trkpt lat="44.59682" lon="2.39024">
        <ele>277</ele>
        <time>2018-05-06T07:32:12Z</time>
      </trkpt>
      <trkpt lat="44.59683" lon="2.39015">
        <ele>281</ele>
        <time>2018-05-06T07:32:30Z</time>
      </trkpt>
      <trkpt lat="44.5968" lon="2.3901">
        <ele>282</ele>
        <time>2018-05-06T07:32:38Z</time>
      </trkpt>
      <trkpt lat="44.59677" lon="2.38996">
        <ele>285</ele>
        <time>2018-05-06T07:32:57Z</time>
      </trkpt>
      <trkpt lat="44.59671" lon="2.38983">
        <ele>289</ele>
        <time>2018-05-06T07:33:21Z</time>
      </trkpt>
      <trkpt lat="44.59661" lon="2.38978">
        <ele>294</ele>
        <time>2018-05-06T07:33:39Z</time>
      </trkpt>
      <trkpt lat="44.59659" lon="2.38976">
        <ele>296</ele>
        <time>2018-05-06T07:34:39Z</time>
      </trkpt>
      <trkpt lat="44.59659" lon="2.38965">
        <ele>298</ele>
        <time>2018-05-06T07:34:51Z</time>
      </trkpt>
      <trkpt lat="44.59656" lon="2.3896">
        <ele>301</ele>
        <time>2018-05-06T07:35:03Z</time>
      </trkpt>
      <trkpt lat="44.59659" lon="2.38944">
        <ele>306</ele>
        <time>2018-05-06T07:35:26Z</time>
      </trkpt>
      <trkpt lat="44.59657" lon="2.38939">
        <ele>309</ele>
        <time>2018-05-06T07:35:41Z</time>
      </trkpt>
      <trkpt lat="44.59658" lon="2.38927">
        <ele>311</ele>
        <time>2018-05-06T07:36:00Z</time>
      </trkpt>
      <trkpt lat="44.59654" lon="2.38924">
        <ele>312</ele>
        <time>2018-05-06T07:36:05Z</time>
      </trkpt>
      <trkpt lat="44.59652" lon="2.38904">
        <ele>316</ele>
        <time>2018-05-06T07:36:26Z</time>
      </trkpt>
      <trkpt lat="44.5965" lon="2.38898">
        <ele>317</ele>
        <time>2018-05-06T07:36:32Z</time>
      </trkpt>
      <trkpt lat="44.59652" lon="2.38887">
        <ele>319</ele>
        <time>2018-05-06T07:36:43Z</time>
      </trkpt>
      <trkpt lat="44.59648" lon="2.38875">
        <ele>320</ele>
        <time>2018-05-06T07:36:57Z</time>
      </trkpt>
      <trkpt lat="44.59635" lon="2.38855">
        <ele>325</ele>
        <time>2018-05-06T07:37:51Z</time>
      </trkpt>
      <trkpt lat="44.59631" lon="2.38847">
        <ele>328</ele>
        <time>2018-05-06T07:38:04Z</time>
      </trkpt>
      <trkpt lat="44.59632" lon="2.3884">
        <ele>330</ele>
        <time>2018-05-06T07:38:16Z</time>
      </trkpt>
      <trkpt lat="44.59628" lon="2.3882">
        <ele>334</ele>
        <time>2018-05-06T07:38:52Z</time>
      </trkpt>
      <trkpt lat="44.59626" lon="2.38814">
        <ele>335</ele>
        <time>2018-05-06T07:38:58Z</time>
      </trkpt>
      <trkpt lat="44.59623" lon="2.3881">
        <ele>336</ele>
        <time>2018-05-06T07:39:10Z</time>
      </trkpt>
      <trkpt lat="44.59621" lon="2.38796">
        <ele>339</ele>
        <time>2018-05-06T07:39:28Z</time>
      </trkpt>
      <trkpt lat="44.59611" lon="2.38779">
        <ele>343</ele>
        <time>2018-05-06T07:40:01Z</time>
      </trkpt>
      <trkpt lat="44.59606" lon="2.38765">
        <ele>346</ele>
        <time>2018-05-06T07:40:18Z</time>
      </trkpt>
      <trkpt lat="44.59613" lon="2.3875">
        <ele>348</ele>
        <time>2018-05-06T07:40:33Z</time>
      </trkpt>
      <trkpt lat="44.59604" lon="2.38737">
        <ele>358</ele>
        <time>2018-05-06T07:42:06Z</time>
      </trkpt>
      <trkpt lat="44.59607" lon="2.38726">
        <ele>360</ele>
        <time>2018-05-06T07:42:18Z</time>
      </trkpt>
      <trkpt lat="44.59605" lon="2.38718">
        <ele>362</ele>
        <time>2018-05-06T07:42:29Z</time>
      </trkpt>
      <trkpt lat="44.59611" lon="2.38705">
        <ele>366</ele>
        <time>2018-05-06T07:42:54Z</time>
      </trkpt>
      <trkpt lat="44.59613" lon="2.38707">
        <ele>371</ele>
        <time>2018-05-06T07:44:58Z</time>
      </trkpt>
      <trkpt lat="44.59618" lon="2.38694">
        <ele>371</ele>
        <time>2018-05-06T07:46:24Z</time>
      </trkpt>
      <trkpt lat="44.5962" lon="2.38684">
        <ele>372</ele>
        <time>2018-05-06T07:46:32Z</time>
      </trkpt>
      <trkpt lat="44.59616" lon="2.38678">
        <ele>374</ele>
        <time>2018-05-06T07:46:40Z</time>
      </trkpt>
      <trkpt lat="44.59611" lon="2.3868">
        <ele>375</ele>
        <time>2018-05-06T07:46:45Z</time>
      </trkpt>
      <trkpt lat="44.59596" lon="2.38705">
        <ele>380</ele>
        <time>2018-05-06T07:47:28Z</time>
      </trkpt>
      <trkpt lat="44.59588" lon="2.38713">
        <ele>382</ele>
        <time>2018-05-06T07:47:36Z</time>
      </trkpt>
      <trkpt lat="44.59583" lon="2.38749">
        <ele>389</ele>
        <time>2018-05-06T07:48:38Z</time>
      </trkpt>
      <trkpt lat="44.59576" lon="2.38756">
        <ele>390</ele>
        <time>2018-05-06T07:48:49Z</time>
      </trkpt>
      <trkpt lat="44.5957" lon="2.38767">
        <ele>393</ele>
        <time>2018-05-06T07:49:02Z</time>
      </trkpt>
      <trkpt lat="44.59564" lon="2.38834">
        <ele>404</ele>
        <time>2018-05-06T07:50:17Z</time>
      </trkpt>
      <trkpt lat="44.59557" lon="2.38842">
        <ele>407</ele>
        <time>2018-05-06T07:50:33Z</time>
      </trkpt>
      <trkpt lat="44.59548" lon="2.3885">
        <ele>409</ele>
        <time>2018-05-06T07:50:47Z</time>
      </trkpt>
      <trkpt lat="44.59537" lon="2.38876">
        <ele>414</ele>
        <time>2018-05-06T07:51:23Z</time>
      </trkpt>
      <trkpt lat="44.59534" lon="2.38905">
        <ele>420</ele>
        <time>2018-05-06T07:51:56Z</time>
      </trkpt>
      <trkpt lat="44.59522" lon="2.3891">
        <ele>423</ele>
        <time>2018-05-06T07:52:14Z</time>
      </trkpt>
      <trkpt lat="44.59517" lon="2.38911">
        <ele>424</ele>
        <time>2018-05-06T07:52:37Z</time>
      </trkpt>
      <trkpt lat="44.59507" lon="2.3891">
        <ele>426</ele>
        <time>2018-05-06T07:52:45Z</time>
      </trkpt>
      <trkpt lat="44.59497" lon="2.38905">
        <ele>428</ele>
        <time>2018-05-06T07:52:55Z</time>
      </trkpt>
      <trkpt lat="44.59482" lon="2.38902">
        <ele>430</ele>
        <time>2018-05-06T07:53:12Z</time>
      </trkpt>
      <trkpt lat="44.5947" lon="2.38892">
        <ele>433</ele>
        <time>2018-05-06T07:53:32Z</time>
      </trkpt>
      <trkpt lat="44.59465" lon="2.38885">
        <ele>434</ele>
        <time>2018-05-06T07:53:41Z</time>
      </trkpt>
      <trkpt lat="44.5946" lon="2.38884">
        <ele>436</ele>
        <time>2018-05-06T07:54:05Z</time>
      </trkpt>
      <trkpt lat="44.5945" lon="2.38872">
        <ele>440</ele>
        <time>2018-05-06T07:54:22Z</time>
      </trkpt>
      <trkpt lat="44.59429" lon="2.38868">
        <ele>444</ele>
        <time>2018-05-06T07:55:14Z</time>
      </trkpt>
      <trkpt lat="44.59425" lon="2.38864">
        <ele>444</ele>
        <time>2018-05-06T07:55:25Z</time>
      </trkpt>
      <trkpt lat="44.59413" lon="2.38857">
        <ele>449</ele>
        <time>2018-05-06T07:55:57Z</time>
      </trkpt>
      <trkpt lat="44.59386" lon="2.38844">
        <ele>457</ele>
        <time>2018-05-06T07:56:38Z</time>
      </trkpt>
      <trkpt lat="44.59367" lon="2.38827">
        <ele>461</ele>
        <time>2018-05-06T07:57:11Z</time>
      </trkpt>
      <trkpt lat="44.59356" lon="2.3881">
        <ele>464</ele>
        <time>2018-05-06T07:57:31Z</time>
      </trkpt>
      <trkpt lat="44.59353" lon="2.38804">
        <ele>465</ele>
        <time>2018-05-06T07:57:36Z</time>
      </trkpt>
      <trkpt lat="44.59329" lon="2.38783">
        <ele>470</ele>
        <time>2018-05-06T07:58:10Z</time>
      </trkpt>
      <trkpt lat="44.59325" lon="2.3878">
        <ele>470</ele>
        <time>2018-05-06T07:58:15Z</time>
      </trkpt>
      <trkpt lat="44.59323" lon="2.38773">
        <ele>471</ele>
        <time>2018-05-06T07:58:47Z</time>
      </trkpt>
      <trkpt lat="44.59324" lon="2.38766">
        <ele>472</ele>
        <time>2018-05-06T07:58:53Z</time>
      </trkpt>
      <trkpt lat="44.59331" lon="2.38764">
        <ele>474</ele>
        <time>2018-05-06T07:59:05Z</time>
      </trkpt>
      <trkpt lat="44.59338" lon="2.38768">
        <ele>476</ele>
        <time>2018-05-06T07:59:17Z</time>
      </trkpt>
      <trkpt lat="44.59345" lon="2.38766">
        <ele>477</ele>
        <time>2018-05-06T07:59:30Z</time>
      </trkpt>
      <trkpt lat="44.59349" lon="2.38761">
        <ele>478</ele>
        <time>2018-05-06T07:59:38Z</time>
      </trkpt>
      <trkpt lat="44.59349" lon="2.38752">
        <ele>480</ele>
        <time>2018-05-06T07:59:50Z</time>
      </trkpt>
      <trkpt lat="44.59348" lon="2.38746">
        <ele>481</ele>
        <time>2018-05-06T07:59:56Z</time>
      </trkpt>
      <trkpt lat="44.59354" lon="2.38728">
        <ele>485</ele>
        <time>2018-05-06T08:00:20Z</time>
      </trkpt>
      <trkpt lat="44.59356" lon="2.38715">
        <ele>487</ele>
        <time>2018-05-06T08:00:38Z</time>
      </trkpt>
      <trkpt lat="44.59362" lon="2.38703">
        <ele>489</ele>
        <time>2018-05-06T08:01:08Z</time>
      </trkpt>
      <trkpt lat="44.59371" lon="2.38694">
        <ele>492</ele>
        <time>2018-05-06T08:01:38Z</time>
      </trkpt>
      <trkpt lat="44.59385" lon="2.38652">
        <ele>499</ele>
        <time>2018-05-06T08:02:37Z</time>
      </trkpt>
      <trkpt lat="44.59395" lon="2.38628">
        <ele>502</ele>
        <time>2018-05-06T08:03:04Z</time>
      </trkpt>
      <trkpt lat="44.59396" lon="2.3862">
        <ele>503</ele>
        <time>2018-05-06T08:03:09Z</time>
      </trkpt>
      <trkpt lat="44.59406" lon="2.38582">
        <ele>507</ele>
        <time>2018-05-06T08:03:41Z</time>
      </trkpt>
      <trkpt lat="44.59406" lon="2.38575">
        <ele>507</ele>
        <time>2018-05-06T08:03:47Z</time>
      </trkpt>
      <trkpt lat="44.59408" lon="2.38568">
        <ele>508</ele>
        <time>2018-05-06T08:03:53Z</time>
      </trkpt>
      <trkpt lat="44.5941" lon="2.38554">
        <ele>509</ele>
        <time>2018-05-06T08:04:02Z</time>
      </trkpt>
      <trkpt lat="44.59408" lon="2.38541">
        <ele>509</ele>
        <time>2018-05-06T08:04:11Z</time>
      </trkpt>
      <trkpt lat="44.59405" lon="2.38535">
        <ele>509</ele>
        <time>2018-05-06T08:04:16Z</time>
      </trkpt>
      <trkpt lat="44.59388" lon="2.38516">
        <ele>511</ele>
        <time>2018-05-06T08:04:37Z</time>
      </trkpt>
      <trkpt lat="44.59367" lon="2.38484">
        <ele>515</ele>
        <time>2018-05-06T08:05:13Z</time>
      </trkpt>
      <trkpt lat="44.59338" lon="2.3845">
        <ele>521</ele>
        <time>2018-05-06T08:06:14Z</time>
      </trkpt>
      <trkpt lat="44.59335" lon="2.38442">
        <ele>522</ele>
        <time>2018-05-06T08:06:22Z</time>
      </trkpt>
      <trkpt lat="44.59331" lon="2.38426">
        <ele>525</ele>
        <time>2018-05-06T08:08:10Z</time>
      </trkpt>
      <trkpt lat="44.59325" lon="2.38422">
        <ele>525</ele>
        <time>2018-05-06T08:14:51Z</time>
      </trkpt>
      <trkpt lat="44.5931" lon="2.38385">
        <ele>529</ele>
        <time>2018-05-06T08:15:53Z</time>
      </trkpt>
      <trkpt lat="44.59307" lon="2.38339">
        <ele>533</ele>
        <time>2018-05-06T08:17:12Z</time>
      </trkpt>
      <trkpt lat="44.59302" lon="2.38306">
        <ele>532</ele>
        <time>2018-05-06T08:17:34Z</time>
      </trkpt>
      <trkpt lat="44.5926" lon="2.38153">
        <ele>535</ele>
        <time>2018-05-06T08:18:58Z</time>
      </trkpt>
      <trkpt lat="44.5925" lon="2.38057">
        <ele>541</ele>
        <time>2018-05-06T08:20:04Z</time>
      </trkpt>
      <trkpt lat="44.59237" lon="2.38001">
        <ele>545</ele>
        <time>2018-05-06T08:20:36Z</time>
      </trkpt>
      <trkpt lat="44.59228" lon="2.37974">
        <ele>545</ele>
        <time>2018-05-06T08:20:52Z</time>
      </trkpt>
      <trkpt lat="44.59221" lon="2.37962">
        <ele>546</ele>
        <time>2018-05-06T08:21:00Z</time>
      </trkpt>
      <trkpt lat="44.59212" lon="2.37929">
        <ele>545</ele>
        <time>2018-05-06T08:21:20Z</time>
      </trkpt>
      <trkpt lat="44.59212" lon="2.37922">
        <ele>546</ele>
        <time>2018-05-06T08:21:24Z</time>
      </trkpt>
      <trkpt lat="44.5921" lon="2.37916">
        <ele>546</ele>
        <time>2018-05-06T08:21:29Z</time>
      </trkpt>
      <trkpt lat="44.59204" lon="2.37908">
        <ele>546</ele>
        <time>2018-05-06T08:21:44Z</time>
      </trkpt>
      <trkpt lat="44.59198" lon="2.37896">
        <ele>546</ele>
        <time>2018-05-06T08:21:52Z</time>
      </trkpt>
      <trkpt lat="44.59197" lon="2.37889">
        <ele>545</ele>
        <time>2018-05-06T08:21:56Z</time>
      </trkpt>
      <trkpt lat="44.59196" lon="2.37881">
        <ele>545</ele>
        <time>2018-05-06T08:22:00Z</time>
      </trkpt>
      <trkpt lat="44.592" lon="2.37815">
        <ele>546</ele>
        <time>2018-05-06T08:22:34Z</time>
      </trkpt>
      <trkpt lat="44.59199" lon="2.37808">
        <ele>546</ele>
        <time>2018-05-06T08:22:38Z</time>
      </trkpt>
      <trkpt lat="44.59193" lon="2.37788">
        <ele>546</ele>
        <time>2018-05-06T08:22:50Z</time>
      </trkpt>
      <trkpt lat="44.59166" lon="2.37748">
        <ele>548</ele>
        <time>2018-05-06T08:23:23Z</time>
      </trkpt>
      <trkpt lat="44.59118" lon="2.37656">
        <ele>549</ele>
        <time>2018-05-06T08:24:27Z</time>
      </trkpt>
      <trkpt lat="44.59097" lon="2.37607">
        <ele>548</ele>
        <time>2018-05-06T08:24:59Z</time>
      </trkpt>
      <trkpt lat="44.59092" lon="2.37607">
        <ele>548</ele>
        <time>2018-05-06T08:25:03Z</time>
      </trkpt>
      <trkpt lat="44.58925" lon="2.37619">
        <ele>551</ele>
        <time>2018-05-06T08:27:12Z</time>
      </trkpt>
      <trkpt lat="44.58905" lon="2.37624">
        <ele>552</ele>
        <time>2018-05-06T08:27:28Z</time>
      </trkpt>
      <trkpt lat="44.58763" lon="2.37701">
        <ele>563</ele>
        <time>2018-05-06T08:29:28Z</time>
      </trkpt>
      <trkpt lat="44.58747" lon="2.37702">
        <ele>564</ele>
        <time>2018-05-06T08:29:42Z</time>
      </trkpt>
      <trkpt lat="44.58738" lon="2.37699">
        <ele>564</ele>
        <time>2018-05-06T08:29:50Z</time>
      </trkpt>
      <trkpt lat="44.58725" lon="2.37687">
        <ele>564</ele>
        <time>2018-05-06T08:30:02Z</time>
      </trkpt>
      <trkpt lat="44.58684" lon="2.37627">
        <ele>563</ele>
        <time>2018-05-06T08:30:46Z</time>
      </trkpt>
      <trkpt lat="44.58659" lon="2.37601">
        <ele>562</ele>
        <time>2018-05-06T08:31:10Z</time>
      </trkpt>
      <trkpt lat="44.58649" lon="2.37596">
        <ele>562</ele>
        <time>2018-05-06T08:31:18Z</time>
      </trkpt>
      <trkpt lat="44.58608" lon="2.37589">
        <ele>563</ele>
        <time>2018-05-06T08:31:50Z</time>
      </trkpt>
      <trkpt lat="44.5857" lon="2.37592">
        <ele>565</ele>
        <time>2018-05-06T08:32:28Z</time>
      </trkpt>
      <trkpt lat="44.58491" lon="2.37616">
        <ele>570</ele>
        <time>2018-05-06T08:33:32Z</time>
      </trkpt>
      <trkpt lat="44.58379" lon="2.37679">
        <ele>573</ele>
        <time>2018-05-06T08:35:08Z</time>
      </trkpt>
      <trkpt lat="44.58353" lon="2.37687">
        <ele>573</ele>
        <time>2018-05-06T08:35:28Z</time>
      </trkpt>
      <trkpt lat="44.58309" lon="2.37687">
        <ele>573</ele>
        <time>2018-05-06T08:36:00Z</time>
      </trkpt>
      <trkpt lat="44.58304" lon="2.37688">
        <ele>573</ele>
        <time>2018-05-06T08:36:04Z</time>
      </trkpt>
      <trkpt lat="44.58288" lon="2.37684">
        <ele>573</ele>
        <time>2018-05-06T08:36:16Z</time>
      </trkpt>
      <trkpt lat="44.58156" lon="2.37611">
        <ele>581</ele>
        <time>2018-05-06T08:38:08Z</time>
      </trkpt>
      <trkpt lat="44.58151" lon="2.3761">
        <ele>582</ele>
        <time>2018-05-06T08:38:13Z</time>
      </trkpt>
      <trkpt lat="44.58132" lon="2.37601">
        <ele>583</ele>
        <time>2018-05-06T08:38:30Z</time>
      </trkpt>
      <trkpt lat="44.58121" lon="2.37595">
        <ele>583</ele>
        <time>2018-05-06T08:38:42Z</time>
      </trkpt>
      <trkpt lat="44.58116" lon="2.37592">
        <ele>584</ele>
        <time>2018-05-06T08:38:46Z</time>
      </trkpt>
      <trkpt lat="44.58112" lon="2.37588">
        <ele>584</ele>
        <time>2018-05-06T08:38:50Z</time>
      </trkpt>
      <trkpt lat="44.58087" lon="2.37582">
        <ele>584</ele>
        <time>2018-05-06T08:39:13Z</time>
      </trkpt>
      <trkpt lat="44.58046" lon="2.37564">
        <ele>586</ele>
        <time>2018-05-06T08:39:46Z</time>
      </trkpt>
      <trkpt lat="44.58037" lon="2.37565">
        <ele>587</ele>
        <time>2018-05-06T08:39:55Z</time>
      </trkpt>
      <trkpt lat="44.58027" lon="2.37567">
        <ele>588</ele>
        <time>2018-05-06T08:40:03Z</time>
      </trkpt>
      <trkpt lat="44.57992" lon="2.37584">
        <ele>590</ele>
        <time>2018-05-06T08:40:32Z</time>
      </trkpt>
      <trkpt lat="44.57968" lon="2.37593">
        <ele>591</ele>
        <time>2018-05-06T08:40:53Z</time>
      </trkpt>
      <trkpt lat="44.57959" lon="2.37592">
        <ele>592</ele>
        <time>2018-05-06T08:41:01Z</time>
      </trkpt>
      <trkpt lat="44.57953" lon="2.37594">
        <ele>592</ele>
        <time>2018-05-06T08:41:05Z</time>
      </trkpt>
      <trkpt lat="44.57949" lon="2.37598">
        <ele>592</ele>
        <time>2018-05-06T08:41:09Z</time>
      </trkpt>
      <trkpt lat="44.5794" lon="2.37625">
        <ele>593</ele>
        <time>2018-05-06T08:41:24Z</time>
      </trkpt>
      <trkpt lat="44.57913" lon="2.37867">
        <ele>596</ele>
        <time>2018-05-06T08:43:40Z</time>
      </trkpt>
      <trkpt lat="44.57913" lon="2.37874">
        <ele>596</ele>
        <time>2018-05-06T08:43:44Z</time>
      </trkpt>
      <trkpt lat="44.579" lon="2.37945">
        <ele>597</ele>
        <time>2018-05-06T08:44:22Z</time>
      </trkpt>
      <trkpt lat="44.57758" lon="2.38308">
        <ele>604</ele>
        <time>2018-05-06T08:48:07Z</time>
      </trkpt>
      <trkpt lat="44.57715" lon="2.38403">
        <ele>605</ele>
        <time>2018-05-06T08:49:14Z</time>
      </trkpt>
      <trkpt lat="44.57712" lon="2.38408">
        <ele>605</ele>
        <time>2018-05-06T08:49:18Z</time>
      </trkpt>
      <trkpt lat="44.57695" lon="2.3843">
        <ele>607</ele>
        <time>2018-05-06T08:49:38Z</time>
      </trkpt>
      <trkpt lat="44.57656" lon="2.38448">
        <ele>611</ele>
        <time>2018-05-06T08:50:17Z</time>
      </trkpt>
      <trkpt lat="44.5762" lon="2.38475">
        <ele>613</ele>
        <time>2018-05-06T08:50:50Z</time>
      </trkpt>
      <trkpt lat="44.57551" lon="2.38541">
        <ele>613</ele>
        <time>2018-05-06T08:51:54Z</time>
      </trkpt>
      <trkpt lat="44.57521" lon="2.3858">
        <ele>613</ele>
        <time>2018-05-06T08:52:26Z</time>
      </trkpt>
      <trkpt lat="44.57503" lon="2.38616">
        <ele>610</ele>
        <time>2018-05-06T08:52:50Z</time>
      </trkpt>
      <trkpt lat="44.57499" lon="2.38623">
        <ele>610</ele>
        <time>2018-05-06T08:52:58Z</time>
      </trkpt>
      <trkpt lat="44.57493" lon="2.38628">
        <ele>612</ele>
        <time>2018-05-06T08:53:06Z</time>
      </trkpt>
      <trkpt lat="44.57449" lon="2.38653">
        <ele>609</ele>
        <time>2018-05-06T08:53:42Z</time>
      </trkpt>
      <trkpt lat="44.57434" lon="2.38659">
        <ele>608</ele>
        <time>2018-05-06T08:53:54Z</time>
      </trkpt>
      <trkpt lat="44.57406" lon="2.38657">
        <ele>608</ele>
        <time>2018-05-06T08:54:14Z</time>
      </trkpt>
      <trkpt lat="44.57323" lon="2.38591">
        <ele>605</ele>
        <time>2018-05-06T08:55:26Z</time>
      </trkpt>
      <trkpt lat="44.57285" lon="2.38548">
        <ele>602</ele>
        <time>2018-05-06T08:56:02Z</time>
      </trkpt>
      <trkpt lat="44.57281" lon="2.38543">
        <ele>602</ele>
        <time>2018-05-06T08:56:06Z</time>
      </trkpt>
      <trkpt lat="44.57231" lon="2.3845">
        <ele>601</ele>
        <time>2018-05-06T08:57:11Z</time>
      </trkpt>
      <trkpt lat="44.5722" lon="2.38423">
        <ele>600</ele>
        <time>2018-05-06T08:57:26Z</time>
      </trkpt>
      <trkpt lat="44.57215" lon="2.38372">
        <ele>599</ele>
        <time>2018-05-06T08:57:54Z</time>
      </trkpt>
      <trkpt lat="44.57237" lon="2.38194">
        <ele>599</ele>
        <time>2018-05-06T08:59:28Z</time>
      </trkpt>
      <trkpt lat="44.57236" lon="2.3818">
        <ele>599</ele>
        <time>2018-05-06T08:59:36Z</time>
      </trkpt>
      <trkpt lat="44.57232" lon="2.38167">
        <ele>599</ele>
        <time>2018-05-06T08:59:44Z</time>
      </trkpt>
      <trkpt lat="44.57222" lon="2.38151">
        <ele>599</ele>
        <time>2018-05-06T08:59:56Z</time>
      </trkpt>
      <trkpt lat="44.5721" lon="2.38139">
        <ele>600</ele>
        <time>2018-05-06T09:00:08Z</time>
      </trkpt>
      <trkpt lat="44.5719" lon="2.3813">
        <ele>600</ele>
        <time>2018-05-06T09:00:24Z</time>
      </trkpt>
      <trkpt lat="44.57164" lon="2.38114">
        <ele>602</ele>
        <time>2018-05-06T09:00:53Z</time>
      </trkpt>
      <trkpt lat="44.57157" lon="2.38104">
        <ele>602</ele>
        <time>2018-05-06T09:01:12Z</time>
      </trkpt>
      <trkpt lat="44.57144" lon="2.381">
        <ele>602</ele>
        <time>2018-05-06T09:01:27Z</time>
      </trkpt>
      <trkpt lat="44.57141" lon="2.38095">
        <ele>602</ele>
        <time>2018-05-06T09:01:31Z</time>
      </trkpt>
      <trkpt lat="44.57125" lon="2.38076">
        <ele>602</ele>
        <time>2018-05-06T09:01:47Z</time>
      </trkpt>
      <trkpt lat="44.57088" lon="2.38048">
        <ele>602</ele>
        <time>2018-05-06T09:02:19Z</time>
      </trkpt>
      <trkpt lat="44.56976" lon="2.37987">
        <ele>596</ele>
        <time>2018-05-06T09:03:47Z</time>
      </trkpt>
      <trkpt lat="44.56967" lon="2.37977">
        <ele>596</ele>
        <time>2018-05-06T09:03:55Z</time>
      </trkpt>
      <trkpt lat="44.56902" lon="2.37861">
        <ele>588</ele>
        <time>2018-05-06T09:05:15Z</time>
      </trkpt>
      <trkpt lat="44.56894" lon="2.37851">
        <ele>587</ele>
        <time>2018-05-06T09:05:23Z</time>
      </trkpt>
      <trkpt lat="44.56889" lon="2.37853">
        <ele>586</ele>
        <time>2018-05-06T09:05:28Z</time>
      </trkpt>
      <trkpt lat="44.56888" lon="2.37875">
        <ele>584</ele>
        <time>2018-05-06T09:05:40Z</time>
      </trkpt>
      <trkpt lat="44.56887" lon="2.37882">
        <ele>583</ele>
        <time>2018-05-06T09:05:44Z</time>
      </trkpt>
      <trkpt lat="44.56882" lon="2.37883">
        <ele>582</ele>
        <time>2018-05-06T09:05:48Z</time>
      </trkpt>
      <trkpt lat="44.56873" lon="2.37879">
        <ele>582</ele>
        <time>2018-05-06T09:07:19Z</time>
      </trkpt>
      <trkpt lat="44.5686" lon="2.37877">
        <ele>578</ele>
        <time>2018-05-06T09:07:28Z</time>
      </trkpt>
      <trkpt lat="44.56852" lon="2.37868">
        <ele>577</ele>
        <time>2018-05-06T09:07:36Z</time>
      </trkpt>
      <trkpt lat="44.56847" lon="2.37865">
        <ele>577</ele>
        <time>2018-05-06T09:07:40Z</time>
      </trkpt>
      <trkpt lat="44.5682" lon="2.37863">
        <ele>575</ele>
        <time>2018-05-06T09:08:00Z</time>
      </trkpt>
      <trkpt lat="44.5681" lon="2.37866">
        <ele>574</ele>
        <time>2018-05-06T09:08:07Z</time>
      </trkpt>
      <trkpt lat="44.56771" lon="2.37891">
        <ele>567</ele>
        <time>2018-05-06T09:08:41Z</time>
      </trkpt>
      <trkpt lat="44.56747" lon="2.37898">
        <ele>563</ele>
        <time>2018-05-06T09:09:02Z</time>
      </trkpt>
      <trkpt lat="44.56742" lon="2.37897">
        <ele>563</ele>
        <time>2018-05-06T09:09:06Z</time>
      </trkpt>
      <trkpt lat="44.56737" lon="2.37895">
        <ele>562</ele>
        <time>2018-05-06T09:09:10Z</time>
      </trkpt>
      <trkpt lat="44.56734" lon="2.37889">
        <ele>562</ele>
        <time>2018-05-06T09:09:14Z</time>
      </trkpt>
      <trkpt lat="44.5673" lon="2.37882">
        <ele>561</ele>
        <time>2018-05-06T09:09:18Z</time>
      </trkpt>
      <trkpt lat="44.56725" lon="2.37862">
        <ele>559</ele>
        <time>2018-05-06T09:09:30Z</time>
      </trkpt>
      <trkpt lat="44.56708" lon="2.37828">
        <ele>556</ele>
        <time>2018-05-06T09:09:54Z</time>
      </trkpt>
      <trkpt lat="44.56679" lon="2.37793">
        <ele>552</ele>
        <time>2018-05-06T09:10:27Z</time>
      </trkpt>
      <trkpt lat="44.56656" lon="2.37745">
        <ele>548</ele>
        <time>2018-05-06T09:10:59Z</time>
      </trkpt>
      <trkpt lat="44.56649" lon="2.37735">
        <ele>547</ele>
        <time>2018-05-06T09:11:07Z</time>
      </trkpt>
      <trkpt lat="44.56635" lon="2.37724">
        <ele>545</ele>
        <time>2018-05-06T09:11:19Z</time>
      </trkpt>
      <trkpt lat="44.56611" lon="2.3771">
        <ele>544</ele>
        <time>2018-05-06T09:11:40Z</time>
      </trkpt>
      <trkpt lat="44.56608" lon="2.37705">
        <ele>543</ele>
        <time>2018-05-06T09:11:44Z</time>
      </trkpt>
      <trkpt lat="44.56605" lon="2.37654">
        <ele>542</ele>
        <time>2018-05-06T09:12:34Z</time>
      </trkpt>
      <trkpt lat="44.566" lon="2.37652">
        <ele>541</ele>
        <time>2018-05-06T09:12:39Z</time>
      </trkpt>
      <trkpt lat="44.5659" lon="2.37653">
        <ele>539</ele>
        <time>2018-05-06T09:12:47Z</time>
      </trkpt>
      <trkpt lat="44.56576" lon="2.3765">
        <ele>537</ele>
        <time>2018-05-06T09:13:03Z</time>
      </trkpt>
      <trkpt lat="44.56571" lon="2.37649">
        <ele>537</ele>
        <time>2018-05-06T09:13:27Z</time>
      </trkpt>
      <trkpt lat="44.56567" lon="2.37645">
        <ele>535</ele>
        <time>2018-05-06T09:13:33Z</time>
      </trkpt>
      <trkpt lat="44.56547" lon="2.37652">
        <ele>531</ele>
        <time>2018-05-06T09:13:54Z</time>
      </trkpt>
      <trkpt lat="44.56537" lon="2.37647">
        <ele>530</ele>
        <time>2018-05-06T09:14:07Z</time>
      </trkpt>
      <trkpt lat="44.56534" lon="2.37642">
        <ele>529</ele>
        <time>2018-05-06T09:14:18Z</time>
      </trkpt>
      <trkpt lat="44.56533" lon="2.37635">
        <ele>529</ele>
        <time>2018-05-06T09:14:23Z</time>
      </trkpt>
      <trkpt lat="44.56532" lon="2.37628">
        <ele>528</ele>
        <time>2018-05-06T09:14:37Z</time>
      </trkpt>
      <trkpt lat="44.56533" lon="2.37611">
        <ele>528</ele>
        <time>2018-05-06T09:14:59Z</time>
      </trkpt>
      <trkpt lat="44.56527" lon="2.37617">
        <ele>525</ele>
        <time>2018-05-06T09:15:25Z</time>
      </trkpt>
      <trkpt lat="44.56523" lon="2.37623">
        <ele>525</ele>
        <time>2018-05-06T09:15:39Z</time>
      </trkpt>
      <trkpt lat="44.56525" lon="2.37622">
        <ele>526</ele>
        <time>2018-05-06T09:16:43Z</time>
      </trkpt>
      <trkpt lat="44.56529" lon="2.37617">
        <ele>525</ele>
        <time>2018-05-06T09:17:07Z</time>
      </trkpt>
      <trkpt lat="44.5653" lon="2.37602">
        <ele>525</ele>
        <time>2018-05-06T09:17:17Z</time>
      </trkpt>
      <trkpt lat="44.56531" lon="2.37596">
        <ele>525</ele>
        <time>2018-05-06T09:17:21Z</time>
      </trkpt>
      <trkpt lat="44.56536" lon="2.37584">
        <ele>526</ele>
        <time>2018-05-06T09:17:31Z</time>
      </trkpt>
      <trkpt lat="44.56541" lon="2.37578">
        <ele>526</ele>
        <time>2018-05-06T09:17:39Z</time>
      </trkpt>
      <trkpt lat="44.56544" lon="2.37572">
        <ele>525</ele>
        <time>2018-05-06T09:17:44Z</time>
      </trkpt>
      <trkpt lat="44.56549" lon="2.37551">
        <ele>524</ele>
        <time>2018-05-06T09:17:58Z</time>
      </trkpt>
      <trkpt lat="44.56553" lon="2.37546">
        <ele>524</ele>
        <time>2018-05-06T09:18:03Z</time>
      </trkpt>
      <trkpt lat="44.56559" lon="2.37543">
        <ele>524</ele>
        <time>2018-05-06T09:18:11Z</time>
      </trkpt>
      <trkpt lat="44.56558" lon="2.37539">
        <ele>525</ele>
        <time>2018-05-06T09:42:20Z</time>
      </trkpt>
      <trkpt lat="44.56552" lon="2.37546">
        <ele>524</ele>
        <time>2018-05-06T09:48:39Z</time>
      </trkpt>
      <trkpt lat="44.56547" lon="2.37556">
        <ele>523</ele>
        <time>2018-05-06T09:48:56Z</time>
      </trkpt>
      <trkpt lat="44.56547" lon="2.37568">
        <ele>525</ele>
        <time>2018-05-06T09:49:18Z</time>
      </trkpt>
      <trkpt lat="44.56544" lon="2.37574">
        <ele>525</ele>
        <time>2018-05-06T09:49:22Z</time>
      </trkpt>
      <trkpt lat="44.56543" lon="2.37581">
        <ele>526</ele>
        <time>2018-05-06T09:49:26Z</time>
      </trkpt>
      <trkpt lat="44.56539" lon="2.37586">
        <ele>526</ele>
        <time>2018-05-06T09:49:31Z</time>
      </trkpt>
      <trkpt lat="44.56533" lon="2.37586">
        <ele>525</ele>
        <time>2018-05-06T09:49:35Z</time>
      </trkpt>
      <trkpt lat="44.56528" lon="2.37584">
        <ele>524</ele>
        <time>2018-05-06T09:49:39Z</time>
      </trkpt>
      <trkpt lat="44.56538" lon="2.3757">
        <ele>524</ele>
        <time>2018-05-06T09:50:41Z</time>
      </trkpt>
      <trkpt lat="44.56543" lon="2.37572">
        <ele>525</ele>
        <time>2018-05-06T09:51:06Z</time>
      </trkpt>
      <trkpt lat="44.56552" lon="2.37547">
        <ele>524</ele>
        <time>2018-05-06T09:51:26Z</time>
      </trkpt>
      <trkpt lat="44.56555" lon="2.37543">
        <ele>523</ele>
        <time>2018-05-06T09:51:31Z</time>
      </trkpt>
      <trkpt lat="44.56559" lon="2.37541">
        <ele>523</ele>
        <time>2018-05-06T09:51:40Z</time>
      </trkpt>
      <trkpt lat="44.5656" lon="2.37531">
        <ele>522</ele>
        <time>2018-05-06T09:55:13Z</time>
      </trkpt>
      <trkpt lat="44.56562" lon="2.37525">
        <ele>522</ele>
        <time>2018-05-06T09:55:17Z</time>
      </trkpt>
      <trkpt lat="44.56565" lon="2.37521">
        <ele>521</ele>
        <time>2018-05-06T09:55:20Z</time>
      </trkpt>
      <trkpt lat="44.56582" lon="2.37505">
        <ele>521</ele>
        <time>2018-05-06T09:55:36Z</time>
      </trkpt>
      <trkpt lat="44.5661" lon="2.37465">
        <ele>523</ele>
        <time>2018-05-06T09:56:11Z</time>
      </trkpt>
      <trkpt lat="44.56615" lon="2.3745">
        <ele>524</ele>
        <time>2018-05-06T09:56:23Z</time>
      </trkpt>
      <trkpt lat="44.56624" lon="2.37405">
        <ele>526</ele>
        <time>2018-05-06T09:56:54Z</time>
      </trkpt>
      <trkpt lat="44.56629" lon="2.37397">
        <ele>526</ele>
        <time>2018-05-06T09:57:04Z</time>
      </trkpt>
      <trkpt lat="44.56632" lon="2.37391">
        <ele>527</ele>
        <time>2018-05-06T09:57:09Z</time>
      </trkpt>
      <trkpt lat="44.56641" lon="2.37381">
        <ele>528</ele>
        <time>2018-05-06T09:57:19Z</time>
      </trkpt>
      <trkpt lat="44.56653" lon="2.37349">
        <ele>531</ele>
        <time>2018-05-06T09:57:44Z</time>
      </trkpt>
      <trkpt lat="44.56652" lon="2.37341">
        <ele>532</ele>
        <time>2018-05-06T09:57:48Z</time>
      </trkpt>
      <trkpt lat="44.56648" lon="2.3733">
        <ele>533</ele>
        <time>2018-05-06T09:57:59Z</time>
      </trkpt>
      <trkpt lat="44.56645" lon="2.37325">
        <ele>533</ele>
        <time>2018-05-06T09:58:03Z</time>
      </trkpt>
      <trkpt lat="44.56632" lon="2.37316">
        <ele>535</ele>
        <time>2018-05-06T09:58:16Z</time>
      </trkpt>
      <trkpt lat="44.56623" lon="2.37305">
        <ele>536</ele>
        <time>2018-05-06T09:58:28Z</time>
      </trkpt>
      <trkpt lat="44.56617" lon="2.37281">
        <ele>538</ele>
        <time>2018-05-06T09:58:50Z</time>
      </trkpt>
      <trkpt lat="44.56618" lon="2.37261">
        <ele>540</ele>
        <time>2018-05-06T09:59:05Z</time>
      </trkpt>
      <trkpt lat="44.56619" lon="2.37255">
        <ele>541</ele>
        <time>2018-05-06T09:59:10Z</time>
      </trkpt>
      <trkpt lat="44.5663" lon="2.37231">
        <ele>543</ele>
        <time>2018-05-06T09:59:30Z</time>
      </trkpt>
      <trkpt lat="44.56639" lon="2.37201">
        <ele>546</ele>
        <time>2018-05-06T10:00:02Z</time>
      </trkpt>
      <trkpt lat="44.56649" lon="2.37175">
        <ele>548</ele>
        <time>2018-05-06T10:00:22Z</time>
      </trkpt>
      <trkpt lat="44.56658" lon="2.37168">
        <ele>549</ele>
        <time>2018-05-06T10:00:32Z</time>
      </trkpt>
      <trkpt lat="44.56667" lon="2.37161">
        <ele>550</ele>
        <time>2018-05-06T10:00:43Z</time>
      </trkpt>
      <trkpt lat="44.56687" lon="2.37134">
        <ele>553</ele>
        <time>2018-05-06T10:01:10Z</time>
      </trkpt>
      <trkpt lat="44.56698" lon="2.37112">
        <ele>555</ele>
        <time>2018-05-06T10:01:32Z</time>
      </trkpt>
      <trkpt lat="44.5671" lon="2.37099">
        <ele>557</ele>
        <time>2018-05-06T10:01:51Z</time>
      </trkpt>
      <trkpt lat="44.56716" lon="2.37088">
        <ele>558</ele>
        <time>2018-05-06T10:02:09Z</time>
      </trkpt>
      <trkpt lat="44.5673" lon="2.37074">
        <ele>561</ele>
        <time>2018-05-06T10:02:34Z</time>
      </trkpt>
      <trkpt lat="44.56733" lon="2.37066">
        <ele>561</ele>
        <time>2018-05-06T10:02:46Z</time>
      </trkpt>
      <trkpt lat="44.56736" lon="2.37061">
        <ele>562</ele>
        <time>2018-05-06T10:02:52Z</time>
      </trkpt>
      <trkpt lat="44.5675" lon="2.37023">
        <ele>566</ele>
        <time>2018-05-06T10:03:26Z</time>
      </trkpt>
      <trkpt lat="44.56758" lon="2.37006">
        <ele>567</ele>
        <time>2018-05-06T10:03:39Z</time>
      </trkpt>
      <trkpt lat="44.56766" lon="2.36981">
        <ele>568</ele>
        <time>2018-05-06T10:03:55Z</time>
      </trkpt>
      <trkpt lat="44.56778" lon="2.36951">
        <ele>570</ele>
        <time>2018-05-06T10:04:17Z</time>
      </trkpt>
      <trkpt lat="44.56779" lon="2.36924">
        <ele>572</ele>
        <time>2018-05-06T10:04:35Z</time>
      </trkpt>
      <trkpt lat="44.56778" lon="2.36917">
        <ele>573</ele>
        <time>2018-05-06T10:04:40Z</time>
      </trkpt>
      <trkpt lat="44.56776" lon="2.3691">
        <ele>573</ele>
        <time>2018-05-06T10:04:45Z</time>
      </trkpt>
      <trkpt lat="44.56772" lon="2.36905">
        <ele>574</ele>
        <time>2018-05-06T10:04:49Z</time>
      </trkpt>
      <trkpt lat="44.56768" lon="2.36902">
        <ele>574</ele>
        <time>2018-05-06T10:04:54Z</time>
      </trkpt>
      <trkpt lat="44.56764" lon="2.369">
        <ele>575</ele>
        <time>2018-05-06T10:05:02Z</time>
      </trkpt>
      <trkpt lat="44.56761" lon="2.36894">
        <ele>576</ele>
        <time>2018-05-06T10:05:38Z</time>
      </trkpt>
      <trkpt lat="44.56739" lon="2.36892">
        <ele>578</ele>
        <time>2018-05-06T10:06:04Z</time>
      </trkpt>
      <trkpt lat="44.56733" lon="2.36881">
        <ele>580</ele>
        <time>2018-05-06T10:06:15Z</time>
      </trkpt>
      <trkpt lat="44.56728" lon="2.36866">
        <ele>582</ele>
        <time>2018-05-06T10:06:36Z</time>
      </trkpt>
      <trkpt lat="44.56728" lon="2.3686">
        <ele>583</ele>
        <time>2018-05-06T10:06:41Z</time>
      </trkpt>
      <trkpt lat="44.5673" lon="2.36846">
        <ele>584</ele>
        <time>2018-05-06T10:06:53Z</time>
      </trkpt>
      <trkpt lat="44.56737" lon="2.36827">
        <ele>586</ele>
        <time>2018-05-06T10:07:07Z</time>
      </trkpt>
      <trkpt lat="44.5674" lon="2.36818">
        <ele>587</ele>
        <time>2018-05-06T10:07:14Z</time>
      </trkpt>
      <trkpt lat="44.56737" lon="2.36796">
        <ele>587</ele>
        <time>2018-05-06T10:07:26Z</time>
      </trkpt>
      <trkpt lat="44.56737" lon="2.36761">
        <ele>590</ele>
        <time>2018-05-06T10:07:49Z</time>
      </trkpt>
      <trkpt lat="44.56734" lon="2.36747">
        <ele>591</ele>
        <time>2018-05-06T10:07:59Z</time>
      </trkpt>
      <trkpt lat="44.5673" lon="2.36741">
        <ele>591</ele>
        <time>2018-05-06T10:08:18Z</time>
      </trkpt>
      <trkpt lat="44.56724" lon="2.3672">
        <ele>592</ele>
        <time>2018-05-06T10:08:31Z</time>
      </trkpt>
      <trkpt lat="44.56723" lon="2.36713">
        <ele>593</ele>
        <time>2018-05-06T10:08:35Z</time>
      </trkpt>
      <trkpt lat="44.56722" lon="2.36699">
        <ele>594</ele>
        <time>2018-05-06T10:08:45Z</time>
      </trkpt>
      <trkpt lat="44.56719" lon="2.36685">
        <ele>594</ele>
        <time>2018-05-06T10:08:54Z</time>
      </trkpt>
      <trkpt lat="44.56716" lon="2.36677">
        <ele>595</ele>
        <time>2018-05-06T10:09:09Z</time>
      </trkpt>
      <trkpt lat="44.56712" lon="2.36648">
        <ele>595</ele>
        <time>2018-05-06T10:09:26Z</time>
      </trkpt>
      <trkpt lat="44.56712" lon="2.36642">
        <ele>595</ele>
        <time>2018-05-06T10:09:30Z</time>
      </trkpt>
      <trkpt lat="44.56714" lon="2.36636">
        <ele>595</ele>
        <time>2018-05-06T10:09:34Z</time>
      </trkpt>
      <trkpt lat="44.5672" lon="2.36625">
        <ele>596</ele>
        <time>2018-05-06T10:09:44Z</time>
      </trkpt>
      <trkpt lat="44.56724" lon="2.36623">
        <ele>597</ele>
        <time>2018-05-06T10:09:52Z</time>
      </trkpt>
      <trkpt lat="44.5672" lon="2.36617">
        <ele>597</ele>
        <time>2018-05-06T10:10:04Z</time>
      </trkpt>
      <trkpt lat="44.56718" lon="2.36612">
        <ele>597</ele>
        <time>2018-05-06T10:10:10Z</time>
      </trkpt>
      <trkpt lat="44.56718" lon="2.36604">
        <ele>598</ele>
        <time>2018-05-06T10:10:30Z</time>
      </trkpt>
      <trkpt lat="44.56714" lon="2.36602">
        <ele>598</ele>
        <time>2018-05-06T10:11:42Z</time>
      </trkpt>
      <trkpt lat="44.56708" lon="2.36602">
        <ele>598</ele>
        <time>2018-05-06T10:12:29Z</time>
      </trkpt>
      <trkpt lat="44.56703" lon="2.36598">
        <ele>598</ele>
        <time>2018-05-06T10:12:34Z</time>
      </trkpt>
      <trkpt lat="44.56699" lon="2.36591">
        <ele>597</ele>
        <time>2018-05-06T10:12:38Z</time>
      </trkpt>
      <trkpt lat="44.56714" lon="2.36316">
        <ele>607</ele>
        <time>2018-05-06T10:15:17Z</time>
      </trkpt>
      <trkpt lat="44.56717" lon="2.36308">
        <ele>606</ele>
        <time>2018-05-06T10:15:31Z</time>
      </trkpt>
      <trkpt lat="44.56721" lon="2.36304">
        <ele>606</ele>
        <time>2018-05-06T10:15:35Z</time>
      </trkpt>
      <trkpt lat="44.56723" lon="2.36297">
        <ele>606</ele>
        <time>2018-05-06T10:15:40Z</time>
      </trkpt>
      <trkpt lat="44.56725" lon="2.36268">
        <ele>608</ele>
        <time>2018-05-06T10:15:57Z</time>
      </trkpt>
      <trkpt lat="44.56747" lon="2.36142">
        <ele>609</ele>
        <time>2018-05-06T10:17:09Z</time>
      </trkpt>
      <trkpt lat="44.5675" lon="2.36135">
        <ele>609</ele>
        <time>2018-05-06T10:17:14Z</time>
      </trkpt>
      <trkpt lat="44.56755" lon="2.36107">
        <ele>610</ele>
        <time>2018-05-06T10:17:31Z</time>
      </trkpt>
      <trkpt lat="44.56762" lon="2.36085">
        <ele>611</ele>
        <time>2018-05-06T10:18:36Z</time>
      </trkpt>
      <trkpt lat="44.56781" lon="2.36049">
        <ele>611</ele>
        <time>2018-05-06T10:19:00Z</time>
      </trkpt>
      <trkpt lat="44.56785" lon="2.36045">
        <ele>611</ele>
        <time>2018-05-06T10:19:05Z</time>
      </trkpt>
      <trkpt lat="44.56788" lon="2.3604">
        <ele>612</ele>
        <time>2018-05-06T10:19:15Z</time>
      </trkpt>
      <trkpt lat="44.56809" lon="2.36017">
        <ele>612</ele>
        <time>2018-05-06T10:19:35Z</time>
      </trkpt>
      <trkpt lat="44.56811" lon="2.3601">
        <ele>613</ele>
        <time>2018-05-06T10:19:39Z</time>
      </trkpt>
      <trkpt lat="44.56837" lon="2.3597">
        <ele>615</ele>
        <time>2018-05-06T10:20:11Z</time>
      </trkpt>
      <trkpt lat="44.56845" lon="2.35962">
        <ele>615</ele>
        <time>2018-05-06T10:20:19Z</time>
      </trkpt>
      <trkpt lat="44.56857" lon="2.35948">
        <ele>615</ele>
        <time>2018-05-06T10:20:32Z</time>
      </trkpt>
      <trkpt lat="44.56861" lon="2.35944">
        <ele>616</ele>
        <time>2018-05-06T10:20:37Z</time>
      </trkpt>
      <trkpt lat="44.56867" lon="2.35934">
        <ele>616</ele>
        <time>2018-05-06T10:20:47Z</time>
      </trkpt>
      <trkpt lat="44.56874" lon="2.359">
        <ele>620</ele>
        <time>2018-05-06T10:21:12Z</time>
      </trkpt>
      <trkpt lat="44.56874" lon="2.35886">
        <ele>621</ele>
        <time>2018-05-06T10:21:21Z</time>
      </trkpt>
      <trkpt lat="44.56869" lon="2.35865">
        <ele>622</ele>
        <time>2018-05-06T10:21:34Z</time>
      </trkpt>
      <trkpt lat="44.56856" lon="2.35832">
        <ele>623</ele>
        <time>2018-05-06T10:21:57Z</time>
      </trkpt>
      <trkpt lat="44.56841" lon="2.35768">
        <ele>626</ele>
        <time>2018-05-06T10:22:39Z</time>
      </trkpt>
      <trkpt lat="44.56836" lon="2.35756">
        <ele>626</ele>
        <time>2018-05-06T10:22:47Z</time>
      </trkpt>
      <trkpt lat="44.5683" lon="2.35721">
        <ele>625</ele>
        <time>2018-05-06T10:23:08Z</time>
      </trkpt>
      <trkpt lat="44.5683" lon="2.3567">
        <ele>624</ele>
        <time>2018-05-06T10:23:36Z</time>
      </trkpt>
      <trkpt lat="44.56859" lon="2.35503">
        <ele>629</ele>
        <time>2018-05-06T10:25:17Z</time>
      </trkpt>
      <trkpt lat="44.56862" lon="2.35493">
        <ele>631</ele>
        <time>2018-05-06T10:25:43Z</time>
      </trkpt>
      <trkpt lat="44.56864" lon="2.35486">
        <ele>631</ele>
        <time>2018-05-06T10:25:48Z</time>
      </trkpt>
      <trkpt lat="44.56869" lon="2.35469">
        <ele>632</ele>
        <time>2018-05-06T10:26:20Z</time>
      </trkpt>
      <trkpt lat="44.56877" lon="2.35422">
        <ele>633</ele>
        <time>2018-05-06T10:27:12Z</time>
      </trkpt>
      <trkpt lat="44.56883" lon="2.35401">
        <ele>633</ele>
        <time>2018-05-06T10:27:24Z</time>
      </trkpt>
      <trkpt lat="44.56886" lon="2.35373">
        <ele>635</ele>
        <time>2018-05-06T10:27:41Z</time>
      </trkpt>
      <trkpt lat="44.56895" lon="2.35342">
        <ele>635</ele>
        <time>2018-05-06T10:28:01Z</time>
      </trkpt>
      <trkpt lat="44.56894" lon="2.35335">
        <ele>635</ele>
        <time>2018-05-06T10:28:06Z</time>
      </trkpt>
      <trkpt lat="44.56895" lon="2.35328">
        <ele>635</ele>
        <time>2018-05-06T10:28:10Z</time>
      </trkpt>
      <trkpt lat="44.56943" lon="2.3517">
        <ele>633</ele>
        <time>2018-05-06T10:29:46Z</time>
      </trkpt>
      <trkpt lat="44.56966" lon="2.35124">
        <ele>631</ele>
        <time>2018-05-06T10:30:18Z</time>
      </trkpt>
      <trkpt lat="44.56996" lon="2.3508">
        <ele>627</ele>
        <time>2018-05-06T10:30:50Z</time>
      </trkpt>
      <trkpt lat="44.57011" lon="2.35049">
        <ele>625</ele>
        <time>2018-05-06T10:31:10Z</time>
      </trkpt>
      <trkpt lat="44.57017" lon="2.35029">
        <ele>625</ele>
        <time>2018-05-06T10:31:22Z</time>
      </trkpt>
      <trkpt lat="44.57021" lon="2.35018">
        <ele>625</ele>
        <time>2018-05-06T10:32:08Z</time>
      </trkpt>
      <trkpt lat="44.5702" lon="2.35003">
        <ele>624</ele>
        <time>2018-05-06T10:32:17Z</time>
      </trkpt>
      <trkpt lat="44.57018" lon="2.34993">
        <ele>624</ele>
        <time>2018-05-06T10:32:31Z</time>
      </trkpt>
      <trkpt lat="44.57008" lon="2.34958">
        <ele>621</ele>
        <time>2018-05-06T10:32:54Z</time>
      </trkpt>
      <trkpt lat="44.57002" lon="2.34944">
        <ele>620</ele>
        <time>2018-05-06T10:33:02Z</time>
      </trkpt>
      <trkpt lat="44.56998" lon="2.3493">
        <ele>619</ele>
        <time>2018-05-06T10:33:10Z</time>
      </trkpt>
      <trkpt lat="44.56991" lon="2.34918">
        <ele>618</ele>
        <time>2018-05-06T10:33:18Z</time>
      </trkpt>
      <trkpt lat="44.5699" lon="2.34912">
        <ele>618</ele>
        <time>2018-05-06T10:33:21Z</time>
      </trkpt>
      <trkpt lat="44.5699" lon="2.34904">
        <ele>618</ele>
        <time>2018-05-06T10:33:26Z</time>
      </trkpt>
      <trkpt lat="44.56982" lon="2.34877">
        <ele>618</ele>
        <time>2018-05-06T10:33:43Z</time>
      </trkpt>
      <trkpt lat="44.5697" lon="2.34848">
        <ele>619</ele>
        <time>2018-05-06T10:34:29Z</time>
      </trkpt>
      <trkpt lat="44.56965" lon="2.34841">
        <ele>619</ele>
        <time>2018-05-06T10:34:44Z</time>
      </trkpt>
      <trkpt lat="44.5696" lon="2.34829">
        <ele>619</ele>
        <time>2018-05-06T10:34:53Z</time>
      </trkpt>
      <trkpt lat="44.56956" lon="2.34825">
        <ele>620</ele>
        <time>2018-05-06T10:34:57Z</time>
      </trkpt>
      <trkpt lat="44.56949" lon="2.34806">
        <ele>620</ele>
        <time>2018-05-06T10:35:09Z</time>
      </trkpt>
      <trkpt lat="44.56947" lon="2.348">
        <ele>620</ele>
        <time>2018-05-06T10:35:13Z</time>
      </trkpt>
      <trkpt lat="44.56931" lon="2.34763">
        <ele>620</ele>
        <time>2018-05-06T10:35:37Z</time>
      </trkpt>
      <trkpt lat="44.56915" lon="2.34745">
        <ele>620</ele>
        <time>2018-05-06T10:35:53Z</time>
      </trkpt>
      <trkpt lat="44.56912" lon="2.34741">
        <ele>620</ele>
        <time>2018-05-06T10:35:57Z</time>
      </trkpt>
      <trkpt lat="44.56896" lon="2.34712">
        <ele>623</ele>
        <time>2018-05-06T10:37:24Z</time>
      </trkpt>
      <trkpt lat="44.56889" lon="2.34702">
        <ele>623</ele>
        <time>2018-05-06T10:37:33Z</time>
      </trkpt>
      <trkpt lat="44.56856" lon="2.34629">
        <ele>617</ele>
        <time>2018-05-06T10:38:21Z</time>
      </trkpt>
      <trkpt lat="44.56847" lon="2.34565">
        <ele>611</ele>
        <time>2018-05-06T10:39:04Z</time>
      </trkpt>
      <trkpt lat="44.56844" lon="2.34557">
        <ele>610</ele>
        <time>2018-05-06T10:39:16Z</time>
      </trkpt>
      <trkpt lat="44.56844" lon="2.3455">
        <ele>609</ele>
        <time>2018-05-06T10:39:20Z</time>
      </trkpt>
      <trkpt lat="44.56842" lon="2.34544">
        <ele>608</ele>
        <time>2018-05-06T10:39:24Z</time>
      </trkpt>
      <trkpt lat="44.56817" lon="2.34507">
        <ele>604</ele>
        <time>2018-05-06T10:40:01Z</time>
      </trkpt>
      <trkpt lat="44.56747" lon="2.34433">
        <ele>602</ele>
        <time>2018-05-06T10:41:15Z</time>
      </trkpt>
      <trkpt lat="44.56726" lon="2.34375">
        <ele>602</ele>
        <time>2018-05-06T10:41:51Z</time>
      </trkpt>
      <trkpt lat="44.56721" lon="2.34247">
        <ele>606</ele>
        <time>2018-05-06T10:43:01Z</time>
      </trkpt>
      <trkpt lat="44.56712" lon="2.34191">
        <ele>607</ele>
        <time>2018-05-06T10:43:33Z</time>
      </trkpt>
      <trkpt lat="44.56711" lon="2.34176">
        <ele>607</ele>
        <time>2018-05-06T10:43:41Z</time>
      </trkpt>
      <trkpt lat="44.56715" lon="2.34161">
        <ele>607</ele>
        <time>2018-05-06T10:43:50Z</time>
      </trkpt>
      <trkpt lat="44.56726" lon="2.34137">
        <ele>608</ele>
        <time>2018-05-06T10:44:07Z</time>
      </trkpt>
      <trkpt lat="44.56729" lon="2.34117">
        <ele>609</ele>
        <time>2018-05-06T10:44:19Z</time>
      </trkpt>
      <trkpt lat="44.56733" lon="2.34047">
        <ele>605</ele>
        <time>2018-05-06T10:46:02Z</time>
      </trkpt>
      <trkpt lat="44.56747" lon="2.33972">
        <ele>602</ele>
        <time>2018-05-06T10:46:46Z</time>
      </trkpt>
      <trkpt lat="44.56746" lon="2.33958">
        <ele>601</ele>
        <time>2018-05-06T10:46:54Z</time>
      </trkpt>
      <trkpt lat="44.56758" lon="2.33898">
        <ele>598</ele>
        <time>2018-05-06T10:47:31Z</time>
      </trkpt>
      <trkpt lat="44.56758" lon="2.33892">
        <ele>598</ele>
        <time>2018-05-06T10:47:35Z</time>
      </trkpt>
      <trkpt lat="44.56779" lon="2.33778">
        <ele>593</ele>
        <time>2018-05-06T10:48:40Z</time>
      </trkpt>
      <trkpt lat="44.56784" lon="2.33653">
        <ele>592</ele>
        <time>2018-05-06T10:49:43Z</time>
      </trkpt>
      <trkpt lat="44.56782" lon="2.33608">
        <ele>592</ele>
        <time>2018-05-06T10:50:05Z</time>
      </trkpt>
      <trkpt lat="44.56742" lon="2.33466">
        <ele>595</ele>
        <time>2018-05-06T10:51:23Z</time>
      </trkpt>
      <trkpt lat="44.56741" lon="2.3346">
        <ele>595</ele>
        <time>2018-05-06T10:51:28Z</time>
      </trkpt>
      <trkpt lat="44.56731" lon="2.33461">
        <ele>595</ele>
        <time>2018-05-06T10:51:59Z</time>
      </trkpt>
      <trkpt lat="44.56687" lon="2.33481">
        <ele>590</ele>
        <time>2018-05-06T10:52:35Z</time>
      </trkpt>
      <trkpt lat="44.56659" lon="2.33503">
        <ele>586</ele>
        <time>2018-05-06T10:53:11Z</time>
      </trkpt>
      <trkpt lat="44.56634" lon="2.33517">
        <ele>580</ele>
        <time>2018-05-06T10:53:29Z</time>
      </trkpt>
      <trkpt lat="44.5663" lon="2.33522">
        <ele>579</ele>
        <time>2018-05-06T10:53:34Z</time>
      </trkpt>
      <trkpt lat="44.56625" lon="2.33522">
        <ele>578</ele>
        <time>2018-05-06T10:53:38Z</time>
      </trkpt>
      <trkpt lat="44.56622" lon="2.33516">
        <ele>577</ele>
        <time>2018-05-06T10:53:42Z</time>
      </trkpt>
      <trkpt lat="44.56621" lon="2.33509">
        <ele>576</ele>
        <time>2018-05-06T10:53:45Z</time>
      </trkpt>
      <trkpt lat="44.56616" lon="2.33497">
        <ele>574</ele>
        <time>2018-05-06T10:53:51Z</time>
      </trkpt>
      <trkpt lat="44.56585" lon="2.33459">
        <ele>570</ele>
        <time>2018-05-06T10:54:20Z</time>
      </trkpt>
      <trkpt lat="44.56571" lon="2.33448">
        <ele>568</ele>
        <time>2018-05-06T10:54:32Z</time>
      </trkpt>
      <trkpt lat="44.56567" lon="2.33443">
        <ele>567</ele>
        <time>2018-05-06T10:54:37Z</time>
      </trkpt>
      <trkpt lat="44.5656" lon="2.33438">
        <ele>566</ele>
        <time>2018-05-06T10:54:53Z</time>
      </trkpt>
      <trkpt lat="44.56545" lon="2.33435">
        <ele>564</ele>
        <time>2018-05-06T10:55:06Z</time>
      </trkpt>
      <trkpt lat="44.56542" lon="2.33425">
        <ele>563</ele>
        <time>2018-05-06T10:55:42Z</time>
      </trkpt>
      <trkpt lat="44.56543" lon="2.33417">
        <ele>561</ele>
        <time>2018-05-06T10:55:46Z</time>
      </trkpt>
      <trkpt lat="44.56542" lon="2.3341">
        <ele>560</ele>
        <time>2018-05-06T10:55:50Z</time>
      </trkpt>
      <trkpt lat="44.56549" lon="2.33377">
        <ele>552</ele>
        <time>2018-05-06T10:56:12Z</time>
      </trkpt>
      <trkpt lat="44.56549" lon="2.3337">
        <ele>551</ele>
        <time>2018-05-06T10:56:16Z</time>
      </trkpt>
      <trkpt lat="44.56551" lon="2.33363">
        <ele>550</ele>
        <time>2018-05-06T10:56:20Z</time>
      </trkpt>
      <trkpt lat="44.56555" lon="2.33358">
        <ele>549</ele>
        <time>2018-05-06T10:56:23Z</time>
      </trkpt>
      <trkpt lat="44.56553" lon="2.3335">
        <ele>546</ele>
        <time>2018-05-06T10:56:35Z</time>
      </trkpt>
      <trkpt lat="44.56549" lon="2.33341">
        <ele>544</ele>
        <time>2018-05-06T10:56:45Z</time>
      </trkpt>
      <trkpt lat="44.56535" lon="2.33338">
        <ele>543</ele>
        <time>2018-05-06T10:56:54Z</time>
      </trkpt>
      <trkpt lat="44.56529" lon="2.33338">
        <ele>543</ele>
        <time>2018-05-06T10:56:58Z</time>
      </trkpt>
      <trkpt lat="44.56515" lon="2.33331">
        <ele>542</ele>
        <time>2018-05-06T10:57:09Z</time>
      </trkpt>
      <trkpt lat="44.56499" lon="2.33316">
        <ele>541</ele>
        <time>2018-05-06T10:57:22Z</time>
      </trkpt>
      <trkpt lat="44.56478" lon="2.33289">
        <ele>538</ele>
        <time>2018-05-06T10:57:44Z</time>
      </trkpt>
      <trkpt lat="44.56483" lon="2.33241">
        <ele>541</ele>
        <time>2018-05-06T10:58:18Z</time>
      </trkpt>
      <trkpt lat="44.56498" lon="2.33208">
        <ele>546</ele>
        <time>2018-05-06T10:58:41Z</time>
      </trkpt>
      <trkpt lat="44.56509" lon="2.33197">
        <ele>548</ele>
        <time>2018-05-06T10:59:11Z</time>
      </trkpt>
      <trkpt lat="44.56527" lon="2.33171">
        <ele>551</ele>
        <time>2018-05-06T10:59:32Z</time>
      </trkpt>
      <trkpt lat="44.56531" lon="2.33159">
        <ele>552</ele>
        <time>2018-05-06T10:59:41Z</time>
      </trkpt>
      <trkpt lat="44.5654" lon="2.33124">
        <ele>554</ele>
        <time>2018-05-06T11:00:06Z</time>
      </trkpt>
      <trkpt lat="44.56584" lon="2.33043">
        <ele>555</ele>
        <time>2018-05-06T11:01:23Z</time>
      </trkpt>
      <trkpt lat="44.56587" lon="2.33038">
        <ele>555</ele>
        <time>2018-05-06T11:01:27Z</time>
      </trkpt>
      <trkpt lat="44.56596" lon="2.33031">
        <ele>555</ele>
        <time>2018-05-06T11:01:35Z</time>
      </trkpt>
      <trkpt lat="44.56624" lon="2.33018">
        <ele>558</ele>
        <time>2018-05-06T11:02:01Z</time>
      </trkpt>
      <trkpt lat="44.56673" lon="2.32986">
        <ele>562</ele>
        <time>2018-05-06T11:02:50Z</time>
      </trkpt>
      <trkpt lat="44.56676" lon="2.32979">
        <ele>561</ele>
        <time>2018-05-06T11:03:10Z</time>
      </trkpt>
      <trkpt lat="44.5667" lon="2.32967">
        <ele>560</ele>
        <time>2018-05-06T11:04:23Z</time>
      </trkpt>
      <trkpt lat="44.56629" lon="2.32792">
        <ele>559</ele>
        <time>2018-05-06T11:06:05Z</time>
      </trkpt>
      <trkpt lat="44.56603" lon="2.32628">
        <ele>567</ele>
        <time>2018-05-06T11:07:51Z</time>
      </trkpt>
      <trkpt lat="44.56582" lon="2.32561">
        <ele>571</ele>
        <time>2018-05-06T11:08:38Z</time>
      </trkpt>
      <trkpt lat="44.56581" lon="2.32554">
        <ele>571</ele>
        <time>2018-05-06T11:08:43Z</time>
      </trkpt>
      <trkpt lat="44.56579" lon="2.32547">
        <ele>572</ele>
        <time>2018-05-06T11:08:58Z</time>
      </trkpt>
      <trkpt lat="44.56575" lon="2.32543">
        <ele>572</ele>
        <time>2018-05-06T11:09:16Z</time>
      </trkpt>
      <trkpt lat="44.56579" lon="2.32536">
        <ele>573</ele>
        <time>2018-05-06T11:10:48Z</time>
      </trkpt>
      <trkpt lat="44.56557" lon="2.32404">
        <ele>579</ele>
        <time>2018-05-06T11:12:06Z</time>
      </trkpt>
      <trkpt lat="44.5656" lon="2.32383">
        <ele>579</ele>
        <time>2018-05-06T11:12:20Z</time>
      </trkpt>
      <trkpt lat="44.56563" lon="2.32377">
        <ele>580</ele>
        <time>2018-05-06T11:12:25Z</time>
      </trkpt>
      <trkpt lat="44.5657" lon="2.32367">
        <ele>580</ele>
        <time>2018-05-06T11:12:33Z</time>
      </trkpt>
      <trkpt lat="44.56592" lon="2.32348">
        <ele>581</ele>
        <time>2018-05-06T11:12:53Z</time>
      </trkpt>
      <trkpt lat="44.56598" lon="2.32338">
        <ele>582</ele>
        <time>2018-05-06T11:13:01Z</time>
      </trkpt>
      <trkpt lat="44.566" lon="2.32324">
        <ele>582</ele>
        <time>2018-05-06T11:13:09Z</time>
      </trkpt>
      <trkpt lat="44.56597" lon="2.32267">
        <ele>583</ele>
        <time>2018-05-06T11:13:46Z</time>
      </trkpt>
      <trkpt lat="44.56599" lon="2.32253">
        <ele>583</ele>
        <time>2018-05-06T11:14:15Z</time>
      </trkpt>
      <trkpt lat="44.56599" lon="2.32233">
        <ele>583</ele>
        <time>2018-05-06T11:14:27Z</time>
      </trkpt>
      <trkpt lat="44.56633" lon="2.32005">
        <ele>583</ele>
        <time>2018-05-06T11:16:31Z</time>
      </trkpt>
      <trkpt lat="44.56645" lon="2.31972">
        <ele>582</ele>
        <time>2018-05-06T11:16:51Z</time>
      </trkpt>
      <trkpt lat="44.5666" lon="2.3195">
        <ele>581</ele>
        <time>2018-05-06T11:17:07Z</time>
      </trkpt>
      <trkpt lat="44.56724" lon="2.31908">
        <ele>579</ele>
        <time>2018-05-06T11:18:03Z</time>
      </trkpt>
      <trkpt lat="44.56751" lon="2.31885">
        <ele>577</ele>
        <time>2018-05-06T11:18:27Z</time>
      </trkpt>
      <trkpt lat="44.56807" lon="2.31802">
        <ele>575</ele>
        <time>2018-05-06T11:19:32Z</time>
      </trkpt>
      <trkpt lat="44.56819" lon="2.31789">
        <ele>575</ele>
        <time>2018-05-06T11:19:44Z</time>
      </trkpt>
      <trkpt lat="44.56823" lon="2.31786">
        <ele>575</ele>
        <time>2018-05-06T11:19:48Z</time>
      </trkpt>
      <trkpt lat="44.56843" lon="2.31782">
        <ele>576</ele>
        <time>2018-05-06T11:20:04Z</time>
      </trkpt>
      <trkpt lat="44.56884" lon="2.31785">
        <ele>576</ele>
        <time>2018-05-06T11:20:36Z</time>
      </trkpt>
      <trkpt lat="44.56923" lon="2.31785">
        <ele>575</ele>
        <time>2018-05-06T11:21:08Z</time>
      </trkpt>
      <trkpt lat="44.56935" lon="2.31783">
        <ele>575</ele>
        <time>2018-05-06T11:21:29Z</time>
      </trkpt>
      <trkpt lat="44.5695" lon="2.31776">
        <ele>574</ele>
        <time>2018-05-06T11:21:41Z</time>
      </trkpt>
      <trkpt lat="44.56954" lon="2.31771">
        <ele>574</ele>
        <time>2018-05-06T11:21:45Z</time>
      </trkpt>
      <trkpt lat="44.56956" lon="2.31765">
        <ele>575</ele>
        <time>2018-05-06T11:21:49Z</time>
      </trkpt>
      <trkpt lat="44.56959" lon="2.31753">
        <ele>574</ele>
        <time>2018-05-06T11:21:57Z</time>
      </trkpt>
      <trkpt lat="44.56958" lon="2.31732">
        <ele>574</ele>
        <time>2018-05-06T11:22:09Z</time>
      </trkpt>
      <trkpt lat="44.56951" lon="2.3173">
        <ele>574</ele>
        <time>2018-05-06T11:22:33Z</time>
      </trkpt>
      <trkpt lat="44.56914" lon="2.31708">
        <ele>572</ele>
        <time>2018-05-06T11:23:05Z</time>
      </trkpt>
      <trkpt lat="44.56897" lon="2.31695">
        <ele>571</ele>
        <time>2018-05-06T11:23:21Z</time>
      </trkpt>
      <trkpt lat="44.5689" lon="2.31686">
        <ele>570</ele>
        <time>2018-05-06T11:23:29Z</time>
      </trkpt>
      <trkpt lat="44.5688" lon="2.31661">
        <ele>568</ele>
        <time>2018-05-06T11:23:45Z</time>
      </trkpt>
      <trkpt lat="44.56843" lon="2.31481">
        <ele>561</ele>
        <time>2018-05-06T11:25:38Z</time>
      </trkpt>
      <trkpt lat="44.56802" lon="2.31408">
        <ele>557</ele>
        <time>2018-05-06T11:26:30Z</time>
      </trkpt>
      <trkpt lat="44.56779" lon="2.31329">
        <ele>557</ele>
        <time>2018-05-06T11:27:18Z</time>
      </trkpt>
      <trkpt lat="44.56768" lon="2.31203">
        <ele>559</ele>
        <time>2018-05-06T11:28:31Z</time>
      </trkpt>
      <trkpt lat="44.56769" lon="2.31191">
        <ele>560</ele>
        <time>2018-05-06T11:29:07Z</time>
      </trkpt>
      <trkpt lat="44.56776" lon="2.31172">
        <ele>561</ele>
        <time>2018-05-06T11:29:19Z</time>
      </trkpt>
      <trkpt lat="44.56784" lon="2.31109">
        <ele>564</ele>
        <time>2018-05-06T11:30:01Z</time>
      </trkpt>
      <trkpt lat="44.56787" lon="2.31104">
        <ele>563</ele>
        <time>2018-05-06T11:30:09Z</time>
      </trkpt>
      <trkpt lat="44.56788" lon="2.31097">
        <ele>563</ele>
        <time>2018-05-06T11:30:14Z</time>
      </trkpt>
      <trkpt lat="44.56792" lon="2.31043">
        <ele>558</ele>
        <time>2018-05-06T11:30:52Z</time>
      </trkpt>
      <trkpt lat="44.56787" lon="2.31023">
        <ele>556</ele>
        <time>2018-05-06T11:31:03Z</time>
      </trkpt>
      <trkpt lat="44.56783" lon="2.31015">
        <ele>555</ele>
        <time>2018-05-06T11:31:08Z</time>
      </trkpt>
      <trkpt lat="44.56765" lon="2.30957">
        <ele>551</ele>
        <time>2018-05-06T11:31:41Z</time>
      </trkpt>
      <trkpt lat="44.56762" lon="2.30926">
        <ele>550</ele>
        <time>2018-05-06T11:32:00Z</time>
      </trkpt>
      <trkpt lat="44.56764" lon="2.30901">
        <ele>548</ele>
        <time>2018-05-06T11:32:26Z</time>
      </trkpt>
      <trkpt lat="44.56762" lon="2.30887">
        <ele>548</ele>
        <time>2018-05-06T11:32:39Z</time>
      </trkpt>
      <trkpt lat="44.56765" lon="2.30846">
        <ele>545</ele>
        <time>2018-05-06T11:33:03Z</time>
      </trkpt>
      <trkpt lat="44.56767" lon="2.30839">
        <ele>544</ele>
        <time>2018-05-06T11:33:08Z</time>
      </trkpt>
      <trkpt lat="44.56765" lon="2.30832">
        <ele>543</ele>
        <time>2018-05-06T11:33:12Z</time>
      </trkpt>
      <trkpt lat="44.56762" lon="2.30811">
        <ele>540</ele>
        <time>2018-05-06T11:33:29Z</time>
      </trkpt>
      <trkpt lat="44.5676" lon="2.30806">
        <ele>540</ele>
        <time>2018-05-06T11:33:34Z</time>
      </trkpt>
      <trkpt lat="44.5676" lon="2.30797">
        <ele>539</ele>
        <time>2018-05-06T11:33:40Z</time>
      </trkpt>
      <trkpt lat="44.56779" lon="2.30773">
        <ele>536</ele>
        <time>2018-05-06T11:33:59Z</time>
      </trkpt>
      <trkpt lat="44.56784" lon="2.3076">
        <ele>536</ele>
        <time>2018-05-06T11:34:08Z</time>
      </trkpt>
      <trkpt lat="44.56787" lon="2.30747">
        <ele>535</ele>
        <time>2018-05-06T11:34:17Z</time>
      </trkpt>
      <trkpt lat="44.56792" lon="2.30746">
        <ele>535</ele>
        <time>2018-05-06T11:34:22Z</time>
      </trkpt>
      <trkpt lat="44.56803" lon="2.30751">
        <ele>536</ele>
        <time>2018-05-06T11:34:35Z</time>
      </trkpt>
      <trkpt lat="44.56807" lon="2.30756">
        <ele>536</ele>
        <time>2018-05-06T11:34:41Z</time>
      </trkpt>
      <trkpt lat="44.56807" lon="2.30763">
        <ele>537</ele>
        <time>2018-05-06T11:34:59Z</time>
      </trkpt>
      <trkpt lat="44.56806" lon="2.30762">
        <ele>537</ele>
        <time>2018-05-06T11:36:53Z</time>
      </trkpt>
      <trkpt lat="44.56812" lon="2.30764">
        <ele>536</ele>
        <time>2018-05-06T11:37:35Z</time>
      </trkpt>
      <trkpt lat="44.5682" lon="2.30768">
        <ele>537</ele>
        <time>2018-05-06T11:38:25Z</time>
      </trkpt>
      <trkpt lat="44.56814" lon="2.30757">
        <ele>537</ele>
        <time>2018-05-06T11:38:34Z</time>
      </trkpt>
      <trkpt lat="44.5681" lon="2.30763">
        <ele>537</ele>
        <time>2018-05-06T11:38:47Z</time>
      </trkpt>
      <trkpt lat="44.56805" lon="2.30765">
        <ele>537</ele>
        <time>2018-05-06T11:38:52Z</time>
      </trkpt>
      <trkpt lat="44.56801" lon="2.3077">
        <ele>537</ele>
        <time>2018-05-06T11:40:08Z</time>
      </trkpt>
      <trkpt lat="44.56805" lon="2.30759">
        <ele>537</ele>
        <time>2018-05-06T11:42:24Z</time>
      </trkpt>
      <trkpt lat="44.5681" lon="2.30759">
        <ele>537</ele>
        <time>2018-05-06T11:42:54Z</time>
      </trkpt>
      <trkpt lat="44.5681" lon="2.30765">
        <ele>536</ele>
        <time>2018-05-06T12:10:09Z</time>
      </trkpt>
      <trkpt lat="44.56808" lon="2.30759">
        <ele>536</ele>
        <time>2018-05-06T12:15:13Z</time>
      </trkpt>
      <trkpt lat="44.56804" lon="2.30755">
        <ele>536</ele>
        <time>2018-05-06T12:15:17Z</time>
      </trkpt>
      <trkpt lat="44.56799" lon="2.30754">
        <ele>536</ele>
        <time>2018-05-06T12:15:27Z</time>
      </trkpt>
      <trkpt lat="44.56795" lon="2.30752">
        <ele>535</ele>
        <time>2018-05-06T12:15:32Z</time>
      </trkpt>
      <trkpt lat="44.56782" lon="2.30746">
        <ele>536</ele>
        <time>2018-05-06T12:15:50Z</time>
      </trkpt>
      <trkpt lat="44.56773" lon="2.30744">
        <ele>535</ele>
        <time>2018-05-06T12:16:00Z</time>
      </trkpt>
      <trkpt lat="44.56741" lon="2.30753">
        <ele>533</ele>
        <time>2018-05-06T12:16:25Z</time>
      </trkpt>
      <trkpt lat="44.56736" lon="2.30753">
        <ele>533</ele>
        <time>2018-05-06T12:16:29Z</time>
      </trkpt>
      <trkpt lat="44.56732" lon="2.30752">
        <ele>533</ele>
        <time>2018-05-06T12:16:38Z</time>
      </trkpt>
      <trkpt lat="44.56705" lon="2.30752">
        <ele>534</ele>
        <time>2018-05-06T12:17:04Z</time>
      </trkpt>
      <trkpt lat="44.56701" lon="2.3075">
        <ele>534</ele>
        <time>2018-05-06T12:17:08Z</time>
      </trkpt>
      <trkpt lat="44.56696" lon="2.30745">
        <ele>534</ele>
        <time>2018-05-06T12:17:19Z</time>
      </trkpt>
      <trkpt lat="44.56694" lon="2.3074">
        <ele>534</ele>
        <time>2018-05-06T12:17:23Z</time>
      </trkpt>
      <trkpt lat="44.56692" lon="2.30734">
        <ele>534</ele>
        <time>2018-05-06T12:17:27Z</time>
      </trkpt>
      <trkpt lat="44.5669" lon="2.3072">
        <ele>534</ele>
        <time>2018-05-06T12:17:35Z</time>
      </trkpt>
      <trkpt lat="44.56685" lon="2.30701">
        <ele>534</ele>
        <time>2018-05-06T12:17:47Z</time>
      </trkpt>
      <trkpt lat="44.56684" lon="2.30687">
        <ele>535</ele>
        <time>2018-05-06T12:17:55Z</time>
      </trkpt>
      <trkpt lat="44.56679" lon="2.30667">
        <ele>535</ele>
        <time>2018-05-06T12:18:10Z</time>
      </trkpt>
      <trkpt lat="44.56674" lon="2.30655">
        <ele>536</ele>
        <time>2018-05-06T12:18:19Z</time>
      </trkpt>
      <trkpt lat="44.5667" lon="2.30639">
        <ele>536</ele>
        <time>2018-05-06T12:18:31Z</time>
      </trkpt>
      <trkpt lat="44.56668" lon="2.30624">
        <ele>537</ele>
        <time>2018-05-06T12:18:39Z</time>
      </trkpt>
      <trkpt lat="44.56666" lon="2.30617">
        <ele>537</ele>
        <time>2018-05-06T12:18:43Z</time>
      </trkpt>
      <trkpt lat="44.56663" lon="2.30611">
        <ele>537</ele>
        <time>2018-05-06T12:18:47Z</time>
      </trkpt>
      <trkpt lat="44.56661" lon="2.30601">
        <ele>537</ele>
        <time>2018-05-06T12:18:57Z</time>
      </trkpt>
      <trkpt lat="44.56654" lon="2.30598">
        <ele>537</ele>
        <time>2018-05-06T12:19:11Z</time>
      </trkpt>
      <trkpt lat="44.56651" lon="2.30599">
        <ele>535</ele>
        <time>2018-05-06T12:24:43Z</time>
      </trkpt>
      <trkpt lat="44.56652" lon="2.30591">
        <ele>535</ele>
        <time>2018-05-06T12:24:47Z</time>
      </trkpt>
      <trkpt lat="44.56605" lon="2.30276">
        <ele>525</ele>
        <time>2018-05-06T12:27:57Z</time>
      </trkpt>
      <trkpt lat="44.56629" lon="2.30107">
        <ele>514</ele>
        <time>2018-05-06T12:29:34Z</time>
      </trkpt>
      <trkpt lat="44.5667" lon="2.29943">
        <ele>503</ele>
        <time>2018-05-06T12:31:10Z</time>
      </trkpt>
      <trkpt lat="44.5667" lon="2.29929">
        <ele>502</ele>
        <time>2018-05-06T12:31:18Z</time>
      </trkpt>
      <trkpt lat="44.56659" lon="2.29876">
        <ele>500</ele>
        <time>2018-05-06T12:31:51Z</time>
      </trkpt>
      <trkpt lat="44.56658" lon="2.29854">
        <ele>499</ele>
        <time>2018-05-06T12:32:03Z</time>
      </trkpt>
      <trkpt lat="44.56659" lon="2.2984">
        <ele>498</ele>
        <time>2018-05-06T12:32:11Z</time>
      </trkpt>
      <trkpt lat="44.56666" lon="2.2982">
        <ele>497</ele>
        <time>2018-05-06T12:32:23Z</time>
      </trkpt>
      <trkpt lat="44.56747" lon="2.29635">
        <ele>483</ele>
        <time>2018-05-06T12:34:42Z</time>
      </trkpt>
      <trkpt lat="44.56749" lon="2.29628">
        <ele>483</ele>
        <time>2018-05-06T12:34:46Z</time>
      </trkpt>
      <trkpt lat="44.56749" lon="2.29606">
        <ele>482</ele>
        <time>2018-05-06T12:34:58Z</time>
      </trkpt>
      <trkpt lat="44.56754" lon="2.29586">
        <ele>481</ele>
        <time>2018-05-06T12:35:10Z</time>
      </trkpt>
      <trkpt lat="44.56769" lon="2.29415">
        <ele>480</ele>
        <time>2018-05-06T12:37:03Z</time>
      </trkpt>
      <trkpt lat="44.56843" lon="2.29202">
        <ele>475</ele>
        <time>2018-05-06T12:39:15Z</time>
      </trkpt>
      <trkpt lat="44.5685" lon="2.29099">
        <ele>471</ele>
        <time>2018-05-06T12:40:17Z</time>
      </trkpt>
      <trkpt lat="44.56856" lon="2.29069">
        <ele>469</ele>
        <time>2018-05-06T12:40:37Z</time>
      </trkpt>
      <trkpt lat="44.56865" lon="2.29043">
        <ele>468</ele>
        <time>2018-05-06T12:40:53Z</time>
      </trkpt>
      <trkpt lat="44.56873" lon="2.29025">
        <ele>466</ele>
        <time>2018-05-06T12:41:05Z</time>
      </trkpt>
      <trkpt lat="44.56877" lon="2.29021">
        <ele>466</ele>
        <time>2018-05-06T12:41:09Z</time>
      </trkpt>
      <trkpt lat="44.56881" lon="2.29008">
        <ele>465</ele>
        <time>2018-05-06T12:41:17Z</time>
      </trkpt>
      <trkpt lat="44.56907" lon="2.28896">
        <ele>457</ele>
        <time>2018-05-06T12:42:55Z</time>
      </trkpt>
      <trkpt lat="44.56915" lon="2.28836">
        <ele>453</ele>
        <time>2018-05-06T12:43:27Z</time>
      </trkpt>
      <trkpt lat="44.56906" lon="2.28796">
        <ele>451</ele>
        <time>2018-05-06T12:43:51Z</time>
      </trkpt>
      <trkpt lat="44.56886" lon="2.28748">
        <ele>446</ele>
        <time>2018-05-06T12:44:23Z</time>
      </trkpt>
      <trkpt lat="44.56873" lon="2.28727">
        <ele>444</ele>
        <time>2018-05-06T12:44:39Z</time>
      </trkpt>
      <trkpt lat="44.56847" lon="2.28701">
        <ele>442</ele>
        <time>2018-05-06T12:45:03Z</time>
      </trkpt>
      <trkpt lat="44.56841" lon="2.2869">
        <ele>441</ele>
        <time>2018-05-06T12:45:11Z</time>
      </trkpt>
      <trkpt lat="44.56823" lon="2.28632">
        <ele>439</ele>
        <time>2018-05-06T12:45:47Z</time>
      </trkpt>
      <trkpt lat="44.56823" lon="2.28568">
        <ele>438</ele>
        <time>2018-05-06T12:46:28Z</time>
      </trkpt>
      <trkpt lat="44.56834" lon="2.28494">
        <ele>436</ele>
        <time>2018-05-06T12:47:12Z</time>
      </trkpt>
      <trkpt lat="44.56837" lon="2.28488">
        <ele>435</ele>
        <time>2018-05-06T12:47:17Z</time>
      </trkpt>
      <trkpt lat="44.5684" lon="2.28483">
        <ele>435</ele>
        <time>2018-05-06T12:47:21Z</time>
      </trkpt>
      <trkpt lat="44.5687" lon="2.28334">
        <ele>431</ele>
        <time>2018-05-06T12:48:53Z</time>
      </trkpt>
      <trkpt lat="44.56869" lon="2.2832">
        <ele>432</ele>
        <time>2018-05-06T12:49:02Z</time>
      </trkpt>
      <trkpt lat="44.56884" lon="2.28252">
        <ele>432</ele>
        <time>2018-05-06T12:50:00Z</time>
      </trkpt>
      <trkpt lat="44.56891" lon="2.28233">
        <ele>432</ele>
        <time>2018-05-06T12:50:12Z</time>
      </trkpt>
      <trkpt lat="44.56909" lon="2.28201">
        <ele>432</ele>
        <time>2018-05-06T12:50:38Z</time>
      </trkpt>
      <trkpt lat="44.56952" lon="2.2814">
        <ele>432</ele>
        <time>2018-05-06T12:51:27Z</time>
      </trkpt>
      <trkpt lat="44.56956" lon="2.28137">
        <ele>432</ele>
        <time>2018-05-06T12:51:31Z</time>
      </trkpt>
      <trkpt lat="44.56962" lon="2.28122">
        <ele>431</ele>
        <time>2018-05-06T12:51:43Z</time>
      </trkpt>
      <trkpt lat="44.56979" lon="2.28095">
        <ele>430</ele>
        <time>2018-05-06T12:52:03Z</time>
      </trkpt>
      <trkpt lat="44.56997" lon="2.2805">
        <ele>427</ele>
        <time>2018-05-06T12:52:32Z</time>
      </trkpt>
      <trkpt lat="44.57027" lon="2.27923">
        <ele>415</ele>
        <time>2018-05-06T12:53:50Z</time>
      </trkpt>
      <trkpt lat="44.57034" lon="2.27904">
        <ele>414</ele>
        <time>2018-05-06T12:54:02Z</time>
      </trkpt>
      <trkpt lat="44.57093" lon="2.27803">
        <ele>406</ele>
        <time>2018-05-06T12:55:21Z</time>
      </trkpt>
      <trkpt lat="44.57097" lon="2.27798">
        <ele>406</ele>
        <time>2018-05-06T12:55:25Z</time>
      </trkpt>
      <trkpt lat="44.57102" lon="2.27794">
        <ele>406</ele>
        <time>2018-05-06T12:55:32Z</time>
      </trkpt>
      <trkpt lat="44.57167" lon="2.27681">
        <ele>401</ele>
        <time>2018-05-06T12:56:55Z</time>
      </trkpt>
      <trkpt lat="44.57176" lon="2.27653">
        <ele>400</ele>
        <time>2018-05-06T12:57:12Z</time>
      </trkpt>
      <trkpt lat="44.57199" lon="2.27607">
        <ele>399</ele>
        <time>2018-05-06T12:57:46Z</time>
      </trkpt>
      <trkpt lat="44.57214" lon="2.27588">
        <ele>398</ele>
        <time>2018-05-06T12:58:02Z</time>
      </trkpt>
      <trkpt lat="44.57218" lon="2.27582">
        <ele>398</ele>
        <time>2018-05-06T12:58:06Z</time>
      </trkpt>
      <trkpt lat="44.57233" lon="2.27562">
        <ele>396</ele>
        <time>2018-05-06T12:58:22Z</time>
      </trkpt>
      <trkpt lat="44.57268" lon="2.27498">
        <ele>394</ele>
        <time>2018-05-06T12:59:07Z</time>
      </trkpt>
      <trkpt lat="44.57315" lon="2.27377">
        <ele>390</ele>
        <time>2018-05-06T13:00:27Z</time>
      </trkpt>
      <trkpt lat="44.57328" lon="2.27354">
        <ele>388</ele>
        <time>2018-05-06T13:00:43Z</time>
      </trkpt>
      <trkpt lat="44.57347" lon="2.2733">
        <ele>387</ele>
        <time>2018-05-06T13:01:03Z</time>
      </trkpt>
      <trkpt lat="44.57372" lon="2.27312">
        <ele>385</ele>
        <time>2018-05-06T13:01:27Z</time>
      </trkpt>
      <trkpt lat="44.57379" lon="2.27304">
        <ele>384</ele>
        <time>2018-05-06T13:01:35Z</time>
      </trkpt>
      <trkpt lat="44.57392" lon="2.27294">
        <ele>383</ele>
        <time>2018-05-06T13:01:47Z</time>
      </trkpt>
      <trkpt lat="44.57398" lon="2.27283">
        <ele>382</ele>
        <time>2018-05-06T13:01:55Z</time>
      </trkpt>
      <trkpt lat="44.57407" lon="2.27258">
        <ele>381</ele>
        <time>2018-05-06T13:02:12Z</time>
      </trkpt>
      <trkpt lat="44.57419" lon="2.2721">
        <ele>379</ele>
        <time>2018-05-06T13:02:43Z</time>
      </trkpt>
      <trkpt lat="44.57423" lon="2.27156">
        <ele>377</ele>
        <time>2018-05-06T13:03:16Z</time>
      </trkpt>
      <trkpt lat="44.5743" lon="2.2713">
        <ele>376</ele>
        <time>2018-05-06T13:03:35Z</time>
      </trkpt>
      <trkpt lat="44.57438" lon="2.27111">
        <ele>375</ele>
        <time>2018-05-06T13:03:49Z</time>
      </trkpt>
      <trkpt lat="44.57473" lon="2.271">
        <ele>374</ele>
        <time>2018-05-06T13:04:33Z</time>
      </trkpt>
      <trkpt lat="44.57478" lon="2.27102">
        <ele>374</ele>
        <time>2018-05-06T13:04:37Z</time>
      </trkpt>
      <trkpt lat="44.57484" lon="2.27107">
        <ele>374</ele>
        <time>2018-05-06T13:04:46Z</time>
      </trkpt>
      <trkpt lat="44.57482" lon="2.27103">
        <ele>374</ele>
        <time>2018-05-06T13:15:16Z</time>
      </trkpt>
      <trkpt lat="44.57473" lon="2.271">
        <ele>374</ele>
        <time>2018-05-06T13:15:45Z</time>
      </trkpt>
      <trkpt lat="44.57465" lon="2.27092">
        <ele>374</ele>
        <time>2018-05-06T13:16:22Z</time>
      </trkpt>
      <trkpt lat="44.57457" lon="2.27082">
        <ele>374</ele>
        <time>2018-05-06T13:16:31Z</time>
      </trkpt>
      <trkpt lat="44.57446" lon="2.27076">
        <ele>373</ele>
        <time>2018-05-06T13:16:43Z</time>
      </trkpt>
      <trkpt lat="44.5744" lon="2.27075">
        <ele>372</ele>
        <time>2018-05-06T13:16:50Z</time>
      </trkpt>
      <trkpt lat="44.57436" lon="2.27069">
        <ele>372</ele>
        <time>2018-05-06T13:16:55Z</time>
      </trkpt>
      <trkpt lat="44.57436" lon="2.27047">
        <ele>370</ele>
        <time>2018-05-06T13:17:08Z</time>
      </trkpt>
      <trkpt lat="44.5744" lon="2.27034">
        <ele>369</ele>
        <time>2018-05-06T13:17:16Z</time>
      </trkpt>
      <trkpt lat="44.57441" lon="2.27028">
        <ele>369</ele>
        <time>2018-05-06T13:17:20Z</time>
      </trkpt>
      <trkpt lat="44.57443" lon="2.27021">
        <ele>369</ele>
        <time>2018-05-06T13:17:24Z</time>
      </trkpt>
      <trkpt lat="44.57448" lon="2.27017">
        <ele>368</ele>
        <time>2018-05-06T13:17:28Z</time>
      </trkpt>
      <trkpt lat="44.57462" lon="2.26987">
        <ele>366</ele>
        <time>2018-05-06T13:17:50Z</time>
      </trkpt>
      <trkpt lat="44.57479" lon="2.26961">
        <ele>364</ele>
        <time>2018-05-06T13:18:10Z</time>
      </trkpt>
      <trkpt lat="44.5749" lon="2.26952">
        <ele>364</ele>
        <time>2018-05-06T13:18:29Z</time>
      </trkpt>
      <trkpt lat="44.57508" lon="2.26925">
        <ele>364</ele>
        <time>2018-05-06T13:18:49Z</time>
      </trkpt>
      <trkpt lat="44.57512" lon="2.26921">
        <ele>364</ele>
        <time>2018-05-06T13:18:53Z</time>
      </trkpt>
      <trkpt lat="44.57526" lon="2.269">
        <ele>363</ele>
        <time>2018-05-06T13:19:10Z</time>
      </trkpt>
      <trkpt lat="44.57529" lon="2.26892">
        <ele>363</ele>
        <time>2018-05-06T13:19:17Z</time>
      </trkpt>
      <trkpt lat="44.57537" lon="2.2688">
        <ele>363</ele>
        <time>2018-05-06T13:19:29Z</time>
      </trkpt>
      <trkpt lat="44.57541" lon="2.26882">
        <ele>363</ele>
        <time>2018-05-06T13:19:34Z</time>
      </trkpt>
      <trkpt lat="44.57545" lon="2.26874">
        <ele>364</ele>
        <time>2018-05-06T13:20:22Z</time>
      </trkpt>
      <trkpt lat="44.57547" lon="2.26867">
        <ele>364</ele>
        <time>2018-05-06T13:20:27Z</time>
      </trkpt>
      <trkpt lat="44.57549" lon="2.2686">
        <ele>363</ele>
        <time>2018-05-06T13:20:32Z</time>
      </trkpt>
      <trkpt lat="44.57553" lon="2.26855">
        <ele>363</ele>
        <time>2018-05-06T13:20:37Z</time>
      </trkpt>
      <trkpt lat="44.57574" lon="2.26816">
        <ele>363</ele>
        <time>2018-05-06T13:21:07Z</time>
      </trkpt>
      <trkpt lat="44.57577" lon="2.26803">
        <ele>363</ele>
        <time>2018-05-06T13:21:15Z</time>
      </trkpt>
      <trkpt lat="44.57577" lon="2.26701">
        <ele>359</ele>
        <time>2018-05-06T13:22:09Z</time>
      </trkpt>
      <trkpt lat="44.57572" lon="2.26674">
        <ele>358</ele>
        <time>2018-05-06T13:22:25Z</time>
      </trkpt>
      <trkpt lat="44.57521" lon="2.26524">
        <ele>352</ele>
        <time>2018-05-06T13:24:03Z</time>
      </trkpt>
      <trkpt lat="44.57518" lon="2.26453">
        <ele>348</ele>
        <time>2018-05-06T13:24:43Z</time>
      </trkpt>
      <trkpt lat="44.57517" lon="2.26446">
        <ele>347</ele>
        <time>2018-05-06T13:24:47Z</time>
      </trkpt>
      <trkpt lat="44.57518" lon="2.26409">
        <ele>346</ele>
        <time>2018-05-06T13:25:07Z</time>
      </trkpt>
      <trkpt lat="44.57523" lon="2.26386">
        <ele>344</ele>
        <time>2018-05-06T13:25:41Z</time>
      </trkpt>
      <trkpt lat="44.57524" lon="2.26372">
        <ele>343</ele>
        <time>2018-05-06T13:25:49Z</time>
      </trkpt>
      <trkpt lat="44.57424" lon="2.26018">
        <ele>338</ele>
        <time>2018-05-06T13:29:54Z</time>
      </trkpt>
      <trkpt lat="44.57424" lon="2.26011">
        <ele>338</ele>
        <time>2018-05-06T13:29:58Z</time>
      </trkpt>
      <trkpt lat="44.57421" lon="2.25999">
        <ele>339</ele>
        <time>2018-05-06T13:30:06Z</time>
      </trkpt>
      <trkpt lat="44.5741" lon="2.25887">
        <ele>344</ele>
        <time>2018-05-06T13:31:17Z</time>
      </trkpt>
      <trkpt lat="44.57407" lon="2.25877">
        <ele>345</ele>
        <time>2018-05-06T13:31:24Z</time>
      </trkpt>
      <trkpt lat="44.57407" lon="2.25848">
        <ele>345</ele>
        <time>2018-05-06T13:31:41Z</time>
      </trkpt>
      <trkpt lat="44.57404" lon="2.25828">
        <ele>346</ele>
        <time>2018-05-06T13:31:54Z</time>
      </trkpt>
      <trkpt lat="44.57405" lon="2.25822">
        <ele>346</ele>
        <time>2018-05-06T13:31:58Z</time>
      </trkpt>
      <trkpt lat="44.57405" lon="2.25807">
        <ele>346</ele>
        <time>2018-05-06T13:32:21Z</time>
      </trkpt>
      <trkpt lat="44.57415" lon="2.25762">
        <ele>346</ele>
        <time>2018-05-06T13:32:53Z</time>
      </trkpt>
      <trkpt lat="44.57444" lon="2.25712">
        <ele>344</ele>
        <time>2018-05-06T13:33:37Z</time>
      </trkpt>
      <trkpt lat="44.57447" lon="2.25706">
        <ele>343</ele>
        <time>2018-05-06T13:33:42Z</time>
      </trkpt>
      <trkpt lat="44.57457" lon="2.25691">
        <ele>341</ele>
        <time>2018-05-06T13:33:54Z</time>
      </trkpt>
      <trkpt lat="44.57479" lon="2.25639">
        <ele>336</ele>
        <time>2018-05-06T13:34:26Z</time>
      </trkpt>
      <trkpt lat="44.57481" lon="2.25632">
        <ele>336</ele>
        <time>2018-05-06T13:34:30Z</time>
      </trkpt>
      <trkpt lat="44.57498" lon="2.25603">
        <ele>333</ele>
        <time>2018-05-06T13:34:50Z</time>
      </trkpt>
      <trkpt lat="44.57507" lon="2.25567">
        <ele>332</ele>
        <time>2018-05-06T13:35:24Z</time>
      </trkpt>
      <trkpt lat="44.57511" lon="2.25476">
        <ele>328</ele>
        <time>2018-05-06T13:36:18Z</time>
      </trkpt>
      <trkpt lat="44.57509" lon="2.25446">
        <ele>327</ele>
        <time>2018-05-06T13:36:38Z</time>
      </trkpt>
      <trkpt lat="44.57508" lon="2.25438">
        <ele>327</ele>
        <time>2018-05-06T13:36:42Z</time>
      </trkpt>
      <trkpt lat="44.57503" lon="2.25425">
        <ele>326</ele>
        <time>2018-05-06T13:36:50Z</time>
      </trkpt>
      <trkpt lat="44.57494" lon="2.25354">
        <ele>321</ele>
        <time>2018-05-06T13:37:38Z</time>
      </trkpt>
      <trkpt lat="44.57494" lon="2.2534">
        <ele>321</ele>
        <time>2018-05-06T13:37:46Z</time>
      </trkpt>
      <trkpt lat="44.57487" lon="2.25291">
        <ele>321</ele>
        <time>2018-05-06T13:38:16Z</time>
      </trkpt>
      <trkpt lat="44.57486" lon="2.25285">
        <ele>321</ele>
        <time>2018-05-06T13:38:21Z</time>
      </trkpt>
      <trkpt lat="44.57486" lon="2.25266">
        <ele>321</ele>
        <time>2018-05-06T13:38:36Z</time>
      </trkpt>
      <trkpt lat="44.57497" lon="2.25225">
        <ele>322</ele>
        <time>2018-05-06T13:39:01Z</time>
      </trkpt>
      <trkpt lat="44.57518" lon="2.25169">
        <ele>323</ele>
        <time>2018-05-06T13:39:39Z</time>
      </trkpt>
      <trkpt lat="44.57541" lon="2.25123">
        <ele>323</ele>
        <time>2018-05-06T13:40:12Z</time>
      </trkpt>
      <trkpt lat="44.57562" lon="2.25093">
        <ele>321</ele>
        <time>2018-05-06T13:40:40Z</time>
      </trkpt>
      <trkpt lat="44.57574" lon="2.25082">
        <ele>320</ele>
        <time>2018-05-06T13:40:53Z</time>
      </trkpt>
      <trkpt lat="44.57593" lon="2.25057">
        <ele>319</ele>
        <time>2018-05-06T13:41:15Z</time>
      </trkpt>
      <trkpt lat="44.57601" lon="2.25052">
        <ele>319</ele>
        <time>2018-05-06T13:41:35Z</time>
      </trkpt>
      <trkpt lat="44.57612" lon="2.25041">
        <ele>317</ele>
        <time>2018-05-06T13:41:51Z</time>
      </trkpt>
      <trkpt lat="44.57609" lon="2.25044">
        <ele>317</ele>
        <time>2018-05-06T13:43:36Z</time>
      </trkpt>
      <trkpt lat="44.57598" lon="2.25053">
        <ele>318</ele>
        <time>2018-05-06T13:43:48Z</time>
      </trkpt>
      <trkpt lat="44.57609" lon="2.25014">
        <ele>319</ele>
        <time>2018-05-06T13:44:17Z</time>
      </trkpt>
      <trkpt lat="44.57609" lon="2.25">
        <ele>318</ele>
        <time>2018-05-06T13:44:26Z</time>
      </trkpt>
      <trkpt lat="44.57616" lon="2.24959">
        <ele>315</ele>
        <time>2018-05-06T13:44:50Z</time>
      </trkpt>
      <trkpt lat="44.57623" lon="2.24942">
        <ele>313</ele>
        <time>2018-05-06T13:45:02Z</time>
      </trkpt>
      <trkpt lat="44.5763" lon="2.24932">
        <ele>312</ele>
        <time>2018-05-06T13:45:11Z</time>
      </trkpt>
      <trkpt lat="44.57633" lon="2.24925">
        <ele>312</ele>
        <time>2018-05-06T13:45:17Z</time>
      </trkpt>
      <trkpt lat="44.5764" lon="2.24915">
        <ele>311</ele>
        <time>2018-05-06T13:45:26Z</time>
      </trkpt>
      <trkpt lat="44.57651" lon="2.24883">
        <ele>311</ele>
        <time>2018-05-06T13:45:46Z</time>
      </trkpt>
      <trkpt lat="44.57654" lon="2.2487">
        <ele>311</ele>
        <time>2018-05-06T13:45:54Z</time>
      </trkpt>
      <trkpt lat="44.57655" lon="2.24855">
        <ele>312</ele>
        <time>2018-05-06T13:46:03Z</time>
      </trkpt>
      <trkpt lat="44.57655" lon="2.24849">
        <ele>312</ele>
        <time>2018-05-06T13:46:07Z</time>
      </trkpt>
      <trkpt lat="44.57649" lon="2.24828">
        <ele>315</ele>
        <time>2018-05-06T13:46:24Z</time>
      </trkpt>
      <trkpt lat="44.57624" lon="2.24776">
        <ele>317</ele>
        <time>2018-05-06T13:47:21Z</time>
      </trkpt>
      <trkpt lat="44.57599" lon="2.24736">
        <ele>316</ele>
        <time>2018-05-06T13:47:51Z</time>
      </trkpt>
      <trkpt lat="44.57597" lon="2.24731">
        <ele>315</ele>
        <time>2018-05-06T13:47:55Z</time>
      </trkpt>
      <trkpt lat="44.5759" lon="2.24728">
        <ele>314</ele>
        <time>2018-05-06T13:48:03Z</time>
      </trkpt>
      <trkpt lat="44.57589" lon="2.24727">
        <ele>314</ele>
        <time>2018-05-06T13:48:33Z</time>
      </trkpt>
      <trkpt lat="44.5762" lon="2.24681">
        <ele>319</ele>
        <time>2018-05-06T13:49:33Z</time>
      </trkpt>
      <trkpt lat="44.57648" lon="2.24652">
        <ele>322</ele>
        <time>2018-05-06T13:50:04Z</time>
      </trkpt>
      <trkpt lat="44.57651" lon="2.24646">
        <ele>323</ele>
        <time>2018-05-06T13:50:09Z</time>
      </trkpt>
      <trkpt lat="44.57652" lon="2.2464">
        <ele>323</ele>
        <time>2018-05-06T13:50:13Z</time>
      </trkpt>
      <trkpt lat="44.57646" lon="2.24472">
        <ele>309</ele>
        <time>2018-05-06T13:52:10Z</time>
      </trkpt>
      <trkpt lat="44.57644" lon="2.24461">
        <ele>307</ele>
        <time>2018-05-06T13:52:24Z</time>
      </trkpt>
      <trkpt lat="44.57639" lon="2.24455">
        <ele>305</ele>
        <time>2018-05-06T13:52:32Z</time>
      </trkpt>
      <trkpt lat="44.57639" lon="2.24448">
        <ele>304</ele>
        <time>2018-05-06T13:52:36Z</time>
      </trkpt>
      <trkpt lat="44.57644" lon="2.24444">
        <ele>304</ele>
        <time>2018-05-06T13:52:40Z</time>
      </trkpt>
      <trkpt lat="44.57649" lon="2.24443">
        <ele>303</ele>
        <time>2018-05-06T13:52:44Z</time>
      </trkpt>
      <trkpt lat="44.57655" lon="2.24435">
        <ele>302</ele>
        <time>2018-05-06T13:52:52Z</time>
      </trkpt>
      <trkpt lat="44.57657" lon="2.24428">
        <ele>302</ele>
        <time>2018-05-06T13:52:57Z</time>
      </trkpt>
      <trkpt lat="44.57658" lon="2.24421">
        <ele>302</ele>
        <time>2018-05-06T13:53:01Z</time>
      </trkpt>
      <trkpt lat="44.57681" lon="2.24364">
        <ele>306</ele>
        <time>2018-05-06T13:53:46Z</time>
      </trkpt>
      <trkpt lat="44.57684" lon="2.2435">
        <ele>307</ele>
        <time>2018-05-06T13:53:55Z</time>
      </trkpt>
      <trkpt lat="44.57701" lon="2.24308">
        <ele>313</ele>
        <time>2018-05-06T13:54:52Z</time>
      </trkpt>
      <trkpt lat="44.57701" lon="2.24294">
        <ele>314</ele>
        <time>2018-05-06T13:55:01Z</time>
      </trkpt>
      <trkpt lat="44.57703" lon="2.24288">
        <ele>315</ele>
        <time>2018-05-06T13:55:05Z</time>
      </trkpt>
      <trkpt lat="44.57709" lon="2.24276">
        <ele>316</ele>
        <time>2018-05-06T13:55:13Z</time>
      </trkpt>
      <trkpt lat="44.57712" lon="2.24269">
        <ele>316</ele>
        <time>2018-05-06T13:55:17Z</time>
      </trkpt>
      <trkpt lat="44.5771" lon="2.24248">
        <ele>318</ele>
        <time>2018-05-06T13:55:29Z</time>
      </trkpt>
      <trkpt lat="44.57706" lon="2.24231">
        <ele>320</ele>
        <time>2018-05-06T13:55:42Z</time>
      </trkpt>
      <trkpt lat="44.57702" lon="2.24225">
        <ele>321</ele>
        <time>2018-05-06T13:55:47Z</time>
      </trkpt>
      <trkpt lat="44.57688" lon="2.24214">
        <ele>323</ele>
        <time>2018-05-06T13:56:01Z</time>
      </trkpt>
      <trkpt lat="44.57683" lon="2.24213">
        <ele>324</ele>
        <time>2018-05-06T13:56:06Z</time>
      </trkpt>
      <trkpt lat="44.57678" lon="2.24209">
        <ele>325</ele>
        <time>2018-05-06T13:56:14Z</time>
      </trkpt>
      <trkpt lat="44.57673" lon="2.24202">
        <ele>327</ele>
        <time>2018-05-06T13:57:02Z</time>
      </trkpt>
      <trkpt lat="44.57668" lon="2.242">
        <ele>327</ele>
        <time>2018-05-06T13:57:05Z</time>
      </trkpt>
      <trkpt lat="44.57663" lon="2.24194">
        <ele>328</ele>
        <time>2018-05-06T13:57:11Z</time>
      </trkpt>
      <trkpt lat="44.57658" lon="2.24191">
        <ele>329</ele>
        <time>2018-05-06T13:57:17Z</time>
      </trkpt>
      <trkpt lat="44.5765" lon="2.2418">
        <ele>330</ele>
        <time>2018-05-06T13:57:25Z</time>
      </trkpt>
      <trkpt lat="44.5765" lon="2.24174">
        <ele>332</ele>
        <time>2018-05-06T13:57:34Z</time>
      </trkpt>
      <trkpt lat="44.57648" lon="2.24166">
        <ele>332</ele>
        <time>2018-05-06T13:57:39Z</time>
      </trkpt>
      <trkpt lat="44.57624" lon="2.24132">
        <ele>337</ele>
        <time>2018-05-06T13:58:20Z</time>
      </trkpt>
      <trkpt lat="44.57604" lon="2.24122">
        <ele>341</ele>
        <time>2018-05-06T13:58:40Z</time>
      </trkpt>
      <trkpt lat="44.57596" lon="2.24113">
        <ele>342</ele>
        <time>2018-05-06T13:58:48Z</time>
      </trkpt>
      <trkpt lat="44.57595" lon="2.24105">
        <ele>343</ele>
        <time>2018-05-06T13:58:53Z</time>
      </trkpt>
      <trkpt lat="44.57597" lon="2.24096">
        <ele>344</ele>
        <time>2018-05-06T13:59:07Z</time>
      </trkpt>
      <trkpt lat="44.57598" lon="2.24089">
        <ele>345</ele>
        <time>2018-05-06T13:59:31Z</time>
      </trkpt>
      <trkpt lat="44.57606" lon="2.24063">
        <ele>348</ele>
        <time>2018-05-06T13:59:52Z</time>
      </trkpt>
      <trkpt lat="44.57607" lon="2.24055">
        <ele>348</ele>
        <time>2018-05-06T13:59:57Z</time>
      </trkpt>
      <trkpt lat="44.57611" lon="2.24042">
        <ele>349</ele>
        <time>2018-05-06T14:00:07Z</time>
      </trkpt>
      <trkpt lat="44.57614" lon="2.24028">
        <ele>350</ele>
        <time>2018-05-06T14:00:17Z</time>
      </trkpt>
      <trkpt lat="44.57619" lon="2.2402">
        <ele>351</ele>
        <time>2018-05-06T14:00:25Z</time>
      </trkpt>
      <trkpt lat="44.57621" lon="2.24013">
        <ele>351</ele>
        <time>2018-05-06T14:00:30Z</time>
      </trkpt>
      <trkpt lat="44.57624" lon="2.24008">
        <ele>352</ele>
        <time>2018-05-06T14:00:34Z</time>
      </trkpt>
      <trkpt lat="44.57628" lon="2.23988">
        <ele>353</ele>
        <time>2018-05-06T14:00:46Z</time>
      </trkpt>
      <trkpt lat="44.57633" lon="2.23984">
        <ele>354</ele>
        <time>2018-05-06T14:00:51Z</time>
      </trkpt>
      <trkpt lat="44.57636" lon="2.23972">
        <ele>355</ele>
        <time>2018-05-06T14:01:00Z</time>
      </trkpt>
      <trkpt lat="44.57639" lon="2.23966">
        <ele>355</ele>
        <time>2018-05-06T14:01:05Z</time>
      </trkpt>
      <trkpt lat="44.57641" lon="2.23961">
        <ele>355</ele>
        <time>2018-05-06T14:01:10Z</time>
      </trkpt>
      <trkpt lat="44.57643" lon="2.23945">
        <ele>355</ele>
        <time>2018-05-06T14:01:22Z</time>
      </trkpt>
      <trkpt lat="44.57644" lon="2.23938">
        <ele>355</ele>
        <time>2018-05-06T14:01:27Z</time>
      </trkpt>
      <trkpt lat="44.5765" lon="2.23926">
        <ele>354</ele>
        <time>2018-05-06T14:01:37Z</time>
      </trkpt>
      <trkpt lat="44.57655" lon="2.23926">
        <ele>354</ele>
        <time>2018-05-06T14:01:45Z</time>
      </trkpt>
      <trkpt lat="44.57659" lon="2.23919">
        <ele>354</ele>
        <time>2018-05-06T14:01:58Z</time>
      </trkpt>
      <trkpt lat="44.57657" lon="2.23906">
        <ele>353</ele>
        <time>2018-05-06T14:02:23Z</time>
      </trkpt>
      <trkpt lat="44.57652" lon="2.23909">
        <ele>353</ele>
        <time>2018-05-06T14:03:24Z</time>
      </trkpt>
      <trkpt lat="44.57655" lon="2.23908">
        <ele>353</ele>
        <time>2018-05-06T14:04:15Z</time>
      </trkpt>
      <trkpt lat="44.57662" lon="2.23916">
        <ele>352</ele>
        <time>2018-05-06T14:05:31Z</time>
      </trkpt>
      <trkpt lat="44.57665" lon="2.23923">
        <ele>353</ele>
        <time>2018-05-06T14:05:39Z</time>
      </trkpt>
      <trkpt lat="44.57659" lon="2.23925">
        <ele>352</ele>
        <time>2018-05-06T14:07:50Z</time>
      </trkpt>
      <trkpt lat="44.57661" lon="2.23926">
        <ele>353</ele>
        <time>2018-05-06T14:09:10Z</time>
      </trkpt>
      <trkpt lat="44.57656" lon="2.23927">
        <ele>353</ele>
        <time>2018-05-06T14:09:40Z</time>
      </trkpt>
      <trkpt lat="44.57659" lon="2.23919">
        <ele>352</ele>
        <time>2018-05-06T14:10:41Z</time>
      </trkpt>
      <trkpt lat="44.57659" lon="2.23912">
        <ele>352</ele>
        <time>2018-05-06T14:10:47Z</time>
      </trkpt>
      <trkpt lat="44.57655" lon="2.23907">
        <ele>352</ele>
        <time>2018-05-06T14:11:48Z</time>
      </trkpt>
      <trkpt lat="44.57658" lon="2.239">
        <ele>352</ele>
        <time>2018-05-06T14:12:29Z</time>
      </trkpt>
      <trkpt lat="44.57664" lon="2.23899">
        <ele>352</ele>
        <time>2018-05-06T14:13:59Z</time>
      </trkpt>
      <trkpt lat="44.57666" lon="2.2389">
        <ele>352</ele>
        <time>2018-05-06T14:14:10Z</time>
      </trkpt>
      <trkpt lat="44.57669" lon="2.23885">
        <ele>352</ele>
        <time>2018-05-06T14:14:14Z</time>
      </trkpt>
      <trkpt lat="44.57671" lon="2.23879">
        <ele>352</ele>
        <time>2018-05-06T14:14:19Z</time>
      </trkpt>
      <trkpt lat="44.57674" lon="2.23873">
        <ele>352</ele>
        <time>2018-05-06T14:14:24Z</time>
      </trkpt>
      <trkpt lat="44.57677" lon="2.23867">
        <ele>352</ele>
        <time>2018-05-06T14:14:29Z</time>
      </trkpt>
      <trkpt lat="44.57677" lon="2.23854">
        <ele>353</ele>
        <time>2018-05-06T14:14:37Z</time>
      </trkpt>
      <trkpt lat="44.57678" lon="2.2384">
        <ele>354</ele>
        <time>2018-05-06T14:14:47Z</time>
      </trkpt>
      <trkpt lat="44.57677" lon="2.23796">
        <ele>356</ele>
        <time>2018-05-06T14:15:16Z</time>
      </trkpt>
      <trkpt lat="44.57679" lon="2.23774">
        <ele>356</ele>
        <time>2018-05-06T14:15:30Z</time>
      </trkpt>
      <trkpt lat="44.57687" lon="2.23737">
        <ele>354</ele>
        <time>2018-05-06T14:16:05Z</time>
      </trkpt>
      <trkpt lat="44.5769" lon="2.23701">
        <ele>351</ele>
        <time>2018-05-06T14:16:29Z</time>
      </trkpt>
      <trkpt lat="44.57712" lon="2.23616">
        <ele>350</ele>
        <time>2018-05-06T14:17:31Z</time>
      </trkpt>
      <trkpt lat="44.57725" lon="2.23584">
        <ele>351</ele>
        <time>2018-05-06T14:17:56Z</time>
      </trkpt>
      <trkpt lat="44.57729" lon="2.2357">
        <ele>352</ele>
        <time>2018-05-06T14:18:08Z</time>
      </trkpt>
      <trkpt lat="44.57741" lon="2.23549">
        <ele>353</ele>
        <time>2018-05-06T14:18:25Z</time>
      </trkpt>
      <trkpt lat="44.57743" lon="2.23541">
        <ele>353</ele>
        <time>2018-05-06T14:18:30Z</time>
      </trkpt>
      <trkpt lat="44.57748" lon="2.23529">
        <ele>354</ele>
        <time>2018-05-06T14:18:39Z</time>
      </trkpt>
      <trkpt lat="44.57749" lon="2.23523">
        <ele>354</ele>
        <time>2018-05-06T14:18:43Z</time>
      </trkpt>
      <trkpt lat="44.57786" lon="2.23448">
        <ele>349</ele>
        <time>2018-05-06T14:19:41Z</time>
      </trkpt>
      <trkpt lat="44.57797" lon="2.23401">
        <ele>347</ele>
        <time>2018-05-06T14:20:14Z</time>
      </trkpt>
      <trkpt lat="44.57812" lon="2.23358">
        <ele>345</ele>
        <time>2018-05-06T14:20:46Z</time>
      </trkpt>
      <trkpt lat="44.57821" lon="2.2334">
        <ele>343</ele>
        <time>2018-05-06T14:21:00Z</time>
      </trkpt>
      <trkpt lat="44.5783" lon="2.23315">
        <ele>341</ele>
        <time>2018-05-06T14:21:16Z</time>
      </trkpt>
      <trkpt lat="44.5783" lon="2.23317">
        <ele>341</ele>
        <time>2018-05-06T14:22:48Z</time>
      </trkpt>
      <trkpt lat="44.5784" lon="2.23308">
        <ele>340</ele>
        <time>2018-05-06T14:23:14Z</time>
      </trkpt>
      <trkpt lat="44.57841" lon="2.23301">
        <ele>340</ele>
        <time>2018-05-06T14:23:17Z</time>
      </trkpt>
      <trkpt lat="44.57843" lon="2.23298">
        <ele>340</ele>
        <time>2018-05-06T14:23:28Z</time>
      </trkpt>
      <trkpt lat="44.57845" lon="2.2329">
        <ele>339</ele>
        <time>2018-05-06T14:23:33Z</time>
      </trkpt>
      <trkpt lat="44.57857" lon="2.23266">
        <ele>337</ele>
        <time>2018-05-06T14:23:49Z</time>
      </trkpt>
      <trkpt lat="44.57874" lon="2.23239">
        <ele>334</ele>
        <time>2018-05-06T14:24:10Z</time>
      </trkpt>
      <trkpt lat="44.57883" lon="2.23222">
        <ele>332</ele>
        <time>2018-05-06T14:24:22Z</time>
      </trkpt>
      <trkpt lat="44.57891" lon="2.23217">
        <ele>331</ele>
        <time>2018-05-06T14:24:32Z</time>
      </trkpt>
      <trkpt lat="44.57891" lon="2.23211">
        <ele>331</ele>
        <time>2018-05-06T14:27:38Z</time>
      </trkpt>
      <trkpt lat="44.57921" lon="2.23163">
        <ele>330</ele>
        <time>2018-05-06T14:29:30Z</time>
      </trkpt>
      <trkpt lat="44.57935" lon="2.23158">
        <ele>331</ele>
        <time>2018-05-06T14:29:45Z</time>
      </trkpt>
      <trkpt lat="44.5794" lon="2.23147">
        <ele>331</ele>
        <time>2018-05-06T14:29:53Z</time>
      </trkpt>
      <trkpt lat="44.57944" lon="2.23135">
        <ele>332</ele>
        <time>2018-05-06T14:30:02Z</time>
      </trkpt>
      <trkpt lat="44.57949" lon="2.23125">
        <ele>332</ele>
        <time>2018-05-06T14:30:12Z</time>
      </trkpt>
      <trkpt lat="44.57958" lon="2.2312">
        <ele>333</ele>
        <time>2018-05-06T14:30:25Z</time>
      </trkpt>
      <trkpt lat="44.57967" lon="2.23093">
        <ele>334</ele>
        <time>2018-05-06T14:30:46Z</time>
      </trkpt>
      <trkpt lat="44.57975" lon="2.23086">
        <ele>334</ele>
        <time>2018-05-06T14:30:54Z</time>
      </trkpt>
      <trkpt lat="44.57981" lon="2.23077">
        <ele>334</ele>
        <time>2018-05-06T14:31:03Z</time>
      </trkpt>
      <trkpt lat="44.57985" lon="2.23064">
        <ele>334</ele>
        <time>2018-05-06T14:31:10Z</time>
      </trkpt>
      <trkpt lat="44.57986" lon="2.23052">
        <ele>334</ele>
        <time>2018-05-06T14:31:17Z</time>
      </trkpt>
      <trkpt lat="44.57997" lon="2.2304">
        <ele>334</ele>
        <time>2018-05-06T14:31:31Z</time>
      </trkpt>
      <trkpt lat="44.58002" lon="2.23029">
        <ele>334</ele>
        <time>2018-05-06T14:31:40Z</time>
      </trkpt>
      <trkpt lat="44.58004" lon="2.23002">
        <ele>334</ele>
        <time>2018-05-06T14:31:55Z</time>
      </trkpt>
      <trkpt lat="44.58015" lon="2.22982">
        <ele>334</ele>
        <time>2018-05-06T14:32:11Z</time>
      </trkpt>
      <trkpt lat="44.58022" lon="2.22955">
        <ele>333</ele>
        <time>2018-05-06T14:32:27Z</time>
      </trkpt>
      <trkpt lat="44.58032" lon="2.22937">
        <ele>332</ele>
        <time>2018-05-06T14:32:44Z</time>
      </trkpt>
      <trkpt lat="44.58039" lon="2.22931">
        <ele>332</ele>
        <time>2018-05-06T14:32:52Z</time>
      </trkpt>
      <trkpt lat="44.58052" lon="2.22902">
        <ele>330</ele>
        <time>2018-05-06T14:33:16Z</time>
      </trkpt>
      <trkpt lat="44.5806" lon="2.22894">
        <ele>329</ele>
        <time>2018-05-06T14:33:24Z</time>
      </trkpt>
      <trkpt lat="44.58061" lon="2.22878">
        <ele>329</ele>
        <time>2018-05-06T14:33:33Z</time>
      </trkpt>
      <trkpt lat="44.58058" lon="2.22866">
        <ele>328</ele>
        <time>2018-05-06T14:33:38Z</time>
      </trkpt>
      <trkpt lat="44.58068" lon="2.2285">
        <ele>327</ele>
        <time>2018-05-06T14:33:54Z</time>
      </trkpt>
      <trkpt lat="44.58087" lon="2.22855">
        <ele>325</ele>
        <time>2018-05-06T14:34:07Z</time>
      </trkpt>
      <trkpt lat="44.58092" lon="2.22844">
        <ele>325</ele>
        <time>2018-05-06T14:34:14Z</time>
      </trkpt>
      <trkpt lat="44.58097" lon="2.22842">
        <ele>325</ele>
        <time>2018-05-06T14:34:18Z</time>
      </trkpt>
      <trkpt lat="44.58116" lon="2.22844">
        <ele>323</ele>
        <time>2018-05-06T14:34:34Z</time>
      </trkpt>
      <trkpt lat="44.58149" lon="2.22856">
        <ele>317</ele>
        <time>2018-05-06T14:35:08Z</time>
      </trkpt>
      <trkpt lat="44.5817" lon="2.2283">
        <ele>313</ele>
        <time>2018-05-06T14:35:48Z</time>
      </trkpt>
      <trkpt lat="44.58179" lon="2.22806">
        <ele>312</ele>
        <time>2018-05-06T14:36:02Z</time>
      </trkpt>
      <trkpt lat="44.58186" lon="2.22796">
        <ele>311</ele>
        <time>2018-05-06T14:36:10Z</time>
      </trkpt>
      <trkpt lat="44.58196" lon="2.22793">
        <ele>309</ele>
        <time>2018-05-06T14:36:38Z</time>
      </trkpt>
      <trkpt lat="44.58208" lon="2.22711">
        <ele>305</ele>
        <time>2018-05-06T14:37:31Z</time>
      </trkpt>
      <trkpt lat="44.58206" lon="2.22694">
        <ele>304</ele>
        <time>2018-05-06T14:37:47Z</time>
      </trkpt>
      <trkpt lat="44.58212" lon="2.22683">
        <ele>302</ele>
        <time>2018-05-06T14:38:05Z</time>
      </trkpt>
      <trkpt lat="44.58232" lon="2.22657">
        <ele>296</ele>
        <time>2018-05-06T14:40:09Z</time>
      </trkpt>
      <trkpt lat="44.58251" lon="2.22655">
        <ele>294</ele>
        <time>2018-05-06T14:40:44Z</time>
      </trkpt>
      <trkpt lat="44.58247" lon="2.2264">
        <ele>293</ele>
        <time>2018-05-06T14:40:49Z</time>
      </trkpt>
      <trkpt lat="44.58251" lon="2.22625">
        <ele>292</ele>
        <time>2018-05-06T14:40:57Z</time>
      </trkpt>
      <trkpt lat="44.58259" lon="2.22612">
        <ele>291</ele>
        <time>2018-05-06T14:41:08Z</time>
      </trkpt>
      <trkpt lat="44.58261" lon="2.22599">
        <ele>289</ele>
        <time>2018-05-06T14:41:17Z</time>
      </trkpt>
      <trkpt lat="44.5826" lon="2.22587">
        <ele>289</ele>
        <time>2018-05-06T14:41:23Z</time>
      </trkpt>
      <trkpt lat="44.58267" lon="2.2258">
        <ele>286</ele>
        <time>2018-05-06T14:41:37Z</time>
      </trkpt>
      <trkpt lat="44.5826" lon="2.22481">
        <ele>273</ele>
        <time>2018-05-06T14:42:58Z</time>
      </trkpt>
      <trkpt lat="44.58275" lon="2.22488">
        <ele>271</ele>
        <time>2018-05-06T14:43:09Z</time>
      </trkpt>
      <trkpt lat="44.58284" lon="2.22487">
        <ele>270</ele>
        <time>2018-05-06T14:43:15Z</time>
      </trkpt>
      <trkpt lat="44.58268" lon="2.22462">
        <ele>267</ele>
        <time>2018-05-06T14:43:38Z</time>
      </trkpt>
      <trkpt lat="44.5826" lon="2.22444">
        <ele>265</ele>
        <time>2018-05-06T14:43:59Z</time>
      </trkpt>
      <trkpt lat="44.58274" lon="2.22443">
        <ele>261</ele>
        <time>2018-05-06T14:44:18Z</time>
      </trkpt>
      <trkpt lat="44.58281" lon="2.22453">
        <ele>260</ele>
        <time>2018-05-06T14:44:23Z</time>
      </trkpt>
      <trkpt lat="44.583" lon="2.22451">
        <ele>255</ele>
        <time>2018-05-06T14:44:45Z</time>
      </trkpt>
      <trkpt lat="44.58311" lon="2.22454">
        <ele>253</ele>
        <time>2018-05-06T14:45:23Z</time>
      </trkpt>
      <trkpt lat="44.58329" lon="2.22493">
        <ele>249</ele>
        <time>2018-05-06T14:46:12Z</time>
      </trkpt>
      <trkpt lat="44.58358" lon="2.22494">
        <ele>248</ele>
        <time>2018-05-06T14:46:26Z</time>
      </trkpt>
      <trkpt lat="44.58381" lon="2.22529">
        <ele>240</ele>
        <time>2018-05-06T14:47:28Z</time>
      </trkpt>
      <trkpt lat="44.58395" lon="2.22571">
        <ele>235</ele>
        <time>2018-05-06T14:47:55Z</time>
      </trkpt>
      <trkpt lat="44.5843" lon="2.2264">
        <ele>219</ele>
        <time>2018-05-06T14:49:48Z</time>
      </trkpt>
      <trkpt lat="44.58408" lon="2.22696">
        <ele>217</ele>
        <time>2018-05-06T14:50:31Z</time>
      </trkpt>
      <trkpt lat="44.58449" lon="2.22699">
        <ele>217</ele>
        <time>2018-05-06T14:50:37Z</time>
      </trkpt>
      <trkpt lat="44.58468" lon="2.22722">
        <ele>214</ele>
        <time>2018-05-06T14:51:10Z</time>
      </trkpt>
      <trkpt lat="44.58487" lon="2.22738">
        <ele>210</ele>
        <time>2018-05-06T14:51:53Z</time>
      </trkpt>
      <trkpt lat="44.58482" lon="2.22759">
        <ele>209</ele>
        <time>2018-05-06T14:52:02Z</time>
      </trkpt>
      <trkpt lat="44.58498" lon="2.22771">
        <ele>206</ele>
        <time>2018-05-06T14:52:16Z</time>
      </trkpt>
      <trkpt lat="44.5851" lon="2.22788">
        <ele>205</ele>
        <time>2018-05-06T14:52:31Z</time>
      </trkpt>
      <trkpt lat="44.58503" lon="2.2281">
        <ele>203</ele>
        <time>2018-05-06T14:52:47Z</time>
      </trkpt>
      <trkpt lat="44.58499" lon="2.22846">
        <ele>198</ele>
        <time>2018-05-06T14:53:17Z</time>
      </trkpt>
      <trkpt lat="44.58486" lon="2.22865">
        <ele>196</ele>
        <time>2018-05-06T14:53:33Z</time>
      </trkpt>
      <trkpt lat="44.58486" lon="2.22878">
        <ele>195</ele>
        <time>2018-05-06T14:53:39Z</time>
      </trkpt>
      <trkpt lat="44.58493" lon="2.22889">
        <ele>194</ele>
        <time>2018-05-06T14:54:01Z</time>
      </trkpt>
      <trkpt lat="44.58515" lon="2.2287">
        <ele>194</ele>
        <time>2018-05-06T14:54:43Z</time>
      </trkpt>
      <trkpt lat="44.58524" lon="2.22869">
        <ele>195</ele>
        <time>2018-05-06T14:54:53Z</time>
      </trkpt>
      <trkpt lat="44.58534" lon="2.22873">
        <ele>195</ele>
        <time>2018-05-06T14:55:01Z</time>
      </trkpt>
      <trkpt lat="44.58541" lon="2.22873">
        <ele>195</ele>
        <time>2018-05-06T14:55:08Z</time>
      </trkpt>
      <trkpt lat="44.58548" lon="2.22879">
        <ele>196</ele>
        <time>2018-05-06T14:55:45Z</time>
      </trkpt>
      <trkpt lat="44.58556" lon="2.22884">
        <ele>196</ele>
        <time>2018-05-06T14:55:52Z</time>
      </trkpt>
      <trkpt lat="44.58562" lon="2.22886">
        <ele>196</ele>
        <time>2018-05-06T14:55:56Z</time>
      </trkpt>
      <trkpt lat="44.58648" lon="2.22935">
        <ele>195</ele>
        <time>2018-05-06T14:57:16Z</time>
      </trkpt>
      <trkpt lat="44.58687" lon="2.22966">
        <ele>193</ele>
        <time>2018-05-06T14:58:02Z</time>
      </trkpt>
      <trkpt lat="44.58699" lon="2.22978">
        <ele>193</ele>
        <time>2018-05-06T14:58:14Z</time>
      </trkpt>
      <trkpt lat="44.58702" lon="2.22982">
        <ele>193</ele>
        <time>2018-05-06T14:58:18Z</time>
      </trkpt>
      <trkpt lat="44.5872" lon="2.23008">
        <ele>192</ele>
        <time>2018-05-06T14:58:38Z</time>
      </trkpt>
      <trkpt lat="44.58724" lon="2.23019">
        <ele>191</ele>
        <time>2018-05-06T14:58:46Z</time>
      </trkpt>
      <trkpt lat="44.58728" lon="2.23028">
        <ele>191</ele>
        <time>2018-05-06T14:58:55Z</time>
      </trkpt>
      <trkpt lat="44.58746" lon="2.23091">
        <ele>189</ele>
        <time>2018-05-06T14:59:48Z</time>
      </trkpt>
      <trkpt lat="44.58758" lon="2.23102">
        <ele>189</ele>
        <time>2018-05-06T15:00:04Z</time>
      </trkpt>
      <trkpt lat="44.58765" lon="2.23097">
        <ele>188</ele>
        <time>2018-05-06T15:00:27Z</time>
      </trkpt>
      <trkpt lat="44.58769" lon="2.23095">
        <ele>188</ele>
        <time>2018-05-06T15:00:32Z</time>
      </trkpt>
      <trkpt lat="44.58774" lon="2.23095">
        <ele>187</ele>
        <time>2018-05-06T15:00:37Z</time>
      </trkpt>
      <trkpt lat="44.5878" lon="2.23093">
        <ele>187</ele>
        <time>2018-05-06T15:00:41Z</time>
      </trkpt>
      <trkpt lat="44.58783" lon="2.23128">
        <ele>187</ele>
        <time>2018-05-06T15:01:19Z</time>
      </trkpt>
      <trkpt lat="44.58776" lon="2.23131">
        <ele>189</ele>
        <time>2018-05-06T15:15:16Z</time>
      </trkpt>
      <trkpt lat="44.58926" lon="2.23232">
        <ele>175</ele>
        <time>2018-05-07T05:43:33Z</time>
      </trkpt>
      <trkpt lat="44.58932" lon="2.23235">
        <ele>177</ele>
        <time>2018-05-07T05:43:57Z</time>
      </trkpt>
      <trkpt lat="44.58969" lon="2.23229">
        <ele>178</ele>
        <time>2018-05-07T05:44:26Z</time>
      </trkpt>
      <trkpt lat="44.58983" lon="2.23237">
        <ele>180</ele>
        <time>2018-05-07T05:44:40Z</time>
      </trkpt>
      <trkpt lat="44.59007" lon="2.23238">
        <ele>182</ele>
        <time>2018-05-07T05:45:04Z</time>
      </trkpt>
      <trkpt lat="44.59038" lon="2.23231">
        <ele>186</ele>
        <time>2018-05-07T05:45:31Z</time>
      </trkpt>
      <trkpt lat="44.59061" lon="2.23229">
        <ele>189</ele>
        <time>2018-05-07T05:45:56Z</time>
      </trkpt>
      <trkpt lat="44.59088" lon="2.2322">
        <ele>192</ele>
        <time>2018-05-07T05:46:23Z</time>
      </trkpt>
      <trkpt lat="44.59105" lon="2.23201">
        <ele>196</ele>
        <time>2018-05-07T05:46:46Z</time>
      </trkpt>
      <trkpt lat="44.59115" lon="2.23196">
        <ele>196</ele>
        <time>2018-05-07T05:46:53Z</time>
      </trkpt>
      <trkpt lat="44.59118" lon="2.23184">
        <ele>198</ele>
        <time>2018-05-07T05:47:08Z</time>
      </trkpt>
      <trkpt lat="44.59114" lon="2.2318">
        <ele>198</ele>
        <time>2018-05-07T05:47:20Z</time>
      </trkpt>
      <trkpt lat="44.59119" lon="2.23169">
        <ele>199</ele>
        <time>2018-05-07T05:47:31Z</time>
      </trkpt>
      <trkpt lat="44.59118" lon="2.23166">
        <ele>200</ele>
        <time>2018-05-07T05:49:47Z</time>
      </trkpt>
      <trkpt lat="44.59123" lon="2.23163">
        <ele>201</ele>
        <time>2018-05-07T05:50:51Z</time>
      </trkpt>
      <trkpt lat="44.5913" lon="2.2316">
        <ele>201</ele>
        <time>2018-05-07T05:51:01Z</time>
      </trkpt>
      <trkpt lat="44.59128" lon="2.23152">
        <ele>202</ele>
        <time>2018-05-07T05:51:19Z</time>
      </trkpt>
      <trkpt lat="44.59132" lon="2.2315">
        <ele>202</ele>
        <time>2018-05-07T05:51:54Z</time>
      </trkpt>
      <trkpt lat="44.59133" lon="2.23161">
        <ele>202</ele>
        <time>2018-05-07T05:53:04Z</time>
      </trkpt>
      <trkpt lat="44.59118" lon="2.23148">
        <ele>203</ele>
        <time>2018-05-07T05:53:42Z</time>
      </trkpt>
      <trkpt lat="44.59127" lon="2.2315">
        <ele>203</ele>
        <time>2018-05-07T05:54:02Z</time>
      </trkpt>
      <trkpt lat="44.59139" lon="2.23135">
        <ele>206</ele>
        <time>2018-05-07T05:56:46Z</time>
      </trkpt>
      <trkpt lat="44.59143" lon="2.2311">
        <ele>207</ele>
        <time>2018-05-07T05:57:05Z</time>
      </trkpt>
      <trkpt lat="44.5914" lon="2.23097">
        <ele>207</ele>
        <time>2018-05-07T05:57:14Z</time>
      </trkpt>
      <trkpt lat="44.59133" lon="2.23083">
        <ele>206</ele>
        <time>2018-05-07T05:57:26Z</time>
      </trkpt>
      <trkpt lat="44.59123" lon="2.23032">
        <ele>203</ele>
        <time>2018-05-07T05:57:54Z</time>
      </trkpt>
      <trkpt lat="44.59144" lon="2.22984">
        <ele>201</ele>
        <time>2018-05-07T05:58:27Z</time>
      </trkpt>
      <trkpt lat="44.59173" lon="2.22902">
        <ele>199</ele>
        <time>2018-05-07T05:59:22Z</time>
      </trkpt>
      <trkpt lat="44.59184" lon="2.22889">
        <ele>198</ele>
        <time>2018-05-07T05:59:33Z</time>
      </trkpt>
      <trkpt lat="44.59194" lon="2.22866">
        <ele>197</ele>
        <time>2018-05-07T05:59:49Z</time>
      </trkpt>
      <trkpt lat="44.59196" lon="2.22843">
        <ele>195</ele>
        <time>2018-05-07T06:00:03Z</time>
      </trkpt>
      <trkpt lat="44.59198" lon="2.22836">
        <ele>195</ele>
        <time>2018-05-07T06:00:07Z</time>
      </trkpt>
      <trkpt lat="44.59207" lon="2.2282">
        <ele>195</ele>
        <time>2018-05-07T06:00:20Z</time>
      </trkpt>
      <trkpt lat="44.59242" lon="2.22806">
        <ele>192</ele>
        <time>2018-05-07T06:00:51Z</time>
      </trkpt>
      <trkpt lat="44.59252" lon="2.22804">
        <ele>191</ele>
        <time>2018-05-07T06:01:00Z</time>
      </trkpt>
      <trkpt lat="44.5927" lon="2.22798">
        <ele>189</ele>
        <time>2018-05-07T06:01:15Z</time>
      </trkpt>
      <trkpt lat="44.59283" lon="2.22789">
        <ele>188</ele>
        <time>2018-05-07T06:01:27Z</time>
      </trkpt>
      <trkpt lat="44.59303" lon="2.2277">
        <ele>187</ele>
        <time>2018-05-07T06:01:47Z</time>
      </trkpt>
      <trkpt lat="44.59318" lon="2.22761">
        <ele>186</ele>
        <time>2018-05-07T06:02:02Z</time>
      </trkpt>
      <trkpt lat="44.59344" lon="2.22739">
        <ele>185</ele>
        <time>2018-05-07T06:02:27Z</time>
      </trkpt>
      <trkpt lat="44.59353" lon="2.22733">
        <ele>185</ele>
        <time>2018-05-07T06:02:35Z</time>
      </trkpt>
      <trkpt lat="44.59362" lon="2.22726">
        <ele>185</ele>
        <time>2018-05-07T06:02:44Z</time>
      </trkpt>
      <trkpt lat="44.5938" lon="2.22716">
        <ele>185</ele>
        <time>2018-05-07T06:03:00Z</time>
      </trkpt>
      <trkpt lat="44.59404" lon="2.22709">
        <ele>185</ele>
        <time>2018-05-07T06:03:21Z</time>
      </trkpt>
      <trkpt lat="44.59442" lon="2.22689">
        <ele>185</ele>
        <time>2018-05-07T06:03:54Z</time>
      </trkpt>
      <trkpt lat="44.59478" lon="2.22664">
        <ele>186</ele>
        <time>2018-05-07T06:04:27Z</time>
      </trkpt>
      <trkpt lat="44.59483" lon="2.22662">
        <ele>186</ele>
        <time>2018-05-07T06:04:31Z</time>
      </trkpt>
      <trkpt lat="44.59548" lon="2.22665">
        <ele>193</ele>
        <time>2018-05-07T06:05:36Z</time>
      </trkpt>
      <trkpt lat="44.59567" lon="2.22669">
        <ele>194</ele>
        <time>2018-05-07T06:05:50Z</time>
      </trkpt>
      <trkpt lat="44.5959" lon="2.2267">
        <ele>199</ele>
        <time>2018-05-07T06:06:19Z</time>
      </trkpt>
      <trkpt lat="44.59615" lon="2.22681">
        <ele>206</ele>
        <time>2018-05-07T06:06:57Z</time>
      </trkpt>
      <trkpt lat="44.59628" lon="2.22674">
        <ele>209</ele>
        <time>2018-05-07T06:07:11Z</time>
      </trkpt>
      <trkpt lat="44.59632" lon="2.22674">
        <ele>210</ele>
        <time>2018-05-07T06:07:17Z</time>
      </trkpt>
      <trkpt lat="44.59642" lon="2.22665">
        <ele>212</ele>
        <time>2018-05-07T06:07:40Z</time>
      </trkpt>
      <trkpt lat="44.59664" lon="2.22657">
        <ele>217</ele>
        <time>2018-05-07T06:08:15Z</time>
      </trkpt>
      <trkpt lat="44.59675" lon="2.22642">
        <ele>219</ele>
        <time>2018-05-07T06:08:29Z</time>
      </trkpt>
      <trkpt lat="44.597" lon="2.22628">
        <ele>223</ele>
        <time>2018-05-07T06:08:56Z</time>
      </trkpt>
      <trkpt lat="44.59709" lon="2.22628">
        <ele>223</ele>
        <time>2018-05-07T06:09:04Z</time>
      </trkpt>
      <trkpt lat="44.5976" lon="2.22644">
        <ele>236</ele>
        <time>2018-05-07T06:10:06Z</time>
      </trkpt>
      <trkpt lat="44.59765" lon="2.22645">
        <ele>236</ele>
        <time>2018-05-07T06:10:11Z</time>
      </trkpt>
      <trkpt lat="44.59861" lon="2.22685">
        <ele>249</ele>
        <time>2018-05-07T06:11:59Z</time>
      </trkpt>
      <trkpt lat="44.5988" lon="2.22696">
        <ele>253</ele>
        <time>2018-05-07T06:12:41Z</time>
      </trkpt>
      <trkpt lat="44.59886" lon="2.22695">
        <ele>254</ele>
        <time>2018-05-07T06:13:01Z</time>
      </trkpt>
      <trkpt lat="44.59891" lon="2.22696">
        <ele>255</ele>
        <time>2018-05-07T06:13:13Z</time>
      </trkpt>
      <trkpt lat="44.59955" lon="2.22696">
        <ele>263</ele>
        <time>2018-05-07T06:14:30Z</time>
      </trkpt>
      <trkpt lat="44.59976" lon="2.22702">
        <ele>266</ele>
        <time>2018-05-07T06:14:49Z</time>
      </trkpt>
      <trkpt lat="44.59998" lon="2.22716">
        <ele>271</ele>
        <time>2018-05-07T06:15:24Z</time>
      </trkpt>
      <trkpt lat="44.60017" lon="2.22724">
        <ele>274</ele>
        <time>2018-05-07T06:15:42Z</time>
      </trkpt>
      <trkpt lat="44.60038" lon="2.22725">
        <ele>276</ele>
        <time>2018-05-07T06:16:04Z</time>
      </trkpt>
      <trkpt lat="44.60043" lon="2.22724">
        <ele>277</ele>
        <time>2018-05-07T06:16:09Z</time>
      </trkpt>
      <trkpt lat="44.60052" lon="2.22719">
        <ele>279</ele>
        <time>2018-05-07T06:16:19Z</time>
      </trkpt>
      <trkpt lat="44.60093" lon="2.22716">
        <ele>283</ele>
        <time>2018-05-07T06:16:52Z</time>
      </trkpt>
      <trkpt lat="44.60108" lon="2.22717">
        <ele>284</ele>
        <time>2018-05-07T06:17:04Z</time>
      </trkpt>
      <trkpt lat="44.60187" lon="2.22697">
        <ele>292</ele>
        <time>2018-05-07T06:18:23Z</time>
      </trkpt>
      <trkpt lat="44.60194" lon="2.22689">
        <ele>294</ele>
        <time>2018-05-07T06:18:38Z</time>
      </trkpt>
      <trkpt lat="44.6022" lon="2.22687">
        <ele>298</ele>
        <time>2018-05-07T06:19:22Z</time>
      </trkpt>
      <trkpt lat="44.60224" lon="2.22685">
        <ele>298</ele>
        <time>2018-05-07T06:19:26Z</time>
      </trkpt>
      <trkpt lat="44.60261" lon="2.22684">
        <ele>303</ele>
        <time>2018-05-07T06:20:03Z</time>
      </trkpt>
      <trkpt lat="44.60296" lon="2.22677">
        <ele>308</ele>
        <time>2018-05-07T06:20:38Z</time>
      </trkpt>
      <trkpt lat="44.60335" lon="2.22663">
        <ele>312</ele>
        <time>2018-05-07T06:21:12Z</time>
      </trkpt>
      <trkpt lat="44.6034" lon="2.22663">
        <ele>313</ele>
        <time>2018-05-07T06:21:16Z</time>
      </trkpt>
      <trkpt lat="44.60349" lon="2.22657">
        <ele>314</ele>
        <time>2018-05-07T06:21:24Z</time>
      </trkpt>
      <trkpt lat="44.60388" lon="2.22649">
        <ele>318</ele>
        <time>2018-05-07T06:21:58Z</time>
      </trkpt>
      <trkpt lat="44.60421" lon="2.22649">
        <ele>322</ele>
        <time>2018-05-07T06:22:35Z</time>
      </trkpt>
      <trkpt lat="44.60431" lon="2.22648">
        <ele>324</ele>
        <time>2018-05-07T06:22:44Z</time>
      </trkpt>
      <trkpt lat="44.60456" lon="2.22638">
        <ele>326</ele>
        <time>2018-05-07T06:23:06Z</time>
      </trkpt>
      <trkpt lat="44.60526" lon="2.22589">
        <ele>331</ele>
        <time>2018-05-07T06:24:12Z</time>
      </trkpt>
      <trkpt lat="44.6053" lon="2.22583">
        <ele>331</ele>
        <time>2018-05-07T06:24:16Z</time>
      </trkpt>
      <trkpt lat="44.60533" lon="2.22577">
        <ele>331</ele>
        <time>2018-05-07T06:24:20Z</time>
      </trkpt>
      <trkpt lat="44.60535" lon="2.2257">
        <ele>331</ele>
        <time>2018-05-07T06:24:24Z</time>
      </trkpt>
      <trkpt lat="44.60537" lon="2.2255">
        <ele>332</ele>
        <time>2018-05-07T06:24:37Z</time>
      </trkpt>
      <trkpt lat="44.60538" lon="2.22543">
        <ele>332</ele>
        <time>2018-05-07T06:24:42Z</time>
      </trkpt>
      <trkpt lat="44.60543" lon="2.2254">
        <ele>332</ele>
        <time>2018-05-07T06:26:14Z</time>
      </trkpt>
      <trkpt lat="44.60578" lon="2.22528">
        <ele>331</ele>
        <time>2018-05-07T06:26:44Z</time>
      </trkpt>
      <trkpt lat="44.60593" lon="2.22529">
        <ele>332</ele>
        <time>2018-05-07T06:26:55Z</time>
      </trkpt>
      <trkpt lat="44.60626" lon="2.22525">
        <ele>330</ele>
        <time>2018-05-07T06:27:21Z</time>
      </trkpt>
      <trkpt lat="44.60664" lon="2.22511">
        <ele>328</ele>
        <time>2018-05-07T06:27:53Z</time>
      </trkpt>
      <trkpt lat="44.60669" lon="2.22508">
        <ele>328</ele>
        <time>2018-05-07T06:27:57Z</time>
      </trkpt>
      <trkpt lat="44.60685" lon="2.22501">
        <ele>328</ele>
        <time>2018-05-07T06:28:09Z</time>
      </trkpt>
      <trkpt lat="44.60689" lon="2.22498">
        <ele>328</ele>
        <time>2018-05-07T06:28:13Z</time>
      </trkpt>
      <trkpt lat="44.60694" lon="2.22496">
        <ele>328</ele>
        <time>2018-05-07T06:28:17Z</time>
      </trkpt>
      <trkpt lat="44.60701" lon="2.22494">
        <ele>328</ele>
        <time>2018-05-07T06:28:32Z</time>
      </trkpt>
      <trkpt lat="44.60775" lon="2.22463">
        <ele>326</ele>
        <time>2018-05-07T06:29:33Z</time>
      </trkpt>
      <trkpt lat="44.60816" lon="2.2245">
        <ele>326</ele>
        <time>2018-05-07T06:30:06Z</time>
      </trkpt>
      <trkpt lat="44.60854" lon="2.22428">
        <ele>324</ele>
        <time>2018-05-07T06:30:37Z</time>
      </trkpt>
      <trkpt lat="44.60861" lon="2.22427">
        <ele>324</ele>
        <time>2018-05-07T06:30:43Z</time>
      </trkpt>
      <trkpt lat="44.60876" lon="2.22418">
        <ele>324</ele>
        <time>2018-05-07T06:30:56Z</time>
      </trkpt>
      <trkpt lat="44.60891" lon="2.22416">
        <ele>323</ele>
        <time>2018-05-07T06:31:06Z</time>
      </trkpt>
      <trkpt lat="44.609" lon="2.22408">
        <ele>323</ele>
        <time>2018-05-07T06:31:14Z</time>
      </trkpt>
      <trkpt lat="44.60903" lon="2.22403">
        <ele>323</ele>
        <time>2018-05-07T06:31:18Z</time>
      </trkpt>
      <trkpt lat="44.60907" lon="2.22401">
        <ele>323</ele>
        <time>2018-05-07T06:31:21Z</time>
      </trkpt>
      <trkpt lat="44.60912" lon="2.22397">
        <ele>323</ele>
        <time>2018-05-07T06:31:25Z</time>
      </trkpt>
      <trkpt lat="44.60939" lon="2.22389">
        <ele>322</ele>
        <time>2018-05-07T06:31:44Z</time>
      </trkpt>
      <trkpt lat="44.60971" lon="2.22364">
        <ele>321</ele>
        <time>2018-05-07T06:32:16Z</time>
      </trkpt>
      <trkpt lat="44.60976" lon="2.22363">
        <ele>321</ele>
        <time>2018-05-07T06:32:20Z</time>
      </trkpt>
      <trkpt lat="44.60987" lon="2.22362">
        <ele>320</ele>
        <time>2018-05-07T06:32:28Z</time>
      </trkpt>
      <trkpt lat="44.60996" lon="2.22357">
        <ele>320</ele>
        <time>2018-05-07T06:32:35Z</time>
      </trkpt>
      <trkpt lat="44.61" lon="2.22354">
        <ele>320</ele>
        <time>2018-05-07T06:32:38Z</time>
      </trkpt>
      <trkpt lat="44.61008" lon="2.22347">
        <ele>321</ele>
        <time>2018-05-07T06:32:46Z</time>
      </trkpt>
      <trkpt lat="44.61011" lon="2.2234">
        <ele>321</ele>
        <time>2018-05-07T06:32:50Z</time>
      </trkpt>
      <trkpt lat="44.6102" lon="2.22306">
        <ele>322</ele>
        <time>2018-05-07T06:33:10Z</time>
      </trkpt>
      <trkpt lat="44.61022" lon="2.22285">
        <ele>322</ele>
        <time>2018-05-07T06:33:22Z</time>
      </trkpt>
      <trkpt lat="44.61022" lon="2.22256">
        <ele>323</ele>
        <time>2018-05-07T06:33:38Z</time>
      </trkpt>
      <trkpt lat="44.61031" lon="2.22206">
        <ele>323</ele>
        <time>2018-05-07T06:34:06Z</time>
      </trkpt>
      <trkpt lat="44.61033" lon="2.22199">
        <ele>323</ele>
        <time>2018-05-07T06:34:10Z</time>
      </trkpt>
      <trkpt lat="44.61037" lon="2.22163">
        <ele>323</ele>
        <time>2018-05-07T06:34:30Z</time>
      </trkpt>
      <trkpt lat="44.611" lon="2.22048">
        <ele>323</ele>
        <time>2018-05-07T06:35:51Z</time>
      </trkpt>
      <trkpt lat="44.61104" lon="2.22044">
        <ele>323</ele>
        <time>2018-05-07T06:35:56Z</time>
      </trkpt>
      <trkpt lat="44.61111" lon="2.2203">
        <ele>323</ele>
        <time>2018-05-07T06:36:08Z</time>
      </trkpt>
      <trkpt lat="44.61198" lon="2.21884">
        <ele>327</ele>
        <time>2018-05-07T06:38:08Z</time>
      </trkpt>
      <trkpt lat="44.6122" lon="2.21856">
        <ele>328</ele>
        <time>2018-05-07T06:38:32Z</time>
      </trkpt>
      <trkpt lat="44.6123" lon="2.2184">
        <ele>328</ele>
        <time>2018-05-07T06:38:44Z</time>
      </trkpt>
      <trkpt lat="44.61237" lon="2.21831">
        <ele>328</ele>
        <time>2018-05-07T06:38:52Z</time>
      </trkpt>
      <trkpt lat="44.61267" lon="2.21789">
        <ele>329</ele>
        <time>2018-05-07T06:39:24Z</time>
      </trkpt>
      <trkpt lat="44.61275" lon="2.21771">
        <ele>329</ele>
        <time>2018-05-07T06:39:36Z</time>
      </trkpt>
      <trkpt lat="44.61278" lon="2.21764">
        <ele>329</ele>
        <time>2018-05-07T06:39:40Z</time>
      </trkpt>
      <trkpt lat="44.61277" lon="2.21757">
        <ele>329</ele>
        <time>2018-05-07T06:39:44Z</time>
      </trkpt>
      <trkpt lat="44.61279" lon="2.2175">
        <ele>328</ele>
        <time>2018-05-07T06:39:48Z</time>
      </trkpt>
      <trkpt lat="44.61284" lon="2.21698">
        <ele>328</ele>
        <time>2018-05-07T06:40:14Z</time>
      </trkpt>
      <trkpt lat="44.61294" lon="2.21642">
        <ele>327</ele>
        <time>2018-05-07T06:40:47Z</time>
      </trkpt>
      <trkpt lat="44.61311" lon="2.21591">
        <ele>329</ele>
        <time>2018-05-07T06:41:20Z</time>
      </trkpt>
      <trkpt lat="44.61314" lon="2.2157">
        <ele>331</ele>
        <time>2018-05-07T06:41:35Z</time>
      </trkpt>
      <trkpt lat="44.61314" lon="2.21563">
        <ele>331</ele>
        <time>2018-05-07T06:41:39Z</time>
      </trkpt>
      <trkpt lat="44.61316" lon="2.21547">
        <ele>331</ele>
        <time>2018-05-07T06:41:47Z</time>
      </trkpt>
      <trkpt lat="44.6131" lon="2.2144">
        <ele>336</ele>
        <time>2018-05-07T06:42:56Z</time>
      </trkpt>
      <trkpt lat="44.61308" lon="2.21432">
        <ele>336</ele>
        <time>2018-05-07T06:43:00Z</time>
      </trkpt>
      <trkpt lat="44.61306" lon="2.21426">
        <ele>337</ele>
        <time>2018-05-07T06:43:05Z</time>
      </trkpt>
      <trkpt lat="44.61307" lon="2.21419">
        <ele>338</ele>
        <time>2018-05-07T06:43:10Z</time>
      </trkpt>
      <trkpt lat="44.6131" lon="2.21413">
        <ele>338</ele>
        <time>2018-05-07T06:43:14Z</time>
      </trkpt>
      <trkpt lat="44.61324" lon="2.21392">
        <ele>338</ele>
        <time>2018-05-07T06:43:31Z</time>
      </trkpt>
      <trkpt lat="44.6133" lon="2.21388">
        <ele>337</ele>
        <time>2018-05-07T06:43:38Z</time>
      </trkpt>
      <trkpt lat="44.61338" lon="2.2138">
        <ele>338</ele>
        <time>2018-05-07T06:43:47Z</time>
      </trkpt>
      <trkpt lat="44.61378" lon="2.21318">
        <ele>342</ele>
        <time>2018-05-07T06:44:36Z</time>
      </trkpt>
      <trkpt lat="44.61382" lon="2.21306">
        <ele>342</ele>
        <time>2018-05-07T06:44:45Z</time>
      </trkpt>
      <trkpt lat="44.61382" lon="2.21299">
        <ele>342</ele>
        <time>2018-05-07T06:44:50Z</time>
      </trkpt>
      <trkpt lat="44.61388" lon="2.2128">
        <ele>343</ele>
        <time>2018-05-07T06:45:04Z</time>
      </trkpt>
      <trkpt lat="44.61393" lon="2.21268">
        <ele>343</ele>
        <time>2018-05-07T06:45:13Z</time>
      </trkpt>
      <trkpt lat="44.61405" lon="2.21201">
        <ele>348</ele>
        <time>2018-05-07T06:45:56Z</time>
      </trkpt>
      <trkpt lat="44.6142" lon="2.21156">
        <ele>351</ele>
        <time>2018-05-07T06:46:29Z</time>
      </trkpt>
      <trkpt lat="44.61461" lon="2.2107">
        <ele>357</ele>
        <time>2018-05-07T06:47:37Z</time>
      </trkpt>
      <trkpt lat="44.61468" lon="2.21059">
        <ele>358</ele>
        <time>2018-05-07T06:47:47Z</time>
      </trkpt>
      <trkpt lat="44.61469" lon="2.21053">
        <ele>359</ele>
        <time>2018-05-07T06:47:51Z</time>
      </trkpt>
      <trkpt lat="44.61488" lon="2.21001">
        <ele>363</ele>
        <time>2018-05-07T06:48:28Z</time>
      </trkpt>
      <trkpt lat="44.61493" lon="2.20967">
        <ele>363</ele>
        <time>2018-05-07T06:48:48Z</time>
      </trkpt>
      <trkpt lat="44.61507" lon="2.20928">
        <ele>365</ele>
        <time>2018-05-07T06:49:12Z</time>
      </trkpt>
      <trkpt lat="44.61563" lon="2.20839">
        <ele>371</ele>
        <time>2018-05-07T06:50:28Z</time>
      </trkpt>
      <trkpt lat="44.61577" lon="2.20801">
        <ele>375</ele>
        <time>2018-05-07T06:51:02Z</time>
      </trkpt>
      <trkpt lat="44.61583" lon="2.20752">
        <ele>378</ele>
        <time>2018-05-07T06:51:35Z</time>
      </trkpt>
      <trkpt lat="44.61589" lon="2.20725">
        <ele>379</ele>
        <time>2018-05-07T06:51:54Z</time>
      </trkpt>
      <trkpt lat="44.61591" lon="2.2072">
        <ele>380</ele>
        <time>2018-05-07T06:51:59Z</time>
      </trkpt>
      <trkpt lat="44.61593" lon="2.20712">
        <ele>381</ele>
        <time>2018-05-07T06:52:25Z</time>
      </trkpt>
      <trkpt lat="44.61589" lon="2.20707">
        <ele>381</ele>
        <time>2018-05-07T06:53:26Z</time>
      </trkpt>
      <trkpt lat="44.6159" lon="2.20699">
        <ele>382</ele>
        <time>2018-05-07T06:53:32Z</time>
      </trkpt>
      <trkpt lat="44.61614" lon="2.20631">
        <ele>387</ele>
        <time>2018-05-07T06:54:23Z</time>
      </trkpt>
      <trkpt lat="44.61616" lon="2.20624">
        <ele>388</ele>
        <time>2018-05-07T06:54:27Z</time>
      </trkpt>
      <trkpt lat="44.61652" lon="2.20532">
        <ele>394</ele>
        <time>2018-05-07T06:55:32Z</time>
      </trkpt>
      <trkpt lat="44.6167" lon="2.20453">
        <ele>396</ele>
        <time>2018-05-07T06:56:19Z</time>
      </trkpt>
      <trkpt lat="44.61671" lon="2.20445">
        <ele>396</ele>
        <time>2018-05-07T06:56:23Z</time>
      </trkpt>
      <trkpt lat="44.61669" lon="2.20424">
        <ele>397</ele>
        <time>2018-05-07T06:56:36Z</time>
      </trkpt>
      <trkpt lat="44.61684" lon="2.20133">
        <ele>398</ele>
        <time>2018-05-07T06:59:18Z</time>
      </trkpt>
      <trkpt lat="44.61677" lon="2.20077">
        <ele>397</ele>
        <time>2018-05-07T06:59:50Z</time>
      </trkpt>
      <trkpt lat="44.61659" lon="2.20003">
        <ele>401</ele>
        <time>2018-05-07T07:00:34Z</time>
      </trkpt>
      <trkpt lat="44.61649" lon="2.19977">
        <ele>401</ele>
        <time>2018-05-07T07:00:51Z</time>
      </trkpt>
      <trkpt lat="44.61641" lon="2.19966">
        <ele>401</ele>
        <time>2018-05-07T07:00:59Z</time>
      </trkpt>
      <trkpt lat="44.61623" lon="2.1995">
        <ele>400</ele>
        <time>2018-05-07T07:01:15Z</time>
      </trkpt>
      <trkpt lat="44.61614" lon="2.19946">
        <ele>399</ele>
        <time>2018-05-07T07:01:22Z</time>
      </trkpt>
      <trkpt lat="44.61611" lon="2.19941">
        <ele>399</ele>
        <time>2018-05-07T07:01:26Z</time>
      </trkpt>
      <trkpt lat="44.6159" lon="2.19934">
        <ele>398</ele>
        <time>2018-05-07T07:01:42Z</time>
      </trkpt>
      <trkpt lat="44.61587" lon="2.19929">
        <ele>397</ele>
        <time>2018-05-07T07:01:47Z</time>
      </trkpt>
      <trkpt lat="44.61584" lon="2.19922">
        <ele>397</ele>
        <time>2018-05-07T07:01:51Z</time>
      </trkpt>
      <trkpt lat="44.61577" lon="2.1991">
        <ele>397</ele>
        <time>2018-05-07T07:02:00Z</time>
      </trkpt>
      <trkpt lat="44.61578" lon="2.19901">
        <ele>397</ele>
        <time>2018-05-07T07:02:05Z</time>
      </trkpt>
      <trkpt lat="44.616" lon="2.1985">
        <ele>399</ele>
        <time>2018-05-07T07:02:37Z</time>
      </trkpt>
      <trkpt lat="44.61603" lon="2.19845">
        <ele>399</ele>
        <time>2018-05-07T07:02:42Z</time>
      </trkpt>
      <trkpt lat="44.61608" lon="2.1984">
        <ele>399</ele>
        <time>2018-05-07T07:02:49Z</time>
      </trkpt>
      <trkpt lat="44.61614" lon="2.19828">
        <ele>400</ele>
        <time>2018-05-07T07:02:57Z</time>
      </trkpt>
      <trkpt lat="44.61616" lon="2.19816">
        <ele>400</ele>
        <time>2018-05-07T07:03:02Z</time>
      </trkpt>
      <trkpt lat="44.6162" lon="2.1981">
        <ele>401</ele>
        <time>2018-05-07T07:03:07Z</time>
      </trkpt>
      <trkpt lat="44.6163" lon="2.19803">
        <ele>401</ele>
        <time>2018-05-07T07:03:14Z</time>
      </trkpt>
      <trkpt lat="44.61632" lon="2.19796">
        <ele>402</ele>
        <time>2018-05-07T07:03:18Z</time>
      </trkpt>
      <trkpt lat="44.61633" lon="2.19788">
        <ele>402</ele>
        <time>2018-05-07T07:03:22Z</time>
      </trkpt>
      <trkpt lat="44.61636" lon="2.19782">
        <ele>402</ele>
        <time>2018-05-07T07:03:27Z</time>
      </trkpt>
      <trkpt lat="44.6164" lon="2.19778">
        <ele>402</ele>
        <time>2018-05-07T07:03:31Z</time>
      </trkpt>
      <trkpt lat="44.61642" lon="2.1977">
        <ele>402</ele>
        <time>2018-05-07T07:03:36Z</time>
      </trkpt>
      <trkpt lat="44.61637" lon="2.19711">
        <ele>401</ele>
        <time>2018-05-07T07:04:04Z</time>
      </trkpt>
      <trkpt lat="44.61632" lon="2.19683">
        <ele>400</ele>
        <time>2018-05-07T07:04:20Z</time>
      </trkpt>
      <trkpt lat="44.61632" lon="2.19675">
        <ele>399</ele>
        <time>2018-05-07T07:04:24Z</time>
      </trkpt>
      <trkpt lat="44.61634" lon="2.19668">
        <ele>399</ele>
        <time>2018-05-07T07:04:29Z</time>
      </trkpt>
      <trkpt lat="44.61644" lon="2.1965">
        <ele>400</ele>
        <time>2018-05-07T07:04:41Z</time>
      </trkpt>
      <trkpt lat="44.61654" lon="2.19646">
        <ele>400</ele>
        <time>2018-05-07T07:04:48Z</time>
      </trkpt>
      <trkpt lat="44.61663" lon="2.19638">
        <ele>401</ele>
        <time>2018-05-07T07:04:56Z</time>
      </trkpt>
      <trkpt lat="44.61668" lon="2.19625">
        <ele>402</ele>
        <time>2018-05-07T07:05:05Z</time>
      </trkpt>
      <trkpt lat="44.6168" lon="2.19609">
        <ele>404</ele>
        <time>2018-05-07T07:05:20Z</time>
      </trkpt>
      <trkpt lat="44.61685" lon="2.19596">
        <ele>404</ele>
        <time>2018-05-07T07:05:30Z</time>
      </trkpt>
      <trkpt lat="44.61696" lon="2.19542">
        <ele>407</ele>
        <time>2018-05-07T07:06:03Z</time>
      </trkpt>
      <trkpt lat="44.617" lon="2.19467">
        <ele>407</ele>
        <time>2018-05-07T07:06:44Z</time>
      </trkpt>
      <trkpt lat="44.61697" lon="2.19427">
        <ele>403</ele>
        <time>2018-05-07T07:07:06Z</time>
      </trkpt>
      <trkpt lat="44.61695" lon="2.19421">
        <ele>402</ele>
        <time>2018-05-07T07:07:10Z</time>
      </trkpt>
      <trkpt lat="44.61693" lon="2.19395">
        <ele>399</ele>
        <time>2018-05-07T07:07:26Z</time>
      </trkpt>
      <trkpt lat="44.61695" lon="2.19379">
        <ele>398</ele>
        <time>2018-05-07T07:07:35Z</time>
      </trkpt>
      <trkpt lat="44.61693" lon="2.19365">
        <ele>398</ele>
        <time>2018-05-07T07:07:41Z</time>
      </trkpt>
      <trkpt lat="44.61693" lon="2.19351">
        <ele>398</ele>
        <time>2018-05-07T07:07:49Z</time>
      </trkpt>
      <trkpt lat="44.61704" lon="2.19274">
        <ele>397</ele>
        <time>2018-05-07T07:08:51Z</time>
      </trkpt>
      <trkpt lat="44.61695" lon="2.19274">
        <ele>396</ele>
        <time>2018-05-07T07:09:07Z</time>
      </trkpt>
      <trkpt lat="44.61699" lon="2.19271">
        <ele>397</ele>
        <time>2018-05-07T07:09:45Z</time>
      </trkpt>
      <trkpt lat="44.61703" lon="2.19267">
        <ele>397</ele>
        <time>2018-05-07T07:09:50Z</time>
      </trkpt>
      <trkpt lat="44.61707" lon="2.19263">
        <ele>398</ele>
        <time>2018-05-07T07:10:00Z</time>
      </trkpt>
      <trkpt lat="44.61709" lon="2.19272">
        <ele>398</ele>
        <time>2018-05-07T07:10:36Z</time>
      </trkpt>
      <trkpt lat="44.61717" lon="2.19267">
        <ele>398</ele>
        <time>2018-05-07T07:13:17Z</time>
      </trkpt>
      <trkpt lat="44.6173" lon="2.19254">
        <ele>399</ele>
        <time>2018-05-07T07:13:30Z</time>
      </trkpt>
      <trkpt lat="44.61751" lon="2.19237">
        <ele>401</ele>
        <time>2018-05-07T07:13:52Z</time>
      </trkpt>
      <trkpt lat="44.61777" lon="2.19204">
        <ele>405</ele>
        <time>2018-05-07T07:14:24Z</time>
      </trkpt>
      <trkpt lat="44.61781" lon="2.192">
        <ele>406</ele>
        <time>2018-05-07T07:14:29Z</time>
      </trkpt>
      <trkpt lat="44.61796" lon="2.19176">
        <ele>408</ele>
        <time>2018-05-07T07:14:54Z</time>
      </trkpt>
      <trkpt lat="44.61797" lon="2.19169">
        <ele>410</ele>
        <time>2018-05-07T07:15:06Z</time>
      </trkpt>
      <trkpt lat="44.61801" lon="2.1916">
        <ele>409</ele>
        <time>2018-05-07T07:15:23Z</time>
      </trkpt>
      <trkpt lat="44.61805" lon="2.19156">
        <ele>410</ele>
        <time>2018-05-07T07:15:28Z</time>
      </trkpt>
      <trkpt lat="44.6181" lon="2.19137">
        <ele>411</ele>
        <time>2018-05-07T07:15:42Z</time>
      </trkpt>
      <trkpt lat="44.61808" lon="2.1913">
        <ele>412</ele>
        <time>2018-05-07T07:15:46Z</time>
      </trkpt>
      <trkpt lat="44.61811" lon="2.19124">
        <ele>412</ele>
        <time>2018-05-07T07:15:51Z</time>
      </trkpt>
      <trkpt lat="44.61814" lon="2.1912">
        <ele>413</ele>
        <time>2018-05-07T07:15:56Z</time>
      </trkpt>
      <trkpt lat="44.61818" lon="2.19114">
        <ele>413</ele>
        <time>2018-05-07T07:16:00Z</time>
      </trkpt>
      <trkpt lat="44.61821" lon="2.19109">
        <ele>413</ele>
        <time>2018-05-07T07:16:04Z</time>
      </trkpt>
      <trkpt lat="44.61825" lon="2.19096">
        <ele>414</ele>
        <time>2018-05-07T07:16:12Z</time>
      </trkpt>
      <trkpt lat="44.61829" lon="2.19091">
        <ele>414</ele>
        <time>2018-05-07T07:16:16Z</time>
      </trkpt>
      <trkpt lat="44.61829" lon="2.19082">
        <ele>415</ele>
        <time>2018-05-07T07:16:23Z</time>
      </trkpt>
      <trkpt lat="44.61825" lon="2.19076">
        <ele>415</ele>
        <time>2018-05-07T07:16:28Z</time>
      </trkpt>
      <trkpt lat="44.6182" lon="2.19075">
        <ele>416</ele>
        <time>2018-05-07T07:16:36Z</time>
      </trkpt>
      <trkpt lat="44.61826" lon="2.19065">
        <ele>416</ele>
        <time>2018-05-07T07:16:54Z</time>
      </trkpt>
      <trkpt lat="44.61824" lon="2.19071">
        <ele>415</ele>
        <time>2018-05-07T07:17:25Z</time>
      </trkpt>
      <trkpt lat="44.6182" lon="2.19074">
        <ele>416</ele>
        <time>2018-05-07T07:17:37Z</time>
      </trkpt>
      <trkpt lat="44.61816" lon="2.19065">
        <ele>416</ele>
        <time>2018-05-07T07:18:13Z</time>
      </trkpt>
      <trkpt lat="44.61812" lon="2.19073">
        <ele>415</ele>
        <time>2018-05-07T07:21:57Z</time>
      </trkpt>
      <trkpt lat="44.61817" lon="2.19072">
        <ele>415</ele>
        <time>2018-05-07T07:22:02Z</time>
      </trkpt>
      <trkpt lat="44.61821" lon="2.19068">
        <ele>415</ele>
        <time>2018-05-07T07:22:06Z</time>
      </trkpt>
      <trkpt lat="44.61831" lon="2.19063">
        <ele>414</ele>
        <time>2018-05-07T07:22:14Z</time>
      </trkpt>
      <trkpt lat="44.61828" lon="2.19058">
        <ele>416</ele>
        <time>2018-05-07T07:27:52Z</time>
      </trkpt>
      <trkpt lat="44.61812" lon="2.19039">
        <ele>417</ele>
        <time>2018-05-07T07:28:07Z</time>
      </trkpt>
      <trkpt lat="44.61808" lon="2.19035">
        <ele>417</ele>
        <time>2018-05-07T07:28:12Z</time>
      </trkpt>
      <trkpt lat="44.61803" lon="2.19035">
        <ele>417</ele>
        <time>2018-05-07T07:28:17Z</time>
      </trkpt>
      <trkpt lat="44.61801" lon="2.19049">
        <ele>419</ele>
        <time>2018-05-07T07:29:03Z</time>
      </trkpt>
      <trkpt lat="44.618" lon="2.19046">
        <ele>418</ele>
        <time>2018-05-07T07:30:00Z</time>
      </trkpt>
      <trkpt lat="44.61788" lon="2.19034">
        <ele>417</ele>
        <time>2018-05-07T07:30:10Z</time>
      </trkpt>
      <trkpt lat="44.61787" lon="2.19027">
        <ele>417</ele>
        <time>2018-05-07T07:30:14Z</time>
      </trkpt>
      <trkpt lat="44.61786" lon="2.19019">
        <ele>416</ele>
        <time>2018-05-07T07:30:18Z</time>
      </trkpt>
      <trkpt lat="44.61785" lon="2.19013">
        <ele>416</ele>
        <time>2018-05-07T07:30:22Z</time>
      </trkpt>
      <trkpt lat="44.61771" lon="2.19003">
        <ele>414</ele>
        <time>2018-05-07T07:30:34Z</time>
      </trkpt>
      <trkpt lat="44.61721" lon="2.18912">
        <ele>405</ele>
        <time>2018-05-07T07:31:33Z</time>
      </trkpt>
      <trkpt lat="44.61704" lon="2.18875">
        <ele>401</ele>
        <time>2018-05-07T07:31:57Z</time>
      </trkpt>
      <trkpt lat="44.61697" lon="2.18855">
        <ele>399</ele>
        <time>2018-05-07T07:32:09Z</time>
      </trkpt>
      <trkpt lat="44.61698" lon="2.18847">
        <ele>399</ele>
        <time>2018-05-07T07:32:13Z</time>
      </trkpt>
      <trkpt lat="44.617" lon="2.1884">
        <ele>398</ele>
        <time>2018-05-07T07:32:17Z</time>
      </trkpt>
      <trkpt lat="44.617" lon="2.18834">
        <ele>397</ele>
        <time>2018-05-07T07:32:21Z</time>
      </trkpt>
      <trkpt lat="44.61702" lon="2.18827">
        <ele>397</ele>
        <time>2018-05-07T07:32:25Z</time>
      </trkpt>
      <trkpt lat="44.61716" lon="2.18805">
        <ele>396</ele>
        <time>2018-05-07T07:32:40Z</time>
      </trkpt>
      <trkpt lat="44.61728" lon="2.18791">
        <ele>394</ele>
        <time>2018-05-07T07:32:52Z</time>
      </trkpt>
      <trkpt lat="44.61737" lon="2.18784">
        <ele>392</ele>
        <time>2018-05-07T07:33:01Z</time>
      </trkpt>
      <trkpt lat="44.61742" lon="2.18782">
        <ele>391</ele>
        <time>2018-05-07T07:33:05Z</time>
      </trkpt>
      <trkpt lat="44.61824" lon="2.18777">
        <ele>382</ele>
        <time>2018-05-07T07:34:02Z</time>
      </trkpt>
      <trkpt lat="44.6185" lon="2.18778">
        <ele>379</ele>
        <time>2018-05-07T07:34:23Z</time>
      </trkpt>
      <trkpt lat="44.6186" lon="2.18774">
        <ele>378</ele>
        <time>2018-05-07T07:34:31Z</time>
      </trkpt>
      <trkpt lat="44.61881" lon="2.18753">
        <ele>375</ele>
        <time>2018-05-07T07:34:52Z</time>
      </trkpt>
      <trkpt lat="44.61894" lon="2.18713">
        <ele>372</ele>
        <time>2018-05-07T07:35:19Z</time>
      </trkpt>
      <trkpt lat="44.619" lon="2.18702">
        <ele>371</ele>
        <time>2018-05-07T07:35:27Z</time>
      </trkpt>
      <trkpt lat="44.61906" lon="2.18651">
        <ele>368</ele>
        <time>2018-05-07T07:35:54Z</time>
      </trkpt>
      <trkpt lat="44.61902" lon="2.1863">
        <ele>366</ele>
        <time>2018-05-07T07:36:07Z</time>
      </trkpt>
      <trkpt lat="44.61902" lon="2.18623">
        <ele>366</ele>
        <time>2018-05-07T07:36:11Z</time>
      </trkpt>
      <trkpt lat="44.61923" lon="2.18304">
        <ele>380</ele>
        <time>2018-05-07T07:39:18Z</time>
      </trkpt>
      <trkpt lat="44.61922" lon="2.18297">
        <ele>380</ele>
        <time>2018-05-07T07:39:21Z</time>
      </trkpt>
      <trkpt lat="44.61923" lon="2.18284">
        <ele>381</ele>
        <time>2018-05-07T07:39:29Z</time>
      </trkpt>
      <trkpt lat="44.61926" lon="2.18271">
        <ele>382</ele>
        <time>2018-05-07T07:39:39Z</time>
      </trkpt>
      <trkpt lat="44.61926" lon="2.18256">
        <ele>383</ele>
        <time>2018-05-07T07:39:47Z</time>
      </trkpt>
      <trkpt lat="44.61933" lon="2.18212">
        <ele>385</ele>
        <time>2018-05-07T07:40:20Z</time>
      </trkpt>
      <trkpt lat="44.61932" lon="2.18199">
        <ele>386</ele>
        <time>2018-05-07T07:40:28Z</time>
      </trkpt>
      <trkpt lat="44.61928" lon="2.18186">
        <ele>387</ele>
        <time>2018-05-07T07:40:36Z</time>
      </trkpt>
      <trkpt lat="44.61925" lon="2.1818">
        <ele>387</ele>
        <time>2018-05-07T07:40:41Z</time>
      </trkpt>
      <trkpt lat="44.61918" lon="2.18169">
        <ele>386</ele>
        <time>2018-05-07T07:40:50Z</time>
      </trkpt>
      <trkpt lat="44.6191" lon="2.1816">
        <ele>386</ele>
        <time>2018-05-07T07:40:58Z</time>
      </trkpt>
      <trkpt lat="44.619" lon="2.18156">
        <ele>386</ele>
        <time>2018-05-07T07:41:06Z</time>
      </trkpt>
      <trkpt lat="44.61832" lon="2.18146">
        <ele>388</ele>
        <time>2018-05-07T07:41:57Z</time>
      </trkpt>
      <trkpt lat="44.61812" lon="2.18141">
        <ele>388</ele>
        <time>2018-05-07T07:42:13Z</time>
      </trkpt>
      <trkpt lat="44.61801" lon="2.18135">
        <ele>389</ele>
        <time>2018-05-07T07:42:21Z</time>
      </trkpt>
      <trkpt lat="44.6177" lon="2.18105">
        <ele>391</ele>
        <time>2018-05-07T07:43:20Z</time>
      </trkpt>
      <trkpt lat="44.61759" lon="2.18099">
        <ele>392</ele>
        <time>2018-05-07T07:43:50Z</time>
      </trkpt>
      <trkpt lat="44.61689" lon="2.18039">
        <ele>392</ele>
        <time>2018-05-07T07:44:48Z</time>
      </trkpt>
      <trkpt lat="44.61685" lon="2.18033">
        <ele>392</ele>
        <time>2018-05-07T07:44:52Z</time>
      </trkpt>
      <trkpt lat="44.61683" lon="2.18025">
        <ele>392</ele>
        <time>2018-05-07T07:44:56Z</time>
      </trkpt>
      <trkpt lat="44.61682" lon="2.18004">
        <ele>392</ele>
        <time>2018-05-07T07:45:06Z</time>
      </trkpt>
      <trkpt lat="44.61692" lon="2.17967">
        <ele>393</ele>
        <time>2018-05-07T07:45:26Z</time>
      </trkpt>
      <trkpt lat="44.61709" lon="2.17927">
        <ele>394</ele>
        <time>2018-05-07T07:45:50Z</time>
      </trkpt>
      <trkpt lat="44.6171" lon="2.1792">
        <ele>393</ele>
        <time>2018-05-07T07:45:54Z</time>
      </trkpt>
      <trkpt lat="44.6171" lon="2.17912">
        <ele>393</ele>
        <time>2018-05-07T07:45:58Z</time>
      </trkpt>
      <trkpt lat="44.61708" lon="2.17905">
        <ele>393</ele>
        <time>2018-05-07T07:46:02Z</time>
      </trkpt>
      <trkpt lat="44.61697" lon="2.17891">
        <ele>392</ele>
        <time>2018-05-07T07:46:15Z</time>
      </trkpt>
      <trkpt lat="44.61694" lon="2.17885">
        <ele>391</ele>
        <time>2018-05-07T07:46:19Z</time>
      </trkpt>
      <trkpt lat="44.61693" lon="2.17878">
        <ele>390</ele>
        <time>2018-05-07T07:46:23Z</time>
      </trkpt>
      <trkpt lat="44.61696" lon="2.1787">
        <ele>390</ele>
        <time>2018-05-07T07:46:27Z</time>
      </trkpt>
      <trkpt lat="44.617" lon="2.17867">
        <ele>390</ele>
        <time>2018-05-07T07:46:30Z</time>
      </trkpt>
      <trkpt lat="44.61704" lon="2.17865">
        <ele>390</ele>
        <time>2018-05-07T07:46:34Z</time>
      </trkpt>
      <trkpt lat="44.6171" lon="2.17857">
        <ele>389</ele>
        <time>2018-05-07T07:46:40Z</time>
      </trkpt>
      <trkpt lat="44.6172" lon="2.17849">
        <ele>389</ele>
        <time>2018-05-07T07:46:48Z</time>
      </trkpt>
      <trkpt lat="44.61726" lon="2.17849">
        <ele>389</ele>
        <time>2018-05-07T07:46:51Z</time>
      </trkpt>
      <trkpt lat="44.61742" lon="2.17857">
        <ele>390</ele>
        <time>2018-05-07T07:47:01Z</time>
      </trkpt>
      <trkpt lat="44.61748" lon="2.17857">
        <ele>390</ele>
        <time>2018-05-07T07:47:05Z</time>
      </trkpt>
      <trkpt lat="44.61758" lon="2.1785">
        <ele>390</ele>
        <time>2018-05-07T07:47:14Z</time>
      </trkpt>
      <trkpt lat="44.61761" lon="2.17845">
        <ele>389</ele>
        <time>2018-05-07T07:47:18Z</time>
      </trkpt>
      <trkpt lat="44.61766" lon="2.1783">
        <ele>388</ele>
        <time>2018-05-07T07:47:28Z</time>
      </trkpt>
      <trkpt lat="44.61768" lon="2.17814">
        <ele>387</ele>
        <time>2018-05-07T07:47:36Z</time>
      </trkpt>
      <trkpt lat="44.61784" lon="2.17778">
        <ele>383</ele>
        <time>2018-05-07T07:48:00Z</time>
      </trkpt>
      <trkpt lat="44.61789" lon="2.17773">
        <ele>382</ele>
        <time>2018-05-07T07:48:04Z</time>
      </trkpt>
      <trkpt lat="44.61794" lon="2.17773">
        <ele>382</ele>
        <time>2018-05-07T07:48:07Z</time>
      </trkpt>
      <trkpt lat="44.61825" lon="2.17779">
        <ele>379</ele>
        <time>2018-05-07T07:48:27Z</time>
      </trkpt>
      <trkpt lat="44.61835" lon="2.17775">
        <ele>378</ele>
        <time>2018-05-07T07:48:35Z</time>
      </trkpt>
      <trkpt lat="44.61844" lon="2.17766">
        <ele>376</ele>
        <time>2018-05-07T07:48:43Z</time>
      </trkpt>
      <trkpt lat="44.61864" lon="2.17726">
        <ele>374</ele>
        <time>2018-05-07T07:49:08Z</time>
      </trkpt>
      <trkpt lat="44.61867" lon="2.17719">
        <ele>375</ele>
        <time>2018-05-07T07:49:12Z</time>
      </trkpt>
      <trkpt lat="44.61869" lon="2.1769">
        <ele>378</ele>
        <time>2018-05-07T07:49:29Z</time>
      </trkpt>
      <trkpt lat="44.61887" lon="2.17654">
        <ele>380</ele>
        <time>2018-05-07T07:49:53Z</time>
      </trkpt>
      <trkpt lat="44.61893" lon="2.17617">
        <ele>381</ele>
        <time>2018-05-07T07:50:13Z</time>
      </trkpt>
      <trkpt lat="44.61896" lon="2.1761">
        <ele>381</ele>
        <time>2018-05-07T07:50:17Z</time>
      </trkpt>
      <trkpt lat="44.619" lon="2.17605">
        <ele>381</ele>
        <time>2018-05-07T07:50:21Z</time>
      </trkpt>
      <trkpt lat="44.6192" lon="2.17598">
        <ele>381</ele>
        <time>2018-05-07T07:50:36Z</time>
      </trkpt>
      <trkpt lat="44.61925" lon="2.17594">
        <ele>381</ele>
        <time>2018-05-07T07:50:40Z</time>
      </trkpt>
      <trkpt lat="44.61929" lon="2.17589">
        <ele>381</ele>
        <time>2018-05-07T07:50:44Z</time>
      </trkpt>
      <trkpt lat="44.61994" lon="2.17425">
        <ele>374</ele>
        <time>2018-05-07T07:52:24Z</time>
      </trkpt>
      <trkpt lat="44.61994" lon="2.17404">
        <ele>373</ele>
        <time>2018-05-07T07:52:36Z</time>
      </trkpt>
      <trkpt lat="44.61993" lon="2.17391">
        <ele>372</ele>
        <time>2018-05-07T07:52:44Z</time>
      </trkpt>
      <trkpt lat="44.61916" lon="2.17156">
        <ele>359</ele>
        <time>2018-05-07T07:55:06Z</time>
      </trkpt>
      <trkpt lat="44.61902" lon="2.17056">
        <ele>355</ele>
        <time>2018-05-07T07:55:59Z</time>
      </trkpt>
      <trkpt lat="44.61903" lon="2.17048">
        <ele>354</ele>
        <time>2018-05-07T07:56:04Z</time>
      </trkpt>
      <trkpt lat="44.61905" lon="2.17041">
        <ele>354</ele>
        <time>2018-05-07T07:56:08Z</time>
      </trkpt>
      <trkpt lat="44.61918" lon="2.16922">
        <ele>352</ele>
        <time>2018-05-07T07:57:12Z</time>
      </trkpt>
      <trkpt lat="44.61917" lon="2.16887">
        <ele>351</ele>
        <time>2018-05-07T07:57:31Z</time>
      </trkpt>
      <trkpt lat="44.61924" lon="2.16857">
        <ele>350</ele>
        <time>2018-05-07T07:57:47Z</time>
      </trkpt>
      <trkpt lat="44.61919" lon="2.16852">
        <ele>350</ele>
        <time>2018-05-07T07:57:54Z</time>
      </trkpt>
      <trkpt lat="44.6189" lon="2.16838">
        <ele>351</ele>
        <time>2018-05-07T07:58:21Z</time>
      </trkpt>
      <trkpt lat="44.61789" lon="2.16814">
        <ele>345</ele>
        <time>2018-05-07T07:59:41Z</time>
      </trkpt>
      <trkpt lat="44.61774" lon="2.16817">
        <ele>344</ele>
        <time>2018-05-07T07:59:53Z</time>
      </trkpt>
      <trkpt lat="44.61759" lon="2.16822">
        <ele>343</ele>
        <time>2018-05-07T08:00:05Z</time>
      </trkpt>
      <trkpt lat="44.61754" lon="2.16825">
        <ele>343</ele>
        <time>2018-05-07T08:00:09Z</time>
      </trkpt>
      <trkpt lat="44.6175" lon="2.1683">
        <ele>342</ele>
        <time>2018-05-07T08:00:13Z</time>
      </trkpt>
      <trkpt lat="44.61726" lon="2.16849">
        <ele>340</ele>
        <time>2018-05-07T08:00:33Z</time>
      </trkpt>
      <trkpt lat="44.61716" lon="2.16854">
        <ele>340</ele>
        <time>2018-05-07T08:00:41Z</time>
      </trkpt>
      <trkpt lat="44.61702" lon="2.16855">
        <ele>339</ele>
        <time>2018-05-07T08:00:52Z</time>
      </trkpt>
      <trkpt lat="44.6169" lon="2.16852">
        <ele>339</ele>
        <time>2018-05-07T08:01:02Z</time>
      </trkpt>
      <trkpt lat="44.61686" lon="2.16836">
        <ele>339</ele>
        <time>2018-05-07T08:01:15Z</time>
      </trkpt>
      <trkpt lat="44.61687" lon="2.1683">
        <ele>337</ele>
        <time>2018-05-07T08:01:20Z</time>
      </trkpt>
      <trkpt lat="44.61685" lon="2.16815">
        <ele>336</ele>
        <time>2018-05-07T08:01:28Z</time>
      </trkpt>
      <trkpt lat="44.61683" lon="2.16809">
        <ele>335</ele>
        <time>2018-05-07T08:01:32Z</time>
      </trkpt>
      <trkpt lat="44.61681" lon="2.16787">
        <ele>333</ele>
        <time>2018-05-07T08:01:44Z</time>
      </trkpt>
      <trkpt lat="44.61678" lon="2.16773">
        <ele>332</ele>
        <time>2018-05-07T08:01:53Z</time>
      </trkpt>
      <trkpt lat="44.6168" lon="2.16728">
        <ele>327</ele>
        <time>2018-05-07T08:02:17Z</time>
      </trkpt>
      <trkpt lat="44.61682" lon="2.16718">
        <ele>326</ele>
        <time>2018-05-07T08:02:25Z</time>
      </trkpt>
      <trkpt lat="44.61681" lon="2.16711">
        <ele>326</ele>
        <time>2018-05-07T08:02:30Z</time>
      </trkpt>
      <trkpt lat="44.61675" lon="2.16699">
        <ele>325</ele>
        <time>2018-05-07T08:02:38Z</time>
      </trkpt>
      <trkpt lat="44.61669" lon="2.16667">
        <ele>323</ele>
        <time>2018-05-07T08:03:00Z</time>
      </trkpt>
      <trkpt lat="44.61667" lon="2.16661">
        <ele>322</ele>
        <time>2018-05-07T08:03:08Z</time>
      </trkpt>
      <trkpt lat="44.61667" lon="2.16654">
        <ele>320</ele>
        <time>2018-05-07T08:03:14Z</time>
      </trkpt>
      <trkpt lat="44.61666" lon="2.16647">
        <ele>320</ele>
        <time>2018-05-07T08:03:19Z</time>
      </trkpt>
      <trkpt lat="44.61656" lon="2.16623">
        <ele>318</ele>
        <time>2018-05-07T08:03:38Z</time>
      </trkpt>
      <trkpt lat="44.61654" lon="2.16617">
        <ele>318</ele>
        <time>2018-05-07T08:03:43Z</time>
      </trkpt>
      <trkpt lat="44.61655" lon="2.16608">
        <ele>316</ele>
        <time>2018-05-07T08:03:53Z</time>
      </trkpt>
      <trkpt lat="44.61644" lon="2.16564">
        <ele>311</ele>
        <time>2018-05-07T08:04:58Z</time>
      </trkpt>
      <trkpt lat="44.61644" lon="2.16557">
        <ele>310</ele>
        <time>2018-05-07T08:05:10Z</time>
      </trkpt>
      <trkpt lat="44.61635" lon="2.16546">
        <ele>308</ele>
        <time>2018-05-07T08:05:40Z</time>
      </trkpt>
      <trkpt lat="44.61633" lon="2.16535">
        <ele>306</ele>
        <time>2018-05-07T08:05:51Z</time>
      </trkpt>
      <trkpt lat="44.6163" lon="2.16529">
        <ele>305</ele>
        <time>2018-05-07T08:05:55Z</time>
      </trkpt>
      <trkpt lat="44.61617" lon="2.16513">
        <ele>303</ele>
        <time>2018-05-07T08:06:11Z</time>
      </trkpt>
      <trkpt lat="44.61612" lon="2.16502">
        <ele>301</ele>
        <time>2018-05-07T08:06:22Z</time>
      </trkpt>
      <trkpt lat="44.61605" lon="2.16488">
        <ele>299</ele>
        <time>2018-05-07T08:06:33Z</time>
      </trkpt>
      <trkpt lat="44.61604" lon="2.16481">
        <ele>298</ele>
        <time>2018-05-07T08:06:37Z</time>
      </trkpt>
      <trkpt lat="44.61608" lon="2.16452">
        <ele>297</ele>
        <time>2018-05-07T08:06:53Z</time>
      </trkpt>
      <trkpt lat="44.61606" lon="2.16444">
        <ele>296</ele>
        <time>2018-05-07T08:06:57Z</time>
      </trkpt>
      <trkpt lat="44.61589" lon="2.16399">
        <ele>294</ele>
        <time>2018-05-07T08:07:27Z</time>
      </trkpt>
      <trkpt lat="44.61584" lon="2.16396">
        <ele>294</ele>
        <time>2018-05-07T08:07:31Z</time>
      </trkpt>
      <trkpt lat="44.61579" lon="2.16396">
        <ele>294</ele>
        <time>2018-05-07T08:07:36Z</time>
      </trkpt>
      <trkpt lat="44.61569" lon="2.16397">
        <ele>293</ele>
        <time>2018-05-07T08:07:45Z</time>
      </trkpt>
      <trkpt lat="44.61564" lon="2.16396">
        <ele>293</ele>
        <time>2018-05-07T08:07:49Z</time>
      </trkpt>
      <trkpt lat="44.61554" lon="2.16396">
        <ele>292</ele>
        <time>2018-05-07T08:07:58Z</time>
      </trkpt>
      <trkpt lat="44.61543" lon="2.16394">
        <ele>292</ele>
        <time>2018-05-07T08:08:06Z</time>
      </trkpt>
      <trkpt lat="44.61533" lon="2.16393">
        <ele>291</ele>
        <time>2018-05-07T08:08:14Z</time>
      </trkpt>
      <trkpt lat="44.61507" lon="2.16388">
        <ele>290</ele>
        <time>2018-05-07T08:08:36Z</time>
      </trkpt>
      <trkpt lat="44.61478" lon="2.1639">
        <ele>289</ele>
        <time>2018-05-07T08:09:01Z</time>
      </trkpt>
      <trkpt lat="44.61439" lon="2.16404">
        <ele>288</ele>
        <time>2018-05-07T08:09:32Z</time>
      </trkpt>
      <trkpt lat="44.6141" lon="2.16423">
        <ele>286</ele>
        <time>2018-05-07T08:09:56Z</time>
      </trkpt>
      <trkpt lat="44.61406" lon="2.16428">
        <ele>286</ele>
        <time>2018-05-07T08:10:01Z</time>
      </trkpt>
      <trkpt lat="44.614" lon="2.1643">
        <ele>285</ele>
        <time>2018-05-07T08:10:06Z</time>
      </trkpt>
      <trkpt lat="44.61396" lon="2.16427">
        <ele>285</ele>
        <time>2018-05-07T08:10:09Z</time>
      </trkpt>
      <trkpt lat="44.61393" lon="2.16423">
        <ele>285</ele>
        <time>2018-05-07T08:10:13Z</time>
      </trkpt>
      <trkpt lat="44.61388" lon="2.16411">
        <ele>284</ele>
        <time>2018-05-07T08:10:21Z</time>
      </trkpt>
      <trkpt lat="44.61384" lon="2.16406">
        <ele>284</ele>
        <time>2018-05-07T08:10:25Z</time>
      </trkpt>
      <trkpt lat="44.61379" lon="2.16379">
        <ele>283</ele>
        <time>2018-05-07T08:10:42Z</time>
      </trkpt>
      <trkpt lat="44.61372" lon="2.16377">
        <ele>282</ele>
        <time>2018-05-07T08:11:06Z</time>
      </trkpt>
      <trkpt lat="44.61366" lon="2.16388">
        <ele>282</ele>
        <time>2018-05-07T08:11:56Z</time>
      </trkpt>
      <trkpt lat="44.61371" lon="2.16389">
        <ele>283</ele>
        <time>2018-05-07T08:12:08Z</time>
      </trkpt>
      <trkpt lat="44.61379" lon="2.16371">
        <ele>281</ele>
        <time>2018-05-07T08:13:51Z</time>
      </trkpt>
      <trkpt lat="44.61377" lon="2.16357">
        <ele>281</ele>
        <time>2018-05-07T08:14:27Z</time>
      </trkpt>
      <trkpt lat="44.61387" lon="2.16338">
        <ele>281</ele>
        <time>2018-05-07T08:14:39Z</time>
      </trkpt>
      <trkpt lat="44.61402" lon="2.16268">
        <ele>280</ele>
        <time>2018-05-07T08:15:19Z</time>
      </trkpt>
      <trkpt lat="44.61406" lon="2.16265">
        <ele>280</ele>
        <time>2018-05-07T08:15:23Z</time>
      </trkpt>
      <trkpt lat="44.61417" lon="2.16267">
        <ele>280</ele>
        <time>2018-05-07T08:15:31Z</time>
      </trkpt>
      <trkpt lat="44.61475" lon="2.16268">
        <ele>286</ele>
        <time>2018-05-07T08:16:19Z</time>
      </trkpt>
      <trkpt lat="44.61494" lon="2.16261">
        <ele>289</ele>
        <time>2018-05-07T08:16:36Z</time>
      </trkpt>
      <trkpt lat="44.61503" lon="2.16254">
        <ele>290</ele>
        <time>2018-05-07T08:16:46Z</time>
      </trkpt>
      <trkpt lat="44.61506" lon="2.16247">
        <ele>290</ele>
        <time>2018-05-07T08:17:13Z</time>
      </trkpt>
      <trkpt lat="44.61525" lon="2.16223">
        <ele>289</ele>
        <time>2018-05-07T08:17:33Z</time>
      </trkpt>
      <trkpt lat="44.61549" lon="2.16197">
        <ele>288</ele>
        <time>2018-05-07T08:17:55Z</time>
      </trkpt>
      <trkpt lat="44.61563" lon="2.16173">
        <ele>286</ele>
        <time>2018-05-07T08:18:12Z</time>
      </trkpt>
      <trkpt lat="44.61573" lon="2.16165">
        <ele>286</ele>
        <time>2018-05-07T08:18:19Z</time>
      </trkpt>
      <trkpt lat="44.61576" lon="2.1616">
        <ele>285</ele>
        <time>2018-05-07T08:18:23Z</time>
      </trkpt>
      <trkpt lat="44.6159" lon="2.16151">
        <ele>285</ele>
        <time>2018-05-07T08:18:35Z</time>
      </trkpt>
      <trkpt lat="44.61595" lon="2.16151">
        <ele>285</ele>
        <time>2018-05-07T08:18:39Z</time>
      </trkpt>
      <trkpt lat="44.616" lon="2.16155">
        <ele>284</ele>
        <time>2018-05-07T08:18:43Z</time>
      </trkpt>
      <trkpt lat="44.6161" lon="2.1617">
        <ele>284</ele>
        <time>2018-05-07T08:18:54Z</time>
      </trkpt>
      <trkpt lat="44.61614" lon="2.16182">
        <ele>284</ele>
        <time>2018-05-07T08:19:03Z</time>
      </trkpt>
      <trkpt lat="44.61623" lon="2.162">
        <ele>284</ele>
        <time>2018-05-07T08:19:15Z</time>
      </trkpt>
      <trkpt lat="44.61627" lon="2.16205">
        <ele>284</ele>
        <time>2018-05-07T08:19:19Z</time>
      </trkpt>
      <trkpt lat="44.61636" lon="2.16224">
        <ele>285</ele>
        <time>2018-05-07T08:19:31Z</time>
      </trkpt>
      <trkpt lat="44.6164" lon="2.16228">
        <ele>285</ele>
        <time>2018-05-07T08:19:35Z</time>
      </trkpt>
      <trkpt lat="44.61643" lon="2.16234">
        <ele>285</ele>
        <time>2018-05-07T08:19:39Z</time>
      </trkpt>
      <trkpt lat="44.61648" lon="2.16233">
        <ele>285</ele>
        <time>2018-05-07T08:19:43Z</time>
      </trkpt>
      <trkpt lat="44.61657" lon="2.16225">
        <ele>285</ele>
        <time>2018-05-07T08:19:52Z</time>
      </trkpt>
      <trkpt lat="44.61664" lon="2.16215">
        <ele>284</ele>
        <time>2018-05-07T08:20:01Z</time>
      </trkpt>
      <trkpt lat="44.61673" lon="2.16207">
        <ele>284</ele>
        <time>2018-05-07T08:20:11Z</time>
      </trkpt>
      <trkpt lat="44.61676" lon="2.16202">
        <ele>284</ele>
        <time>2018-05-07T08:20:15Z</time>
      </trkpt>
      <trkpt lat="44.61686" lon="2.16191">
        <ele>284</ele>
        <time>2018-05-07T08:20:26Z</time>
      </trkpt>
      <trkpt lat="44.61701" lon="2.16182">
        <ele>283</ele>
        <time>2018-05-07T08:20:39Z</time>
      </trkpt>
      <trkpt lat="44.61737" lon="2.16149">
        <ele>283</ele>
        <time>2018-05-07T08:21:11Z</time>
      </trkpt>
      <trkpt lat="44.6176" lon="2.16131">
        <ele>283</ele>
        <time>2018-05-07T08:21:31Z</time>
      </trkpt>
      <trkpt lat="44.61776" lon="2.16112">
        <ele>284</ele>
        <time>2018-05-07T08:21:50Z</time>
      </trkpt>
      <trkpt lat="44.61785" lon="2.16106">
        <ele>284</ele>
        <time>2018-05-07T08:22:00Z</time>
      </trkpt>
      <trkpt lat="44.61794" lon="2.16079">
        <ele>283</ele>
        <time>2018-05-07T08:22:27Z</time>
      </trkpt>
      <trkpt lat="44.61795" lon="2.16065">
        <ele>282</ele>
        <time>2018-05-07T08:22:35Z</time>
      </trkpt>
      <trkpt lat="44.61799" lon="2.16059">
        <ele>282</ele>
        <time>2018-05-07T08:22:39Z</time>
      </trkpt>
      <trkpt lat="44.6181" lon="2.16056">
        <ele>281</ele>
        <time>2018-05-07T08:22:48Z</time>
      </trkpt>
      <trkpt lat="44.61814" lon="2.16057">
        <ele>282</ele>
        <time>2018-05-07T08:22:56Z</time>
      </trkpt>
      <trkpt lat="44.61819" lon="2.16054">
        <ele>282</ele>
        <time>2018-05-07T08:23:01Z</time>
      </trkpt>
      <trkpt lat="44.61826" lon="2.16048">
        <ele>281</ele>
        <time>2018-05-07T08:23:09Z</time>
      </trkpt>
      <trkpt lat="44.61831" lon="2.16045">
        <ele>281</ele>
        <time>2018-05-07T08:23:14Z</time>
      </trkpt>
      <trkpt lat="44.61859" lon="2.1602">
        <ele>281</ele>
        <time>2018-05-07T08:24:01Z</time>
      </trkpt>
      <trkpt lat="44.61862" lon="2.16015">
        <ele>281</ele>
        <time>2018-05-07T08:24:09Z</time>
      </trkpt>
      <trkpt lat="44.61865" lon="2.16009">
        <ele>281</ele>
        <time>2018-05-07T08:24:14Z</time>
      </trkpt>
      <trkpt lat="44.61874" lon="2.16">
        <ele>280</ele>
        <time>2018-05-07T08:24:27Z</time>
      </trkpt>
      <trkpt lat="44.61879" lon="2.15998">
        <ele>280</ele>
        <time>2018-05-07T08:24:32Z</time>
      </trkpt>
      <trkpt lat="44.61883" lon="2.15995">
        <ele>280</ele>
        <time>2018-05-07T08:24:37Z</time>
      </trkpt>
      <trkpt lat="44.61887" lon="2.15989">
        <ele>280</ele>
        <time>2018-05-07T08:24:45Z</time>
      </trkpt>
      <trkpt lat="44.61891" lon="2.15986">
        <ele>280</ele>
        <time>2018-05-07T08:24:50Z</time>
      </trkpt>
      <trkpt lat="44.61895" lon="2.15982">
        <ele>279</ele>
        <time>2018-05-07T08:24:58Z</time>
      </trkpt>
      <trkpt lat="44.61906" lon="2.15974">
        <ele>278</ele>
        <time>2018-05-07T08:25:58Z</time>
      </trkpt>
      <trkpt lat="44.61913" lon="2.15968">
        <ele>278</ele>
        <time>2018-05-07T08:26:28Z</time>
      </trkpt>
      <trkpt lat="44.61923" lon="2.15949">
        <ele>277</ele>
        <time>2018-05-07T08:26:46Z</time>
      </trkpt>
      <trkpt lat="44.61927" lon="2.15945">
        <ele>277</ele>
        <time>2018-05-07T08:26:56Z</time>
      </trkpt>
      <trkpt lat="44.61943" lon="2.1593">
        <ele>277</ele>
        <time>2018-05-07T08:27:16Z</time>
      </trkpt>
      <trkpt lat="44.61947" lon="2.15929">
        <ele>277</ele>
        <time>2018-05-07T08:27:20Z</time>
      </trkpt>
      <trkpt lat="44.61961" lon="2.15919">
        <ele>276</ele>
        <time>2018-05-07T08:27:33Z</time>
      </trkpt>
      <trkpt lat="44.62007" lon="2.15703">
        <ele>279</ele>
        <time>2018-05-07T08:29:33Z</time>
      </trkpt>
      <trkpt lat="44.62019" lon="2.15597">
        <ele>283</ele>
        <time>2018-05-07T08:30:31Z</time>
      </trkpt>
      <trkpt lat="44.62014" lon="2.1533">
        <ele>284</ele>
        <time>2018-05-07T08:32:46Z</time>
      </trkpt>
      <trkpt lat="44.62018" lon="2.15308">
        <ele>284</ele>
        <time>2018-05-07T08:32:58Z</time>
      </trkpt>
      <trkpt lat="44.62018" lon="2.15293">
        <ele>284</ele>
        <time>2018-05-07T08:33:06Z</time>
      </trkpt>
      <trkpt lat="44.62019" lon="2.15286">
        <ele>284</ele>
        <time>2018-05-07T08:33:10Z</time>
      </trkpt>
      <trkpt lat="44.62048" lon="2.15243">
        <ele>283</ele>
        <time>2018-05-07T08:33:41Z</time>
      </trkpt>
      <trkpt lat="44.62121" lon="2.15099">
        <ele>278</ele>
        <time>2018-05-07T08:35:27Z</time>
      </trkpt>
      <trkpt lat="44.62131" lon="2.15058">
        <ele>277</ele>
        <time>2018-05-07T08:35:51Z</time>
      </trkpt>
      <trkpt lat="44.62133" lon="2.15008">
        <ele>274</ele>
        <time>2018-05-07T08:36:19Z</time>
      </trkpt>
      <trkpt lat="44.62156" lon="2.1492">
        <ele>271</ele>
        <time>2018-05-07T08:37:07Z</time>
      </trkpt>
      <trkpt lat="44.62174" lon="2.14818">
        <ele>264</ele>
        <time>2018-05-07T08:38:03Z</time>
      </trkpt>
      <trkpt lat="44.62176" lon="2.14795">
        <ele>262</ele>
        <time>2018-05-07T08:38:15Z</time>
      </trkpt>
      <trkpt lat="44.62186" lon="2.1476">
        <ele>260</ele>
        <time>2018-05-07T08:38:35Z</time>
      </trkpt>
      <trkpt lat="44.62191" lon="2.14756">
        <ele>259</ele>
        <time>2018-05-07T08:38:39Z</time>
      </trkpt>
      <trkpt lat="44.62195" lon="2.14756">
        <ele>259</ele>
        <time>2018-05-07T08:38:42Z</time>
      </trkpt>
      <trkpt lat="44.622" lon="2.14758">
        <ele>259</ele>
        <time>2018-05-07T08:38:45Z</time>
      </trkpt>
      <trkpt lat="44.62209" lon="2.14776">
        <ele>260</ele>
        <time>2018-05-07T08:38:56Z</time>
      </trkpt>
      <trkpt lat="44.62236" lon="2.14801">
        <ele>263</ele>
        <time>2018-05-07T08:39:19Z</time>
      </trkpt>
      <trkpt lat="44.62242" lon="2.14803">
        <ele>264</ele>
        <time>2018-05-07T08:39:25Z</time>
      </trkpt>
      <trkpt lat="44.62247" lon="2.14806">
        <ele>264</ele>
        <time>2018-05-07T08:39:29Z</time>
      </trkpt>
      <trkpt lat="44.62257" lon="2.14808">
        <ele>265</ele>
        <time>2018-05-07T08:39:38Z</time>
      </trkpt>
      <trkpt lat="44.62262" lon="2.14807">
        <ele>266</ele>
        <time>2018-05-07T08:39:42Z</time>
      </trkpt>
      <trkpt lat="44.62292" lon="2.14824">
        <ele>269</ele>
        <time>2018-05-07T08:40:06Z</time>
      </trkpt>
      <trkpt lat="44.62356" lon="2.14875">
        <ele>272</ele>
        <time>2018-05-07T08:41:02Z</time>
      </trkpt>
      <trkpt lat="44.62363" lon="2.14886">
        <ele>272</ele>
        <time>2018-05-07T08:41:10Z</time>
      </trkpt>
      <trkpt lat="44.62422" lon="2.14943">
        <ele>277</ele>
        <time>2018-05-07T08:42:16Z</time>
      </trkpt>
      <trkpt lat="44.62426" lon="2.14945">
        <ele>277</ele>
        <time>2018-05-07T08:42:20Z</time>
      </trkpt>
      <trkpt lat="44.62559" lon="2.14985">
        <ele>280</ele>
        <time>2018-05-07T08:44:11Z</time>
      </trkpt>
      <trkpt lat="44.62569" lon="2.14992">
        <ele>279</ele>
        <time>2018-05-07T08:44:20Z</time>
      </trkpt>
      <trkpt lat="44.62574" lon="2.14994">
        <ele>278</ele>
        <time>2018-05-07T08:44:25Z</time>
      </trkpt>
      <trkpt lat="44.62579" lon="2.14992">
        <ele>278</ele>
        <time>2018-05-07T08:44:30Z</time>
      </trkpt>
      <trkpt lat="44.62581" lon="2.14986">
        <ele>278</ele>
        <time>2018-05-07T08:44:34Z</time>
      </trkpt>
      <trkpt lat="44.62582" lon="2.14972">
        <ele>279</ele>
        <time>2018-05-07T08:44:41Z</time>
      </trkpt>
      <trkpt lat="44.62559" lon="2.1485">
        <ele>271</ele>
        <time>2018-05-07T08:45:46Z</time>
      </trkpt>
      <trkpt lat="44.6256" lon="2.14836">
        <ele>270</ele>
        <time>2018-05-07T08:45:54Z</time>
      </trkpt>
      <trkpt lat="44.62581" lon="2.14784">
        <ele>267</ele>
        <time>2018-05-07T08:46:26Z</time>
      </trkpt>
      <trkpt lat="44.62594" lon="2.14734">
        <ele>262</ele>
        <time>2018-05-07T08:46:54Z</time>
      </trkpt>
      <trkpt lat="44.62608" lon="2.14493">
        <ele>246</ele>
        <time>2018-05-07T08:49:03Z</time>
      </trkpt>
      <trkpt lat="44.62607" lon="2.14464">
        <ele>245</ele>
        <time>2018-05-07T08:49:18Z</time>
      </trkpt>
      <trkpt lat="44.62619" lon="2.14413">
        <ele>244</ele>
        <time>2018-05-07T08:49:45Z</time>
      </trkpt>
      <trkpt lat="44.62623" lon="2.14383">
        <ele>244</ele>
        <time>2018-05-07T08:50:00Z</time>
      </trkpt>
      <trkpt lat="44.62623" lon="2.14376">
        <ele>244</ele>
        <time>2018-05-07T08:50:04Z</time>
      </trkpt>
      <trkpt lat="44.62589" lon="2.14256">
        <ele>246</ele>
        <time>2018-05-07T08:51:12Z</time>
      </trkpt>
      <trkpt lat="44.62547" lon="2.14186">
        <ele>247</ele>
        <time>2018-05-07T08:52:01Z</time>
      </trkpt>
      <trkpt lat="44.62538" lon="2.14122">
        <ele>251</ele>
        <time>2018-05-07T08:52:38Z</time>
      </trkpt>
      <trkpt lat="44.62536" lon="2.14115">
        <ele>252</ele>
        <time>2018-05-07T08:52:42Z</time>
      </trkpt>
      <trkpt lat="44.62534" lon="2.14108">
        <ele>253</ele>
        <time>2018-05-07T08:52:47Z</time>
      </trkpt>
      <trkpt lat="44.62531" lon="2.14065">
        <ele>255</ele>
        <time>2018-05-07T08:53:11Z</time>
      </trkpt>
      <trkpt lat="44.62524" lon="2.14044">
        <ele>256</ele>
        <time>2018-05-07T08:53:25Z</time>
      </trkpt>
      <trkpt lat="44.6251" lon="2.13934">
        <ele>252</ele>
        <time>2018-05-07T08:54:23Z</time>
      </trkpt>
      <trkpt lat="44.62483" lon="2.13844">
        <ele>245</ele>
        <time>2018-05-07T08:55:14Z</time>
      </trkpt>
      <trkpt lat="44.62477" lon="2.13817">
        <ele>244</ele>
        <time>2018-05-07T08:55:29Z</time>
      </trkpt>
      <trkpt lat="44.62462" lon="2.13784">
        <ele>244</ele>
        <time>2018-05-07T08:55:49Z</time>
      </trkpt>
      <trkpt lat="44.6246" lon="2.13777">
        <ele>244</ele>
        <time>2018-05-07T08:55:53Z</time>
      </trkpt>
      <trkpt lat="44.6246" lon="2.13763">
        <ele>244</ele>
        <time>2018-05-07T08:56:01Z</time>
      </trkpt>
      <trkpt lat="44.62451" lon="2.13715">
        <ele>245</ele>
        <time>2018-05-07T08:56:30Z</time>
      </trkpt>
      <trkpt lat="44.6245" lon="2.13707">
        <ele>245</ele>
        <time>2018-05-07T08:56:35Z</time>
      </trkpt>
      <trkpt lat="44.62448" lon="2.13699">
        <ele>245</ele>
        <time>2018-05-07T08:56:39Z</time>
      </trkpt>
      <trkpt lat="44.62443" lon="2.13686">
        <ele>245</ele>
        <time>2018-05-07T08:56:47Z</time>
      </trkpt>
      <trkpt lat="44.6244" lon="2.13672">
        <ele>246</ele>
        <time>2018-05-07T08:56:55Z</time>
      </trkpt>
      <trkpt lat="44.62437" lon="2.13666">
        <ele>246</ele>
        <time>2018-05-07T08:56:59Z</time>
      </trkpt>
      <trkpt lat="44.6242" lon="2.13639">
        <ele>247</ele>
        <time>2018-05-07T08:57:18Z</time>
      </trkpt>
      <trkpt lat="44.62416" lon="2.13625">
        <ele>248</ele>
        <time>2018-05-07T08:57:25Z</time>
      </trkpt>
      <trkpt lat="44.62411" lon="2.13613">
        <ele>248</ele>
        <time>2018-05-07T08:57:32Z</time>
      </trkpt>
      <trkpt lat="44.62405" lon="2.13611">
        <ele>249</ele>
        <time>2018-05-07T08:57:40Z</time>
      </trkpt>
      <trkpt lat="44.6237" lon="2.13615">
        <ele>250</ele>
        <time>2018-05-07T08:58:09Z</time>
      </trkpt>
      <trkpt lat="44.6236" lon="2.13613">
        <ele>251</ele>
        <time>2018-05-07T08:58:16Z</time>
      </trkpt>
      <trkpt lat="44.62235" lon="2.13617">
        <ele>255</ele>
        <time>2018-05-07T08:59:54Z</time>
      </trkpt>
      <trkpt lat="44.62231" lon="2.13619">
        <ele>256</ele>
        <time>2018-05-07T08:59:58Z</time>
      </trkpt>
      <trkpt lat="44.62223" lon="2.1363">
        <ele>256</ele>
        <time>2018-05-07T09:00:06Z</time>
      </trkpt>
      <trkpt lat="44.6221" lon="2.13653">
        <ele>256</ele>
        <time>2018-05-07T09:00:21Z</time>
      </trkpt>
      <trkpt lat="44.62202" lon="2.13662">
        <ele>255</ele>
        <time>2018-05-07T09:00:28Z</time>
      </trkpt>
      <trkpt lat="44.62191" lon="2.13668">
        <ele>255</ele>
        <time>2018-05-07T09:00:36Z</time>
      </trkpt>
      <trkpt lat="44.62186" lon="2.13669">
        <ele>255</ele>
        <time>2018-05-07T09:00:40Z</time>
      </trkpt>
      <trkpt lat="44.62142" lon="2.13671">
        <ele>255</ele>
        <time>2018-05-07T09:01:12Z</time>
      </trkpt>
      <trkpt lat="44.62101" lon="2.13665">
        <ele>255</ele>
        <time>2018-05-07T09:01:43Z</time>
      </trkpt>
      <trkpt lat="44.62017" lon="2.13674">
        <ele>257</ele>
        <time>2018-05-07T09:02:48Z</time>
      </trkpt>
      <trkpt lat="44.61973" lon="2.13675">
        <ele>258</ele>
        <time>2018-05-07T09:03:20Z</time>
      </trkpt>
      <trkpt lat="44.61929" lon="2.13664">
        <ele>257</ele>
        <time>2018-05-07T09:03:52Z</time>
      </trkpt>
      <trkpt lat="44.61864" lon="2.13631">
        <ele>258</ele>
        <time>2018-05-07T09:04:43Z</time>
      </trkpt>
      <trkpt lat="44.61811" lon="2.13563">
        <ele>263</ele>
        <time>2018-05-07T09:05:39Z</time>
      </trkpt>
      <trkpt lat="44.6178" lon="2.13504">
        <ele>264</ele>
        <time>2018-05-07T09:06:19Z</time>
      </trkpt>
      <trkpt lat="44.61776" lon="2.13491">
        <ele>265</ele>
        <time>2018-05-07T09:06:27Z</time>
      </trkpt>
      <trkpt lat="44.61773" lon="2.13486">
        <ele>265</ele>
        <time>2018-05-07T09:06:32Z</time>
      </trkpt>
      <trkpt lat="44.61774" lon="2.1348">
        <ele>266</ele>
        <time>2018-05-07T09:06:46Z</time>
      </trkpt>
      <trkpt lat="44.61768" lon="2.13482">
        <ele>266</ele>
        <time>2018-05-07T09:07:26Z</time>
      </trkpt>
      <trkpt lat="44.6176" lon="2.13489">
        <ele>266</ele>
        <time>2018-05-07T09:07:44Z</time>
      </trkpt>
      <trkpt lat="44.61755" lon="2.13492">
        <ele>265</ele>
        <time>2018-05-07T09:07:48Z</time>
      </trkpt>
      <trkpt lat="44.61741" lon="2.13502">
        <ele>265</ele>
        <time>2018-05-07T09:07:59Z</time>
      </trkpt>
      <trkpt lat="44.61698" lon="2.13526">
        <ele>266</ele>
        <time>2018-05-07T09:08:30Z</time>
      </trkpt>
      <trkpt lat="44.61669" lon="2.13536">
        <ele>267</ele>
        <time>2018-05-07T09:08:49Z</time>
      </trkpt>
      <trkpt lat="44.61636" lon="2.13539">
        <ele>268</ele>
        <time>2018-05-07T09:09:11Z</time>
      </trkpt>
      <trkpt lat="44.61631" lon="2.13537">
        <ele>268</ele>
        <time>2018-05-07T09:09:15Z</time>
      </trkpt>
      <trkpt lat="44.61627" lon="2.13533">
        <ele>268</ele>
        <time>2018-05-07T09:09:20Z</time>
      </trkpt>
      <trkpt lat="44.61602" lon="2.1348">
        <ele>267</ele>
        <time>2018-05-07T09:10:02Z</time>
      </trkpt>
      <trkpt lat="44.61601" lon="2.13469">
        <ele>267</ele>
        <time>2018-05-07T09:10:13Z</time>
      </trkpt>
      <trkpt lat="44.61598" lon="2.13463">
        <ele>267</ele>
        <time>2018-05-07T09:10:17Z</time>
      </trkpt>
      <trkpt lat="44.61597" lon="2.13449">
        <ele>267</ele>
        <time>2018-05-07T09:10:26Z</time>
      </trkpt>
      <trkpt lat="44.61596" lon="2.13442">
        <ele>267</ele>
        <time>2018-05-07T09:10:30Z</time>
      </trkpt>
      <trkpt lat="44.616" lon="2.13399">
        <ele>268</ele>
        <time>2018-05-07T09:10:55Z</time>
      </trkpt>
      <trkpt lat="44.61596" lon="2.13359">
        <ele>269</ele>
        <time>2018-05-07T09:11:21Z</time>
      </trkpt>
      <trkpt lat="44.61593" lon="2.13347">
        <ele>269</ele>
        <time>2018-05-07T09:11:30Z</time>
      </trkpt>
      <trkpt lat="44.6158" lon="2.13324">
        <ele>269</ele>
        <time>2018-05-07T09:11:48Z</time>
      </trkpt>
      <trkpt lat="44.61575" lon="2.13312">
        <ele>269</ele>
        <time>2018-05-07T09:11:54Z</time>
      </trkpt>
      <trkpt lat="44.61574" lon="2.13306">
        <ele>269</ele>
        <time>2018-05-07T09:11:58Z</time>
      </trkpt>
      <trkpt lat="44.61574" lon="2.13298">
        <ele>269</ele>
        <time>2018-05-07T09:12:02Z</time>
      </trkpt>
      <trkpt lat="44.61577" lon="2.13293">
        <ele>269</ele>
        <time>2018-05-07T09:12:06Z</time>
      </trkpt>
      <trkpt lat="44.61582" lon="2.13273">
        <ele>269</ele>
        <time>2018-05-07T09:12:18Z</time>
      </trkpt>
      <trkpt lat="44.61584" lon="2.13268">
        <ele>270</ele>
        <time>2018-05-07T09:12:22Z</time>
      </trkpt>
      <trkpt lat="44.61587" lon="2.13202">
        <ele>271</ele>
        <time>2018-05-07T09:12:59Z</time>
      </trkpt>
      <trkpt lat="44.61589" lon="2.13196">
        <ele>271</ele>
        <time>2018-05-07T09:13:03Z</time>
      </trkpt>
      <trkpt lat="44.61589" lon="2.13188">
        <ele>272</ele>
        <time>2018-05-07T09:13:08Z</time>
      </trkpt>
      <trkpt lat="44.61588" lon="2.13182">
        <ele>272</ele>
        <time>2018-05-07T09:13:12Z</time>
      </trkpt>
      <trkpt lat="44.6158" lon="2.13112">
        <ele>273</ele>
        <time>2018-05-07T09:13:54Z</time>
      </trkpt>
      <trkpt lat="44.61577" lon="2.13106">
        <ele>273</ele>
        <time>2018-05-07T09:13:58Z</time>
      </trkpt>
      <trkpt lat="44.61573" lon="2.13101">
        <ele>275</ele>
        <time>2018-05-07T09:14:03Z</time>
      </trkpt>
      <trkpt lat="44.61541" lon="2.12982">
        <ele>275</ele>
        <time>2018-05-07T09:15:10Z</time>
      </trkpt>
      <trkpt lat="44.61523" lon="2.12879">
        <ele>278</ele>
        <time>2018-05-07T09:16:10Z</time>
      </trkpt>
      <trkpt lat="44.6151" lon="2.12786">
        <ele>279</ele>
        <time>2018-05-07T09:17:02Z</time>
      </trkpt>
      <trkpt lat="44.61486" lon="2.12739">
        <ele>278</ele>
        <time>2018-05-07T09:17:34Z</time>
      </trkpt>
      <trkpt lat="44.61484" lon="2.12733">
        <ele>279</ele>
        <time>2018-05-07T09:17:39Z</time>
      </trkpt>
      <trkpt lat="44.61481" lon="2.12727">
        <ele>280</ele>
        <time>2018-05-07T09:17:50Z</time>
      </trkpt>
      <trkpt lat="44.61471" lon="2.12717">
        <ele>280</ele>
        <time>2018-05-07T09:18:01Z</time>
      </trkpt>
      <trkpt lat="44.61468" lon="2.12712">
        <ele>280</ele>
        <time>2018-05-07T09:18:05Z</time>
      </trkpt>
      <trkpt lat="44.61438" lon="2.12653">
        <ele>280</ele>
        <time>2018-05-07T09:18:45Z</time>
      </trkpt>
      <trkpt lat="44.61391" lon="2.12431">
        <ele>270</ele>
        <time>2018-05-07T09:20:52Z</time>
      </trkpt>
      <trkpt lat="44.61384" lon="2.12411">
        <ele>269</ele>
        <time>2018-05-07T09:21:04Z</time>
      </trkpt>
      <trkpt lat="44.61344" lon="2.12337">
        <ele>264</ele>
        <time>2018-05-07T09:22:05Z</time>
      </trkpt>
      <trkpt lat="44.61341" lon="2.12331">
        <ele>264</ele>
        <time>2018-05-07T09:22:09Z</time>
      </trkpt>
      <trkpt lat="44.61308" lon="2.12286">
        <ele>264</ele>
        <time>2018-05-07T09:22:45Z</time>
      </trkpt>
      <trkpt lat="44.61283" lon="2.12241">
        <ele>266</ele>
        <time>2018-05-07T09:23:18Z</time>
      </trkpt>
      <trkpt lat="44.61253" lon="2.12163">
        <ele>270</ele>
        <time>2018-05-07T09:24:06Z</time>
      </trkpt>
      <trkpt lat="44.61248" lon="2.12158">
        <ele>270</ele>
        <time>2018-05-07T09:24:10Z</time>
      </trkpt>
      <trkpt lat="44.6124" lon="2.12151">
        <ele>271</ele>
        <time>2018-05-07T09:24:17Z</time>
      </trkpt>
      <trkpt lat="44.61209" lon="2.12103">
        <ele>274</ele>
        <time>2018-05-07T09:24:51Z</time>
      </trkpt>
      <trkpt lat="44.61145" lon="2.11906">
        <ele>277</ele>
        <time>2018-05-07T09:26:50Z</time>
      </trkpt>
      <trkpt lat="44.61145" lon="2.11898">
        <ele>277</ele>
        <time>2018-05-07T09:26:55Z</time>
      </trkpt>
      <trkpt lat="44.61135" lon="2.11843">
        <ele>278</ele>
        <time>2018-05-07T09:27:28Z</time>
      </trkpt>
      <trkpt lat="44.61138" lon="2.11834">
        <ele>278</ele>
        <time>2018-05-07T09:27:35Z</time>
      </trkpt>
      <trkpt lat="44.61146" lon="2.11826">
        <ele>278</ele>
        <time>2018-05-07T09:27:45Z</time>
      </trkpt>
      <trkpt lat="44.6115" lon="2.1182">
        <ele>278</ele>
        <time>2018-05-07T09:27:59Z</time>
      </trkpt>
      <trkpt lat="44.61155" lon="2.11818">
        <ele>278</ele>
        <time>2018-05-07T09:28:11Z</time>
      </trkpt>
      <trkpt lat="44.6115" lon="2.11835">
        <ele>279</ele>
        <time>2018-05-07T09:28:35Z</time>
      </trkpt>
      <trkpt lat="44.61157" lon="2.11836">
        <ele>279</ele>
        <time>2018-05-07T09:28:48Z</time>
      </trkpt>
      <trkpt lat="44.61149" lon="2.11819">
        <ele>278</ele>
        <time>2018-05-07T09:29:52Z</time>
      </trkpt>
      <trkpt lat="44.61153" lon="2.11813">
        <ele>278</ele>
        <time>2018-05-07T09:30:34Z</time>
      </trkpt>
      <trkpt lat="44.61165" lon="2.11824">
        <ele>278</ele>
        <time>2018-05-07T09:34:47Z</time>
      </trkpt>
      <trkpt lat="44.61169" lon="2.1183">
        <ele>277</ele>
        <time>2018-05-07T09:34:52Z</time>
      </trkpt>
      <trkpt lat="44.61167" lon="2.1183">
        <ele>277</ele>
        <time>2018-05-07T09:35:33Z</time>
      </trkpt>
      <trkpt lat="44.6116" lon="2.11824">
        <ele>278</ele>
        <time>2018-05-07T09:35:44Z</time>
      </trkpt>
      <trkpt lat="44.61158" lon="2.11818">
        <ele>281</ele>
        <time>2018-05-07T10:16:18Z</time>
      </trkpt>
      <trkpt lat="44.61154" lon="2.11813">
        <ele>281</ele>
        <time>2018-05-07T10:17:05Z</time>
      </trkpt>
      <trkpt lat="44.6115" lon="2.11811">
        <ele>283</ele>
        <time>2018-05-07T10:17:15Z</time>
      </trkpt>
      <trkpt lat="44.61138" lon="2.11817">
        <ele>282</ele>
        <time>2018-05-07T10:17:35Z</time>
      </trkpt>
      <trkpt lat="44.61133" lon="2.11817">
        <ele>282</ele>
        <time>2018-05-07T10:17:39Z</time>
      </trkpt>
      <trkpt lat="44.61126" lon="2.11792">
        <ele>282</ele>
        <time>2018-05-07T10:17:55Z</time>
      </trkpt>
      <trkpt lat="44.61117" lon="2.11773">
        <ele>283</ele>
        <time>2018-05-07T10:18:09Z</time>
      </trkpt>
      <trkpt lat="44.61116" lon="2.11766">
        <ele>283</ele>
        <time>2018-05-07T10:18:13Z</time>
      </trkpt>
      <trkpt lat="44.61115" lon="2.11752">
        <ele>284</ele>
        <time>2018-05-07T10:18:23Z</time>
      </trkpt>
      <trkpt lat="44.61117" lon="2.11746">
        <ele>284</ele>
        <time>2018-05-07T10:18:28Z</time>
      </trkpt>
      <trkpt lat="44.61126" lon="2.11742">
        <ele>285</ele>
        <time>2018-05-07T10:18:36Z</time>
      </trkpt>
      <trkpt lat="44.6113" lon="2.11737">
        <ele>285</ele>
        <time>2018-05-07T10:18:40Z</time>
      </trkpt>
      <trkpt lat="44.61138" lon="2.11732">
        <ele>286</ele>
        <time>2018-05-07T10:18:48Z</time>
      </trkpt>
      <trkpt lat="44.61148" lon="2.11729">
        <ele>287</ele>
        <time>2018-05-07T10:18:56Z</time>
      </trkpt>
      <trkpt lat="44.61151" lon="2.11724">
        <ele>288</ele>
        <time>2018-05-07T10:19:01Z</time>
      </trkpt>
      <trkpt lat="44.61157" lon="2.11721">
        <ele>288</ele>
        <time>2018-05-07T10:19:09Z</time>
      </trkpt>
      <trkpt lat="44.6116" lon="2.11716">
        <ele>288</ele>
        <time>2018-05-07T10:19:13Z</time>
      </trkpt>
      <trkpt lat="44.61164" lon="2.11712">
        <ele>288</ele>
        <time>2018-05-07T10:19:17Z</time>
      </trkpt>
      <trkpt lat="44.61169" lon="2.11709">
        <ele>289</ele>
        <time>2018-05-07T10:19:21Z</time>
      </trkpt>
      <trkpt lat="44.61176" lon="2.11699">
        <ele>289</ele>
        <time>2018-05-07T10:19:31Z</time>
      </trkpt>
      <trkpt lat="44.61181" lon="2.11686">
        <ele>290</ele>
        <time>2018-05-07T10:19:39Z</time>
      </trkpt>
      <trkpt lat="44.61184" lon="2.11681">
        <ele>290</ele>
        <time>2018-05-07T10:19:44Z</time>
      </trkpt>
      <trkpt lat="44.61196" lon="2.11655">
        <ele>291</ele>
        <time>2018-05-07T10:20:05Z</time>
      </trkpt>
      <trkpt lat="44.61203" lon="2.11646">
        <ele>292</ele>
        <time>2018-05-07T10:20:14Z</time>
      </trkpt>
      <trkpt lat="44.61208" lon="2.11634">
        <ele>292</ele>
        <time>2018-05-07T10:20:22Z</time>
      </trkpt>
      <trkpt lat="44.61231" lon="2.11607">
        <ele>294</ele>
        <time>2018-05-07T10:20:46Z</time>
      </trkpt>
      <trkpt lat="44.61304" lon="2.11556">
        <ele>298</ele>
        <time>2018-05-07T10:21:54Z</time>
      </trkpt>
      <trkpt lat="44.61332" lon="2.11528">
        <ele>300</ele>
        <time>2018-05-07T10:22:26Z</time>
      </trkpt>
      <trkpt lat="44.61382" lon="2.11463">
        <ele>304</ele>
        <time>2018-05-07T10:23:34Z</time>
      </trkpt>
      <trkpt lat="44.61425" lon="2.1139">
        <ele>309</ele>
        <time>2018-05-07T10:24:40Z</time>
      </trkpt>
      <trkpt lat="44.61435" lon="2.11364">
        <ele>311</ele>
        <time>2018-05-07T10:24:57Z</time>
      </trkpt>
      <trkpt lat="44.61483" lon="2.11284">
        <ele>318</ele>
        <time>2018-05-07T10:26:05Z</time>
      </trkpt>
      <trkpt lat="44.61518" lon="2.11249">
        <ele>323</ele>
        <time>2018-05-07T10:26:53Z</time>
      </trkpt>
      <trkpt lat="44.61547" lon="2.1121">
        <ele>327</ele>
        <time>2018-05-07T10:27:32Z</time>
      </trkpt>
      <trkpt lat="44.6166" lon="2.10949">
        <ele>339</ele>
        <time>2018-05-07T10:30:47Z</time>
      </trkpt>
      <trkpt lat="44.61687" lon="2.10911">
        <ele>340</ele>
        <time>2018-05-07T10:31:36Z</time>
      </trkpt>
      <trkpt lat="44.61701" lon="2.10886">
        <ele>340</ele>
        <time>2018-05-07T10:31:52Z</time>
      </trkpt>
      <trkpt lat="44.61729" lon="2.10846">
        <ele>340</ele>
        <time>2018-05-07T10:32:24Z</time>
      </trkpt>
      <trkpt lat="44.61733" lon="2.10842">
        <ele>340</ele>
        <time>2018-05-07T10:32:28Z</time>
      </trkpt>
      <trkpt lat="44.61753" lon="2.10837">
        <ele>338</ele>
        <time>2018-05-07T10:32:44Z</time>
      </trkpt>
      <trkpt lat="44.61763" lon="2.10837">
        <ele>337</ele>
        <time>2018-05-07T10:32:52Z</time>
      </trkpt>
      <trkpt lat="44.61773" lon="2.1084">
        <ele>338</ele>
        <time>2018-05-07T10:33:01Z</time>
      </trkpt>
      <trkpt lat="44.61786" lon="2.10841">
        <ele>338</ele>
        <time>2018-05-07T10:33:26Z</time>
      </trkpt>
      <trkpt lat="44.61791" lon="2.10842">
        <ele>339</ele>
        <time>2018-05-07T10:33:31Z</time>
      </trkpt>
      <trkpt lat="44.61833" lon="2.10839">
        <ele>337</ele>
        <time>2018-05-07T10:34:20Z</time>
      </trkpt>
      <trkpt lat="44.61862" lon="2.10829">
        <ele>337</ele>
        <time>2018-05-07T10:34:46Z</time>
      </trkpt>
      <trkpt lat="44.61872" lon="2.10828">
        <ele>338</ele>
        <time>2018-05-07T10:34:55Z</time>
      </trkpt>
      <trkpt lat="44.61877" lon="2.10826">
        <ele>338</ele>
        <time>2018-05-07T10:34:59Z</time>
      </trkpt>
      <trkpt lat="44.61897" lon="2.10822">
        <ele>338</ele>
        <time>2018-05-07T10:35:15Z</time>
      </trkpt>
      <trkpt lat="44.62001" lon="2.10762">
        <ele>344</ele>
        <time>2018-05-07T10:37:00Z</time>
      </trkpt>
      <trkpt lat="44.62016" lon="2.10757">
        <ele>345</ele>
        <time>2018-05-07T10:37:14Z</time>
      </trkpt>
      <trkpt lat="44.62127" lon="2.10847">
        <ele>347</ele>
        <time>2018-05-07T10:39:28Z</time>
      </trkpt>
      <trkpt lat="44.62141" lon="2.10851">
        <ele>348</ele>
        <time>2018-05-07T10:39:41Z</time>
      </trkpt>
      <trkpt lat="44.62135" lon="2.10841">
        <ele>348</ele>
        <time>2018-05-07T10:40:23Z</time>
      </trkpt>
      <trkpt lat="44.62139" lon="2.10836">
        <ele>348</ele>
        <time>2018-05-07T10:40:27Z</time>
      </trkpt>
      <trkpt lat="44.62142" lon="2.10841">
        <ele>348</ele>
        <time>2018-05-07T10:40:40Z</time>
      </trkpt>
      <trkpt lat="44.62147" lon="2.10837">
        <ele>348</ele>
        <time>2018-05-07T10:40:45Z</time>
      </trkpt>
      <trkpt lat="44.62152" lon="2.10835">
        <ele>348</ele>
        <time>2018-05-07T10:40:50Z</time>
      </trkpt>
      <trkpt lat="44.62158" lon="2.10841">
        <ele>349</ele>
        <time>2018-05-07T10:41:24Z</time>
      </trkpt>
      <trkpt lat="44.62161" lon="2.10855">
        <ele>348</ele>
        <time>2018-05-07T10:41:34Z</time>
      </trkpt>
      <trkpt lat="44.62159" lon="2.10861">
        <ele>348</ele>
        <time>2018-05-07T10:41:39Z</time>
      </trkpt>
      <trkpt lat="44.62149" lon="2.10862">
        <ele>348</ele>
        <time>2018-05-07T10:41:47Z</time>
      </trkpt>
      <trkpt lat="44.6214" lon="2.1086">
        <ele>348</ele>
        <time>2018-05-07T10:41:55Z</time>
      </trkpt>
      <trkpt lat="44.62137" lon="2.10854">
        <ele>348</ele>
        <time>2018-05-07T10:41:59Z</time>
      </trkpt>
      <trkpt lat="44.62139" lon="2.10848">
        <ele>348</ele>
        <time>2018-05-07T10:42:10Z</time>
      </trkpt>
      <trkpt lat="44.62132" lon="2.10846">
        <ele>348</ele>
        <time>2018-05-07T10:42:27Z</time>
      </trkpt>
      <trkpt lat="44.62127" lon="2.10848">
        <ele>348</ele>
        <time>2018-05-07T10:42:31Z</time>
      </trkpt>
      <trkpt lat="44.62122" lon="2.10849">
        <ele>348</ele>
        <time>2018-05-07T10:42:36Z</time>
      </trkpt>
      <trkpt lat="44.62113" lon="2.10839">
        <ele>347</ele>
        <time>2018-05-07T10:42:47Z</time>
      </trkpt>
      <trkpt lat="44.62108" lon="2.10836">
        <ele>347</ele>
        <time>2018-05-07T10:42:52Z</time>
      </trkpt>
      <trkpt lat="44.62012" lon="2.10756">
        <ele>345</ele>
        <time>2018-05-07T10:44:24Z</time>
      </trkpt>
      <trkpt lat="44.62003" lon="2.10751">
        <ele>346</ele>
        <time>2018-05-07T10:44:32Z</time>
      </trkpt>
      <trkpt lat="44.61999" lon="2.10747">
        <ele>346</ele>
        <time>2018-05-07T10:44:36Z</time>
      </trkpt>
      <trkpt lat="44.61943" lon="2.10605">
        <ele>351</ele>
        <time>2018-05-07T10:46:14Z</time>
      </trkpt>
      <trkpt lat="44.61836" lon="2.10447">
        <ele>341</ele>
        <time>2018-05-07T10:48:15Z</time>
      </trkpt>
      <trkpt lat="44.61831" lon="2.10434">
        <ele>341</ele>
        <time>2018-05-07T10:48:24Z</time>
      </trkpt>
      <trkpt lat="44.61753" lon="2.10114">
        <ele>345</ele>
        <time>2018-05-07T10:51:31Z</time>
      </trkpt>
      <trkpt lat="44.61651" lon="2.09889">
        <ele>350</ele>
        <time>2018-05-07T10:54:10Z</time>
      </trkpt>
      <trkpt lat="44.61508" lon="2.09689">
        <ele>354</ele>
        <time>2018-05-07T10:56:54Z</time>
      </trkpt>
      <trkpt lat="44.61504" lon="2.09685">
        <ele>354</ele>
        <time>2018-05-07T10:56:58Z</time>
      </trkpt>
      <trkpt lat="44.61495" lon="2.09667">
        <ele>354</ele>
        <time>2018-05-07T10:57:12Z</time>
      </trkpt>
      <trkpt lat="44.61491" lon="2.09662">
        <ele>355</ele>
        <time>2018-05-07T10:57:16Z</time>
      </trkpt>
      <trkpt lat="44.61475" lon="2.09617">
        <ele>357</ele>
        <time>2018-05-07T10:57:48Z</time>
      </trkpt>
      <trkpt lat="44.61472" lon="2.09603">
        <ele>358</ele>
        <time>2018-05-07T10:57:57Z</time>
      </trkpt>
      <trkpt lat="44.61474" lon="2.09503">
        <ele>362</ele>
        <time>2018-05-07T10:58:55Z</time>
      </trkpt>
      <trkpt lat="44.61507" lon="2.09129">
        <ele>371</ele>
        <time>2018-05-07T11:02:34Z</time>
      </trkpt>
      <trkpt lat="44.61506" lon="2.09114">
        <ele>372</ele>
        <time>2018-05-07T11:02:42Z</time>
      </trkpt>
      <trkpt lat="44.61506" lon="2.09107">
        <ele>372</ele>
        <time>2018-05-07T11:02:47Z</time>
      </trkpt>
      <trkpt lat="44.61508" lon="2.091">
        <ele>373</ele>
        <time>2018-05-07T11:03:38Z</time>
      </trkpt>
      <trkpt lat="44.61509" lon="2.09077">
        <ele>373</ele>
        <time>2018-05-07T11:03:57Z</time>
      </trkpt>
      <trkpt lat="44.61511" lon="2.09064">
        <ele>374</ele>
        <time>2018-05-07T11:04:05Z</time>
      </trkpt>
      <trkpt lat="44.61509" lon="2.09005">
        <ele>376</ele>
        <time>2018-05-07T11:04:37Z</time>
      </trkpt>
      <trkpt lat="44.61506" lon="2.08992">
        <ele>376</ele>
        <time>2018-05-07T11:04:45Z</time>
      </trkpt>
      <trkpt lat="44.6147" lon="2.0893">
        <ele>380</ele>
        <time>2018-05-07T11:05:36Z</time>
      </trkpt>
      <trkpt lat="44.61445" lon="2.08893">
        <ele>382</ele>
        <time>2018-05-07T11:06:07Z</time>
      </trkpt>
      <trkpt lat="44.61437" lon="2.08886">
        <ele>382</ele>
        <time>2018-05-07T11:06:15Z</time>
      </trkpt>
      <trkpt lat="44.61432" lon="2.08873">
        <ele>381</ele>
        <time>2018-05-07T11:06:23Z</time>
      </trkpt>
      <trkpt lat="44.61416" lon="2.08819">
        <ele>379</ele>
        <time>2018-05-07T11:06:56Z</time>
      </trkpt>
      <trkpt lat="44.61401" lon="2.08733">
        <ele>378</ele>
        <time>2018-05-07T11:07:44Z</time>
      </trkpt>
      <trkpt lat="44.61389" lon="2.08701">
        <ele>378</ele>
        <time>2018-05-07T11:08:06Z</time>
      </trkpt>
      <trkpt lat="44.61383" lon="2.08697">
        <ele>379</ele>
        <time>2018-05-07T11:08:15Z</time>
      </trkpt>
      <trkpt lat="44.61345" lon="2.0872">
        <ele>378</ele>
        <time>2018-05-07T11:08:49Z</time>
      </trkpt>
      <trkpt lat="44.61332" lon="2.08726">
        <ele>377</ele>
        <time>2018-05-07T11:09:01Z</time>
      </trkpt>
      <trkpt lat="44.61327" lon="2.08728">
        <ele>377</ele>
        <time>2018-05-07T11:09:05Z</time>
      </trkpt>
      <trkpt lat="44.61322" lon="2.08729">
        <ele>377</ele>
        <time>2018-05-07T11:09:10Z</time>
      </trkpt>
      <trkpt lat="44.61317" lon="2.08726">
        <ele>377</ele>
        <time>2018-05-07T11:09:15Z</time>
      </trkpt>
      <trkpt lat="44.61297" lon="2.08697">
        <ele>381</ele>
        <time>2018-05-07T11:09:43Z</time>
      </trkpt>
      <trkpt lat="44.61251" lon="2.08692">
        <ele>378</ele>
        <time>2018-05-07T11:10:20Z</time>
      </trkpt>
      <trkpt lat="44.61241" lon="2.08689">
        <ele>377</ele>
        <time>2018-05-07T11:10:28Z</time>
      </trkpt>
      <trkpt lat="44.61233" lon="2.0869">
        <ele>377</ele>
        <time>2018-05-07T11:10:42Z</time>
      </trkpt>
      <trkpt lat="44.61159" lon="2.08669">
        <ele>371</ele>
        <time>2018-05-07T11:11:42Z</time>
      </trkpt>
      <trkpt lat="44.61157" lon="2.08662">
        <ele>370</ele>
        <time>2018-05-07T11:11:46Z</time>
      </trkpt>
      <trkpt lat="44.6116" lon="2.08657">
        <ele>369</ele>
        <time>2018-05-07T11:11:50Z</time>
      </trkpt>
      <trkpt lat="44.61171" lon="2.08644">
        <ele>370</ele>
        <time>2018-05-07T11:12:10Z</time>
      </trkpt>
      <trkpt lat="44.61176" lon="2.08642">
        <ele>370</ele>
        <time>2018-05-07T11:12:15Z</time>
      </trkpt>
      <trkpt lat="44.61184" lon="2.08632">
        <ele>370</ele>
        <time>2018-05-07T11:12:23Z</time>
      </trkpt>
      <trkpt lat="44.61191" lon="2.08613">
        <ele>370</ele>
        <time>2018-05-07T11:12:35Z</time>
      </trkpt>
      <trkpt lat="44.61195" lon="2.08608">
        <ele>371</ele>
        <time>2018-05-07T11:12:39Z</time>
      </trkpt>
      <trkpt lat="44.61199" lon="2.08605">
        <ele>371</ele>
        <time>2018-05-07T11:12:43Z</time>
      </trkpt>
      <trkpt lat="44.61206" lon="2.08595">
        <ele>371</ele>
        <time>2018-05-07T11:12:52Z</time>
      </trkpt>
      <trkpt lat="44.61208" lon="2.0859">
        <ele>371</ele>
        <time>2018-05-07T11:12:56Z</time>
      </trkpt>
      <trkpt lat="44.61212" lon="2.08586">
        <ele>371</ele>
        <time>2018-05-07T11:13:00Z</time>
      </trkpt>
      <trkpt lat="44.61215" lon="2.08572">
        <ele>372</ele>
        <time>2018-05-07T11:13:07Z</time>
      </trkpt>
      <trkpt lat="44.61216" lon="2.08557">
        <ele>372</ele>
        <time>2018-05-07T11:13:15Z</time>
      </trkpt>
      <trkpt lat="44.61213" lon="2.08536">
        <ele>373</ele>
        <time>2018-05-07T11:13:27Z</time>
      </trkpt>
      <trkpt lat="44.61211" lon="2.08531">
        <ele>373</ele>
        <time>2018-05-07T11:13:31Z</time>
      </trkpt>
      <trkpt lat="44.61203" lon="2.0852">
        <ele>375</ele>
        <time>2018-05-07T11:13:42Z</time>
      </trkpt>
      <trkpt lat="44.61194" lon="2.08496">
        <ele>377</ele>
        <time>2018-05-07T11:14:00Z</time>
      </trkpt>
      <trkpt lat="44.61198" lon="2.0833">
        <ele>377</ele>
        <time>2018-05-07T11:15:30Z</time>
      </trkpt>
      <trkpt lat="44.61203" lon="2.08293">
        <ele>376</ele>
        <time>2018-05-07T11:15:49Z</time>
      </trkpt>
      <trkpt lat="44.61215" lon="2.08244">
        <ele>375</ele>
        <time>2018-05-07T11:16:17Z</time>
      </trkpt>
      <trkpt lat="44.61216" lon="2.08237">
        <ele>375</ele>
        <time>2018-05-07T11:16:20Z</time>
      </trkpt>
      <trkpt lat="44.61225" lon="2.08202">
        <ele>375</ele>
        <time>2018-05-07T11:16:43Z</time>
      </trkpt>
      <trkpt lat="44.61225" lon="2.08196">
        <ele>374</ele>
        <time>2018-05-07T11:16:48Z</time>
      </trkpt>
      <trkpt lat="44.61223" lon="2.08182">
        <ele>374</ele>
        <time>2018-05-07T11:16:57Z</time>
      </trkpt>
      <trkpt lat="44.61209" lon="2.08142">
        <ele>373</ele>
        <time>2018-05-07T11:17:20Z</time>
      </trkpt>
      <trkpt lat="44.61158" lon="2.08047">
        <ele>373</ele>
        <time>2018-05-07T11:18:23Z</time>
      </trkpt>
      <trkpt lat="44.61139" lon="2.0802">
        <ele>374</ele>
        <time>2018-05-07T11:18:45Z</time>
      </trkpt>
      <trkpt lat="44.61134" lon="2.08009">
        <ele>375</ele>
        <time>2018-05-07T11:18:55Z</time>
      </trkpt>
      <trkpt lat="44.61131" lon="2.0798">
        <ele>378</ele>
        <time>2018-05-07T11:19:16Z</time>
      </trkpt>
      <trkpt lat="44.6113" lon="2.07952">
        <ele>381</ele>
        <time>2018-05-07T11:19:34Z</time>
      </trkpt>
      <trkpt lat="44.61133" lon="2.07947">
        <ele>381</ele>
        <time>2018-05-07T11:19:39Z</time>
      </trkpt>
      <trkpt lat="44.61146" lon="2.07945">
        <ele>382</ele>
        <time>2018-05-07T11:19:52Z</time>
      </trkpt>
      <trkpt lat="44.6115" lon="2.07942">
        <ele>382</ele>
        <time>2018-05-07T11:19:57Z</time>
      </trkpt>
      <trkpt lat="44.61221" lon="2.0792">
        <ele>382</ele>
        <time>2018-05-07T11:21:01Z</time>
      </trkpt>
      <trkpt lat="44.61226" lon="2.0792">
        <ele>383</ele>
        <time>2018-05-07T11:21:05Z</time>
      </trkpt>
      <trkpt lat="44.61234" lon="2.07911">
        <ele>383</ele>
        <time>2018-05-07T11:21:14Z</time>
      </trkpt>
      <trkpt lat="44.61238" lon="2.07908">
        <ele>383</ele>
        <time>2018-05-07T11:21:18Z</time>
      </trkpt>
      <trkpt lat="44.61236" lon="2.079">
        <ele>383</ele>
        <time>2018-05-07T11:21:24Z</time>
      </trkpt>
      <trkpt lat="44.6122" lon="2.07883">
        <ele>383</ele>
        <time>2018-05-07T11:21:40Z</time>
      </trkpt>
      <trkpt lat="44.61208" lon="2.07872">
        <ele>383</ele>
        <time>2018-05-07T11:21:52Z</time>
      </trkpt>
      <trkpt lat="44.61194" lon="2.07852">
        <ele>383</ele>
        <time>2018-05-07T11:22:10Z</time>
      </trkpt>
      <trkpt lat="44.6119" lon="2.0785">
        <ele>383</ele>
        <time>2018-05-07T11:22:13Z</time>
      </trkpt>
      <trkpt lat="44.61173" lon="2.07832">
        <ele>382</ele>
        <time>2018-05-07T11:22:28Z</time>
      </trkpt>
      <trkpt lat="44.61047" lon="2.07654">
        <ele>376</ele>
        <time>2018-05-07T11:24:36Z</time>
      </trkpt>
      <trkpt lat="44.61038" lon="2.07636">
        <ele>375</ele>
        <time>2018-05-07T11:24:50Z</time>
      </trkpt>
      <trkpt lat="44.61032" lon="2.07606">
        <ele>374</ele>
        <time>2018-05-07T11:25:06Z</time>
      </trkpt>
      <trkpt lat="44.61036" lon="2.07576">
        <ele>373</ele>
        <time>2018-05-07T11:25:23Z</time>
      </trkpt>
      <trkpt lat="44.61036" lon="2.07553">
        <ele>372</ele>
        <time>2018-05-07T11:25:35Z</time>
      </trkpt>
      <trkpt lat="44.61037" lon="2.07546">
        <ele>372</ele>
        <time>2018-05-07T11:25:39Z</time>
      </trkpt>
      <trkpt lat="44.61038" lon="2.07533">
        <ele>371</ele>
        <time>2018-05-07T11:27:36Z</time>
      </trkpt>
      <trkpt lat="44.61037" lon="2.07519">
        <ele>370</ele>
        <time>2018-05-07T11:27:43Z</time>
      </trkpt>
      <trkpt lat="44.61002" lon="2.07256">
        <ele>362</ele>
        <time>2018-05-07T11:30:15Z</time>
      </trkpt>
      <trkpt lat="44.61002" lon="2.07249">
        <ele>362</ele>
        <time>2018-05-07T11:30:19Z</time>
      </trkpt>
      <trkpt lat="44.61005" lon="2.07234">
        <ele>362</ele>
        <time>2018-05-07T11:30:27Z</time>
      </trkpt>
      <trkpt lat="44.61015" lon="2.07201">
        <ele>363</ele>
        <time>2018-05-07T11:30:44Z</time>
      </trkpt>
      <trkpt lat="44.61019" lon="2.07195">
        <ele>363</ele>
        <time>2018-05-07T11:30:48Z</time>
      </trkpt>
      <trkpt lat="44.61038" lon="2.07154">
        <ele>363</ele>
        <time>2018-05-07T11:31:19Z</time>
      </trkpt>
      <trkpt lat="44.61048" lon="2.07112">
        <ele>362</ele>
        <time>2018-05-07T11:31:43Z</time>
      </trkpt>
      <trkpt lat="44.61052" lon="2.07109">
        <ele>362</ele>
        <time>2018-05-07T11:32:05Z</time>
      </trkpt>
      <trkpt lat="44.61057" lon="2.07081">
        <ele>361</ele>
        <time>2018-05-07T11:32:23Z</time>
      </trkpt>
      <trkpt lat="44.61078" lon="2.06825">
        <ele>343</ele>
        <time>2018-05-07T11:36:22Z</time>
      </trkpt>
      <trkpt lat="44.61078" lon="2.06818">
        <ele>342</ele>
        <time>2018-05-07T11:36:26Z</time>
      </trkpt>
      <trkpt lat="44.61081" lon="2.06798">
        <ele>341</ele>
        <time>2018-05-07T11:36:40Z</time>
      </trkpt>
      <trkpt lat="44.61086" lon="2.06787">
        <ele>341</ele>
        <time>2018-05-07T11:37:46Z</time>
      </trkpt>
      <trkpt lat="44.61093" lon="2.0649">
        <ele>331</ele>
        <time>2018-05-07T11:40:27Z</time>
      </trkpt>
      <trkpt lat="44.61074" lon="2.06378">
        <ele>325</ele>
        <time>2018-05-07T11:41:31Z</time>
      </trkpt>
      <trkpt lat="44.61062" lon="2.06324">
        <ele>322</ele>
        <time>2018-05-07T11:42:03Z</time>
      </trkpt>
      <trkpt lat="44.61058" lon="2.06272">
        <ele>318</ele>
        <time>2018-05-07T11:42:31Z</time>
      </trkpt>
      <trkpt lat="44.61056" lon="2.06266">
        <ele>318</ele>
        <time>2018-05-07T11:42:35Z</time>
      </trkpt>
      <trkpt lat="44.6105" lon="2.06206">
        <ele>315</ele>
        <time>2018-05-07T11:43:06Z</time>
      </trkpt>
      <trkpt lat="44.61038" lon="2.06152">
        <ele>312</ele>
        <time>2018-05-07T11:43:38Z</time>
      </trkpt>
      <trkpt lat="44.61035" lon="2.06124">
        <ele>311</ele>
        <time>2018-05-07T11:43:55Z</time>
      </trkpt>
      <trkpt lat="44.61037" lon="2.06101">
        <ele>311</ele>
        <time>2018-05-07T11:44:12Z</time>
      </trkpt>
      <trkpt lat="44.61061" lon="2.05972">
        <ele>305</ele>
        <time>2018-05-07T11:45:29Z</time>
      </trkpt>
      <trkpt lat="44.61068" lon="2.05865">
        <ele>300</ele>
        <time>2018-05-07T11:46:35Z</time>
      </trkpt>
      <trkpt lat="44.61066" lon="2.05817">
        <ele>298</ele>
        <time>2018-05-07T11:47:03Z</time>
      </trkpt>
      <trkpt lat="44.61067" lon="2.05811">
        <ele>297</ele>
        <time>2018-05-07T11:47:07Z</time>
      </trkpt>
      <trkpt lat="44.61061" lon="2.05766">
        <ele>293</ele>
        <time>2018-05-07T11:47:31Z</time>
      </trkpt>
      <trkpt lat="44.61043" lon="2.05712">
        <ele>286</ele>
        <time>2018-05-07T11:48:02Z</time>
      </trkpt>
      <trkpt lat="44.61039" lon="2.05691">
        <ele>282</ele>
        <time>2018-05-07T11:48:14Z</time>
      </trkpt>
      <trkpt lat="44.61037" lon="2.05667">
        <ele>280</ele>
        <time>2018-05-07T11:48:26Z</time>
      </trkpt>
      <trkpt lat="44.61041" lon="2.05604">
        <ele>276</ele>
        <time>2018-05-07T11:49:03Z</time>
      </trkpt>
      <trkpt lat="44.61044" lon="2.05599">
        <ele>276</ele>
        <time>2018-05-07T11:49:30Z</time>
      </trkpt>
      <trkpt lat="44.6102" lon="2.05492">
        <ele>266</ele>
        <time>2018-05-07T11:50:37Z</time>
      </trkpt>
      <trkpt lat="44.61016" lon="2.05487">
        <ele>265</ele>
        <time>2018-05-07T11:50:40Z</time>
      </trkpt>
      <trkpt lat="44.60999" lon="2.05423">
        <ele>258</ele>
        <time>2018-05-07T11:51:21Z</time>
      </trkpt>
      <trkpt lat="44.61001" lon="2.05414">
        <ele>258</ele>
        <time>2018-05-07T11:51:44Z</time>
      </trkpt>
      <trkpt lat="44.60991" lon="2.05364">
        <ele>249</ele>
        <time>2018-05-07T11:52:17Z</time>
      </trkpt>
      <trkpt lat="44.60988" lon="2.05336">
        <ele>245</ele>
        <time>2018-05-07T11:52:33Z</time>
      </trkpt>
      <trkpt lat="44.6099" lon="2.05328">
        <ele>245</ele>
        <time>2018-05-07T11:52:50Z</time>
      </trkpt>
      <trkpt lat="44.60989" lon="2.05313">
        <ele>244</ele>
        <time>2018-05-07T11:52:58Z</time>
      </trkpt>
      <trkpt lat="44.60993" lon="2.05257">
        <ele>237</ele>
        <time>2018-05-07T11:53:32Z</time>
      </trkpt>
      <trkpt lat="44.60991" lon="2.0525">
        <ele>236</ele>
        <time>2018-05-07T11:53:36Z</time>
      </trkpt>
      <trkpt lat="44.60978" lon="2.05211">
        <ele>230</ele>
        <time>2018-05-07T11:53:59Z</time>
      </trkpt>
      <trkpt lat="44.60974" lon="2.05146">
        <ele>220</ele>
        <time>2018-05-07T11:54:33Z</time>
      </trkpt>
      <trkpt lat="44.60974" lon="2.05139">
        <ele>220</ele>
        <time>2018-05-07T11:54:38Z</time>
      </trkpt>
      <trkpt lat="44.60992" lon="2.0509">
        <ele>215</ele>
        <time>2018-05-07T11:55:15Z</time>
      </trkpt>
      <trkpt lat="44.60988" lon="2.05085">
        <ele>214</ele>
        <time>2018-05-07T11:55:38Z</time>
      </trkpt>
      <trkpt lat="44.60977" lon="2.05089">
        <ele>212</ele>
        <time>2018-05-07T11:55:49Z</time>
      </trkpt>
      <trkpt lat="44.60973" lon="2.05093">
        <ele>211</ele>
        <time>2018-05-07T11:55:54Z</time>
      </trkpt>
      <trkpt lat="44.60969" lon="2.05096">
        <ele>211</ele>
        <time>2018-05-07T11:55:58Z</time>
      </trkpt>
      <trkpt lat="44.60948" lon="2.05095">
        <ele>209</ele>
        <time>2018-05-07T11:56:13Z</time>
      </trkpt>
      <trkpt lat="44.60944" lon="2.05091">
        <ele>209</ele>
        <time>2018-05-07T11:56:18Z</time>
      </trkpt>
      <trkpt lat="44.60936" lon="2.05083">
        <ele>208</ele>
        <time>2018-05-07T11:56:27Z</time>
      </trkpt>
      <trkpt lat="44.60931" lon="2.0508">
        <ele>208</ele>
        <time>2018-05-07T11:56:31Z</time>
      </trkpt>
      <trkpt lat="44.60925" lon="2.05068">
        <ele>207</ele>
        <time>2018-05-07T11:56:40Z</time>
      </trkpt>
      <trkpt lat="44.60918" lon="2.0506">
        <ele>207</ele>
        <time>2018-05-07T11:57:14Z</time>
      </trkpt>
      <trkpt lat="44.60916" lon="2.05054">
        <ele>207</ele>
        <time>2018-05-07T11:57:18Z</time>
      </trkpt>
      <trkpt lat="44.60915" lon="2.05047">
        <ele>207</ele>
        <time>2018-05-07T11:57:22Z</time>
      </trkpt>
      <trkpt lat="44.60916" lon="2.05041">
        <ele>207</ele>
        <time>2018-05-07T11:57:26Z</time>
      </trkpt>
      <trkpt lat="44.60919" lon="2.05035">
        <ele>207</ele>
        <time>2018-05-07T11:57:30Z</time>
      </trkpt>
      <trkpt lat="44.6092" lon="2.05027">
        <ele>207</ele>
        <time>2018-05-07T11:57:34Z</time>
      </trkpt>
      <trkpt lat="44.60921" lon="2.05021">
        <ele>206</ele>
        <time>2018-05-07T11:57:38Z</time>
      </trkpt>
      <trkpt lat="44.60919" lon="2.05014">
        <ele>206</ele>
        <time>2018-05-07T11:57:42Z</time>
      </trkpt>
      <trkpt lat="44.60911" lon="2.05005">
        <ele>206</ele>
        <time>2018-05-07T11:57:51Z</time>
      </trkpt>
      <trkpt lat="44.60909" lon="2.04998">
        <ele>206</ele>
        <time>2018-05-07T11:57:56Z</time>
      </trkpt>
      <trkpt lat="44.60896" lon="2.04975">
        <ele>205</ele>
        <time>2018-05-07T11:58:35Z</time>
      </trkpt>
      <trkpt lat="44.60894" lon="2.04968">
        <ele>205</ele>
        <time>2018-05-07T11:58:40Z</time>
      </trkpt>
      <trkpt lat="44.60879" lon="2.04931">
        <ele>204</ele>
        <time>2018-05-07T11:59:06Z</time>
      </trkpt>
      <trkpt lat="44.60874" lon="2.04924">
        <ele>204</ele>
        <time>2018-05-07T11:59:17Z</time>
      </trkpt>
      <trkpt lat="44.60849" lon="2.04876">
        <ele>203</ele>
        <time>2018-05-07T11:59:49Z</time>
      </trkpt>
      <trkpt lat="44.60842" lon="2.04866">
        <ele>203</ele>
        <time>2018-05-07T11:59:57Z</time>
      </trkpt>
      <trkpt lat="44.60826" lon="2.04836">
        <ele>203</ele>
        <time>2018-05-07T12:00:17Z</time>
      </trkpt>
      <trkpt lat="44.60802" lon="2.04799">
        <ele>203</ele>
        <time>2018-05-07T12:00:48Z</time>
      </trkpt>
      <trkpt lat="44.608" lon="2.04792">
        <ele>202</ele>
        <time>2018-05-07T12:00:53Z</time>
      </trkpt>
      <trkpt lat="44.60792" lon="2.04773">
        <ele>202</ele>
        <time>2018-05-07T12:01:06Z</time>
      </trkpt>
      <trkpt lat="44.60776" lon="2.04721">
        <ele>202</ele>
        <time>2018-05-07T12:01:38Z</time>
      </trkpt>
      <trkpt lat="44.60775" lon="2.04706">
        <ele>202</ele>
        <time>2018-05-07T12:01:47Z</time>
      </trkpt>
      <trkpt lat="44.60778" lon="2.047">
        <ele>202</ele>
        <time>2018-05-07T12:01:52Z</time>
      </trkpt>
      <trkpt lat="44.60782" lon="2.04702">
        <ele>203</ele>
        <time>2018-05-07T12:02:01Z</time>
      </trkpt>
      <trkpt lat="44.60779" lon="2.04694">
        <ele>202</ele>
        <time>2018-05-07T12:02:12Z</time>
      </trkpt>
      <trkpt lat="44.6077" lon="2.04678">
        <ele>202</ele>
        <time>2018-05-07T12:02:24Z</time>
      </trkpt>
      <trkpt lat="44.6075" lon="2.04527">
        <ele>206</ele>
        <time>2018-05-07T12:03:51Z</time>
      </trkpt>
      <trkpt lat="44.60751" lon="2.0452">
        <ele>206</ele>
        <time>2018-05-07T12:03:56Z</time>
      </trkpt>
      <trkpt lat="44.60739" lon="2.04435">
        <ele>207</ele>
        <time>2018-05-07T12:04:45Z</time>
      </trkpt>
      <trkpt lat="44.60733" lon="2.04408">
        <ele>208</ele>
        <time>2018-05-07T12:05:02Z</time>
      </trkpt>
      <trkpt lat="44.60731" lon="2.04401">
        <ele>208</ele>
        <time>2018-05-07T12:05:06Z</time>
      </trkpt>
      <trkpt lat="44.60708" lon="2.04304">
        <ele>206</ele>
        <time>2018-05-07T12:06:04Z</time>
      </trkpt>
      <trkpt lat="44.60708" lon="2.04297">
        <ele>206</ele>
        <time>2018-05-07T12:06:08Z</time>
      </trkpt>
      <trkpt lat="44.60707" lon="2.04291">
        <ele>206</ele>
        <time>2018-05-07T12:06:12Z</time>
      </trkpt>
      <trkpt lat="44.60709" lon="2.04266">
        <ele>205</ele>
        <time>2018-05-07T12:06:35Z</time>
      </trkpt>
      <trkpt lat="44.60709" lon="2.04252">
        <ele>204</ele>
        <time>2018-05-07T12:06:43Z</time>
      </trkpt>
      <trkpt lat="44.6071" lon="2.04239">
        <ele>204</ele>
        <time>2018-05-07T12:06:51Z</time>
      </trkpt>
      <trkpt lat="44.60712" lon="2.0423">
        <ele>203</ele>
        <time>2018-05-07T12:07:05Z</time>
      </trkpt>
      <trkpt lat="44.60707" lon="2.04233">
        <ele>202</ele>
        <time>2018-05-07T12:07:26Z</time>
      </trkpt>
      <trkpt lat="44.60702" lon="2.04229">
        <ele>203</ele>
        <time>2018-05-07T12:07:30Z</time>
      </trkpt>
      <trkpt lat="44.60701" lon="2.04222">
        <ele>203</ele>
        <time>2018-05-07T12:07:35Z</time>
      </trkpt>
      <trkpt lat="44.60702" lon="2.04216">
        <ele>203</ele>
        <time>2018-05-07T12:07:43Z</time>
      </trkpt>
      <trkpt lat="44.607" lon="2.04209">
        <ele>203</ele>
        <time>2018-05-07T12:07:47Z</time>
      </trkpt>
      <trkpt lat="44.60672" lon="2.03902">
        <ele>201</ele>
        <time>2018-05-07T12:10:57Z</time>
      </trkpt>
      <trkpt lat="44.60672" lon="2.03895">
        <ele>201</ele>
        <time>2018-05-07T12:11:02Z</time>
      </trkpt>
      <trkpt lat="44.60666" lon="2.03861">
        <ele>201</ele>
        <time>2018-05-07T12:11:23Z</time>
      </trkpt>
      <trkpt lat="44.60661" lon="2.03792">
        <ele>199</ele>
        <time>2018-05-07T12:12:05Z</time>
      </trkpt>
      <trkpt lat="44.60654" lon="2.03751">
        <ele>198</ele>
        <time>2018-05-07T12:12:30Z</time>
      </trkpt>
      <trkpt lat="44.6065" lon="2.0369">
        <ele>196</ele>
        <time>2018-05-07T12:13:22Z</time>
      </trkpt>
      <trkpt lat="44.60645" lon="2.03664">
        <ele>196</ele>
        <time>2018-05-07T12:13:38Z</time>
      </trkpt>
      <trkpt lat="44.60651" lon="2.03663">
        <ele>196</ele>
        <time>2018-05-07T12:13:51Z</time>
      </trkpt>
      <trkpt lat="44.60644" lon="2.03648">
        <ele>195</ele>
        <time>2018-05-07T12:14:14Z</time>
      </trkpt>
      <trkpt lat="44.60627" lon="2.03486">
        <ele>193</ele>
        <time>2018-05-07T12:16:03Z</time>
      </trkpt>
      <trkpt lat="44.60625" lon="2.0348">
        <ele>193</ele>
        <time>2018-05-07T12:16:08Z</time>
      </trkpt>
      <trkpt lat="44.60622" lon="2.03472">
        <ele>193</ele>
        <time>2018-05-07T12:16:15Z</time>
      </trkpt>
      <trkpt lat="44.60625" lon="2.03465">
        <ele>193</ele>
        <time>2018-05-07T12:16:19Z</time>
      </trkpt>
      <trkpt lat="44.60624" lon="2.03438">
        <ele>193</ele>
        <time>2018-05-07T12:16:36Z</time>
      </trkpt>
      <trkpt lat="44.60624" lon="2.03431">
        <ele>193</ele>
        <time>2018-05-07T12:16:40Z</time>
      </trkpt>
      <trkpt lat="44.6062" lon="2.03425">
        <ele>193</ele>
        <time>2018-05-07T12:16:45Z</time>
      </trkpt>
      <trkpt lat="44.60617" lon="2.03421">
        <ele>193</ele>
        <time>2018-05-07T12:16:49Z</time>
      </trkpt>
      <trkpt lat="44.60613" lon="2.03422">
        <ele>193</ele>
        <time>2018-05-07T12:17:14Z</time>
      </trkpt>
      <trkpt lat="44.60612" lon="2.03412">
        <ele>193</ele>
        <time>2018-05-07T12:17:40Z</time>
      </trkpt>
      <trkpt lat="44.60626" lon="2.03401">
        <ele>192</ele>
        <time>2018-05-07T12:18:05Z</time>
      </trkpt>
      <trkpt lat="44.60641" lon="2.03404">
        <ele>192</ele>
        <time>2018-05-07T12:18:17Z</time>
      </trkpt>
      <trkpt lat="44.60658" lon="2.03402">
        <ele>191</ele>
        <time>2018-05-07T12:18:35Z</time>
      </trkpt>
      <trkpt lat="44.60662" lon="2.03396">
        <ele>192</ele>
        <time>2018-05-07T12:18:50Z</time>
      </trkpt>
      <trkpt lat="44.60664" lon="2.0339">
        <ele>191</ele>
        <time>2018-05-07T12:19:00Z</time>
      </trkpt>
      <trkpt lat="44.6067" lon="2.03389">
        <ele>193</ele>
        <time>2018-05-07T12:22:18Z</time>
      </trkpt>
    </trkseg>
  </trk>
</gpx>